<?xml version="1.0" encoding="UTF-8" standalone="no" ?>
<gpx xmlns="http://www.topografix.com/GPX/1/1" xmlns:xsi="http://www.w3.org/2001/XMLSchema-instance" xsi:schemaLocation="http://www.topografix.com/GPX/1/1 http://www.topografix.com/GPX/1/1/gpx.xsd" version="1.1" creator="VisuGPX - https://www.visugpx.com">
  <metadata>
    <name>Petit-camon</name>
  </metadata>
  <trk>
    <name><![CDATA[Petit-camon_1]]></name>
    <trkseg>
      <trkpt lat="49.91861" lon="2.36058">
        <ele>65.3</ele>
        <time>2022-02-11T13:00:32Z</time>
      </trkpt>
      <trkpt lat="49.91861" lon="2.36058">
        <ele>65.3</ele>
        <time>2022-02-11T13:00:33Z</time>
      </trkpt>
      <trkpt lat="49.91861" lon="2.36058">
        <ele>65.3</ele>
        <time>2022-02-11T13:00:34Z</time>
      </trkpt>
      <trkpt lat="49.91861" lon="2.36058">
        <ele>65.3</ele>
        <time>2022-02-11T13:00:35Z</time>
      </trkpt>
      <trkpt lat="49.91861" lon="2.36058">
        <ele>65.3</ele>
        <time>2022-02-11T13:00:36Z</time>
      </trkpt>
      <trkpt lat="49.91861" lon="2.36058">
        <ele>65.3</ele>
        <time>2022-02-11T13:00:37Z</time>
      </trkpt>
      <trkpt lat="49.91861" lon="2.36058">
        <ele>65.3</ele>
        <time>2022-02-11T13:00:38Z</time>
      </trkpt>
      <trkpt lat="49.91861" lon="2.36058">
        <ele>65.3</ele>
        <time>2022-02-11T13:00:39Z</time>
      </trkpt>
      <trkpt lat="49.91861" lon="2.36058">
        <ele>65.3</ele>
        <time>2022-02-11T13:00:40Z</time>
      </trkpt>
      <trkpt lat="49.91861" lon="2.36058">
        <ele>65.3</ele>
        <time>2022-02-11T13:00:41Z</time>
      </trkpt>
      <trkpt lat="49.91861" lon="2.36058">
        <ele>65.3</ele>
        <time>2022-02-11T13:00:42Z</time>
      </trkpt>
      <trkpt lat="49.91861" lon="2.36058">
        <ele>65.3</ele>
        <time>2022-02-11T13:00:43Z</time>
      </trkpt>
      <trkpt lat="49.91861" lon="2.36058">
        <ele>65.3</ele>
        <time>2022-02-11T13:00:44Z</time>
      </trkpt>
      <trkpt lat="49.91861" lon="2.36058">
        <ele>65.3</ele>
        <time>2022-02-11T13:00:45Z</time>
      </trkpt>
      <trkpt lat="49.91861" lon="2.36058">
        <ele>65.3</ele>
        <time>2022-02-11T13:00:46Z</time>
      </trkpt>
      <trkpt lat="49.91861" lon="2.36058">
        <ele>65.3</ele>
        <time>2022-02-11T13:00:47Z</time>
      </trkpt>
      <trkpt lat="49.91861" lon="2.36058">
        <ele>65.3</ele>
        <time>2022-02-11T13:00:48Z</time>
      </trkpt>
      <trkpt lat="49.91861" lon="2.36058">
        <ele>65.3</ele>
        <time>2022-02-11T13:00:49Z</time>
      </trkpt>
      <trkpt lat="49.91861" lon="2.36058">
        <ele>65.3</ele>
        <time>2022-02-11T13:00:50Z</time>
      </trkpt>
      <trkpt lat="49.91861" lon="2.36058">
        <ele>65.3</ele>
        <time>2022-02-11T13:00:51Z</time>
      </trkpt>
      <trkpt lat="49.91861" lon="2.36058">
        <ele>65.3</ele>
        <time>2022-02-11T13:00:52Z</time>
      </trkpt>
      <trkpt lat="49.91861" lon="2.36058">
        <ele>65.3</ele>
        <time>2022-02-11T13:00:53Z</time>
      </trkpt>
      <trkpt lat="49.91861" lon="2.36058">
        <ele>65.3</ele>
        <time>2022-02-11T13:00:54Z</time>
      </trkpt>
      <trkpt lat="49.91861" lon="2.36058">
        <ele>65.3</ele>
        <time>2022-02-11T13:00:55Z</time>
      </trkpt>
      <trkpt lat="49.91861" lon="2.36058">
        <ele>65.3</ele>
        <time>2022-02-11T13:00:56Z</time>
      </trkpt>
      <trkpt lat="49.91861" lon="2.36058">
        <ele>65.3</ele>
        <time>2022-02-11T13:00:57Z</time>
      </trkpt>
      <trkpt lat="49.91861" lon="2.36058">
        <ele>65.3</ele>
        <time>2022-02-11T13:00:58Z</time>
      </trkpt>
      <trkpt lat="49.91861" lon="2.36058">
        <ele>65.3</ele>
        <time>2022-02-11T13:00:59Z</time>
      </trkpt>
      <trkpt lat="49.91861" lon="2.36058">
        <ele>65.3</ele>
        <time>2022-02-11T13:01:00Z</time>
      </trkpt>
      <trkpt lat="49.91861" lon="2.36058">
        <ele>65.3</ele>
        <time>2022-02-11T13:01:01Z</time>
      </trkpt>
      <trkpt lat="49.91861" lon="2.36058">
        <ele>65.3</ele>
        <time>2022-02-11T13:01:02Z</time>
      </trkpt>
      <trkpt lat="49.91861" lon="2.36058">
        <ele>65.3</ele>
        <time>2022-02-11T13:01:03Z</time>
      </trkpt>
      <trkpt lat="49.91861" lon="2.36058">
        <ele>65.3</ele>
        <time>2022-02-11T13:01:04Z</time>
      </trkpt>
      <trkpt lat="49.91861" lon="2.36058">
        <ele>65.3</ele>
        <time>2022-02-11T13:01:05Z</time>
      </trkpt>
      <trkpt lat="49.91861" lon="2.36058">
        <ele>65.3</ele>
        <time>2022-02-11T13:01:06Z</time>
      </trkpt>
      <trkpt lat="49.91861" lon="2.36058">
        <ele>65.3</ele>
        <time>2022-02-11T13:01:07Z</time>
      </trkpt>
      <trkpt lat="49.91861" lon="2.36058">
        <ele>65.3</ele>
        <time>2022-02-11T13:01:08Z</time>
      </trkpt>
      <trkpt lat="49.91861" lon="2.36058">
        <ele>65.3</ele>
        <time>2022-02-11T13:01:09Z</time>
      </trkpt>
      <trkpt lat="49.91861" lon="2.36058">
        <ele>65.3</ele>
        <time>2022-02-11T13:01:10Z</time>
      </trkpt>
      <trkpt lat="49.91861" lon="2.36058">
        <ele>65.3</ele>
        <time>2022-02-11T13:01:11Z</time>
      </trkpt>
      <trkpt lat="49.91861" lon="2.36058">
        <ele>65.3</ele>
        <time>2022-02-11T13:01:12Z</time>
      </trkpt>
      <trkpt lat="49.91861" lon="2.36058">
        <ele>65.3</ele>
        <time>2022-02-11T13:01:13Z</time>
      </trkpt>
      <trkpt lat="49.91861" lon="2.36058">
        <ele>65.3</ele>
        <time>2022-02-11T13:01:14Z</time>
      </trkpt>
      <trkpt lat="49.91861" lon="2.36058">
        <ele>65.3</ele>
        <time>2022-02-11T13:01:15Z</time>
      </trkpt>
      <trkpt lat="49.91861" lon="2.36058">
        <ele>65.3</ele>
        <time>2022-02-11T13:01:16Z</time>
      </trkpt>
      <trkpt lat="49.91861" lon="2.36058">
        <ele>65.3</ele>
        <time>2022-02-11T13:01:17Z</time>
      </trkpt>
      <trkpt lat="49.91861" lon="2.36058">
        <ele>65.3</ele>
        <time>2022-02-11T13:01:18Z</time>
      </trkpt>
      <trkpt lat="49.91861" lon="2.36058">
        <ele>65.3</ele>
        <time>2022-02-11T13:01:19Z</time>
      </trkpt>
      <trkpt lat="49.91861" lon="2.36058">
        <ele>65.3</ele>
        <time>2022-02-11T13:01:20Z</time>
      </trkpt>
      <trkpt lat="49.91861" lon="2.36058">
        <ele>65.3</ele>
        <time>2022-02-11T13:01:21Z</time>
      </trkpt>
      <trkpt lat="49.91861" lon="2.36058">
        <ele>65.3</ele>
        <time>2022-02-11T13:01:22Z</time>
      </trkpt>
      <trkpt lat="49.91861" lon="2.36058">
        <ele>65.3</ele>
        <time>2022-02-11T13:01:23Z</time>
      </trkpt>
      <trkpt lat="49.91861" lon="2.36058">
        <ele>65.3</ele>
        <time>2022-02-11T13:01:24Z</time>
      </trkpt>
      <trkpt lat="49.91861" lon="2.36058">
        <ele>65.3</ele>
        <time>2022-02-11T13:01:25Z</time>
      </trkpt>
      <trkpt lat="49.91861" lon="2.36058">
        <ele>65.3</ele>
        <time>2022-02-11T13:01:26Z</time>
      </trkpt>
      <trkpt lat="49.91861" lon="2.36058">
        <ele>65.3</ele>
        <time>2022-02-11T13:01:27Z</time>
      </trkpt>
      <trkpt lat="49.91861" lon="2.36058">
        <ele>65.3</ele>
        <time>2022-02-11T13:01:28Z</time>
      </trkpt>
      <trkpt lat="49.91861" lon="2.36058">
        <ele>65.3</ele>
        <time>2022-02-11T13:01:29Z</time>
      </trkpt>
      <trkpt lat="49.91861" lon="2.36058">
        <ele>65.3</ele>
        <time>2022-02-11T13:01:30Z</time>
      </trkpt>
      <trkpt lat="49.91861" lon="2.36058">
        <ele>65.3</ele>
        <time>2022-02-11T13:01:31Z</time>
      </trkpt>
      <trkpt lat="49.91861" lon="2.36058">
        <ele>65.3</ele>
        <time>2022-02-11T13:01:32Z</time>
      </trkpt>
      <trkpt lat="49.91861" lon="2.36058">
        <ele>65.3</ele>
        <time>2022-02-11T13:01:33Z</time>
      </trkpt>
      <trkpt lat="49.91861" lon="2.36058">
        <ele>65.3</ele>
        <time>2022-02-11T13:01:34Z</time>
      </trkpt>
      <trkpt lat="49.91861" lon="2.36058">
        <ele>65.3</ele>
        <time>2022-02-11T13:01:35Z</time>
      </trkpt>
      <trkpt lat="49.91861" lon="2.36058">
        <ele>65.3</ele>
        <time>2022-02-11T13:01:36Z</time>
      </trkpt>
      <trkpt lat="49.91861" lon="2.36058">
        <ele>65.3</ele>
        <time>2022-02-11T13:01:37Z</time>
      </trkpt>
      <trkpt lat="49.91861" lon="2.36058">
        <ele>65.3</ele>
        <time>2022-02-11T13:01:38Z</time>
      </trkpt>
      <trkpt lat="49.91861" lon="2.36058">
        <ele>65.3</ele>
        <time>2022-02-11T13:01:39Z</time>
      </trkpt>
      <trkpt lat="49.91861" lon="2.36058">
        <ele>65.3</ele>
        <time>2022-02-11T13:01:40Z</time>
      </trkpt>
      <trkpt lat="49.91861" lon="2.36058">
        <ele>65.3</ele>
        <time>2022-02-11T13:01:41Z</time>
      </trkpt>
      <trkpt lat="49.91861" lon="2.36058">
        <ele>65.3</ele>
        <time>2022-02-11T13:01:42Z</time>
      </trkpt>
      <trkpt lat="49.9186" lon="2.36056">
        <ele>65.3</ele>
        <time>2022-02-11T13:01:43Z</time>
      </trkpt>
      <trkpt lat="49.9186" lon="2.36051">
        <ele>65.2</ele>
        <time>2022-02-11T13:01:45Z</time>
      </trkpt>
      <trkpt lat="49.91859" lon="2.36049">
        <ele>65.2</ele>
        <time>2022-02-11T13:01:46Z</time>
      </trkpt>
      <trkpt lat="49.91859" lon="2.36046">
        <ele>65.2</ele>
        <time>2022-02-11T13:01:47Z</time>
      </trkpt>
      <trkpt lat="49.91858" lon="2.36045">
        <ele>65.2</ele>
        <time>2022-02-11T13:01:48Z</time>
      </trkpt>
      <trkpt lat="49.91858" lon="2.36044">
        <ele>65.1</ele>
        <time>2022-02-11T13:01:49Z</time>
      </trkpt>
      <trkpt lat="49.91857" lon="2.36043">
        <ele>65.1</ele>
        <time>2022-02-11T13:01:50Z</time>
      </trkpt>
      <trkpt lat="49.91856" lon="2.36042">
        <ele>65.1</ele>
        <time>2022-02-11T13:01:51Z</time>
      </trkpt>
      <trkpt lat="49.91855" lon="2.36039">
        <ele>65.1</ele>
        <time>2022-02-11T13:01:52Z</time>
      </trkpt>
      <trkpt lat="49.91854" lon="2.36039">
        <ele>65.1</ele>
        <time>2022-02-11T13:01:53Z</time>
      </trkpt>
      <trkpt lat="49.91853" lon="2.36037">
        <ele>65</ele>
        <time>2022-02-11T13:01:54Z</time>
      </trkpt>
      <trkpt lat="49.91852" lon="2.36036">
        <ele>65</ele>
        <time>2022-02-11T13:01:55Z</time>
      </trkpt>
      <trkpt lat="49.91851" lon="2.36035">
        <ele>65</ele>
        <time>2022-02-11T13:01:56Z</time>
      </trkpt>
      <trkpt lat="49.9185" lon="2.36032">
        <ele>65</ele>
        <time>2022-02-11T13:01:57Z</time>
      </trkpt>
      <trkpt lat="49.91849" lon="2.3603">
        <ele>64.9</ele>
        <time>2022-02-11T13:01:58Z</time>
      </trkpt>
      <trkpt lat="49.91849" lon="2.36029">
        <ele>64.9</ele>
        <time>2022-02-11T13:02:00Z</time>
      </trkpt>
      <trkpt lat="49.91849" lon="2.36027">
        <ele>64.9</ele>
        <time>2022-02-11T13:02:01Z</time>
      </trkpt>
      <trkpt lat="49.91848" lon="2.36025">
        <ele>64.9</ele>
        <time>2022-02-11T13:02:02Z</time>
      </trkpt>
      <trkpt lat="49.91847" lon="2.36024">
        <ele>64.9</ele>
        <time>2022-02-11T13:02:03Z</time>
      </trkpt>
      <trkpt lat="49.91846" lon="2.36021">
        <ele>64.9</ele>
        <time>2022-02-11T13:02:04Z</time>
      </trkpt>
      <trkpt lat="49.91845" lon="2.36016">
        <ele>64.8</ele>
        <time>2022-02-11T13:02:05Z</time>
      </trkpt>
      <trkpt lat="49.91844" lon="2.36015">
        <ele>64.8</ele>
        <time>2022-02-11T13:02:06Z</time>
      </trkpt>
      <trkpt lat="49.91843" lon="2.36012">
        <ele>64.8</ele>
        <time>2022-02-11T13:02:07Z</time>
      </trkpt>
      <trkpt lat="49.91843" lon="2.3601">
        <ele>64.8</ele>
        <time>2022-02-11T13:02:08Z</time>
      </trkpt>
      <trkpt lat="49.91842" lon="2.36007">
        <ele>64.7</ele>
        <time>2022-02-11T13:02:09Z</time>
      </trkpt>
      <trkpt lat="49.91842" lon="2.36005">
        <ele>64.7</ele>
        <time>2022-02-11T13:02:10Z</time>
      </trkpt>
      <trkpt lat="49.91841" lon="2.36002">
        <ele>64.7</ele>
        <time>2022-02-11T13:02:12Z</time>
      </trkpt>
      <trkpt lat="49.9184" lon="2.36001">
        <ele>64.7</ele>
        <time>2022-02-11T13:02:13Z</time>
      </trkpt>
      <trkpt lat="49.9184" lon="2.35999">
        <ele>64.7</ele>
        <time>2022-02-11T13:02:14Z</time>
      </trkpt>
      <trkpt lat="49.91839" lon="2.35997">
        <ele>64.7</ele>
        <time>2022-02-11T13:02:15Z</time>
      </trkpt>
      <trkpt lat="49.91839" lon="2.35995">
        <ele>64.7</ele>
        <time>2022-02-11T13:02:16Z</time>
      </trkpt>
      <trkpt lat="49.91838" lon="2.35993">
        <ele>64.7</ele>
        <time>2022-02-11T13:02:17Z</time>
      </trkpt>
      <trkpt lat="49.91837" lon="2.3599">
        <ele>64.6</ele>
        <time>2022-02-11T13:02:18Z</time>
      </trkpt>
      <trkpt lat="49.91837" lon="2.35988">
        <ele>64.6</ele>
        <time>2022-02-11T13:02:19Z</time>
      </trkpt>
      <trkpt lat="49.91836" lon="2.35987">
        <ele>64.6</ele>
        <time>2022-02-11T13:02:20Z</time>
      </trkpt>
      <trkpt lat="49.91836" lon="2.35985">
        <ele>64.6</ele>
        <time>2022-02-11T13:02:21Z</time>
      </trkpt>
      <trkpt lat="49.91836" lon="2.35984">
        <ele>64.6</ele>
        <time>2022-02-11T13:02:22Z</time>
      </trkpt>
      <trkpt lat="49.91835" lon="2.35982">
        <ele>64.6</ele>
        <time>2022-02-11T13:02:23Z</time>
      </trkpt>
      <trkpt lat="49.91834" lon="2.3598">
        <ele>64.6</ele>
        <time>2022-02-11T13:02:24Z</time>
      </trkpt>
      <trkpt lat="49.91833" lon="2.35979">
        <ele>64.5</ele>
        <time>2022-02-11T13:02:26Z</time>
      </trkpt>
      <trkpt lat="49.91832" lon="2.35978">
        <ele>64.5</ele>
        <time>2022-02-11T13:02:27Z</time>
      </trkpt>
      <trkpt lat="49.91831" lon="2.35977">
        <ele>64.5</ele>
        <time>2022-02-11T13:02:29Z</time>
      </trkpt>
      <trkpt lat="49.9183" lon="2.35976">
        <ele>64.5</ele>
        <time>2022-02-11T13:02:30Z</time>
      </trkpt>
      <trkpt lat="49.91829" lon="2.35976">
        <ele>64.5</ele>
        <time>2022-02-11T13:02:32Z</time>
      </trkpt>
      <trkpt lat="49.91829" lon="2.35976">
        <ele>64.5</ele>
        <time>2022-02-11T13:02:33Z</time>
      </trkpt>
      <trkpt lat="49.91828" lon="2.35975">
        <ele>64.5</ele>
        <time>2022-02-11T13:02:34Z</time>
      </trkpt>
      <trkpt lat="49.91828" lon="2.35975">
        <ele>64.5</ele>
        <time>2022-02-11T13:02:35Z</time>
      </trkpt>
      <trkpt lat="49.91827" lon="2.35974">
        <ele>64.5</ele>
        <time>2022-02-11T13:02:37Z</time>
      </trkpt>
      <trkpt lat="49.91827" lon="2.35973">
        <ele>64.5</ele>
        <time>2022-02-11T13:02:38Z</time>
      </trkpt>
      <trkpt lat="49.91826" lon="2.35972">
        <ele>64.4</ele>
        <time>2022-02-11T13:02:39Z</time>
      </trkpt>
      <trkpt lat="49.91826" lon="2.35971">
        <ele>64.4</ele>
        <time>2022-02-11T13:02:40Z</time>
      </trkpt>
      <trkpt lat="49.91826" lon="2.3597">
        <ele>64.4</ele>
        <time>2022-02-11T13:02:41Z</time>
      </trkpt>
      <trkpt lat="49.91826" lon="2.35969">
        <ele>64.4</ele>
        <time>2022-02-11T13:02:42Z</time>
      </trkpt>
      <trkpt lat="49.91825" lon="2.35967">
        <ele>64.4</ele>
        <time>2022-02-11T13:02:43Z</time>
      </trkpt>
      <trkpt lat="49.91825" lon="2.35964">
        <ele>64.4</ele>
        <time>2022-02-11T13:02:44Z</time>
      </trkpt>
      <trkpt lat="49.91825" lon="2.35962">
        <ele>64.4</ele>
        <time>2022-02-11T13:02:45Z</time>
      </trkpt>
      <trkpt lat="49.91825" lon="2.35961">
        <ele>64.3</ele>
        <time>2022-02-11T13:02:46Z</time>
      </trkpt>
      <trkpt lat="49.91825" lon="2.35959">
        <ele>64.3</ele>
        <time>2022-02-11T13:02:48Z</time>
      </trkpt>
      <trkpt lat="49.91826" lon="2.35958">
        <ele>64.3</ele>
        <time>2022-02-11T13:02:49Z</time>
      </trkpt>
      <trkpt lat="49.91826" lon="2.35957">
        <ele>64.3</ele>
        <time>2022-02-11T13:02:50Z</time>
      </trkpt>
      <trkpt lat="49.91825" lon="2.35954">
        <ele>64.3</ele>
        <time>2022-02-11T13:02:51Z</time>
      </trkpt>
      <trkpt lat="49.91825" lon="2.35953">
        <ele>64.3</ele>
        <time>2022-02-11T13:02:52Z</time>
      </trkpt>
      <trkpt lat="49.91825" lon="2.35952">
        <ele>64.3</ele>
        <time>2022-02-11T13:02:53Z</time>
      </trkpt>
      <trkpt lat="49.91825" lon="2.3595">
        <ele>64.2</ele>
        <time>2022-02-11T13:02:54Z</time>
      </trkpt>
      <trkpt lat="49.91826" lon="2.35949">
        <ele>64.2</ele>
        <time>2022-02-11T13:02:55Z</time>
      </trkpt>
      <trkpt lat="49.91827" lon="2.35949">
        <ele>64.2</ele>
        <time>2022-02-11T13:02:56Z</time>
      </trkpt>
      <trkpt lat="49.91828" lon="2.35951">
        <ele>64.2</ele>
        <time>2022-02-11T13:02:57Z</time>
      </trkpt>
      <trkpt lat="49.91828" lon="2.35953">
        <ele>64.2</ele>
        <time>2022-02-11T13:02:58Z</time>
      </trkpt>
      <trkpt lat="49.91828" lon="2.35954">
        <ele>64.2</ele>
        <time>2022-02-11T13:02:59Z</time>
      </trkpt>
      <trkpt lat="49.91827" lon="2.35955">
        <ele>64.2</ele>
        <time>2022-02-11T13:03:00Z</time>
      </trkpt>
      <trkpt lat="49.91828" lon="2.35955">
        <ele>64.1</ele>
        <time>2022-02-11T13:03:01Z</time>
      </trkpt>
      <trkpt lat="49.91828" lon="2.35955">
        <ele>64.1</ele>
        <time>2022-02-11T13:03:02Z</time>
      </trkpt>
      <trkpt lat="49.91828" lon="2.35955">
        <ele>64.1</ele>
        <time>2022-02-11T13:03:03Z</time>
      </trkpt>
      <trkpt lat="49.91828" lon="2.35955">
        <ele>64.1</ele>
        <time>2022-02-11T13:03:04Z</time>
      </trkpt>
      <trkpt lat="49.91828" lon="2.35955">
        <ele>64.1</ele>
        <time>2022-02-11T13:03:05Z</time>
      </trkpt>
      <trkpt lat="49.91828" lon="2.35955">
        <ele>64.1</ele>
        <time>2022-02-11T13:03:06Z</time>
      </trkpt>
      <trkpt lat="49.91827" lon="2.35955">
        <ele>64.1</ele>
        <time>2022-02-11T13:03:07Z</time>
      </trkpt>
      <trkpt lat="49.91827" lon="2.35955">
        <ele>64.1</ele>
        <time>2022-02-11T13:03:08Z</time>
      </trkpt>
      <trkpt lat="49.91827" lon="2.35955">
        <ele>64.1</ele>
        <time>2022-02-11T13:03:09Z</time>
      </trkpt>
      <trkpt lat="49.91827" lon="2.35955">
        <ele>64.1</ele>
        <time>2022-02-11T13:03:10Z</time>
      </trkpt>
      <trkpt lat="49.91827" lon="2.35954">
        <ele>64.1</ele>
        <time>2022-02-11T13:03:11Z</time>
      </trkpt>
      <trkpt lat="49.91827" lon="2.35954">
        <ele>64.1</ele>
        <time>2022-02-11T13:03:12Z</time>
      </trkpt>
      <trkpt lat="49.91827" lon="2.35954">
        <ele>64.1</ele>
        <time>2022-02-11T13:03:13Z</time>
      </trkpt>
      <trkpt lat="49.91827" lon="2.35954">
        <ele>64.1</ele>
        <time>2022-02-11T13:03:14Z</time>
      </trkpt>
      <trkpt lat="49.91828" lon="2.35954">
        <ele>64.1</ele>
        <time>2022-02-11T13:03:15Z</time>
      </trkpt>
      <trkpt lat="49.91827" lon="2.35954">
        <ele>64.1</ele>
        <time>2022-02-11T13:03:16Z</time>
      </trkpt>
      <trkpt lat="49.91827" lon="2.35953">
        <ele>64.1</ele>
        <time>2022-02-11T13:03:17Z</time>
      </trkpt>
      <trkpt lat="49.91826" lon="2.35952">
        <ele>64.1</ele>
        <time>2022-02-11T13:03:18Z</time>
      </trkpt>
      <trkpt lat="49.91826" lon="2.35952">
        <ele>64.1</ele>
        <time>2022-02-11T13:03:19Z</time>
      </trkpt>
      <trkpt lat="49.91826" lon="2.35951">
        <ele>64.1</ele>
        <time>2022-02-11T13:03:20Z</time>
      </trkpt>
      <trkpt lat="49.91826" lon="2.35951">
        <ele>64.1</ele>
        <time>2022-02-11T13:03:21Z</time>
      </trkpt>
      <trkpt lat="49.91826" lon="2.3595">
        <ele>64.1</ele>
        <time>2022-02-11T13:03:23Z</time>
      </trkpt>
      <trkpt lat="49.91825" lon="2.35948">
        <ele>64.1</ele>
        <time>2022-02-11T13:03:24Z</time>
      </trkpt>
      <trkpt lat="49.91825" lon="2.35947">
        <ele>64</ele>
        <time>2022-02-11T13:03:25Z</time>
      </trkpt>
      <trkpt lat="49.91825" lon="2.35946">
        <ele>64</ele>
        <time>2022-02-11T13:03:26Z</time>
      </trkpt>
      <trkpt lat="49.91824" lon="2.35946">
        <ele>64</ele>
        <time>2022-02-11T13:03:27Z</time>
      </trkpt>
      <trkpt lat="49.91824" lon="2.35946">
        <ele>64</ele>
        <time>2022-02-11T13:03:28Z</time>
      </trkpt>
      <trkpt lat="49.91824" lon="2.35946">
        <ele>64</ele>
        <time>2022-02-11T13:03:29Z</time>
      </trkpt>
      <trkpt lat="49.91823" lon="2.35947">
        <ele>64</ele>
        <time>2022-02-11T13:03:30Z</time>
      </trkpt>
      <trkpt lat="49.91823" lon="2.35947">
        <ele>64</ele>
        <time>2022-02-11T13:03:31Z</time>
      </trkpt>
      <trkpt lat="49.91823" lon="2.35947">
        <ele>64</ele>
        <time>2022-02-11T13:03:32Z</time>
      </trkpt>
      <trkpt lat="49.91823" lon="2.35947">
        <ele>64</ele>
        <time>2022-02-11T13:03:33Z</time>
      </trkpt>
      <trkpt lat="49.91823" lon="2.35947">
        <ele>64</ele>
        <time>2022-02-11T13:03:34Z</time>
      </trkpt>
      <trkpt lat="49.91823" lon="2.35947">
        <ele>64</ele>
        <time>2022-02-11T13:03:35Z</time>
      </trkpt>
      <trkpt lat="49.91823" lon="2.35947">
        <ele>64</ele>
        <time>2022-02-11T13:03:36Z</time>
      </trkpt>
      <trkpt lat="49.91823" lon="2.35947">
        <ele>64</ele>
        <time>2022-02-11T13:03:37Z</time>
      </trkpt>
      <trkpt lat="49.91823" lon="2.35947">
        <ele>64</ele>
        <time>2022-02-11T13:03:38Z</time>
      </trkpt>
      <trkpt lat="49.91823" lon="2.35947">
        <ele>64</ele>
        <time>2022-02-11T13:03:39Z</time>
      </trkpt>
      <trkpt lat="49.91823" lon="2.35947">
        <ele>64</ele>
        <time>2022-02-11T13:03:40Z</time>
      </trkpt>
      <trkpt lat="49.91823" lon="2.35947">
        <ele>64</ele>
        <time>2022-02-11T13:03:41Z</time>
      </trkpt>
      <trkpt lat="49.91823" lon="2.35947">
        <ele>64</ele>
        <time>2022-02-11T13:03:42Z</time>
      </trkpt>
      <trkpt lat="49.91823" lon="2.35947">
        <ele>64</ele>
        <time>2022-02-11T13:03:43Z</time>
      </trkpt>
      <trkpt lat="49.91823" lon="2.35947">
        <ele>64</ele>
        <time>2022-02-11T13:03:44Z</time>
      </trkpt>
      <trkpt lat="49.91823" lon="2.35947">
        <ele>64</ele>
        <time>2022-02-11T13:03:45Z</time>
      </trkpt>
      <trkpt lat="49.91823" lon="2.35947">
        <ele>64</ele>
        <time>2022-02-11T13:03:46Z</time>
      </trkpt>
      <trkpt lat="49.91823" lon="2.35947">
        <ele>64</ele>
        <time>2022-02-11T13:03:47Z</time>
      </trkpt>
      <trkpt lat="49.91823" lon="2.35947">
        <ele>64</ele>
        <time>2022-02-11T13:03:48Z</time>
      </trkpt>
      <trkpt lat="49.91823" lon="2.35947">
        <ele>64</ele>
        <time>2022-02-11T13:03:49Z</time>
      </trkpt>
      <trkpt lat="49.91823" lon="2.35947">
        <ele>64</ele>
        <time>2022-02-11T13:03:50Z</time>
      </trkpt>
      <trkpt lat="49.91823" lon="2.35947">
        <ele>64</ele>
        <time>2022-02-11T13:03:51Z</time>
      </trkpt>
      <trkpt lat="49.91823" lon="2.35947">
        <ele>64</ele>
        <time>2022-02-11T13:03:52Z</time>
      </trkpt>
      <trkpt lat="49.91823" lon="2.35947">
        <ele>64</ele>
        <time>2022-02-11T13:03:53Z</time>
      </trkpt>
      <trkpt lat="49.91823" lon="2.35947">
        <ele>64</ele>
        <time>2022-02-11T13:03:54Z</time>
      </trkpt>
      <trkpt lat="49.91823" lon="2.35947">
        <ele>64</ele>
        <time>2022-02-11T13:03:55Z</time>
      </trkpt>
      <trkpt lat="49.91823" lon="2.35947">
        <ele>64</ele>
        <time>2022-02-11T13:03:56Z</time>
      </trkpt>
      <trkpt lat="49.91823" lon="2.35947">
        <ele>64</ele>
        <time>2022-02-11T13:03:57Z</time>
      </trkpt>
      <trkpt lat="49.91823" lon="2.35947">
        <ele>64</ele>
        <time>2022-02-11T13:03:58Z</time>
      </trkpt>
      <trkpt lat="49.91823" lon="2.35947">
        <ele>64</ele>
        <time>2022-02-11T13:03:59Z</time>
      </trkpt>
      <trkpt lat="49.91823" lon="2.35947">
        <ele>64</ele>
        <time>2022-02-11T13:04:00Z</time>
      </trkpt>
      <trkpt lat="49.91823" lon="2.35947">
        <ele>64</ele>
        <time>2022-02-11T13:04:01Z</time>
      </trkpt>
      <trkpt lat="49.91823" lon="2.35947">
        <ele>64</ele>
        <time>2022-02-11T13:04:02Z</time>
      </trkpt>
      <trkpt lat="49.91823" lon="2.35947">
        <ele>64</ele>
        <time>2022-02-11T13:04:03Z</time>
      </trkpt>
      <trkpt lat="49.91823" lon="2.35947">
        <ele>64</ele>
        <time>2022-02-11T13:04:04Z</time>
      </trkpt>
      <trkpt lat="49.91823" lon="2.35947">
        <ele>64</ele>
        <time>2022-02-11T13:04:05Z</time>
      </trkpt>
      <trkpt lat="49.91823" lon="2.35947">
        <ele>64</ele>
        <time>2022-02-11T13:04:06Z</time>
      </trkpt>
      <trkpt lat="49.91823" lon="2.35947">
        <ele>64</ele>
        <time>2022-02-11T13:04:07Z</time>
      </trkpt>
      <trkpt lat="49.91823" lon="2.35947">
        <ele>64</ele>
        <time>2022-02-11T13:04:08Z</time>
      </trkpt>
      <trkpt lat="49.91823" lon="2.35946">
        <ele>64</ele>
        <time>2022-02-11T13:04:09Z</time>
      </trkpt>
      <trkpt lat="49.91823" lon="2.35946">
        <ele>64</ele>
        <time>2022-02-11T13:04:10Z</time>
      </trkpt>
      <trkpt lat="49.91823" lon="2.35945">
        <ele>64</ele>
        <time>2022-02-11T13:04:11Z</time>
      </trkpt>
      <trkpt lat="49.91822" lon="2.35944">
        <ele>64</ele>
        <time>2022-02-11T13:04:12Z</time>
      </trkpt>
      <trkpt lat="49.91822" lon="2.35944">
        <ele>63.9</ele>
        <time>2022-02-11T13:04:13Z</time>
      </trkpt>
      <trkpt lat="49.91822" lon="2.35943">
        <ele>63.9</ele>
        <time>2022-02-11T13:04:14Z</time>
      </trkpt>
      <trkpt lat="49.91823" lon="2.35943">
        <ele>63.9</ele>
        <time>2022-02-11T13:04:15Z</time>
      </trkpt>
      <trkpt lat="49.91823" lon="2.35943">
        <ele>63.9</ele>
        <time>2022-02-11T13:04:16Z</time>
      </trkpt>
      <trkpt lat="49.91823" lon="2.35943">
        <ele>63.9</ele>
        <time>2022-02-11T13:04:17Z</time>
      </trkpt>
      <trkpt lat="49.91823" lon="2.35943">
        <ele>63.9</ele>
        <time>2022-02-11T13:04:18Z</time>
      </trkpt>
      <trkpt lat="49.91823" lon="2.35943">
        <ele>63.9</ele>
        <time>2022-02-11T13:04:19Z</time>
      </trkpt>
      <trkpt lat="49.91823" lon="2.35944">
        <ele>63.9</ele>
        <time>2022-02-11T13:04:20Z</time>
      </trkpt>
      <trkpt lat="49.91823" lon="2.35944">
        <ele>63.9</ele>
        <time>2022-02-11T13:04:21Z</time>
      </trkpt>
      <trkpt lat="49.91823" lon="2.35944">
        <ele>63.9</ele>
        <time>2022-02-11T13:04:22Z</time>
      </trkpt>
      <trkpt lat="49.91823" lon="2.35944">
        <ele>63.9</ele>
        <time>2022-02-11T13:04:23Z</time>
      </trkpt>
      <trkpt lat="49.91823" lon="2.35944">
        <ele>63.9</ele>
        <time>2022-02-11T13:04:24Z</time>
      </trkpt>
      <trkpt lat="49.91823" lon="2.35944">
        <ele>63.9</ele>
        <time>2022-02-11T13:04:25Z</time>
      </trkpt>
      <trkpt lat="49.91823" lon="2.35944">
        <ele>63.9</ele>
        <time>2022-02-11T13:04:26Z</time>
      </trkpt>
      <trkpt lat="49.91823" lon="2.35944">
        <ele>63.9</ele>
        <time>2022-02-11T13:04:27Z</time>
      </trkpt>
      <trkpt lat="49.91823" lon="2.35944">
        <ele>63.9</ele>
        <time>2022-02-11T13:04:28Z</time>
      </trkpt>
      <trkpt lat="49.91823" lon="2.35944">
        <ele>63.9</ele>
        <time>2022-02-11T13:04:29Z</time>
      </trkpt>
      <trkpt lat="49.91823" lon="2.35944">
        <ele>63.9</ele>
        <time>2022-02-11T13:04:30Z</time>
      </trkpt>
      <trkpt lat="49.91823" lon="2.35944">
        <ele>63.9</ele>
        <time>2022-02-11T13:04:31Z</time>
      </trkpt>
      <trkpt lat="49.91823" lon="2.35944">
        <ele>63.9</ele>
        <time>2022-02-11T13:04:32Z</time>
      </trkpt>
      <trkpt lat="49.91823" lon="2.35944">
        <ele>63.9</ele>
        <time>2022-02-11T13:04:33Z</time>
      </trkpt>
      <trkpt lat="49.91823" lon="2.35944">
        <ele>63.9</ele>
        <time>2022-02-11T13:04:34Z</time>
      </trkpt>
      <trkpt lat="49.91823" lon="2.35944">
        <ele>63.9</ele>
        <time>2022-02-11T13:04:35Z</time>
      </trkpt>
      <trkpt lat="49.91823" lon="2.35944">
        <ele>63.9</ele>
        <time>2022-02-11T13:04:36Z</time>
      </trkpt>
      <trkpt lat="49.91823" lon="2.35944">
        <ele>63.9</ele>
        <time>2022-02-11T13:04:37Z</time>
      </trkpt>
      <trkpt lat="49.91823" lon="2.35944">
        <ele>63.9</ele>
        <time>2022-02-11T13:04:38Z</time>
      </trkpt>
      <trkpt lat="49.91823" lon="2.35944">
        <ele>63.9</ele>
        <time>2022-02-11T13:04:39Z</time>
      </trkpt>
      <trkpt lat="49.91823" lon="2.35944">
        <ele>63.9</ele>
        <time>2022-02-11T13:04:40Z</time>
      </trkpt>
      <trkpt lat="49.91823" lon="2.35944">
        <ele>63.9</ele>
        <time>2022-02-11T13:04:41Z</time>
      </trkpt>
      <trkpt lat="49.91823" lon="2.35944">
        <ele>63.9</ele>
        <time>2022-02-11T13:04:42Z</time>
      </trkpt>
      <trkpt lat="49.91823" lon="2.35944">
        <ele>63.9</ele>
        <time>2022-02-11T13:04:43Z</time>
      </trkpt>
      <trkpt lat="49.91823" lon="2.35944">
        <ele>63.9</ele>
        <time>2022-02-11T13:04:44Z</time>
      </trkpt>
      <trkpt lat="49.91823" lon="2.35944">
        <ele>63.9</ele>
        <time>2022-02-11T13:04:45Z</time>
      </trkpt>
      <trkpt lat="49.91823" lon="2.35944">
        <ele>63.9</ele>
        <time>2022-02-11T13:04:46Z</time>
      </trkpt>
      <trkpt lat="49.91823" lon="2.35944">
        <ele>63.9</ele>
        <time>2022-02-11T13:04:47Z</time>
      </trkpt>
      <trkpt lat="49.91823" lon="2.35944">
        <ele>63.9</ele>
        <time>2022-02-11T13:04:48Z</time>
      </trkpt>
      <trkpt lat="49.91823" lon="2.35944">
        <ele>63.9</ele>
        <time>2022-02-11T13:04:49Z</time>
      </trkpt>
      <trkpt lat="49.91823" lon="2.35944">
        <ele>63.9</ele>
        <time>2022-02-11T13:04:50Z</time>
      </trkpt>
      <trkpt lat="49.91823" lon="2.35944">
        <ele>63.9</ele>
        <time>2022-02-11T13:04:51Z</time>
      </trkpt>
      <trkpt lat="49.91823" lon="2.35944">
        <ele>63.9</ele>
        <time>2022-02-11T13:04:52Z</time>
      </trkpt>
      <trkpt lat="49.91823" lon="2.35944">
        <ele>63.9</ele>
        <time>2022-02-11T13:04:53Z</time>
      </trkpt>
      <trkpt lat="49.91823" lon="2.35944">
        <ele>63.9</ele>
        <time>2022-02-11T13:04:54Z</time>
      </trkpt>
      <trkpt lat="49.91823" lon="2.35944">
        <ele>63.9</ele>
        <time>2022-02-11T13:04:55Z</time>
      </trkpt>
      <trkpt lat="49.91823" lon="2.35944">
        <ele>63.9</ele>
        <time>2022-02-11T13:04:56Z</time>
      </trkpt>
      <trkpt lat="49.91823" lon="2.35944">
        <ele>63.9</ele>
        <time>2022-02-11T13:04:57Z</time>
      </trkpt>
      <trkpt lat="49.91823" lon="2.35944">
        <ele>63.9</ele>
        <time>2022-02-11T13:04:58Z</time>
      </trkpt>
      <trkpt lat="49.91823" lon="2.35944">
        <ele>63.9</ele>
        <time>2022-02-11T13:04:59Z</time>
      </trkpt>
      <trkpt lat="49.91823" lon="2.35944">
        <ele>63.9</ele>
        <time>2022-02-11T13:05:00Z</time>
      </trkpt>
      <trkpt lat="49.91823" lon="2.35944">
        <ele>63.9</ele>
        <time>2022-02-11T13:05:01Z</time>
      </trkpt>
      <trkpt lat="49.91823" lon="2.35944">
        <ele>63.9</ele>
        <time>2022-02-11T13:05:02Z</time>
      </trkpt>
      <trkpt lat="49.91823" lon="2.35944">
        <ele>63.9</ele>
        <time>2022-02-11T13:05:03Z</time>
      </trkpt>
      <trkpt lat="49.91823" lon="2.35944">
        <ele>63.9</ele>
        <time>2022-02-11T13:05:04Z</time>
      </trkpt>
      <trkpt lat="49.91823" lon="2.35944">
        <ele>63.9</ele>
        <time>2022-02-11T13:05:05Z</time>
      </trkpt>
      <trkpt lat="49.91823" lon="2.35944">
        <ele>63.9</ele>
        <time>2022-02-11T13:05:06Z</time>
      </trkpt>
      <trkpt lat="49.91823" lon="2.35944">
        <ele>63.9</ele>
        <time>2022-02-11T13:05:07Z</time>
      </trkpt>
      <trkpt lat="49.91823" lon="2.35944">
        <ele>63.9</ele>
        <time>2022-02-11T13:05:08Z</time>
      </trkpt>
      <trkpt lat="49.91823" lon="2.35944">
        <ele>63.9</ele>
        <time>2022-02-11T13:05:09Z</time>
      </trkpt>
      <trkpt lat="49.91823" lon="2.35944">
        <ele>63.9</ele>
        <time>2022-02-11T13:05:10Z</time>
      </trkpt>
      <trkpt lat="49.91823" lon="2.35944">
        <ele>63.9</ele>
        <time>2022-02-11T13:05:11Z</time>
      </trkpt>
      <trkpt lat="49.91823" lon="2.35944">
        <ele>63.9</ele>
        <time>2022-02-11T13:05:12Z</time>
      </trkpt>
      <trkpt lat="49.91823" lon="2.35945">
        <ele>63.9</ele>
        <time>2022-02-11T13:05:13Z</time>
      </trkpt>
      <trkpt lat="49.91824" lon="2.35945">
        <ele>63.9</ele>
        <time>2022-02-11T13:05:14Z</time>
      </trkpt>
      <trkpt lat="49.91824" lon="2.35946">
        <ele>63.9</ele>
        <time>2022-02-11T13:05:15Z</time>
      </trkpt>
      <trkpt lat="49.91824" lon="2.35946">
        <ele>63.9</ele>
        <time>2022-02-11T13:05:16Z</time>
      </trkpt>
      <trkpt lat="49.91824" lon="2.35946">
        <ele>63.9</ele>
        <time>2022-02-11T13:05:17Z</time>
      </trkpt>
      <trkpt lat="49.91824" lon="2.35946">
        <ele>63.9</ele>
        <time>2022-02-11T13:05:18Z</time>
      </trkpt>
      <trkpt lat="49.91824" lon="2.35945">
        <ele>63.9</ele>
        <time>2022-02-11T13:05:19Z</time>
      </trkpt>
      <trkpt lat="49.91824" lon="2.35944">
        <ele>63.9</ele>
        <time>2022-02-11T13:05:20Z</time>
      </trkpt>
      <trkpt lat="49.91824" lon="2.35943">
        <ele>63.9</ele>
        <time>2022-02-11T13:05:21Z</time>
      </trkpt>
      <trkpt lat="49.91823" lon="2.35942">
        <ele>63.9</ele>
        <time>2022-02-11T13:05:22Z</time>
      </trkpt>
      <trkpt lat="49.91823" lon="2.35942">
        <ele>63.9</ele>
        <time>2022-02-11T13:05:23Z</time>
      </trkpt>
      <trkpt lat="49.91824" lon="2.35941">
        <ele>63.8</ele>
        <time>2022-02-11T13:05:25Z</time>
      </trkpt>
      <trkpt lat="49.91824" lon="2.3594">
        <ele>63.8</ele>
        <time>2022-02-11T13:05:26Z</time>
      </trkpt>
      <trkpt lat="49.91823" lon="2.35938">
        <ele>63.8</ele>
        <time>2022-02-11T13:05:27Z</time>
      </trkpt>
      <trkpt lat="49.91822" lon="2.35937">
        <ele>63.8</ele>
        <time>2022-02-11T13:05:28Z</time>
      </trkpt>
      <trkpt lat="49.91822" lon="2.35936">
        <ele>63.8</ele>
        <time>2022-02-11T13:05:29Z</time>
      </trkpt>
      <trkpt lat="49.91821" lon="2.35935">
        <ele>63.7</ele>
        <time>2022-02-11T13:05:30Z</time>
      </trkpt>
      <trkpt lat="49.9182" lon="2.35933">
        <ele>63.7</ele>
        <time>2022-02-11T13:05:32Z</time>
      </trkpt>
      <trkpt lat="49.91819" lon="2.35931">
        <ele>63.7</ele>
        <time>2022-02-11T13:05:33Z</time>
      </trkpt>
      <trkpt lat="49.91818" lon="2.35929">
        <ele>63.6</ele>
        <time>2022-02-11T13:05:34Z</time>
      </trkpt>
      <trkpt lat="49.91817" lon="2.35927">
        <ele>63.6</ele>
        <time>2022-02-11T13:05:35Z</time>
      </trkpt>
      <trkpt lat="49.91817" lon="2.35924">
        <ele>63.6</ele>
        <time>2022-02-11T13:05:36Z</time>
      </trkpt>
      <trkpt lat="49.91816" lon="2.35923">
        <ele>63.5</ele>
        <time>2022-02-11T13:05:37Z</time>
      </trkpt>
      <trkpt lat="49.91816" lon="2.35921">
        <ele>63.5</ele>
        <time>2022-02-11T13:05:38Z</time>
      </trkpt>
      <trkpt lat="49.91815" lon="2.35919">
        <ele>63.5</ele>
        <time>2022-02-11T13:05:39Z</time>
      </trkpt>
      <trkpt lat="49.91814" lon="2.35916">
        <ele>63.5</ele>
        <time>2022-02-11T13:05:40Z</time>
      </trkpt>
      <trkpt lat="49.91814" lon="2.35914">
        <ele>63.4</ele>
        <time>2022-02-11T13:05:42Z</time>
      </trkpt>
      <trkpt lat="49.91813" lon="2.35911">
        <ele>63.4</ele>
        <time>2022-02-11T13:05:43Z</time>
      </trkpt>
      <trkpt lat="49.91813" lon="2.35909">
        <ele>63.3</ele>
        <time>2022-02-11T13:05:44Z</time>
      </trkpt>
      <trkpt lat="49.91812" lon="2.35906">
        <ele>63.3</ele>
        <time>2022-02-11T13:05:45Z</time>
      </trkpt>
      <trkpt lat="49.91812" lon="2.35904">
        <ele>63.3</ele>
        <time>2022-02-11T13:05:46Z</time>
      </trkpt>
      <trkpt lat="49.91811" lon="2.35901">
        <ele>63.2</ele>
        <time>2022-02-11T13:05:47Z</time>
      </trkpt>
      <trkpt lat="49.91811" lon="2.35898">
        <ele>63.2</ele>
        <time>2022-02-11T13:05:48Z</time>
      </trkpt>
      <trkpt lat="49.9181" lon="2.35895">
        <ele>63.1</ele>
        <time>2022-02-11T13:05:49Z</time>
      </trkpt>
      <trkpt lat="49.9181" lon="2.35894">
        <ele>63.1</ele>
        <time>2022-02-11T13:05:50Z</time>
      </trkpt>
      <trkpt lat="49.91809" lon="2.35893">
        <ele>63.1</ele>
        <time>2022-02-11T13:05:51Z</time>
      </trkpt>
      <trkpt lat="49.91808" lon="2.3589">
        <ele>63.1</ele>
        <time>2022-02-11T13:05:53Z</time>
      </trkpt>
      <trkpt lat="49.91808" lon="2.35888">
        <ele>63</ele>
        <time>2022-02-11T13:05:54Z</time>
      </trkpt>
      <trkpt lat="49.91807" lon="2.35885">
        <ele>63</ele>
        <time>2022-02-11T13:05:55Z</time>
      </trkpt>
      <trkpt lat="49.91807" lon="2.35884">
        <ele>63</ele>
        <time>2022-02-11T13:05:56Z</time>
      </trkpt>
      <trkpt lat="49.91807" lon="2.35882">
        <ele>62.9</ele>
        <time>2022-02-11T13:05:57Z</time>
      </trkpt>
      <trkpt lat="49.91807" lon="2.3588">
        <ele>62.9</ele>
        <time>2022-02-11T13:05:58Z</time>
      </trkpt>
      <trkpt lat="49.91806" lon="2.35878">
        <ele>62.9</ele>
        <time>2022-02-11T13:05:59Z</time>
      </trkpt>
      <trkpt lat="49.91806" lon="2.35876">
        <ele>62.8</ele>
        <time>2022-02-11T13:06:00Z</time>
      </trkpt>
      <trkpt lat="49.91805" lon="2.35875">
        <ele>62.8</ele>
        <time>2022-02-11T13:06:01Z</time>
      </trkpt>
      <trkpt lat="49.91804" lon="2.35871">
        <ele>62.7</ele>
        <time>2022-02-11T13:06:03Z</time>
      </trkpt>
      <trkpt lat="49.91804" lon="2.35869">
        <ele>62.7</ele>
        <time>2022-02-11T13:06:04Z</time>
      </trkpt>
      <trkpt lat="49.91804" lon="2.35868">
        <ele>62.7</ele>
        <time>2022-02-11T13:06:05Z</time>
      </trkpt>
      <trkpt lat="49.91803" lon="2.35866">
        <ele>62.7</ele>
        <time>2022-02-11T13:06:06Z</time>
      </trkpt>
      <trkpt lat="49.91803" lon="2.35864">
        <ele>62.6</ele>
        <time>2022-02-11T13:06:07Z</time>
      </trkpt>
      <trkpt lat="49.91802" lon="2.35863">
        <ele>62.6</ele>
        <time>2022-02-11T13:06:08Z</time>
      </trkpt>
      <trkpt lat="49.91802" lon="2.35861">
        <ele>62.6</ele>
        <time>2022-02-11T13:06:10Z</time>
      </trkpt>
      <trkpt lat="49.91801" lon="2.35859">
        <ele>62.5</ele>
        <time>2022-02-11T13:06:11Z</time>
      </trkpt>
      <trkpt lat="49.91801" lon="2.35858">
        <ele>62.5</ele>
        <time>2022-02-11T13:06:12Z</time>
      </trkpt>
      <trkpt lat="49.918" lon="2.35856">
        <ele>62.5</ele>
        <time>2022-02-11T13:06:13Z</time>
      </trkpt>
      <trkpt lat="49.918" lon="2.35855">
        <ele>62.5</ele>
        <time>2022-02-11T13:06:14Z</time>
      </trkpt>
      <trkpt lat="49.91799" lon="2.35854">
        <ele>62.5</ele>
        <time>2022-02-11T13:06:15Z</time>
      </trkpt>
      <trkpt lat="49.91799" lon="2.35853">
        <ele>62.4</ele>
        <time>2022-02-11T13:06:17Z</time>
      </trkpt>
      <trkpt lat="49.91798" lon="2.35852">
        <ele>62.4</ele>
        <time>2022-02-11T13:06:18Z</time>
      </trkpt>
      <trkpt lat="49.91798" lon="2.35851">
        <ele>62.4</ele>
        <time>2022-02-11T13:06:19Z</time>
      </trkpt>
      <trkpt lat="49.91798" lon="2.3585">
        <ele>62.4</ele>
        <time>2022-02-11T13:06:20Z</time>
      </trkpt>
      <trkpt lat="49.91797" lon="2.35848">
        <ele>62.3</ele>
        <time>2022-02-11T13:06:21Z</time>
      </trkpt>
      <trkpt lat="49.91798" lon="2.35847">
        <ele>62.3</ele>
        <time>2022-02-11T13:06:23Z</time>
      </trkpt>
      <trkpt lat="49.91798" lon="2.35846">
        <ele>62.3</ele>
        <time>2022-02-11T13:06:24Z</time>
      </trkpt>
      <trkpt lat="49.91798" lon="2.35844">
        <ele>62.3</ele>
        <time>2022-02-11T13:06:25Z</time>
      </trkpt>
      <trkpt lat="49.91798" lon="2.35843">
        <ele>62.2</ele>
        <time>2022-02-11T13:06:26Z</time>
      </trkpt>
      <trkpt lat="49.91798" lon="2.35841">
        <ele>62.2</ele>
        <time>2022-02-11T13:06:27Z</time>
      </trkpt>
      <trkpt lat="49.91797" lon="2.3584">
        <ele>62.2</ele>
        <time>2022-02-11T13:06:28Z</time>
      </trkpt>
      <trkpt lat="49.91797" lon="2.35838">
        <ele>62.2</ele>
        <time>2022-02-11T13:06:29Z</time>
      </trkpt>
      <trkpt lat="49.91796" lon="2.35837">
        <ele>62.1</ele>
        <time>2022-02-11T13:06:30Z</time>
      </trkpt>
      <trkpt lat="49.91795" lon="2.35835">
        <ele>62.1</ele>
        <time>2022-02-11T13:06:32Z</time>
      </trkpt>
      <trkpt lat="49.91795" lon="2.35833">
        <ele>62.1</ele>
        <time>2022-02-11T13:06:33Z</time>
      </trkpt>
      <trkpt lat="49.91794" lon="2.35832">
        <ele>62.1</ele>
        <time>2022-02-11T13:06:34Z</time>
      </trkpt>
      <trkpt lat="49.91794" lon="2.3583">
        <ele>62</ele>
        <time>2022-02-11T13:06:35Z</time>
      </trkpt>
      <trkpt lat="49.91794" lon="2.35826">
        <ele>62</ele>
        <time>2022-02-11T13:06:37Z</time>
      </trkpt>
      <trkpt lat="49.91794" lon="2.35825">
        <ele>61.9</ele>
        <time>2022-02-11T13:06:38Z</time>
      </trkpt>
      <trkpt lat="49.91794" lon="2.35824">
        <ele>61.9</ele>
        <time>2022-02-11T13:06:39Z</time>
      </trkpt>
      <trkpt lat="49.91793" lon="2.35821">
        <ele>61.9</ele>
        <time>2022-02-11T13:06:40Z</time>
      </trkpt>
      <trkpt lat="49.91793" lon="2.3582">
        <ele>61.9</ele>
        <time>2022-02-11T13:06:41Z</time>
      </trkpt>
      <trkpt lat="49.91792" lon="2.35818">
        <ele>61.8</ele>
        <time>2022-02-11T13:06:42Z</time>
      </trkpt>
      <trkpt lat="49.91791" lon="2.35815">
        <ele>61.8</ele>
        <time>2022-02-11T13:06:43Z</time>
      </trkpt>
      <trkpt lat="49.91791" lon="2.35814">
        <ele>61.8</ele>
        <time>2022-02-11T13:06:44Z</time>
      </trkpt>
      <trkpt lat="49.9179" lon="2.35813">
        <ele>61.8</ele>
        <time>2022-02-11T13:06:45Z</time>
      </trkpt>
      <trkpt lat="49.9179" lon="2.35811">
        <ele>61.7</ele>
        <time>2022-02-11T13:06:46Z</time>
      </trkpt>
      <trkpt lat="49.91789" lon="2.35807">
        <ele>61.7</ele>
        <time>2022-02-11T13:06:48Z</time>
      </trkpt>
      <trkpt lat="49.91788" lon="2.35805">
        <ele>61.6</ele>
        <time>2022-02-11T13:06:49Z</time>
      </trkpt>
      <trkpt lat="49.91787" lon="2.35804">
        <ele>61.6</ele>
        <time>2022-02-11T13:06:50Z</time>
      </trkpt>
      <trkpt lat="49.91787" lon="2.35802">
        <ele>61.6</ele>
        <time>2022-02-11T13:06:51Z</time>
      </trkpt>
      <trkpt lat="49.91786" lon="2.358">
        <ele>61.6</ele>
        <time>2022-02-11T13:06:52Z</time>
      </trkpt>
      <trkpt lat="49.91786" lon="2.35798">
        <ele>61.5</ele>
        <time>2022-02-11T13:06:53Z</time>
      </trkpt>
      <trkpt lat="49.91785" lon="2.35794">
        <ele>61.5</ele>
        <time>2022-02-11T13:06:54Z</time>
      </trkpt>
      <trkpt lat="49.91784" lon="2.35793">
        <ele>61.5</ele>
        <time>2022-02-11T13:06:56Z</time>
      </trkpt>
      <trkpt lat="49.91784" lon="2.35792">
        <ele>61.4</ele>
        <time>2022-02-11T13:06:57Z</time>
      </trkpt>
      <trkpt lat="49.91783" lon="2.35789">
        <ele>61.4</ele>
        <time>2022-02-11T13:06:58Z</time>
      </trkpt>
      <trkpt lat="49.91783" lon="2.35787">
        <ele>61.4</ele>
        <time>2022-02-11T13:06:59Z</time>
      </trkpt>
      <trkpt lat="49.91783" lon="2.35786">
        <ele>61.4</ele>
        <time>2022-02-11T13:07:00Z</time>
      </trkpt>
      <trkpt lat="49.91782" lon="2.35784">
        <ele>61.3</ele>
        <time>2022-02-11T13:07:01Z</time>
      </trkpt>
      <trkpt lat="49.91782" lon="2.35783">
        <ele>61.3</ele>
        <time>2022-02-11T13:07:02Z</time>
      </trkpt>
      <trkpt lat="49.91781" lon="2.35781">
        <ele>61.3</ele>
        <time>2022-02-11T13:07:04Z</time>
      </trkpt>
      <trkpt lat="49.9178" lon="2.3578">
        <ele>61.3</ele>
        <time>2022-02-11T13:07:05Z</time>
      </trkpt>
      <trkpt lat="49.9178" lon="2.35778">
        <ele>61.3</ele>
        <time>2022-02-11T13:07:06Z</time>
      </trkpt>
      <trkpt lat="49.9178" lon="2.35776">
        <ele>61.2</ele>
        <time>2022-02-11T13:07:07Z</time>
      </trkpt>
      <trkpt lat="49.91779" lon="2.35774">
        <ele>61.2</ele>
        <time>2022-02-11T13:07:08Z</time>
      </trkpt>
      <trkpt lat="49.91779" lon="2.35773">
        <ele>61.2</ele>
        <time>2022-02-11T13:07:09Z</time>
      </trkpt>
      <trkpt lat="49.91779" lon="2.35771">
        <ele>61.2</ele>
        <time>2022-02-11T13:07:10Z</time>
      </trkpt>
      <trkpt lat="49.91778" lon="2.3577">
        <ele>61.1</ele>
        <time>2022-02-11T13:07:11Z</time>
      </trkpt>
      <trkpt lat="49.91777" lon="2.35768">
        <ele>61.1</ele>
        <time>2022-02-11T13:07:13Z</time>
      </trkpt>
      <trkpt lat="49.91777" lon="2.35766">
        <ele>61.1</ele>
        <time>2022-02-11T13:07:14Z</time>
      </trkpt>
      <trkpt lat="49.91776" lon="2.35765">
        <ele>61.1</ele>
        <time>2022-02-11T13:07:15Z</time>
      </trkpt>
      <trkpt lat="49.91776" lon="2.35763">
        <ele>61.1</ele>
        <time>2022-02-11T13:07:16Z</time>
      </trkpt>
      <trkpt lat="49.91775" lon="2.35762">
        <ele>61.1</ele>
        <time>2022-02-11T13:07:17Z</time>
      </trkpt>
      <trkpt lat="49.91775" lon="2.35761">
        <ele>61</ele>
        <time>2022-02-11T13:07:18Z</time>
      </trkpt>
      <trkpt lat="49.91774" lon="2.35759">
        <ele>61</ele>
        <time>2022-02-11T13:07:19Z</time>
      </trkpt>
      <trkpt lat="49.91774" lon="2.35757">
        <ele>61</ele>
        <time>2022-02-11T13:07:21Z</time>
      </trkpt>
      <trkpt lat="49.91773" lon="2.35756">
        <ele>61</ele>
        <time>2022-02-11T13:07:22Z</time>
      </trkpt>
      <trkpt lat="49.91773" lon="2.35754">
        <ele>61</ele>
        <time>2022-02-11T13:07:23Z</time>
      </trkpt>
      <trkpt lat="49.91772" lon="2.35751">
        <ele>60.9</ele>
        <time>2022-02-11T13:07:24Z</time>
      </trkpt>
      <trkpt lat="49.91771" lon="2.3575">
        <ele>60.9</ele>
        <time>2022-02-11T13:07:25Z</time>
      </trkpt>
      <trkpt lat="49.91771" lon="2.35749">
        <ele>60.9</ele>
        <time>2022-02-11T13:07:26Z</time>
      </trkpt>
      <trkpt lat="49.9177" lon="2.35746">
        <ele>60.9</ele>
        <time>2022-02-11T13:07:27Z</time>
      </trkpt>
      <trkpt lat="49.9177" lon="2.35745">
        <ele>60.9</ele>
        <time>2022-02-11T13:07:28Z</time>
      </trkpt>
      <trkpt lat="49.91769" lon="2.35744">
        <ele>60.9</ele>
        <time>2022-02-11T13:07:29Z</time>
      </trkpt>
      <trkpt lat="49.91769" lon="2.35742">
        <ele>60.9</ele>
        <time>2022-02-11T13:07:31Z</time>
      </trkpt>
      <trkpt lat="49.91768" lon="2.3574">
        <ele>60.9</ele>
        <time>2022-02-11T13:07:32Z</time>
      </trkpt>
      <trkpt lat="49.91767" lon="2.35737">
        <ele>60.8</ele>
        <time>2022-02-11T13:07:33Z</time>
      </trkpt>
      <trkpt lat="49.91767" lon="2.35736">
        <ele>60.8</ele>
        <time>2022-02-11T13:07:34Z</time>
      </trkpt>
      <trkpt lat="49.91767" lon="2.35735">
        <ele>60.8</ele>
        <time>2022-02-11T13:07:35Z</time>
      </trkpt>
      <trkpt lat="49.91766" lon="2.35733">
        <ele>60.8</ele>
        <time>2022-02-11T13:07:36Z</time>
      </trkpt>
      <trkpt lat="49.91765" lon="2.35731">
        <ele>60.8</ele>
        <time>2022-02-11T13:07:38Z</time>
      </trkpt>
      <trkpt lat="49.91765" lon="2.35729">
        <ele>60.8</ele>
        <time>2022-02-11T13:07:39Z</time>
      </trkpt>
      <trkpt lat="49.91764" lon="2.35727">
        <ele>60.8</ele>
        <time>2022-02-11T13:07:40Z</time>
      </trkpt>
      <trkpt lat="49.91763" lon="2.35724">
        <ele>60.7</ele>
        <time>2022-02-11T13:07:41Z</time>
      </trkpt>
      <trkpt lat="49.91762" lon="2.35723">
        <ele>60.7</ele>
        <time>2022-02-11T13:07:42Z</time>
      </trkpt>
      <trkpt lat="49.91762" lon="2.35721">
        <ele>60.7</ele>
        <time>2022-02-11T13:07:43Z</time>
      </trkpt>
      <trkpt lat="49.91761" lon="2.35719">
        <ele>60.7</ele>
        <time>2022-02-11T13:07:45Z</time>
      </trkpt>
      <trkpt lat="49.91761" lon="2.35718">
        <ele>60.7</ele>
        <time>2022-02-11T13:07:46Z</time>
      </trkpt>
      <trkpt lat="49.9176" lon="2.35715">
        <ele>60.7</ele>
        <time>2022-02-11T13:07:47Z</time>
      </trkpt>
      <trkpt lat="49.91759" lon="2.35714">
        <ele>60.7</ele>
        <time>2022-02-11T13:07:48Z</time>
      </trkpt>
      <trkpt lat="49.91759" lon="2.35712">
        <ele>60.7</ele>
        <time>2022-02-11T13:07:49Z</time>
      </trkpt>
      <trkpt lat="49.91758" lon="2.35711">
        <ele>60.7</ele>
        <time>2022-02-11T13:07:50Z</time>
      </trkpt>
      <trkpt lat="49.91758" lon="2.35709">
        <ele>60.7</ele>
        <time>2022-02-11T13:07:51Z</time>
      </trkpt>
      <trkpt lat="49.91757" lon="2.35707">
        <ele>60.7</ele>
        <time>2022-02-11T13:07:53Z</time>
      </trkpt>
      <trkpt lat="49.91757" lon="2.35706">
        <ele>60.7</ele>
        <time>2022-02-11T13:07:54Z</time>
      </trkpt>
      <trkpt lat="49.91756" lon="2.35704">
        <ele>60.7</ele>
        <time>2022-02-11T13:07:55Z</time>
      </trkpt>
      <trkpt lat="49.91756" lon="2.35703">
        <ele>60.7</ele>
        <time>2022-02-11T13:07:56Z</time>
      </trkpt>
      <trkpt lat="49.91755" lon="2.357">
        <ele>60.7</ele>
        <time>2022-02-11T13:07:57Z</time>
      </trkpt>
      <trkpt lat="49.91755" lon="2.35698">
        <ele>60.7</ele>
        <time>2022-02-11T13:07:58Z</time>
      </trkpt>
      <trkpt lat="49.91755" lon="2.35697">
        <ele>60.7</ele>
        <time>2022-02-11T13:07:59Z</time>
      </trkpt>
      <trkpt lat="49.91754" lon="2.35694">
        <ele>60.7</ele>
        <time>2022-02-11T13:08:00Z</time>
      </trkpt>
      <trkpt lat="49.91754" lon="2.35692">
        <ele>60.7</ele>
        <time>2022-02-11T13:08:02Z</time>
      </trkpt>
      <trkpt lat="49.91754" lon="2.35691">
        <ele>60.7</ele>
        <time>2022-02-11T13:08:03Z</time>
      </trkpt>
      <trkpt lat="49.91753" lon="2.35689">
        <ele>60.7</ele>
        <time>2022-02-11T13:08:04Z</time>
      </trkpt>
      <trkpt lat="49.91753" lon="2.35688">
        <ele>60.6</ele>
        <time>2022-02-11T13:08:05Z</time>
      </trkpt>
      <trkpt lat="49.91753" lon="2.35686">
        <ele>60.6</ele>
        <time>2022-02-11T13:08:06Z</time>
      </trkpt>
      <trkpt lat="49.91753" lon="2.35684">
        <ele>60.6</ele>
        <time>2022-02-11T13:08:08Z</time>
      </trkpt>
      <trkpt lat="49.91752" lon="2.35682">
        <ele>60.6</ele>
        <time>2022-02-11T13:08:09Z</time>
      </trkpt>
      <trkpt lat="49.91752" lon="2.35679">
        <ele>60.6</ele>
        <time>2022-02-11T13:08:10Z</time>
      </trkpt>
      <trkpt lat="49.91752" lon="2.35678">
        <ele>60.6</ele>
        <time>2022-02-11T13:08:11Z</time>
      </trkpt>
      <trkpt lat="49.91751" lon="2.35677">
        <ele>60.6</ele>
        <time>2022-02-11T13:08:12Z</time>
      </trkpt>
      <trkpt lat="49.91751" lon="2.35674">
        <ele>60.6</ele>
        <time>2022-02-11T13:08:13Z</time>
      </trkpt>
      <trkpt lat="49.9175" lon="2.35673">
        <ele>60.6</ele>
        <time>2022-02-11T13:08:14Z</time>
      </trkpt>
      <trkpt lat="49.9175" lon="2.35671">
        <ele>60.6</ele>
        <time>2022-02-11T13:08:15Z</time>
      </trkpt>
      <trkpt lat="49.91749" lon="2.35668">
        <ele>60.6</ele>
        <time>2022-02-11T13:08:17Z</time>
      </trkpt>
      <trkpt lat="49.91749" lon="2.35667">
        <ele>60.6</ele>
        <time>2022-02-11T13:08:18Z</time>
      </trkpt>
      <trkpt lat="49.91749" lon="2.35666">
        <ele>60.6</ele>
        <time>2022-02-11T13:08:19Z</time>
      </trkpt>
      <trkpt lat="49.91748" lon="2.35664">
        <ele>60.6</ele>
        <time>2022-02-11T13:08:20Z</time>
      </trkpt>
      <trkpt lat="49.91748" lon="2.35662">
        <ele>60.6</ele>
        <time>2022-02-11T13:08:21Z</time>
      </trkpt>
      <trkpt lat="49.91747" lon="2.3566">
        <ele>60.6</ele>
        <time>2022-02-11T13:08:22Z</time>
      </trkpt>
      <trkpt lat="49.91747" lon="2.35658">
        <ele>60.6</ele>
        <time>2022-02-11T13:08:23Z</time>
      </trkpt>
      <trkpt lat="49.91747" lon="2.35656">
        <ele>60.6</ele>
        <time>2022-02-11T13:08:25Z</time>
      </trkpt>
      <trkpt lat="49.91746" lon="2.35654">
        <ele>60.6</ele>
        <time>2022-02-11T13:08:26Z</time>
      </trkpt>
      <trkpt lat="49.91745" lon="2.35652">
        <ele>60.6</ele>
        <time>2022-02-11T13:08:27Z</time>
      </trkpt>
      <trkpt lat="49.91745" lon="2.35651">
        <ele>60.6</ele>
        <time>2022-02-11T13:08:28Z</time>
      </trkpt>
      <trkpt lat="49.91743" lon="2.3565">
        <ele>60.6</ele>
        <time>2022-02-11T13:08:29Z</time>
      </trkpt>
      <trkpt lat="49.91742" lon="2.3565">
        <ele>60.2</ele>
        <time>2022-02-11T13:08:30Z</time>
      </trkpt>
      <trkpt lat="49.91741" lon="2.35649">
        <ele>60.1</ele>
        <time>2022-02-11T13:08:31Z</time>
      </trkpt>
      <trkpt lat="49.91739" lon="2.35648">
        <ele>60</ele>
        <time>2022-02-11T13:08:33Z</time>
      </trkpt>
      <trkpt lat="49.91738" lon="2.35648">
        <ele>59.9</ele>
        <time>2022-02-11T13:08:34Z</time>
      </trkpt>
      <trkpt lat="49.91738" lon="2.35647">
        <ele>59.9</ele>
        <time>2022-02-11T13:08:35Z</time>
      </trkpt>
      <trkpt lat="49.91736" lon="2.35646">
        <ele>59.8</ele>
        <time>2022-02-11T13:08:36Z</time>
      </trkpt>
      <trkpt lat="49.91735" lon="2.35646">
        <ele>59.7</ele>
        <time>2022-02-11T13:08:38Z</time>
      </trkpt>
      <trkpt lat="49.91734" lon="2.35645">
        <ele>59.7</ele>
        <time>2022-02-11T13:08:39Z</time>
      </trkpt>
      <trkpt lat="49.91732" lon="2.35645">
        <ele>59.6</ele>
        <time>2022-02-11T13:08:40Z</time>
      </trkpt>
      <trkpt lat="49.91731" lon="2.35645">
        <ele>59.6</ele>
        <time>2022-02-11T13:08:41Z</time>
      </trkpt>
      <trkpt lat="49.9173" lon="2.35646">
        <ele>59.5</ele>
        <time>2022-02-11T13:08:42Z</time>
      </trkpt>
      <trkpt lat="49.91729" lon="2.35646">
        <ele>59.5</ele>
        <time>2022-02-11T13:08:43Z</time>
      </trkpt>
      <trkpt lat="49.91728" lon="2.35646">
        <ele>59.5</ele>
        <time>2022-02-11T13:08:44Z</time>
      </trkpt>
      <trkpt lat="49.91727" lon="2.35646">
        <ele>59.4</ele>
        <time>2022-02-11T13:08:45Z</time>
      </trkpt>
      <trkpt lat="49.91726" lon="2.35646">
        <ele>59.4</ele>
        <time>2022-02-11T13:08:47Z</time>
      </trkpt>
      <trkpt lat="49.91724" lon="2.35645">
        <ele>59.4</ele>
        <time>2022-02-11T13:08:48Z</time>
      </trkpt>
      <trkpt lat="49.91723" lon="2.35645">
        <ele>59.4</ele>
        <time>2022-02-11T13:08:49Z</time>
      </trkpt>
      <trkpt lat="49.91722" lon="2.35645">
        <ele>59.3</ele>
        <time>2022-02-11T13:08:50Z</time>
      </trkpt>
      <trkpt lat="49.91721" lon="2.35644">
        <ele>59.3</ele>
        <time>2022-02-11T13:08:52Z</time>
      </trkpt>
      <trkpt lat="49.9172" lon="2.35644">
        <ele>59.3</ele>
        <time>2022-02-11T13:08:53Z</time>
      </trkpt>
      <trkpt lat="49.91718" lon="2.35643">
        <ele>59.3</ele>
        <time>2022-02-11T13:08:54Z</time>
      </trkpt>
      <trkpt lat="49.91716" lon="2.35643">
        <ele>59.3</ele>
        <time>2022-02-11T13:08:55Z</time>
      </trkpt>
      <trkpt lat="49.91715" lon="2.35643">
        <ele>59.3</ele>
        <time>2022-02-11T13:08:56Z</time>
      </trkpt>
      <trkpt lat="49.91714" lon="2.35643">
        <ele>59.3</ele>
        <time>2022-02-11T13:08:57Z</time>
      </trkpt>
      <trkpt lat="49.91713" lon="2.35643">
        <ele>59.3</ele>
        <time>2022-02-11T13:08:58Z</time>
      </trkpt>
      <trkpt lat="49.91711" lon="2.35643">
        <ele>59.2</ele>
        <time>2022-02-11T13:08:59Z</time>
      </trkpt>
      <trkpt lat="49.9171" lon="2.35643">
        <ele>59.2</ele>
        <time>2022-02-11T13:09:01Z</time>
      </trkpt>
      <trkpt lat="49.91709" lon="2.35643">
        <ele>59.2</ele>
        <time>2022-02-11T13:09:02Z</time>
      </trkpt>
      <trkpt lat="49.91707" lon="2.35642">
        <ele>59.2</ele>
        <time>2022-02-11T13:09:03Z</time>
      </trkpt>
      <trkpt lat="49.91706" lon="2.35642">
        <ele>59.2</ele>
        <time>2022-02-11T13:09:04Z</time>
      </trkpt>
      <trkpt lat="49.91704" lon="2.35642">
        <ele>59.2</ele>
        <time>2022-02-11T13:09:05Z</time>
      </trkpt>
      <trkpt lat="49.91703" lon="2.35641">
        <ele>59.2</ele>
        <time>2022-02-11T13:09:06Z</time>
      </trkpt>
      <trkpt lat="49.91701" lon="2.35641">
        <ele>59.2</ele>
        <time>2022-02-11T13:09:07Z</time>
      </trkpt>
      <trkpt lat="49.917" lon="2.3564">
        <ele>59.2</ele>
        <time>2022-02-11T13:09:08Z</time>
      </trkpt>
      <trkpt lat="49.91699" lon="2.3564">
        <ele>59.2</ele>
        <time>2022-02-11T13:09:09Z</time>
      </trkpt>
      <trkpt lat="49.91698" lon="2.3564">
        <ele>59.2</ele>
        <time>2022-02-11T13:09:10Z</time>
      </trkpt>
      <trkpt lat="49.91696" lon="2.35639">
        <ele>59.2</ele>
        <time>2022-02-11T13:09:12Z</time>
      </trkpt>
      <trkpt lat="49.91695" lon="2.35639">
        <ele>59.2</ele>
        <time>2022-02-11T13:09:13Z</time>
      </trkpt>
      <trkpt lat="49.91694" lon="2.35638">
        <ele>59.2</ele>
        <time>2022-02-11T13:09:14Z</time>
      </trkpt>
      <trkpt lat="49.91691" lon="2.35638">
        <ele>59.2</ele>
        <time>2022-02-11T13:09:15Z</time>
      </trkpt>
      <trkpt lat="49.91691" lon="2.35638">
        <ele>59.2</ele>
        <time>2022-02-11T13:09:16Z</time>
      </trkpt>
      <trkpt lat="49.9169" lon="2.35638">
        <ele>59.2</ele>
        <time>2022-02-11T13:09:17Z</time>
      </trkpt>
      <trkpt lat="49.91688" lon="2.35637">
        <ele>59.2</ele>
        <time>2022-02-11T13:09:19Z</time>
      </trkpt>
      <trkpt lat="49.91687" lon="2.35637">
        <ele>59.2</ele>
        <time>2022-02-11T13:09:20Z</time>
      </trkpt>
      <trkpt lat="49.91686" lon="2.35637">
        <ele>59.2</ele>
        <time>2022-02-11T13:09:21Z</time>
      </trkpt>
      <trkpt lat="49.91685" lon="2.35636">
        <ele>59.2</ele>
        <time>2022-02-11T13:09:22Z</time>
      </trkpt>
      <trkpt lat="49.91684" lon="2.35636">
        <ele>59.2</ele>
        <time>2022-02-11T13:09:24Z</time>
      </trkpt>
      <trkpt lat="49.91683" lon="2.35636">
        <ele>59.2</ele>
        <time>2022-02-11T13:09:25Z</time>
      </trkpt>
      <trkpt lat="49.91682" lon="2.35636">
        <ele>59.2</ele>
        <time>2022-02-11T13:09:26Z</time>
      </trkpt>
      <trkpt lat="49.91681" lon="2.35635">
        <ele>59.2</ele>
        <time>2022-02-11T13:09:27Z</time>
      </trkpt>
      <trkpt lat="49.9168" lon="2.35635">
        <ele>59.2</ele>
        <time>2022-02-11T13:09:28Z</time>
      </trkpt>
      <trkpt lat="49.91678" lon="2.35634">
        <ele>59.2</ele>
        <time>2022-02-11T13:09:29Z</time>
      </trkpt>
      <trkpt lat="49.91677" lon="2.35634">
        <ele>59.2</ele>
        <time>2022-02-11T13:09:30Z</time>
      </trkpt>
      <trkpt lat="49.91677" lon="2.35633">
        <ele>59.2</ele>
        <time>2022-02-11T13:09:31Z</time>
      </trkpt>
      <trkpt lat="49.91676" lon="2.35633">
        <ele>59.2</ele>
        <time>2022-02-11T13:09:32Z</time>
      </trkpt>
      <trkpt lat="49.91675" lon="2.35634">
        <ele>59.2</ele>
        <time>2022-02-11T13:09:33Z</time>
      </trkpt>
      <trkpt lat="49.91675" lon="2.35634">
        <ele>59.2</ele>
        <time>2022-02-11T13:09:34Z</time>
      </trkpt>
      <trkpt lat="49.91675" lon="2.35635">
        <ele>59.2</ele>
        <time>2022-02-11T13:09:35Z</time>
      </trkpt>
      <trkpt lat="49.91675" lon="2.35635">
        <ele>59.2</ele>
        <time>2022-02-11T13:09:36Z</time>
      </trkpt>
      <trkpt lat="49.91675" lon="2.35635">
        <ele>59.2</ele>
        <time>2022-02-11T13:09:37Z</time>
      </trkpt>
      <trkpt lat="49.91675" lon="2.35635">
        <ele>59.2</ele>
        <time>2022-02-11T13:09:38Z</time>
      </trkpt>
      <trkpt lat="49.91675" lon="2.35635">
        <ele>59.2</ele>
        <time>2022-02-11T13:09:39Z</time>
      </trkpt>
      <trkpt lat="49.91675" lon="2.35635">
        <ele>59.2</ele>
        <time>2022-02-11T13:09:40Z</time>
      </trkpt>
      <trkpt lat="49.91675" lon="2.35635">
        <ele>59.2</ele>
        <time>2022-02-11T13:09:41Z</time>
      </trkpt>
      <trkpt lat="49.91675" lon="2.35635">
        <ele>59.2</ele>
        <time>2022-02-11T13:09:42Z</time>
      </trkpt>
      <trkpt lat="49.91675" lon="2.35634">
        <ele>59.2</ele>
        <time>2022-02-11T13:09:43Z</time>
      </trkpt>
      <trkpt lat="49.91675" lon="2.35634">
        <ele>59.2</ele>
        <time>2022-02-11T13:09:44Z</time>
      </trkpt>
      <trkpt lat="49.91673" lon="2.35634">
        <ele>59.2</ele>
        <time>2022-02-11T13:09:45Z</time>
      </trkpt>
      <trkpt lat="49.91672" lon="2.35633">
        <ele>59.2</ele>
        <time>2022-02-11T13:09:46Z</time>
      </trkpt>
      <trkpt lat="49.91671" lon="2.35633">
        <ele>59.3</ele>
        <time>2022-02-11T13:09:47Z</time>
      </trkpt>
      <trkpt lat="49.9167" lon="2.35633">
        <ele>59.3</ele>
        <time>2022-02-11T13:09:49Z</time>
      </trkpt>
      <trkpt lat="49.9167" lon="2.35632">
        <ele>59.3</ele>
        <time>2022-02-11T13:09:50Z</time>
      </trkpt>
      <trkpt lat="49.91669" lon="2.35632">
        <ele>59.3</ele>
        <time>2022-02-11T13:09:51Z</time>
      </trkpt>
      <trkpt lat="49.91668" lon="2.35631">
        <ele>59.3</ele>
        <time>2022-02-11T13:09:52Z</time>
      </trkpt>
      <trkpt lat="49.91666" lon="2.35631">
        <ele>59.3</ele>
        <time>2022-02-11T13:09:53Z</time>
      </trkpt>
      <trkpt lat="49.91665" lon="2.35631">
        <ele>59.3</ele>
        <time>2022-02-11T13:09:54Z</time>
      </trkpt>
      <trkpt lat="49.91664" lon="2.35631">
        <ele>59.4</ele>
        <time>2022-02-11T13:09:55Z</time>
      </trkpt>
      <trkpt lat="49.91663" lon="2.35631">
        <ele>59.4</ele>
        <time>2022-02-11T13:09:56Z</time>
      </trkpt>
      <trkpt lat="49.91663" lon="2.35632">
        <ele>59.4</ele>
        <time>2022-02-11T13:09:57Z</time>
      </trkpt>
      <trkpt lat="49.91661" lon="2.35632">
        <ele>59.4</ele>
        <time>2022-02-11T13:09:59Z</time>
      </trkpt>
      <trkpt lat="49.9166" lon="2.35633">
        <ele>59.4</ele>
        <time>2022-02-11T13:10:00Z</time>
      </trkpt>
      <trkpt lat="49.9166" lon="2.35633">
        <ele>59.4</ele>
        <time>2022-02-11T13:10:01Z</time>
      </trkpt>
      <trkpt lat="49.91659" lon="2.35634">
        <ele>59.5</ele>
        <time>2022-02-11T13:10:02Z</time>
      </trkpt>
      <trkpt lat="49.91659" lon="2.35635">
        <ele>59.5</ele>
        <time>2022-02-11T13:10:03Z</time>
      </trkpt>
      <trkpt lat="49.91659" lon="2.35636">
        <ele>59.5</ele>
        <time>2022-02-11T13:10:04Z</time>
      </trkpt>
      <trkpt lat="49.91659" lon="2.35636">
        <ele>59.5</ele>
        <time>2022-02-11T13:10:05Z</time>
      </trkpt>
      <trkpt lat="49.91659" lon="2.35636">
        <ele>59.5</ele>
        <time>2022-02-11T13:10:06Z</time>
      </trkpt>
      <trkpt lat="49.91659" lon="2.35636">
        <ele>59.5</ele>
        <time>2022-02-11T13:10:07Z</time>
      </trkpt>
      <trkpt lat="49.91659" lon="2.35636">
        <ele>59.5</ele>
        <time>2022-02-11T13:10:08Z</time>
      </trkpt>
      <trkpt lat="49.91659" lon="2.35636">
        <ele>59.5</ele>
        <time>2022-02-11T13:10:09Z</time>
      </trkpt>
      <trkpt lat="49.91659" lon="2.35637">
        <ele>59.5</ele>
        <time>2022-02-11T13:10:10Z</time>
      </trkpt>
      <trkpt lat="49.9166" lon="2.35637">
        <ele>59.5</ele>
        <time>2022-02-11T13:10:11Z</time>
      </trkpt>
      <trkpt lat="49.9166" lon="2.35637">
        <ele>59.5</ele>
        <time>2022-02-11T13:10:12Z</time>
      </trkpt>
      <trkpt lat="49.9166" lon="2.35637">
        <ele>59.5</ele>
        <time>2022-02-11T13:10:13Z</time>
      </trkpt>
      <trkpt lat="49.9166" lon="2.35637">
        <ele>59.5</ele>
        <time>2022-02-11T13:10:14Z</time>
      </trkpt>
      <trkpt lat="49.9166" lon="2.35637">
        <ele>59.5</ele>
        <time>2022-02-11T13:10:15Z</time>
      </trkpt>
      <trkpt lat="49.9166" lon="2.35636">
        <ele>59.5</ele>
        <time>2022-02-11T13:10:16Z</time>
      </trkpt>
      <trkpt lat="49.91661" lon="2.35636">
        <ele>59.6</ele>
        <time>2022-02-11T13:10:17Z</time>
      </trkpt>
      <trkpt lat="49.91662" lon="2.35636">
        <ele>59.6</ele>
        <time>2022-02-11T13:10:18Z</time>
      </trkpt>
      <trkpt lat="49.9166" lon="2.35636">
        <ele>59.6</ele>
        <time>2022-02-11T13:10:19Z</time>
      </trkpt>
      <trkpt lat="49.91659" lon="2.35636">
        <ele>59.6</ele>
        <time>2022-02-11T13:10:21Z</time>
      </trkpt>
      <trkpt lat="49.91659" lon="2.35635">
        <ele>59.7</ele>
        <time>2022-02-11T13:10:22Z</time>
      </trkpt>
      <trkpt lat="49.91658" lon="2.35635">
        <ele>59.7</ele>
        <time>2022-02-11T13:10:23Z</time>
      </trkpt>
      <trkpt lat="49.91657" lon="2.35633">
        <ele>59.7</ele>
        <time>2022-02-11T13:10:25Z</time>
      </trkpt>
      <trkpt lat="49.91657" lon="2.35632">
        <ele>59.8</ele>
        <time>2022-02-11T13:10:26Z</time>
      </trkpt>
      <trkpt lat="49.91656" lon="2.3563">
        <ele>59.8</ele>
        <time>2022-02-11T13:10:27Z</time>
      </trkpt>
      <trkpt lat="49.91656" lon="2.35629">
        <ele>59.9</ele>
        <time>2022-02-11T13:10:28Z</time>
      </trkpt>
      <trkpt lat="49.91655" lon="2.35627">
        <ele>59.9</ele>
        <time>2022-02-11T13:10:29Z</time>
      </trkpt>
      <trkpt lat="49.91654" lon="2.35626">
        <ele>60</ele>
        <time>2022-02-11T13:10:31Z</time>
      </trkpt>
      <trkpt lat="49.91653" lon="2.35625">
        <ele>60</ele>
        <time>2022-02-11T13:10:32Z</time>
      </trkpt>
      <trkpt lat="49.91652" lon="2.35624">
        <ele>60.1</ele>
        <time>2022-02-11T13:10:33Z</time>
      </trkpt>
      <trkpt lat="49.9165" lon="2.35623">
        <ele>60.2</ele>
        <time>2022-02-11T13:10:34Z</time>
      </trkpt>
      <trkpt lat="49.91649" lon="2.35622">
        <ele>60.2</ele>
        <time>2022-02-11T13:10:35Z</time>
      </trkpt>
      <trkpt lat="49.91648" lon="2.35622">
        <ele>60.2</ele>
        <time>2022-02-11T13:10:36Z</time>
      </trkpt>
      <trkpt lat="49.91647" lon="2.35621">
        <ele>60.3</ele>
        <time>2022-02-11T13:10:37Z</time>
      </trkpt>
      <trkpt lat="49.91646" lon="2.3562">
        <ele>60.4</ele>
        <time>2022-02-11T13:10:39Z</time>
      </trkpt>
      <trkpt lat="49.91645" lon="2.35619">
        <ele>60.4</ele>
        <time>2022-02-11T13:10:40Z</time>
      </trkpt>
      <trkpt lat="49.91644" lon="2.35619">
        <ele>60.5</ele>
        <time>2022-02-11T13:10:41Z</time>
      </trkpt>
      <trkpt lat="49.91643" lon="2.35619">
        <ele>60.5</ele>
        <time>2022-02-11T13:10:42Z</time>
      </trkpt>
      <trkpt lat="49.91642" lon="2.35618">
        <ele>60.6</ele>
        <time>2022-02-11T13:10:43Z</time>
      </trkpt>
      <trkpt lat="49.9164" lon="2.35618">
        <ele>60.7</ele>
        <time>2022-02-11T13:10:44Z</time>
      </trkpt>
      <trkpt lat="49.91639" lon="2.35617">
        <ele>60.7</ele>
        <time>2022-02-11T13:10:45Z</time>
      </trkpt>
      <trkpt lat="49.91638" lon="2.35617">
        <ele>60.8</ele>
        <time>2022-02-11T13:10:46Z</time>
      </trkpt>
      <trkpt lat="49.91637" lon="2.35617">
        <ele>60.9</ele>
        <time>2022-02-11T13:10:48Z</time>
      </trkpt>
      <trkpt lat="49.91636" lon="2.35616">
        <ele>60.9</ele>
        <time>2022-02-11T13:10:49Z</time>
      </trkpt>
      <trkpt lat="49.91634" lon="2.35616">
        <ele>61</ele>
        <time>2022-02-11T13:10:50Z</time>
      </trkpt>
      <trkpt lat="49.91633" lon="2.35616">
        <ele>61</ele>
        <time>2022-02-11T13:10:51Z</time>
      </trkpt>
      <trkpt lat="49.91632" lon="2.35616">
        <ele>61.1</ele>
        <time>2022-02-11T13:10:52Z</time>
      </trkpt>
      <trkpt lat="49.9163" lon="2.35616">
        <ele>61.1</ele>
        <time>2022-02-11T13:10:53Z</time>
      </trkpt>
      <trkpt lat="49.91629" lon="2.35616">
        <ele>61.2</ele>
        <time>2022-02-11T13:10:55Z</time>
      </trkpt>
      <trkpt lat="49.91628" lon="2.35616">
        <ele>61.2</ele>
        <time>2022-02-11T13:10:56Z</time>
      </trkpt>
      <trkpt lat="49.91627" lon="2.35615">
        <ele>61.2</ele>
        <time>2022-02-11T13:10:57Z</time>
      </trkpt>
      <trkpt lat="49.91626" lon="2.35615">
        <ele>61.3</ele>
        <time>2022-02-11T13:10:58Z</time>
      </trkpt>
      <trkpt lat="49.91625" lon="2.35614">
        <ele>61.3</ele>
        <time>2022-02-11T13:10:59Z</time>
      </trkpt>
      <trkpt lat="49.91624" lon="2.35614">
        <ele>61.3</ele>
        <time>2022-02-11T13:11:00Z</time>
      </trkpt>
      <trkpt lat="49.91623" lon="2.35614">
        <ele>61.3</ele>
        <time>2022-02-11T13:11:01Z</time>
      </trkpt>
      <trkpt lat="49.91622" lon="2.35614">
        <ele>61.4</ele>
        <time>2022-02-11T13:11:02Z</time>
      </trkpt>
      <trkpt lat="49.9162" lon="2.35613">
        <ele>61.4</ele>
        <time>2022-02-11T13:11:04Z</time>
      </trkpt>
      <trkpt lat="49.91619" lon="2.35613">
        <ele>61.4</ele>
        <time>2022-02-11T13:11:05Z</time>
      </trkpt>
      <trkpt lat="49.91618" lon="2.35613">
        <ele>61.4</ele>
        <time>2022-02-11T13:11:06Z</time>
      </trkpt>
      <trkpt lat="49.91617" lon="2.35613">
        <ele>61.5</ele>
        <time>2022-02-11T13:11:07Z</time>
      </trkpt>
      <trkpt lat="49.91616" lon="2.35613">
        <ele>61.5</ele>
        <time>2022-02-11T13:11:08Z</time>
      </trkpt>
      <trkpt lat="49.91615" lon="2.35612">
        <ele>61.5</ele>
        <time>2022-02-11T13:11:10Z</time>
      </trkpt>
      <trkpt lat="49.91614" lon="2.35611">
        <ele>61.5</ele>
        <time>2022-02-11T13:11:11Z</time>
      </trkpt>
      <trkpt lat="49.91613" lon="2.3561">
        <ele>61.6</ele>
        <time>2022-02-11T13:11:12Z</time>
      </trkpt>
      <trkpt lat="49.91612" lon="2.35609">
        <ele>61.6</ele>
        <time>2022-02-11T13:11:13Z</time>
      </trkpt>
      <trkpt lat="49.91611" lon="2.35608">
        <ele>61.6</ele>
        <time>2022-02-11T13:11:14Z</time>
      </trkpt>
      <trkpt lat="49.9161" lon="2.35608">
        <ele>61.6</ele>
        <time>2022-02-11T13:11:15Z</time>
      </trkpt>
      <trkpt lat="49.9161" lon="2.35607">
        <ele>61.7</ele>
        <time>2022-02-11T13:11:16Z</time>
      </trkpt>
      <trkpt lat="49.91609" lon="2.35607">
        <ele>61.7</ele>
        <time>2022-02-11T13:11:17Z</time>
      </trkpt>
      <trkpt lat="49.91608" lon="2.35607">
        <ele>61.7</ele>
        <time>2022-02-11T13:11:18Z</time>
      </trkpt>
      <trkpt lat="49.91606" lon="2.35606">
        <ele>61.7</ele>
        <time>2022-02-11T13:11:19Z</time>
      </trkpt>
      <trkpt lat="49.91604" lon="2.35606">
        <ele>61.8</ele>
        <time>2022-02-11T13:11:21Z</time>
      </trkpt>
      <trkpt lat="49.91603" lon="2.35606">
        <ele>61.8</ele>
        <time>2022-02-11T13:11:22Z</time>
      </trkpt>
      <trkpt lat="49.91602" lon="2.35605">
        <ele>61.8</ele>
        <time>2022-02-11T13:11:23Z</time>
      </trkpt>
      <trkpt lat="49.91601" lon="2.35605">
        <ele>61.9</ele>
        <time>2022-02-11T13:11:24Z</time>
      </trkpt>
      <trkpt lat="49.916" lon="2.35605">
        <ele>61.9</ele>
        <time>2022-02-11T13:11:25Z</time>
      </trkpt>
      <trkpt lat="49.91599" lon="2.35605">
        <ele>61.9</ele>
        <time>2022-02-11T13:11:26Z</time>
      </trkpt>
      <trkpt lat="49.91598" lon="2.35605">
        <ele>61.9</ele>
        <time>2022-02-11T13:11:27Z</time>
      </trkpt>
      <trkpt lat="49.91597" lon="2.35605">
        <ele>62</ele>
        <time>2022-02-11T13:11:28Z</time>
      </trkpt>
      <trkpt lat="49.91595" lon="2.35605">
        <ele>62</ele>
        <time>2022-02-11T13:11:30Z</time>
      </trkpt>
      <trkpt lat="49.91593" lon="2.35604">
        <ele>62.1</ele>
        <time>2022-02-11T13:11:31Z</time>
      </trkpt>
      <trkpt lat="49.91592" lon="2.35604">
        <ele>62.1</ele>
        <time>2022-02-11T13:11:32Z</time>
      </trkpt>
      <trkpt lat="49.91591" lon="2.35604">
        <ele>62.1</ele>
        <time>2022-02-11T13:11:33Z</time>
      </trkpt>
      <trkpt lat="49.9159" lon="2.35603">
        <ele>62.1</ele>
        <time>2022-02-11T13:11:34Z</time>
      </trkpt>
      <trkpt lat="49.91589" lon="2.35603">
        <ele>62.2</ele>
        <time>2022-02-11T13:11:35Z</time>
      </trkpt>
      <trkpt lat="49.91588" lon="2.35603">
        <ele>62.2</ele>
        <time>2022-02-11T13:11:36Z</time>
      </trkpt>
      <trkpt lat="49.91587" lon="2.35603">
        <ele>62.2</ele>
        <time>2022-02-11T13:11:38Z</time>
      </trkpt>
      <trkpt lat="49.91586" lon="2.35603">
        <ele>62.2</ele>
        <time>2022-02-11T13:11:39Z</time>
      </trkpt>
      <trkpt lat="49.91585" lon="2.35603">
        <ele>62.2</ele>
        <time>2022-02-11T13:11:40Z</time>
      </trkpt>
      <trkpt lat="49.91584" lon="2.35603">
        <ele>62.3</ele>
        <time>2022-02-11T13:11:41Z</time>
      </trkpt>
      <trkpt lat="49.91583" lon="2.35602">
        <ele>62.3</ele>
        <time>2022-02-11T13:11:42Z</time>
      </trkpt>
      <trkpt lat="49.91582" lon="2.35602">
        <ele>62.3</ele>
        <time>2022-02-11T13:11:44Z</time>
      </trkpt>
      <trkpt lat="49.91581" lon="2.35601">
        <ele>62.3</ele>
        <time>2022-02-11T13:11:45Z</time>
      </trkpt>
      <trkpt lat="49.9158" lon="2.35601">
        <ele>62.3</ele>
        <time>2022-02-11T13:11:46Z</time>
      </trkpt>
      <trkpt lat="49.91579" lon="2.356">
        <ele>62.3</ele>
        <time>2022-02-11T13:11:47Z</time>
      </trkpt>
      <trkpt lat="49.91578" lon="2.356">
        <ele>62.3</ele>
        <time>2022-02-11T13:11:48Z</time>
      </trkpt>
      <trkpt lat="49.91577" lon="2.35599">
        <ele>62.4</ele>
        <time>2022-02-11T13:11:49Z</time>
      </trkpt>
      <trkpt lat="49.91576" lon="2.35598">
        <ele>62.4</ele>
        <time>2022-02-11T13:11:51Z</time>
      </trkpt>
      <trkpt lat="49.91574" lon="2.35598">
        <ele>62.4</ele>
        <time>2022-02-11T13:11:52Z</time>
      </trkpt>
      <trkpt lat="49.91573" lon="2.35598">
        <ele>62.4</ele>
        <time>2022-02-11T13:11:53Z</time>
      </trkpt>
      <trkpt lat="49.91572" lon="2.35597">
        <ele>62.4</ele>
        <time>2022-02-11T13:11:54Z</time>
      </trkpt>
      <trkpt lat="49.91571" lon="2.35597">
        <ele>62.4</ele>
        <time>2022-02-11T13:11:55Z</time>
      </trkpt>
      <trkpt lat="49.9157" lon="2.35597">
        <ele>62.4</ele>
        <time>2022-02-11T13:11:56Z</time>
      </trkpt>
      <trkpt lat="49.91569" lon="2.35596">
        <ele>62.4</ele>
        <time>2022-02-11T13:11:58Z</time>
      </trkpt>
      <trkpt lat="49.91568" lon="2.35595">
        <ele>62.5</ele>
        <time>2022-02-11T13:11:59Z</time>
      </trkpt>
      <trkpt lat="49.91567" lon="2.35595">
        <ele>62.5</ele>
        <time>2022-02-11T13:12:00Z</time>
      </trkpt>
      <trkpt lat="49.91566" lon="2.35594">
        <ele>62.5</ele>
        <time>2022-02-11T13:12:01Z</time>
      </trkpt>
      <trkpt lat="49.91565" lon="2.35594">
        <ele>62.5</ele>
        <time>2022-02-11T13:12:02Z</time>
      </trkpt>
      <trkpt lat="49.91564" lon="2.35593">
        <ele>62.5</ele>
        <time>2022-02-11T13:12:03Z</time>
      </trkpt>
      <trkpt lat="49.91563" lon="2.35593">
        <ele>62.5</ele>
        <time>2022-02-11T13:12:05Z</time>
      </trkpt>
      <trkpt lat="49.91562" lon="2.35592">
        <ele>62.5</ele>
        <time>2022-02-11T13:12:06Z</time>
      </trkpt>
      <trkpt lat="49.91561" lon="2.35592">
        <ele>62.6</ele>
        <time>2022-02-11T13:12:07Z</time>
      </trkpt>
      <trkpt lat="49.91559" lon="2.35592">
        <ele>62.6</ele>
        <time>2022-02-11T13:12:08Z</time>
      </trkpt>
      <trkpt lat="49.91558" lon="2.35592">
        <ele>62.6</ele>
        <time>2022-02-11T13:12:09Z</time>
      </trkpt>
      <trkpt lat="49.91557" lon="2.35592">
        <ele>62.6</ele>
        <time>2022-02-11T13:12:10Z</time>
      </trkpt>
      <trkpt lat="49.91556" lon="2.35592">
        <ele>62.6</ele>
        <time>2022-02-11T13:12:11Z</time>
      </trkpt>
      <trkpt lat="49.91554" lon="2.35592">
        <ele>62.7</ele>
        <time>2022-02-11T13:12:13Z</time>
      </trkpt>
      <trkpt lat="49.91553" lon="2.35591">
        <ele>62.7</ele>
        <time>2022-02-11T13:12:14Z</time>
      </trkpt>
      <trkpt lat="49.91552" lon="2.35591">
        <ele>62.7</ele>
        <time>2022-02-11T13:12:15Z</time>
      </trkpt>
      <trkpt lat="49.9155" lon="2.3559">
        <ele>62.7</ele>
        <time>2022-02-11T13:12:16Z</time>
      </trkpt>
      <trkpt lat="49.91549" lon="2.3559">
        <ele>62.7</ele>
        <time>2022-02-11T13:12:17Z</time>
      </trkpt>
      <trkpt lat="49.91549" lon="2.3559">
        <ele>62.7</ele>
        <time>2022-02-11T13:12:18Z</time>
      </trkpt>
      <trkpt lat="49.91548" lon="2.35589">
        <ele>62.8</ele>
        <time>2022-02-11T13:12:19Z</time>
      </trkpt>
      <trkpt lat="49.91546" lon="2.35588">
        <ele>62.8</ele>
        <time>2022-02-11T13:12:20Z</time>
      </trkpt>
      <trkpt lat="49.91545" lon="2.35588">
        <ele>62.8</ele>
        <time>2022-02-11T13:12:22Z</time>
      </trkpt>
      <trkpt lat="49.91543" lon="2.35587">
        <ele>62.8</ele>
        <time>2022-02-11T13:12:23Z</time>
      </trkpt>
      <trkpt lat="49.91542" lon="2.35587">
        <ele>62.8</ele>
        <time>2022-02-11T13:12:24Z</time>
      </trkpt>
      <trkpt lat="49.91542" lon="2.35587">
        <ele>62.8</ele>
        <time>2022-02-11T13:12:25Z</time>
      </trkpt>
      <trkpt lat="49.9154" lon="2.35586">
        <ele>62.9</ele>
        <time>2022-02-11T13:12:26Z</time>
      </trkpt>
      <trkpt lat="49.91539" lon="2.35586">
        <ele>62.9</ele>
        <time>2022-02-11T13:12:27Z</time>
      </trkpt>
      <trkpt lat="49.91538" lon="2.35586">
        <ele>62.9</ele>
        <time>2022-02-11T13:12:28Z</time>
      </trkpt>
      <trkpt lat="49.91536" lon="2.35586">
        <ele>62.9</ele>
        <time>2022-02-11T13:12:29Z</time>
      </trkpt>
      <trkpt lat="49.91535" lon="2.35586">
        <ele>62.9</ele>
        <time>2022-02-11T13:12:31Z</time>
      </trkpt>
      <trkpt lat="49.91534" lon="2.35586">
        <ele>62.9</ele>
        <time>2022-02-11T13:12:32Z</time>
      </trkpt>
      <trkpt lat="49.91532" lon="2.35586">
        <ele>63</ele>
        <time>2022-02-11T13:12:33Z</time>
      </trkpt>
      <trkpt lat="49.91531" lon="2.35586">
        <ele>63</ele>
        <time>2022-02-11T13:12:34Z</time>
      </trkpt>
      <trkpt lat="49.9153" lon="2.35586">
        <ele>63</ele>
        <time>2022-02-11T13:12:35Z</time>
      </trkpt>
      <trkpt lat="49.91529" lon="2.35586">
        <ele>63</ele>
        <time>2022-02-11T13:12:36Z</time>
      </trkpt>
      <trkpt lat="49.91527" lon="2.35585">
        <ele>63</ele>
        <time>2022-02-11T13:12:37Z</time>
      </trkpt>
      <trkpt lat="49.91526" lon="2.35585">
        <ele>63</ele>
        <time>2022-02-11T13:12:38Z</time>
      </trkpt>
      <trkpt lat="49.91525" lon="2.35585">
        <ele>63</ele>
        <time>2022-02-11T13:12:39Z</time>
      </trkpt>
      <trkpt lat="49.91523" lon="2.35585">
        <ele>63</ele>
        <time>2022-02-11T13:12:41Z</time>
      </trkpt>
      <trkpt lat="49.91522" lon="2.35585">
        <ele>63</ele>
        <time>2022-02-11T13:12:42Z</time>
      </trkpt>
      <trkpt lat="49.91519" lon="2.35585">
        <ele>63</ele>
        <time>2022-02-11T13:12:43Z</time>
      </trkpt>
      <trkpt lat="49.91519" lon="2.35584">
        <ele>63.1</ele>
        <time>2022-02-11T13:12:44Z</time>
      </trkpt>
      <trkpt lat="49.91518" lon="2.35584">
        <ele>63.1</ele>
        <time>2022-02-11T13:12:45Z</time>
      </trkpt>
      <trkpt lat="49.91516" lon="2.35584">
        <ele>63.1</ele>
        <time>2022-02-11T13:12:46Z</time>
      </trkpt>
      <trkpt lat="49.91515" lon="2.35584">
        <ele>63.1</ele>
        <time>2022-02-11T13:12:47Z</time>
      </trkpt>
      <trkpt lat="49.91513" lon="2.35584">
        <ele>63.1</ele>
        <time>2022-02-11T13:12:48Z</time>
      </trkpt>
      <trkpt lat="49.91512" lon="2.35583">
        <ele>63.1</ele>
        <time>2022-02-11T13:12:50Z</time>
      </trkpt>
      <trkpt lat="49.91511" lon="2.35583">
        <ele>63.1</ele>
        <time>2022-02-11T13:12:51Z</time>
      </trkpt>
      <trkpt lat="49.9151" lon="2.35583">
        <ele>63.1</ele>
        <time>2022-02-11T13:12:52Z</time>
      </trkpt>
      <trkpt lat="49.91509" lon="2.35583">
        <ele>63.1</ele>
        <time>2022-02-11T13:12:53Z</time>
      </trkpt>
      <trkpt lat="49.91508" lon="2.35583">
        <ele>63.2</ele>
        <time>2022-02-11T13:12:54Z</time>
      </trkpt>
      <trkpt lat="49.91506" lon="2.35582">
        <ele>63.2</ele>
        <time>2022-02-11T13:12:55Z</time>
      </trkpt>
      <trkpt lat="49.91505" lon="2.35582">
        <ele>63.2</ele>
        <time>2022-02-11T13:12:56Z</time>
      </trkpt>
      <trkpt lat="49.91504" lon="2.35582">
        <ele>63.2</ele>
        <time>2022-02-11T13:12:58Z</time>
      </trkpt>
      <trkpt lat="49.91502" lon="2.35582">
        <ele>63.3</ele>
        <time>2022-02-11T13:12:59Z</time>
      </trkpt>
      <trkpt lat="49.91501" lon="2.35582">
        <ele>63.3</ele>
        <time>2022-02-11T13:13:00Z</time>
      </trkpt>
      <trkpt lat="49.915" lon="2.35582">
        <ele>63.3</ele>
        <time>2022-02-11T13:13:01Z</time>
      </trkpt>
      <trkpt lat="49.91499" lon="2.35582">
        <ele>63.3</ele>
        <time>2022-02-11T13:13:02Z</time>
      </trkpt>
      <trkpt lat="49.91498" lon="2.35582">
        <ele>63.3</ele>
        <time>2022-02-11T13:13:03Z</time>
      </trkpt>
      <trkpt lat="49.91497" lon="2.35582">
        <ele>63.3</ele>
        <time>2022-02-11T13:13:05Z</time>
      </trkpt>
      <trkpt lat="49.91496" lon="2.35581">
        <ele>63.4</ele>
        <time>2022-02-11T13:13:06Z</time>
      </trkpt>
      <trkpt lat="49.91495" lon="2.35581">
        <ele>63.4</ele>
        <time>2022-02-11T13:13:07Z</time>
      </trkpt>
      <trkpt lat="49.91494" lon="2.3558">
        <ele>63.4</ele>
        <time>2022-02-11T13:13:08Z</time>
      </trkpt>
      <trkpt lat="49.91493" lon="2.3558">
        <ele>63.4</ele>
        <time>2022-02-11T13:13:09Z</time>
      </trkpt>
      <trkpt lat="49.91492" lon="2.35579">
        <ele>63.4</ele>
        <time>2022-02-11T13:13:10Z</time>
      </trkpt>
      <trkpt lat="49.91491" lon="2.35579">
        <ele>63.4</ele>
        <time>2022-02-11T13:13:11Z</time>
      </trkpt>
      <trkpt lat="49.91489" lon="2.35578">
        <ele>63.5</ele>
        <time>2022-02-11T13:13:12Z</time>
      </trkpt>
      <trkpt lat="49.91488" lon="2.35578">
        <ele>63.5</ele>
        <time>2022-02-11T13:13:14Z</time>
      </trkpt>
      <trkpt lat="49.91487" lon="2.35578">
        <ele>63.5</ele>
        <time>2022-02-11T13:13:15Z</time>
      </trkpt>
      <trkpt lat="49.91486" lon="2.35578">
        <ele>63.5</ele>
        <time>2022-02-11T13:13:16Z</time>
      </trkpt>
      <trkpt lat="49.91485" lon="2.35577">
        <ele>63.6</ele>
        <time>2022-02-11T13:13:17Z</time>
      </trkpt>
      <trkpt lat="49.91483" lon="2.35577">
        <ele>63.6</ele>
        <time>2022-02-11T13:13:18Z</time>
      </trkpt>
      <trkpt lat="49.91481" lon="2.35576">
        <ele>63.6</ele>
        <time>2022-02-11T13:13:19Z</time>
      </trkpt>
      <trkpt lat="49.9148" lon="2.35576">
        <ele>63.6</ele>
        <time>2022-02-11T13:13:21Z</time>
      </trkpt>
      <trkpt lat="49.91479" lon="2.35575">
        <ele>63.6</ele>
        <time>2022-02-11T13:13:22Z</time>
      </trkpt>
      <trkpt lat="49.91478" lon="2.35575">
        <ele>63.7</ele>
        <time>2022-02-11T13:13:23Z</time>
      </trkpt>
      <trkpt lat="49.91477" lon="2.35575">
        <ele>63.7</ele>
        <time>2022-02-11T13:13:24Z</time>
      </trkpt>
      <trkpt lat="49.91476" lon="2.35574">
        <ele>63.7</ele>
        <time>2022-02-11T13:13:25Z</time>
      </trkpt>
      <trkpt lat="49.91475" lon="2.35574">
        <ele>63.7</ele>
        <time>2022-02-11T13:13:26Z</time>
      </trkpt>
      <trkpt lat="49.91474" lon="2.35574">
        <ele>63.7</ele>
        <time>2022-02-11T13:13:27Z</time>
      </trkpt>
      <trkpt lat="49.91472" lon="2.35573">
        <ele>63.7</ele>
        <time>2022-02-11T13:13:28Z</time>
      </trkpt>
      <trkpt lat="49.91471" lon="2.35572">
        <ele>63.7</ele>
        <time>2022-02-11T13:13:29Z</time>
      </trkpt>
      <trkpt lat="49.9147" lon="2.35572">
        <ele>63.8</ele>
        <time>2022-02-11T13:13:31Z</time>
      </trkpt>
      <trkpt lat="49.91468" lon="2.35571">
        <ele>63.8</ele>
        <time>2022-02-11T13:13:32Z</time>
      </trkpt>
      <trkpt lat="49.91467" lon="2.35571">
        <ele>63.8</ele>
        <time>2022-02-11T13:13:33Z</time>
      </trkpt>
      <trkpt lat="49.91466" lon="2.3557">
        <ele>63.8</ele>
        <time>2022-02-11T13:13:34Z</time>
      </trkpt>
      <trkpt lat="49.91464" lon="2.3557">
        <ele>63.8</ele>
        <time>2022-02-11T13:13:36Z</time>
      </trkpt>
      <trkpt lat="49.91463" lon="2.35569">
        <ele>63.9</ele>
        <time>2022-02-11T13:13:37Z</time>
      </trkpt>
      <trkpt lat="49.91462" lon="2.35569">
        <ele>63.9</ele>
        <time>2022-02-11T13:13:38Z</time>
      </trkpt>
      <trkpt lat="49.91461" lon="2.35569">
        <ele>63.9</ele>
        <time>2022-02-11T13:13:39Z</time>
      </trkpt>
      <trkpt lat="49.91459" lon="2.35569">
        <ele>63.9</ele>
        <time>2022-02-11T13:13:40Z</time>
      </trkpt>
      <trkpt lat="49.91458" lon="2.35568">
        <ele>63.9</ele>
        <time>2022-02-11T13:13:41Z</time>
      </trkpt>
      <trkpt lat="49.91457" lon="2.35568">
        <ele>63.9</ele>
        <time>2022-02-11T13:13:42Z</time>
      </trkpt>
      <trkpt lat="49.91456" lon="2.35568">
        <ele>63.9</ele>
        <time>2022-02-11T13:13:43Z</time>
      </trkpt>
      <trkpt lat="49.91455" lon="2.35568">
        <ele>64</ele>
        <time>2022-02-11T13:13:44Z</time>
      </trkpt>
      <trkpt lat="49.91454" lon="2.35568">
        <ele>64</ele>
        <time>2022-02-11T13:13:45Z</time>
      </trkpt>
      <trkpt lat="49.91452" lon="2.35567">
        <ele>64</ele>
        <time>2022-02-11T13:13:46Z</time>
      </trkpt>
      <trkpt lat="49.91451" lon="2.35567">
        <ele>64</ele>
        <time>2022-02-11T13:13:48Z</time>
      </trkpt>
      <trkpt lat="49.9145" lon="2.35567">
        <ele>64</ele>
        <time>2022-02-11T13:13:49Z</time>
      </trkpt>
      <trkpt lat="49.91449" lon="2.35567">
        <ele>64</ele>
        <time>2022-02-11T13:13:50Z</time>
      </trkpt>
      <trkpt lat="49.91448" lon="2.35566">
        <ele>64</ele>
        <time>2022-02-11T13:13:51Z</time>
      </trkpt>
      <trkpt lat="49.91446" lon="2.35566">
        <ele>64</ele>
        <time>2022-02-11T13:13:52Z</time>
      </trkpt>
      <trkpt lat="49.91445" lon="2.35566">
        <ele>64.1</ele>
        <time>2022-02-11T13:13:53Z</time>
      </trkpt>
      <trkpt lat="49.91444" lon="2.35565">
        <ele>64.1</ele>
        <time>2022-02-11T13:13:54Z</time>
      </trkpt>
      <trkpt lat="49.91443" lon="2.35565">
        <ele>64.1</ele>
        <time>2022-02-11T13:13:55Z</time>
      </trkpt>
      <trkpt lat="49.91442" lon="2.35565">
        <ele>64.1</ele>
        <time>2022-02-11T13:13:56Z</time>
      </trkpt>
      <trkpt lat="49.91441" lon="2.35565">
        <ele>64.1</ele>
        <time>2022-02-11T13:13:57Z</time>
      </trkpt>
      <trkpt lat="49.91439" lon="2.35565">
        <ele>64.1</ele>
        <time>2022-02-11T13:13:59Z</time>
      </trkpt>
      <trkpt lat="49.91438" lon="2.35565">
        <ele>64.1</ele>
        <time>2022-02-11T13:14:00Z</time>
      </trkpt>
      <trkpt lat="49.91437" lon="2.35565">
        <ele>64.1</ele>
        <time>2022-02-11T13:14:01Z</time>
      </trkpt>
      <trkpt lat="49.91436" lon="2.35565">
        <ele>64.1</ele>
        <time>2022-02-11T13:14:02Z</time>
      </trkpt>
      <trkpt lat="49.91434" lon="2.35565">
        <ele>64.1</ele>
        <time>2022-02-11T13:14:03Z</time>
      </trkpt>
      <trkpt lat="49.91433" lon="2.35565">
        <ele>64.1</ele>
        <time>2022-02-11T13:14:04Z</time>
      </trkpt>
      <trkpt lat="49.91432" lon="2.35566">
        <ele>64.1</ele>
        <time>2022-02-11T13:14:05Z</time>
      </trkpt>
      <trkpt lat="49.9143" lon="2.35566">
        <ele>64.1</ele>
        <time>2022-02-11T13:14:06Z</time>
      </trkpt>
      <trkpt lat="49.91429" lon="2.35566">
        <ele>64.1</ele>
        <time>2022-02-11T13:14:08Z</time>
      </trkpt>
      <trkpt lat="49.91428" lon="2.35566">
        <ele>64.1</ele>
        <time>2022-02-11T13:14:09Z</time>
      </trkpt>
      <trkpt lat="49.91427" lon="2.35565">
        <ele>64.1</ele>
        <time>2022-02-11T13:14:10Z</time>
      </trkpt>
      <trkpt lat="49.91426" lon="2.35565">
        <ele>64.1</ele>
        <time>2022-02-11T13:14:11Z</time>
      </trkpt>
      <trkpt lat="49.91425" lon="2.35565">
        <ele>64.1</ele>
        <time>2022-02-11T13:14:12Z</time>
      </trkpt>
      <trkpt lat="49.91424" lon="2.35565">
        <ele>64.1</ele>
        <time>2022-02-11T13:14:13Z</time>
      </trkpt>
      <trkpt lat="49.91422" lon="2.35564">
        <ele>64.1</ele>
        <time>2022-02-11T13:14:14Z</time>
      </trkpt>
      <trkpt lat="49.91421" lon="2.35564">
        <ele>64.1</ele>
        <time>2022-02-11T13:14:16Z</time>
      </trkpt>
      <trkpt lat="49.9142" lon="2.35564">
        <ele>64.1</ele>
        <time>2022-02-11T13:14:17Z</time>
      </trkpt>
      <trkpt lat="49.91419" lon="2.35564">
        <ele>64.1</ele>
        <time>2022-02-11T13:14:18Z</time>
      </trkpt>
      <trkpt lat="49.91418" lon="2.35564">
        <ele>64.1</ele>
        <time>2022-02-11T13:14:19Z</time>
      </trkpt>
      <trkpt lat="49.91416" lon="2.35563">
        <ele>64.1</ele>
        <time>2022-02-11T13:14:20Z</time>
      </trkpt>
      <trkpt lat="49.91415" lon="2.35563">
        <ele>64.1</ele>
        <time>2022-02-11T13:14:21Z</time>
      </trkpt>
      <trkpt lat="49.91414" lon="2.35563">
        <ele>64.1</ele>
        <time>2022-02-11T13:14:22Z</time>
      </trkpt>
      <trkpt lat="49.91413" lon="2.35562">
        <ele>64.1</ele>
        <time>2022-02-11T13:14:23Z</time>
      </trkpt>
      <trkpt lat="49.91411" lon="2.35562">
        <ele>64.1</ele>
        <time>2022-02-11T13:14:24Z</time>
      </trkpt>
      <trkpt lat="49.9141" lon="2.35561">
        <ele>64.1</ele>
        <time>2022-02-11T13:14:26Z</time>
      </trkpt>
      <trkpt lat="49.91409" lon="2.35561">
        <ele>64.1</ele>
        <time>2022-02-11T13:14:27Z</time>
      </trkpt>
      <trkpt lat="49.91408" lon="2.35561">
        <ele>64.1</ele>
        <time>2022-02-11T13:14:28Z</time>
      </trkpt>
      <trkpt lat="49.91407" lon="2.35561">
        <ele>64.1</ele>
        <time>2022-02-11T13:14:29Z</time>
      </trkpt>
      <trkpt lat="49.91405" lon="2.35561">
        <ele>64.1</ele>
        <time>2022-02-11T13:14:30Z</time>
      </trkpt>
      <trkpt lat="49.91404" lon="2.35561">
        <ele>64.1</ele>
        <time>2022-02-11T13:14:31Z</time>
      </trkpt>
      <trkpt lat="49.91403" lon="2.35561">
        <ele>64.1</ele>
        <time>2022-02-11T13:14:32Z</time>
      </trkpt>
      <trkpt lat="49.91402" lon="2.35561">
        <ele>64.1</ele>
        <time>2022-02-11T13:14:34Z</time>
      </trkpt>
      <trkpt lat="49.91401" lon="2.35561">
        <ele>64.1</ele>
        <time>2022-02-11T13:14:35Z</time>
      </trkpt>
      <trkpt lat="49.914" lon="2.35562">
        <ele>64.1</ele>
        <time>2022-02-11T13:14:36Z</time>
      </trkpt>
      <trkpt lat="49.91399" lon="2.35562">
        <ele>64.1</ele>
        <time>2022-02-11T13:14:37Z</time>
      </trkpt>
      <trkpt lat="49.91398" lon="2.35562">
        <ele>64.1</ele>
        <time>2022-02-11T13:14:38Z</time>
      </trkpt>
      <trkpt lat="49.91397" lon="2.35562">
        <ele>64.1</ele>
        <time>2022-02-11T13:14:39Z</time>
      </trkpt>
      <trkpt lat="49.91395" lon="2.35561">
        <ele>64.1</ele>
        <time>2022-02-11T13:14:40Z</time>
      </trkpt>
      <trkpt lat="49.91394" lon="2.35561">
        <ele>64.1</ele>
        <time>2022-02-11T13:14:41Z</time>
      </trkpt>
      <trkpt lat="49.91393" lon="2.3556">
        <ele>64.1</ele>
        <time>2022-02-11T13:14:42Z</time>
      </trkpt>
      <trkpt lat="49.91392" lon="2.35559">
        <ele>64</ele>
        <time>2022-02-11T13:14:44Z</time>
      </trkpt>
      <trkpt lat="49.91391" lon="2.35559">
        <ele>64</ele>
        <time>2022-02-11T13:14:45Z</time>
      </trkpt>
      <trkpt lat="49.9139" lon="2.35559">
        <ele>64</ele>
        <time>2022-02-11T13:14:46Z</time>
      </trkpt>
      <trkpt lat="49.9139" lon="2.35558">
        <ele>64</ele>
        <time>2022-02-11T13:14:47Z</time>
      </trkpt>
      <trkpt lat="49.91391" lon="2.35557">
        <ele>64</ele>
        <time>2022-02-11T13:14:48Z</time>
      </trkpt>
      <trkpt lat="49.91391" lon="2.35555">
        <ele>64</ele>
        <time>2022-02-11T13:14:49Z</time>
      </trkpt>
      <trkpt lat="49.91392" lon="2.35555">
        <ele>64</ele>
        <time>2022-02-11T13:14:50Z</time>
      </trkpt>
      <trkpt lat="49.91392" lon="2.35554">
        <ele>64</ele>
        <time>2022-02-11T13:14:51Z</time>
      </trkpt>
      <trkpt lat="49.91393" lon="2.35553">
        <ele>64</ele>
        <time>2022-02-11T13:14:52Z</time>
      </trkpt>
      <trkpt lat="49.91393" lon="2.35553">
        <ele>64</ele>
        <time>2022-02-11T13:14:53Z</time>
      </trkpt>
      <trkpt lat="49.91393" lon="2.35553">
        <ele>64</ele>
        <time>2022-02-11T13:14:54Z</time>
      </trkpt>
      <trkpt lat="49.91393" lon="2.35553">
        <ele>63.9</ele>
        <time>2022-02-11T13:14:56Z</time>
      </trkpt>
      <trkpt lat="49.91393" lon="2.35553">
        <ele>63.9</ele>
        <time>2022-02-11T13:14:57Z</time>
      </trkpt>
      <trkpt lat="49.91392" lon="2.35552">
        <ele>63.9</ele>
        <time>2022-02-11T13:14:58Z</time>
      </trkpt>
      <trkpt lat="49.91391" lon="2.35552">
        <ele>63.9</ele>
        <time>2022-02-11T13:14:59Z</time>
      </trkpt>
      <trkpt lat="49.9139" lon="2.35552">
        <ele>63.9</ele>
        <time>2022-02-11T13:15:00Z</time>
      </trkpt>
      <trkpt lat="49.91388" lon="2.35551">
        <ele>63.9</ele>
        <time>2022-02-11T13:15:01Z</time>
      </trkpt>
      <trkpt lat="49.91386" lon="2.35551">
        <ele>63.9</ele>
        <time>2022-02-11T13:15:02Z</time>
      </trkpt>
      <trkpt lat="49.91385" lon="2.35551">
        <ele>63.8</ele>
        <time>2022-02-11T13:15:03Z</time>
      </trkpt>
      <trkpt lat="49.91383" lon="2.3555">
        <ele>63.8</ele>
        <time>2022-02-11T13:15:04Z</time>
      </trkpt>
      <trkpt lat="49.91382" lon="2.3555">
        <ele>63.8</ele>
        <time>2022-02-11T13:15:06Z</time>
      </trkpt>
      <trkpt lat="49.9138" lon="2.3555">
        <ele>63.8</ele>
        <time>2022-02-11T13:15:07Z</time>
      </trkpt>
      <trkpt lat="49.91379" lon="2.35549">
        <ele>63.8</ele>
        <time>2022-02-11T13:15:08Z</time>
      </trkpt>
      <trkpt lat="49.91377" lon="2.35549">
        <ele>63.8</ele>
        <time>2022-02-11T13:15:09Z</time>
      </trkpt>
      <trkpt lat="49.91376" lon="2.35549">
        <ele>63.8</ele>
        <time>2022-02-11T13:15:10Z</time>
      </trkpt>
      <trkpt lat="49.91375" lon="2.35549">
        <ele>63.8</ele>
        <time>2022-02-11T13:15:11Z</time>
      </trkpt>
      <trkpt lat="49.91372" lon="2.35547">
        <ele>63.7</ele>
        <time>2022-02-11T13:15:12Z</time>
      </trkpt>
      <trkpt lat="49.91372" lon="2.35547">
        <ele>63.7</ele>
        <time>2022-02-11T13:15:13Z</time>
      </trkpt>
      <trkpt lat="49.91371" lon="2.35546">
        <ele>63.7</ele>
        <time>2022-02-11T13:15:15Z</time>
      </trkpt>
      <trkpt lat="49.9137" lon="2.35545">
        <ele>63.7</ele>
        <time>2022-02-11T13:15:16Z</time>
      </trkpt>
      <trkpt lat="49.91369" lon="2.35545">
        <ele>63.7</ele>
        <time>2022-02-11T13:15:17Z</time>
      </trkpt>
      <trkpt lat="49.91368" lon="2.35544">
        <ele>63.7</ele>
        <time>2022-02-11T13:15:18Z</time>
      </trkpt>
      <trkpt lat="49.91366" lon="2.35544">
        <ele>63.6</ele>
        <time>2022-02-11T13:15:19Z</time>
      </trkpt>
      <trkpt lat="49.91365" lon="2.35544">
        <ele>63.6</ele>
        <time>2022-02-11T13:15:20Z</time>
      </trkpt>
      <trkpt lat="49.91364" lon="2.35544">
        <ele>63.6</ele>
        <time>2022-02-11T13:15:21Z</time>
      </trkpt>
      <trkpt lat="49.91363" lon="2.35544">
        <ele>63.6</ele>
        <time>2022-02-11T13:15:22Z</time>
      </trkpt>
      <trkpt lat="49.91361" lon="2.35545">
        <ele>63.6</ele>
        <time>2022-02-11T13:15:23Z</time>
      </trkpt>
      <trkpt lat="49.9136" lon="2.35545">
        <ele>63.5</ele>
        <time>2022-02-11T13:15:25Z</time>
      </trkpt>
      <trkpt lat="49.91359" lon="2.35545">
        <ele>63.5</ele>
        <time>2022-02-11T13:15:26Z</time>
      </trkpt>
      <trkpt lat="49.91358" lon="2.35545">
        <ele>63.5</ele>
        <time>2022-02-11T13:15:27Z</time>
      </trkpt>
      <trkpt lat="49.91356" lon="2.35544">
        <ele>63.5</ele>
        <time>2022-02-11T13:15:28Z</time>
      </trkpt>
      <trkpt lat="49.91355" lon="2.35544">
        <ele>63.4</ele>
        <time>2022-02-11T13:15:29Z</time>
      </trkpt>
      <trkpt lat="49.91354" lon="2.35544">
        <ele>63.4</ele>
        <time>2022-02-11T13:15:30Z</time>
      </trkpt>
      <trkpt lat="49.91353" lon="2.35543">
        <ele>63.4</ele>
        <time>2022-02-11T13:15:31Z</time>
      </trkpt>
      <trkpt lat="49.91352" lon="2.35542">
        <ele>63.4</ele>
        <time>2022-02-11T13:15:32Z</time>
      </trkpt>
      <trkpt lat="49.91351" lon="2.35542">
        <ele>63.4</ele>
        <time>2022-02-11T13:15:33Z</time>
      </trkpt>
      <trkpt lat="49.9135" lon="2.35541">
        <ele>63.3</ele>
        <time>2022-02-11T13:15:34Z</time>
      </trkpt>
      <trkpt lat="49.91349" lon="2.35541">
        <ele>63.3</ele>
        <time>2022-02-11T13:15:35Z</time>
      </trkpt>
      <trkpt lat="49.91348" lon="2.3554">
        <ele>63.3</ele>
        <time>2022-02-11T13:15:36Z</time>
      </trkpt>
      <trkpt lat="49.91347" lon="2.35538">
        <ele>63.3</ele>
        <time>2022-02-11T13:15:37Z</time>
      </trkpt>
      <trkpt lat="49.91346" lon="2.35537">
        <ele>63.3</ele>
        <time>2022-02-11T13:15:38Z</time>
      </trkpt>
      <trkpt lat="49.91344" lon="2.35536">
        <ele>63.2</ele>
        <time>2022-02-11T13:15:39Z</time>
      </trkpt>
      <trkpt lat="49.91343" lon="2.35536">
        <ele>63.2</ele>
        <time>2022-02-11T13:15:41Z</time>
      </trkpt>
      <trkpt lat="49.91342" lon="2.35536">
        <ele>63.2</ele>
        <time>2022-02-11T13:15:42Z</time>
      </trkpt>
      <trkpt lat="49.9134" lon="2.35535">
        <ele>63.2</ele>
        <time>2022-02-11T13:15:43Z</time>
      </trkpt>
      <trkpt lat="49.91339" lon="2.35535">
        <ele>63.2</ele>
        <time>2022-02-11T13:15:44Z</time>
      </trkpt>
      <trkpt lat="49.91338" lon="2.35535">
        <ele>63.1</ele>
        <time>2022-02-11T13:15:45Z</time>
      </trkpt>
      <trkpt lat="49.91337" lon="2.35534">
        <ele>63.1</ele>
        <time>2022-02-11T13:15:46Z</time>
      </trkpt>
      <trkpt lat="49.91336" lon="2.35534">
        <ele>63.1</ele>
        <time>2022-02-11T13:15:47Z</time>
      </trkpt>
      <trkpt lat="49.91335" lon="2.35533">
        <ele>63.1</ele>
        <time>2022-02-11T13:15:48Z</time>
      </trkpt>
      <trkpt lat="49.91334" lon="2.35533">
        <ele>63.1</ele>
        <time>2022-02-11T13:15:49Z</time>
      </trkpt>
      <trkpt lat="49.91332" lon="2.35531">
        <ele>63.1</ele>
        <time>2022-02-11T13:15:51Z</time>
      </trkpt>
      <trkpt lat="49.91331" lon="2.35531">
        <ele>63.1</ele>
        <time>2022-02-11T13:15:52Z</time>
      </trkpt>
      <trkpt lat="49.9133" lon="2.3553">
        <ele>63.1</ele>
        <time>2022-02-11T13:15:53Z</time>
      </trkpt>
      <trkpt lat="49.91329" lon="2.3553">
        <ele>63.1</ele>
        <time>2022-02-11T13:15:54Z</time>
      </trkpt>
      <trkpt lat="49.91327" lon="2.35529">
        <ele>63.1</ele>
        <time>2022-02-11T13:15:55Z</time>
      </trkpt>
      <trkpt lat="49.91326" lon="2.35529">
        <ele>63.1</ele>
        <time>2022-02-11T13:15:56Z</time>
      </trkpt>
      <trkpt lat="49.91325" lon="2.35528">
        <ele>63</ele>
        <time>2022-02-11T13:15:57Z</time>
      </trkpt>
      <trkpt lat="49.91323" lon="2.35527">
        <ele>63</ele>
        <time>2022-02-11T13:15:58Z</time>
      </trkpt>
      <trkpt lat="49.91322" lon="2.35527">
        <ele>63</ele>
        <time>2022-02-11T13:16:00Z</time>
      </trkpt>
      <trkpt lat="49.91322" lon="2.35526">
        <ele>63</ele>
        <time>2022-02-11T13:16:01Z</time>
      </trkpt>
      <trkpt lat="49.91321" lon="2.35526">
        <ele>63</ele>
        <time>2022-02-11T13:16:02Z</time>
      </trkpt>
      <trkpt lat="49.9132" lon="2.35525">
        <ele>63</ele>
        <time>2022-02-11T13:16:03Z</time>
      </trkpt>
      <trkpt lat="49.91319" lon="2.35524">
        <ele>63</ele>
        <time>2022-02-11T13:16:04Z</time>
      </trkpt>
      <trkpt lat="49.91317" lon="2.35524">
        <ele>63</ele>
        <time>2022-02-11T13:16:05Z</time>
      </trkpt>
      <trkpt lat="49.91316" lon="2.35523">
        <ele>63</ele>
        <time>2022-02-11T13:16:06Z</time>
      </trkpt>
      <trkpt lat="49.91315" lon="2.35523">
        <ele>63</ele>
        <time>2022-02-11T13:16:07Z</time>
      </trkpt>
      <trkpt lat="49.91314" lon="2.35522">
        <ele>62.9</ele>
        <time>2022-02-11T13:16:08Z</time>
      </trkpt>
      <trkpt lat="49.91313" lon="2.35522">
        <ele>62.9</ele>
        <time>2022-02-11T13:16:09Z</time>
      </trkpt>
      <trkpt lat="49.91312" lon="2.35521">
        <ele>62.9</ele>
        <time>2022-02-11T13:16:10Z</time>
      </trkpt>
      <trkpt lat="49.91311" lon="2.3552">
        <ele>62.9</ele>
        <time>2022-02-11T13:16:11Z</time>
      </trkpt>
      <trkpt lat="49.9131" lon="2.35519">
        <ele>62.9</ele>
        <time>2022-02-11T13:16:12Z</time>
      </trkpt>
      <trkpt lat="49.91309" lon="2.35518">
        <ele>62.9</ele>
        <time>2022-02-11T13:16:14Z</time>
      </trkpt>
      <trkpt lat="49.91308" lon="2.35517">
        <ele>62.8</ele>
        <time>2022-02-11T13:16:15Z</time>
      </trkpt>
      <trkpt lat="49.91307" lon="2.35517">
        <ele>62.8</ele>
        <time>2022-02-11T13:16:16Z</time>
      </trkpt>
      <trkpt lat="49.91306" lon="2.35516">
        <ele>62.8</ele>
        <time>2022-02-11T13:16:17Z</time>
      </trkpt>
      <trkpt lat="49.91305" lon="2.35515">
        <ele>62.8</ele>
        <time>2022-02-11T13:16:18Z</time>
      </trkpt>
      <trkpt lat="49.91304" lon="2.35514">
        <ele>62.8</ele>
        <time>2022-02-11T13:16:19Z</time>
      </trkpt>
      <trkpt lat="49.91303" lon="2.35513">
        <ele>62.7</ele>
        <time>2022-02-11T13:16:20Z</time>
      </trkpt>
      <trkpt lat="49.91301" lon="2.35513">
        <ele>62.7</ele>
        <time>2022-02-11T13:16:21Z</time>
      </trkpt>
      <trkpt lat="49.913" lon="2.35512">
        <ele>62.7</ele>
        <time>2022-02-11T13:16:22Z</time>
      </trkpt>
      <trkpt lat="49.91299" lon="2.35512">
        <ele>62.7</ele>
        <time>2022-02-11T13:16:23Z</time>
      </trkpt>
      <trkpt lat="49.91297" lon="2.35511">
        <ele>62.6</ele>
        <time>2022-02-11T13:16:24Z</time>
      </trkpt>
      <trkpt lat="49.91297" lon="2.35511">
        <ele>62.6</ele>
        <time>2022-02-11T13:16:25Z</time>
      </trkpt>
      <trkpt lat="49.91296" lon="2.3551">
        <ele>62.6</ele>
        <time>2022-02-11T13:16:26Z</time>
      </trkpt>
      <trkpt lat="49.91293" lon="2.35509">
        <ele>62.5</ele>
        <time>2022-02-11T13:16:27Z</time>
      </trkpt>
      <trkpt lat="49.91292" lon="2.35509">
        <ele>62.5</ele>
        <time>2022-02-11T13:16:29Z</time>
      </trkpt>
      <trkpt lat="49.91291" lon="2.35509">
        <ele>62.5</ele>
        <time>2022-02-11T13:16:30Z</time>
      </trkpt>
      <trkpt lat="49.9129" lon="2.35508">
        <ele>62.5</ele>
        <time>2022-02-11T13:16:31Z</time>
      </trkpt>
      <trkpt lat="49.91289" lon="2.35508">
        <ele>62.4</ele>
        <time>2022-02-11T13:16:32Z</time>
      </trkpt>
      <trkpt lat="49.91288" lon="2.35508">
        <ele>62.4</ele>
        <time>2022-02-11T13:16:33Z</time>
      </trkpt>
      <trkpt lat="49.91287" lon="2.35507">
        <ele>62.4</ele>
        <time>2022-02-11T13:16:34Z</time>
      </trkpt>
      <trkpt lat="49.91286" lon="2.35506">
        <ele>62.4</ele>
        <time>2022-02-11T13:16:35Z</time>
      </trkpt>
      <trkpt lat="49.91285" lon="2.35505">
        <ele>62.3</ele>
        <time>2022-02-11T13:16:36Z</time>
      </trkpt>
      <trkpt lat="49.91283" lon="2.35505">
        <ele>62.3</ele>
        <time>2022-02-11T13:16:37Z</time>
      </trkpt>
      <trkpt lat="49.91281" lon="2.35503">
        <ele>62.3</ele>
        <time>2022-02-11T13:16:38Z</time>
      </trkpt>
      <trkpt lat="49.91281" lon="2.35503">
        <ele>62.3</ele>
        <time>2022-02-11T13:16:39Z</time>
      </trkpt>
      <trkpt lat="49.9128" lon="2.35502">
        <ele>62.2</ele>
        <time>2022-02-11T13:16:40Z</time>
      </trkpt>
      <trkpt lat="49.91278" lon="2.35501">
        <ele>62.2</ele>
        <time>2022-02-11T13:16:41Z</time>
      </trkpt>
      <trkpt lat="49.91277" lon="2.35501">
        <ele>62.2</ele>
        <time>2022-02-11T13:16:42Z</time>
      </trkpt>
      <trkpt lat="49.91276" lon="2.35501">
        <ele>62.2</ele>
        <time>2022-02-11T13:16:43Z</time>
      </trkpt>
      <trkpt lat="49.91275" lon="2.355">
        <ele>62.2</ele>
        <time>2022-02-11T13:16:44Z</time>
      </trkpt>
      <trkpt lat="49.91274" lon="2.35499">
        <ele>62.2</ele>
        <time>2022-02-11T13:16:46Z</time>
      </trkpt>
      <trkpt lat="49.91273" lon="2.35497">
        <ele>62.1</ele>
        <time>2022-02-11T13:16:47Z</time>
      </trkpt>
      <trkpt lat="49.91272" lon="2.35496">
        <ele>62.1</ele>
        <time>2022-02-11T13:16:48Z</time>
      </trkpt>
      <trkpt lat="49.9127" lon="2.35494">
        <ele>62.1</ele>
        <time>2022-02-11T13:16:49Z</time>
      </trkpt>
      <trkpt lat="49.91269" lon="2.35494">
        <ele>62.1</ele>
        <time>2022-02-11T13:16:50Z</time>
      </trkpt>
      <trkpt lat="49.91268" lon="2.35493">
        <ele>62.1</ele>
        <time>2022-02-11T13:16:51Z</time>
      </trkpt>
      <trkpt lat="49.91267" lon="2.35491">
        <ele>62.1</ele>
        <time>2022-02-11T13:16:52Z</time>
      </trkpt>
      <trkpt lat="49.91266" lon="2.3549">
        <ele>62.1</ele>
        <time>2022-02-11T13:16:53Z</time>
      </trkpt>
      <trkpt lat="49.91265" lon="2.3549">
        <ele>62.1</ele>
        <time>2022-02-11T13:16:54Z</time>
      </trkpt>
      <trkpt lat="49.91264" lon="2.35489">
        <ele>62.1</ele>
        <time>2022-02-11T13:16:55Z</time>
      </trkpt>
      <trkpt lat="49.91264" lon="2.35488">
        <ele>62</ele>
        <time>2022-02-11T13:16:56Z</time>
      </trkpt>
      <trkpt lat="49.91262" lon="2.35487">
        <ele>62</ele>
        <time>2022-02-11T13:16:57Z</time>
      </trkpt>
      <trkpt lat="49.9126" lon="2.35485">
        <ele>62</ele>
        <time>2022-02-11T13:16:58Z</time>
      </trkpt>
      <trkpt lat="49.91259" lon="2.35485">
        <ele>62</ele>
        <time>2022-02-11T13:17:00Z</time>
      </trkpt>
      <trkpt lat="49.91258" lon="2.35484">
        <ele>62</ele>
        <time>2022-02-11T13:17:01Z</time>
      </trkpt>
      <trkpt lat="49.91257" lon="2.35484">
        <ele>62</ele>
        <time>2022-02-11T13:17:02Z</time>
      </trkpt>
      <trkpt lat="49.91256" lon="2.35483">
        <ele>62</ele>
        <time>2022-02-11T13:17:03Z</time>
      </trkpt>
      <trkpt lat="49.91255" lon="2.35482">
        <ele>61.9</ele>
        <time>2022-02-11T13:17:04Z</time>
      </trkpt>
      <trkpt lat="49.91253" lon="2.35481">
        <ele>61.9</ele>
        <time>2022-02-11T13:17:06Z</time>
      </trkpt>
      <trkpt lat="49.91252" lon="2.35481">
        <ele>61.9</ele>
        <time>2022-02-11T13:17:07Z</time>
      </trkpt>
      <trkpt lat="49.91251" lon="2.3548">
        <ele>61.9</ele>
        <time>2022-02-11T13:17:08Z</time>
      </trkpt>
      <trkpt lat="49.9125" lon="2.35479">
        <ele>61.8</ele>
        <time>2022-02-11T13:17:09Z</time>
      </trkpt>
      <trkpt lat="49.91248" lon="2.35478">
        <ele>61.8</ele>
        <time>2022-02-11T13:17:10Z</time>
      </trkpt>
      <trkpt lat="49.91248" lon="2.35477">
        <ele>61.8</ele>
        <time>2022-02-11T13:17:11Z</time>
      </trkpt>
      <trkpt lat="49.91247" lon="2.35477">
        <ele>61.8</ele>
        <time>2022-02-11T13:17:12Z</time>
      </trkpt>
      <trkpt lat="49.91245" lon="2.35476">
        <ele>61.7</ele>
        <time>2022-02-11T13:17:13Z</time>
      </trkpt>
      <trkpt lat="49.91244" lon="2.35475">
        <ele>61.7</ele>
        <time>2022-02-11T13:17:14Z</time>
      </trkpt>
      <trkpt lat="49.91243" lon="2.35475">
        <ele>61.7</ele>
        <time>2022-02-11T13:17:15Z</time>
      </trkpt>
      <trkpt lat="49.91241" lon="2.35474">
        <ele>61.7</ele>
        <time>2022-02-11T13:17:17Z</time>
      </trkpt>
      <trkpt lat="49.91241" lon="2.35473">
        <ele>61.6</ele>
        <time>2022-02-11T13:17:18Z</time>
      </trkpt>
      <trkpt lat="49.9124" lon="2.35473">
        <ele>61.6</ele>
        <time>2022-02-11T13:17:19Z</time>
      </trkpt>
      <trkpt lat="49.91238" lon="2.35472">
        <ele>61.6</ele>
        <time>2022-02-11T13:17:20Z</time>
      </trkpt>
      <trkpt lat="49.91237" lon="2.35471">
        <ele>61.5</ele>
        <time>2022-02-11T13:17:21Z</time>
      </trkpt>
      <trkpt lat="49.91236" lon="2.35471">
        <ele>61.5</ele>
        <time>2022-02-11T13:17:22Z</time>
      </trkpt>
      <trkpt lat="49.91235" lon="2.3547">
        <ele>61.5</ele>
        <time>2022-02-11T13:17:23Z</time>
      </trkpt>
      <trkpt lat="49.91234" lon="2.35469">
        <ele>61.5</ele>
        <time>2022-02-11T13:17:24Z</time>
      </trkpt>
      <trkpt lat="49.91233" lon="2.35468">
        <ele>61.4</ele>
        <time>2022-02-11T13:17:25Z</time>
      </trkpt>
      <trkpt lat="49.91232" lon="2.35468">
        <ele>61.4</ele>
        <time>2022-02-11T13:17:26Z</time>
      </trkpt>
      <trkpt lat="49.91231" lon="2.35467">
        <ele>61.4</ele>
        <time>2022-02-11T13:17:27Z</time>
      </trkpt>
      <trkpt lat="49.91229" lon="2.35467">
        <ele>61.3</ele>
        <time>2022-02-11T13:17:29Z</time>
      </trkpt>
      <trkpt lat="49.91228" lon="2.35466">
        <ele>61.3</ele>
        <time>2022-02-11T13:17:30Z</time>
      </trkpt>
      <trkpt lat="49.91226" lon="2.35466">
        <ele>61.2</ele>
        <time>2022-02-11T13:17:31Z</time>
      </trkpt>
      <trkpt lat="49.91224" lon="2.35465">
        <ele>61.1</ele>
        <time>2022-02-11T13:17:32Z</time>
      </trkpt>
      <trkpt lat="49.91223" lon="2.35465">
        <ele>61.1</ele>
        <time>2022-02-11T13:17:34Z</time>
      </trkpt>
      <trkpt lat="49.91222" lon="2.35464">
        <ele>61.1</ele>
        <time>2022-02-11T13:17:35Z</time>
      </trkpt>
      <trkpt lat="49.9122" lon="2.35464">
        <ele>61</ele>
        <time>2022-02-11T13:17:36Z</time>
      </trkpt>
      <trkpt lat="49.91219" lon="2.35463">
        <ele>61</ele>
        <time>2022-02-11T13:17:37Z</time>
      </trkpt>
      <trkpt lat="49.91218" lon="2.35463">
        <ele>61</ele>
        <time>2022-02-11T13:17:38Z</time>
      </trkpt>
      <trkpt lat="49.91217" lon="2.35462">
        <ele>60.9</ele>
        <time>2022-02-11T13:17:39Z</time>
      </trkpt>
      <trkpt lat="49.91215" lon="2.35461">
        <ele>60.9</ele>
        <time>2022-02-11T13:17:40Z</time>
      </trkpt>
      <trkpt lat="49.91214" lon="2.35461">
        <ele>60.9</ele>
        <time>2022-02-11T13:17:41Z</time>
      </trkpt>
      <trkpt lat="49.91213" lon="2.35461">
        <ele>60.8</ele>
        <time>2022-02-11T13:17:42Z</time>
      </trkpt>
      <trkpt lat="49.91211" lon="2.35459">
        <ele>60.8</ele>
        <time>2022-02-11T13:17:44Z</time>
      </trkpt>
      <trkpt lat="49.9121" lon="2.35459">
        <ele>60.7</ele>
        <time>2022-02-11T13:17:45Z</time>
      </trkpt>
      <trkpt lat="49.91209" lon="2.35459">
        <ele>60.7</ele>
        <time>2022-02-11T13:17:46Z</time>
      </trkpt>
      <trkpt lat="49.91208" lon="2.35458">
        <ele>60.7</ele>
        <time>2022-02-11T13:17:47Z</time>
      </trkpt>
      <trkpt lat="49.91207" lon="2.35457">
        <ele>60.6</ele>
        <time>2022-02-11T13:17:48Z</time>
      </trkpt>
      <trkpt lat="49.91205" lon="2.35456">
        <ele>60.6</ele>
        <time>2022-02-11T13:17:50Z</time>
      </trkpt>
      <trkpt lat="49.91203" lon="2.35455">
        <ele>60.5</ele>
        <time>2022-02-11T13:17:51Z</time>
      </trkpt>
      <trkpt lat="49.91202" lon="2.35455">
        <ele>60.5</ele>
        <time>2022-02-11T13:17:52Z</time>
      </trkpt>
      <trkpt lat="49.91202" lon="2.35455">
        <ele>60.5</ele>
        <time>2022-02-11T13:17:53Z</time>
      </trkpt>
      <trkpt lat="49.912" lon="2.35454">
        <ele>60.4</ele>
        <time>2022-02-11T13:17:54Z</time>
      </trkpt>
      <trkpt lat="49.91199" lon="2.35453">
        <ele>60.4</ele>
        <time>2022-02-11T13:17:55Z</time>
      </trkpt>
      <trkpt lat="49.91198" lon="2.35453">
        <ele>60.4</ele>
        <time>2022-02-11T13:17:56Z</time>
      </trkpt>
      <trkpt lat="49.91196" lon="2.35452">
        <ele>60.3</ele>
        <time>2022-02-11T13:17:57Z</time>
      </trkpt>
      <trkpt lat="49.91195" lon="2.35451">
        <ele>60.3</ele>
        <time>2022-02-11T13:17:59Z</time>
      </trkpt>
      <trkpt lat="49.91194" lon="2.35451">
        <ele>60.3</ele>
        <time>2022-02-11T13:18:00Z</time>
      </trkpt>
      <trkpt lat="49.91193" lon="2.3545">
        <ele>60.2</ele>
        <time>2022-02-11T13:18:01Z</time>
      </trkpt>
      <trkpt lat="49.91192" lon="2.3545">
        <ele>60.2</ele>
        <time>2022-02-11T13:18:02Z</time>
      </trkpt>
      <trkpt lat="49.91191" lon="2.35449">
        <ele>60.2</ele>
        <time>2022-02-11T13:18:03Z</time>
      </trkpt>
      <trkpt lat="49.9119" lon="2.35448">
        <ele>60.2</ele>
        <time>2022-02-11T13:18:04Z</time>
      </trkpt>
      <trkpt lat="49.91189" lon="2.35447">
        <ele>60.1</ele>
        <time>2022-02-11T13:18:05Z</time>
      </trkpt>
      <trkpt lat="49.91187" lon="2.35446">
        <ele>60.1</ele>
        <time>2022-02-11T13:18:06Z</time>
      </trkpt>
      <trkpt lat="49.91186" lon="2.35445">
        <ele>60</ele>
        <time>2022-02-11T13:18:07Z</time>
      </trkpt>
      <trkpt lat="49.91185" lon="2.35445">
        <ele>60</ele>
        <time>2022-02-11T13:18:08Z</time>
      </trkpt>
      <trkpt lat="49.91184" lon="2.35444">
        <ele>60</ele>
        <time>2022-02-11T13:18:09Z</time>
      </trkpt>
      <trkpt lat="49.91182" lon="2.35443">
        <ele>59.9</ele>
        <time>2022-02-11T13:18:10Z</time>
      </trkpt>
      <trkpt lat="49.91181" lon="2.35443">
        <ele>59.9</ele>
        <time>2022-02-11T13:18:11Z</time>
      </trkpt>
      <trkpt lat="49.9118" lon="2.35442">
        <ele>59.9</ele>
        <time>2022-02-11T13:18:13Z</time>
      </trkpt>
      <trkpt lat="49.91179" lon="2.35441">
        <ele>59.9</ele>
        <time>2022-02-11T13:18:14Z</time>
      </trkpt>
      <trkpt lat="49.91177" lon="2.3544">
        <ele>59.8</ele>
        <time>2022-02-11T13:18:15Z</time>
      </trkpt>
      <trkpt lat="49.91176" lon="2.3544">
        <ele>59.8</ele>
        <time>2022-02-11T13:18:16Z</time>
      </trkpt>
      <trkpt lat="49.91176" lon="2.35439">
        <ele>59.8</ele>
        <time>2022-02-11T13:18:17Z</time>
      </trkpt>
      <trkpt lat="49.91174" lon="2.35438">
        <ele>59.7</ele>
        <time>2022-02-11T13:18:18Z</time>
      </trkpt>
      <trkpt lat="49.91173" lon="2.35438">
        <ele>59.7</ele>
        <time>2022-02-11T13:18:19Z</time>
      </trkpt>
      <trkpt lat="49.91171" lon="2.35436">
        <ele>59.6</ele>
        <time>2022-02-11T13:18:21Z</time>
      </trkpt>
      <trkpt lat="49.9117" lon="2.35436">
        <ele>59.6</ele>
        <time>2022-02-11T13:18:22Z</time>
      </trkpt>
      <trkpt lat="49.91168" lon="2.35435">
        <ele>59.5</ele>
        <time>2022-02-11T13:18:23Z</time>
      </trkpt>
      <trkpt lat="49.91167" lon="2.35434">
        <ele>59.5</ele>
        <time>2022-02-11T13:18:24Z</time>
      </trkpt>
      <trkpt lat="49.91166" lon="2.35434">
        <ele>59.5</ele>
        <time>2022-02-11T13:18:25Z</time>
      </trkpt>
      <trkpt lat="49.91164" lon="2.35433">
        <ele>59.4</ele>
        <time>2022-02-11T13:18:27Z</time>
      </trkpt>
      <trkpt lat="49.91163" lon="2.35432">
        <ele>59.4</ele>
        <time>2022-02-11T13:18:28Z</time>
      </trkpt>
      <trkpt lat="49.91163" lon="2.35432">
        <ele>59.4</ele>
        <time>2022-02-11T13:18:29Z</time>
      </trkpt>
      <trkpt lat="49.91161" lon="2.35431">
        <ele>59.3</ele>
        <time>2022-02-11T13:18:30Z</time>
      </trkpt>
      <trkpt lat="49.9116" lon="2.35431">
        <ele>59.3</ele>
        <time>2022-02-11T13:18:31Z</time>
      </trkpt>
      <trkpt lat="49.91159" lon="2.35431">
        <ele>59.2</ele>
        <time>2022-02-11T13:18:32Z</time>
      </trkpt>
      <trkpt lat="49.91158" lon="2.35431">
        <ele>59.2</ele>
        <time>2022-02-11T13:18:33Z</time>
      </trkpt>
      <trkpt lat="49.91156" lon="2.35431">
        <ele>59.1</ele>
        <time>2022-02-11T13:18:34Z</time>
      </trkpt>
      <trkpt lat="49.91155" lon="2.35431">
        <ele>59.1</ele>
        <time>2022-02-11T13:18:35Z</time>
      </trkpt>
      <trkpt lat="49.91153" lon="2.3543">
        <ele>59</ele>
        <time>2022-02-11T13:18:36Z</time>
      </trkpt>
      <trkpt lat="49.91153" lon="2.3543">
        <ele>59</ele>
        <time>2022-02-11T13:18:37Z</time>
      </trkpt>
      <trkpt lat="49.91152" lon="2.3543">
        <ele>59</ele>
        <time>2022-02-11T13:18:38Z</time>
      </trkpt>
      <trkpt lat="49.9115" lon="2.3543">
        <ele>58.9</ele>
        <time>2022-02-11T13:18:39Z</time>
      </trkpt>
      <trkpt lat="49.91149" lon="2.35429">
        <ele>58.8</ele>
        <time>2022-02-11T13:18:41Z</time>
      </trkpt>
      <trkpt lat="49.91147" lon="2.35429">
        <ele>58.8</ele>
        <time>2022-02-11T13:18:42Z</time>
      </trkpt>
      <trkpt lat="49.91146" lon="2.35428">
        <ele>58.7</ele>
        <time>2022-02-11T13:18:43Z</time>
      </trkpt>
      <trkpt lat="49.91145" lon="2.35428">
        <ele>58.7</ele>
        <time>2022-02-11T13:18:44Z</time>
      </trkpt>
      <trkpt lat="49.91143" lon="2.35428">
        <ele>58.6</ele>
        <time>2022-02-11T13:18:45Z</time>
      </trkpt>
      <trkpt lat="49.91142" lon="2.35428">
        <ele>58.6</ele>
        <time>2022-02-11T13:18:46Z</time>
      </trkpt>
      <trkpt lat="49.91142" lon="2.35428">
        <ele>58.6</ele>
        <time>2022-02-11T13:18:47Z</time>
      </trkpt>
      <trkpt lat="49.91141" lon="2.35429">
        <ele>58.5</ele>
        <time>2022-02-11T13:18:48Z</time>
      </trkpt>
      <trkpt lat="49.9114" lon="2.35429">
        <ele>58.5</ele>
        <time>2022-02-11T13:18:49Z</time>
      </trkpt>
      <trkpt lat="49.91138" lon="2.3543">
        <ele>58.4</ele>
        <time>2022-02-11T13:18:50Z</time>
      </trkpt>
      <trkpt lat="49.91137" lon="2.3543">
        <ele>58.4</ele>
        <time>2022-02-11T13:18:51Z</time>
      </trkpt>
      <trkpt lat="49.91136" lon="2.35429">
        <ele>58.4</ele>
        <time>2022-02-11T13:18:52Z</time>
      </trkpt>
      <trkpt lat="49.91136" lon="2.3543">
        <ele>58.3</ele>
        <time>2022-02-11T13:18:53Z</time>
      </trkpt>
      <trkpt lat="49.91135" lon="2.35429">
        <ele>58.3</ele>
        <time>2022-02-11T13:18:54Z</time>
      </trkpt>
      <trkpt lat="49.91134" lon="2.35429">
        <ele>58.3</ele>
        <time>2022-02-11T13:18:55Z</time>
      </trkpt>
      <trkpt lat="49.91134" lon="2.35429">
        <ele>58.2</ele>
        <time>2022-02-11T13:18:56Z</time>
      </trkpt>
      <trkpt lat="49.91133" lon="2.35428">
        <ele>58.2</ele>
        <time>2022-02-11T13:18:58Z</time>
      </trkpt>
      <trkpt lat="49.91132" lon="2.35428">
        <ele>58.2</ele>
        <time>2022-02-11T13:18:59Z</time>
      </trkpt>
      <trkpt lat="49.91131" lon="2.35428">
        <ele>58.2</ele>
        <time>2022-02-11T13:19:00Z</time>
      </trkpt>
      <trkpt lat="49.9113" lon="2.35428">
        <ele>58.1</ele>
        <time>2022-02-11T13:19:01Z</time>
      </trkpt>
      <trkpt lat="49.9113" lon="2.35428">
        <ele>58.1</ele>
        <time>2022-02-11T13:19:02Z</time>
      </trkpt>
      <trkpt lat="49.91129" lon="2.35428">
        <ele>58.1</ele>
        <time>2022-02-11T13:19:03Z</time>
      </trkpt>
      <trkpt lat="49.91128" lon="2.35428">
        <ele>58</ele>
        <time>2022-02-11T13:19:05Z</time>
      </trkpt>
      <trkpt lat="49.91128" lon="2.35428">
        <ele>58</ele>
        <time>2022-02-11T13:19:06Z</time>
      </trkpt>
      <trkpt lat="49.91127" lon="2.35428">
        <ele>58</ele>
        <time>2022-02-11T13:19:07Z</time>
      </trkpt>
      <trkpt lat="49.91127" lon="2.35429">
        <ele>58</ele>
        <time>2022-02-11T13:19:08Z</time>
      </trkpt>
      <trkpt lat="49.91126" lon="2.35428">
        <ele>58</ele>
        <time>2022-02-11T13:19:09Z</time>
      </trkpt>
      <trkpt lat="49.91126" lon="2.35428">
        <ele>58</ele>
        <time>2022-02-11T13:19:10Z</time>
      </trkpt>
      <trkpt lat="49.91125" lon="2.35428">
        <ele>57.9</ele>
        <time>2022-02-11T13:19:11Z</time>
      </trkpt>
      <trkpt lat="49.91124" lon="2.35428">
        <ele>57.9</ele>
        <time>2022-02-11T13:19:13Z</time>
      </trkpt>
      <trkpt lat="49.91125" lon="2.35428">
        <ele>57.9</ele>
        <time>2022-02-11T13:19:14Z</time>
      </trkpt>
      <trkpt lat="49.91124" lon="2.35427">
        <ele>57.9</ele>
        <time>2022-02-11T13:19:15Z</time>
      </trkpt>
      <trkpt lat="49.91123" lon="2.35427">
        <ele>57.8</ele>
        <time>2022-02-11T13:19:16Z</time>
      </trkpt>
      <trkpt lat="49.91122" lon="2.35426">
        <ele>57.8</ele>
        <time>2022-02-11T13:19:17Z</time>
      </trkpt>
      <trkpt lat="49.91121" lon="2.35426">
        <ele>57.8</ele>
        <time>2022-02-11T13:19:18Z</time>
      </trkpt>
      <trkpt lat="49.9112" lon="2.35425">
        <ele>57.7</ele>
        <time>2022-02-11T13:19:19Z</time>
      </trkpt>
      <trkpt lat="49.91119" lon="2.35425">
        <ele>57.7</ele>
        <time>2022-02-11T13:19:20Z</time>
      </trkpt>
      <trkpt lat="49.91118" lon="2.35425">
        <ele>57.7</ele>
        <time>2022-02-11T13:19:21Z</time>
      </trkpt>
      <trkpt lat="49.91117" lon="2.35425">
        <ele>57.6</ele>
        <time>2022-02-11T13:19:22Z</time>
      </trkpt>
      <trkpt lat="49.91116" lon="2.35424">
        <ele>57.6</ele>
        <time>2022-02-11T13:19:23Z</time>
      </trkpt>
      <trkpt lat="49.91115" lon="2.35424">
        <ele>57.6</ele>
        <time>2022-02-11T13:19:24Z</time>
      </trkpt>
      <trkpt lat="49.91113" lon="2.35423">
        <ele>57.5</ele>
        <time>2022-02-11T13:19:25Z</time>
      </trkpt>
      <trkpt lat="49.91112" lon="2.35423">
        <ele>57.4</ele>
        <time>2022-02-11T13:19:27Z</time>
      </trkpt>
      <trkpt lat="49.91111" lon="2.35423">
        <ele>57.4</ele>
        <time>2022-02-11T13:19:28Z</time>
      </trkpt>
      <trkpt lat="49.9111" lon="2.35422">
        <ele>57.3</ele>
        <time>2022-02-11T13:19:29Z</time>
      </trkpt>
      <trkpt lat="49.91109" lon="2.35422">
        <ele>57.3</ele>
        <time>2022-02-11T13:19:30Z</time>
      </trkpt>
      <trkpt lat="49.91107" lon="2.35421">
        <ele>57.2</ele>
        <time>2022-02-11T13:19:31Z</time>
      </trkpt>
      <trkpt lat="49.91106" lon="2.35421">
        <ele>57.2</ele>
        <time>2022-02-11T13:19:32Z</time>
      </trkpt>
      <trkpt lat="49.91104" lon="2.35421">
        <ele>57.1</ele>
        <time>2022-02-11T13:19:33Z</time>
      </trkpt>
      <trkpt lat="49.91103" lon="2.35421">
        <ele>57.1</ele>
        <time>2022-02-11T13:19:34Z</time>
      </trkpt>
      <trkpt lat="49.91101" lon="2.3542">
        <ele>57</ele>
        <time>2022-02-11T13:19:35Z</time>
      </trkpt>
      <trkpt lat="49.911" lon="2.3542">
        <ele>56.9</ele>
        <time>2022-02-11T13:19:36Z</time>
      </trkpt>
      <trkpt lat="49.91099" lon="2.3542">
        <ele>56.9</ele>
        <time>2022-02-11T13:19:37Z</time>
      </trkpt>
      <trkpt lat="49.91097" lon="2.3542">
        <ele>56.8</ele>
        <time>2022-02-11T13:19:38Z</time>
      </trkpt>
      <trkpt lat="49.91096" lon="2.3542">
        <ele>56.7</ele>
        <time>2022-02-11T13:19:39Z</time>
      </trkpt>
      <trkpt lat="49.91094" lon="2.3542">
        <ele>56.6</ele>
        <time>2022-02-11T13:19:40Z</time>
      </trkpt>
      <trkpt lat="49.91093" lon="2.3542">
        <ele>56.6</ele>
        <time>2022-02-11T13:19:42Z</time>
      </trkpt>
      <trkpt lat="49.91092" lon="2.3542">
        <ele>56.6</ele>
        <time>2022-02-11T13:19:43Z</time>
      </trkpt>
      <trkpt lat="49.9109" lon="2.3542">
        <ele>56.5</ele>
        <time>2022-02-11T13:19:44Z</time>
      </trkpt>
      <trkpt lat="49.91089" lon="2.3542">
        <ele>56.5</ele>
        <time>2022-02-11T13:19:45Z</time>
      </trkpt>
      <trkpt lat="49.91088" lon="2.35419">
        <ele>56.4</ele>
        <time>2022-02-11T13:19:46Z</time>
      </trkpt>
      <trkpt lat="49.91085" lon="2.35419">
        <ele>56.3</ele>
        <time>2022-02-11T13:19:47Z</time>
      </trkpt>
      <trkpt lat="49.91084" lon="2.35418">
        <ele>56.3</ele>
        <time>2022-02-11T13:19:48Z</time>
      </trkpt>
      <trkpt lat="49.91081" lon="2.35418">
        <ele>56.2</ele>
        <time>2022-02-11T13:19:50Z</time>
      </trkpt>
      <trkpt lat="49.9108" lon="2.35417">
        <ele>56.1</ele>
        <time>2022-02-11T13:19:51Z</time>
      </trkpt>
      <trkpt lat="49.91077" lon="2.35417">
        <ele>56</ele>
        <time>2022-02-11T13:19:52Z</time>
      </trkpt>
      <trkpt lat="49.91076" lon="2.35417">
        <ele>56</ele>
        <time>2022-02-11T13:19:53Z</time>
      </trkpt>
      <trkpt lat="49.91073" lon="2.35416">
        <ele>55.9</ele>
        <time>2022-02-11T13:19:54Z</time>
      </trkpt>
      <trkpt lat="49.91072" lon="2.35416">
        <ele>55.9</ele>
        <time>2022-02-11T13:19:55Z</time>
      </trkpt>
      <trkpt lat="49.9107" lon="2.35415">
        <ele>55.9</ele>
        <time>2022-02-11T13:19:57Z</time>
      </trkpt>
      <trkpt lat="49.91068" lon="2.35415">
        <ele>55.8</ele>
        <time>2022-02-11T13:19:58Z</time>
      </trkpt>
      <trkpt lat="49.91067" lon="2.35415">
        <ele>55.8</ele>
        <time>2022-02-11T13:19:59Z</time>
      </trkpt>
      <trkpt lat="49.91065" lon="2.35414">
        <ele>55.7</ele>
        <time>2022-02-11T13:20:00Z</time>
      </trkpt>
      <trkpt lat="49.91063" lon="2.35413">
        <ele>55.7</ele>
        <time>2022-02-11T13:20:01Z</time>
      </trkpt>
      <trkpt lat="49.91062" lon="2.35413">
        <ele>55.6</ele>
        <time>2022-02-11T13:20:03Z</time>
      </trkpt>
      <trkpt lat="49.9106" lon="2.35412">
        <ele>55.6</ele>
        <time>2022-02-11T13:20:04Z</time>
      </trkpt>
      <trkpt lat="49.91059" lon="2.35412">
        <ele>55.5</ele>
        <time>2022-02-11T13:20:05Z</time>
      </trkpt>
      <trkpt lat="49.91058" lon="2.35412">
        <ele>55.5</ele>
        <time>2022-02-11T13:20:06Z</time>
      </trkpt>
      <trkpt lat="49.91057" lon="2.35412">
        <ele>55.5</ele>
        <time>2022-02-11T13:20:07Z</time>
      </trkpt>
      <trkpt lat="49.91055" lon="2.35411">
        <ele>55.4</ele>
        <time>2022-02-11T13:20:08Z</time>
      </trkpt>
      <trkpt lat="49.91054" lon="2.35411">
        <ele>55.4</ele>
        <time>2022-02-11T13:20:09Z</time>
      </trkpt>
      <trkpt lat="49.91053" lon="2.35411">
        <ele>55.4</ele>
        <time>2022-02-11T13:20:10Z</time>
      </trkpt>
      <trkpt lat="49.91052" lon="2.35411">
        <ele>55.3</ele>
        <time>2022-02-11T13:20:11Z</time>
      </trkpt>
      <trkpt lat="49.91051" lon="2.35412">
        <ele>55.3</ele>
        <time>2022-02-11T13:20:12Z</time>
      </trkpt>
      <trkpt lat="49.91049" lon="2.35412">
        <ele>55.2</ele>
        <time>2022-02-11T13:20:13Z</time>
      </trkpt>
      <trkpt lat="49.91047" lon="2.35413">
        <ele>55.2</ele>
        <time>2022-02-11T13:20:14Z</time>
      </trkpt>
      <trkpt lat="49.91046" lon="2.35413">
        <ele>55.2</ele>
        <time>2022-02-11T13:20:15Z</time>
      </trkpt>
      <trkpt lat="49.91046" lon="2.35413">
        <ele>55.1</ele>
        <time>2022-02-11T13:20:16Z</time>
      </trkpt>
      <trkpt lat="49.91044" lon="2.35414">
        <ele>55.1</ele>
        <time>2022-02-11T13:20:17Z</time>
      </trkpt>
      <trkpt lat="49.91043" lon="2.35414">
        <ele>55.1</ele>
        <time>2022-02-11T13:20:18Z</time>
      </trkpt>
      <trkpt lat="49.91041" lon="2.35414">
        <ele>55.1</ele>
        <time>2022-02-11T13:20:20Z</time>
      </trkpt>
      <trkpt lat="49.9104" lon="2.35413">
        <ele>55.1</ele>
        <time>2022-02-11T13:20:21Z</time>
      </trkpt>
      <trkpt lat="49.91038" lon="2.35413">
        <ele>55</ele>
        <time>2022-02-11T13:20:22Z</time>
      </trkpt>
      <trkpt lat="49.91037" lon="2.35413">
        <ele>55</ele>
        <time>2022-02-11T13:20:23Z</time>
      </trkpt>
      <trkpt lat="49.91036" lon="2.35413">
        <ele>55</ele>
        <time>2022-02-11T13:20:24Z</time>
      </trkpt>
      <trkpt lat="49.91034" lon="2.35413">
        <ele>55</ele>
        <time>2022-02-11T13:20:25Z</time>
      </trkpt>
      <trkpt lat="49.91032" lon="2.35413">
        <ele>55</ele>
        <time>2022-02-11T13:20:27Z</time>
      </trkpt>
      <trkpt lat="49.91031" lon="2.35413">
        <ele>54.9</ele>
        <time>2022-02-11T13:20:28Z</time>
      </trkpt>
      <trkpt lat="49.91029" lon="2.35414">
        <ele>54.9</ele>
        <time>2022-02-11T13:20:29Z</time>
      </trkpt>
      <trkpt lat="49.91027" lon="2.35414">
        <ele>54.9</ele>
        <time>2022-02-11T13:20:30Z</time>
      </trkpt>
      <trkpt lat="49.91026" lon="2.35414">
        <ele>54.9</ele>
        <time>2022-02-11T13:20:31Z</time>
      </trkpt>
      <trkpt lat="49.91025" lon="2.35415">
        <ele>54.9</ele>
        <time>2022-02-11T13:20:32Z</time>
      </trkpt>
      <trkpt lat="49.91023" lon="2.35415">
        <ele>54.8</ele>
        <time>2022-02-11T13:20:33Z</time>
      </trkpt>
      <trkpt lat="49.91022" lon="2.35415">
        <ele>54.8</ele>
        <time>2022-02-11T13:20:34Z</time>
      </trkpt>
      <trkpt lat="49.91021" lon="2.35415">
        <ele>54.8</ele>
        <time>2022-02-11T13:20:35Z</time>
      </trkpt>
      <trkpt lat="49.9102" lon="2.35416">
        <ele>54.7</ele>
        <time>2022-02-11T13:20:36Z</time>
      </trkpt>
      <trkpt lat="49.91018" lon="2.35416">
        <ele>54.7</ele>
        <time>2022-02-11T13:20:37Z</time>
      </trkpt>
      <trkpt lat="49.91017" lon="2.35416">
        <ele>54.7</ele>
        <time>2022-02-11T13:20:38Z</time>
      </trkpt>
      <trkpt lat="49.91016" lon="2.35416">
        <ele>54.7</ele>
        <time>2022-02-11T13:20:39Z</time>
      </trkpt>
      <trkpt lat="49.91015" lon="2.35417">
        <ele>54.6</ele>
        <time>2022-02-11T13:20:40Z</time>
      </trkpt>
      <trkpt lat="49.91014" lon="2.35417">
        <ele>54.6</ele>
        <time>2022-02-11T13:20:41Z</time>
      </trkpt>
      <trkpt lat="49.91013" lon="2.35417">
        <ele>54.6</ele>
        <time>2022-02-11T13:20:42Z</time>
      </trkpt>
      <trkpt lat="49.91011" lon="2.35417">
        <ele>54.5</ele>
        <time>2022-02-11T13:20:43Z</time>
      </trkpt>
      <trkpt lat="49.9101" lon="2.35418">
        <ele>54.5</ele>
        <time>2022-02-11T13:20:44Z</time>
      </trkpt>
      <trkpt lat="49.9101" lon="2.35418">
        <ele>54.4</ele>
        <time>2022-02-11T13:20:45Z</time>
      </trkpt>
      <trkpt lat="49.91008" lon="2.35418">
        <ele>54.4</ele>
        <time>2022-02-11T13:20:47Z</time>
      </trkpt>
      <trkpt lat="49.91007" lon="2.35419">
        <ele>54.4</ele>
        <time>2022-02-11T13:20:48Z</time>
      </trkpt>
      <trkpt lat="49.91006" lon="2.35419">
        <ele>54.3</ele>
        <time>2022-02-11T13:20:49Z</time>
      </trkpt>
      <trkpt lat="49.91005" lon="2.35419">
        <ele>54.3</ele>
        <time>2022-02-11T13:20:50Z</time>
      </trkpt>
      <trkpt lat="49.91004" lon="2.35419">
        <ele>54.2</ele>
        <time>2022-02-11T13:20:51Z</time>
      </trkpt>
      <trkpt lat="49.91003" lon="2.35419">
        <ele>54.2</ele>
        <time>2022-02-11T13:20:52Z</time>
      </trkpt>
      <trkpt lat="49.91001" lon="2.35419">
        <ele>54.1</ele>
        <time>2022-02-11T13:20:53Z</time>
      </trkpt>
      <trkpt lat="49.90999" lon="2.35419">
        <ele>54.1</ele>
        <time>2022-02-11T13:20:54Z</time>
      </trkpt>
      <trkpt lat="49.90998" lon="2.35418">
        <ele>54</ele>
        <time>2022-02-11T13:20:55Z</time>
      </trkpt>
      <trkpt lat="49.90997" lon="2.35418">
        <ele>54</ele>
        <time>2022-02-11T13:20:56Z</time>
      </trkpt>
      <trkpt lat="49.90996" lon="2.35418">
        <ele>53.9</ele>
        <time>2022-02-11T13:20:57Z</time>
      </trkpt>
      <trkpt lat="49.90995" lon="2.35418">
        <ele>53.9</ele>
        <time>2022-02-11T13:20:58Z</time>
      </trkpt>
      <trkpt lat="49.90994" lon="2.35419">
        <ele>53.9</ele>
        <time>2022-02-11T13:20:59Z</time>
      </trkpt>
      <trkpt lat="49.90992" lon="2.35419">
        <ele>53.8</ele>
        <time>2022-02-11T13:21:00Z</time>
      </trkpt>
      <trkpt lat="49.90991" lon="2.35419">
        <ele>53.8</ele>
        <time>2022-02-11T13:21:02Z</time>
      </trkpt>
      <trkpt lat="49.9099" lon="2.3542">
        <ele>53.7</ele>
        <time>2022-02-11T13:21:03Z</time>
      </trkpt>
      <trkpt lat="49.90989" lon="2.3542">
        <ele>53.7</ele>
        <time>2022-02-11T13:21:04Z</time>
      </trkpt>
      <trkpt lat="49.90987" lon="2.3542">
        <ele>53.7</ele>
        <time>2022-02-11T13:21:05Z</time>
      </trkpt>
      <trkpt lat="49.90987" lon="2.3542">
        <ele>53.6</ele>
        <time>2022-02-11T13:21:06Z</time>
      </trkpt>
      <trkpt lat="49.90985" lon="2.3542">
        <ele>53.6</ele>
        <time>2022-02-11T13:21:07Z</time>
      </trkpt>
      <trkpt lat="49.90984" lon="2.3542">
        <ele>53.6</ele>
        <time>2022-02-11T13:21:08Z</time>
      </trkpt>
      <trkpt lat="49.90982" lon="2.3542">
        <ele>53.5</ele>
        <time>2022-02-11T13:21:10Z</time>
      </trkpt>
      <trkpt lat="49.90981" lon="2.35421">
        <ele>53.5</ele>
        <time>2022-02-11T13:21:11Z</time>
      </trkpt>
      <trkpt lat="49.90979" lon="2.35421">
        <ele>53.4</ele>
        <time>2022-02-11T13:21:12Z</time>
      </trkpt>
      <trkpt lat="49.90979" lon="2.35421">
        <ele>53.4</ele>
        <time>2022-02-11T13:21:13Z</time>
      </trkpt>
      <trkpt lat="49.90978" lon="2.35421">
        <ele>53.4</ele>
        <time>2022-02-11T13:21:14Z</time>
      </trkpt>
      <trkpt lat="49.90977" lon="2.35421">
        <ele>53.4</ele>
        <time>2022-02-11T13:21:15Z</time>
      </trkpt>
      <trkpt lat="49.90976" lon="2.35422">
        <ele>53.3</ele>
        <time>2022-02-11T13:21:17Z</time>
      </trkpt>
      <trkpt lat="49.90975" lon="2.35422">
        <ele>53.3</ele>
        <time>2022-02-11T13:21:18Z</time>
      </trkpt>
      <trkpt lat="49.90974" lon="2.35422">
        <ele>53.3</ele>
        <time>2022-02-11T13:21:19Z</time>
      </trkpt>
      <trkpt lat="49.90972" lon="2.35422">
        <ele>53.2</ele>
        <time>2022-02-11T13:21:20Z</time>
      </trkpt>
      <trkpt lat="49.90971" lon="2.35422">
        <ele>53.2</ele>
        <time>2022-02-11T13:21:21Z</time>
      </trkpt>
      <trkpt lat="49.90971" lon="2.35421">
        <ele>53.2</ele>
        <time>2022-02-11T13:21:22Z</time>
      </trkpt>
      <trkpt lat="49.90968" lon="2.35421">
        <ele>53.1</ele>
        <time>2022-02-11T13:21:23Z</time>
      </trkpt>
      <trkpt lat="49.90967" lon="2.35421">
        <ele>53.1</ele>
        <time>2022-02-11T13:21:24Z</time>
      </trkpt>
      <trkpt lat="49.90966" lon="2.35421">
        <ele>53.1</ele>
        <time>2022-02-11T13:21:25Z</time>
      </trkpt>
      <trkpt lat="49.90965" lon="2.35421">
        <ele>53.1</ele>
        <time>2022-02-11T13:21:26Z</time>
      </trkpt>
      <trkpt lat="49.90964" lon="2.35421">
        <ele>53.1</ele>
        <time>2022-02-11T13:21:27Z</time>
      </trkpt>
      <trkpt lat="49.90963" lon="2.35421">
        <ele>53</ele>
        <time>2022-02-11T13:21:28Z</time>
      </trkpt>
      <trkpt lat="49.90962" lon="2.35421">
        <ele>53</ele>
        <time>2022-02-11T13:21:29Z</time>
      </trkpt>
      <trkpt lat="49.9096" lon="2.35421">
        <ele>53</ele>
        <time>2022-02-11T13:21:30Z</time>
      </trkpt>
      <trkpt lat="49.90959" lon="2.35421">
        <ele>52.9</ele>
        <time>2022-02-11T13:21:32Z</time>
      </trkpt>
      <trkpt lat="49.90958" lon="2.35421">
        <ele>52.9</ele>
        <time>2022-02-11T13:21:33Z</time>
      </trkpt>
      <trkpt lat="49.90957" lon="2.35421">
        <ele>52.9</ele>
        <time>2022-02-11T13:21:34Z</time>
      </trkpt>
      <trkpt lat="49.90956" lon="2.35421">
        <ele>52.8</ele>
        <time>2022-02-11T13:21:35Z</time>
      </trkpt>
      <trkpt lat="49.90954" lon="2.35421">
        <ele>52.8</ele>
        <time>2022-02-11T13:21:36Z</time>
      </trkpt>
      <trkpt lat="49.90953" lon="2.35421">
        <ele>52.7</ele>
        <time>2022-02-11T13:21:37Z</time>
      </trkpt>
      <trkpt lat="49.90952" lon="2.35421">
        <ele>52.7</ele>
        <time>2022-02-11T13:21:38Z</time>
      </trkpt>
      <trkpt lat="49.9095" lon="2.35421">
        <ele>52.7</ele>
        <time>2022-02-11T13:21:39Z</time>
      </trkpt>
      <trkpt lat="49.90949" lon="2.3542">
        <ele>52.6</ele>
        <time>2022-02-11T13:21:40Z</time>
      </trkpt>
      <trkpt lat="49.90948" lon="2.3542">
        <ele>52.6</ele>
        <time>2022-02-11T13:21:41Z</time>
      </trkpt>
      <trkpt lat="49.90946" lon="2.3542">
        <ele>52.6</ele>
        <time>2022-02-11T13:21:42Z</time>
      </trkpt>
      <trkpt lat="49.90945" lon="2.3542">
        <ele>52.6</ele>
        <time>2022-02-11T13:21:43Z</time>
      </trkpt>
      <trkpt lat="49.90944" lon="2.3542">
        <ele>52.5</ele>
        <time>2022-02-11T13:21:44Z</time>
      </trkpt>
      <trkpt lat="49.90943" lon="2.3542">
        <ele>52.5</ele>
        <time>2022-02-11T13:21:45Z</time>
      </trkpt>
      <trkpt lat="49.90942" lon="2.3542">
        <ele>52.5</ele>
        <time>2022-02-11T13:21:46Z</time>
      </trkpt>
      <trkpt lat="49.9094" lon="2.35419">
        <ele>52.5</ele>
        <time>2022-02-11T13:21:48Z</time>
      </trkpt>
      <trkpt lat="49.90939" lon="2.35419">
        <ele>52.4</ele>
        <time>2022-02-11T13:21:49Z</time>
      </trkpt>
      <trkpt lat="49.90937" lon="2.35419">
        <ele>52.4</ele>
        <time>2022-02-11T13:21:50Z</time>
      </trkpt>
      <trkpt lat="49.90935" lon="2.35418">
        <ele>52.4</ele>
        <time>2022-02-11T13:21:51Z</time>
      </trkpt>
      <trkpt lat="49.90934" lon="2.35418">
        <ele>52.4</ele>
        <time>2022-02-11T13:21:52Z</time>
      </trkpt>
      <trkpt lat="49.90934" lon="2.35418">
        <ele>52.4</ele>
        <time>2022-02-11T13:21:53Z</time>
      </trkpt>
      <trkpt lat="49.90932" lon="2.35418">
        <ele>52.3</ele>
        <time>2022-02-11T13:21:54Z</time>
      </trkpt>
      <trkpt lat="49.90931" lon="2.35417">
        <ele>52.3</ele>
        <time>2022-02-11T13:21:55Z</time>
      </trkpt>
      <trkpt lat="49.9093" lon="2.35417">
        <ele>52.3</ele>
        <time>2022-02-11T13:21:56Z</time>
      </trkpt>
      <trkpt lat="49.90929" lon="2.35416">
        <ele>52.3</ele>
        <time>2022-02-11T13:21:57Z</time>
      </trkpt>
      <trkpt lat="49.90928" lon="2.35416">
        <ele>52.2</ele>
        <time>2022-02-11T13:21:59Z</time>
      </trkpt>
      <trkpt lat="49.90927" lon="2.35415">
        <ele>52.2</ele>
        <time>2022-02-11T13:22:00Z</time>
      </trkpt>
      <trkpt lat="49.90926" lon="2.35415">
        <ele>52.2</ele>
        <time>2022-02-11T13:22:01Z</time>
      </trkpt>
      <trkpt lat="49.90925" lon="2.35414">
        <ele>52.1</ele>
        <time>2022-02-11T13:22:02Z</time>
      </trkpt>
      <trkpt lat="49.90924" lon="2.35414">
        <ele>52.1</ele>
        <time>2022-02-11T13:22:03Z</time>
      </trkpt>
      <trkpt lat="49.90922" lon="2.35413">
        <ele>52</ele>
        <time>2022-02-11T13:22:04Z</time>
      </trkpt>
      <trkpt lat="49.90921" lon="2.35412">
        <ele>52</ele>
        <time>2022-02-11T13:22:05Z</time>
      </trkpt>
      <trkpt lat="49.90919" lon="2.35412">
        <ele>51.9</ele>
        <time>2022-02-11T13:22:06Z</time>
      </trkpt>
      <trkpt lat="49.90918" lon="2.35411">
        <ele>51.9</ele>
        <time>2022-02-11T13:22:07Z</time>
      </trkpt>
      <trkpt lat="49.90918" lon="2.35411">
        <ele>51.8</ele>
        <time>2022-02-11T13:22:08Z</time>
      </trkpt>
      <trkpt lat="49.90916" lon="2.35411">
        <ele>51.8</ele>
        <time>2022-02-11T13:22:09Z</time>
      </trkpt>
      <trkpt lat="49.90915" lon="2.3541">
        <ele>51.7</ele>
        <time>2022-02-11T13:22:11Z</time>
      </trkpt>
      <trkpt lat="49.90914" lon="2.35411">
        <ele>51.7</ele>
        <time>2022-02-11T13:22:12Z</time>
      </trkpt>
      <trkpt lat="49.90913" lon="2.3541">
        <ele>51.7</ele>
        <time>2022-02-11T13:22:13Z</time>
      </trkpt>
      <trkpt lat="49.90912" lon="2.3541">
        <ele>51.7</ele>
        <time>2022-02-11T13:22:14Z</time>
      </trkpt>
      <trkpt lat="49.90909" lon="2.35409">
        <ele>51.6</ele>
        <time>2022-02-11T13:22:15Z</time>
      </trkpt>
      <trkpt lat="49.90908" lon="2.35409">
        <ele>51.5</ele>
        <time>2022-02-11T13:22:17Z</time>
      </trkpt>
      <trkpt lat="49.90907" lon="2.35408">
        <ele>51.5</ele>
        <time>2022-02-11T13:22:18Z</time>
      </trkpt>
      <trkpt lat="49.90906" lon="2.35408">
        <ele>51.4</ele>
        <time>2022-02-11T13:22:19Z</time>
      </trkpt>
      <trkpt lat="49.90905" lon="2.35407">
        <ele>51.4</ele>
        <time>2022-02-11T13:22:20Z</time>
      </trkpt>
      <trkpt lat="49.90903" lon="2.35406">
        <ele>51.3</ele>
        <time>2022-02-11T13:22:21Z</time>
      </trkpt>
      <trkpt lat="49.90902" lon="2.35405">
        <ele>51.3</ele>
        <time>2022-02-11T13:22:23Z</time>
      </trkpt>
      <trkpt lat="49.90901" lon="2.35405">
        <ele>51.3</ele>
        <time>2022-02-11T13:22:24Z</time>
      </trkpt>
      <trkpt lat="49.909" lon="2.35404">
        <ele>51.2</ele>
        <time>2022-02-11T13:22:25Z</time>
      </trkpt>
      <trkpt lat="49.90899" lon="2.35403">
        <ele>51.2</ele>
        <time>2022-02-11T13:22:26Z</time>
      </trkpt>
      <trkpt lat="49.90897" lon="2.35402">
        <ele>51.1</ele>
        <time>2022-02-11T13:22:27Z</time>
      </trkpt>
      <trkpt lat="49.90896" lon="2.35402">
        <ele>51.1</ele>
        <time>2022-02-11T13:22:28Z</time>
      </trkpt>
      <trkpt lat="49.90895" lon="2.35401">
        <ele>51.1</ele>
        <time>2022-02-11T13:22:29Z</time>
      </trkpt>
      <trkpt lat="49.90894" lon="2.35401">
        <ele>51</ele>
        <time>2022-02-11T13:22:31Z</time>
      </trkpt>
      <trkpt lat="49.90893" lon="2.354">
        <ele>51</ele>
        <time>2022-02-11T13:22:32Z</time>
      </trkpt>
      <trkpt lat="49.90892" lon="2.354">
        <ele>51</ele>
        <time>2022-02-11T13:22:33Z</time>
      </trkpt>
      <trkpt lat="49.90891" lon="2.35399">
        <ele>51</ele>
        <time>2022-02-11T13:22:34Z</time>
      </trkpt>
      <trkpt lat="49.90889" lon="2.35399">
        <ele>50.9</ele>
        <time>2022-02-11T13:22:35Z</time>
      </trkpt>
      <trkpt lat="49.90888" lon="2.35399">
        <ele>50.9</ele>
        <time>2022-02-11T13:22:36Z</time>
      </trkpt>
      <trkpt lat="49.90887" lon="2.35399">
        <ele>50.9</ele>
        <time>2022-02-11T13:22:37Z</time>
      </trkpt>
      <trkpt lat="49.90885" lon="2.35399">
        <ele>50.9</ele>
        <time>2022-02-11T13:22:39Z</time>
      </trkpt>
      <trkpt lat="49.90884" lon="2.35399">
        <ele>50.8</ele>
        <time>2022-02-11T13:22:40Z</time>
      </trkpt>
      <trkpt lat="49.90882" lon="2.35399">
        <ele>50.8</ele>
        <time>2022-02-11T13:22:41Z</time>
      </trkpt>
      <trkpt lat="49.90881" lon="2.35399">
        <ele>50.8</ele>
        <time>2022-02-11T13:22:42Z</time>
      </trkpt>
      <trkpt lat="49.9088" lon="2.35399">
        <ele>50.8</ele>
        <time>2022-02-11T13:22:43Z</time>
      </trkpt>
      <trkpt lat="49.90879" lon="2.35399">
        <ele>50.8</ele>
        <time>2022-02-11T13:22:44Z</time>
      </trkpt>
      <trkpt lat="49.90878" lon="2.35399">
        <ele>50.7</ele>
        <time>2022-02-11T13:22:45Z</time>
      </trkpt>
      <trkpt lat="49.90877" lon="2.35399">
        <ele>50.7</ele>
        <time>2022-02-11T13:22:46Z</time>
      </trkpt>
      <trkpt lat="49.90876" lon="2.35399">
        <ele>50.7</ele>
        <time>2022-02-11T13:22:47Z</time>
      </trkpt>
      <trkpt lat="49.90874" lon="2.354">
        <ele>50.7</ele>
        <time>2022-02-11T13:22:48Z</time>
      </trkpt>
      <trkpt lat="49.90872" lon="2.354">
        <ele>50.7</ele>
        <time>2022-02-11T13:22:50Z</time>
      </trkpt>
      <trkpt lat="49.9087" lon="2.354">
        <ele>50.6</ele>
        <time>2022-02-11T13:22:52Z</time>
      </trkpt>
      <trkpt lat="49.90869" lon="2.354">
        <ele>50.6</ele>
        <time>2022-02-11T13:22:53Z</time>
      </trkpt>
      <trkpt lat="49.90868" lon="2.354">
        <ele>50.6</ele>
        <time>2022-02-11T13:22:54Z</time>
      </trkpt>
      <trkpt lat="49.90867" lon="2.354">
        <ele>50.6</ele>
        <time>2022-02-11T13:22:55Z</time>
      </trkpt>
      <trkpt lat="49.90866" lon="2.354">
        <ele>50.6</ele>
        <time>2022-02-11T13:22:57Z</time>
      </trkpt>
      <trkpt lat="49.90865" lon="2.354">
        <ele>50.6</ele>
        <time>2022-02-11T13:22:58Z</time>
      </trkpt>
      <trkpt lat="49.90864" lon="2.354">
        <ele>50.5</ele>
        <time>2022-02-11T13:22:59Z</time>
      </trkpt>
      <trkpt lat="49.90863" lon="2.35399">
        <ele>50.5</ele>
        <time>2022-02-11T13:23:00Z</time>
      </trkpt>
      <trkpt lat="49.90862" lon="2.35399">
        <ele>50.5</ele>
        <time>2022-02-11T13:23:01Z</time>
      </trkpt>
      <trkpt lat="49.90861" lon="2.35399">
        <ele>50.5</ele>
        <time>2022-02-11T13:23:02Z</time>
      </trkpt>
      <trkpt lat="49.90861" lon="2.35399">
        <ele>50.5</ele>
        <time>2022-02-11T13:23:03Z</time>
      </trkpt>
      <trkpt lat="49.9086" lon="2.35399">
        <ele>50.5</ele>
        <time>2022-02-11T13:23:05Z</time>
      </trkpt>
      <trkpt lat="49.9086" lon="2.35399">
        <ele>50.5</ele>
        <time>2022-02-11T13:23:06Z</time>
      </trkpt>
      <trkpt lat="49.9086" lon="2.35399">
        <ele>50.5</ele>
        <time>2022-02-11T13:23:07Z</time>
      </trkpt>
      <trkpt lat="49.90859" lon="2.35399">
        <ele>50.5</ele>
        <time>2022-02-11T13:23:09Z</time>
      </trkpt>
      <trkpt lat="49.90859" lon="2.35399">
        <ele>50.5</ele>
        <time>2022-02-11T13:23:10Z</time>
      </trkpt>
      <trkpt lat="49.90858" lon="2.35398">
        <ele>50.5</ele>
        <time>2022-02-11T13:23:11Z</time>
      </trkpt>
      <trkpt lat="49.90858" lon="2.35398">
        <ele>50.4</ele>
        <time>2022-02-11T13:23:12Z</time>
      </trkpt>
      <trkpt lat="49.90857" lon="2.35398">
        <ele>50.4</ele>
        <time>2022-02-11T13:23:14Z</time>
      </trkpt>
      <trkpt lat="49.90857" lon="2.35398">
        <ele>50.4</ele>
        <time>2022-02-11T13:23:15Z</time>
      </trkpt>
      <trkpt lat="49.90856" lon="2.35398">
        <ele>50.4</ele>
        <time>2022-02-11T13:23:16Z</time>
      </trkpt>
      <trkpt lat="49.90855" lon="2.35398">
        <ele>50.4</ele>
        <time>2022-02-11T13:23:17Z</time>
      </trkpt>
      <trkpt lat="49.90854" lon="2.35398">
        <ele>50.4</ele>
        <time>2022-02-11T13:23:18Z</time>
      </trkpt>
      <trkpt lat="49.90854" lon="2.35398">
        <ele>50.4</ele>
        <time>2022-02-11T13:23:19Z</time>
      </trkpt>
      <trkpt lat="49.90853" lon="2.35398">
        <ele>50.4</ele>
        <time>2022-02-11T13:23:20Z</time>
      </trkpt>
      <trkpt lat="49.90852" lon="2.35398">
        <ele>50.4</ele>
        <time>2022-02-11T13:23:21Z</time>
      </trkpt>
      <trkpt lat="49.90851" lon="2.35398">
        <ele>50.4</ele>
        <time>2022-02-11T13:23:22Z</time>
      </trkpt>
      <trkpt lat="49.9085" lon="2.35398">
        <ele>50.4</ele>
        <time>2022-02-11T13:23:24Z</time>
      </trkpt>
      <trkpt lat="49.90849" lon="2.35397">
        <ele>50.4</ele>
        <time>2022-02-11T13:23:25Z</time>
      </trkpt>
      <trkpt lat="49.90849" lon="2.35397">
        <ele>50.5</ele>
        <time>2022-02-11T13:23:26Z</time>
      </trkpt>
      <trkpt lat="49.90848" lon="2.35397">
        <ele>50.5</ele>
        <time>2022-02-11T13:23:27Z</time>
      </trkpt>
      <trkpt lat="49.90847" lon="2.35397">
        <ele>50.5</ele>
        <time>2022-02-11T13:23:29Z</time>
      </trkpt>
      <trkpt lat="49.90846" lon="2.35397">
        <ele>50.5</ele>
        <time>2022-02-11T13:23:30Z</time>
      </trkpt>
      <trkpt lat="49.90845" lon="2.35397">
        <ele>50.5</ele>
        <time>2022-02-11T13:23:31Z</time>
      </trkpt>
      <trkpt lat="49.90845" lon="2.35397">
        <ele>50.5</ele>
        <time>2022-02-11T13:23:32Z</time>
      </trkpt>
      <trkpt lat="49.90844" lon="2.35398">
        <ele>50.5</ele>
        <time>2022-02-11T13:23:34Z</time>
      </trkpt>
      <trkpt lat="49.90844" lon="2.35399">
        <ele>50.5</ele>
        <time>2022-02-11T13:23:35Z</time>
      </trkpt>
      <trkpt lat="49.90843" lon="2.35399">
        <ele>50.5</ele>
        <time>2022-02-11T13:23:36Z</time>
      </trkpt>
      <trkpt lat="49.90842" lon="2.35399">
        <ele>50.5</ele>
        <time>2022-02-11T13:23:37Z</time>
      </trkpt>
      <trkpt lat="49.90841" lon="2.35399">
        <ele>50.5</ele>
        <time>2022-02-11T13:23:38Z</time>
      </trkpt>
      <trkpt lat="49.9084" lon="2.35398">
        <ele>50.5</ele>
        <time>2022-02-11T13:23:39Z</time>
      </trkpt>
      <trkpt lat="49.90839" lon="2.35398">
        <ele>50.5</ele>
        <time>2022-02-11T13:23:41Z</time>
      </trkpt>
      <trkpt lat="49.90838" lon="2.35397">
        <ele>50.5</ele>
        <time>2022-02-11T13:23:42Z</time>
      </trkpt>
      <trkpt lat="49.90837" lon="2.35397">
        <ele>50.5</ele>
        <time>2022-02-11T13:23:43Z</time>
      </trkpt>
      <trkpt lat="49.90836" lon="2.35396">
        <ele>50.5</ele>
        <time>2022-02-11T13:23:44Z</time>
      </trkpt>
      <trkpt lat="49.90835" lon="2.35396">
        <ele>50.5</ele>
        <time>2022-02-11T13:23:45Z</time>
      </trkpt>
      <trkpt lat="49.90834" lon="2.35396">
        <ele>50.5</ele>
        <time>2022-02-11T13:23:47Z</time>
      </trkpt>
      <trkpt lat="49.90833" lon="2.35396">
        <ele>50.5</ele>
        <time>2022-02-11T13:23:48Z</time>
      </trkpt>
      <trkpt lat="49.90832" lon="2.35396">
        <ele>50.5</ele>
        <time>2022-02-11T13:23:49Z</time>
      </trkpt>
      <trkpt lat="49.90831" lon="2.35396">
        <ele>50.5</ele>
        <time>2022-02-11T13:23:50Z</time>
      </trkpt>
      <trkpt lat="49.9083" lon="2.35396">
        <ele>50.5</ele>
        <time>2022-02-11T13:23:51Z</time>
      </trkpt>
      <trkpt lat="49.90829" lon="2.35396">
        <ele>50.5</ele>
        <time>2022-02-11T13:23:52Z</time>
      </trkpt>
      <trkpt lat="49.90828" lon="2.35395">
        <ele>50.5</ele>
        <time>2022-02-11T13:23:53Z</time>
      </trkpt>
      <trkpt lat="49.90827" lon="2.35395">
        <ele>50.5</ele>
        <time>2022-02-11T13:23:54Z</time>
      </trkpt>
      <trkpt lat="49.90826" lon="2.35395">
        <ele>50.5</ele>
        <time>2022-02-11T13:23:56Z</time>
      </trkpt>
      <trkpt lat="49.90825" lon="2.35395">
        <ele>50.5</ele>
        <time>2022-02-11T13:23:57Z</time>
      </trkpt>
      <trkpt lat="49.90825" lon="2.35395">
        <ele>50.5</ele>
        <time>2022-02-11T13:23:58Z</time>
      </trkpt>
      <trkpt lat="49.90824" lon="2.35395">
        <ele>50.5</ele>
        <time>2022-02-11T13:23:59Z</time>
      </trkpt>
      <trkpt lat="49.90823" lon="2.35395">
        <ele>50.5</ele>
        <time>2022-02-11T13:24:00Z</time>
      </trkpt>
      <trkpt lat="49.90822" lon="2.35395">
        <ele>50.5</ele>
        <time>2022-02-11T13:24:01Z</time>
      </trkpt>
      <trkpt lat="49.90821" lon="2.35395">
        <ele>50.5</ele>
        <time>2022-02-11T13:24:02Z</time>
      </trkpt>
      <trkpt lat="49.9082" lon="2.35394">
        <ele>50.5</ele>
        <time>2022-02-11T13:24:03Z</time>
      </trkpt>
      <trkpt lat="49.90819" lon="2.35394">
        <ele>50.5</ele>
        <time>2022-02-11T13:24:05Z</time>
      </trkpt>
      <trkpt lat="49.90818" lon="2.35393">
        <ele>50.5</ele>
        <time>2022-02-11T13:24:06Z</time>
      </trkpt>
      <trkpt lat="49.90817" lon="2.35393">
        <ele>50.5</ele>
        <time>2022-02-11T13:24:07Z</time>
      </trkpt>
      <trkpt lat="49.90816" lon="2.35394">
        <ele>50.5</ele>
        <time>2022-02-11T13:24:08Z</time>
      </trkpt>
      <trkpt lat="49.90815" lon="2.35394">
        <ele>50.5</ele>
        <time>2022-02-11T13:24:09Z</time>
      </trkpt>
      <trkpt lat="49.90813" lon="2.35395">
        <ele>50.5</ele>
        <time>2022-02-11T13:24:10Z</time>
      </trkpt>
      <trkpt lat="49.90813" lon="2.35395">
        <ele>50.5</ele>
        <time>2022-02-11T13:24:11Z</time>
      </trkpt>
      <trkpt lat="49.90811" lon="2.35395">
        <ele>50.5</ele>
        <time>2022-02-11T13:24:12Z</time>
      </trkpt>
      <trkpt lat="49.9081" lon="2.35394">
        <ele>50.5</ele>
        <time>2022-02-11T13:24:13Z</time>
      </trkpt>
      <trkpt lat="49.90809" lon="2.35394">
        <ele>50.5</ele>
        <time>2022-02-11T13:24:15Z</time>
      </trkpt>
      <trkpt lat="49.90807" lon="2.35392">
        <ele>50.6</ele>
        <time>2022-02-11T13:24:16Z</time>
      </trkpt>
      <trkpt lat="49.90806" lon="2.35392">
        <ele>50.6</ele>
        <time>2022-02-11T13:24:17Z</time>
      </trkpt>
      <trkpt lat="49.90806" lon="2.35391">
        <ele>50.6</ele>
        <time>2022-02-11T13:24:18Z</time>
      </trkpt>
      <trkpt lat="49.90805" lon="2.3539">
        <ele>50.6</ele>
        <time>2022-02-11T13:24:19Z</time>
      </trkpt>
      <trkpt lat="49.90804" lon="2.35389">
        <ele>50.6</ele>
        <time>2022-02-11T13:24:20Z</time>
      </trkpt>
      <trkpt lat="49.90803" lon="2.35388">
        <ele>50.6</ele>
        <time>2022-02-11T13:24:21Z</time>
      </trkpt>
      <trkpt lat="49.90802" lon="2.35387">
        <ele>50.6</ele>
        <time>2022-02-11T13:24:22Z</time>
      </trkpt>
      <trkpt lat="49.90801" lon="2.35387">
        <ele>50.6</ele>
        <time>2022-02-11T13:24:23Z</time>
      </trkpt>
      <trkpt lat="49.908" lon="2.35386">
        <ele>50.6</ele>
        <time>2022-02-11T13:24:25Z</time>
      </trkpt>
      <trkpt lat="49.90798" lon="2.35385">
        <ele>50.6</ele>
        <time>2022-02-11T13:24:26Z</time>
      </trkpt>
      <trkpt lat="49.90797" lon="2.35385">
        <ele>50.6</ele>
        <time>2022-02-11T13:24:27Z</time>
      </trkpt>
      <trkpt lat="49.90796" lon="2.35385">
        <ele>50.7</ele>
        <time>2022-02-11T13:24:28Z</time>
      </trkpt>
      <trkpt lat="49.90795" lon="2.35384">
        <ele>50.7</ele>
        <time>2022-02-11T13:24:29Z</time>
      </trkpt>
      <trkpt lat="49.90794" lon="2.35384">
        <ele>50.7</ele>
        <time>2022-02-11T13:24:30Z</time>
      </trkpt>
      <trkpt lat="49.90793" lon="2.35384">
        <ele>50.7</ele>
        <time>2022-02-11T13:24:31Z</time>
      </trkpt>
      <trkpt lat="49.90791" lon="2.35384">
        <ele>50.7</ele>
        <time>2022-02-11T13:24:32Z</time>
      </trkpt>
      <trkpt lat="49.9079" lon="2.35383">
        <ele>50.7</ele>
        <time>2022-02-11T13:24:33Z</time>
      </trkpt>
      <trkpt lat="49.90789" lon="2.35382">
        <ele>50.7</ele>
        <time>2022-02-11T13:24:35Z</time>
      </trkpt>
      <trkpt lat="49.90788" lon="2.35381">
        <ele>50.7</ele>
        <time>2022-02-11T13:24:36Z</time>
      </trkpt>
      <trkpt lat="49.90787" lon="2.3538">
        <ele>50.7</ele>
        <time>2022-02-11T13:24:37Z</time>
      </trkpt>
      <trkpt lat="49.90787" lon="2.35379">
        <ele>50.8</ele>
        <time>2022-02-11T13:24:38Z</time>
      </trkpt>
      <trkpt lat="49.90785" lon="2.35378">
        <ele>50.8</ele>
        <time>2022-02-11T13:24:39Z</time>
      </trkpt>
      <trkpt lat="49.90784" lon="2.35378">
        <ele>50.8</ele>
        <time>2022-02-11T13:24:40Z</time>
      </trkpt>
      <trkpt lat="49.90783" lon="2.35377">
        <ele>50.8</ele>
        <time>2022-02-11T13:24:41Z</time>
      </trkpt>
      <trkpt lat="49.90781" lon="2.35377">
        <ele>50.8</ele>
        <time>2022-02-11T13:24:42Z</time>
      </trkpt>
      <trkpt lat="49.90779" lon="2.35376">
        <ele>50.9</ele>
        <time>2022-02-11T13:24:43Z</time>
      </trkpt>
      <trkpt lat="49.90778" lon="2.35375">
        <ele>50.9</ele>
        <time>2022-02-11T13:24:45Z</time>
      </trkpt>
      <trkpt lat="49.90777" lon="2.35375">
        <ele>50.9</ele>
        <time>2022-02-11T13:24:46Z</time>
      </trkpt>
      <trkpt lat="49.90776" lon="2.35375">
        <ele>50.9</ele>
        <time>2022-02-11T13:24:47Z</time>
      </trkpt>
      <trkpt lat="49.90775" lon="2.35374">
        <ele>51</ele>
        <time>2022-02-11T13:24:48Z</time>
      </trkpt>
      <trkpt lat="49.90774" lon="2.35374">
        <ele>51</ele>
        <time>2022-02-11T13:24:49Z</time>
      </trkpt>
      <trkpt lat="49.90773" lon="2.35373">
        <ele>51</ele>
        <time>2022-02-11T13:24:50Z</time>
      </trkpt>
      <trkpt lat="49.90772" lon="2.35373">
        <ele>51</ele>
        <time>2022-02-11T13:24:51Z</time>
      </trkpt>
      <trkpt lat="49.90771" lon="2.35373">
        <ele>51.1</ele>
        <time>2022-02-11T13:24:52Z</time>
      </trkpt>
      <trkpt lat="49.90769" lon="2.35373">
        <ele>51.1</ele>
        <time>2022-02-11T13:24:53Z</time>
      </trkpt>
      <trkpt lat="49.90768" lon="2.35372">
        <ele>51.2</ele>
        <time>2022-02-11T13:24:55Z</time>
      </trkpt>
      <trkpt lat="49.90766" lon="2.35372">
        <ele>51.2</ele>
        <time>2022-02-11T13:24:56Z</time>
      </trkpt>
      <trkpt lat="49.90765" lon="2.35372">
        <ele>51.2</ele>
        <time>2022-02-11T13:24:57Z</time>
      </trkpt>
      <trkpt lat="49.90764" lon="2.35371">
        <ele>51.3</ele>
        <time>2022-02-11T13:24:58Z</time>
      </trkpt>
      <trkpt lat="49.90763" lon="2.35371">
        <ele>51.3</ele>
        <time>2022-02-11T13:24:59Z</time>
      </trkpt>
      <trkpt lat="49.90762" lon="2.35371">
        <ele>51.3</ele>
        <time>2022-02-11T13:25:00Z</time>
      </trkpt>
      <trkpt lat="49.90761" lon="2.35371">
        <ele>51.4</ele>
        <time>2022-02-11T13:25:02Z</time>
      </trkpt>
      <trkpt lat="49.90759" lon="2.35371">
        <ele>51.4</ele>
        <time>2022-02-11T13:25:03Z</time>
      </trkpt>
      <trkpt lat="49.90757" lon="2.35371">
        <ele>51.5</ele>
        <time>2022-02-11T13:25:04Z</time>
      </trkpt>
      <trkpt lat="49.90755" lon="2.3537">
        <ele>51.6</ele>
        <time>2022-02-11T13:25:06Z</time>
      </trkpt>
      <trkpt lat="49.90754" lon="2.3537">
        <ele>51.6</ele>
        <time>2022-02-11T13:25:07Z</time>
      </trkpt>
      <trkpt lat="49.90753" lon="2.3537">
        <ele>51.6</ele>
        <time>2022-02-11T13:25:08Z</time>
      </trkpt>
      <trkpt lat="49.90751" lon="2.3537">
        <ele>51.7</ele>
        <time>2022-02-11T13:25:09Z</time>
      </trkpt>
      <trkpt lat="49.9075" lon="2.3537">
        <ele>51.7</ele>
        <time>2022-02-11T13:25:10Z</time>
      </trkpt>
      <trkpt lat="49.90749" lon="2.3537">
        <ele>51.7</ele>
        <time>2022-02-11T13:25:11Z</time>
      </trkpt>
      <trkpt lat="49.90748" lon="2.35369">
        <ele>51.8</ele>
        <time>2022-02-11T13:25:12Z</time>
      </trkpt>
      <trkpt lat="49.90747" lon="2.35369">
        <ele>51.8</ele>
        <time>2022-02-11T13:25:13Z</time>
      </trkpt>
      <trkpt lat="49.90746" lon="2.35368">
        <ele>51.9</ele>
        <time>2022-02-11T13:25:15Z</time>
      </trkpt>
      <trkpt lat="49.90744" lon="2.35367">
        <ele>51.9</ele>
        <time>2022-02-11T13:25:16Z</time>
      </trkpt>
      <trkpt lat="49.90743" lon="2.35367">
        <ele>51.9</ele>
        <time>2022-02-11T13:25:17Z</time>
      </trkpt>
      <trkpt lat="49.90742" lon="2.35367">
        <ele>52</ele>
        <time>2022-02-11T13:25:18Z</time>
      </trkpt>
      <trkpt lat="49.9074" lon="2.35366">
        <ele>52</ele>
        <time>2022-02-11T13:25:19Z</time>
      </trkpt>
      <trkpt lat="49.90739" lon="2.35366">
        <ele>52</ele>
        <time>2022-02-11T13:25:20Z</time>
      </trkpt>
      <trkpt lat="49.90738" lon="2.35366">
        <ele>52.1</ele>
        <time>2022-02-11T13:25:21Z</time>
      </trkpt>
      <trkpt lat="49.90737" lon="2.35366">
        <ele>52.1</ele>
        <time>2022-02-11T13:25:23Z</time>
      </trkpt>
      <trkpt lat="49.90736" lon="2.35366">
        <ele>52.1</ele>
        <time>2022-02-11T13:25:24Z</time>
      </trkpt>
      <trkpt lat="49.90735" lon="2.35365">
        <ele>52.1</ele>
        <time>2022-02-11T13:25:25Z</time>
      </trkpt>
      <trkpt lat="49.90734" lon="2.35365">
        <ele>52.2</ele>
        <time>2022-02-11T13:25:26Z</time>
      </trkpt>
      <trkpt lat="49.90733" lon="2.35365">
        <ele>52.2</ele>
        <time>2022-02-11T13:25:27Z</time>
      </trkpt>
      <trkpt lat="49.90732" lon="2.35365">
        <ele>52.2</ele>
        <time>2022-02-11T13:25:28Z</time>
      </trkpt>
      <trkpt lat="49.90731" lon="2.35365">
        <ele>52.2</ele>
        <time>2022-02-11T13:25:29Z</time>
      </trkpt>
      <trkpt lat="49.9073" lon="2.35364">
        <ele>52.3</ele>
        <time>2022-02-11T13:25:30Z</time>
      </trkpt>
      <trkpt lat="49.90729" lon="2.35365">
        <ele>52.3</ele>
        <time>2022-02-11T13:25:32Z</time>
      </trkpt>
      <trkpt lat="49.90728" lon="2.35365">
        <ele>52.3</ele>
        <time>2022-02-11T13:25:33Z</time>
      </trkpt>
      <trkpt lat="49.90727" lon="2.35365">
        <ele>52.3</ele>
        <time>2022-02-11T13:25:34Z</time>
      </trkpt>
      <trkpt lat="49.90726" lon="2.35365">
        <ele>52.4</ele>
        <time>2022-02-11T13:25:35Z</time>
      </trkpt>
      <trkpt lat="49.90725" lon="2.35365">
        <ele>52.4</ele>
        <time>2022-02-11T13:25:36Z</time>
      </trkpt>
      <trkpt lat="49.90725" lon="2.35365">
        <ele>52.4</ele>
        <time>2022-02-11T13:25:37Z</time>
      </trkpt>
      <trkpt lat="49.90724" lon="2.35365">
        <ele>52.4</ele>
        <time>2022-02-11T13:25:38Z</time>
      </trkpt>
      <trkpt lat="49.90724" lon="2.35365">
        <ele>52.4</ele>
        <time>2022-02-11T13:25:39Z</time>
      </trkpt>
      <trkpt lat="49.90723" lon="2.35365">
        <ele>52.4</ele>
        <time>2022-02-11T13:25:40Z</time>
      </trkpt>
      <trkpt lat="49.90723" lon="2.35363">
        <ele>52.4</ele>
        <time>2022-02-11T13:25:41Z</time>
      </trkpt>
      <trkpt lat="49.90723" lon="2.35362">
        <ele>52.5</ele>
        <time>2022-02-11T13:25:42Z</time>
      </trkpt>
      <trkpt lat="49.90723" lon="2.35361">
        <ele>52.5</ele>
        <time>2022-02-11T13:25:43Z</time>
      </trkpt>
      <trkpt lat="49.90723" lon="2.3536">
        <ele>52.5</ele>
        <time>2022-02-11T13:25:44Z</time>
      </trkpt>
      <trkpt lat="49.90724" lon="2.35359">
        <ele>52.5</ele>
        <time>2022-02-11T13:25:45Z</time>
      </trkpt>
      <trkpt lat="49.90725" lon="2.35359">
        <ele>52.6</ele>
        <time>2022-02-11T13:25:46Z</time>
      </trkpt>
      <trkpt lat="49.90725" lon="2.35358">
        <ele>52.6</ele>
        <time>2022-02-11T13:25:47Z</time>
      </trkpt>
      <trkpt lat="49.90725" lon="2.35358">
        <ele>52.6</ele>
        <time>2022-02-11T13:25:48Z</time>
      </trkpt>
      <trkpt lat="49.90725" lon="2.35358">
        <ele>52.6</ele>
        <time>2022-02-11T13:25:49Z</time>
      </trkpt>
      <trkpt lat="49.90725" lon="2.35358">
        <ele>52.6</ele>
        <time>2022-02-11T13:25:50Z</time>
      </trkpt>
      <trkpt lat="49.90726" lon="2.35358">
        <ele>52.6</ele>
        <time>2022-02-11T13:25:51Z</time>
      </trkpt>
      <trkpt lat="49.90726" lon="2.35358">
        <ele>52.6</ele>
        <time>2022-02-11T13:25:52Z</time>
      </trkpt>
      <trkpt lat="49.90726" lon="2.35358">
        <ele>52.6</ele>
        <time>2022-02-11T13:25:53Z</time>
      </trkpt>
      <trkpt lat="49.90726" lon="2.35358">
        <ele>52.6</ele>
        <time>2022-02-11T13:25:54Z</time>
      </trkpt>
      <trkpt lat="49.90726" lon="2.35358">
        <ele>52.6</ele>
        <time>2022-02-11T13:25:55Z</time>
      </trkpt>
      <trkpt lat="49.90726" lon="2.35358">
        <ele>52.6</ele>
        <time>2022-02-11T13:25:56Z</time>
      </trkpt>
      <trkpt lat="49.90726" lon="2.35358">
        <ele>52.6</ele>
        <time>2022-02-11T13:25:57Z</time>
      </trkpt>
      <trkpt lat="49.90726" lon="2.35358">
        <ele>52.6</ele>
        <time>2022-02-11T13:25:58Z</time>
      </trkpt>
      <trkpt lat="49.90726" lon="2.35359">
        <ele>52.6</ele>
        <time>2022-02-11T13:25:59Z</time>
      </trkpt>
      <trkpt lat="49.90726" lon="2.35359">
        <ele>52.6</ele>
        <time>2022-02-11T13:26:00Z</time>
      </trkpt>
      <trkpt lat="49.90726" lon="2.35359">
        <ele>52.6</ele>
        <time>2022-02-11T13:26:01Z</time>
      </trkpt>
      <trkpt lat="49.90726" lon="2.35359">
        <ele>52.6</ele>
        <time>2022-02-11T13:26:02Z</time>
      </trkpt>
      <trkpt lat="49.90726" lon="2.35359">
        <ele>52.6</ele>
        <time>2022-02-11T13:26:03Z</time>
      </trkpt>
      <trkpt lat="49.90726" lon="2.35359">
        <ele>52.6</ele>
        <time>2022-02-11T13:26:04Z</time>
      </trkpt>
      <trkpt lat="49.90726" lon="2.35359">
        <ele>52.6</ele>
        <time>2022-02-11T13:26:05Z</time>
      </trkpt>
      <trkpt lat="49.90726" lon="2.35359">
        <ele>52.6</ele>
        <time>2022-02-11T13:26:06Z</time>
      </trkpt>
      <trkpt lat="49.90726" lon="2.35359">
        <ele>52.6</ele>
        <time>2022-02-11T13:26:07Z</time>
      </trkpt>
      <trkpt lat="49.90726" lon="2.35359">
        <ele>52.6</ele>
        <time>2022-02-11T13:26:08Z</time>
      </trkpt>
      <trkpt lat="49.90726" lon="2.35359">
        <ele>52.6</ele>
        <time>2022-02-11T13:26:09Z</time>
      </trkpt>
      <trkpt lat="49.90726" lon="2.35359">
        <ele>52.6</ele>
        <time>2022-02-11T13:26:10Z</time>
      </trkpt>
      <trkpt lat="49.90726" lon="2.35359">
        <ele>52.6</ele>
        <time>2022-02-11T13:26:11Z</time>
      </trkpt>
      <trkpt lat="49.90726" lon="2.35359">
        <ele>52.6</ele>
        <time>2022-02-11T13:26:12Z</time>
      </trkpt>
      <trkpt lat="49.90726" lon="2.35359">
        <ele>52.6</ele>
        <time>2022-02-11T13:26:13Z</time>
      </trkpt>
      <trkpt lat="49.90726" lon="2.35359">
        <ele>52.6</ele>
        <time>2022-02-11T13:26:14Z</time>
      </trkpt>
      <trkpt lat="49.90726" lon="2.35359">
        <ele>52.6</ele>
        <time>2022-02-11T13:26:15Z</time>
      </trkpt>
      <trkpt lat="49.90726" lon="2.35359">
        <ele>52.6</ele>
        <time>2022-02-11T13:26:16Z</time>
      </trkpt>
      <trkpt lat="49.90726" lon="2.35359">
        <ele>52.6</ele>
        <time>2022-02-11T13:26:17Z</time>
      </trkpt>
      <trkpt lat="49.90726" lon="2.35359">
        <ele>52.6</ele>
        <time>2022-02-11T13:26:18Z</time>
      </trkpt>
      <trkpt lat="49.90726" lon="2.35359">
        <ele>52.6</ele>
        <time>2022-02-11T13:26:19Z</time>
      </trkpt>
      <trkpt lat="49.90726" lon="2.35359">
        <ele>52.6</ele>
        <time>2022-02-11T13:26:20Z</time>
      </trkpt>
      <trkpt lat="49.90726" lon="2.35359">
        <ele>52.6</ele>
        <time>2022-02-11T13:26:21Z</time>
      </trkpt>
      <trkpt lat="49.90726" lon="2.35359">
        <ele>52.6</ele>
        <time>2022-02-11T13:26:22Z</time>
      </trkpt>
      <trkpt lat="49.90726" lon="2.35359">
        <ele>52.6</ele>
        <time>2022-02-11T13:26:23Z</time>
      </trkpt>
      <trkpt lat="49.90726" lon="2.35359">
        <ele>52.6</ele>
        <time>2022-02-11T13:26:24Z</time>
      </trkpt>
      <trkpt lat="49.90726" lon="2.35359">
        <ele>52.6</ele>
        <time>2022-02-11T13:26:25Z</time>
      </trkpt>
      <trkpt lat="49.90726" lon="2.35359">
        <ele>52.6</ele>
        <time>2022-02-11T13:26:26Z</time>
      </trkpt>
      <trkpt lat="49.90726" lon="2.35359">
        <ele>52.6</ele>
        <time>2022-02-11T13:26:27Z</time>
      </trkpt>
      <trkpt lat="49.90726" lon="2.35359">
        <ele>52.6</ele>
        <time>2022-02-11T13:26:28Z</time>
      </trkpt>
      <trkpt lat="49.90726" lon="2.35359">
        <ele>52.6</ele>
        <time>2022-02-11T13:26:29Z</time>
      </trkpt>
      <trkpt lat="49.90726" lon="2.35359">
        <ele>52.6</ele>
        <time>2022-02-11T13:26:30Z</time>
      </trkpt>
      <trkpt lat="49.90726" lon="2.35359">
        <ele>52.6</ele>
        <time>2022-02-11T13:26:31Z</time>
      </trkpt>
      <trkpt lat="49.90726" lon="2.35359">
        <ele>52.6</ele>
        <time>2022-02-11T13:26:32Z</time>
      </trkpt>
      <trkpt lat="49.90726" lon="2.35359">
        <ele>52.6</ele>
        <time>2022-02-11T13:26:33Z</time>
      </trkpt>
      <trkpt lat="49.90726" lon="2.35359">
        <ele>52.6</ele>
        <time>2022-02-11T13:26:34Z</time>
      </trkpt>
      <trkpt lat="49.90726" lon="2.35359">
        <ele>52.6</ele>
        <time>2022-02-11T13:26:35Z</time>
      </trkpt>
      <trkpt lat="49.90726" lon="2.35359">
        <ele>52.6</ele>
        <time>2022-02-11T13:26:36Z</time>
      </trkpt>
      <trkpt lat="49.90726" lon="2.35359">
        <ele>52.6</ele>
        <time>2022-02-11T13:26:37Z</time>
      </trkpt>
      <trkpt lat="49.90726" lon="2.35359">
        <ele>52.6</ele>
        <time>2022-02-11T13:26:38Z</time>
      </trkpt>
      <trkpt lat="49.90726" lon="2.35359">
        <ele>52.6</ele>
        <time>2022-02-11T13:26:39Z</time>
      </trkpt>
      <trkpt lat="49.90726" lon="2.35359">
        <ele>52.6</ele>
        <time>2022-02-11T13:26:40Z</time>
      </trkpt>
      <trkpt lat="49.90726" lon="2.35359">
        <ele>52.6</ele>
        <time>2022-02-11T13:26:41Z</time>
      </trkpt>
      <trkpt lat="49.90726" lon="2.35359">
        <ele>52.6</ele>
        <time>2022-02-11T13:26:42Z</time>
      </trkpt>
      <trkpt lat="49.90726" lon="2.35359">
        <ele>52.6</ele>
        <time>2022-02-11T13:26:43Z</time>
      </trkpt>
      <trkpt lat="49.90726" lon="2.35359">
        <ele>52.6</ele>
        <time>2022-02-11T13:26:44Z</time>
      </trkpt>
      <trkpt lat="49.90726" lon="2.35359">
        <ele>52.6</ele>
        <time>2022-02-11T13:26:45Z</time>
      </trkpt>
      <trkpt lat="49.90726" lon="2.35359">
        <ele>52.6</ele>
        <time>2022-02-11T13:26:46Z</time>
      </trkpt>
      <trkpt lat="49.90726" lon="2.35359">
        <ele>52.6</ele>
        <time>2022-02-11T13:26:47Z</time>
      </trkpt>
      <trkpt lat="49.90726" lon="2.35359">
        <ele>52.6</ele>
        <time>2022-02-11T13:26:48Z</time>
      </trkpt>
      <trkpt lat="49.90726" lon="2.35359">
        <ele>52.6</ele>
        <time>2022-02-11T13:26:49Z</time>
      </trkpt>
      <trkpt lat="49.90726" lon="2.35359">
        <ele>52.6</ele>
        <time>2022-02-11T13:26:50Z</time>
      </trkpt>
      <trkpt lat="49.90726" lon="2.35359">
        <ele>52.6</ele>
        <time>2022-02-11T13:26:51Z</time>
      </trkpt>
      <trkpt lat="49.90726" lon="2.35359">
        <ele>52.6</ele>
        <time>2022-02-11T13:26:52Z</time>
      </trkpt>
      <trkpt lat="49.90726" lon="2.35359">
        <ele>52.6</ele>
        <time>2022-02-11T13:26:53Z</time>
      </trkpt>
      <trkpt lat="49.90726" lon="2.35359">
        <ele>52.6</ele>
        <time>2022-02-11T13:26:54Z</time>
      </trkpt>
      <trkpt lat="49.90726" lon="2.35359">
        <ele>52.6</ele>
        <time>2022-02-11T13:26:55Z</time>
      </trkpt>
      <trkpt lat="49.90726" lon="2.35359">
        <ele>52.6</ele>
        <time>2022-02-11T13:26:56Z</time>
      </trkpt>
      <trkpt lat="49.90726" lon="2.35359">
        <ele>52.6</ele>
        <time>2022-02-11T13:26:57Z</time>
      </trkpt>
      <trkpt lat="49.90726" lon="2.35359">
        <ele>52.6</ele>
        <time>2022-02-11T13:26:58Z</time>
      </trkpt>
      <trkpt lat="49.90726" lon="2.35359">
        <ele>52.6</ele>
        <time>2022-02-11T13:26:59Z</time>
      </trkpt>
      <trkpt lat="49.90726" lon="2.35359">
        <ele>52.6</ele>
        <time>2022-02-11T13:27:00Z</time>
      </trkpt>
      <trkpt lat="49.90726" lon="2.35359">
        <ele>52.6</ele>
        <time>2022-02-11T13:27:01Z</time>
      </trkpt>
      <trkpt lat="49.90726" lon="2.35359">
        <ele>52.6</ele>
        <time>2022-02-11T13:27:02Z</time>
      </trkpt>
      <trkpt lat="49.90726" lon="2.35359">
        <ele>52.6</ele>
        <time>2022-02-11T13:27:03Z</time>
      </trkpt>
      <trkpt lat="49.90726" lon="2.35359">
        <ele>52.6</ele>
        <time>2022-02-11T13:27:04Z</time>
      </trkpt>
      <trkpt lat="49.90726" lon="2.35359">
        <ele>52.6</ele>
        <time>2022-02-11T13:27:05Z</time>
      </trkpt>
      <trkpt lat="49.90726" lon="2.35359">
        <ele>52.6</ele>
        <time>2022-02-11T13:27:06Z</time>
      </trkpt>
      <trkpt lat="49.90726" lon="2.35359">
        <ele>52.6</ele>
        <time>2022-02-11T13:27:07Z</time>
      </trkpt>
      <trkpt lat="49.90726" lon="2.35359">
        <ele>52.6</ele>
        <time>2022-02-11T13:27:08Z</time>
      </trkpt>
      <trkpt lat="49.90726" lon="2.35359">
        <ele>52.6</ele>
        <time>2022-02-11T13:27:09Z</time>
      </trkpt>
      <trkpt lat="49.90726" lon="2.35359">
        <ele>52.6</ele>
        <time>2022-02-11T13:27:10Z</time>
      </trkpt>
      <trkpt lat="49.90726" lon="2.35359">
        <ele>52.6</ele>
        <time>2022-02-11T13:27:11Z</time>
      </trkpt>
      <trkpt lat="49.90726" lon="2.35359">
        <ele>52.6</ele>
        <time>2022-02-11T13:27:12Z</time>
      </trkpt>
      <trkpt lat="49.90726" lon="2.35359">
        <ele>52.6</ele>
        <time>2022-02-11T13:27:13Z</time>
      </trkpt>
      <trkpt lat="49.90726" lon="2.35359">
        <ele>52.6</ele>
        <time>2022-02-11T13:27:14Z</time>
      </trkpt>
      <trkpt lat="49.90726" lon="2.35359">
        <ele>52.6</ele>
        <time>2022-02-11T13:27:15Z</time>
      </trkpt>
      <trkpt lat="49.90726" lon="2.35359">
        <ele>52.6</ele>
        <time>2022-02-11T13:27:16Z</time>
      </trkpt>
      <trkpt lat="49.90726" lon="2.35359">
        <ele>52.6</ele>
        <time>2022-02-11T13:27:17Z</time>
      </trkpt>
      <trkpt lat="49.90726" lon="2.35359">
        <ele>52.6</ele>
        <time>2022-02-11T13:27:18Z</time>
      </trkpt>
      <trkpt lat="49.90726" lon="2.35359">
        <ele>52.6</ele>
        <time>2022-02-11T13:27:19Z</time>
      </trkpt>
      <trkpt lat="49.90726" lon="2.35359">
        <ele>52.6</ele>
        <time>2022-02-11T13:27:20Z</time>
      </trkpt>
      <trkpt lat="49.90726" lon="2.35359">
        <ele>52.6</ele>
        <time>2022-02-11T13:27:21Z</time>
      </trkpt>
      <trkpt lat="49.90726" lon="2.35361">
        <ele>52.7</ele>
        <time>2022-02-11T13:27:22Z</time>
      </trkpt>
      <trkpt lat="49.90726" lon="2.35363">
        <ele>52.7</ele>
        <time>2022-02-11T13:27:23Z</time>
      </trkpt>
      <trkpt lat="49.90725" lon="2.35364">
        <ele>52.8</ele>
        <time>2022-02-11T13:27:24Z</time>
      </trkpt>
      <trkpt lat="49.90724" lon="2.35364">
        <ele>52.8</ele>
        <time>2022-02-11T13:27:25Z</time>
      </trkpt>
      <trkpt lat="49.90723" lon="2.35364">
        <ele>52.8</ele>
        <time>2022-02-11T13:27:26Z</time>
      </trkpt>
      <trkpt lat="49.90722" lon="2.35364">
        <ele>52.9</ele>
        <time>2022-02-11T13:27:27Z</time>
      </trkpt>
      <trkpt lat="49.90721" lon="2.35364">
        <ele>52.9</ele>
        <time>2022-02-11T13:27:28Z</time>
      </trkpt>
      <trkpt lat="49.90719" lon="2.35363">
        <ele>52.9</ele>
        <time>2022-02-11T13:27:29Z</time>
      </trkpt>
      <trkpt lat="49.90718" lon="2.35363">
        <ele>53</ele>
        <time>2022-02-11T13:27:30Z</time>
      </trkpt>
      <trkpt lat="49.90717" lon="2.35363">
        <ele>53</ele>
        <time>2022-02-11T13:27:31Z</time>
      </trkpt>
      <trkpt lat="49.90716" lon="2.35363">
        <ele>53</ele>
        <time>2022-02-11T13:27:32Z</time>
      </trkpt>
      <trkpt lat="49.90715" lon="2.35363">
        <ele>53.1</ele>
        <time>2022-02-11T13:27:33Z</time>
      </trkpt>
      <trkpt lat="49.90714" lon="2.35362">
        <ele>53.1</ele>
        <time>2022-02-11T13:27:34Z</time>
      </trkpt>
      <trkpt lat="49.90713" lon="2.35362">
        <ele>53.1</ele>
        <time>2022-02-11T13:27:35Z</time>
      </trkpt>
      <trkpt lat="49.90712" lon="2.35362">
        <ele>53.1</ele>
        <time>2022-02-11T13:27:36Z</time>
      </trkpt>
      <trkpt lat="49.90711" lon="2.35362">
        <ele>53.1</ele>
        <time>2022-02-11T13:27:37Z</time>
      </trkpt>
      <trkpt lat="49.90709" lon="2.35362">
        <ele>53.2</ele>
        <time>2022-02-11T13:27:38Z</time>
      </trkpt>
      <trkpt lat="49.90708" lon="2.35363">
        <ele>53.2</ele>
        <time>2022-02-11T13:27:39Z</time>
      </trkpt>
      <trkpt lat="49.90705" lon="2.35362">
        <ele>53.3</ele>
        <time>2022-02-11T13:27:40Z</time>
      </trkpt>
      <trkpt lat="49.90704" lon="2.35362">
        <ele>53.3</ele>
        <time>2022-02-11T13:27:42Z</time>
      </trkpt>
      <trkpt lat="49.90703" lon="2.35362">
        <ele>53.3</ele>
        <time>2022-02-11T13:27:43Z</time>
      </trkpt>
      <trkpt lat="49.90702" lon="2.35362">
        <ele>53.3</ele>
        <time>2022-02-11T13:27:44Z</time>
      </trkpt>
      <trkpt lat="49.90701" lon="2.35362">
        <ele>53.4</ele>
        <time>2022-02-11T13:27:45Z</time>
      </trkpt>
      <trkpt lat="49.907" lon="2.35363">
        <ele>53.4</ele>
        <time>2022-02-11T13:27:46Z</time>
      </trkpt>
      <trkpt lat="49.90698" lon="2.35363">
        <ele>53.4</ele>
        <time>2022-02-11T13:27:47Z</time>
      </trkpt>
      <trkpt lat="49.90697" lon="2.35363">
        <ele>53.5</ele>
        <time>2022-02-11T13:27:49Z</time>
      </trkpt>
      <trkpt lat="49.90695" lon="2.35363">
        <ele>53.5</ele>
        <time>2022-02-11T13:27:50Z</time>
      </trkpt>
      <trkpt lat="49.90694" lon="2.35363">
        <ele>53.6</ele>
        <time>2022-02-11T13:27:51Z</time>
      </trkpt>
      <trkpt lat="49.90693" lon="2.35363">
        <ele>53.6</ele>
        <time>2022-02-11T13:27:52Z</time>
      </trkpt>
      <trkpt lat="49.90691" lon="2.35363">
        <ele>53.7</ele>
        <time>2022-02-11T13:27:53Z</time>
      </trkpt>
      <trkpt lat="49.9069" lon="2.35363">
        <ele>53.7</ele>
        <time>2022-02-11T13:27:55Z</time>
      </trkpt>
      <trkpt lat="49.90689" lon="2.35363">
        <ele>53.7</ele>
        <time>2022-02-11T13:27:56Z</time>
      </trkpt>
      <trkpt lat="49.90688" lon="2.35363">
        <ele>53.8</ele>
        <time>2022-02-11T13:27:57Z</time>
      </trkpt>
      <trkpt lat="49.90687" lon="2.35363">
        <ele>53.8</ele>
        <time>2022-02-11T13:27:58Z</time>
      </trkpt>
      <trkpt lat="49.90686" lon="2.35363">
        <ele>53.8</ele>
        <time>2022-02-11T13:27:59Z</time>
      </trkpt>
      <trkpt lat="49.90685" lon="2.35363">
        <ele>53.9</ele>
        <time>2022-02-11T13:28:00Z</time>
      </trkpt>
      <trkpt lat="49.90684" lon="2.35363">
        <ele>53.9</ele>
        <time>2022-02-11T13:28:02Z</time>
      </trkpt>
      <trkpt lat="49.90683" lon="2.35363">
        <ele>54</ele>
        <time>2022-02-11T13:28:03Z</time>
      </trkpt>
      <trkpt lat="49.90682" lon="2.35363">
        <ele>54</ele>
        <time>2022-02-11T13:28:04Z</time>
      </trkpt>
      <trkpt lat="49.90681" lon="2.35363">
        <ele>54</ele>
        <time>2022-02-11T13:28:05Z</time>
      </trkpt>
      <trkpt lat="49.9068" lon="2.35363">
        <ele>54.1</ele>
        <time>2022-02-11T13:28:06Z</time>
      </trkpt>
      <trkpt lat="49.90678" lon="2.35364">
        <ele>54.1</ele>
        <time>2022-02-11T13:28:08Z</time>
      </trkpt>
      <trkpt lat="49.90677" lon="2.35364">
        <ele>54.1</ele>
        <time>2022-02-11T13:28:09Z</time>
      </trkpt>
      <trkpt lat="49.90676" lon="2.35363">
        <ele>54.2</ele>
        <time>2022-02-11T13:28:10Z</time>
      </trkpt>
      <trkpt lat="49.90675" lon="2.35363">
        <ele>54.2</ele>
        <time>2022-02-11T13:28:11Z</time>
      </trkpt>
      <trkpt lat="49.90674" lon="2.35363">
        <ele>54.2</ele>
        <time>2022-02-11T13:28:12Z</time>
      </trkpt>
      <trkpt lat="49.90673" lon="2.35363">
        <ele>54.3</ele>
        <time>2022-02-11T13:28:14Z</time>
      </trkpt>
      <trkpt lat="49.90672" lon="2.35363">
        <ele>54.3</ele>
        <time>2022-02-11T13:28:15Z</time>
      </trkpt>
      <trkpt lat="49.90671" lon="2.35363">
        <ele>54.3</ele>
        <time>2022-02-11T13:28:16Z</time>
      </trkpt>
      <trkpt lat="49.90669" lon="2.35363">
        <ele>54.4</ele>
        <time>2022-02-11T13:28:17Z</time>
      </trkpt>
      <trkpt lat="49.90668" lon="2.35362">
        <ele>54.4</ele>
        <time>2022-02-11T13:28:18Z</time>
      </trkpt>
      <trkpt lat="49.90667" lon="2.35362">
        <ele>54.4</ele>
        <time>2022-02-11T13:28:20Z</time>
      </trkpt>
      <trkpt lat="49.90666" lon="2.35362">
        <ele>54.5</ele>
        <time>2022-02-11T13:28:21Z</time>
      </trkpt>
      <trkpt lat="49.90665" lon="2.35362">
        <ele>54.5</ele>
        <time>2022-02-11T13:28:22Z</time>
      </trkpt>
      <trkpt lat="49.90664" lon="2.35361">
        <ele>54.5</ele>
        <time>2022-02-11T13:28:23Z</time>
      </trkpt>
      <trkpt lat="49.90663" lon="2.35361">
        <ele>54.5</ele>
        <time>2022-02-11T13:28:24Z</time>
      </trkpt>
      <trkpt lat="49.90661" lon="2.35361">
        <ele>54.6</ele>
        <time>2022-02-11T13:28:26Z</time>
      </trkpt>
      <trkpt lat="49.9066" lon="2.35361">
        <ele>54.6</ele>
        <time>2022-02-11T13:28:27Z</time>
      </trkpt>
      <trkpt lat="49.90658" lon="2.35361">
        <ele>54.7</ele>
        <time>2022-02-11T13:28:28Z</time>
      </trkpt>
      <trkpt lat="49.90657" lon="2.35361">
        <ele>54.7</ele>
        <time>2022-02-11T13:28:29Z</time>
      </trkpt>
      <trkpt lat="49.90656" lon="2.35362">
        <ele>54.7</ele>
        <time>2022-02-11T13:28:30Z</time>
      </trkpt>
      <trkpt lat="49.90654" lon="2.35362">
        <ele>54.7</ele>
        <time>2022-02-11T13:28:31Z</time>
      </trkpt>
      <trkpt lat="49.90653" lon="2.35362">
        <ele>54.7</ele>
        <time>2022-02-11T13:28:32Z</time>
      </trkpt>
      <trkpt lat="49.90652" lon="2.35362">
        <ele>54.8</ele>
        <time>2022-02-11T13:28:33Z</time>
      </trkpt>
      <trkpt lat="49.9065" lon="2.35362">
        <ele>54.8</ele>
        <time>2022-02-11T13:28:34Z</time>
      </trkpt>
      <trkpt lat="49.90649" lon="2.35362">
        <ele>54.8</ele>
        <time>2022-02-11T13:28:36Z</time>
      </trkpt>
      <trkpt lat="49.90648" lon="2.35362">
        <ele>54.8</ele>
        <time>2022-02-11T13:28:37Z</time>
      </trkpt>
      <trkpt lat="49.90647" lon="2.35362">
        <ele>54.9</ele>
        <time>2022-02-11T13:28:38Z</time>
      </trkpt>
      <trkpt lat="49.90647" lon="2.35362">
        <ele>54.9</ele>
        <time>2022-02-11T13:28:39Z</time>
      </trkpt>
      <trkpt lat="49.90645" lon="2.35362">
        <ele>54.9</ele>
        <time>2022-02-11T13:28:40Z</time>
      </trkpt>
      <trkpt lat="49.90644" lon="2.35362">
        <ele>54.9</ele>
        <time>2022-02-11T13:28:41Z</time>
      </trkpt>
      <trkpt lat="49.90643" lon="2.35362">
        <ele>55</ele>
        <time>2022-02-11T13:28:42Z</time>
      </trkpt>
      <trkpt lat="49.90642" lon="2.35362">
        <ele>55</ele>
        <time>2022-02-11T13:28:43Z</time>
      </trkpt>
      <trkpt lat="49.90641" lon="2.35362">
        <ele>55</ele>
        <time>2022-02-11T13:28:44Z</time>
      </trkpt>
      <trkpt lat="49.9064" lon="2.35362">
        <ele>55</ele>
        <time>2022-02-11T13:28:45Z</time>
      </trkpt>
      <trkpt lat="49.90639" lon="2.35362">
        <ele>55</ele>
        <time>2022-02-11T13:28:47Z</time>
      </trkpt>
      <trkpt lat="49.90638" lon="2.35362">
        <ele>55.1</ele>
        <time>2022-02-11T13:28:48Z</time>
      </trkpt>
      <trkpt lat="49.90637" lon="2.35361">
        <ele>55.1</ele>
        <time>2022-02-11T13:28:49Z</time>
      </trkpt>
      <trkpt lat="49.90636" lon="2.35361">
        <ele>55.1</ele>
        <time>2022-02-11T13:28:50Z</time>
      </trkpt>
      <trkpt lat="49.90635" lon="2.35361">
        <ele>55.1</ele>
        <time>2022-02-11T13:28:51Z</time>
      </trkpt>
      <trkpt lat="49.90634" lon="2.35361">
        <ele>55.2</ele>
        <time>2022-02-11T13:28:52Z</time>
      </trkpt>
      <trkpt lat="49.90633" lon="2.3536">
        <ele>55.2</ele>
        <time>2022-02-11T13:28:53Z</time>
      </trkpt>
      <trkpt lat="49.90631" lon="2.3536">
        <ele>55.2</ele>
        <time>2022-02-11T13:28:55Z</time>
      </trkpt>
      <trkpt lat="49.9063" lon="2.3536">
        <ele>55.3</ele>
        <time>2022-02-11T13:28:56Z</time>
      </trkpt>
      <trkpt lat="49.90629" lon="2.35359">
        <ele>55.3</ele>
        <time>2022-02-11T13:28:57Z</time>
      </trkpt>
      <trkpt lat="49.90628" lon="2.35359">
        <ele>55.3</ele>
        <time>2022-02-11T13:28:58Z</time>
      </trkpt>
      <trkpt lat="49.90627" lon="2.35359">
        <ele>55.3</ele>
        <time>2022-02-11T13:28:59Z</time>
      </trkpt>
      <trkpt lat="49.90626" lon="2.35358">
        <ele>55.4</ele>
        <time>2022-02-11T13:29:00Z</time>
      </trkpt>
      <trkpt lat="49.90625" lon="2.35358">
        <ele>55.4</ele>
        <time>2022-02-11T13:29:01Z</time>
      </trkpt>
      <trkpt lat="49.90624" lon="2.35357">
        <ele>55.4</ele>
        <time>2022-02-11T13:29:02Z</time>
      </trkpt>
      <trkpt lat="49.90623" lon="2.35356">
        <ele>55.4</ele>
        <time>2022-02-11T13:29:04Z</time>
      </trkpt>
      <trkpt lat="49.90622" lon="2.35356">
        <ele>55.5</ele>
        <time>2022-02-11T13:29:05Z</time>
      </trkpt>
      <trkpt lat="49.90621" lon="2.35356">
        <ele>55.5</ele>
        <time>2022-02-11T13:29:06Z</time>
      </trkpt>
      <trkpt lat="49.9062" lon="2.35355">
        <ele>55.5</ele>
        <time>2022-02-11T13:29:07Z</time>
      </trkpt>
      <trkpt lat="49.90618" lon="2.35355">
        <ele>55.5</ele>
        <time>2022-02-11T13:29:08Z</time>
      </trkpt>
      <trkpt lat="49.90617" lon="2.35355">
        <ele>55.6</ele>
        <time>2022-02-11T13:29:09Z</time>
      </trkpt>
      <trkpt lat="49.90616" lon="2.35355">
        <ele>55.6</ele>
        <time>2022-02-11T13:29:10Z</time>
      </trkpt>
      <trkpt lat="49.90615" lon="2.35356">
        <ele>55.6</ele>
        <time>2022-02-11T13:29:11Z</time>
      </trkpt>
      <trkpt lat="49.90613" lon="2.35356">
        <ele>55.7</ele>
        <time>2022-02-11T13:29:12Z</time>
      </trkpt>
      <trkpt lat="49.90612" lon="2.35357">
        <ele>55.7</ele>
        <time>2022-02-11T13:29:14Z</time>
      </trkpt>
      <trkpt lat="49.90611" lon="2.35357">
        <ele>55.8</ele>
        <time>2022-02-11T13:29:15Z</time>
      </trkpt>
      <trkpt lat="49.9061" lon="2.35357">
        <ele>55.8</ele>
        <time>2022-02-11T13:29:16Z</time>
      </trkpt>
      <trkpt lat="49.90609" lon="2.35357">
        <ele>55.8</ele>
        <time>2022-02-11T13:29:17Z</time>
      </trkpt>
      <trkpt lat="49.90608" lon="2.35357">
        <ele>55.9</ele>
        <time>2022-02-11T13:29:18Z</time>
      </trkpt>
      <trkpt lat="49.90607" lon="2.35357">
        <ele>55.9</ele>
        <time>2022-02-11T13:29:19Z</time>
      </trkpt>
      <trkpt lat="49.90605" lon="2.35357">
        <ele>55.9</ele>
        <time>2022-02-11T13:29:20Z</time>
      </trkpt>
      <trkpt lat="49.90604" lon="2.35357">
        <ele>56</ele>
        <time>2022-02-11T13:29:22Z</time>
      </trkpt>
      <trkpt lat="49.90602" lon="2.35358">
        <ele>56</ele>
        <time>2022-02-11T13:29:23Z</time>
      </trkpt>
      <trkpt lat="49.90601" lon="2.35358">
        <ele>56.1</ele>
        <time>2022-02-11T13:29:24Z</time>
      </trkpt>
      <trkpt lat="49.906" lon="2.35358">
        <ele>56.1</ele>
        <time>2022-02-11T13:29:25Z</time>
      </trkpt>
      <trkpt lat="49.90599" lon="2.35359">
        <ele>56.1</ele>
        <time>2022-02-11T13:29:26Z</time>
      </trkpt>
      <trkpt lat="49.90598" lon="2.35359">
        <ele>56.1</ele>
        <time>2022-02-11T13:29:27Z</time>
      </trkpt>
      <trkpt lat="49.90597" lon="2.35358">
        <ele>56.2</ele>
        <time>2022-02-11T13:29:29Z</time>
      </trkpt>
      <trkpt lat="49.90596" lon="2.35358">
        <ele>56.2</ele>
        <time>2022-02-11T13:29:30Z</time>
      </trkpt>
      <trkpt lat="49.90595" lon="2.35358">
        <ele>56.2</ele>
        <time>2022-02-11T13:29:31Z</time>
      </trkpt>
      <trkpt lat="49.90593" lon="2.35358">
        <ele>56.2</ele>
        <time>2022-02-11T13:29:32Z</time>
      </trkpt>
      <trkpt lat="49.90591" lon="2.35358">
        <ele>56.3</ele>
        <time>2022-02-11T13:29:33Z</time>
      </trkpt>
      <trkpt lat="49.9059" lon="2.35358">
        <ele>56.3</ele>
        <time>2022-02-11T13:29:34Z</time>
      </trkpt>
      <trkpt lat="49.9059" lon="2.35357">
        <ele>56.3</ele>
        <time>2022-02-11T13:29:35Z</time>
      </trkpt>
      <trkpt lat="49.90587" lon="2.35357">
        <ele>56.4</ele>
        <time>2022-02-11T13:29:36Z</time>
      </trkpt>
      <trkpt lat="49.90587" lon="2.35357">
        <ele>56.4</ele>
        <time>2022-02-11T13:29:38Z</time>
      </trkpt>
      <trkpt lat="49.90586" lon="2.35357">
        <ele>56.4</ele>
        <time>2022-02-11T13:29:39Z</time>
      </trkpt>
      <trkpt lat="49.90585" lon="2.35357">
        <ele>56.4</ele>
        <time>2022-02-11T13:29:40Z</time>
      </trkpt>
      <trkpt lat="49.90584" lon="2.35357">
        <ele>56.5</ele>
        <time>2022-02-11T13:29:41Z</time>
      </trkpt>
      <trkpt lat="49.90582" lon="2.35357">
        <ele>56.5</ele>
        <time>2022-02-11T13:29:42Z</time>
      </trkpt>
      <trkpt lat="49.90581" lon="2.35357">
        <ele>56.5</ele>
        <time>2022-02-11T13:29:43Z</time>
      </trkpt>
      <trkpt lat="49.9058" lon="2.35357">
        <ele>56.5</ele>
        <time>2022-02-11T13:29:44Z</time>
      </trkpt>
      <trkpt lat="49.90579" lon="2.35356">
        <ele>56.6</ele>
        <time>2022-02-11T13:29:46Z</time>
      </trkpt>
      <trkpt lat="49.90578" lon="2.35356">
        <ele>56.6</ele>
        <time>2022-02-11T13:29:47Z</time>
      </trkpt>
      <trkpt lat="49.90577" lon="2.35356">
        <ele>56.6</ele>
        <time>2022-02-11T13:29:48Z</time>
      </trkpt>
      <trkpt lat="49.90576" lon="2.35356">
        <ele>56.7</ele>
        <time>2022-02-11T13:29:49Z</time>
      </trkpt>
      <trkpt lat="49.90575" lon="2.35356">
        <ele>56.7</ele>
        <time>2022-02-11T13:29:50Z</time>
      </trkpt>
      <trkpt lat="49.90573" lon="2.35356">
        <ele>56.7</ele>
        <time>2022-02-11T13:29:51Z</time>
      </trkpt>
      <trkpt lat="49.90572" lon="2.35356">
        <ele>56.8</ele>
        <time>2022-02-11T13:29:52Z</time>
      </trkpt>
      <trkpt lat="49.90571" lon="2.35356">
        <ele>56.8</ele>
        <time>2022-02-11T13:29:54Z</time>
      </trkpt>
      <trkpt lat="49.9057" lon="2.35356">
        <ele>56.8</ele>
        <time>2022-02-11T13:29:55Z</time>
      </trkpt>
      <trkpt lat="49.90569" lon="2.35357">
        <ele>56.9</ele>
        <time>2022-02-11T13:29:56Z</time>
      </trkpt>
      <trkpt lat="49.90568" lon="2.35357">
        <ele>56.9</ele>
        <time>2022-02-11T13:29:57Z</time>
      </trkpt>
      <trkpt lat="49.90567" lon="2.35357">
        <ele>56.9</ele>
        <time>2022-02-11T13:29:58Z</time>
      </trkpt>
      <trkpt lat="49.90566" lon="2.35357">
        <ele>57</ele>
        <time>2022-02-11T13:29:59Z</time>
      </trkpt>
      <trkpt lat="49.90564" lon="2.35357">
        <ele>57</ele>
        <time>2022-02-11T13:30:00Z</time>
      </trkpt>
      <trkpt lat="49.90563" lon="2.35357">
        <ele>57.1</ele>
        <time>2022-02-11T13:30:02Z</time>
      </trkpt>
      <trkpt lat="49.90562" lon="2.35358">
        <ele>57.1</ele>
        <time>2022-02-11T13:30:03Z</time>
      </trkpt>
      <trkpt lat="49.90561" lon="2.35358">
        <ele>57.1</ele>
        <time>2022-02-11T13:30:04Z</time>
      </trkpt>
      <trkpt lat="49.9056" lon="2.35358">
        <ele>57.1</ele>
        <time>2022-02-11T13:30:05Z</time>
      </trkpt>
      <trkpt lat="49.90559" lon="2.35358">
        <ele>57.2</ele>
        <time>2022-02-11T13:30:06Z</time>
      </trkpt>
      <trkpt lat="49.90557" lon="2.35357">
        <ele>57.2</ele>
        <time>2022-02-11T13:30:07Z</time>
      </trkpt>
      <trkpt lat="49.90557" lon="2.35357">
        <ele>57.2</ele>
        <time>2022-02-11T13:30:08Z</time>
      </trkpt>
      <trkpt lat="49.90555" lon="2.35357">
        <ele>57.2</ele>
        <time>2022-02-11T13:30:09Z</time>
      </trkpt>
      <trkpt lat="49.90554" lon="2.35357">
        <ele>57.3</ele>
        <time>2022-02-11T13:30:10Z</time>
      </trkpt>
      <trkpt lat="49.90553" lon="2.35357">
        <ele>57.3</ele>
        <time>2022-02-11T13:30:11Z</time>
      </trkpt>
      <trkpt lat="49.90552" lon="2.35356">
        <ele>57.3</ele>
        <time>2022-02-11T13:30:12Z</time>
      </trkpt>
      <trkpt lat="49.9055" lon="2.35356">
        <ele>57.4</ele>
        <time>2022-02-11T13:30:13Z</time>
      </trkpt>
      <trkpt lat="49.90549" lon="2.35356">
        <ele>57.4</ele>
        <time>2022-02-11T13:30:15Z</time>
      </trkpt>
      <trkpt lat="49.90548" lon="2.35356">
        <ele>57.4</ele>
        <time>2022-02-11T13:30:16Z</time>
      </trkpt>
      <trkpt lat="49.90546" lon="2.35357">
        <ele>57.4</ele>
        <time>2022-02-11T13:30:17Z</time>
      </trkpt>
      <trkpt lat="49.90545" lon="2.35357">
        <ele>57.4</ele>
        <time>2022-02-11T13:30:18Z</time>
      </trkpt>
      <trkpt lat="49.90544" lon="2.35358">
        <ele>57.5</ele>
        <time>2022-02-11T13:30:20Z</time>
      </trkpt>
      <trkpt lat="49.90542" lon="2.35358">
        <ele>57.5</ele>
        <time>2022-02-11T13:30:21Z</time>
      </trkpt>
      <trkpt lat="49.90541" lon="2.35358">
        <ele>57.5</ele>
        <time>2022-02-11T13:30:22Z</time>
      </trkpt>
      <trkpt lat="49.9054" lon="2.35359">
        <ele>57.5</ele>
        <time>2022-02-11T13:30:23Z</time>
      </trkpt>
      <trkpt lat="49.90539" lon="2.3536">
        <ele>57.6</ele>
        <time>2022-02-11T13:30:24Z</time>
      </trkpt>
      <trkpt lat="49.90538" lon="2.3536">
        <ele>57.6</ele>
        <time>2022-02-11T13:30:25Z</time>
      </trkpt>
      <trkpt lat="49.90536" lon="2.3536">
        <ele>57.6</ele>
        <time>2022-02-11T13:30:26Z</time>
      </trkpt>
      <trkpt lat="49.90535" lon="2.35361">
        <ele>57.7</ele>
        <time>2022-02-11T13:30:27Z</time>
      </trkpt>
      <trkpt lat="49.90534" lon="2.35361">
        <ele>57.7</ele>
        <time>2022-02-11T13:30:28Z</time>
      </trkpt>
      <trkpt lat="49.90532" lon="2.35361">
        <ele>57.7</ele>
        <time>2022-02-11T13:30:30Z</time>
      </trkpt>
      <trkpt lat="49.90531" lon="2.35361">
        <ele>57.7</ele>
        <time>2022-02-11T13:30:31Z</time>
      </trkpt>
      <trkpt lat="49.9053" lon="2.35361">
        <ele>57.8</ele>
        <time>2022-02-11T13:30:32Z</time>
      </trkpt>
      <trkpt lat="49.90529" lon="2.35362">
        <ele>57.8</ele>
        <time>2022-02-11T13:30:33Z</time>
      </trkpt>
      <trkpt lat="49.90528" lon="2.35362">
        <ele>57.8</ele>
        <time>2022-02-11T13:30:34Z</time>
      </trkpt>
      <trkpt lat="49.90526" lon="2.35362">
        <ele>57.9</ele>
        <time>2022-02-11T13:30:35Z</time>
      </trkpt>
      <trkpt lat="49.90525" lon="2.35362">
        <ele>57.9</ele>
        <time>2022-02-11T13:30:36Z</time>
      </trkpt>
      <trkpt lat="49.90524" lon="2.35362">
        <ele>57.9</ele>
        <time>2022-02-11T13:30:37Z</time>
      </trkpt>
      <trkpt lat="49.90522" lon="2.35362">
        <ele>58</ele>
        <time>2022-02-11T13:30:38Z</time>
      </trkpt>
      <trkpt lat="49.90521" lon="2.35363">
        <ele>58</ele>
        <time>2022-02-11T13:30:40Z</time>
      </trkpt>
      <trkpt lat="49.9052" lon="2.35363">
        <ele>58</ele>
        <time>2022-02-11T13:30:41Z</time>
      </trkpt>
      <trkpt lat="49.90518" lon="2.35363">
        <ele>58.1</ele>
        <time>2022-02-11T13:30:42Z</time>
      </trkpt>
      <trkpt lat="49.90517" lon="2.35363">
        <ele>58.1</ele>
        <time>2022-02-11T13:30:43Z</time>
      </trkpt>
      <trkpt lat="49.90516" lon="2.35364">
        <ele>58.1</ele>
        <time>2022-02-11T13:30:44Z</time>
      </trkpt>
      <trkpt lat="49.90514" lon="2.35364">
        <ele>58.2</ele>
        <time>2022-02-11T13:30:45Z</time>
      </trkpt>
      <trkpt lat="49.90514" lon="2.35364">
        <ele>58.2</ele>
        <time>2022-02-11T13:30:47Z</time>
      </trkpt>
      <trkpt lat="49.90513" lon="2.35365">
        <ele>58.2</ele>
        <time>2022-02-11T13:30:48Z</time>
      </trkpt>
      <trkpt lat="49.90512" lon="2.35365">
        <ele>58.2</ele>
        <time>2022-02-11T13:30:49Z</time>
      </trkpt>
      <trkpt lat="49.90511" lon="2.35365">
        <ele>58.2</ele>
        <time>2022-02-11T13:30:50Z</time>
      </trkpt>
      <trkpt lat="49.90509" lon="2.35366">
        <ele>58.3</ele>
        <time>2022-02-11T13:30:51Z</time>
      </trkpt>
      <trkpt lat="49.90507" lon="2.35367">
        <ele>58.3</ele>
        <time>2022-02-11T13:30:52Z</time>
      </trkpt>
      <trkpt lat="49.90507" lon="2.35368">
        <ele>58.3</ele>
        <time>2022-02-11T13:30:53Z</time>
      </trkpt>
      <trkpt lat="49.90506" lon="2.35368">
        <ele>58.3</ele>
        <time>2022-02-11T13:30:54Z</time>
      </trkpt>
      <trkpt lat="49.90504" lon="2.35369">
        <ele>58.3</ele>
        <time>2022-02-11T13:30:56Z</time>
      </trkpt>
      <trkpt lat="49.90503" lon="2.3537">
        <ele>58.4</ele>
        <time>2022-02-11T13:30:57Z</time>
      </trkpt>
      <trkpt lat="49.90502" lon="2.3537">
        <ele>58.4</ele>
        <time>2022-02-11T13:30:58Z</time>
      </trkpt>
      <trkpt lat="49.905" lon="2.35371">
        <ele>58.4</ele>
        <time>2022-02-11T13:30:59Z</time>
      </trkpt>
      <trkpt lat="49.905" lon="2.35371">
        <ele>58.4</ele>
        <time>2022-02-11T13:31:00Z</time>
      </trkpt>
      <trkpt lat="49.90499" lon="2.35371">
        <ele>58.4</ele>
        <time>2022-02-11T13:31:01Z</time>
      </trkpt>
      <trkpt lat="49.90497" lon="2.35371">
        <ele>58.4</ele>
        <time>2022-02-11T13:31:02Z</time>
      </trkpt>
      <trkpt lat="49.90496" lon="2.35371">
        <ele>58.5</ele>
        <time>2022-02-11T13:31:04Z</time>
      </trkpt>
      <trkpt lat="49.90495" lon="2.35371">
        <ele>58.5</ele>
        <time>2022-02-11T13:31:05Z</time>
      </trkpt>
      <trkpt lat="49.90494" lon="2.35371">
        <ele>58.5</ele>
        <time>2022-02-11T13:31:06Z</time>
      </trkpt>
      <trkpt lat="49.90493" lon="2.35371">
        <ele>58.5</ele>
        <time>2022-02-11T13:31:07Z</time>
      </trkpt>
      <trkpt lat="49.9049" lon="2.35371">
        <ele>58.5</ele>
        <time>2022-02-11T13:31:08Z</time>
      </trkpt>
      <trkpt lat="49.9049" lon="2.35371">
        <ele>58.6</ele>
        <time>2022-02-11T13:31:09Z</time>
      </trkpt>
      <trkpt lat="49.90489" lon="2.35371">
        <ele>58.6</ele>
        <time>2022-02-11T13:31:10Z</time>
      </trkpt>
      <trkpt lat="49.90487" lon="2.35372">
        <ele>58.6</ele>
        <time>2022-02-11T13:31:11Z</time>
      </trkpt>
      <trkpt lat="49.90486" lon="2.35372">
        <ele>58.6</ele>
        <time>2022-02-11T13:31:13Z</time>
      </trkpt>
      <trkpt lat="49.90485" lon="2.35372">
        <ele>58.7</ele>
        <time>2022-02-11T13:31:14Z</time>
      </trkpt>
      <trkpt lat="49.90484" lon="2.35373">
        <ele>58.7</ele>
        <time>2022-02-11T13:31:15Z</time>
      </trkpt>
      <trkpt lat="49.90483" lon="2.35374">
        <ele>58.7</ele>
        <time>2022-02-11T13:31:16Z</time>
      </trkpt>
      <trkpt lat="49.90482" lon="2.35374">
        <ele>58.7</ele>
        <time>2022-02-11T13:31:17Z</time>
      </trkpt>
      <trkpt lat="49.90481" lon="2.35374">
        <ele>58.7</ele>
        <time>2022-02-11T13:31:18Z</time>
      </trkpt>
      <trkpt lat="49.9048" lon="2.35375">
        <ele>58.8</ele>
        <time>2022-02-11T13:31:19Z</time>
      </trkpt>
      <trkpt lat="49.90479" lon="2.35376">
        <ele>58.8</ele>
        <time>2022-02-11T13:31:21Z</time>
      </trkpt>
      <trkpt lat="49.90478" lon="2.35377">
        <ele>58.8</ele>
        <time>2022-02-11T13:31:22Z</time>
      </trkpt>
      <trkpt lat="49.90476" lon="2.35378">
        <ele>58.8</ele>
        <time>2022-02-11T13:31:23Z</time>
      </trkpt>
      <trkpt lat="49.90475" lon="2.35378">
        <ele>58.8</ele>
        <time>2022-02-11T13:31:24Z</time>
      </trkpt>
      <trkpt lat="49.90474" lon="2.35378">
        <ele>58.8</ele>
        <time>2022-02-11T13:31:25Z</time>
      </trkpt>
      <trkpt lat="49.90473" lon="2.35378">
        <ele>58.9</ele>
        <time>2022-02-11T13:31:26Z</time>
      </trkpt>
      <trkpt lat="49.90471" lon="2.35379">
        <ele>58.9</ele>
        <time>2022-02-11T13:31:28Z</time>
      </trkpt>
      <trkpt lat="49.9047" lon="2.35379">
        <ele>58.9</ele>
        <time>2022-02-11T13:31:29Z</time>
      </trkpt>
      <trkpt lat="49.9047" lon="2.35379">
        <ele>58.9</ele>
        <time>2022-02-11T13:31:30Z</time>
      </trkpt>
      <trkpt lat="49.90468" lon="2.3538">
        <ele>58.9</ele>
        <time>2022-02-11T13:31:31Z</time>
      </trkpt>
      <trkpt lat="49.90467" lon="2.3538">
        <ele>58.9</ele>
        <time>2022-02-11T13:31:32Z</time>
      </trkpt>
      <trkpt lat="49.90466" lon="2.3538">
        <ele>58.9</ele>
        <time>2022-02-11T13:31:33Z</time>
      </trkpt>
      <trkpt lat="49.90464" lon="2.35381">
        <ele>59</ele>
        <time>2022-02-11T13:31:34Z</time>
      </trkpt>
      <trkpt lat="49.90463" lon="2.35381">
        <ele>59</ele>
        <time>2022-02-11T13:31:35Z</time>
      </trkpt>
      <trkpt lat="49.90462" lon="2.35381">
        <ele>59</ele>
        <time>2022-02-11T13:31:36Z</time>
      </trkpt>
      <trkpt lat="49.9046" lon="2.35382">
        <ele>59</ele>
        <time>2022-02-11T13:31:38Z</time>
      </trkpt>
      <trkpt lat="49.90459" lon="2.35383">
        <ele>59</ele>
        <time>2022-02-11T13:31:39Z</time>
      </trkpt>
      <trkpt lat="49.90458" lon="2.35383">
        <ele>59</ele>
        <time>2022-02-11T13:31:40Z</time>
      </trkpt>
      <trkpt lat="49.90457" lon="2.35384">
        <ele>59</ele>
        <time>2022-02-11T13:31:41Z</time>
      </trkpt>
      <trkpt lat="49.90455" lon="2.35384">
        <ele>59</ele>
        <time>2022-02-11T13:31:43Z</time>
      </trkpt>
      <trkpt lat="49.90454" lon="2.35385">
        <ele>59</ele>
        <time>2022-02-11T13:31:44Z</time>
      </trkpt>
      <trkpt lat="49.90453" lon="2.35386">
        <ele>59.1</ele>
        <time>2022-02-11T13:31:45Z</time>
      </trkpt>
      <trkpt lat="49.90452" lon="2.35386">
        <ele>59.1</ele>
        <time>2022-02-11T13:31:46Z</time>
      </trkpt>
      <trkpt lat="49.90451" lon="2.35387">
        <ele>59.1</ele>
        <time>2022-02-11T13:31:47Z</time>
      </trkpt>
      <trkpt lat="49.90451" lon="2.35388">
        <ele>59.1</ele>
        <time>2022-02-11T13:31:48Z</time>
      </trkpt>
      <trkpt lat="49.9045" lon="2.35389">
        <ele>59.1</ele>
        <time>2022-02-11T13:31:49Z</time>
      </trkpt>
      <trkpt lat="49.90449" lon="2.3539">
        <ele>59.1</ele>
        <time>2022-02-11T13:31:50Z</time>
      </trkpt>
      <trkpt lat="49.90448" lon="2.35391">
        <ele>59.1</ele>
        <time>2022-02-11T13:31:52Z</time>
      </trkpt>
      <trkpt lat="49.90447" lon="2.35392">
        <ele>59.1</ele>
        <time>2022-02-11T13:31:53Z</time>
      </trkpt>
      <trkpt lat="49.90447" lon="2.35393">
        <ele>59.2</ele>
        <time>2022-02-11T13:31:54Z</time>
      </trkpt>
      <trkpt lat="49.90446" lon="2.35395">
        <ele>59.2</ele>
        <time>2022-02-11T13:31:55Z</time>
      </trkpt>
      <trkpt lat="49.90445" lon="2.35396">
        <ele>59.2</ele>
        <time>2022-02-11T13:31:56Z</time>
      </trkpt>
      <trkpt lat="49.90445" lon="2.35399">
        <ele>59.2</ele>
        <time>2022-02-11T13:31:57Z</time>
      </trkpt>
      <trkpt lat="49.90445" lon="2.354">
        <ele>59.2</ele>
        <time>2022-02-11T13:31:58Z</time>
      </trkpt>
      <trkpt lat="49.90444" lon="2.35402">
        <ele>59.3</ele>
        <time>2022-02-11T13:32:00Z</time>
      </trkpt>
      <trkpt lat="49.90444" lon="2.35404">
        <ele>59.3</ele>
        <time>2022-02-11T13:32:01Z</time>
      </trkpt>
      <trkpt lat="49.90444" lon="2.35405">
        <ele>59.3</ele>
        <time>2022-02-11T13:32:02Z</time>
      </trkpt>
      <trkpt lat="49.90444" lon="2.35407">
        <ele>59.3</ele>
        <time>2022-02-11T13:32:03Z</time>
      </trkpt>
      <trkpt lat="49.90444" lon="2.35409">
        <ele>59.3</ele>
        <time>2022-02-11T13:32:04Z</time>
      </trkpt>
      <trkpt lat="49.90445" lon="2.35411">
        <ele>59.4</ele>
        <time>2022-02-11T13:32:05Z</time>
      </trkpt>
      <trkpt lat="49.90445" lon="2.35414">
        <ele>59.4</ele>
        <time>2022-02-11T13:32:06Z</time>
      </trkpt>
      <trkpt lat="49.90445" lon="2.35416">
        <ele>59.4</ele>
        <time>2022-02-11T13:32:08Z</time>
      </trkpt>
      <trkpt lat="49.90445" lon="2.35418">
        <ele>59.5</ele>
        <time>2022-02-11T13:32:09Z</time>
      </trkpt>
      <trkpt lat="49.90445" lon="2.3542">
        <ele>59.5</ele>
        <time>2022-02-11T13:32:10Z</time>
      </trkpt>
      <trkpt lat="49.90445" lon="2.35422">
        <ele>59.5</ele>
        <time>2022-02-11T13:32:11Z</time>
      </trkpt>
      <trkpt lat="49.90444" lon="2.35425">
        <ele>59.5</ele>
        <time>2022-02-11T13:32:12Z</time>
      </trkpt>
      <trkpt lat="49.90445" lon="2.35427">
        <ele>59.6</ele>
        <time>2022-02-11T13:32:13Z</time>
      </trkpt>
      <trkpt lat="49.90445" lon="2.35429">
        <ele>59.6</ele>
        <time>2022-02-11T13:32:14Z</time>
      </trkpt>
      <trkpt lat="49.90445" lon="2.35431">
        <ele>59.6</ele>
        <time>2022-02-11T13:32:16Z</time>
      </trkpt>
      <trkpt lat="49.90444" lon="2.35434">
        <ele>59.7</ele>
        <time>2022-02-11T13:32:17Z</time>
      </trkpt>
      <trkpt lat="49.90444" lon="2.35435">
        <ele>59.7</ele>
        <time>2022-02-11T13:32:18Z</time>
      </trkpt>
      <trkpt lat="49.90444" lon="2.35436">
        <ele>59.7</ele>
        <time>2022-02-11T13:32:19Z</time>
      </trkpt>
      <trkpt lat="49.90444" lon="2.3544">
        <ele>59.8</ele>
        <time>2022-02-11T13:32:20Z</time>
      </trkpt>
      <trkpt lat="49.90444" lon="2.35441">
        <ele>59.8</ele>
        <time>2022-02-11T13:32:21Z</time>
      </trkpt>
      <trkpt lat="49.90444" lon="2.35442">
        <ele>59.8</ele>
        <time>2022-02-11T13:32:22Z</time>
      </trkpt>
      <trkpt lat="49.90444" lon="2.35444">
        <ele>59.8</ele>
        <time>2022-02-11T13:32:23Z</time>
      </trkpt>
      <trkpt lat="49.90443" lon="2.35446">
        <ele>59.8</ele>
        <time>2022-02-11T13:32:25Z</time>
      </trkpt>
      <trkpt lat="49.90443" lon="2.35447">
        <ele>59.8</ele>
        <time>2022-02-11T13:32:26Z</time>
      </trkpt>
      <trkpt lat="49.90442" lon="2.35448">
        <ele>59.9</ele>
        <time>2022-02-11T13:32:27Z</time>
      </trkpt>
      <trkpt lat="49.90442" lon="2.3545">
        <ele>59.9</ele>
        <time>2022-02-11T13:32:28Z</time>
      </trkpt>
      <trkpt lat="49.90441" lon="2.35452">
        <ele>59.9</ele>
        <time>2022-02-11T13:32:29Z</time>
      </trkpt>
      <trkpt lat="49.90441" lon="2.35453">
        <ele>59.9</ele>
        <time>2022-02-11T13:32:30Z</time>
      </trkpt>
      <trkpt lat="49.90441" lon="2.35455">
        <ele>59.9</ele>
        <time>2022-02-11T13:32:31Z</time>
      </trkpt>
      <trkpt lat="49.9044" lon="2.35457">
        <ele>59.9</ele>
        <time>2022-02-11T13:32:33Z</time>
      </trkpt>
      <trkpt lat="49.9044" lon="2.35459">
        <ele>59.9</ele>
        <time>2022-02-11T13:32:34Z</time>
      </trkpt>
      <trkpt lat="49.90439" lon="2.3546">
        <ele>60</ele>
        <time>2022-02-11T13:32:35Z</time>
      </trkpt>
      <trkpt lat="49.90439" lon="2.35461">
        <ele>60</ele>
        <time>2022-02-11T13:32:36Z</time>
      </trkpt>
      <trkpt lat="49.90439" lon="2.35463">
        <ele>60</ele>
        <time>2022-02-11T13:32:37Z</time>
      </trkpt>
      <trkpt lat="49.90439" lon="2.35464">
        <ele>60</ele>
        <time>2022-02-11T13:32:38Z</time>
      </trkpt>
      <trkpt lat="49.90438" lon="2.35466">
        <ele>60</ele>
        <time>2022-02-11T13:32:39Z</time>
      </trkpt>
      <trkpt lat="49.90438" lon="2.35468">
        <ele>60</ele>
        <time>2022-02-11T13:32:40Z</time>
      </trkpt>
      <trkpt lat="49.90438" lon="2.35469">
        <ele>60</ele>
        <time>2022-02-11T13:32:42Z</time>
      </trkpt>
      <trkpt lat="49.90437" lon="2.35471">
        <ele>60</ele>
        <time>2022-02-11T13:32:43Z</time>
      </trkpt>
      <trkpt lat="49.90437" lon="2.35473">
        <ele>60.1</ele>
        <time>2022-02-11T13:32:44Z</time>
      </trkpt>
      <trkpt lat="49.90437" lon="2.35474">
        <ele>60.1</ele>
        <time>2022-02-11T13:32:45Z</time>
      </trkpt>
      <trkpt lat="49.90437" lon="2.35476">
        <ele>60.1</ele>
        <time>2022-02-11T13:32:46Z</time>
      </trkpt>
      <trkpt lat="49.90436" lon="2.35479">
        <ele>60.1</ele>
        <time>2022-02-11T13:32:47Z</time>
      </trkpt>
      <trkpt lat="49.90436" lon="2.35481">
        <ele>60.1</ele>
        <time>2022-02-11T13:32:48Z</time>
      </trkpt>
      <trkpt lat="49.90436" lon="2.35482">
        <ele>60.1</ele>
        <time>2022-02-11T13:32:49Z</time>
      </trkpt>
      <trkpt lat="49.90435" lon="2.35484">
        <ele>60.2</ele>
        <time>2022-02-11T13:32:50Z</time>
      </trkpt>
      <trkpt lat="49.90435" lon="2.35486">
        <ele>60.2</ele>
        <time>2022-02-11T13:32:51Z</time>
      </trkpt>
      <trkpt lat="49.90434" lon="2.35489">
        <ele>60.2</ele>
        <time>2022-02-11T13:32:53Z</time>
      </trkpt>
      <trkpt lat="49.90434" lon="2.35491">
        <ele>60.2</ele>
        <time>2022-02-11T13:32:54Z</time>
      </trkpt>
      <trkpt lat="49.90434" lon="2.35492">
        <ele>60.2</ele>
        <time>2022-02-11T13:32:55Z</time>
      </trkpt>
      <trkpt lat="49.90433" lon="2.35495">
        <ele>60.3</ele>
        <time>2022-02-11T13:32:56Z</time>
      </trkpt>
      <trkpt lat="49.90433" lon="2.35496">
        <ele>60.3</ele>
        <time>2022-02-11T13:32:57Z</time>
      </trkpt>
      <trkpt lat="49.90433" lon="2.35497">
        <ele>60.3</ele>
        <time>2022-02-11T13:32:58Z</time>
      </trkpt>
      <trkpt lat="49.90432" lon="2.35501">
        <ele>60.3</ele>
        <time>2022-02-11T13:32:59Z</time>
      </trkpt>
      <trkpt lat="49.90432" lon="2.35502">
        <ele>60.3</ele>
        <time>2022-02-11T13:33:00Z</time>
      </trkpt>
      <trkpt lat="49.90432" lon="2.35503">
        <ele>60.4</ele>
        <time>2022-02-11T13:33:01Z</time>
      </trkpt>
      <trkpt lat="49.90432" lon="2.35506">
        <ele>60.4</ele>
        <time>2022-02-11T13:33:03Z</time>
      </trkpt>
      <trkpt lat="49.90431" lon="2.35508">
        <ele>60.4</ele>
        <time>2022-02-11T13:33:04Z</time>
      </trkpt>
      <trkpt lat="49.90431" lon="2.35509">
        <ele>60.4</ele>
        <time>2022-02-11T13:33:05Z</time>
      </trkpt>
      <trkpt lat="49.90431" lon="2.35511">
        <ele>60.5</ele>
        <time>2022-02-11T13:33:06Z</time>
      </trkpt>
      <trkpt lat="49.90431" lon="2.35512">
        <ele>60.5</ele>
        <time>2022-02-11T13:33:07Z</time>
      </trkpt>
      <trkpt lat="49.9043" lon="2.35514">
        <ele>60.5</ele>
        <time>2022-02-11T13:33:08Z</time>
      </trkpt>
      <trkpt lat="49.9043" lon="2.35516">
        <ele>60.5</ele>
        <time>2022-02-11T13:33:09Z</time>
      </trkpt>
      <trkpt lat="49.9043" lon="2.35518">
        <ele>60.6</ele>
        <time>2022-02-11T13:33:11Z</time>
      </trkpt>
      <trkpt lat="49.9043" lon="2.3552">
        <ele>60.6</ele>
        <time>2022-02-11T13:33:12Z</time>
      </trkpt>
      <trkpt lat="49.90429" lon="2.35522">
        <ele>60.6</ele>
        <time>2022-02-11T13:33:13Z</time>
      </trkpt>
      <trkpt lat="49.90429" lon="2.35523">
        <ele>60.6</ele>
        <time>2022-02-11T13:33:14Z</time>
      </trkpt>
      <trkpt lat="49.90428" lon="2.35525">
        <ele>60.7</ele>
        <time>2022-02-11T13:33:15Z</time>
      </trkpt>
      <trkpt lat="49.90428" lon="2.35527">
        <ele>60.7</ele>
        <time>2022-02-11T13:33:16Z</time>
      </trkpt>
      <trkpt lat="49.90427" lon="2.35529">
        <ele>60.7</ele>
        <time>2022-02-11T13:33:18Z</time>
      </trkpt>
      <trkpt lat="49.90427" lon="2.35532">
        <ele>60.8</ele>
        <time>2022-02-11T13:33:19Z</time>
      </trkpt>
      <trkpt lat="49.90427" lon="2.35533">
        <ele>60.8</ele>
        <time>2022-02-11T13:33:20Z</time>
      </trkpt>
      <trkpt lat="49.90426" lon="2.35535">
        <ele>60.8</ele>
        <time>2022-02-11T13:33:21Z</time>
      </trkpt>
      <trkpt lat="49.90426" lon="2.35536">
        <ele>60.8</ele>
        <time>2022-02-11T13:33:22Z</time>
      </trkpt>
      <trkpt lat="49.90425" lon="2.35538">
        <ele>60.9</ele>
        <time>2022-02-11T13:33:23Z</time>
      </trkpt>
      <trkpt lat="49.90425" lon="2.35539">
        <ele>60.9</ele>
        <time>2022-02-11T13:33:24Z</time>
      </trkpt>
      <trkpt lat="49.90424" lon="2.35542">
        <ele>60.9</ele>
        <time>2022-02-11T13:33:25Z</time>
      </trkpt>
      <trkpt lat="49.90424" lon="2.35544">
        <ele>60.9</ele>
        <time>2022-02-11T13:33:26Z</time>
      </trkpt>
      <trkpt lat="49.90424" lon="2.35546">
        <ele>61</ele>
        <time>2022-02-11T13:33:28Z</time>
      </trkpt>
      <trkpt lat="49.90423" lon="2.35547">
        <ele>61</ele>
        <time>2022-02-11T13:33:29Z</time>
      </trkpt>
      <trkpt lat="49.90423" lon="2.35549">
        <ele>61</ele>
        <time>2022-02-11T13:33:30Z</time>
      </trkpt>
      <trkpt lat="49.90423" lon="2.3555">
        <ele>61</ele>
        <time>2022-02-11T13:33:31Z</time>
      </trkpt>
      <trkpt lat="49.90422" lon="2.35552">
        <ele>61</ele>
        <time>2022-02-11T13:33:32Z</time>
      </trkpt>
      <trkpt lat="49.90422" lon="2.35554">
        <ele>61</ele>
        <time>2022-02-11T13:33:33Z</time>
      </trkpt>
      <trkpt lat="49.90422" lon="2.35555">
        <ele>61.1</ele>
        <time>2022-02-11T13:33:34Z</time>
      </trkpt>
      <trkpt lat="49.90421" lon="2.35559">
        <ele>61.1</ele>
        <time>2022-02-11T13:33:35Z</time>
      </trkpt>
      <trkpt lat="49.90421" lon="2.3556">
        <ele>61.1</ele>
        <time>2022-02-11T13:33:37Z</time>
      </trkpt>
      <trkpt lat="49.90421" lon="2.35561">
        <ele>61.1</ele>
        <time>2022-02-11T13:33:38Z</time>
      </trkpt>
      <trkpt lat="49.90421" lon="2.35565">
        <ele>61.1</ele>
        <time>2022-02-11T13:33:39Z</time>
      </trkpt>
      <trkpt lat="49.9042" lon="2.35566">
        <ele>61.2</ele>
        <time>2022-02-11T13:33:40Z</time>
      </trkpt>
      <trkpt lat="49.9042" lon="2.35567">
        <ele>61.2</ele>
        <time>2022-02-11T13:33:41Z</time>
      </trkpt>
      <trkpt lat="49.9042" lon="2.35569">
        <ele>61.2</ele>
        <time>2022-02-11T13:33:42Z</time>
      </trkpt>
      <trkpt lat="49.90419" lon="2.35572">
        <ele>61.2</ele>
        <time>2022-02-11T13:33:44Z</time>
      </trkpt>
      <trkpt lat="49.90419" lon="2.35573">
        <ele>61.2</ele>
        <time>2022-02-11T13:33:45Z</time>
      </trkpt>
      <trkpt lat="49.90418" lon="2.35575">
        <ele>61.2</ele>
        <time>2022-02-11T13:33:46Z</time>
      </trkpt>
      <trkpt lat="49.90418" lon="2.35576">
        <ele>61.2</ele>
        <time>2022-02-11T13:33:47Z</time>
      </trkpt>
      <trkpt lat="49.90418" lon="2.3558">
        <ele>61.3</ele>
        <time>2022-02-11T13:33:48Z</time>
      </trkpt>
      <trkpt lat="49.90417" lon="2.35582">
        <ele>61.3</ele>
        <time>2022-02-11T13:33:50Z</time>
      </trkpt>
      <trkpt lat="49.90417" lon="2.35583">
        <ele>61.3</ele>
        <time>2022-02-11T13:33:51Z</time>
      </trkpt>
      <trkpt lat="49.90417" lon="2.35585">
        <ele>61.3</ele>
        <time>2022-02-11T13:33:52Z</time>
      </trkpt>
      <trkpt lat="49.90417" lon="2.35586">
        <ele>61.3</ele>
        <time>2022-02-11T13:33:53Z</time>
      </trkpt>
      <trkpt lat="49.90416" lon="2.35589">
        <ele>61.3</ele>
        <time>2022-02-11T13:33:54Z</time>
      </trkpt>
      <trkpt lat="49.90415" lon="2.35591">
        <ele>61.3</ele>
        <time>2022-02-11T13:33:55Z</time>
      </trkpt>
      <trkpt lat="49.90415" lon="2.35592">
        <ele>61.4</ele>
        <time>2022-02-11T13:33:56Z</time>
      </trkpt>
      <trkpt lat="49.90414" lon="2.35594">
        <ele>61.4</ele>
        <time>2022-02-11T13:33:57Z</time>
      </trkpt>
      <trkpt lat="49.90414" lon="2.35596">
        <ele>61.4</ele>
        <time>2022-02-11T13:33:59Z</time>
      </trkpt>
      <trkpt lat="49.90413" lon="2.35599">
        <ele>61.4</ele>
        <time>2022-02-11T13:34:00Z</time>
      </trkpt>
      <trkpt lat="49.90413" lon="2.356">
        <ele>61.4</ele>
        <time>2022-02-11T13:34:01Z</time>
      </trkpt>
      <trkpt lat="49.90413" lon="2.35601">
        <ele>61.4</ele>
        <time>2022-02-11T13:34:02Z</time>
      </trkpt>
      <trkpt lat="49.90412" lon="2.35605">
        <ele>61.5</ele>
        <time>2022-02-11T13:34:03Z</time>
      </trkpt>
      <trkpt lat="49.90412" lon="2.35606">
        <ele>61.5</ele>
        <time>2022-02-11T13:34:04Z</time>
      </trkpt>
      <trkpt lat="49.90412" lon="2.35607">
        <ele>61.5</ele>
        <time>2022-02-11T13:34:05Z</time>
      </trkpt>
      <trkpt lat="49.90412" lon="2.3561">
        <ele>61.5</ele>
        <time>2022-02-11T13:34:06Z</time>
      </trkpt>
      <trkpt lat="49.90411" lon="2.35611">
        <ele>61.5</ele>
        <time>2022-02-11T13:34:08Z</time>
      </trkpt>
      <trkpt lat="49.90411" lon="2.35613">
        <ele>61.6</ele>
        <time>2022-02-11T13:34:09Z</time>
      </trkpt>
      <trkpt lat="49.90411" lon="2.35614">
        <ele>61.6</ele>
        <time>2022-02-11T13:34:10Z</time>
      </trkpt>
      <trkpt lat="49.90411" lon="2.35616">
        <ele>61.6</ele>
        <time>2022-02-11T13:34:11Z</time>
      </trkpt>
      <trkpt lat="49.9041" lon="2.35618">
        <ele>61.6</ele>
        <time>2022-02-11T13:34:12Z</time>
      </trkpt>
      <trkpt lat="49.9041" lon="2.3562">
        <ele>61.6</ele>
        <time>2022-02-11T13:34:13Z</time>
      </trkpt>
      <trkpt lat="49.9041" lon="2.35621">
        <ele>61.6</ele>
        <time>2022-02-11T13:34:14Z</time>
      </trkpt>
      <trkpt lat="49.90409" lon="2.35623">
        <ele>61.7</ele>
        <time>2022-02-11T13:34:15Z</time>
      </trkpt>
      <trkpt lat="49.90409" lon="2.35625">
        <ele>61.7</ele>
        <time>2022-02-11T13:34:17Z</time>
      </trkpt>
      <trkpt lat="49.90409" lon="2.35627">
        <ele>61.7</ele>
        <time>2022-02-11T13:34:18Z</time>
      </trkpt>
      <trkpt lat="49.90408" lon="2.35628">
        <ele>61.7</ele>
        <time>2022-02-11T13:34:19Z</time>
      </trkpt>
      <trkpt lat="49.90408" lon="2.35631">
        <ele>61.7</ele>
        <time>2022-02-11T13:34:20Z</time>
      </trkpt>
      <trkpt lat="49.90408" lon="2.35633">
        <ele>61.7</ele>
        <time>2022-02-11T13:34:21Z</time>
      </trkpt>
      <trkpt lat="49.90407" lon="2.35634">
        <ele>61.8</ele>
        <time>2022-02-11T13:34:22Z</time>
      </trkpt>
      <trkpt lat="49.90407" lon="2.35637">
        <ele>61.8</ele>
        <time>2022-02-11T13:34:23Z</time>
      </trkpt>
      <trkpt lat="49.90406" lon="2.35639">
        <ele>61.8</ele>
        <time>2022-02-11T13:34:25Z</time>
      </trkpt>
      <trkpt lat="49.90406" lon="2.35641">
        <ele>61.8</ele>
        <time>2022-02-11T13:34:26Z</time>
      </trkpt>
      <trkpt lat="49.90406" lon="2.35642">
        <ele>61.8</ele>
        <time>2022-02-11T13:34:27Z</time>
      </trkpt>
      <trkpt lat="49.90406" lon="2.35644">
        <ele>61.8</ele>
        <time>2022-02-11T13:34:28Z</time>
      </trkpt>
      <trkpt lat="49.90405" lon="2.35647">
        <ele>61.9</ele>
        <time>2022-02-11T13:34:29Z</time>
      </trkpt>
      <trkpt lat="49.90405" lon="2.35648">
        <ele>61.9</ele>
        <time>2022-02-11T13:34:30Z</time>
      </trkpt>
      <trkpt lat="49.90405" lon="2.3565">
        <ele>61.9</ele>
        <time>2022-02-11T13:34:31Z</time>
      </trkpt>
      <trkpt lat="49.90404" lon="2.35652">
        <ele>61.9</ele>
        <time>2022-02-11T13:34:33Z</time>
      </trkpt>
      <trkpt lat="49.90404" lon="2.35653">
        <ele>61.9</ele>
        <time>2022-02-11T13:34:34Z</time>
      </trkpt>
      <trkpt lat="49.90403" lon="2.35655">
        <ele>61.9</ele>
        <time>2022-02-11T13:34:35Z</time>
      </trkpt>
      <trkpt lat="49.90403" lon="2.35656">
        <ele>62</ele>
        <time>2022-02-11T13:34:36Z</time>
      </trkpt>
      <trkpt lat="49.90403" lon="2.35658">
        <ele>62</ele>
        <time>2022-02-11T13:34:37Z</time>
      </trkpt>
      <trkpt lat="49.90402" lon="2.3566">
        <ele>62</ele>
        <time>2022-02-11T13:34:38Z</time>
      </trkpt>
      <trkpt lat="49.90402" lon="2.35663">
        <ele>62</ele>
        <time>2022-02-11T13:34:39Z</time>
      </trkpt>
      <trkpt lat="49.90402" lon="2.35665">
        <ele>62</ele>
        <time>2022-02-11T13:34:41Z</time>
      </trkpt>
      <trkpt lat="49.90402" lon="2.35666">
        <ele>62</ele>
        <time>2022-02-11T13:34:42Z</time>
      </trkpt>
      <trkpt lat="49.90401" lon="2.35667">
        <ele>62</ele>
        <time>2022-02-11T13:34:43Z</time>
      </trkpt>
      <trkpt lat="49.90401" lon="2.35669">
        <ele>62.1</ele>
        <time>2022-02-11T13:34:44Z</time>
      </trkpt>
      <trkpt lat="49.90401" lon="2.35671">
        <ele>62.1</ele>
        <time>2022-02-11T13:34:45Z</time>
      </trkpt>
      <trkpt lat="49.90401" lon="2.35674">
        <ele>62.1</ele>
        <time>2022-02-11T13:34:46Z</time>
      </trkpt>
      <trkpt lat="49.90401" lon="2.35676">
        <ele>62.1</ele>
        <time>2022-02-11T13:34:48Z</time>
      </trkpt>
      <trkpt lat="49.90401" lon="2.35677">
        <ele>62.1</ele>
        <time>2022-02-11T13:34:49Z</time>
      </trkpt>
      <trkpt lat="49.904" lon="2.3568">
        <ele>62.1</ele>
        <time>2022-02-11T13:34:50Z</time>
      </trkpt>
      <trkpt lat="49.904" lon="2.35681">
        <ele>62.1</ele>
        <time>2022-02-11T13:34:51Z</time>
      </trkpt>
      <trkpt lat="49.904" lon="2.35683">
        <ele>62.1</ele>
        <time>2022-02-11T13:34:52Z</time>
      </trkpt>
      <trkpt lat="49.90399" lon="2.35685">
        <ele>62.2</ele>
        <time>2022-02-11T13:34:53Z</time>
      </trkpt>
      <trkpt lat="49.90399" lon="2.35687">
        <ele>62.2</ele>
        <time>2022-02-11T13:34:54Z</time>
      </trkpt>
      <trkpt lat="49.90398" lon="2.3569">
        <ele>62.2</ele>
        <time>2022-02-11T13:34:56Z</time>
      </trkpt>
      <trkpt lat="49.90398" lon="2.35691">
        <ele>62.2</ele>
        <time>2022-02-11T13:34:57Z</time>
      </trkpt>
      <trkpt lat="49.90397" lon="2.35692">
        <ele>62.2</ele>
        <time>2022-02-11T13:34:58Z</time>
      </trkpt>
      <trkpt lat="49.90397" lon="2.35694">
        <ele>62.2</ele>
        <time>2022-02-11T13:34:59Z</time>
      </trkpt>
      <trkpt lat="49.90397" lon="2.35696">
        <ele>62.2</ele>
        <time>2022-02-11T13:35:00Z</time>
      </trkpt>
      <trkpt lat="49.90397" lon="2.35698">
        <ele>62.3</ele>
        <time>2022-02-11T13:35:01Z</time>
      </trkpt>
      <trkpt lat="49.90396" lon="2.35701">
        <ele>62.3</ele>
        <time>2022-02-11T13:35:03Z</time>
      </trkpt>
      <trkpt lat="49.90395" lon="2.35702">
        <ele>62.3</ele>
        <time>2022-02-11T13:35:04Z</time>
      </trkpt>
      <trkpt lat="49.90395" lon="2.35703">
        <ele>62.3</ele>
        <time>2022-02-11T13:35:05Z</time>
      </trkpt>
      <trkpt lat="49.90395" lon="2.35705">
        <ele>62.3</ele>
        <time>2022-02-11T13:35:06Z</time>
      </trkpt>
      <trkpt lat="49.90395" lon="2.35707">
        <ele>62.3</ele>
        <time>2022-02-11T13:35:07Z</time>
      </trkpt>
      <trkpt lat="49.90394" lon="2.35709">
        <ele>62.3</ele>
        <time>2022-02-11T13:35:08Z</time>
      </trkpt>
      <trkpt lat="49.90394" lon="2.3571">
        <ele>62.3</ele>
        <time>2022-02-11T13:35:09Z</time>
      </trkpt>
      <trkpt lat="49.90394" lon="2.35712">
        <ele>62.3</ele>
        <time>2022-02-11T13:35:10Z</time>
      </trkpt>
      <trkpt lat="49.90393" lon="2.35715">
        <ele>62.3</ele>
        <time>2022-02-11T13:35:12Z</time>
      </trkpt>
      <trkpt lat="49.90393" lon="2.35716">
        <ele>62.3</ele>
        <time>2022-02-11T13:35:13Z</time>
      </trkpt>
      <trkpt lat="49.90393" lon="2.35718">
        <ele>62.3</ele>
        <time>2022-02-11T13:35:14Z</time>
      </trkpt>
      <trkpt lat="49.90393" lon="2.3572">
        <ele>62.4</ele>
        <time>2022-02-11T13:35:15Z</time>
      </trkpt>
      <trkpt lat="49.90392" lon="2.35723">
        <ele>62.4</ele>
        <time>2022-02-11T13:35:16Z</time>
      </trkpt>
      <trkpt lat="49.90392" lon="2.35725">
        <ele>62.4</ele>
        <time>2022-02-11T13:35:17Z</time>
      </trkpt>
      <trkpt lat="49.90392" lon="2.35726">
        <ele>62.4</ele>
        <time>2022-02-11T13:35:18Z</time>
      </trkpt>
      <trkpt lat="49.90392" lon="2.35729">
        <ele>62.4</ele>
        <time>2022-02-11T13:35:19Z</time>
      </trkpt>
      <trkpt lat="49.90391" lon="2.3573">
        <ele>62.4</ele>
        <time>2022-02-11T13:35:21Z</time>
      </trkpt>
      <trkpt lat="49.90391" lon="2.35731">
        <ele>62.4</ele>
        <time>2022-02-11T13:35:22Z</time>
      </trkpt>
      <trkpt lat="49.90391" lon="2.35733">
        <ele>62.4</ele>
        <time>2022-02-11T13:35:23Z</time>
      </trkpt>
      <trkpt lat="49.90391" lon="2.35734">
        <ele>62.4</ele>
        <time>2022-02-11T13:35:24Z</time>
      </trkpt>
      <trkpt lat="49.9039" lon="2.35736">
        <ele>62.4</ele>
        <time>2022-02-11T13:35:25Z</time>
      </trkpt>
      <trkpt lat="49.9039" lon="2.35739">
        <ele>62.4</ele>
        <time>2022-02-11T13:35:26Z</time>
      </trkpt>
      <trkpt lat="49.90389" lon="2.35741">
        <ele>62.4</ele>
        <time>2022-02-11T13:35:27Z</time>
      </trkpt>
      <trkpt lat="49.90389" lon="2.35742">
        <ele>62.5</ele>
        <time>2022-02-11T13:35:28Z</time>
      </trkpt>
      <trkpt lat="49.90388" lon="2.35745">
        <ele>62.5</ele>
        <time>2022-02-11T13:35:30Z</time>
      </trkpt>
      <trkpt lat="49.90388" lon="2.35746">
        <ele>62.5</ele>
        <time>2022-02-11T13:35:31Z</time>
      </trkpt>
      <trkpt lat="49.90388" lon="2.35747">
        <ele>62.5</ele>
        <time>2022-02-11T13:35:32Z</time>
      </trkpt>
      <trkpt lat="49.90387" lon="2.3575">
        <ele>62.5</ele>
        <time>2022-02-11T13:35:33Z</time>
      </trkpt>
      <trkpt lat="49.90387" lon="2.35751">
        <ele>62.5</ele>
        <time>2022-02-11T13:35:34Z</time>
      </trkpt>
      <trkpt lat="49.90386" lon="2.35752">
        <ele>62.6</ele>
        <time>2022-02-11T13:35:35Z</time>
      </trkpt>
      <trkpt lat="49.90386" lon="2.35754">
        <ele>62.6</ele>
        <time>2022-02-11T13:35:36Z</time>
      </trkpt>
      <trkpt lat="49.90385" lon="2.35756">
        <ele>62.6</ele>
        <time>2022-02-11T13:35:37Z</time>
      </trkpt>
      <trkpt lat="49.90385" lon="2.35758">
        <ele>62.6</ele>
        <time>2022-02-11T13:35:39Z</time>
      </trkpt>
      <trkpt lat="49.90384" lon="2.35759">
        <ele>62.6</ele>
        <time>2022-02-11T13:35:40Z</time>
      </trkpt>
      <trkpt lat="49.90384" lon="2.35761">
        <ele>62.6</ele>
        <time>2022-02-11T13:35:41Z</time>
      </trkpt>
      <trkpt lat="49.90384" lon="2.35763">
        <ele>62.6</ele>
        <time>2022-02-11T13:35:42Z</time>
      </trkpt>
      <trkpt lat="49.90384" lon="2.35765">
        <ele>62.7</ele>
        <time>2022-02-11T13:35:43Z</time>
      </trkpt>
      <trkpt lat="49.90384" lon="2.35766">
        <ele>62.7</ele>
        <time>2022-02-11T13:35:45Z</time>
      </trkpt>
      <trkpt lat="49.90383" lon="2.35768">
        <ele>62.7</ele>
        <time>2022-02-11T13:35:46Z</time>
      </trkpt>
      <trkpt lat="49.90383" lon="2.35769">
        <ele>62.7</ele>
        <time>2022-02-11T13:35:47Z</time>
      </trkpt>
      <trkpt lat="49.90382" lon="2.35771">
        <ele>62.7</ele>
        <time>2022-02-11T13:35:48Z</time>
      </trkpt>
      <trkpt lat="49.90382" lon="2.35772">
        <ele>62.7</ele>
        <time>2022-02-11T13:35:49Z</time>
      </trkpt>
      <trkpt lat="49.90381" lon="2.35775">
        <ele>62.7</ele>
        <time>2022-02-11T13:35:50Z</time>
      </trkpt>
      <trkpt lat="49.90381" lon="2.35777">
        <ele>62.8</ele>
        <time>2022-02-11T13:35:51Z</time>
      </trkpt>
      <trkpt lat="49.90381" lon="2.35778">
        <ele>62.8</ele>
        <time>2022-02-11T13:35:52Z</time>
      </trkpt>
      <trkpt lat="49.9038" lon="2.3578">
        <ele>62.8</ele>
        <time>2022-02-11T13:35:54Z</time>
      </trkpt>
      <trkpt lat="49.9038" lon="2.35781">
        <ele>62.8</ele>
        <time>2022-02-11T13:35:55Z</time>
      </trkpt>
      <trkpt lat="49.90379" lon="2.35783">
        <ele>62.8</ele>
        <time>2022-02-11T13:35:56Z</time>
      </trkpt>
      <trkpt lat="49.90379" lon="2.35786">
        <ele>62.8</ele>
        <time>2022-02-11T13:35:57Z</time>
      </trkpt>
      <trkpt lat="49.90378" lon="2.35787">
        <ele>62.8</ele>
        <time>2022-02-11T13:35:58Z</time>
      </trkpt>
      <trkpt lat="49.90378" lon="2.35788">
        <ele>62.8</ele>
        <time>2022-02-11T13:35:59Z</time>
      </trkpt>
      <trkpt lat="49.90378" lon="2.35792">
        <ele>62.9</ele>
        <time>2022-02-11T13:36:00Z</time>
      </trkpt>
      <trkpt lat="49.90377" lon="2.35793">
        <ele>62.9</ele>
        <time>2022-02-11T13:36:01Z</time>
      </trkpt>
      <trkpt lat="49.90377" lon="2.35794">
        <ele>62.9</ele>
        <time>2022-02-11T13:36:02Z</time>
      </trkpt>
      <trkpt lat="49.90377" lon="2.35797">
        <ele>62.9</ele>
        <time>2022-02-11T13:36:04Z</time>
      </trkpt>
      <trkpt lat="49.90377" lon="2.35799">
        <ele>62.9</ele>
        <time>2022-02-11T13:36:05Z</time>
      </trkpt>
      <trkpt lat="49.90377" lon="2.358">
        <ele>62.9</ele>
        <time>2022-02-11T13:36:06Z</time>
      </trkpt>
      <trkpt lat="49.90376" lon="2.35802">
        <ele>62.9</ele>
        <time>2022-02-11T13:36:07Z</time>
      </trkpt>
      <trkpt lat="49.90376" lon="2.35804">
        <ele>62.9</ele>
        <time>2022-02-11T13:36:08Z</time>
      </trkpt>
      <trkpt lat="49.90376" lon="2.35806">
        <ele>62.9</ele>
        <time>2022-02-11T13:36:09Z</time>
      </trkpt>
      <trkpt lat="49.90376" lon="2.35808">
        <ele>62.9</ele>
        <time>2022-02-11T13:36:10Z</time>
      </trkpt>
      <trkpt lat="49.90376" lon="2.35809">
        <ele>62.9</ele>
        <time>2022-02-11T13:36:12Z</time>
      </trkpt>
      <trkpt lat="49.90375" lon="2.35811">
        <ele>62.9</ele>
        <time>2022-02-11T13:36:13Z</time>
      </trkpt>
      <trkpt lat="49.90375" lon="2.35813">
        <ele>62.9</ele>
        <time>2022-02-11T13:36:14Z</time>
      </trkpt>
      <trkpt lat="49.90374" lon="2.35814">
        <ele>62.9</ele>
        <time>2022-02-11T13:36:15Z</time>
      </trkpt>
      <trkpt lat="49.90374" lon="2.35816">
        <ele>63</ele>
        <time>2022-02-11T13:36:16Z</time>
      </trkpt>
      <trkpt lat="49.90373" lon="2.35817">
        <ele>63</ele>
        <time>2022-02-11T13:36:17Z</time>
      </trkpt>
      <trkpt lat="49.90373" lon="2.35819">
        <ele>63</ele>
        <time>2022-02-11T13:36:18Z</time>
      </trkpt>
      <trkpt lat="49.90373" lon="2.3582">
        <ele>63</ele>
        <time>2022-02-11T13:36:19Z</time>
      </trkpt>
      <trkpt lat="49.90373" lon="2.35822">
        <ele>63</ele>
        <time>2022-02-11T13:36:20Z</time>
      </trkpt>
      <trkpt lat="49.90372" lon="2.35824">
        <ele>63</ele>
        <time>2022-02-11T13:36:22Z</time>
      </trkpt>
      <trkpt lat="49.90372" lon="2.35827">
        <ele>63</ele>
        <time>2022-02-11T13:36:23Z</time>
      </trkpt>
      <trkpt lat="49.90371" lon="2.35828">
        <ele>63</ele>
        <time>2022-02-11T13:36:24Z</time>
      </trkpt>
      <trkpt lat="49.90371" lon="2.3583">
        <ele>63</ele>
        <time>2022-02-11T13:36:25Z</time>
      </trkpt>
      <trkpt lat="49.9037" lon="2.35833">
        <ele>63</ele>
        <time>2022-02-11T13:36:26Z</time>
      </trkpt>
      <trkpt lat="49.9037" lon="2.35834">
        <ele>63</ele>
        <time>2022-02-11T13:36:27Z</time>
      </trkpt>
      <trkpt lat="49.9037" lon="2.35835">
        <ele>63</ele>
        <time>2022-02-11T13:36:28Z</time>
      </trkpt>
      <trkpt lat="49.9037" lon="2.35837">
        <ele>63</ele>
        <time>2022-02-11T13:36:29Z</time>
      </trkpt>
      <trkpt lat="49.90369" lon="2.35839">
        <ele>63</ele>
        <time>2022-02-11T13:36:31Z</time>
      </trkpt>
      <trkpt lat="49.90369" lon="2.35841">
        <ele>63</ele>
        <time>2022-02-11T13:36:32Z</time>
      </trkpt>
      <trkpt lat="49.90368" lon="2.35843">
        <ele>63</ele>
        <time>2022-02-11T13:36:33Z</time>
      </trkpt>
      <trkpt lat="49.90368" lon="2.35844">
        <ele>63</ele>
        <time>2022-02-11T13:36:34Z</time>
      </trkpt>
      <trkpt lat="49.90367" lon="2.35846">
        <ele>63</ele>
        <time>2022-02-11T13:36:35Z</time>
      </trkpt>
      <trkpt lat="49.90366" lon="2.35848">
        <ele>63</ele>
        <time>2022-02-11T13:36:36Z</time>
      </trkpt>
      <trkpt lat="49.90366" lon="2.35849">
        <ele>63</ele>
        <time>2022-02-11T13:36:37Z</time>
      </trkpt>
      <trkpt lat="49.90365" lon="2.35852">
        <ele>63</ele>
        <time>2022-02-11T13:36:38Z</time>
      </trkpt>
      <trkpt lat="49.90365" lon="2.35853">
        <ele>63</ele>
        <time>2022-02-11T13:36:40Z</time>
      </trkpt>
      <trkpt lat="49.90364" lon="2.35854">
        <ele>63</ele>
        <time>2022-02-11T13:36:41Z</time>
      </trkpt>
      <trkpt lat="49.90364" lon="2.35856">
        <ele>63</ele>
        <time>2022-02-11T13:36:42Z</time>
      </trkpt>
      <trkpt lat="49.90364" lon="2.35858">
        <ele>63</ele>
        <time>2022-02-11T13:36:43Z</time>
      </trkpt>
      <trkpt lat="49.90363" lon="2.35859">
        <ele>63</ele>
        <time>2022-02-11T13:36:44Z</time>
      </trkpt>
      <trkpt lat="49.90363" lon="2.35862">
        <ele>63</ele>
        <time>2022-02-11T13:36:45Z</time>
      </trkpt>
      <trkpt lat="49.90362" lon="2.35864">
        <ele>63</ele>
        <time>2022-02-11T13:36:46Z</time>
      </trkpt>
      <trkpt lat="49.90362" lon="2.35865">
        <ele>63</ele>
        <time>2022-02-11T13:36:47Z</time>
      </trkpt>
      <trkpt lat="49.90362" lon="2.35868">
        <ele>63</ele>
        <time>2022-02-11T13:36:48Z</time>
      </trkpt>
      <trkpt lat="49.90362" lon="2.35869">
        <ele>63</ele>
        <time>2022-02-11T13:36:50Z</time>
      </trkpt>
      <trkpt lat="49.90362" lon="2.3587">
        <ele>63</ele>
        <time>2022-02-11T13:36:51Z</time>
      </trkpt>
      <trkpt lat="49.90362" lon="2.35874">
        <ele>63</ele>
        <time>2022-02-11T13:36:52Z</time>
      </trkpt>
      <trkpt lat="49.90362" lon="2.35875">
        <ele>63</ele>
        <time>2022-02-11T13:36:53Z</time>
      </trkpt>
      <trkpt lat="49.90362" lon="2.35876">
        <ele>63</ele>
        <time>2022-02-11T13:36:54Z</time>
      </trkpt>
      <trkpt lat="49.90362" lon="2.35879">
        <ele>63</ele>
        <time>2022-02-11T13:36:55Z</time>
      </trkpt>
      <trkpt lat="49.90362" lon="2.35881">
        <ele>63</ele>
        <time>2022-02-11T13:36:56Z</time>
      </trkpt>
      <trkpt lat="49.90362" lon="2.35882">
        <ele>63</ele>
        <time>2022-02-11T13:36:57Z</time>
      </trkpt>
      <trkpt lat="49.90362" lon="2.35884">
        <ele>63</ele>
        <time>2022-02-11T13:36:58Z</time>
      </trkpt>
      <trkpt lat="49.90362" lon="2.35886">
        <ele>63</ele>
        <time>2022-02-11T13:36:59Z</time>
      </trkpt>
      <trkpt lat="49.90362" lon="2.35888">
        <ele>63</ele>
        <time>2022-02-11T13:37:01Z</time>
      </trkpt>
      <trkpt lat="49.90361" lon="2.3589">
        <ele>63</ele>
        <time>2022-02-11T13:37:02Z</time>
      </trkpt>
      <trkpt lat="49.90361" lon="2.35891">
        <ele>63</ele>
        <time>2022-02-11T13:37:03Z</time>
      </trkpt>
      <trkpt lat="49.90361" lon="2.35893">
        <ele>63</ele>
        <time>2022-02-11T13:37:04Z</time>
      </trkpt>
      <trkpt lat="49.90361" lon="2.35894">
        <ele>63</ele>
        <time>2022-02-11T13:37:05Z</time>
      </trkpt>
      <trkpt lat="49.90361" lon="2.35896">
        <ele>63</ele>
        <time>2022-02-11T13:37:06Z</time>
      </trkpt>
      <trkpt lat="49.90361" lon="2.35898">
        <ele>63</ele>
        <time>2022-02-11T13:37:08Z</time>
      </trkpt>
      <trkpt lat="49.90361" lon="2.35899">
        <ele>63</ele>
        <time>2022-02-11T13:37:09Z</time>
      </trkpt>
      <trkpt lat="49.90361" lon="2.359">
        <ele>63</ele>
        <time>2022-02-11T13:37:10Z</time>
      </trkpt>
      <trkpt lat="49.90361" lon="2.359">
        <ele>63</ele>
        <time>2022-02-11T13:37:11Z</time>
      </trkpt>
      <trkpt lat="49.90361" lon="2.35901">
        <ele>63</ele>
        <time>2022-02-11T13:37:12Z</time>
      </trkpt>
      <trkpt lat="49.90361" lon="2.35901">
        <ele>63</ele>
        <time>2022-02-11T13:37:13Z</time>
      </trkpt>
      <trkpt lat="49.90361" lon="2.359">
        <ele>63</ele>
        <time>2022-02-11T13:37:14Z</time>
      </trkpt>
      <trkpt lat="49.90361" lon="2.359">
        <ele>63</ele>
        <time>2022-02-11T13:37:15Z</time>
      </trkpt>
      <trkpt lat="49.90361" lon="2.359">
        <ele>63</ele>
        <time>2022-02-11T13:37:16Z</time>
      </trkpt>
      <trkpt lat="49.90361" lon="2.359">
        <ele>63</ele>
        <time>2022-02-11T13:37:17Z</time>
      </trkpt>
      <trkpt lat="49.90361" lon="2.359">
        <ele>63</ele>
        <time>2022-02-11T13:37:18Z</time>
      </trkpt>
      <trkpt lat="49.90361" lon="2.359">
        <ele>63</ele>
        <time>2022-02-11T13:37:19Z</time>
      </trkpt>
      <trkpt lat="49.90361" lon="2.359">
        <ele>63</ele>
        <time>2022-02-11T13:37:20Z</time>
      </trkpt>
      <trkpt lat="49.90361" lon="2.359">
        <ele>63</ele>
        <time>2022-02-11T13:37:21Z</time>
      </trkpt>
      <trkpt lat="49.90361" lon="2.359">
        <ele>63</ele>
        <time>2022-02-11T13:37:22Z</time>
      </trkpt>
      <trkpt lat="49.90361" lon="2.359">
        <ele>63</ele>
        <time>2022-02-11T13:37:23Z</time>
      </trkpt>
      <trkpt lat="49.90361" lon="2.359">
        <ele>63</ele>
        <time>2022-02-11T13:37:24Z</time>
      </trkpt>
      <trkpt lat="49.90361" lon="2.359">
        <ele>63</ele>
        <time>2022-02-11T13:37:25Z</time>
      </trkpt>
      <trkpt lat="49.90361" lon="2.35899">
        <ele>63</ele>
        <time>2022-02-11T13:37:26Z</time>
      </trkpt>
      <trkpt lat="49.90361" lon="2.35899">
        <ele>63</ele>
        <time>2022-02-11T13:37:27Z</time>
      </trkpt>
      <trkpt lat="49.90361" lon="2.35898">
        <ele>63</ele>
        <time>2022-02-11T13:37:28Z</time>
      </trkpt>
      <trkpt lat="49.90361" lon="2.35898">
        <ele>63</ele>
        <time>2022-02-11T13:37:29Z</time>
      </trkpt>
      <trkpt lat="49.90361" lon="2.35898">
        <ele>63</ele>
        <time>2022-02-11T13:37:30Z</time>
      </trkpt>
      <trkpt lat="49.90361" lon="2.35898">
        <ele>63</ele>
        <time>2022-02-11T13:37:31Z</time>
      </trkpt>
      <trkpt lat="49.90361" lon="2.35898">
        <ele>63</ele>
        <time>2022-02-11T13:37:32Z</time>
      </trkpt>
      <trkpt lat="49.90361" lon="2.35898">
        <ele>63</ele>
        <time>2022-02-11T13:37:33Z</time>
      </trkpt>
      <trkpt lat="49.90361" lon="2.35898">
        <ele>63</ele>
        <time>2022-02-11T13:37:34Z</time>
      </trkpt>
      <trkpt lat="49.90361" lon="2.35898">
        <ele>63</ele>
        <time>2022-02-11T13:37:35Z</time>
      </trkpt>
      <trkpt lat="49.90361" lon="2.35898">
        <ele>63</ele>
        <time>2022-02-11T13:37:36Z</time>
      </trkpt>
      <trkpt lat="49.90361" lon="2.35898">
        <ele>63</ele>
        <time>2022-02-11T13:37:37Z</time>
      </trkpt>
      <trkpt lat="49.90361" lon="2.35898">
        <ele>63</ele>
        <time>2022-02-11T13:37:38Z</time>
      </trkpt>
      <trkpt lat="49.90361" lon="2.35898">
        <ele>63</ele>
        <time>2022-02-11T13:37:39Z</time>
      </trkpt>
      <trkpt lat="49.90361" lon="2.35898">
        <ele>63</ele>
        <time>2022-02-11T13:37:40Z</time>
      </trkpt>
      <trkpt lat="49.90361" lon="2.35898">
        <ele>63</ele>
        <time>2022-02-11T13:37:41Z</time>
      </trkpt>
      <trkpt lat="49.90361" lon="2.35898">
        <ele>63</ele>
        <time>2022-02-11T13:37:42Z</time>
      </trkpt>
      <trkpt lat="49.90361" lon="2.35898">
        <ele>63</ele>
        <time>2022-02-11T13:37:43Z</time>
      </trkpt>
      <trkpt lat="49.90361" lon="2.35898">
        <ele>63</ele>
        <time>2022-02-11T13:37:44Z</time>
      </trkpt>
      <trkpt lat="49.90361" lon="2.35898">
        <ele>63</ele>
        <time>2022-02-11T13:37:45Z</time>
      </trkpt>
      <trkpt lat="49.90361" lon="2.35898">
        <ele>63</ele>
        <time>2022-02-11T13:37:46Z</time>
      </trkpt>
      <trkpt lat="49.90361" lon="2.35898">
        <ele>63</ele>
        <time>2022-02-11T13:37:47Z</time>
      </trkpt>
      <trkpt lat="49.90361" lon="2.35898">
        <ele>63</ele>
        <time>2022-02-11T13:37:48Z</time>
      </trkpt>
      <trkpt lat="49.90361" lon="2.35898">
        <ele>63</ele>
        <time>2022-02-11T13:37:49Z</time>
      </trkpt>
      <trkpt lat="49.90361" lon="2.35898">
        <ele>63</ele>
        <time>2022-02-11T13:37:50Z</time>
      </trkpt>
      <trkpt lat="49.90361" lon="2.35898">
        <ele>63</ele>
        <time>2022-02-11T13:37:51Z</time>
      </trkpt>
      <trkpt lat="49.90361" lon="2.35898">
        <ele>63</ele>
        <time>2022-02-11T13:37:52Z</time>
      </trkpt>
      <trkpt lat="49.90361" lon="2.35898">
        <ele>63</ele>
        <time>2022-02-11T13:37:53Z</time>
      </trkpt>
      <trkpt lat="49.90361" lon="2.35898">
        <ele>63</ele>
        <time>2022-02-11T13:37:54Z</time>
      </trkpt>
      <trkpt lat="49.90361" lon="2.35898">
        <ele>63</ele>
        <time>2022-02-11T13:37:55Z</time>
      </trkpt>
      <trkpt lat="49.90361" lon="2.35898">
        <ele>63</ele>
        <time>2022-02-11T13:37:56Z</time>
      </trkpt>
      <trkpt lat="49.90361" lon="2.35898">
        <ele>63</ele>
        <time>2022-02-11T13:37:57Z</time>
      </trkpt>
      <trkpt lat="49.90361" lon="2.35898">
        <ele>63</ele>
        <time>2022-02-11T13:37:58Z</time>
      </trkpt>
      <trkpt lat="49.90361" lon="2.35898">
        <ele>63</ele>
        <time>2022-02-11T13:37:59Z</time>
      </trkpt>
      <trkpt lat="49.90361" lon="2.35898">
        <ele>63</ele>
        <time>2022-02-11T13:38:00Z</time>
      </trkpt>
      <trkpt lat="49.90361" lon="2.35898">
        <ele>63</ele>
        <time>2022-02-11T13:38:01Z</time>
      </trkpt>
      <trkpt lat="49.90361" lon="2.35898">
        <ele>63</ele>
        <time>2022-02-11T13:38:02Z</time>
      </trkpt>
      <trkpt lat="49.90361" lon="2.35898">
        <ele>63</ele>
        <time>2022-02-11T13:38:03Z</time>
      </trkpt>
      <trkpt lat="49.90361" lon="2.35898">
        <ele>63</ele>
        <time>2022-02-11T13:38:04Z</time>
      </trkpt>
      <trkpt lat="49.90361" lon="2.35898">
        <ele>63</ele>
        <time>2022-02-11T13:38:05Z</time>
      </trkpt>
      <trkpt lat="49.90361" lon="2.35898">
        <ele>63</ele>
        <time>2022-02-11T13:38:06Z</time>
      </trkpt>
      <trkpt lat="49.90361" lon="2.35898">
        <ele>63</ele>
        <time>2022-02-11T13:38:07Z</time>
      </trkpt>
      <trkpt lat="49.90361" lon="2.35898">
        <ele>63</ele>
        <time>2022-02-11T13:38:08Z</time>
      </trkpt>
      <trkpt lat="49.90361" lon="2.35898">
        <ele>63</ele>
        <time>2022-02-11T13:38:09Z</time>
      </trkpt>
      <trkpt lat="49.90361" lon="2.35898">
        <ele>63</ele>
        <time>2022-02-11T13:38:10Z</time>
      </trkpt>
      <trkpt lat="49.90361" lon="2.35898">
        <ele>63</ele>
        <time>2022-02-11T13:38:11Z</time>
      </trkpt>
      <trkpt lat="49.90361" lon="2.35898">
        <ele>63</ele>
        <time>2022-02-11T13:38:12Z</time>
      </trkpt>
      <trkpt lat="49.90361" lon="2.35898">
        <ele>63</ele>
        <time>2022-02-11T13:38:13Z</time>
      </trkpt>
      <trkpt lat="49.90361" lon="2.35898">
        <ele>63</ele>
        <time>2022-02-11T13:38:14Z</time>
      </trkpt>
      <trkpt lat="49.90361" lon="2.35898">
        <ele>63</ele>
        <time>2022-02-11T13:38:15Z</time>
      </trkpt>
      <trkpt lat="49.90361" lon="2.35898">
        <ele>63</ele>
        <time>2022-02-11T13:38:16Z</time>
      </trkpt>
      <trkpt lat="49.90361" lon="2.35898">
        <ele>63</ele>
        <time>2022-02-11T13:38:17Z</time>
      </trkpt>
      <trkpt lat="49.90361" lon="2.35898">
        <ele>63</ele>
        <time>2022-02-11T13:38:18Z</time>
      </trkpt>
      <trkpt lat="49.90361" lon="2.35898">
        <ele>63</ele>
        <time>2022-02-11T13:38:19Z</time>
      </trkpt>
      <trkpt lat="49.90361" lon="2.35898">
        <ele>63</ele>
        <time>2022-02-11T13:38:20Z</time>
      </trkpt>
      <trkpt lat="49.90361" lon="2.35898">
        <ele>63</ele>
        <time>2022-02-11T13:38:21Z</time>
      </trkpt>
      <trkpt lat="49.90361" lon="2.35898">
        <ele>63</ele>
        <time>2022-02-11T13:38:22Z</time>
      </trkpt>
      <trkpt lat="49.90361" lon="2.35898">
        <ele>63</ele>
        <time>2022-02-11T13:38:23Z</time>
      </trkpt>
      <trkpt lat="49.90361" lon="2.35898">
        <ele>63</ele>
        <time>2022-02-11T13:38:24Z</time>
      </trkpt>
      <trkpt lat="49.90361" lon="2.35898">
        <ele>63</ele>
        <time>2022-02-11T13:38:25Z</time>
      </trkpt>
      <trkpt lat="49.90361" lon="2.35898">
        <ele>63</ele>
        <time>2022-02-11T13:38:26Z</time>
      </trkpt>
      <trkpt lat="49.90361" lon="2.35898">
        <ele>63</ele>
        <time>2022-02-11T13:38:27Z</time>
      </trkpt>
      <trkpt lat="49.90361" lon="2.35898">
        <ele>63</ele>
        <time>2022-02-11T13:38:28Z</time>
      </trkpt>
      <trkpt lat="49.90361" lon="2.35898">
        <ele>63</ele>
        <time>2022-02-11T13:38:29Z</time>
      </trkpt>
      <trkpt lat="49.90361" lon="2.35898">
        <ele>63</ele>
        <time>2022-02-11T13:38:30Z</time>
      </trkpt>
      <trkpt lat="49.90361" lon="2.35898">
        <ele>63</ele>
        <time>2022-02-11T13:38:31Z</time>
      </trkpt>
      <trkpt lat="49.90361" lon="2.35898">
        <ele>63</ele>
        <time>2022-02-11T13:38:32Z</time>
      </trkpt>
      <trkpt lat="49.90361" lon="2.35898">
        <ele>63</ele>
        <time>2022-02-11T13:38:33Z</time>
      </trkpt>
      <trkpt lat="49.90361" lon="2.35898">
        <ele>63</ele>
        <time>2022-02-11T13:38:34Z</time>
      </trkpt>
      <trkpt lat="49.90361" lon="2.35898">
        <ele>63</ele>
        <time>2022-02-11T13:38:35Z</time>
      </trkpt>
      <trkpt lat="49.90361" lon="2.35898">
        <ele>63</ele>
        <time>2022-02-11T13:38:36Z</time>
      </trkpt>
      <trkpt lat="49.90361" lon="2.35898">
        <ele>63</ele>
        <time>2022-02-11T13:38:37Z</time>
      </trkpt>
      <trkpt lat="49.90361" lon="2.35898">
        <ele>63</ele>
        <time>2022-02-11T13:38:38Z</time>
      </trkpt>
      <trkpt lat="49.90361" lon="2.35898">
        <ele>63</ele>
        <time>2022-02-11T13:38:39Z</time>
      </trkpt>
      <trkpt lat="49.90361" lon="2.35898">
        <ele>63</ele>
        <time>2022-02-11T13:38:40Z</time>
      </trkpt>
      <trkpt lat="49.90361" lon="2.35898">
        <ele>63</ele>
        <time>2022-02-11T13:38:41Z</time>
      </trkpt>
      <trkpt lat="49.90361" lon="2.35898">
        <ele>63</ele>
        <time>2022-02-11T13:38:42Z</time>
      </trkpt>
      <trkpt lat="49.90361" lon="2.35898">
        <ele>63</ele>
        <time>2022-02-11T13:38:43Z</time>
      </trkpt>
      <trkpt lat="49.90361" lon="2.35898">
        <ele>63</ele>
        <time>2022-02-11T13:38:44Z</time>
      </trkpt>
      <trkpt lat="49.90361" lon="2.35898">
        <ele>63</ele>
        <time>2022-02-11T13:38:45Z</time>
      </trkpt>
      <trkpt lat="49.90361" lon="2.35898">
        <ele>63</ele>
        <time>2022-02-11T13:38:46Z</time>
      </trkpt>
      <trkpt lat="49.90361" lon="2.35898">
        <ele>63</ele>
        <time>2022-02-11T13:38:47Z</time>
      </trkpt>
      <trkpt lat="49.90361" lon="2.35898">
        <ele>63</ele>
        <time>2022-02-11T13:38:48Z</time>
      </trkpt>
      <trkpt lat="49.90361" lon="2.35898">
        <ele>63</ele>
        <time>2022-02-11T13:38:49Z</time>
      </trkpt>
      <trkpt lat="49.90361" lon="2.35898">
        <ele>63</ele>
        <time>2022-02-11T13:38:50Z</time>
      </trkpt>
      <trkpt lat="49.90361" lon="2.35898">
        <ele>63</ele>
        <time>2022-02-11T13:38:51Z</time>
      </trkpt>
      <trkpt lat="49.90361" lon="2.35898">
        <ele>63</ele>
        <time>2022-02-11T13:38:52Z</time>
      </trkpt>
      <trkpt lat="49.90361" lon="2.35898">
        <ele>63</ele>
        <time>2022-02-11T13:38:53Z</time>
      </trkpt>
      <trkpt lat="49.90361" lon="2.35898">
        <ele>63</ele>
        <time>2022-02-11T13:38:54Z</time>
      </trkpt>
      <trkpt lat="49.90361" lon="2.35898">
        <ele>63</ele>
        <time>2022-02-11T13:38:55Z</time>
      </trkpt>
      <trkpt lat="49.90361" lon="2.35898">
        <ele>63</ele>
        <time>2022-02-11T13:38:56Z</time>
      </trkpt>
      <trkpt lat="49.90361" lon="2.35898">
        <ele>63</ele>
        <time>2022-02-11T13:38:57Z</time>
      </trkpt>
      <trkpt lat="49.90361" lon="2.35898">
        <ele>63</ele>
        <time>2022-02-11T13:38:58Z</time>
      </trkpt>
      <trkpt lat="49.90361" lon="2.35898">
        <ele>63</ele>
        <time>2022-02-11T13:38:59Z</time>
      </trkpt>
      <trkpt lat="49.90361" lon="2.35898">
        <ele>63</ele>
        <time>2022-02-11T13:39:00Z</time>
      </trkpt>
      <trkpt lat="49.90361" lon="2.35898">
        <ele>63</ele>
        <time>2022-02-11T13:39:01Z</time>
      </trkpt>
      <trkpt lat="49.90361" lon="2.35898">
        <ele>63</ele>
        <time>2022-02-11T13:39:02Z</time>
      </trkpt>
      <trkpt lat="49.90361" lon="2.35898">
        <ele>63</ele>
        <time>2022-02-11T13:39:03Z</time>
      </trkpt>
      <trkpt lat="49.90361" lon="2.35898">
        <ele>63</ele>
        <time>2022-02-11T13:39:04Z</time>
      </trkpt>
      <trkpt lat="49.90361" lon="2.35898">
        <ele>63</ele>
        <time>2022-02-11T13:39:05Z</time>
      </trkpt>
      <trkpt lat="49.90361" lon="2.35898">
        <ele>63</ele>
        <time>2022-02-11T13:39:06Z</time>
      </trkpt>
      <trkpt lat="49.90361" lon="2.35898">
        <ele>63</ele>
        <time>2022-02-11T13:39:07Z</time>
      </trkpt>
      <trkpt lat="49.90361" lon="2.35898">
        <ele>63</ele>
        <time>2022-02-11T13:39:08Z</time>
      </trkpt>
      <trkpt lat="49.90361" lon="2.35898">
        <ele>63</ele>
        <time>2022-02-11T13:39:09Z</time>
      </trkpt>
      <trkpt lat="49.90361" lon="2.35898">
        <ele>63</ele>
        <time>2022-02-11T13:39:10Z</time>
      </trkpt>
      <trkpt lat="49.90361" lon="2.35898">
        <ele>63</ele>
        <time>2022-02-11T13:39:11Z</time>
      </trkpt>
      <trkpt lat="49.90361" lon="2.35898">
        <ele>63</ele>
        <time>2022-02-11T13:39:12Z</time>
      </trkpt>
      <trkpt lat="49.90361" lon="2.35898">
        <ele>63</ele>
        <time>2022-02-11T13:39:13Z</time>
      </trkpt>
      <trkpt lat="49.90361" lon="2.35898">
        <ele>63</ele>
        <time>2022-02-11T13:39:14Z</time>
      </trkpt>
      <trkpt lat="49.90361" lon="2.35898">
        <ele>63</ele>
        <time>2022-02-11T13:39:15Z</time>
      </trkpt>
      <trkpt lat="49.90361" lon="2.35898">
        <ele>63</ele>
        <time>2022-02-11T13:39:16Z</time>
      </trkpt>
      <trkpt lat="49.90361" lon="2.35898">
        <ele>63</ele>
        <time>2022-02-11T13:39:17Z</time>
      </trkpt>
      <trkpt lat="49.90361" lon="2.35898">
        <ele>63</ele>
        <time>2022-02-11T13:39:18Z</time>
      </trkpt>
      <trkpt lat="49.90361" lon="2.35898">
        <ele>63</ele>
        <time>2022-02-11T13:39:19Z</time>
      </trkpt>
      <trkpt lat="49.90361" lon="2.35898">
        <ele>63</ele>
        <time>2022-02-11T13:39:20Z</time>
      </trkpt>
      <trkpt lat="49.90361" lon="2.35898">
        <ele>63</ele>
        <time>2022-02-11T13:39:21Z</time>
      </trkpt>
      <trkpt lat="49.90361" lon="2.35898">
        <ele>63</ele>
        <time>2022-02-11T13:39:22Z</time>
      </trkpt>
      <trkpt lat="49.90361" lon="2.35898">
        <ele>63</ele>
        <time>2022-02-11T13:39:23Z</time>
      </trkpt>
      <trkpt lat="49.90361" lon="2.35898">
        <ele>63</ele>
        <time>2022-02-11T13:39:24Z</time>
      </trkpt>
      <trkpt lat="49.90361" lon="2.35898">
        <ele>63</ele>
        <time>2022-02-11T13:39:25Z</time>
      </trkpt>
      <trkpt lat="49.90361" lon="2.35898">
        <ele>63</ele>
        <time>2022-02-11T13:39:26Z</time>
      </trkpt>
      <trkpt lat="49.90361" lon="2.35898">
        <ele>63</ele>
        <time>2022-02-11T13:39:27Z</time>
      </trkpt>
      <trkpt lat="49.90361" lon="2.35898">
        <ele>63</ele>
        <time>2022-02-11T13:39:28Z</time>
      </trkpt>
      <trkpt lat="49.90361" lon="2.35898">
        <ele>63</ele>
        <time>2022-02-11T13:39:29Z</time>
      </trkpt>
      <trkpt lat="49.90361" lon="2.35898">
        <ele>63</ele>
        <time>2022-02-11T13:39:30Z</time>
      </trkpt>
      <trkpt lat="49.90361" lon="2.35898">
        <ele>63</ele>
        <time>2022-02-11T13:39:31Z</time>
      </trkpt>
      <trkpt lat="49.90361" lon="2.35898">
        <ele>63</ele>
        <time>2022-02-11T13:39:32Z</time>
      </trkpt>
      <trkpt lat="49.90361" lon="2.35898">
        <ele>63</ele>
        <time>2022-02-11T13:39:33Z</time>
      </trkpt>
      <trkpt lat="49.90361" lon="2.35898">
        <ele>63</ele>
        <time>2022-02-11T13:39:34Z</time>
      </trkpt>
      <trkpt lat="49.90361" lon="2.35898">
        <ele>63</ele>
        <time>2022-02-11T13:39:35Z</time>
      </trkpt>
      <trkpt lat="49.90361" lon="2.35898">
        <ele>63</ele>
        <time>2022-02-11T13:39:36Z</time>
      </trkpt>
      <trkpt lat="49.90361" lon="2.35898">
        <ele>63</ele>
        <time>2022-02-11T13:39:37Z</time>
      </trkpt>
      <trkpt lat="49.90361" lon="2.35898">
        <ele>63</ele>
        <time>2022-02-11T13:39:38Z</time>
      </trkpt>
      <trkpt lat="49.90361" lon="2.35898">
        <ele>63</ele>
        <time>2022-02-11T13:39:39Z</time>
      </trkpt>
      <trkpt lat="49.90361" lon="2.35898">
        <ele>63</ele>
        <time>2022-02-11T13:39:40Z</time>
      </trkpt>
      <trkpt lat="49.90361" lon="2.35898">
        <ele>63</ele>
        <time>2022-02-11T13:39:41Z</time>
      </trkpt>
      <trkpt lat="49.90361" lon="2.35898">
        <ele>63</ele>
        <time>2022-02-11T13:39:42Z</time>
      </trkpt>
      <trkpt lat="49.90361" lon="2.35898">
        <ele>63</ele>
        <time>2022-02-11T13:39:43Z</time>
      </trkpt>
      <trkpt lat="49.90361" lon="2.35898">
        <ele>63</ele>
        <time>2022-02-11T13:39:44Z</time>
      </trkpt>
      <trkpt lat="49.90361" lon="2.35898">
        <ele>63</ele>
        <time>2022-02-11T13:39:45Z</time>
      </trkpt>
      <trkpt lat="49.90361" lon="2.35898">
        <ele>63</ele>
        <time>2022-02-11T13:39:46Z</time>
      </trkpt>
      <trkpt lat="49.90361" lon="2.35898">
        <ele>63</ele>
        <time>2022-02-11T13:39:47Z</time>
      </trkpt>
      <trkpt lat="49.90361" lon="2.35898">
        <ele>63</ele>
        <time>2022-02-11T13:39:48Z</time>
      </trkpt>
      <trkpt lat="49.90361" lon="2.35898">
        <ele>63</ele>
        <time>2022-02-11T13:39:49Z</time>
      </trkpt>
      <trkpt lat="49.90361" lon="2.35898">
        <ele>63</ele>
        <time>2022-02-11T13:39:50Z</time>
      </trkpt>
      <trkpt lat="49.90361" lon="2.35898">
        <ele>63</ele>
        <time>2022-02-11T13:39:51Z</time>
      </trkpt>
      <trkpt lat="49.90361" lon="2.35898">
        <ele>63</ele>
        <time>2022-02-11T13:39:52Z</time>
      </trkpt>
      <trkpt lat="49.90361" lon="2.35898">
        <ele>63</ele>
        <time>2022-02-11T13:39:53Z</time>
      </trkpt>
      <trkpt lat="49.90361" lon="2.35898">
        <ele>63</ele>
        <time>2022-02-11T13:39:54Z</time>
      </trkpt>
      <trkpt lat="49.90361" lon="2.35898">
        <ele>63</ele>
        <time>2022-02-11T13:39:55Z</time>
      </trkpt>
      <trkpt lat="49.90361" lon="2.35898">
        <ele>63</ele>
        <time>2022-02-11T13:39:56Z</time>
      </trkpt>
      <trkpt lat="49.90361" lon="2.35898">
        <ele>63</ele>
        <time>2022-02-11T13:39:57Z</time>
      </trkpt>
      <trkpt lat="49.90361" lon="2.35898">
        <ele>63</ele>
        <time>2022-02-11T13:39:58Z</time>
      </trkpt>
      <trkpt lat="49.90361" lon="2.35898">
        <ele>63</ele>
        <time>2022-02-11T13:39:59Z</time>
      </trkpt>
      <trkpt lat="49.90361" lon="2.35898">
        <ele>63</ele>
        <time>2022-02-11T13:40:00Z</time>
      </trkpt>
      <trkpt lat="49.90362" lon="2.35896">
        <ele>63</ele>
        <time>2022-02-11T13:40:01Z</time>
      </trkpt>
      <trkpt lat="49.90362" lon="2.35894">
        <ele>63</ele>
        <time>2022-02-11T13:40:02Z</time>
      </trkpt>
      <trkpt lat="49.90362" lon="2.35894">
        <ele>63</ele>
        <time>2022-02-11T13:40:03Z</time>
      </trkpt>
      <trkpt lat="49.90362" lon="2.35896">
        <ele>63</ele>
        <time>2022-02-11T13:40:04Z</time>
      </trkpt>
      <trkpt lat="49.90362" lon="2.35897">
        <ele>63</ele>
        <time>2022-02-11T13:40:05Z</time>
      </trkpt>
      <trkpt lat="49.90362" lon="2.35899">
        <ele>63</ele>
        <time>2022-02-11T13:40:06Z</time>
      </trkpt>
      <trkpt lat="49.90362" lon="2.359">
        <ele>63</ele>
        <time>2022-02-11T13:40:07Z</time>
      </trkpt>
      <trkpt lat="49.90362" lon="2.35901">
        <ele>63</ele>
        <time>2022-02-11T13:40:08Z</time>
      </trkpt>
      <trkpt lat="49.90362" lon="2.35902">
        <ele>63</ele>
        <time>2022-02-11T13:40:10Z</time>
      </trkpt>
      <trkpt lat="49.90362" lon="2.35903">
        <ele>63</ele>
        <time>2022-02-11T13:40:11Z</time>
      </trkpt>
      <trkpt lat="49.90362" lon="2.35905">
        <ele>63</ele>
        <time>2022-02-11T13:40:12Z</time>
      </trkpt>
      <trkpt lat="49.90362" lon="2.35906">
        <ele>63</ele>
        <time>2022-02-11T13:40:13Z</time>
      </trkpt>
      <trkpt lat="49.90361" lon="2.3591">
        <ele>63</ele>
        <time>2022-02-11T13:40:14Z</time>
      </trkpt>
      <trkpt lat="49.90361" lon="2.35912">
        <ele>63</ele>
        <time>2022-02-11T13:40:15Z</time>
      </trkpt>
      <trkpt lat="49.90361" lon="2.35914">
        <ele>63</ele>
        <time>2022-02-11T13:40:16Z</time>
      </trkpt>
      <trkpt lat="49.9036" lon="2.35917">
        <ele>63</ele>
        <time>2022-02-11T13:40:17Z</time>
      </trkpt>
      <trkpt lat="49.9036" lon="2.35919">
        <ele>63</ele>
        <time>2022-02-11T13:40:19Z</time>
      </trkpt>
      <trkpt lat="49.90359" lon="2.35921">
        <ele>63</ele>
        <time>2022-02-11T13:40:20Z</time>
      </trkpt>
      <trkpt lat="49.90359" lon="2.35925">
        <ele>63.1</ele>
        <time>2022-02-11T13:40:21Z</time>
      </trkpt>
      <trkpt lat="49.90359" lon="2.35926">
        <ele>63.1</ele>
        <time>2022-02-11T13:40:22Z</time>
      </trkpt>
      <trkpt lat="49.90359" lon="2.35928">
        <ele>63.1</ele>
        <time>2022-02-11T13:40:23Z</time>
      </trkpt>
      <trkpt lat="49.90359" lon="2.3593">
        <ele>63.1</ele>
        <time>2022-02-11T13:40:24Z</time>
      </trkpt>
      <trkpt lat="49.90358" lon="2.35932">
        <ele>63.1</ele>
        <time>2022-02-11T13:40:25Z</time>
      </trkpt>
      <trkpt lat="49.90358" lon="2.35935">
        <ele>63.1</ele>
        <time>2022-02-11T13:40:26Z</time>
      </trkpt>
      <trkpt lat="49.90357" lon="2.35937">
        <ele>63.1</ele>
        <time>2022-02-11T13:40:27Z</time>
      </trkpt>
      <trkpt lat="49.90357" lon="2.3594">
        <ele>63.1</ele>
        <time>2022-02-11T13:40:28Z</time>
      </trkpt>
      <trkpt lat="49.90356" lon="2.35941">
        <ele>63.1</ele>
        <time>2022-02-11T13:40:29Z</time>
      </trkpt>
      <trkpt lat="49.90356" lon="2.35943">
        <ele>63.1</ele>
        <time>2022-02-11T13:40:30Z</time>
      </trkpt>
      <trkpt lat="49.90356" lon="2.35945">
        <ele>63.1</ele>
        <time>2022-02-11T13:40:31Z</time>
      </trkpt>
      <trkpt lat="49.90356" lon="2.35947">
        <ele>63.1</ele>
        <time>2022-02-11T13:40:32Z</time>
      </trkpt>
      <trkpt lat="49.90356" lon="2.3595">
        <ele>63.1</ele>
        <time>2022-02-11T13:40:34Z</time>
      </trkpt>
      <trkpt lat="49.90356" lon="2.35952">
        <ele>63.1</ele>
        <time>2022-02-11T13:40:35Z</time>
      </trkpt>
      <trkpt lat="49.90355" lon="2.35953">
        <ele>63.1</ele>
        <time>2022-02-11T13:40:36Z</time>
      </trkpt>
      <trkpt lat="49.90355" lon="2.35955">
        <ele>63.1</ele>
        <time>2022-02-11T13:40:37Z</time>
      </trkpt>
      <trkpt lat="49.90355" lon="2.35956">
        <ele>63.1</ele>
        <time>2022-02-11T13:40:38Z</time>
      </trkpt>
      <trkpt lat="49.90355" lon="2.35958">
        <ele>63.1</ele>
        <time>2022-02-11T13:40:39Z</time>
      </trkpt>
      <trkpt lat="49.90355" lon="2.35959">
        <ele>63.1</ele>
        <time>2022-02-11T13:40:40Z</time>
      </trkpt>
      <trkpt lat="49.90355" lon="2.35961">
        <ele>63.1</ele>
        <time>2022-02-11T13:40:41Z</time>
      </trkpt>
      <trkpt lat="49.90355" lon="2.35962">
        <ele>63.1</ele>
        <time>2022-02-11T13:40:42Z</time>
      </trkpt>
      <trkpt lat="49.90355" lon="2.35965">
        <ele>63.1</ele>
        <time>2022-02-11T13:40:43Z</time>
      </trkpt>
      <trkpt lat="49.90354" lon="2.35966">
        <ele>63.1</ele>
        <time>2022-02-11T13:40:45Z</time>
      </trkpt>
      <trkpt lat="49.90354" lon="2.35968">
        <ele>63.1</ele>
        <time>2022-02-11T13:40:46Z</time>
      </trkpt>
      <trkpt lat="49.90353" lon="2.3597">
        <ele>63.1</ele>
        <time>2022-02-11T13:40:47Z</time>
      </trkpt>
      <trkpt lat="49.90353" lon="2.35972">
        <ele>63.1</ele>
        <time>2022-02-11T13:40:48Z</time>
      </trkpt>
      <trkpt lat="49.90353" lon="2.35973">
        <ele>63.1</ele>
        <time>2022-02-11T13:40:49Z</time>
      </trkpt>
      <trkpt lat="49.90352" lon="2.35976">
        <ele>63.1</ele>
        <time>2022-02-11T13:40:50Z</time>
      </trkpt>
      <trkpt lat="49.90352" lon="2.35978">
        <ele>63.1</ele>
        <time>2022-02-11T13:40:52Z</time>
      </trkpt>
      <trkpt lat="49.90351" lon="2.35979">
        <ele>63.1</ele>
        <time>2022-02-11T13:40:53Z</time>
      </trkpt>
      <trkpt lat="49.90351" lon="2.35983">
        <ele>63.1</ele>
        <time>2022-02-11T13:40:54Z</time>
      </trkpt>
      <trkpt lat="49.90351" lon="2.35984">
        <ele>63.1</ele>
        <time>2022-02-11T13:40:56Z</time>
      </trkpt>
      <trkpt lat="49.9035" lon="2.35986">
        <ele>63.1</ele>
        <time>2022-02-11T13:40:57Z</time>
      </trkpt>
      <trkpt lat="49.9035" lon="2.35987">
        <ele>63.1</ele>
        <time>2022-02-11T13:40:58Z</time>
      </trkpt>
      <trkpt lat="49.9035" lon="2.35989">
        <ele>63.1</ele>
        <time>2022-02-11T13:40:59Z</time>
      </trkpt>
      <trkpt lat="49.90349" lon="2.35992">
        <ele>63.1</ele>
        <time>2022-02-11T13:41:00Z</time>
      </trkpt>
      <trkpt lat="49.90349" lon="2.35993">
        <ele>63.1</ele>
        <time>2022-02-11T13:41:01Z</time>
      </trkpt>
      <trkpt lat="49.90349" lon="2.35994">
        <ele>63.1</ele>
        <time>2022-02-11T13:41:02Z</time>
      </trkpt>
      <trkpt lat="49.90349" lon="2.35997">
        <ele>63.1</ele>
        <time>2022-02-11T13:41:03Z</time>
      </trkpt>
      <trkpt lat="49.90349" lon="2.35999">
        <ele>63.1</ele>
        <time>2022-02-11T13:41:04Z</time>
      </trkpt>
      <trkpt lat="49.90348" lon="2.36001">
        <ele>63.1</ele>
        <time>2022-02-11T13:41:06Z</time>
      </trkpt>
      <trkpt lat="49.90348" lon="2.36004">
        <ele>63.1</ele>
        <time>2022-02-11T13:41:07Z</time>
      </trkpt>
      <trkpt lat="49.90348" lon="2.36005">
        <ele>63.1</ele>
        <time>2022-02-11T13:41:08Z</time>
      </trkpt>
      <trkpt lat="49.90348" lon="2.36006">
        <ele>63.1</ele>
        <time>2022-02-11T13:41:09Z</time>
      </trkpt>
      <trkpt lat="49.90348" lon="2.36008">
        <ele>63.1</ele>
        <time>2022-02-11T13:41:10Z</time>
      </trkpt>
      <trkpt lat="49.90347" lon="2.3601">
        <ele>63.1</ele>
        <time>2022-02-11T13:41:11Z</time>
      </trkpt>
      <trkpt lat="49.90347" lon="2.36011">
        <ele>63.1</ele>
        <time>2022-02-11T13:41:12Z</time>
      </trkpt>
      <trkpt lat="49.90347" lon="2.36013">
        <ele>63.1</ele>
        <time>2022-02-11T13:41:13Z</time>
      </trkpt>
      <trkpt lat="49.90347" lon="2.36015">
        <ele>63.1</ele>
        <time>2022-02-11T13:41:14Z</time>
      </trkpt>
      <trkpt lat="49.90347" lon="2.36016">
        <ele>63.1</ele>
        <time>2022-02-11T13:41:15Z</time>
      </trkpt>
      <trkpt lat="49.90347" lon="2.36018">
        <ele>63.1</ele>
        <time>2022-02-11T13:41:17Z</time>
      </trkpt>
      <trkpt lat="49.90347" lon="2.3602">
        <ele>63.1</ele>
        <time>2022-02-11T13:41:18Z</time>
      </trkpt>
      <trkpt lat="49.90347" lon="2.36022">
        <ele>63.1</ele>
        <time>2022-02-11T13:41:19Z</time>
      </trkpt>
      <trkpt lat="49.90347" lon="2.36023">
        <ele>63.1</ele>
        <time>2022-02-11T13:41:20Z</time>
      </trkpt>
      <trkpt lat="49.90346" lon="2.36025">
        <ele>63.1</ele>
        <time>2022-02-11T13:41:21Z</time>
      </trkpt>
      <trkpt lat="49.90346" lon="2.36027">
        <ele>63.1</ele>
        <time>2022-02-11T13:41:22Z</time>
      </trkpt>
      <trkpt lat="49.90347" lon="2.36029">
        <ele>63.1</ele>
        <time>2022-02-11T13:41:23Z</time>
      </trkpt>
      <trkpt lat="49.90347" lon="2.36031">
        <ele>63.1</ele>
        <time>2022-02-11T13:41:24Z</time>
      </trkpt>
      <trkpt lat="49.90347" lon="2.36033">
        <ele>63.1</ele>
        <time>2022-02-11T13:41:25Z</time>
      </trkpt>
      <trkpt lat="49.90347" lon="2.36035">
        <ele>63.1</ele>
        <time>2022-02-11T13:41:26Z</time>
      </trkpt>
      <trkpt lat="49.90347" lon="2.36037">
        <ele>63.1</ele>
        <time>2022-02-11T13:41:28Z</time>
      </trkpt>
      <trkpt lat="49.90347" lon="2.36039">
        <ele>63.1</ele>
        <time>2022-02-11T13:41:29Z</time>
      </trkpt>
      <trkpt lat="49.90347" lon="2.36041">
        <ele>63.1</ele>
        <time>2022-02-11T13:41:30Z</time>
      </trkpt>
      <trkpt lat="49.90347" lon="2.36042">
        <ele>63.1</ele>
        <time>2022-02-11T13:41:31Z</time>
      </trkpt>
      <trkpt lat="49.90346" lon="2.36044">
        <ele>63.1</ele>
        <time>2022-02-11T13:41:32Z</time>
      </trkpt>
      <trkpt lat="49.90346" lon="2.36046">
        <ele>63.1</ele>
        <time>2022-02-11T13:41:33Z</time>
      </trkpt>
      <trkpt lat="49.90346" lon="2.36047">
        <ele>63.1</ele>
        <time>2022-02-11T13:41:34Z</time>
      </trkpt>
      <trkpt lat="49.90345" lon="2.36049">
        <ele>63.1</ele>
        <time>2022-02-11T13:41:35Z</time>
      </trkpt>
      <trkpt lat="49.90345" lon="2.36051">
        <ele>63.1</ele>
        <time>2022-02-11T13:41:36Z</time>
      </trkpt>
      <trkpt lat="49.90345" lon="2.36053">
        <ele>63.1</ele>
        <time>2022-02-11T13:41:37Z</time>
      </trkpt>
      <trkpt lat="49.90345" lon="2.36054">
        <ele>63.1</ele>
        <time>2022-02-11T13:41:38Z</time>
      </trkpt>
      <trkpt lat="49.90344" lon="2.36056">
        <ele>63.1</ele>
        <time>2022-02-11T13:41:39Z</time>
      </trkpt>
      <trkpt lat="49.90344" lon="2.36058">
        <ele>63.1</ele>
        <time>2022-02-11T13:41:40Z</time>
      </trkpt>
      <trkpt lat="49.90343" lon="2.36061">
        <ele>63.1</ele>
        <time>2022-02-11T13:41:41Z</time>
      </trkpt>
      <trkpt lat="49.90343" lon="2.36062">
        <ele>63.1</ele>
        <time>2022-02-11T13:41:43Z</time>
      </trkpt>
      <trkpt lat="49.90343" lon="2.36064">
        <ele>63.1</ele>
        <time>2022-02-11T13:41:44Z</time>
      </trkpt>
      <trkpt lat="49.90342" lon="2.36067">
        <ele>63.1</ele>
        <time>2022-02-11T13:41:45Z</time>
      </trkpt>
      <trkpt lat="49.90342" lon="2.36068">
        <ele>63.1</ele>
        <time>2022-02-11T13:41:46Z</time>
      </trkpt>
      <trkpt lat="49.90342" lon="2.36069">
        <ele>63.1</ele>
        <time>2022-02-11T13:41:47Z</time>
      </trkpt>
      <trkpt lat="49.90342" lon="2.36071">
        <ele>63.1</ele>
        <time>2022-02-11T13:41:48Z</time>
      </trkpt>
      <trkpt lat="49.90341" lon="2.36073">
        <ele>63.1</ele>
        <time>2022-02-11T13:41:49Z</time>
      </trkpt>
      <trkpt lat="49.90341" lon="2.36075">
        <ele>63.1</ele>
        <time>2022-02-11T13:41:51Z</time>
      </trkpt>
      <trkpt lat="49.90341" lon="2.36076">
        <ele>63.1</ele>
        <time>2022-02-11T13:41:52Z</time>
      </trkpt>
      <trkpt lat="49.9034" lon="2.36078">
        <ele>63.1</ele>
        <time>2022-02-11T13:41:53Z</time>
      </trkpt>
      <trkpt lat="49.9034" lon="2.3608">
        <ele>63.1</ele>
        <time>2022-02-11T13:41:54Z</time>
      </trkpt>
      <trkpt lat="49.90339" lon="2.36081">
        <ele>63.1</ele>
        <time>2022-02-11T13:41:55Z</time>
      </trkpt>
      <trkpt lat="49.90339" lon="2.36083">
        <ele>63.1</ele>
        <time>2022-02-11T13:41:56Z</time>
      </trkpt>
      <trkpt lat="49.90339" lon="2.36084">
        <ele>63.1</ele>
        <time>2022-02-11T13:41:57Z</time>
      </trkpt>
      <trkpt lat="49.90339" lon="2.36086">
        <ele>63.1</ele>
        <time>2022-02-11T13:41:58Z</time>
      </trkpt>
      <trkpt lat="49.90339" lon="2.36089">
        <ele>63</ele>
        <time>2022-02-11T13:42:00Z</time>
      </trkpt>
      <trkpt lat="49.90339" lon="2.3609">
        <ele>63</ele>
        <time>2022-02-11T13:42:01Z</time>
      </trkpt>
      <trkpt lat="49.90339" lon="2.36092">
        <ele>63</ele>
        <time>2022-02-11T13:42:02Z</time>
      </trkpt>
      <trkpt lat="49.90339" lon="2.36094">
        <ele>63</ele>
        <time>2022-02-11T13:42:04Z</time>
      </trkpt>
      <trkpt lat="49.90339" lon="2.36095">
        <ele>63</ele>
        <time>2022-02-11T13:42:05Z</time>
      </trkpt>
      <trkpt lat="49.90339" lon="2.36097">
        <ele>63</ele>
        <time>2022-02-11T13:42:06Z</time>
      </trkpt>
      <trkpt lat="49.90338" lon="2.36098">
        <ele>63</ele>
        <time>2022-02-11T13:42:07Z</time>
      </trkpt>
      <trkpt lat="49.90338" lon="2.361">
        <ele>63</ele>
        <time>2022-02-11T13:42:08Z</time>
      </trkpt>
      <trkpt lat="49.90338" lon="2.36102">
        <ele>63</ele>
        <time>2022-02-11T13:42:09Z</time>
      </trkpt>
      <trkpt lat="49.90338" lon="2.36104">
        <ele>63</ele>
        <time>2022-02-11T13:42:11Z</time>
      </trkpt>
      <trkpt lat="49.90338" lon="2.36106">
        <ele>62.9</ele>
        <time>2022-02-11T13:42:12Z</time>
      </trkpt>
      <trkpt lat="49.90338" lon="2.36108">
        <ele>62.9</ele>
        <time>2022-02-11T13:42:13Z</time>
      </trkpt>
      <trkpt lat="49.90338" lon="2.3611">
        <ele>62.9</ele>
        <time>2022-02-11T13:42:14Z</time>
      </trkpt>
      <trkpt lat="49.90338" lon="2.36111">
        <ele>62.9</ele>
        <time>2022-02-11T13:42:15Z</time>
      </trkpt>
      <trkpt lat="49.90338" lon="2.36113">
        <ele>62.9</ele>
        <time>2022-02-11T13:42:16Z</time>
      </trkpt>
      <trkpt lat="49.90337" lon="2.36115">
        <ele>62.9</ele>
        <time>2022-02-11T13:42:17Z</time>
      </trkpt>
      <trkpt lat="49.90336" lon="2.36117">
        <ele>63</ele>
        <time>2022-02-11T13:42:18Z</time>
      </trkpt>
      <trkpt lat="49.90336" lon="2.36119">
        <ele>63</ele>
        <time>2022-02-11T13:42:19Z</time>
      </trkpt>
      <trkpt lat="49.90335" lon="2.36122">
        <ele>63</ele>
        <time>2022-02-11T13:42:20Z</time>
      </trkpt>
      <trkpt lat="49.90334" lon="2.36123">
        <ele>63</ele>
        <time>2022-02-11T13:42:21Z</time>
      </trkpt>
      <trkpt lat="49.90334" lon="2.36124">
        <ele>63</ele>
        <time>2022-02-11T13:42:22Z</time>
      </trkpt>
      <trkpt lat="49.90334" lon="2.36129">
        <ele>63.1</ele>
        <time>2022-02-11T13:42:23Z</time>
      </trkpt>
      <trkpt lat="49.90334" lon="2.3613">
        <ele>63.1</ele>
        <time>2022-02-11T13:42:25Z</time>
      </trkpt>
      <trkpt lat="49.90334" lon="2.36132">
        <ele>63.1</ele>
        <time>2022-02-11T13:42:26Z</time>
      </trkpt>
      <trkpt lat="49.90334" lon="2.36134">
        <ele>63.1</ele>
        <time>2022-02-11T13:42:27Z</time>
      </trkpt>
      <trkpt lat="49.90334" lon="2.36135">
        <ele>63.2</ele>
        <time>2022-02-11T13:42:28Z</time>
      </trkpt>
      <trkpt lat="49.90334" lon="2.36137">
        <ele>63.2</ele>
        <time>2022-02-11T13:42:29Z</time>
      </trkpt>
      <trkpt lat="49.90334" lon="2.36139">
        <ele>63.2</ele>
        <time>2022-02-11T13:42:30Z</time>
      </trkpt>
      <trkpt lat="49.90335" lon="2.3614">
        <ele>63.2</ele>
        <time>2022-02-11T13:42:31Z</time>
      </trkpt>
      <trkpt lat="49.90335" lon="2.36143">
        <ele>63.3</ele>
        <time>2022-02-11T13:42:32Z</time>
      </trkpt>
      <trkpt lat="49.90334" lon="2.36145">
        <ele>63.3</ele>
        <time>2022-02-11T13:42:33Z</time>
      </trkpt>
      <trkpt lat="49.90334" lon="2.36146">
        <ele>63.3</ele>
        <time>2022-02-11T13:42:34Z</time>
      </trkpt>
      <trkpt lat="49.90334" lon="2.36149">
        <ele>63.3</ele>
        <time>2022-02-11T13:42:35Z</time>
      </trkpt>
      <trkpt lat="49.90335" lon="2.36151">
        <ele>63.4</ele>
        <time>2022-02-11T13:42:36Z</time>
      </trkpt>
      <trkpt lat="49.90335" lon="2.36152">
        <ele>63.4</ele>
        <time>2022-02-11T13:42:38Z</time>
      </trkpt>
      <trkpt lat="49.90335" lon="2.36154">
        <ele>63.4</ele>
        <time>2022-02-11T13:42:39Z</time>
      </trkpt>
      <trkpt lat="49.90335" lon="2.36156">
        <ele>63.4</ele>
        <time>2022-02-11T13:42:40Z</time>
      </trkpt>
      <trkpt lat="49.90335" lon="2.36157">
        <ele>63.4</ele>
        <time>2022-02-11T13:42:41Z</time>
      </trkpt>
      <trkpt lat="49.90335" lon="2.36159">
        <ele>63.4</ele>
        <time>2022-02-11T13:42:42Z</time>
      </trkpt>
      <trkpt lat="49.90335" lon="2.36161">
        <ele>63.4</ele>
        <time>2022-02-11T13:42:43Z</time>
      </trkpt>
      <trkpt lat="49.90335" lon="2.36163">
        <ele>63.4</ele>
        <time>2022-02-11T13:42:44Z</time>
      </trkpt>
      <trkpt lat="49.90335" lon="2.36166">
        <ele>63.5</ele>
        <time>2022-02-11T13:42:45Z</time>
      </trkpt>
      <trkpt lat="49.90335" lon="2.36167">
        <ele>63.5</ele>
        <time>2022-02-11T13:42:46Z</time>
      </trkpt>
      <trkpt lat="49.90335" lon="2.36169">
        <ele>63.5</ele>
        <time>2022-02-11T13:42:47Z</time>
      </trkpt>
      <trkpt lat="49.90336" lon="2.36172">
        <ele>63.5</ele>
        <time>2022-02-11T13:42:49Z</time>
      </trkpt>
      <trkpt lat="49.90336" lon="2.36173">
        <ele>63.5</ele>
        <time>2022-02-11T13:42:50Z</time>
      </trkpt>
      <trkpt lat="49.90336" lon="2.36175">
        <ele>63.5</ele>
        <time>2022-02-11T13:42:51Z</time>
      </trkpt>
      <trkpt lat="49.90335" lon="2.36178">
        <ele>63.5</ele>
        <time>2022-02-11T13:42:52Z</time>
      </trkpt>
      <trkpt lat="49.90335" lon="2.36179">
        <ele>63.5</ele>
        <time>2022-02-11T13:42:53Z</time>
      </trkpt>
      <trkpt lat="49.90335" lon="2.3618">
        <ele>63.5</ele>
        <time>2022-02-11T13:42:54Z</time>
      </trkpt>
      <trkpt lat="49.90335" lon="2.36183">
        <ele>63.5</ele>
        <time>2022-02-11T13:42:55Z</time>
      </trkpt>
      <trkpt lat="49.90335" lon="2.36185">
        <ele>63.5</ele>
        <time>2022-02-11T13:42:56Z</time>
      </trkpt>
      <trkpt lat="49.90335" lon="2.36188">
        <ele>63.5</ele>
        <time>2022-02-11T13:42:57Z</time>
      </trkpt>
      <trkpt lat="49.90335" lon="2.36189">
        <ele>63.5</ele>
        <time>2022-02-11T13:42:58Z</time>
      </trkpt>
      <trkpt lat="49.90335" lon="2.36191">
        <ele>63.5</ele>
        <time>2022-02-11T13:42:59Z</time>
      </trkpt>
      <trkpt lat="49.90335" lon="2.36194">
        <ele>63.5</ele>
        <time>2022-02-11T13:43:01Z</time>
      </trkpt>
      <trkpt lat="49.90335" lon="2.36195">
        <ele>63.5</ele>
        <time>2022-02-11T13:43:02Z</time>
      </trkpt>
      <trkpt lat="49.90334" lon="2.36196">
        <ele>63.6</ele>
        <time>2022-02-11T13:43:03Z</time>
      </trkpt>
      <trkpt lat="49.90334" lon="2.36198">
        <ele>63.5</ele>
        <time>2022-02-11T13:43:04Z</time>
      </trkpt>
      <trkpt lat="49.90334" lon="2.36201">
        <ele>63.6</ele>
        <time>2022-02-11T13:43:05Z</time>
      </trkpt>
      <trkpt lat="49.90334" lon="2.36205">
        <ele>63.6</ele>
        <time>2022-02-11T13:43:07Z</time>
      </trkpt>
      <trkpt lat="49.90334" lon="2.36206">
        <ele>63.6</ele>
        <time>2022-02-11T13:43:08Z</time>
      </trkpt>
      <trkpt lat="49.90335" lon="2.36209">
        <ele>63.6</ele>
        <time>2022-02-11T13:43:09Z</time>
      </trkpt>
      <trkpt lat="49.90335" lon="2.36211">
        <ele>63.6</ele>
        <time>2022-02-11T13:43:10Z</time>
      </trkpt>
      <trkpt lat="49.90335" lon="2.36212">
        <ele>63.6</ele>
        <time>2022-02-11T13:43:11Z</time>
      </trkpt>
      <trkpt lat="49.90334" lon="2.36215">
        <ele>63.6</ele>
        <time>2022-02-11T13:43:12Z</time>
      </trkpt>
      <trkpt lat="49.90334" lon="2.36217">
        <ele>63.6</ele>
        <time>2022-02-11T13:43:13Z</time>
      </trkpt>
      <trkpt lat="49.90334" lon="2.3622">
        <ele>63.6</ele>
        <time>2022-02-11T13:43:15Z</time>
      </trkpt>
      <trkpt lat="49.90334" lon="2.36221">
        <ele>63.6</ele>
        <time>2022-02-11T13:43:16Z</time>
      </trkpt>
      <trkpt lat="49.90333" lon="2.36223">
        <ele>63.6</ele>
        <time>2022-02-11T13:43:17Z</time>
      </trkpt>
      <trkpt lat="49.90333" lon="2.36225">
        <ele>63.6</ele>
        <time>2022-02-11T13:43:18Z</time>
      </trkpt>
      <trkpt lat="49.90333" lon="2.36226">
        <ele>63.6</ele>
        <time>2022-02-11T13:43:19Z</time>
      </trkpt>
      <trkpt lat="49.90333" lon="2.36228">
        <ele>63.6</ele>
        <time>2022-02-11T13:43:20Z</time>
      </trkpt>
      <trkpt lat="49.90333" lon="2.3623">
        <ele>63.6</ele>
        <time>2022-02-11T13:43:21Z</time>
      </trkpt>
      <trkpt lat="49.90332" lon="2.36233">
        <ele>63.6</ele>
        <time>2022-02-11T13:43:23Z</time>
      </trkpt>
      <trkpt lat="49.90332" lon="2.36235">
        <ele>63.7</ele>
        <time>2022-02-11T13:43:24Z</time>
      </trkpt>
      <trkpt lat="49.90332" lon="2.36237">
        <ele>63.7</ele>
        <time>2022-02-11T13:43:25Z</time>
      </trkpt>
      <trkpt lat="49.90332" lon="2.36239">
        <ele>63.7</ele>
        <time>2022-02-11T13:43:26Z</time>
      </trkpt>
      <trkpt lat="49.90332" lon="2.36241">
        <ele>63.7</ele>
        <time>2022-02-11T13:43:27Z</time>
      </trkpt>
      <trkpt lat="49.90332" lon="2.36243">
        <ele>63.7</ele>
        <time>2022-02-11T13:43:28Z</time>
      </trkpt>
      <trkpt lat="49.90332" lon="2.36246">
        <ele>63.7</ele>
        <time>2022-02-11T13:43:30Z</time>
      </trkpt>
      <trkpt lat="49.90333" lon="2.36248">
        <ele>63.7</ele>
        <time>2022-02-11T13:43:31Z</time>
      </trkpt>
      <trkpt lat="49.90333" lon="2.36251">
        <ele>63.8</ele>
        <time>2022-02-11T13:43:32Z</time>
      </trkpt>
      <trkpt lat="49.90333" lon="2.36252">
        <ele>63.8</ele>
        <time>2022-02-11T13:43:33Z</time>
      </trkpt>
      <trkpt lat="49.90333" lon="2.36253">
        <ele>63.8</ele>
        <time>2022-02-11T13:43:34Z</time>
      </trkpt>
      <trkpt lat="49.90334" lon="2.36257">
        <ele>63.8</ele>
        <time>2022-02-11T13:43:35Z</time>
      </trkpt>
      <trkpt lat="49.90334" lon="2.36259">
        <ele>63.9</ele>
        <time>2022-02-11T13:43:37Z</time>
      </trkpt>
      <trkpt lat="49.90334" lon="2.36261">
        <ele>63.9</ele>
        <time>2022-02-11T13:43:38Z</time>
      </trkpt>
      <trkpt lat="49.90334" lon="2.36263">
        <ele>63.9</ele>
        <time>2022-02-11T13:43:39Z</time>
      </trkpt>
      <trkpt lat="49.90334" lon="2.36265">
        <ele>63.9</ele>
        <time>2022-02-11T13:43:40Z</time>
      </trkpt>
      <trkpt lat="49.90334" lon="2.36267">
        <ele>64</ele>
        <time>2022-02-11T13:43:41Z</time>
      </trkpt>
      <trkpt lat="49.90334" lon="2.36269">
        <ele>64</ele>
        <time>2022-02-11T13:43:42Z</time>
      </trkpt>
      <trkpt lat="49.90334" lon="2.36272">
        <ele>64</ele>
        <time>2022-02-11T13:43:44Z</time>
      </trkpt>
      <trkpt lat="49.90334" lon="2.36274">
        <ele>64.1</ele>
        <time>2022-02-11T13:43:45Z</time>
      </trkpt>
      <trkpt lat="49.90334" lon="2.36277">
        <ele>64.1</ele>
        <time>2022-02-11T13:43:46Z</time>
      </trkpt>
      <trkpt lat="49.90333" lon="2.36279">
        <ele>64.1</ele>
        <time>2022-02-11T13:43:47Z</time>
      </trkpt>
      <trkpt lat="49.90333" lon="2.3628">
        <ele>64.1</ele>
        <time>2022-02-11T13:43:48Z</time>
      </trkpt>
      <trkpt lat="49.90333" lon="2.36282">
        <ele>64.1</ele>
        <time>2022-02-11T13:43:50Z</time>
      </trkpt>
      <trkpt lat="49.90333" lon="2.36284">
        <ele>64.2</ele>
        <time>2022-02-11T13:43:51Z</time>
      </trkpt>
      <trkpt lat="49.90333" lon="2.36287">
        <ele>64.2</ele>
        <time>2022-02-11T13:43:52Z</time>
      </trkpt>
      <trkpt lat="49.90333" lon="2.36289">
        <ele>64.2</ele>
        <time>2022-02-11T13:43:53Z</time>
      </trkpt>
      <trkpt lat="49.90333" lon="2.36291">
        <ele>64.2</ele>
        <time>2022-02-11T13:43:54Z</time>
      </trkpt>
      <trkpt lat="49.90333" lon="2.36293">
        <ele>64.2</ele>
        <time>2022-02-11T13:43:55Z</time>
      </trkpt>
      <trkpt lat="49.90333" lon="2.36295">
        <ele>64.2</ele>
        <time>2022-02-11T13:43:56Z</time>
      </trkpt>
      <trkpt lat="49.90333" lon="2.36297">
        <ele>64.2</ele>
        <time>2022-02-11T13:43:57Z</time>
      </trkpt>
      <trkpt lat="49.90333" lon="2.36299">
        <ele>64.2</ele>
        <time>2022-02-11T13:43:58Z</time>
      </trkpt>
      <trkpt lat="49.90334" lon="2.36302">
        <ele>64.3</ele>
        <time>2022-02-11T13:43:59Z</time>
      </trkpt>
      <trkpt lat="49.90334" lon="2.36303">
        <ele>64.3</ele>
        <time>2022-02-11T13:44:00Z</time>
      </trkpt>
      <trkpt lat="49.90334" lon="2.36305">
        <ele>64.3</ele>
        <time>2022-02-11T13:44:01Z</time>
      </trkpt>
      <trkpt lat="49.90335" lon="2.36307">
        <ele>64.3</ele>
        <time>2022-02-11T13:44:02Z</time>
      </trkpt>
      <trkpt lat="49.90335" lon="2.36309">
        <ele>64.3</ele>
        <time>2022-02-11T13:44:03Z</time>
      </trkpt>
      <trkpt lat="49.90336" lon="2.36312">
        <ele>64.3</ele>
        <time>2022-02-11T13:44:05Z</time>
      </trkpt>
      <trkpt lat="49.90336" lon="2.36313">
        <ele>64.3</ele>
        <time>2022-02-11T13:44:06Z</time>
      </trkpt>
      <trkpt lat="49.90337" lon="2.36314">
        <ele>64.3</ele>
        <time>2022-02-11T13:44:07Z</time>
      </trkpt>
      <trkpt lat="49.90337" lon="2.36317">
        <ele>64.3</ele>
        <time>2022-02-11T13:44:08Z</time>
      </trkpt>
      <trkpt lat="49.90337" lon="2.36318">
        <ele>64.3</ele>
        <time>2022-02-11T13:44:09Z</time>
      </trkpt>
      <trkpt lat="49.90337" lon="2.3632">
        <ele>64.3</ele>
        <time>2022-02-11T13:44:10Z</time>
      </trkpt>
      <trkpt lat="49.90337" lon="2.36322">
        <ele>64.3</ele>
        <time>2022-02-11T13:44:11Z</time>
      </trkpt>
      <trkpt lat="49.90337" lon="2.36324">
        <ele>64.4</ele>
        <time>2022-02-11T13:44:12Z</time>
      </trkpt>
      <trkpt lat="49.90337" lon="2.36327">
        <ele>64.4</ele>
        <time>2022-02-11T13:44:13Z</time>
      </trkpt>
      <trkpt lat="49.90337" lon="2.36329">
        <ele>64.4</ele>
        <time>2022-02-11T13:44:14Z</time>
      </trkpt>
      <trkpt lat="49.90336" lon="2.3633">
        <ele>64.4</ele>
        <time>2022-02-11T13:44:15Z</time>
      </trkpt>
      <trkpt lat="49.90336" lon="2.36332">
        <ele>64.4</ele>
        <time>2022-02-11T13:44:16Z</time>
      </trkpt>
      <trkpt lat="49.90335" lon="2.36334">
        <ele>64.5</ele>
        <time>2022-02-11T13:44:17Z</time>
      </trkpt>
      <trkpt lat="49.90335" lon="2.36336">
        <ele>64.5</ele>
        <time>2022-02-11T13:44:19Z</time>
      </trkpt>
      <trkpt lat="49.90334" lon="2.36339">
        <ele>64.5</ele>
        <time>2022-02-11T13:44:20Z</time>
      </trkpt>
      <trkpt lat="49.90334" lon="2.3634">
        <ele>64.5</ele>
        <time>2022-02-11T13:44:21Z</time>
      </trkpt>
      <trkpt lat="49.90334" lon="2.36343">
        <ele>64.6</ele>
        <time>2022-02-11T13:44:22Z</time>
      </trkpt>
      <trkpt lat="49.90334" lon="2.36345">
        <ele>64.6</ele>
        <time>2022-02-11T13:44:24Z</time>
      </trkpt>
      <trkpt lat="49.90334" lon="2.36348">
        <ele>64.6</ele>
        <time>2022-02-11T13:44:25Z</time>
      </trkpt>
      <trkpt lat="49.90333" lon="2.3635">
        <ele>64.6</ele>
        <time>2022-02-11T13:44:26Z</time>
      </trkpt>
      <trkpt lat="49.90333" lon="2.36351">
        <ele>64.6</ele>
        <time>2022-02-11T13:44:27Z</time>
      </trkpt>
      <trkpt lat="49.90333" lon="2.36354">
        <ele>64.7</ele>
        <time>2022-02-11T13:44:28Z</time>
      </trkpt>
      <trkpt lat="49.90333" lon="2.36356">
        <ele>64.7</ele>
        <time>2022-02-11T13:44:29Z</time>
      </trkpt>
      <trkpt lat="49.90334" lon="2.36357">
        <ele>64.7</ele>
        <time>2022-02-11T13:44:30Z</time>
      </trkpt>
      <trkpt lat="49.90334" lon="2.3636">
        <ele>64.7</ele>
        <time>2022-02-11T13:44:31Z</time>
      </trkpt>
      <trkpt lat="49.90334" lon="2.36363">
        <ele>64.7</ele>
        <time>2022-02-11T13:44:33Z</time>
      </trkpt>
      <trkpt lat="49.90335" lon="2.36365">
        <ele>64.7</ele>
        <time>2022-02-11T13:44:34Z</time>
      </trkpt>
      <trkpt lat="49.90335" lon="2.36366">
        <ele>64.7</ele>
        <time>2022-02-11T13:44:35Z</time>
      </trkpt>
      <trkpt lat="49.90336" lon="2.36369">
        <ele>64.7</ele>
        <time>2022-02-11T13:44:36Z</time>
      </trkpt>
      <trkpt lat="49.90337" lon="2.36371">
        <ele>64.7</ele>
        <time>2022-02-11T13:44:38Z</time>
      </trkpt>
      <trkpt lat="49.90337" lon="2.36373">
        <ele>64.7</ele>
        <time>2022-02-11T13:44:39Z</time>
      </trkpt>
      <trkpt lat="49.90338" lon="2.36375">
        <ele>64.7</ele>
        <time>2022-02-11T13:44:40Z</time>
      </trkpt>
      <trkpt lat="49.90338" lon="2.36377">
        <ele>64.7</ele>
        <time>2022-02-11T13:44:41Z</time>
      </trkpt>
      <trkpt lat="49.90338" lon="2.36379">
        <ele>64.7</ele>
        <time>2022-02-11T13:44:42Z</time>
      </trkpt>
      <trkpt lat="49.90339" lon="2.36381">
        <ele>64.7</ele>
        <time>2022-02-11T13:44:43Z</time>
      </trkpt>
      <trkpt lat="49.9034" lon="2.36384">
        <ele>64.7</ele>
        <time>2022-02-11T13:44:44Z</time>
      </trkpt>
      <trkpt lat="49.90341" lon="2.36385">
        <ele>64.7</ele>
        <time>2022-02-11T13:44:45Z</time>
      </trkpt>
      <trkpt lat="49.90341" lon="2.36386">
        <ele>64.7</ele>
        <time>2022-02-11T13:44:46Z</time>
      </trkpt>
      <trkpt lat="49.90342" lon="2.36389">
        <ele>64.7</ele>
        <time>2022-02-11T13:44:47Z</time>
      </trkpt>
      <trkpt lat="49.90343" lon="2.36391">
        <ele>64.7</ele>
        <time>2022-02-11T13:44:48Z</time>
      </trkpt>
      <trkpt lat="49.90343" lon="2.36393">
        <ele>64.7</ele>
        <time>2022-02-11T13:44:50Z</time>
      </trkpt>
      <trkpt lat="49.90344" lon="2.36395">
        <ele>64.7</ele>
        <time>2022-02-11T13:44:51Z</time>
      </trkpt>
      <trkpt lat="49.90344" lon="2.36397">
        <ele>64.7</ele>
        <time>2022-02-11T13:44:52Z</time>
      </trkpt>
      <trkpt lat="49.90344" lon="2.364">
        <ele>64.7</ele>
        <time>2022-02-11T13:44:53Z</time>
      </trkpt>
      <trkpt lat="49.90344" lon="2.36403">
        <ele>64.7</ele>
        <time>2022-02-11T13:44:54Z</time>
      </trkpt>
      <trkpt lat="49.90344" lon="2.36404">
        <ele>64.7</ele>
        <time>2022-02-11T13:44:55Z</time>
      </trkpt>
      <trkpt lat="49.90344" lon="2.36406">
        <ele>64.7</ele>
        <time>2022-02-11T13:44:56Z</time>
      </trkpt>
      <trkpt lat="49.90345" lon="2.36409">
        <ele>64.7</ele>
        <time>2022-02-11T13:44:57Z</time>
      </trkpt>
      <trkpt lat="49.90345" lon="2.3641">
        <ele>64.7</ele>
        <time>2022-02-11T13:44:59Z</time>
      </trkpt>
      <trkpt lat="49.90345" lon="2.36412">
        <ele>64.7</ele>
        <time>2022-02-11T13:45:00Z</time>
      </trkpt>
      <trkpt lat="49.90346" lon="2.36415">
        <ele>64.7</ele>
        <time>2022-02-11T13:45:01Z</time>
      </trkpt>
      <trkpt lat="49.90346" lon="2.36416">
        <ele>64.8</ele>
        <time>2022-02-11T13:45:02Z</time>
      </trkpt>
      <trkpt lat="49.90346" lon="2.36417">
        <ele>64.8</ele>
        <time>2022-02-11T13:45:03Z</time>
      </trkpt>
      <trkpt lat="49.90347" lon="2.3642">
        <ele>64.8</ele>
        <time>2022-02-11T13:45:04Z</time>
      </trkpt>
      <trkpt lat="49.90348" lon="2.36422">
        <ele>64.8</ele>
        <time>2022-02-11T13:45:05Z</time>
      </trkpt>
      <trkpt lat="49.90348" lon="2.36423">
        <ele>64.8</ele>
        <time>2022-02-11T13:45:06Z</time>
      </trkpt>
      <trkpt lat="49.90349" lon="2.36426">
        <ele>64.9</ele>
        <time>2022-02-11T13:45:07Z</time>
      </trkpt>
      <trkpt lat="49.90349" lon="2.36427">
        <ele>64.9</ele>
        <time>2022-02-11T13:45:09Z</time>
      </trkpt>
      <trkpt lat="49.90349" lon="2.36428">
        <ele>64.9</ele>
        <time>2022-02-11T13:45:10Z</time>
      </trkpt>
      <trkpt lat="49.9035" lon="2.36431">
        <ele>64.9</ele>
        <time>2022-02-11T13:45:11Z</time>
      </trkpt>
      <trkpt lat="49.90351" lon="2.36432">
        <ele>64.9</ele>
        <time>2022-02-11T13:45:12Z</time>
      </trkpt>
      <trkpt lat="49.90351" lon="2.36433">
        <ele>64.9</ele>
        <time>2022-02-11T13:45:13Z</time>
      </trkpt>
      <trkpt lat="49.90352" lon="2.36435">
        <ele>64.9</ele>
        <time>2022-02-11T13:45:14Z</time>
      </trkpt>
      <trkpt lat="49.90352" lon="2.36437">
        <ele>64.9</ele>
        <time>2022-02-11T13:45:15Z</time>
      </trkpt>
      <trkpt lat="49.90353" lon="2.36439">
        <ele>64.9</ele>
        <time>2022-02-11T13:45:16Z</time>
      </trkpt>
      <trkpt lat="49.90353" lon="2.36441">
        <ele>64.9</ele>
        <time>2022-02-11T13:45:17Z</time>
      </trkpt>
      <trkpt lat="49.90354" lon="2.36443">
        <ele>64.9</ele>
        <time>2022-02-11T13:45:18Z</time>
      </trkpt>
      <trkpt lat="49.90354" lon="2.36445">
        <ele>64.9</ele>
        <time>2022-02-11T13:45:19Z</time>
      </trkpt>
      <trkpt lat="49.90355" lon="2.36448">
        <ele>64.9</ele>
        <time>2022-02-11T13:45:21Z</time>
      </trkpt>
      <trkpt lat="49.90355" lon="2.3645">
        <ele>64.9</ele>
        <time>2022-02-11T13:45:22Z</time>
      </trkpt>
      <trkpt lat="49.90356" lon="2.36451">
        <ele>65</ele>
        <time>2022-02-11T13:45:23Z</time>
      </trkpt>
      <trkpt lat="49.90356" lon="2.36454">
        <ele>65</ele>
        <time>2022-02-11T13:45:25Z</time>
      </trkpt>
      <trkpt lat="49.90357" lon="2.36456">
        <ele>65</ele>
        <time>2022-02-11T13:45:26Z</time>
      </trkpt>
      <trkpt lat="49.90357" lon="2.36459">
        <ele>65</ele>
        <time>2022-02-11T13:45:27Z</time>
      </trkpt>
      <trkpt lat="49.90357" lon="2.3646">
        <ele>65</ele>
        <time>2022-02-11T13:45:28Z</time>
      </trkpt>
      <trkpt lat="49.90357" lon="2.36461">
        <ele>65</ele>
        <time>2022-02-11T13:45:29Z</time>
      </trkpt>
      <trkpt lat="49.90357" lon="2.36463">
        <ele>65</ele>
        <time>2022-02-11T13:45:30Z</time>
      </trkpt>
      <trkpt lat="49.90358" lon="2.36465">
        <ele>65</ele>
        <time>2022-02-11T13:45:32Z</time>
      </trkpt>
      <trkpt lat="49.90358" lon="2.36466">
        <ele>65</ele>
        <time>2022-02-11T13:45:33Z</time>
      </trkpt>
      <trkpt lat="49.90359" lon="2.36468">
        <ele>65</ele>
        <time>2022-02-11T13:45:34Z</time>
      </trkpt>
      <trkpt lat="49.90359" lon="2.3647">
        <ele>65</ele>
        <time>2022-02-11T13:45:35Z</time>
      </trkpt>
      <trkpt lat="49.90359" lon="2.36471">
        <ele>65</ele>
        <time>2022-02-11T13:45:36Z</time>
      </trkpt>
      <trkpt lat="49.9036" lon="2.36474">
        <ele>65</ele>
        <time>2022-02-11T13:45:37Z</time>
      </trkpt>
      <trkpt lat="49.9036" lon="2.36476">
        <ele>65</ele>
        <time>2022-02-11T13:45:38Z</time>
      </trkpt>
      <trkpt lat="49.9036" lon="2.36477">
        <ele>65</ele>
        <time>2022-02-11T13:45:39Z</time>
      </trkpt>
      <trkpt lat="49.90361" lon="2.3648">
        <ele>65.1</ele>
        <time>2022-02-11T13:45:40Z</time>
      </trkpt>
      <trkpt lat="49.90361" lon="2.36482">
        <ele>65.1</ele>
        <time>2022-02-11T13:45:41Z</time>
      </trkpt>
      <trkpt lat="49.90362" lon="2.36483">
        <ele>65.1</ele>
        <time>2022-02-11T13:45:42Z</time>
      </trkpt>
      <trkpt lat="49.90362" lon="2.36485">
        <ele>65.1</ele>
        <time>2022-02-11T13:45:44Z</time>
      </trkpt>
      <trkpt lat="49.90362" lon="2.36487">
        <ele>65.1</ele>
        <time>2022-02-11T13:45:45Z</time>
      </trkpt>
      <trkpt lat="49.90363" lon="2.3649">
        <ele>65.1</ele>
        <time>2022-02-11T13:45:46Z</time>
      </trkpt>
      <trkpt lat="49.90364" lon="2.36491">
        <ele>65.2</ele>
        <time>2022-02-11T13:45:47Z</time>
      </trkpt>
      <trkpt lat="49.90364" lon="2.36493">
        <ele>65.2</ele>
        <time>2022-02-11T13:45:48Z</time>
      </trkpt>
      <trkpt lat="49.90364" lon="2.36494">
        <ele>65.2</ele>
        <time>2022-02-11T13:45:49Z</time>
      </trkpt>
      <trkpt lat="49.90364" lon="2.36496">
        <ele>65.2</ele>
        <time>2022-02-11T13:45:50Z</time>
      </trkpt>
      <trkpt lat="49.90364" lon="2.36498">
        <ele>65.2</ele>
        <time>2022-02-11T13:45:51Z</time>
      </trkpt>
      <trkpt lat="49.90365" lon="2.36501">
        <ele>65.3</ele>
        <time>2022-02-11T13:45:52Z</time>
      </trkpt>
      <trkpt lat="49.90365" lon="2.36502">
        <ele>65.3</ele>
        <time>2022-02-11T13:45:53Z</time>
      </trkpt>
      <trkpt lat="49.90366" lon="2.36504">
        <ele>65.3</ele>
        <time>2022-02-11T13:45:54Z</time>
      </trkpt>
      <trkpt lat="49.90367" lon="2.36507">
        <ele>65.3</ele>
        <time>2022-02-11T13:45:56Z</time>
      </trkpt>
      <trkpt lat="49.90367" lon="2.36508">
        <ele>65.3</ele>
        <time>2022-02-11T13:45:57Z</time>
      </trkpt>
      <trkpt lat="49.90367" lon="2.36509">
        <ele>65.4</ele>
        <time>2022-02-11T13:45:58Z</time>
      </trkpt>
      <trkpt lat="49.90367" lon="2.36511">
        <ele>65.4</ele>
        <time>2022-02-11T13:45:59Z</time>
      </trkpt>
      <trkpt lat="49.90367" lon="2.36513">
        <ele>65.4</ele>
        <time>2022-02-11T13:46:00Z</time>
      </trkpt>
      <trkpt lat="49.90367" lon="2.36515">
        <ele>65.4</ele>
        <time>2022-02-11T13:46:01Z</time>
      </trkpt>
      <trkpt lat="49.90368" lon="2.36517">
        <ele>65.5</ele>
        <time>2022-02-11T13:46:02Z</time>
      </trkpt>
      <trkpt lat="49.90368" lon="2.36518">
        <ele>65.5</ele>
        <time>2022-02-11T13:46:03Z</time>
      </trkpt>
      <trkpt lat="49.90368" lon="2.3652">
        <ele>65.5</ele>
        <time>2022-02-11T13:46:04Z</time>
      </trkpt>
      <trkpt lat="49.90369" lon="2.36521">
        <ele>65.5</ele>
        <time>2022-02-11T13:46:05Z</time>
      </trkpt>
      <trkpt lat="49.90369" lon="2.36523">
        <ele>65.5</ele>
        <time>2022-02-11T13:46:06Z</time>
      </trkpt>
      <trkpt lat="49.90369" lon="2.36525">
        <ele>65.6</ele>
        <time>2022-02-11T13:46:08Z</time>
      </trkpt>
      <trkpt lat="49.9037" lon="2.36527">
        <ele>65.6</ele>
        <time>2022-02-11T13:46:09Z</time>
      </trkpt>
      <trkpt lat="49.9037" lon="2.3653">
        <ele>65.6</ele>
        <time>2022-02-11T13:46:10Z</time>
      </trkpt>
      <trkpt lat="49.90371" lon="2.36533">
        <ele>65.7</ele>
        <time>2022-02-11T13:46:11Z</time>
      </trkpt>
      <trkpt lat="49.90371" lon="2.36534">
        <ele>65.7</ele>
        <time>2022-02-11T13:46:12Z</time>
      </trkpt>
      <trkpt lat="49.90372" lon="2.36535">
        <ele>65.7</ele>
        <time>2022-02-11T13:46:13Z</time>
      </trkpt>
      <trkpt lat="49.90372" lon="2.36537">
        <ele>65.7</ele>
        <time>2022-02-11T13:46:14Z</time>
      </trkpt>
      <trkpt lat="49.90373" lon="2.36539">
        <ele>65.7</ele>
        <time>2022-02-11T13:46:15Z</time>
      </trkpt>
      <trkpt lat="49.90374" lon="2.36541">
        <ele>65.8</ele>
        <time>2022-02-11T13:46:17Z</time>
      </trkpt>
      <trkpt lat="49.90374" lon="2.36543">
        <ele>65.8</ele>
        <time>2022-02-11T13:46:18Z</time>
      </trkpt>
      <trkpt lat="49.90375" lon="2.36546">
        <ele>65.8</ele>
        <time>2022-02-11T13:46:19Z</time>
      </trkpt>
      <trkpt lat="49.90375" lon="2.36547">
        <ele>65.8</ele>
        <time>2022-02-11T13:46:20Z</time>
      </trkpt>
      <trkpt lat="49.90375" lon="2.36549">
        <ele>65.8</ele>
        <time>2022-02-11T13:46:21Z</time>
      </trkpt>
      <trkpt lat="49.90376" lon="2.36551">
        <ele>65.8</ele>
        <time>2022-02-11T13:46:22Z</time>
      </trkpt>
      <trkpt lat="49.90376" lon="2.36553">
        <ele>65.9</ele>
        <time>2022-02-11T13:46:23Z</time>
      </trkpt>
      <trkpt lat="49.90376" lon="2.36556">
        <ele>65.9</ele>
        <time>2022-02-11T13:46:25Z</time>
      </trkpt>
      <trkpt lat="49.90376" lon="2.36558">
        <ele>65.9</ele>
        <time>2022-02-11T13:46:26Z</time>
      </trkpt>
      <trkpt lat="49.90376" lon="2.36559">
        <ele>65.9</ele>
        <time>2022-02-11T13:46:27Z</time>
      </trkpt>
      <trkpt lat="49.90377" lon="2.36561">
        <ele>65.9</ele>
        <time>2022-02-11T13:46:28Z</time>
      </trkpt>
      <trkpt lat="49.90377" lon="2.36563">
        <ele>65.9</ele>
        <time>2022-02-11T13:46:29Z</time>
      </trkpt>
      <trkpt lat="49.90377" lon="2.36565">
        <ele>65.9</ele>
        <time>2022-02-11T13:46:31Z</time>
      </trkpt>
      <trkpt lat="49.90377" lon="2.36568">
        <ele>65.9</ele>
        <time>2022-02-11T13:46:32Z</time>
      </trkpt>
      <trkpt lat="49.90377" lon="2.3657">
        <ele>65.9</ele>
        <time>2022-02-11T13:46:33Z</time>
      </trkpt>
      <trkpt lat="49.90377" lon="2.36571">
        <ele>65.9</ele>
        <time>2022-02-11T13:46:34Z</time>
      </trkpt>
      <trkpt lat="49.90378" lon="2.36574">
        <ele>65.9</ele>
        <time>2022-02-11T13:46:35Z</time>
      </trkpt>
      <trkpt lat="49.90378" lon="2.36575">
        <ele>65.9</ele>
        <time>2022-02-11T13:46:36Z</time>
      </trkpt>
      <trkpt lat="49.90378" lon="2.36576">
        <ele>65.9</ele>
        <time>2022-02-11T13:46:37Z</time>
      </trkpt>
      <trkpt lat="49.90378" lon="2.36579">
        <ele>65.9</ele>
        <time>2022-02-11T13:46:38Z</time>
      </trkpt>
      <trkpt lat="49.90379" lon="2.36581">
        <ele>66</ele>
        <time>2022-02-11T13:46:39Z</time>
      </trkpt>
      <trkpt lat="49.90379" lon="2.36584">
        <ele>66</ele>
        <time>2022-02-11T13:46:41Z</time>
      </trkpt>
      <trkpt lat="49.90379" lon="2.36585">
        <ele>66</ele>
        <time>2022-02-11T13:46:42Z</time>
      </trkpt>
      <trkpt lat="49.90379" lon="2.36586">
        <ele>66</ele>
        <time>2022-02-11T13:46:43Z</time>
      </trkpt>
      <trkpt lat="49.90379" lon="2.36588">
        <ele>66</ele>
        <time>2022-02-11T13:46:44Z</time>
      </trkpt>
      <trkpt lat="49.90379" lon="2.3659">
        <ele>66</ele>
        <time>2022-02-11T13:46:45Z</time>
      </trkpt>
      <trkpt lat="49.90379" lon="2.36592">
        <ele>66</ele>
        <time>2022-02-11T13:46:46Z</time>
      </trkpt>
      <trkpt lat="49.90379" lon="2.36595">
        <ele>66</ele>
        <time>2022-02-11T13:46:47Z</time>
      </trkpt>
      <trkpt lat="49.90379" lon="2.36596">
        <ele>66</ele>
        <time>2022-02-11T13:46:48Z</time>
      </trkpt>
      <trkpt lat="49.90379" lon="2.36597">
        <ele>66</ele>
        <time>2022-02-11T13:46:49Z</time>
      </trkpt>
      <trkpt lat="49.90379" lon="2.366">
        <ele>66</ele>
        <time>2022-02-11T13:46:50Z</time>
      </trkpt>
      <trkpt lat="49.90379" lon="2.36602">
        <ele>66</ele>
        <time>2022-02-11T13:46:51Z</time>
      </trkpt>
      <trkpt lat="49.90379" lon="2.36604">
        <ele>66</ele>
        <time>2022-02-11T13:46:53Z</time>
      </trkpt>
      <trkpt lat="49.90379" lon="2.36605">
        <ele>66</ele>
        <time>2022-02-11T13:46:54Z</time>
      </trkpt>
      <trkpt lat="49.90379" lon="2.36607">
        <ele>66</ele>
        <time>2022-02-11T13:46:55Z</time>
      </trkpt>
      <trkpt lat="49.90379" lon="2.36609">
        <ele>66</ele>
        <time>2022-02-11T13:46:56Z</time>
      </trkpt>
      <trkpt lat="49.90379" lon="2.36612">
        <ele>66</ele>
        <time>2022-02-11T13:46:57Z</time>
      </trkpt>
      <trkpt lat="49.90379" lon="2.36614">
        <ele>66</ele>
        <time>2022-02-11T13:46:58Z</time>
      </trkpt>
      <trkpt lat="49.90379" lon="2.36615">
        <ele>66</ele>
        <time>2022-02-11T13:46:59Z</time>
      </trkpt>
      <trkpt lat="49.9038" lon="2.36617">
        <ele>66</ele>
        <time>2022-02-11T13:47:00Z</time>
      </trkpt>
      <trkpt lat="49.9038" lon="2.36619">
        <ele>66</ele>
        <time>2022-02-11T13:47:01Z</time>
      </trkpt>
      <trkpt lat="49.9038" lon="2.36621">
        <ele>66</ele>
        <time>2022-02-11T13:47:02Z</time>
      </trkpt>
      <trkpt lat="49.9038" lon="2.36624">
        <ele>66</ele>
        <time>2022-02-11T13:47:04Z</time>
      </trkpt>
      <trkpt lat="49.9038" lon="2.36626">
        <ele>66</ele>
        <time>2022-02-11T13:47:05Z</time>
      </trkpt>
      <trkpt lat="49.9038" lon="2.36628">
        <ele>65.9</ele>
        <time>2022-02-11T13:47:06Z</time>
      </trkpt>
      <trkpt lat="49.9038" lon="2.36631">
        <ele>65.9</ele>
        <time>2022-02-11T13:47:07Z</time>
      </trkpt>
      <trkpt lat="49.9038" lon="2.36632">
        <ele>65.9</ele>
        <time>2022-02-11T13:47:08Z</time>
      </trkpt>
      <trkpt lat="49.9038" lon="2.36634">
        <ele>65.9</ele>
        <time>2022-02-11T13:47:09Z</time>
      </trkpt>
      <trkpt lat="49.9038" lon="2.36637">
        <ele>65.9</ele>
        <time>2022-02-11T13:47:10Z</time>
      </trkpt>
      <trkpt lat="49.9038" lon="2.36638">
        <ele>65.9</ele>
        <time>2022-02-11T13:47:11Z</time>
      </trkpt>
      <trkpt lat="49.9038" lon="2.36639">
        <ele>65.9</ele>
        <time>2022-02-11T13:47:12Z</time>
      </trkpt>
      <trkpt lat="49.9038" lon="2.36642">
        <ele>65.9</ele>
        <time>2022-02-11T13:47:14Z</time>
      </trkpt>
      <trkpt lat="49.9038" lon="2.36644">
        <ele>65.9</ele>
        <time>2022-02-11T13:47:15Z</time>
      </trkpt>
      <trkpt lat="49.90381" lon="2.36647">
        <ele>65.8</ele>
        <time>2022-02-11T13:47:16Z</time>
      </trkpt>
      <trkpt lat="49.90381" lon="2.36648">
        <ele>65.8</ele>
        <time>2022-02-11T13:47:17Z</time>
      </trkpt>
      <trkpt lat="49.90381" lon="2.3665">
        <ele>65.8</ele>
        <time>2022-02-11T13:47:18Z</time>
      </trkpt>
      <trkpt lat="49.9038" lon="2.36651">
        <ele>65.8</ele>
        <time>2022-02-11T13:47:20Z</time>
      </trkpt>
      <trkpt lat="49.9038" lon="2.36654">
        <ele>65.8</ele>
        <time>2022-02-11T13:47:21Z</time>
      </trkpt>
      <trkpt lat="49.90379" lon="2.36656">
        <ele>65.8</ele>
        <time>2022-02-11T13:47:22Z</time>
      </trkpt>
      <trkpt lat="49.90379" lon="2.36657">
        <ele>65.8</ele>
        <time>2022-02-11T13:47:23Z</time>
      </trkpt>
      <trkpt lat="49.90378" lon="2.36659">
        <ele>65.8</ele>
        <time>2022-02-11T13:47:25Z</time>
      </trkpt>
      <trkpt lat="49.90378" lon="2.36661">
        <ele>65.9</ele>
        <time>2022-02-11T13:47:26Z</time>
      </trkpt>
      <trkpt lat="49.90378" lon="2.36663">
        <ele>65.9</ele>
        <time>2022-02-11T13:47:27Z</time>
      </trkpt>
      <trkpt lat="49.90378" lon="2.36664">
        <ele>65.9</ele>
        <time>2022-02-11T13:47:28Z</time>
      </trkpt>
      <trkpt lat="49.90377" lon="2.36666">
        <ele>65.9</ele>
        <time>2022-02-11T13:47:29Z</time>
      </trkpt>
      <trkpt lat="49.90377" lon="2.36668">
        <ele>65.9</ele>
        <time>2022-02-11T13:47:30Z</time>
      </trkpt>
      <trkpt lat="49.90377" lon="2.36669">
        <ele>65.9</ele>
        <time>2022-02-11T13:47:31Z</time>
      </trkpt>
      <trkpt lat="49.90377" lon="2.36671">
        <ele>65.9</ele>
        <time>2022-02-11T13:47:32Z</time>
      </trkpt>
      <trkpt lat="49.90377" lon="2.36672">
        <ele>65.9</ele>
        <time>2022-02-11T13:47:33Z</time>
      </trkpt>
      <trkpt lat="49.90378" lon="2.36674">
        <ele>65.9</ele>
        <time>2022-02-11T13:47:34Z</time>
      </trkpt>
      <trkpt lat="49.90378" lon="2.36675">
        <ele>65.9</ele>
        <time>2022-02-11T13:47:35Z</time>
      </trkpt>
      <trkpt lat="49.90379" lon="2.36677">
        <ele>65.9</ele>
        <time>2022-02-11T13:47:36Z</time>
      </trkpt>
      <trkpt lat="49.90379" lon="2.36678">
        <ele>65.9</ele>
        <time>2022-02-11T13:47:37Z</time>
      </trkpt>
      <trkpt lat="49.9038" lon="2.3668">
        <ele>65.9</ele>
        <time>2022-02-11T13:47:38Z</time>
      </trkpt>
      <trkpt lat="49.9038" lon="2.36681">
        <ele>66</ele>
        <time>2022-02-11T13:47:39Z</time>
      </trkpt>
      <trkpt lat="49.9038" lon="2.36683">
        <ele>66</ele>
        <time>2022-02-11T13:47:40Z</time>
      </trkpt>
      <trkpt lat="49.9038" lon="2.36686">
        <ele>66</ele>
        <time>2022-02-11T13:47:41Z</time>
      </trkpt>
      <trkpt lat="49.9038" lon="2.36688">
        <ele>65.9</ele>
        <time>2022-02-11T13:47:43Z</time>
      </trkpt>
      <trkpt lat="49.9038" lon="2.36689">
        <ele>65.9</ele>
        <time>2022-02-11T13:47:44Z</time>
      </trkpt>
      <trkpt lat="49.9038" lon="2.36691">
        <ele>65.9</ele>
        <time>2022-02-11T13:47:45Z</time>
      </trkpt>
      <trkpt lat="49.90381" lon="2.36693">
        <ele>65.9</ele>
        <time>2022-02-11T13:47:46Z</time>
      </trkpt>
      <trkpt lat="49.90381" lon="2.36694">
        <ele>65.9</ele>
        <time>2022-02-11T13:47:47Z</time>
      </trkpt>
      <trkpt lat="49.90381" lon="2.36697">
        <ele>65.9</ele>
        <time>2022-02-11T13:47:48Z</time>
      </trkpt>
      <trkpt lat="49.90381" lon="2.36698">
        <ele>65.9</ele>
        <time>2022-02-11T13:47:49Z</time>
      </trkpt>
      <trkpt lat="49.9038" lon="2.367">
        <ele>65.9</ele>
        <time>2022-02-11T13:47:50Z</time>
      </trkpt>
      <trkpt lat="49.9038" lon="2.36702">
        <ele>65.9</ele>
        <time>2022-02-11T13:47:51Z</time>
      </trkpt>
      <trkpt lat="49.90381" lon="2.36703">
        <ele>65.8</ele>
        <time>2022-02-11T13:47:52Z</time>
      </trkpt>
      <trkpt lat="49.90381" lon="2.36705">
        <ele>65.8</ele>
        <time>2022-02-11T13:47:53Z</time>
      </trkpt>
      <trkpt lat="49.90381" lon="2.36707">
        <ele>65.8</ele>
        <time>2022-02-11T13:47:54Z</time>
      </trkpt>
      <trkpt lat="49.90381" lon="2.36709">
        <ele>65.8</ele>
        <time>2022-02-11T13:47:56Z</time>
      </trkpt>
      <trkpt lat="49.90381" lon="2.3671">
        <ele>65.8</ele>
        <time>2022-02-11T13:47:57Z</time>
      </trkpt>
      <trkpt lat="49.90381" lon="2.36714">
        <ele>65.8</ele>
        <time>2022-02-11T13:47:58Z</time>
      </trkpt>
      <trkpt lat="49.90381" lon="2.36715">
        <ele>65.8</ele>
        <time>2022-02-11T13:47:59Z</time>
      </trkpt>
      <trkpt lat="49.9038" lon="2.36716">
        <ele>65.8</ele>
        <time>2022-02-11T13:48:00Z</time>
      </trkpt>
      <trkpt lat="49.90381" lon="2.36719">
        <ele>65.8</ele>
        <time>2022-02-11T13:48:01Z</time>
      </trkpt>
      <trkpt lat="49.90381" lon="2.36721">
        <ele>65.8</ele>
        <time>2022-02-11T13:48:02Z</time>
      </trkpt>
      <trkpt lat="49.90381" lon="2.36722">
        <ele>65.8</ele>
        <time>2022-02-11T13:48:03Z</time>
      </trkpt>
      <trkpt lat="49.90381" lon="2.36724">
        <ele>65.8</ele>
        <time>2022-02-11T13:48:04Z</time>
      </trkpt>
      <trkpt lat="49.90381" lon="2.36727">
        <ele>65.9</ele>
        <time>2022-02-11T13:48:06Z</time>
      </trkpt>
      <trkpt lat="49.90381" lon="2.36729">
        <ele>65.9</ele>
        <time>2022-02-11T13:48:07Z</time>
      </trkpt>
      <trkpt lat="49.90381" lon="2.36731">
        <ele>65.9</ele>
        <time>2022-02-11T13:48:08Z</time>
      </trkpt>
      <trkpt lat="49.90382" lon="2.36734">
        <ele>66</ele>
        <time>2022-02-11T13:48:09Z</time>
      </trkpt>
      <trkpt lat="49.90382" lon="2.36736">
        <ele>66</ele>
        <time>2022-02-11T13:48:10Z</time>
      </trkpt>
      <trkpt lat="49.90382" lon="2.36737">
        <ele>66</ele>
        <time>2022-02-11T13:48:11Z</time>
      </trkpt>
      <trkpt lat="49.90382" lon="2.3674">
        <ele>66</ele>
        <time>2022-02-11T13:48:12Z</time>
      </trkpt>
      <trkpt lat="49.90382" lon="2.36741">
        <ele>66.1</ele>
        <time>2022-02-11T13:48:13Z</time>
      </trkpt>
      <trkpt lat="49.90381" lon="2.36743">
        <ele>66.1</ele>
        <time>2022-02-11T13:48:14Z</time>
      </trkpt>
      <trkpt lat="49.90382" lon="2.36746">
        <ele>66.1</ele>
        <time>2022-02-11T13:48:15Z</time>
      </trkpt>
      <trkpt lat="49.90382" lon="2.36748">
        <ele>66.1</ele>
        <time>2022-02-11T13:48:17Z</time>
      </trkpt>
      <trkpt lat="49.90382" lon="2.3675">
        <ele>66.2</ele>
        <time>2022-02-11T13:48:18Z</time>
      </trkpt>
      <trkpt lat="49.90382" lon="2.36751">
        <ele>66.2</ele>
        <time>2022-02-11T13:48:19Z</time>
      </trkpt>
      <trkpt lat="49.90382" lon="2.36753">
        <ele>66.2</ele>
        <time>2022-02-11T13:48:20Z</time>
      </trkpt>
      <trkpt lat="49.90382" lon="2.36755">
        <ele>66.2</ele>
        <time>2022-02-11T13:48:21Z</time>
      </trkpt>
      <trkpt lat="49.90382" lon="2.36756">
        <ele>66.2</ele>
        <time>2022-02-11T13:48:22Z</time>
      </trkpt>
      <trkpt lat="49.90382" lon="2.36758">
        <ele>66.2</ele>
        <time>2022-02-11T13:48:23Z</time>
      </trkpt>
      <trkpt lat="49.90382" lon="2.3676">
        <ele>66.3</ele>
        <time>2022-02-11T13:48:25Z</time>
      </trkpt>
      <trkpt lat="49.90382" lon="2.36762">
        <ele>66.3</ele>
        <time>2022-02-11T13:48:26Z</time>
      </trkpt>
      <trkpt lat="49.90382" lon="2.36763">
        <ele>66.3</ele>
        <time>2022-02-11T13:48:27Z</time>
      </trkpt>
      <trkpt lat="49.90381" lon="2.36765">
        <ele>66.3</ele>
        <time>2022-02-11T13:48:28Z</time>
      </trkpt>
      <trkpt lat="49.90381" lon="2.36767">
        <ele>66.3</ele>
        <time>2022-02-11T13:48:29Z</time>
      </trkpt>
      <trkpt lat="49.90381" lon="2.36769">
        <ele>66.3</ele>
        <time>2022-02-11T13:48:31Z</time>
      </trkpt>
      <trkpt lat="49.90381" lon="2.36771">
        <ele>66.3</ele>
        <time>2022-02-11T13:48:32Z</time>
      </trkpt>
      <trkpt lat="49.90382" lon="2.36772">
        <ele>66.4</ele>
        <time>2022-02-11T13:48:33Z</time>
      </trkpt>
      <trkpt lat="49.90382" lon="2.36774">
        <ele>66.4</ele>
        <time>2022-02-11T13:48:34Z</time>
      </trkpt>
      <trkpt lat="49.90382" lon="2.36776">
        <ele>66.4</ele>
        <time>2022-02-11T13:48:35Z</time>
      </trkpt>
      <trkpt lat="49.90383" lon="2.36778">
        <ele>66.4</ele>
        <time>2022-02-11T13:48:36Z</time>
      </trkpt>
      <trkpt lat="49.90383" lon="2.3678">
        <ele>66.4</ele>
        <time>2022-02-11T13:48:38Z</time>
      </trkpt>
      <trkpt lat="49.90383" lon="2.36784">
        <ele>66.5</ele>
        <time>2022-02-11T13:48:39Z</time>
      </trkpt>
      <trkpt lat="49.90383" lon="2.36785">
        <ele>66.5</ele>
        <time>2022-02-11T13:48:40Z</time>
      </trkpt>
      <trkpt lat="49.90383" lon="2.36786">
        <ele>66.5</ele>
        <time>2022-02-11T13:48:41Z</time>
      </trkpt>
      <trkpt lat="49.90383" lon="2.36788">
        <ele>66.5</ele>
        <time>2022-02-11T13:48:42Z</time>
      </trkpt>
      <trkpt lat="49.90383" lon="2.3679">
        <ele>66.5</ele>
        <time>2022-02-11T13:48:43Z</time>
      </trkpt>
      <trkpt lat="49.90383" lon="2.36792">
        <ele>66.5</ele>
        <time>2022-02-11T13:48:44Z</time>
      </trkpt>
      <trkpt lat="49.90383" lon="2.36795">
        <ele>66.6</ele>
        <time>2022-02-11T13:48:46Z</time>
      </trkpt>
      <trkpt lat="49.90383" lon="2.36797">
        <ele>66.6</ele>
        <time>2022-02-11T13:48:47Z</time>
      </trkpt>
      <trkpt lat="49.90384" lon="2.36799">
        <ele>66.6</ele>
        <time>2022-02-11T13:48:48Z</time>
      </trkpt>
      <trkpt lat="49.90384" lon="2.368">
        <ele>66.6</ele>
        <time>2022-02-11T13:48:49Z</time>
      </trkpt>
      <trkpt lat="49.90384" lon="2.36802">
        <ele>66.7</ele>
        <time>2022-02-11T13:48:50Z</time>
      </trkpt>
      <trkpt lat="49.90384" lon="2.36804">
        <ele>66.7</ele>
        <time>2022-02-11T13:48:52Z</time>
      </trkpt>
      <trkpt lat="49.90384" lon="2.36805">
        <ele>66.7</ele>
        <time>2022-02-11T13:48:53Z</time>
      </trkpt>
      <trkpt lat="49.90384" lon="2.36806">
        <ele>66.7</ele>
        <time>2022-02-11T13:48:54Z</time>
      </trkpt>
      <trkpt lat="49.90384" lon="2.36806">
        <ele>66.7</ele>
        <time>2022-02-11T13:48:55Z</time>
      </trkpt>
      <trkpt lat="49.90383" lon="2.36806">
        <ele>66.7</ele>
        <time>2022-02-11T13:48:56Z</time>
      </trkpt>
      <trkpt lat="49.90383" lon="2.36807">
        <ele>66.7</ele>
        <time>2022-02-11T13:48:57Z</time>
      </trkpt>
      <trkpt lat="49.90383" lon="2.36807">
        <ele>66.7</ele>
        <time>2022-02-11T13:48:58Z</time>
      </trkpt>
      <trkpt lat="49.90383" lon="2.36807">
        <ele>66.7</ele>
        <time>2022-02-11T13:48:59Z</time>
      </trkpt>
      <trkpt lat="49.90383" lon="2.36807">
        <ele>66.7</ele>
        <time>2022-02-11T13:49:00Z</time>
      </trkpt>
      <trkpt lat="49.90383" lon="2.36808">
        <ele>66.7</ele>
        <time>2022-02-11T13:49:01Z</time>
      </trkpt>
      <trkpt lat="49.90383" lon="2.36808">
        <ele>66.7</ele>
        <time>2022-02-11T13:49:02Z</time>
      </trkpt>
      <trkpt lat="49.90383" lon="2.36808">
        <ele>66.7</ele>
        <time>2022-02-11T13:49:03Z</time>
      </trkpt>
      <trkpt lat="49.90383" lon="2.36808">
        <ele>66.7</ele>
        <time>2022-02-11T13:49:04Z</time>
      </trkpt>
      <trkpt lat="49.90383" lon="2.36808">
        <ele>66.7</ele>
        <time>2022-02-11T13:49:05Z</time>
      </trkpt>
      <trkpt lat="49.90383" lon="2.36808">
        <ele>66.7</ele>
        <time>2022-02-11T13:49:06Z</time>
      </trkpt>
      <trkpt lat="49.90383" lon="2.36808">
        <ele>66.7</ele>
        <time>2022-02-11T13:49:07Z</time>
      </trkpt>
      <trkpt lat="49.90383" lon="2.36808">
        <ele>66.7</ele>
        <time>2022-02-11T13:49:08Z</time>
      </trkpt>
      <trkpt lat="49.90383" lon="2.36808">
        <ele>66.7</ele>
        <time>2022-02-11T13:49:09Z</time>
      </trkpt>
      <trkpt lat="49.90383" lon="2.36808">
        <ele>66.7</ele>
        <time>2022-02-11T13:49:10Z</time>
      </trkpt>
      <trkpt lat="49.90383" lon="2.36808">
        <ele>66.7</ele>
        <time>2022-02-11T13:49:11Z</time>
      </trkpt>
      <trkpt lat="49.90383" lon="2.36808">
        <ele>66.7</ele>
        <time>2022-02-11T13:49:12Z</time>
      </trkpt>
      <trkpt lat="49.90383" lon="2.36808">
        <ele>66.7</ele>
        <time>2022-02-11T13:49:13Z</time>
      </trkpt>
      <trkpt lat="49.90383" lon="2.36808">
        <ele>66.7</ele>
        <time>2022-02-11T13:49:14Z</time>
      </trkpt>
      <trkpt lat="49.90382" lon="2.36809">
        <ele>66.7</ele>
        <time>2022-02-11T13:49:15Z</time>
      </trkpt>
      <trkpt lat="49.90382" lon="2.36809">
        <ele>66.7</ele>
        <time>2022-02-11T13:49:16Z</time>
      </trkpt>
      <trkpt lat="49.90382" lon="2.36809">
        <ele>66.7</ele>
        <time>2022-02-11T13:49:17Z</time>
      </trkpt>
      <trkpt lat="49.90382" lon="2.36808">
        <ele>66.7</ele>
        <time>2022-02-11T13:49:18Z</time>
      </trkpt>
      <trkpt lat="49.90382" lon="2.36807">
        <ele>66.7</ele>
        <time>2022-02-11T13:49:19Z</time>
      </trkpt>
      <trkpt lat="49.90382" lon="2.36807">
        <ele>66.7</ele>
        <time>2022-02-11T13:49:20Z</time>
      </trkpt>
      <trkpt lat="49.90382" lon="2.36807">
        <ele>66.7</ele>
        <time>2022-02-11T13:49:21Z</time>
      </trkpt>
      <trkpt lat="49.90382" lon="2.36806">
        <ele>66.7</ele>
        <time>2022-02-11T13:49:22Z</time>
      </trkpt>
      <trkpt lat="49.90382" lon="2.36806">
        <ele>66.7</ele>
        <time>2022-02-11T13:49:23Z</time>
      </trkpt>
      <trkpt lat="49.90382" lon="2.36806">
        <ele>66.7</ele>
        <time>2022-02-11T13:49:24Z</time>
      </trkpt>
      <trkpt lat="49.90382" lon="2.36806">
        <ele>66.7</ele>
        <time>2022-02-11T13:49:25Z</time>
      </trkpt>
      <trkpt lat="49.90382" lon="2.36806">
        <ele>66.7</ele>
        <time>2022-02-11T13:49:26Z</time>
      </trkpt>
      <trkpt lat="49.90382" lon="2.36806">
        <ele>66.7</ele>
        <time>2022-02-11T13:49:27Z</time>
      </trkpt>
      <trkpt lat="49.90382" lon="2.36806">
        <ele>66.7</ele>
        <time>2022-02-11T13:49:28Z</time>
      </trkpt>
      <trkpt lat="49.90382" lon="2.36806">
        <ele>66.7</ele>
        <time>2022-02-11T13:49:29Z</time>
      </trkpt>
      <trkpt lat="49.90382" lon="2.36806">
        <ele>66.7</ele>
        <time>2022-02-11T13:49:30Z</time>
      </trkpt>
      <trkpt lat="49.90382" lon="2.36806">
        <ele>66.7</ele>
        <time>2022-02-11T13:49:31Z</time>
      </trkpt>
      <trkpt lat="49.90382" lon="2.36806">
        <ele>66.7</ele>
        <time>2022-02-11T13:49:32Z</time>
      </trkpt>
      <trkpt lat="49.90382" lon="2.36806">
        <ele>66.7</ele>
        <time>2022-02-11T13:49:33Z</time>
      </trkpt>
      <trkpt lat="49.90382" lon="2.36806">
        <ele>66.7</ele>
        <time>2022-02-11T13:49:34Z</time>
      </trkpt>
      <trkpt lat="49.90382" lon="2.36806">
        <ele>66.7</ele>
        <time>2022-02-11T13:49:35Z</time>
      </trkpt>
      <trkpt lat="49.90382" lon="2.36806">
        <ele>66.7</ele>
        <time>2022-02-11T13:49:36Z</time>
      </trkpt>
      <trkpt lat="49.90382" lon="2.36806">
        <ele>66.7</ele>
        <time>2022-02-11T13:49:37Z</time>
      </trkpt>
      <trkpt lat="49.90382" lon="2.36806">
        <ele>66.7</ele>
        <time>2022-02-11T13:49:38Z</time>
      </trkpt>
      <trkpt lat="49.90382" lon="2.36806">
        <ele>66.7</ele>
        <time>2022-02-11T13:49:39Z</time>
      </trkpt>
      <trkpt lat="49.90382" lon="2.36806">
        <ele>66.7</ele>
        <time>2022-02-11T13:49:40Z</time>
      </trkpt>
      <trkpt lat="49.90382" lon="2.36806">
        <ele>66.7</ele>
        <time>2022-02-11T13:49:41Z</time>
      </trkpt>
      <trkpt lat="49.90382" lon="2.36806">
        <ele>66.7</ele>
        <time>2022-02-11T13:49:42Z</time>
      </trkpt>
      <trkpt lat="49.90382" lon="2.36806">
        <ele>66.7</ele>
        <time>2022-02-11T13:49:43Z</time>
      </trkpt>
      <trkpt lat="49.90382" lon="2.36806">
        <ele>66.7</ele>
        <time>2022-02-11T13:49:44Z</time>
      </trkpt>
      <trkpt lat="49.90382" lon="2.36806">
        <ele>66.7</ele>
        <time>2022-02-11T13:49:45Z</time>
      </trkpt>
      <trkpt lat="49.90382" lon="2.36806">
        <ele>66.7</ele>
        <time>2022-02-11T13:49:46Z</time>
      </trkpt>
      <trkpt lat="49.90382" lon="2.36806">
        <ele>66.7</ele>
        <time>2022-02-11T13:49:47Z</time>
      </trkpt>
      <trkpt lat="49.90382" lon="2.36806">
        <ele>66.7</ele>
        <time>2022-02-11T13:49:48Z</time>
      </trkpt>
      <trkpt lat="49.90382" lon="2.36806">
        <ele>66.7</ele>
        <time>2022-02-11T13:49:49Z</time>
      </trkpt>
      <trkpt lat="49.90382" lon="2.36806">
        <ele>66.7</ele>
        <time>2022-02-11T13:49:50Z</time>
      </trkpt>
      <trkpt lat="49.90382" lon="2.36806">
        <ele>66.7</ele>
        <time>2022-02-11T13:49:51Z</time>
      </trkpt>
      <trkpt lat="49.90382" lon="2.36806">
        <ele>66.7</ele>
        <time>2022-02-11T13:49:52Z</time>
      </trkpt>
      <trkpt lat="49.90382" lon="2.36806">
        <ele>66.7</ele>
        <time>2022-02-11T13:49:53Z</time>
      </trkpt>
      <trkpt lat="49.90382" lon="2.36806">
        <ele>66.7</ele>
        <time>2022-02-11T13:49:54Z</time>
      </trkpt>
      <trkpt lat="49.90382" lon="2.36806">
        <ele>66.7</ele>
        <time>2022-02-11T13:49:55Z</time>
      </trkpt>
      <trkpt lat="49.90382" lon="2.36806">
        <ele>66.7</ele>
        <time>2022-02-11T13:49:56Z</time>
      </trkpt>
      <trkpt lat="49.90382" lon="2.36806">
        <ele>66.7</ele>
        <time>2022-02-11T13:49:57Z</time>
      </trkpt>
      <trkpt lat="49.90382" lon="2.36806">
        <ele>66.7</ele>
        <time>2022-02-11T13:49:58Z</time>
      </trkpt>
      <trkpt lat="49.90382" lon="2.36806">
        <ele>66.7</ele>
        <time>2022-02-11T13:49:59Z</time>
      </trkpt>
      <trkpt lat="49.90382" lon="2.36806">
        <ele>66.7</ele>
        <time>2022-02-11T13:50:00Z</time>
      </trkpt>
      <trkpt lat="49.90382" lon="2.36806">
        <ele>66.7</ele>
        <time>2022-02-11T13:50:01Z</time>
      </trkpt>
      <trkpt lat="49.90382" lon="2.36806">
        <ele>66.7</ele>
        <time>2022-02-11T13:50:02Z</time>
      </trkpt>
      <trkpt lat="49.90382" lon="2.36806">
        <ele>66.7</ele>
        <time>2022-02-11T13:50:03Z</time>
      </trkpt>
      <trkpt lat="49.90382" lon="2.36806">
        <ele>66.7</ele>
        <time>2022-02-11T13:50:04Z</time>
      </trkpt>
      <trkpt lat="49.90382" lon="2.36806">
        <ele>66.7</ele>
        <time>2022-02-11T13:50:05Z</time>
      </trkpt>
      <trkpt lat="49.90382" lon="2.36806">
        <ele>66.7</ele>
        <time>2022-02-11T13:50:06Z</time>
      </trkpt>
      <trkpt lat="49.90382" lon="2.36806">
        <ele>66.7</ele>
        <time>2022-02-11T13:50:07Z</time>
      </trkpt>
      <trkpt lat="49.90382" lon="2.36806">
        <ele>66.7</ele>
        <time>2022-02-11T13:50:08Z</time>
      </trkpt>
      <trkpt lat="49.90382" lon="2.36806">
        <ele>66.7</ele>
        <time>2022-02-11T13:50:09Z</time>
      </trkpt>
      <trkpt lat="49.90382" lon="2.36806">
        <ele>66.7</ele>
        <time>2022-02-11T13:50:10Z</time>
      </trkpt>
      <trkpt lat="49.90382" lon="2.36806">
        <ele>66.7</ele>
        <time>2022-02-11T13:50:11Z</time>
      </trkpt>
      <trkpt lat="49.90382" lon="2.36806">
        <ele>66.7</ele>
        <time>2022-02-11T13:50:12Z</time>
      </trkpt>
      <trkpt lat="49.90382" lon="2.36806">
        <ele>66.7</ele>
        <time>2022-02-11T13:50:13Z</time>
      </trkpt>
      <trkpt lat="49.90382" lon="2.36806">
        <ele>66.7</ele>
        <time>2022-02-11T13:50:14Z</time>
      </trkpt>
      <trkpt lat="49.90382" lon="2.36806">
        <ele>66.7</ele>
        <time>2022-02-11T13:50:15Z</time>
      </trkpt>
      <trkpt lat="49.90382" lon="2.36806">
        <ele>66.7</ele>
        <time>2022-02-11T13:50:16Z</time>
      </trkpt>
      <trkpt lat="49.90382" lon="2.36806">
        <ele>66.7</ele>
        <time>2022-02-11T13:50:17Z</time>
      </trkpt>
      <trkpt lat="49.90382" lon="2.36806">
        <ele>66.7</ele>
        <time>2022-02-11T13:50:18Z</time>
      </trkpt>
      <trkpt lat="49.90382" lon="2.36806">
        <ele>66.7</ele>
        <time>2022-02-11T13:50:19Z</time>
      </trkpt>
      <trkpt lat="49.90382" lon="2.36806">
        <ele>66.7</ele>
        <time>2022-02-11T13:50:20Z</time>
      </trkpt>
      <trkpt lat="49.90382" lon="2.36806">
        <ele>66.7</ele>
        <time>2022-02-11T13:50:21Z</time>
      </trkpt>
      <trkpt lat="49.90382" lon="2.36806">
        <ele>66.7</ele>
        <time>2022-02-11T13:50:22Z</time>
      </trkpt>
      <trkpt lat="49.90382" lon="2.36806">
        <ele>66.7</ele>
        <time>2022-02-11T13:50:23Z</time>
      </trkpt>
      <trkpt lat="49.90382" lon="2.36806">
        <ele>66.7</ele>
        <time>2022-02-11T13:50:24Z</time>
      </trkpt>
      <trkpt lat="49.90382" lon="2.36806">
        <ele>66.7</ele>
        <time>2022-02-11T13:50:25Z</time>
      </trkpt>
      <trkpt lat="49.90382" lon="2.36806">
        <ele>66.7</ele>
        <time>2022-02-11T13:50:26Z</time>
      </trkpt>
      <trkpt lat="49.90382" lon="2.36806">
        <ele>66.7</ele>
        <time>2022-02-11T13:50:27Z</time>
      </trkpt>
      <trkpt lat="49.90382" lon="2.36806">
        <ele>66.7</ele>
        <time>2022-02-11T13:50:28Z</time>
      </trkpt>
      <trkpt lat="49.90382" lon="2.36806">
        <ele>66.7</ele>
        <time>2022-02-11T13:50:29Z</time>
      </trkpt>
      <trkpt lat="49.90382" lon="2.36806">
        <ele>66.7</ele>
        <time>2022-02-11T13:50:30Z</time>
      </trkpt>
      <trkpt lat="49.90382" lon="2.36806">
        <ele>66.7</ele>
        <time>2022-02-11T13:50:31Z</time>
      </trkpt>
      <trkpt lat="49.90382" lon="2.36806">
        <ele>66.7</ele>
        <time>2022-02-11T13:50:32Z</time>
      </trkpt>
      <trkpt lat="49.90382" lon="2.36806">
        <ele>66.7</ele>
        <time>2022-02-11T13:50:33Z</time>
      </trkpt>
      <trkpt lat="49.90382" lon="2.36806">
        <ele>66.7</ele>
        <time>2022-02-11T13:50:34Z</time>
      </trkpt>
      <trkpt lat="49.90383" lon="2.36804">
        <ele>66.7</ele>
        <time>2022-02-11T13:50:35Z</time>
      </trkpt>
      <trkpt lat="49.90384" lon="2.36802">
        <ele>66.7</ele>
        <time>2022-02-11T13:50:36Z</time>
      </trkpt>
      <trkpt lat="49.90384" lon="2.36803">
        <ele>66.7</ele>
        <time>2022-02-11T13:50:37Z</time>
      </trkpt>
      <trkpt lat="49.90384" lon="2.36804">
        <ele>66.7</ele>
        <time>2022-02-11T13:50:38Z</time>
      </trkpt>
      <trkpt lat="49.90384" lon="2.36804">
        <ele>66.7</ele>
        <time>2022-02-11T13:50:39Z</time>
      </trkpt>
      <trkpt lat="49.90384" lon="2.36805">
        <ele>66.7</ele>
        <time>2022-02-11T13:50:41Z</time>
      </trkpt>
      <trkpt lat="49.90385" lon="2.36806">
        <ele>66.7</ele>
        <time>2022-02-11T13:50:42Z</time>
      </trkpt>
      <trkpt lat="49.90384" lon="2.36811">
        <ele>66.7</ele>
        <time>2022-02-11T13:50:43Z</time>
      </trkpt>
      <trkpt lat="49.90384" lon="2.36812">
        <ele>66.7</ele>
        <time>2022-02-11T13:50:44Z</time>
      </trkpt>
      <trkpt lat="49.90382" lon="2.36817">
        <ele>66.7</ele>
        <time>2022-02-11T13:50:45Z</time>
      </trkpt>
      <trkpt lat="49.90382" lon="2.36818">
        <ele>66.7</ele>
        <time>2022-02-11T13:50:46Z</time>
      </trkpt>
      <trkpt lat="49.90381" lon="2.3682">
        <ele>66.7</ele>
        <time>2022-02-11T13:50:48Z</time>
      </trkpt>
      <trkpt lat="49.90379" lon="2.36822">
        <ele>66.7</ele>
        <time>2022-02-11T13:50:49Z</time>
      </trkpt>
      <trkpt lat="49.90378" lon="2.36823">
        <ele>66.7</ele>
        <time>2022-02-11T13:50:50Z</time>
      </trkpt>
      <trkpt lat="49.90377" lon="2.36825">
        <ele>66.5</ele>
        <time>2022-02-11T13:50:51Z</time>
      </trkpt>
      <trkpt lat="49.90375" lon="2.36827">
        <ele>66.5</ele>
        <time>2022-02-11T13:50:52Z</time>
      </trkpt>
      <trkpt lat="49.90374" lon="2.36827">
        <ele>66.5</ele>
        <time>2022-02-11T13:50:53Z</time>
      </trkpt>
      <trkpt lat="49.90374" lon="2.36828">
        <ele>66.5</ele>
        <time>2022-02-11T13:50:54Z</time>
      </trkpt>
      <trkpt lat="49.90373" lon="2.3683">
        <ele>66.4</ele>
        <time>2022-02-11T13:50:56Z</time>
      </trkpt>
      <trkpt lat="49.90372" lon="2.36831">
        <ele>66.4</ele>
        <time>2022-02-11T13:50:57Z</time>
      </trkpt>
      <trkpt lat="49.90372" lon="2.36833">
        <ele>66.4</ele>
        <time>2022-02-11T13:50:58Z</time>
      </trkpt>
      <trkpt lat="49.90372" lon="2.36834">
        <ele>66.4</ele>
        <time>2022-02-11T13:50:59Z</time>
      </trkpt>
      <trkpt lat="49.90372" lon="2.36836">
        <ele>66.4</ele>
        <time>2022-02-11T13:51:00Z</time>
      </trkpt>
      <trkpt lat="49.90373" lon="2.36838">
        <ele>66.4</ele>
        <time>2022-02-11T13:51:01Z</time>
      </trkpt>
      <trkpt lat="49.90373" lon="2.36841">
        <ele>66.4</ele>
        <time>2022-02-11T13:51:03Z</time>
      </trkpt>
      <trkpt lat="49.90373" lon="2.36842">
        <ele>66.4</ele>
        <time>2022-02-11T13:51:04Z</time>
      </trkpt>
      <trkpt lat="49.90373" lon="2.36844">
        <ele>66.4</ele>
        <time>2022-02-11T13:51:05Z</time>
      </trkpt>
      <trkpt lat="49.90373" lon="2.36845">
        <ele>66.3</ele>
        <time>2022-02-11T13:51:06Z</time>
      </trkpt>
      <trkpt lat="49.90372" lon="2.36847">
        <ele>66.3</ele>
        <time>2022-02-11T13:51:07Z</time>
      </trkpt>
      <trkpt lat="49.90372" lon="2.36849">
        <ele>66.3</ele>
        <time>2022-02-11T13:51:08Z</time>
      </trkpt>
      <trkpt lat="49.90372" lon="2.36852">
        <ele>66.3</ele>
        <time>2022-02-11T13:51:10Z</time>
      </trkpt>
      <trkpt lat="49.90372" lon="2.36855">
        <ele>66.3</ele>
        <time>2022-02-11T13:51:11Z</time>
      </trkpt>
      <trkpt lat="49.90371" lon="2.36857">
        <ele>66.3</ele>
        <time>2022-02-11T13:51:12Z</time>
      </trkpt>
      <trkpt lat="49.90371" lon="2.36858">
        <ele>66.3</ele>
        <time>2022-02-11T13:51:13Z</time>
      </trkpt>
      <trkpt lat="49.90371" lon="2.3686">
        <ele>66.3</ele>
        <time>2022-02-11T13:51:14Z</time>
      </trkpt>
      <trkpt lat="49.90371" lon="2.36863">
        <ele>66.3</ele>
        <time>2022-02-11T13:51:16Z</time>
      </trkpt>
      <trkpt lat="49.90371" lon="2.36864">
        <ele>66.3</ele>
        <time>2022-02-11T13:51:17Z</time>
      </trkpt>
      <trkpt lat="49.9037" lon="2.36865">
        <ele>66.3</ele>
        <time>2022-02-11T13:51:18Z</time>
      </trkpt>
      <trkpt lat="49.9037" lon="2.36869">
        <ele>66.3</ele>
        <time>2022-02-11T13:51:19Z</time>
      </trkpt>
      <trkpt lat="49.9037" lon="2.3687">
        <ele>66.3</ele>
        <time>2022-02-11T13:51:20Z</time>
      </trkpt>
      <trkpt lat="49.9037" lon="2.36872">
        <ele>66.2</ele>
        <time>2022-02-11T13:51:21Z</time>
      </trkpt>
      <trkpt lat="49.90371" lon="2.36875">
        <ele>66.2</ele>
        <time>2022-02-11T13:51:22Z</time>
      </trkpt>
      <trkpt lat="49.90371" lon="2.36876">
        <ele>66.2</ele>
        <time>2022-02-11T13:51:23Z</time>
      </trkpt>
      <trkpt lat="49.90371" lon="2.36878">
        <ele>66.2</ele>
        <time>2022-02-11T13:51:25Z</time>
      </trkpt>
      <trkpt lat="49.90371" lon="2.36879">
        <ele>66.2</ele>
        <time>2022-02-11T13:51:26Z</time>
      </trkpt>
      <trkpt lat="49.90371" lon="2.36881">
        <ele>66.2</ele>
        <time>2022-02-11T13:51:27Z</time>
      </trkpt>
      <trkpt lat="49.90372" lon="2.36882">
        <ele>66.2</ele>
        <time>2022-02-11T13:51:28Z</time>
      </trkpt>
      <trkpt lat="49.90372" lon="2.36884">
        <ele>66.2</ele>
        <time>2022-02-11T13:51:29Z</time>
      </trkpt>
      <trkpt lat="49.90372" lon="2.36885">
        <ele>66.2</ele>
        <time>2022-02-11T13:51:30Z</time>
      </trkpt>
      <trkpt lat="49.90372" lon="2.36887">
        <ele>66.2</ele>
        <time>2022-02-11T13:51:31Z</time>
      </trkpt>
      <trkpt lat="49.90373" lon="2.36889">
        <ele>66.2</ele>
        <time>2022-02-11T13:51:32Z</time>
      </trkpt>
      <trkpt lat="49.90373" lon="2.36891">
        <ele>66.2</ele>
        <time>2022-02-11T13:51:33Z</time>
      </trkpt>
      <trkpt lat="49.90373" lon="2.36892">
        <ele>66.2</ele>
        <time>2022-02-11T13:51:34Z</time>
      </trkpt>
      <trkpt lat="49.90373" lon="2.36896">
        <ele>66.2</ele>
        <time>2022-02-11T13:51:35Z</time>
      </trkpt>
      <trkpt lat="49.90373" lon="2.36898">
        <ele>66.2</ele>
        <time>2022-02-11T13:51:37Z</time>
      </trkpt>
      <trkpt lat="49.90373" lon="2.36899">
        <ele>66.2</ele>
        <time>2022-02-11T13:51:38Z</time>
      </trkpt>
      <trkpt lat="49.90373" lon="2.36901">
        <ele>66.2</ele>
        <time>2022-02-11T13:51:39Z</time>
      </trkpt>
      <trkpt lat="49.90373" lon="2.36902">
        <ele>66.2</ele>
        <time>2022-02-11T13:51:40Z</time>
      </trkpt>
      <trkpt lat="49.90373" lon="2.36904">
        <ele>66.2</ele>
        <time>2022-02-11T13:51:41Z</time>
      </trkpt>
      <trkpt lat="49.90373" lon="2.36906">
        <ele>66.2</ele>
        <time>2022-02-11T13:51:42Z</time>
      </trkpt>
      <trkpt lat="49.90373" lon="2.36907">
        <ele>66.2</ele>
        <time>2022-02-11T13:51:44Z</time>
      </trkpt>
      <trkpt lat="49.90373" lon="2.36909">
        <ele>66.2</ele>
        <time>2022-02-11T13:51:45Z</time>
      </trkpt>
      <trkpt lat="49.90373" lon="2.36911">
        <ele>66.2</ele>
        <time>2022-02-11T13:51:46Z</time>
      </trkpt>
      <trkpt lat="49.90373" lon="2.36913">
        <ele>66.2</ele>
        <time>2022-02-11T13:51:47Z</time>
      </trkpt>
      <trkpt lat="49.90373" lon="2.36916">
        <ele>66.2</ele>
        <time>2022-02-11T13:51:48Z</time>
      </trkpt>
      <trkpt lat="49.90373" lon="2.36918">
        <ele>66.2</ele>
        <time>2022-02-11T13:51:49Z</time>
      </trkpt>
      <trkpt lat="49.90373" lon="2.36919">
        <ele>66.2</ele>
        <time>2022-02-11T13:51:51Z</time>
      </trkpt>
      <trkpt lat="49.90373" lon="2.36921">
        <ele>66.2</ele>
        <time>2022-02-11T13:51:52Z</time>
      </trkpt>
      <trkpt lat="49.90373" lon="2.36922">
        <ele>66.2</ele>
        <time>2022-02-11T13:51:53Z</time>
      </trkpt>
      <trkpt lat="49.90373" lon="2.36924">
        <ele>66.2</ele>
        <time>2022-02-11T13:51:54Z</time>
      </trkpt>
      <trkpt lat="49.90372" lon="2.36927">
        <ele>66.2</ele>
        <time>2022-02-11T13:51:55Z</time>
      </trkpt>
      <trkpt lat="49.90372" lon="2.36929">
        <ele>66.2</ele>
        <time>2022-02-11T13:51:56Z</time>
      </trkpt>
      <trkpt lat="49.90372" lon="2.3693">
        <ele>66.2</ele>
        <time>2022-02-11T13:51:57Z</time>
      </trkpt>
      <trkpt lat="49.90372" lon="2.36933">
        <ele>66.2</ele>
        <time>2022-02-11T13:51:59Z</time>
      </trkpt>
      <trkpt lat="49.90372" lon="2.36934">
        <ele>66.2</ele>
        <time>2022-02-11T13:52:00Z</time>
      </trkpt>
      <trkpt lat="49.90372" lon="2.36936">
        <ele>66.2</ele>
        <time>2022-02-11T13:52:01Z</time>
      </trkpt>
      <trkpt lat="49.90373" lon="2.36939">
        <ele>66.2</ele>
        <time>2022-02-11T13:52:02Z</time>
      </trkpt>
      <trkpt lat="49.90373" lon="2.3694">
        <ele>66.2</ele>
        <time>2022-02-11T13:52:03Z</time>
      </trkpt>
      <trkpt lat="49.90373" lon="2.36941">
        <ele>66.2</ele>
        <time>2022-02-11T13:52:04Z</time>
      </trkpt>
      <trkpt lat="49.90374" lon="2.36943">
        <ele>66.2</ele>
        <time>2022-02-11T13:52:06Z</time>
      </trkpt>
      <trkpt lat="49.90374" lon="2.36945">
        <ele>66.2</ele>
        <time>2022-02-11T13:52:07Z</time>
      </trkpt>
      <trkpt lat="49.90374" lon="2.36947">
        <ele>66.2</ele>
        <time>2022-02-11T13:52:08Z</time>
      </trkpt>
      <trkpt lat="49.90374" lon="2.36949">
        <ele>66.2</ele>
        <time>2022-02-11T13:52:09Z</time>
      </trkpt>
      <trkpt lat="49.90374" lon="2.3695">
        <ele>66.2</ele>
        <time>2022-02-11T13:52:10Z</time>
      </trkpt>
      <trkpt lat="49.90374" lon="2.36952">
        <ele>66.2</ele>
        <time>2022-02-11T13:52:11Z</time>
      </trkpt>
      <trkpt lat="49.90373" lon="2.36954">
        <ele>66.2</ele>
        <time>2022-02-11T13:52:13Z</time>
      </trkpt>
      <trkpt lat="49.90373" lon="2.36955">
        <ele>66.2</ele>
        <time>2022-02-11T13:52:14Z</time>
      </trkpt>
      <trkpt lat="49.90373" lon="2.36957">
        <ele>66.2</ele>
        <time>2022-02-11T13:52:15Z</time>
      </trkpt>
      <trkpt lat="49.90373" lon="2.36959">
        <ele>66.2</ele>
        <time>2022-02-11T13:52:16Z</time>
      </trkpt>
      <trkpt lat="49.90373" lon="2.36961">
        <ele>66.2</ele>
        <time>2022-02-11T13:52:17Z</time>
      </trkpt>
      <trkpt lat="49.90373" lon="2.36963">
        <ele>66.2</ele>
        <time>2022-02-11T13:52:18Z</time>
      </trkpt>
      <trkpt lat="49.90373" lon="2.36964">
        <ele>66.2</ele>
        <time>2022-02-11T13:52:20Z</time>
      </trkpt>
      <trkpt lat="49.90373" lon="2.36966">
        <ele>66.2</ele>
        <time>2022-02-11T13:52:21Z</time>
      </trkpt>
      <trkpt lat="49.90373" lon="2.36968">
        <ele>66.2</ele>
        <time>2022-02-11T13:52:22Z</time>
      </trkpt>
      <trkpt lat="49.90373" lon="2.36971">
        <ele>66.2</ele>
        <time>2022-02-11T13:52:23Z</time>
      </trkpt>
      <trkpt lat="49.90373" lon="2.36972">
        <ele>66.2</ele>
        <time>2022-02-11T13:52:24Z</time>
      </trkpt>
      <trkpt lat="49.90373" lon="2.36973">
        <ele>66.2</ele>
        <time>2022-02-11T13:52:25Z</time>
      </trkpt>
      <trkpt lat="49.90373" lon="2.36975">
        <ele>66.2</ele>
        <time>2022-02-11T13:52:27Z</time>
      </trkpt>
      <trkpt lat="49.90373" lon="2.36977">
        <ele>66.2</ele>
        <time>2022-02-11T13:52:28Z</time>
      </trkpt>
      <trkpt lat="49.90373" lon="2.36979">
        <ele>66.2</ele>
        <time>2022-02-11T13:52:29Z</time>
      </trkpt>
      <trkpt lat="49.90373" lon="2.36981">
        <ele>66.2</ele>
        <time>2022-02-11T13:52:30Z</time>
      </trkpt>
      <trkpt lat="49.90373" lon="2.36983">
        <ele>66.2</ele>
        <time>2022-02-11T13:52:31Z</time>
      </trkpt>
      <trkpt lat="49.90373" lon="2.36985">
        <ele>66.2</ele>
        <time>2022-02-11T13:52:33Z</time>
      </trkpt>
      <trkpt lat="49.90373" lon="2.36986">
        <ele>66.2</ele>
        <time>2022-02-11T13:52:34Z</time>
      </trkpt>
      <trkpt lat="49.90373" lon="2.36988">
        <ele>66.2</ele>
        <time>2022-02-11T13:52:35Z</time>
      </trkpt>
      <trkpt lat="49.90373" lon="2.3699">
        <ele>66.2</ele>
        <time>2022-02-11T13:52:36Z</time>
      </trkpt>
      <trkpt lat="49.90373" lon="2.36992">
        <ele>66.2</ele>
        <time>2022-02-11T13:52:37Z</time>
      </trkpt>
      <trkpt lat="49.90373" lon="2.36995">
        <ele>66.2</ele>
        <time>2022-02-11T13:52:39Z</time>
      </trkpt>
      <trkpt lat="49.90373" lon="2.36997">
        <ele>66.2</ele>
        <time>2022-02-11T13:52:40Z</time>
      </trkpt>
      <trkpt lat="49.90373" lon="2.36999">
        <ele>66.2</ele>
        <time>2022-02-11T13:52:41Z</time>
      </trkpt>
      <trkpt lat="49.90373" lon="2.37001">
        <ele>66.2</ele>
        <time>2022-02-11T13:52:42Z</time>
      </trkpt>
      <trkpt lat="49.90373" lon="2.37002">
        <ele>66.2</ele>
        <time>2022-02-11T13:52:44Z</time>
      </trkpt>
      <trkpt lat="49.90372" lon="2.37004">
        <ele>66.2</ele>
        <time>2022-02-11T13:52:45Z</time>
      </trkpt>
      <trkpt lat="49.90372" lon="2.37006">
        <ele>66.2</ele>
        <time>2022-02-11T13:52:46Z</time>
      </trkpt>
      <trkpt lat="49.90372" lon="2.37007">
        <ele>66.2</ele>
        <time>2022-02-11T13:52:47Z</time>
      </trkpt>
      <trkpt lat="49.90372" lon="2.37008">
        <ele>66.2</ele>
        <time>2022-02-11T13:52:48Z</time>
      </trkpt>
      <trkpt lat="49.90372" lon="2.3701">
        <ele>66.2</ele>
        <time>2022-02-11T13:52:49Z</time>
      </trkpt>
      <trkpt lat="49.90372" lon="2.37013">
        <ele>66.2</ele>
        <time>2022-02-11T13:52:51Z</time>
      </trkpt>
      <trkpt lat="49.90371" lon="2.37014">
        <ele>66.2</ele>
        <time>2022-02-11T13:52:52Z</time>
      </trkpt>
      <trkpt lat="49.90371" lon="2.37015">
        <ele>66.2</ele>
        <time>2022-02-11T13:52:53Z</time>
      </trkpt>
      <trkpt lat="49.90371" lon="2.37019">
        <ele>66.1</ele>
        <time>2022-02-11T13:52:54Z</time>
      </trkpt>
      <trkpt lat="49.90371" lon="2.37021">
        <ele>66.1</ele>
        <time>2022-02-11T13:52:55Z</time>
      </trkpt>
      <trkpt lat="49.90371" lon="2.37022">
        <ele>66.1</ele>
        <time>2022-02-11T13:52:56Z</time>
      </trkpt>
      <trkpt lat="49.90371" lon="2.37025">
        <ele>66.1</ele>
        <time>2022-02-11T13:52:57Z</time>
      </trkpt>
      <trkpt lat="49.90371" lon="2.37027">
        <ele>66.1</ele>
        <time>2022-02-11T13:52:58Z</time>
      </trkpt>
      <trkpt lat="49.90371" lon="2.37028">
        <ele>66.1</ele>
        <time>2022-02-11T13:52:59Z</time>
      </trkpt>
      <trkpt lat="49.90371" lon="2.3703">
        <ele>66.1</ele>
        <time>2022-02-11T13:53:00Z</time>
      </trkpt>
      <trkpt lat="49.90371" lon="2.37033">
        <ele>66.1</ele>
        <time>2022-02-11T13:53:01Z</time>
      </trkpt>
      <trkpt lat="49.90371" lon="2.37035">
        <ele>66.1</ele>
        <time>2022-02-11T13:53:02Z</time>
      </trkpt>
      <trkpt lat="49.90371" lon="2.37036">
        <ele>66.1</ele>
        <time>2022-02-11T13:53:04Z</time>
      </trkpt>
      <trkpt lat="49.90371" lon="2.37038">
        <ele>66.1</ele>
        <time>2022-02-11T13:53:05Z</time>
      </trkpt>
      <trkpt lat="49.90371" lon="2.37041">
        <ele>66.1</ele>
        <time>2022-02-11T13:53:06Z</time>
      </trkpt>
      <trkpt lat="49.90371" lon="2.37043">
        <ele>66.1</ele>
        <time>2022-02-11T13:53:07Z</time>
      </trkpt>
      <trkpt lat="49.90371" lon="2.37046">
        <ele>66.1</ele>
        <time>2022-02-11T13:53:08Z</time>
      </trkpt>
      <trkpt lat="49.90371" lon="2.37047">
        <ele>66.1</ele>
        <time>2022-02-11T13:53:09Z</time>
      </trkpt>
      <trkpt lat="49.90371" lon="2.37049">
        <ele>66.1</ele>
        <time>2022-02-11T13:53:10Z</time>
      </trkpt>
      <trkpt lat="49.90371" lon="2.3705">
        <ele>66.1</ele>
        <time>2022-02-11T13:53:11Z</time>
      </trkpt>
      <trkpt lat="49.90371" lon="2.37052">
        <ele>66.1</ele>
        <time>2022-02-11T13:53:12Z</time>
      </trkpt>
      <trkpt lat="49.90371" lon="2.37055">
        <ele>66.1</ele>
        <time>2022-02-11T13:53:14Z</time>
      </trkpt>
      <trkpt lat="49.9037" lon="2.37057">
        <ele>66.1</ele>
        <time>2022-02-11T13:53:15Z</time>
      </trkpt>
      <trkpt lat="49.9037" lon="2.37059">
        <ele>66.1</ele>
        <time>2022-02-11T13:53:16Z</time>
      </trkpt>
      <trkpt lat="49.9037" lon="2.37062">
        <ele>66.1</ele>
        <time>2022-02-11T13:53:17Z</time>
      </trkpt>
      <trkpt lat="49.9037" lon="2.37063">
        <ele>66.1</ele>
        <time>2022-02-11T13:53:18Z</time>
      </trkpt>
      <trkpt lat="49.9037" lon="2.37065">
        <ele>66.1</ele>
        <time>2022-02-11T13:53:19Z</time>
      </trkpt>
      <trkpt lat="49.9037" lon="2.37066">
        <ele>66.1</ele>
        <time>2022-02-11T13:53:20Z</time>
      </trkpt>
      <trkpt lat="49.9037" lon="2.37068">
        <ele>66.1</ele>
        <time>2022-02-11T13:53:22Z</time>
      </trkpt>
      <trkpt lat="49.9037" lon="2.3707">
        <ele>66.1</ele>
        <time>2022-02-11T13:53:23Z</time>
      </trkpt>
      <trkpt lat="49.9037" lon="2.37074">
        <ele>66.1</ele>
        <time>2022-02-11T13:53:24Z</time>
      </trkpt>
      <trkpt lat="49.9037" lon="2.37075">
        <ele>66.1</ele>
        <time>2022-02-11T13:53:25Z</time>
      </trkpt>
      <trkpt lat="49.9037" lon="2.37076">
        <ele>66.1</ele>
        <time>2022-02-11T13:53:26Z</time>
      </trkpt>
      <trkpt lat="49.9037" lon="2.37079">
        <ele>66.1</ele>
        <time>2022-02-11T13:53:27Z</time>
      </trkpt>
      <trkpt lat="49.9037" lon="2.3708">
        <ele>66.1</ele>
        <time>2022-02-11T13:53:28Z</time>
      </trkpt>
      <trkpt lat="49.9037" lon="2.37082">
        <ele>66.1</ele>
        <time>2022-02-11T13:53:29Z</time>
      </trkpt>
      <trkpt lat="49.9037" lon="2.37085">
        <ele>66.1</ele>
        <time>2022-02-11T13:53:31Z</time>
      </trkpt>
      <trkpt lat="49.9037" lon="2.37086">
        <ele>66.1</ele>
        <time>2022-02-11T13:53:32Z</time>
      </trkpt>
      <trkpt lat="49.90371" lon="2.37088">
        <ele>66.1</ele>
        <time>2022-02-11T13:53:33Z</time>
      </trkpt>
      <trkpt lat="49.90371" lon="2.37091">
        <ele>66.1</ele>
        <time>2022-02-11T13:53:34Z</time>
      </trkpt>
      <trkpt lat="49.90371" lon="2.37092">
        <ele>66.1</ele>
        <time>2022-02-11T13:53:35Z</time>
      </trkpt>
      <trkpt lat="49.90371" lon="2.37094">
        <ele>66.1</ele>
        <time>2022-02-11T13:53:36Z</time>
      </trkpt>
      <trkpt lat="49.90371" lon="2.37097">
        <ele>66.1</ele>
        <time>2022-02-11T13:53:37Z</time>
      </trkpt>
      <trkpt lat="49.90371" lon="2.37098">
        <ele>66.1</ele>
        <time>2022-02-11T13:53:38Z</time>
      </trkpt>
      <trkpt lat="49.90371" lon="2.371">
        <ele>66.1</ele>
        <time>2022-02-11T13:53:40Z</time>
      </trkpt>
      <trkpt lat="49.9037" lon="2.37101">
        <ele>66.1</ele>
        <time>2022-02-11T13:53:41Z</time>
      </trkpt>
      <trkpt lat="49.9037" lon="2.37103">
        <ele>66.1</ele>
        <time>2022-02-11T13:53:42Z</time>
      </trkpt>
      <trkpt lat="49.9037" lon="2.37105">
        <ele>66.1</ele>
        <time>2022-02-11T13:53:43Z</time>
      </trkpt>
      <trkpt lat="49.9037" lon="2.37107">
        <ele>66.1</ele>
        <time>2022-02-11T13:53:44Z</time>
      </trkpt>
      <trkpt lat="49.9037" lon="2.37108">
        <ele>66.1</ele>
        <time>2022-02-11T13:53:45Z</time>
      </trkpt>
      <trkpt lat="49.9037" lon="2.3711">
        <ele>66.1</ele>
        <time>2022-02-11T13:53:46Z</time>
      </trkpt>
      <trkpt lat="49.9037" lon="2.37113">
        <ele>66.1</ele>
        <time>2022-02-11T13:53:48Z</time>
      </trkpt>
      <trkpt lat="49.9037" lon="2.37114">
        <ele>66.1</ele>
        <time>2022-02-11T13:53:49Z</time>
      </trkpt>
      <trkpt lat="49.9037" lon="2.37116">
        <ele>66.1</ele>
        <time>2022-02-11T13:53:50Z</time>
      </trkpt>
      <trkpt lat="49.9037" lon="2.37118">
        <ele>66.1</ele>
        <time>2022-02-11T13:53:51Z</time>
      </trkpt>
      <trkpt lat="49.9037" lon="2.37119">
        <ele>66.1</ele>
        <time>2022-02-11T13:53:52Z</time>
      </trkpt>
      <trkpt lat="49.9037" lon="2.37121">
        <ele>66.1</ele>
        <time>2022-02-11T13:53:53Z</time>
      </trkpt>
      <trkpt lat="49.9037" lon="2.37124">
        <ele>66.1</ele>
        <time>2022-02-11T13:53:54Z</time>
      </trkpt>
      <trkpt lat="49.9037" lon="2.37126">
        <ele>66.1</ele>
        <time>2022-02-11T13:53:56Z</time>
      </trkpt>
      <trkpt lat="49.90371" lon="2.37127">
        <ele>66.1</ele>
        <time>2022-02-11T13:53:57Z</time>
      </trkpt>
      <trkpt lat="49.90371" lon="2.37128">
        <ele>66.1</ele>
        <time>2022-02-11T13:53:58Z</time>
      </trkpt>
      <trkpt lat="49.90371" lon="2.3713">
        <ele>66.1</ele>
        <time>2022-02-11T13:53:59Z</time>
      </trkpt>
      <trkpt lat="49.90371" lon="2.37132">
        <ele>66.1</ele>
        <time>2022-02-11T13:54:00Z</time>
      </trkpt>
      <trkpt lat="49.90372" lon="2.37135">
        <ele>66.1</ele>
        <time>2022-02-11T13:54:01Z</time>
      </trkpt>
      <trkpt lat="49.90372" lon="2.37136">
        <ele>66.1</ele>
        <time>2022-02-11T13:54:03Z</time>
      </trkpt>
      <trkpt lat="49.90372" lon="2.37137">
        <ele>66.1</ele>
        <time>2022-02-11T13:54:04Z</time>
      </trkpt>
      <trkpt lat="49.90372" lon="2.37139">
        <ele>66.1</ele>
        <time>2022-02-11T13:54:05Z</time>
      </trkpt>
      <trkpt lat="49.90372" lon="2.37141">
        <ele>66.1</ele>
        <time>2022-02-11T13:54:06Z</time>
      </trkpt>
      <trkpt lat="49.90372" lon="2.37143">
        <ele>66.1</ele>
        <time>2022-02-11T13:54:07Z</time>
      </trkpt>
      <trkpt lat="49.90372" lon="2.37145">
        <ele>66.1</ele>
        <time>2022-02-11T13:54:08Z</time>
      </trkpt>
      <trkpt lat="49.90372" lon="2.37147">
        <ele>66.1</ele>
        <time>2022-02-11T13:54:09Z</time>
      </trkpt>
      <trkpt lat="49.90372" lon="2.37148">
        <ele>66.1</ele>
        <time>2022-02-11T13:54:10Z</time>
      </trkpt>
      <trkpt lat="49.90372" lon="2.3715">
        <ele>66.1</ele>
        <time>2022-02-11T13:54:12Z</time>
      </trkpt>
      <trkpt lat="49.90372" lon="2.37152">
        <ele>66.1</ele>
        <time>2022-02-11T13:54:13Z</time>
      </trkpt>
      <trkpt lat="49.90372" lon="2.37154">
        <ele>66.1</ele>
        <time>2022-02-11T13:54:14Z</time>
      </trkpt>
      <trkpt lat="49.90372" lon="2.37155">
        <ele>65.9</ele>
        <time>2022-02-11T13:54:15Z</time>
      </trkpt>
      <trkpt lat="49.90372" lon="2.37157">
        <ele>65.9</ele>
        <time>2022-02-11T13:54:16Z</time>
      </trkpt>
      <trkpt lat="49.90372" lon="2.37158">
        <ele>65.9</ele>
        <time>2022-02-11T13:54:18Z</time>
      </trkpt>
      <trkpt lat="49.90372" lon="2.3716">
        <ele>65.8</ele>
        <time>2022-02-11T13:54:19Z</time>
      </trkpt>
      <trkpt lat="49.90372" lon="2.37162">
        <ele>65.8</ele>
        <time>2022-02-11T13:54:20Z</time>
      </trkpt>
      <trkpt lat="49.90373" lon="2.37163">
        <ele>65.8</ele>
        <time>2022-02-11T13:54:21Z</time>
      </trkpt>
      <trkpt lat="49.90374" lon="2.37164">
        <ele>65.7</ele>
        <time>2022-02-11T13:54:22Z</time>
      </trkpt>
      <trkpt lat="49.90375" lon="2.37165">
        <ele>65.7</ele>
        <time>2022-02-11T13:54:23Z</time>
      </trkpt>
      <trkpt lat="49.90376" lon="2.37166">
        <ele>65.7</ele>
        <time>2022-02-11T13:54:25Z</time>
      </trkpt>
      <trkpt lat="49.90377" lon="2.37167">
        <ele>65.6</ele>
        <time>2022-02-11T13:54:26Z</time>
      </trkpt>
      <trkpt lat="49.90378" lon="2.37168">
        <ele>65.6</ele>
        <time>2022-02-11T13:54:27Z</time>
      </trkpt>
      <trkpt lat="49.90379" lon="2.37169">
        <ele>65.6</ele>
        <time>2022-02-11T13:54:28Z</time>
      </trkpt>
      <trkpt lat="49.9038" lon="2.3717">
        <ele>65.6</ele>
        <time>2022-02-11T13:54:29Z</time>
      </trkpt>
      <trkpt lat="49.90381" lon="2.3717">
        <ele>65.5</ele>
        <time>2022-02-11T13:54:31Z</time>
      </trkpt>
      <trkpt lat="49.90382" lon="2.37171">
        <ele>65.5</ele>
        <time>2022-02-11T13:54:32Z</time>
      </trkpt>
      <trkpt lat="49.90383" lon="2.37172">
        <ele>65.5</ele>
        <time>2022-02-11T13:54:33Z</time>
      </trkpt>
      <trkpt lat="49.90384" lon="2.37172">
        <ele>65.5</ele>
        <time>2022-02-11T13:54:34Z</time>
      </trkpt>
      <trkpt lat="49.90384" lon="2.37172">
        <ele>65.5</ele>
        <time>2022-02-11T13:54:35Z</time>
      </trkpt>
      <trkpt lat="49.90385" lon="2.37173">
        <ele>65.5</ele>
        <time>2022-02-11T13:54:36Z</time>
      </trkpt>
      <trkpt lat="49.90385" lon="2.37174">
        <ele>65.5</ele>
        <time>2022-02-11T13:54:38Z</time>
      </trkpt>
      <trkpt lat="49.90386" lon="2.37174">
        <ele>65.4</ele>
        <time>2022-02-11T13:54:39Z</time>
      </trkpt>
      <trkpt lat="49.90387" lon="2.37175">
        <ele>65.4</ele>
        <time>2022-02-11T13:54:40Z</time>
      </trkpt>
      <trkpt lat="49.90387" lon="2.37176">
        <ele>65.4</ele>
        <time>2022-02-11T13:54:42Z</time>
      </trkpt>
      <trkpt lat="49.90388" lon="2.37176">
        <ele>65.4</ele>
        <time>2022-02-11T13:54:43Z</time>
      </trkpt>
      <trkpt lat="49.90388" lon="2.37176">
        <ele>65.4</ele>
        <time>2022-02-11T13:54:44Z</time>
      </trkpt>
      <trkpt lat="49.90389" lon="2.37177">
        <ele>65.4</ele>
        <time>2022-02-11T13:54:45Z</time>
      </trkpt>
      <trkpt lat="49.90389" lon="2.37177">
        <ele>65.4</ele>
        <time>2022-02-11T13:54:46Z</time>
      </trkpt>
      <trkpt lat="49.9039" lon="2.37178">
        <ele>65.4</ele>
        <time>2022-02-11T13:54:48Z</time>
      </trkpt>
      <trkpt lat="49.9039" lon="2.37179">
        <ele>65.3</ele>
        <time>2022-02-11T13:54:49Z</time>
      </trkpt>
      <trkpt lat="49.9039" lon="2.3718">
        <ele>65.3</ele>
        <time>2022-02-11T13:54:50Z</time>
      </trkpt>
      <trkpt lat="49.9039" lon="2.37181">
        <ele>65.3</ele>
        <time>2022-02-11T13:54:51Z</time>
      </trkpt>
      <trkpt lat="49.90391" lon="2.37182">
        <ele>65.3</ele>
        <time>2022-02-11T13:54:52Z</time>
      </trkpt>
      <trkpt lat="49.90391" lon="2.37183">
        <ele>65.3</ele>
        <time>2022-02-11T13:54:53Z</time>
      </trkpt>
      <trkpt lat="49.90392" lon="2.37184">
        <ele>65.3</ele>
        <time>2022-02-11T13:54:54Z</time>
      </trkpt>
      <trkpt lat="49.90393" lon="2.37185">
        <ele>65.3</ele>
        <time>2022-02-11T13:54:56Z</time>
      </trkpt>
      <trkpt lat="49.90393" lon="2.37187">
        <ele>65.3</ele>
        <time>2022-02-11T13:54:57Z</time>
      </trkpt>
      <trkpt lat="49.90394" lon="2.37188">
        <ele>65.3</ele>
        <time>2022-02-11T13:54:58Z</time>
      </trkpt>
      <trkpt lat="49.90394" lon="2.37189">
        <ele>65.2</ele>
        <time>2022-02-11T13:54:59Z</time>
      </trkpt>
      <trkpt lat="49.90395" lon="2.3719">
        <ele>65.2</ele>
        <time>2022-02-11T13:55:00Z</time>
      </trkpt>
      <trkpt lat="49.90395" lon="2.37191">
        <ele>65.2</ele>
        <time>2022-02-11T13:55:01Z</time>
      </trkpt>
      <trkpt lat="49.90396" lon="2.37192">
        <ele>65.2</ele>
        <time>2022-02-11T13:55:02Z</time>
      </trkpt>
      <trkpt lat="49.90396" lon="2.37194">
        <ele>65.2</ele>
        <time>2022-02-11T13:55:03Z</time>
      </trkpt>
      <trkpt lat="49.90397" lon="2.37195">
        <ele>65.2</ele>
        <time>2022-02-11T13:55:04Z</time>
      </trkpt>
      <trkpt lat="49.90397" lon="2.37197">
        <ele>65.2</ele>
        <time>2022-02-11T13:55:05Z</time>
      </trkpt>
      <trkpt lat="49.90398" lon="2.37198">
        <ele>65.2</ele>
        <time>2022-02-11T13:55:07Z</time>
      </trkpt>
      <trkpt lat="49.90399" lon="2.37199">
        <ele>65.2</ele>
        <time>2022-02-11T13:55:08Z</time>
      </trkpt>
      <trkpt lat="49.904" lon="2.372">
        <ele>65.2</ele>
        <time>2022-02-11T13:55:09Z</time>
      </trkpt>
      <trkpt lat="49.90401" lon="2.37201">
        <ele>65.2</ele>
        <time>2022-02-11T13:55:10Z</time>
      </trkpt>
      <trkpt lat="49.90401" lon="2.37202">
        <ele>65.2</ele>
        <time>2022-02-11T13:55:11Z</time>
      </trkpt>
      <trkpt lat="49.90402" lon="2.37203">
        <ele>65.2</ele>
        <time>2022-02-11T13:55:12Z</time>
      </trkpt>
      <trkpt lat="49.90402" lon="2.37204">
        <ele>65.2</ele>
        <time>2022-02-11T13:55:13Z</time>
      </trkpt>
      <trkpt lat="49.90403" lon="2.37205">
        <ele>65.2</ele>
        <time>2022-02-11T13:55:15Z</time>
      </trkpt>
      <trkpt lat="49.90404" lon="2.37206">
        <ele>65.2</ele>
        <time>2022-02-11T13:55:16Z</time>
      </trkpt>
      <trkpt lat="49.90405" lon="2.37208">
        <ele>65.2</ele>
        <time>2022-02-11T13:55:17Z</time>
      </trkpt>
      <trkpt lat="49.90406" lon="2.37209">
        <ele>65.2</ele>
        <time>2022-02-11T13:55:18Z</time>
      </trkpt>
      <trkpt lat="49.90406" lon="2.3721">
        <ele>65.2</ele>
        <time>2022-02-11T13:55:19Z</time>
      </trkpt>
      <trkpt lat="49.90407" lon="2.37211">
        <ele>65.2</ele>
        <time>2022-02-11T13:55:21Z</time>
      </trkpt>
      <trkpt lat="49.90408" lon="2.37212">
        <ele>65.2</ele>
        <time>2022-02-11T13:55:22Z</time>
      </trkpt>
      <trkpt lat="49.90409" lon="2.37214">
        <ele>65.2</ele>
        <time>2022-02-11T13:55:23Z</time>
      </trkpt>
      <trkpt lat="49.90409" lon="2.37215">
        <ele>65.2</ele>
        <time>2022-02-11T13:55:24Z</time>
      </trkpt>
      <trkpt lat="49.9041" lon="2.37217">
        <ele>65.2</ele>
        <time>2022-02-11T13:55:25Z</time>
      </trkpt>
      <trkpt lat="49.90411" lon="2.37218">
        <ele>65.2</ele>
        <time>2022-02-11T13:55:27Z</time>
      </trkpt>
      <trkpt lat="49.90411" lon="2.37219">
        <ele>65.2</ele>
        <time>2022-02-11T13:55:28Z</time>
      </trkpt>
      <trkpt lat="49.90412" lon="2.37221">
        <ele>65.2</ele>
        <time>2022-02-11T13:55:29Z</time>
      </trkpt>
      <trkpt lat="49.90413" lon="2.37222">
        <ele>65.2</ele>
        <time>2022-02-11T13:55:30Z</time>
      </trkpt>
      <trkpt lat="49.90414" lon="2.37223">
        <ele>65.2</ele>
        <time>2022-02-11T13:55:31Z</time>
      </trkpt>
      <trkpt lat="49.90414" lon="2.37224">
        <ele>65.2</ele>
        <time>2022-02-11T13:55:33Z</time>
      </trkpt>
      <trkpt lat="49.90415" lon="2.37226">
        <ele>65.2</ele>
        <time>2022-02-11T13:55:34Z</time>
      </trkpt>
      <trkpt lat="49.90416" lon="2.37227">
        <ele>65.2</ele>
        <time>2022-02-11T13:55:35Z</time>
      </trkpt>
      <trkpt lat="49.90417" lon="2.37228">
        <ele>65.3</ele>
        <time>2022-02-11T13:55:36Z</time>
      </trkpt>
      <trkpt lat="49.90418" lon="2.37229">
        <ele>65.3</ele>
        <time>2022-02-11T13:55:37Z</time>
      </trkpt>
      <trkpt lat="49.90419" lon="2.3723">
        <ele>65.3</ele>
        <time>2022-02-11T13:55:38Z</time>
      </trkpt>
      <trkpt lat="49.9042" lon="2.37232">
        <ele>65.3</ele>
        <time>2022-02-11T13:55:40Z</time>
      </trkpt>
      <trkpt lat="49.9042" lon="2.37233">
        <ele>65.3</ele>
        <time>2022-02-11T13:55:41Z</time>
      </trkpt>
      <trkpt lat="49.90421" lon="2.37234">
        <ele>65.3</ele>
        <time>2022-02-11T13:55:42Z</time>
      </trkpt>
      <trkpt lat="49.90422" lon="2.37235">
        <ele>65.3</ele>
        <time>2022-02-11T13:55:43Z</time>
      </trkpt>
      <trkpt lat="49.90423" lon="2.37238">
        <ele>65.3</ele>
        <time>2022-02-11T13:55:44Z</time>
      </trkpt>
      <trkpt lat="49.90424" lon="2.37238">
        <ele>65.3</ele>
        <time>2022-02-11T13:55:45Z</time>
      </trkpt>
      <trkpt lat="49.90425" lon="2.37239">
        <ele>65.3</ele>
        <time>2022-02-11T13:55:46Z</time>
      </trkpt>
      <trkpt lat="49.90426" lon="2.37241">
        <ele>65.3</ele>
        <time>2022-02-11T13:55:48Z</time>
      </trkpt>
      <trkpt lat="49.90426" lon="2.37242">
        <ele>65.3</ele>
        <time>2022-02-11T13:55:49Z</time>
      </trkpt>
      <trkpt lat="49.90427" lon="2.37243">
        <ele>65.3</ele>
        <time>2022-02-11T13:55:50Z</time>
      </trkpt>
      <trkpt lat="49.90428" lon="2.37244">
        <ele>65.3</ele>
        <time>2022-02-11T13:55:51Z</time>
      </trkpt>
      <trkpt lat="49.90429" lon="2.37245">
        <ele>65.3</ele>
        <time>2022-02-11T13:55:53Z</time>
      </trkpt>
      <trkpt lat="49.90429" lon="2.37246">
        <ele>65.3</ele>
        <time>2022-02-11T13:55:54Z</time>
      </trkpt>
      <trkpt lat="49.9043" lon="2.37248">
        <ele>65.3</ele>
        <time>2022-02-11T13:55:55Z</time>
      </trkpt>
      <trkpt lat="49.90431" lon="2.37249">
        <ele>65.3</ele>
        <time>2022-02-11T13:55:56Z</time>
      </trkpt>
      <trkpt lat="49.90432" lon="2.3725">
        <ele>65.3</ele>
        <time>2022-02-11T13:55:57Z</time>
      </trkpt>
      <trkpt lat="49.90432" lon="2.37251">
        <ele>65.3</ele>
        <time>2022-02-11T13:55:58Z</time>
      </trkpt>
      <trkpt lat="49.90433" lon="2.37252">
        <ele>65.3</ele>
        <time>2022-02-11T13:55:59Z</time>
      </trkpt>
      <trkpt lat="49.90434" lon="2.37253">
        <ele>65.3</ele>
        <time>2022-02-11T13:56:00Z</time>
      </trkpt>
      <trkpt lat="49.90434" lon="2.37254">
        <ele>65.3</ele>
        <time>2022-02-11T13:56:01Z</time>
      </trkpt>
      <trkpt lat="49.90435" lon="2.37255">
        <ele>65.3</ele>
        <time>2022-02-11T13:56:02Z</time>
      </trkpt>
      <trkpt lat="49.90436" lon="2.37256">
        <ele>65.3</ele>
        <time>2022-02-11T13:56:03Z</time>
      </trkpt>
      <trkpt lat="49.90436" lon="2.37258">
        <ele>65.3</ele>
        <time>2022-02-11T13:56:04Z</time>
      </trkpt>
      <trkpt lat="49.90437" lon="2.37259">
        <ele>65.4</ele>
        <time>2022-02-11T13:56:05Z</time>
      </trkpt>
      <trkpt lat="49.90437" lon="2.3726">
        <ele>65.4</ele>
        <time>2022-02-11T13:56:06Z</time>
      </trkpt>
      <trkpt lat="49.90438" lon="2.37261">
        <ele>65.4</ele>
        <time>2022-02-11T13:56:07Z</time>
      </trkpt>
      <trkpt lat="49.90438" lon="2.37262">
        <ele>65.4</ele>
        <time>2022-02-11T13:56:08Z</time>
      </trkpt>
      <trkpt lat="49.90439" lon="2.37263">
        <ele>65.4</ele>
        <time>2022-02-11T13:56:09Z</time>
      </trkpt>
      <trkpt lat="49.9044" lon="2.37264">
        <ele>65.4</ele>
        <time>2022-02-11T13:56:10Z</time>
      </trkpt>
      <trkpt lat="49.90442" lon="2.37265">
        <ele>65.4</ele>
        <time>2022-02-11T13:56:11Z</time>
      </trkpt>
      <trkpt lat="49.90443" lon="2.37266">
        <ele>65.4</ele>
        <time>2022-02-11T13:56:13Z</time>
      </trkpt>
      <trkpt lat="49.90444" lon="2.37267">
        <ele>65.4</ele>
        <time>2022-02-11T13:56:14Z</time>
      </trkpt>
      <trkpt lat="49.90444" lon="2.37268">
        <ele>65.4</ele>
        <time>2022-02-11T13:56:15Z</time>
      </trkpt>
      <trkpt lat="49.90445" lon="2.37269">
        <ele>65.5</ele>
        <time>2022-02-11T13:56:16Z</time>
      </trkpt>
      <trkpt lat="49.90446" lon="2.3727">
        <ele>65.5</ele>
        <time>2022-02-11T13:56:17Z</time>
      </trkpt>
      <trkpt lat="49.90448" lon="2.37272">
        <ele>65.5</ele>
        <time>2022-02-11T13:56:19Z</time>
      </trkpt>
      <trkpt lat="49.90448" lon="2.37273">
        <ele>65.5</ele>
        <time>2022-02-11T13:56:20Z</time>
      </trkpt>
      <trkpt lat="49.90449" lon="2.37274">
        <ele>65.5</ele>
        <time>2022-02-11T13:56:21Z</time>
      </trkpt>
      <trkpt lat="49.90449" lon="2.37276">
        <ele>65.5</ele>
        <time>2022-02-11T13:56:22Z</time>
      </trkpt>
      <trkpt lat="49.9045" lon="2.37277">
        <ele>65.5</ele>
        <time>2022-02-11T13:56:23Z</time>
      </trkpt>
      <trkpt lat="49.9045" lon="2.37278">
        <ele>65.6</ele>
        <time>2022-02-11T13:56:24Z</time>
      </trkpt>
      <trkpt lat="49.90451" lon="2.37279">
        <ele>65.6</ele>
        <time>2022-02-11T13:56:25Z</time>
      </trkpt>
      <trkpt lat="49.90452" lon="2.37281">
        <ele>65.6</ele>
        <time>2022-02-11T13:56:26Z</time>
      </trkpt>
      <trkpt lat="49.90453" lon="2.37282">
        <ele>65.6</ele>
        <time>2022-02-11T13:56:27Z</time>
      </trkpt>
      <trkpt lat="49.90454" lon="2.37284">
        <ele>65.6</ele>
        <time>2022-02-11T13:56:29Z</time>
      </trkpt>
      <trkpt lat="49.90455" lon="2.37285">
        <ele>65.6</ele>
        <time>2022-02-11T13:56:30Z</time>
      </trkpt>
      <trkpt lat="49.90455" lon="2.37286">
        <ele>65.6</ele>
        <time>2022-02-11T13:56:31Z</time>
      </trkpt>
      <trkpt lat="49.90456" lon="2.37287">
        <ele>65.6</ele>
        <time>2022-02-11T13:56:32Z</time>
      </trkpt>
      <trkpt lat="49.90457" lon="2.37289">
        <ele>65.6</ele>
        <time>2022-02-11T13:56:33Z</time>
      </trkpt>
      <trkpt lat="49.90458" lon="2.3729">
        <ele>65.6</ele>
        <time>2022-02-11T13:56:34Z</time>
      </trkpt>
      <trkpt lat="49.90459" lon="2.37292">
        <ele>65.7</ele>
        <time>2022-02-11T13:56:35Z</time>
      </trkpt>
      <trkpt lat="49.9046" lon="2.37293">
        <ele>65.7</ele>
        <time>2022-02-11T13:56:37Z</time>
      </trkpt>
      <trkpt lat="49.9046" lon="2.37294">
        <ele>65.7</ele>
        <time>2022-02-11T13:56:38Z</time>
      </trkpt>
      <trkpt lat="49.90461" lon="2.37295">
        <ele>65.7</ele>
        <time>2022-02-11T13:56:39Z</time>
      </trkpt>
      <trkpt lat="49.90462" lon="2.37297">
        <ele>65.7</ele>
        <time>2022-02-11T13:56:40Z</time>
      </trkpt>
      <trkpt lat="49.90463" lon="2.37298">
        <ele>65.7</ele>
        <time>2022-02-11T13:56:41Z</time>
      </trkpt>
      <trkpt lat="49.90464" lon="2.37299">
        <ele>65.7</ele>
        <time>2022-02-11T13:56:42Z</time>
      </trkpt>
      <trkpt lat="49.90465" lon="2.373">
        <ele>65.7</ele>
        <time>2022-02-11T13:56:43Z</time>
      </trkpt>
      <trkpt lat="49.90466" lon="2.37301">
        <ele>65.7</ele>
        <time>2022-02-11T13:56:45Z</time>
      </trkpt>
      <trkpt lat="49.90466" lon="2.37303">
        <ele>65.7</ele>
        <time>2022-02-11T13:56:46Z</time>
      </trkpt>
      <trkpt lat="49.90467" lon="2.37304">
        <ele>65.7</ele>
        <time>2022-02-11T13:56:47Z</time>
      </trkpt>
      <trkpt lat="49.90468" lon="2.37305">
        <ele>65.8</ele>
        <time>2022-02-11T13:56:48Z</time>
      </trkpt>
      <trkpt lat="49.90468" lon="2.37307">
        <ele>65.8</ele>
        <time>2022-02-11T13:56:49Z</time>
      </trkpt>
      <trkpt lat="49.90469" lon="2.37308">
        <ele>65.8</ele>
        <time>2022-02-11T13:56:50Z</time>
      </trkpt>
      <trkpt lat="49.9047" lon="2.37309">
        <ele>65.8</ele>
        <time>2022-02-11T13:56:51Z</time>
      </trkpt>
      <trkpt lat="49.9047" lon="2.3731">
        <ele>65.8</ele>
        <time>2022-02-11T13:56:52Z</time>
      </trkpt>
      <trkpt lat="49.90471" lon="2.37311">
        <ele>65.8</ele>
        <time>2022-02-11T13:56:54Z</time>
      </trkpt>
      <trkpt lat="49.90472" lon="2.37312">
        <ele>65.8</ele>
        <time>2022-02-11T13:56:55Z</time>
      </trkpt>
      <trkpt lat="49.90472" lon="2.37313">
        <ele>65.8</ele>
        <time>2022-02-11T13:56:56Z</time>
      </trkpt>
      <trkpt lat="49.90473" lon="2.37315">
        <ele>65.8</ele>
        <time>2022-02-11T13:56:57Z</time>
      </trkpt>
      <trkpt lat="49.90473" lon="2.37316">
        <ele>65.8</ele>
        <time>2022-02-11T13:56:58Z</time>
      </trkpt>
      <trkpt lat="49.90474" lon="2.37317">
        <ele>65.9</ele>
        <time>2022-02-11T13:56:59Z</time>
      </trkpt>
      <trkpt lat="49.90475" lon="2.37319">
        <ele>65.9</ele>
        <time>2022-02-11T13:57:00Z</time>
      </trkpt>
      <trkpt lat="49.90475" lon="2.3732">
        <ele>65.9</ele>
        <time>2022-02-11T13:57:02Z</time>
      </trkpt>
      <trkpt lat="49.90476" lon="2.37321">
        <ele>65.9</ele>
        <time>2022-02-11T13:57:03Z</time>
      </trkpt>
      <trkpt lat="49.90477" lon="2.37322">
        <ele>65.9</ele>
        <time>2022-02-11T13:57:04Z</time>
      </trkpt>
      <trkpt lat="49.90478" lon="2.37324">
        <ele>65.9</ele>
        <time>2022-02-11T13:57:05Z</time>
      </trkpt>
      <trkpt lat="49.90479" lon="2.37325">
        <ele>65.9</ele>
        <time>2022-02-11T13:57:06Z</time>
      </trkpt>
      <trkpt lat="49.9048" lon="2.37326">
        <ele>66</ele>
        <time>2022-02-11T13:57:07Z</time>
      </trkpt>
      <trkpt lat="49.9048" lon="2.37327">
        <ele>66</ele>
        <time>2022-02-11T13:57:08Z</time>
      </trkpt>
      <trkpt lat="49.90482" lon="2.3733">
        <ele>66</ele>
        <time>2022-02-11T13:57:10Z</time>
      </trkpt>
      <trkpt lat="49.90483" lon="2.3733">
        <ele>66</ele>
        <time>2022-02-11T13:57:11Z</time>
      </trkpt>
      <trkpt lat="49.90483" lon="2.37331">
        <ele>66</ele>
        <time>2022-02-11T13:57:12Z</time>
      </trkpt>
      <trkpt lat="49.90484" lon="2.37332">
        <ele>66</ele>
        <time>2022-02-11T13:57:13Z</time>
      </trkpt>
      <trkpt lat="49.90485" lon="2.37334">
        <ele>66.1</ele>
        <time>2022-02-11T13:57:14Z</time>
      </trkpt>
      <trkpt lat="49.90487" lon="2.37335">
        <ele>66.1</ele>
        <time>2022-02-11T13:57:16Z</time>
      </trkpt>
      <trkpt lat="49.90488" lon="2.37337">
        <ele>66.1</ele>
        <time>2022-02-11T13:57:17Z</time>
      </trkpt>
      <trkpt lat="49.90489" lon="2.37338">
        <ele>66.1</ele>
        <time>2022-02-11T13:57:18Z</time>
      </trkpt>
      <trkpt lat="49.90489" lon="2.37339">
        <ele>66.1</ele>
        <time>2022-02-11T13:57:19Z</time>
      </trkpt>
      <trkpt lat="49.9049" lon="2.37341">
        <ele>66.2</ele>
        <time>2022-02-11T13:57:20Z</time>
      </trkpt>
      <trkpt lat="49.90491" lon="2.37342">
        <ele>66.2</ele>
        <time>2022-02-11T13:57:21Z</time>
      </trkpt>
      <trkpt lat="49.90491" lon="2.37343">
        <ele>66.2</ele>
        <time>2022-02-11T13:57:22Z</time>
      </trkpt>
      <trkpt lat="49.90492" lon="2.37344">
        <ele>66.2</ele>
        <time>2022-02-11T13:57:23Z</time>
      </trkpt>
      <trkpt lat="49.90493" lon="2.37345">
        <ele>66.2</ele>
        <time>2022-02-11T13:57:24Z</time>
      </trkpt>
      <trkpt lat="49.90493" lon="2.37345">
        <ele>66.2</ele>
        <time>2022-02-11T13:57:25Z</time>
      </trkpt>
      <trkpt lat="49.90494" lon="2.37346">
        <ele>66.2</ele>
        <time>2022-02-11T13:57:26Z</time>
      </trkpt>
      <trkpt lat="49.90495" lon="2.37347">
        <ele>66.2</ele>
        <time>2022-02-11T13:57:27Z</time>
      </trkpt>
      <trkpt lat="49.90496" lon="2.37348">
        <ele>66.2</ele>
        <time>2022-02-11T13:57:29Z</time>
      </trkpt>
      <trkpt lat="49.90497" lon="2.37349">
        <ele>66.2</ele>
        <time>2022-02-11T13:57:30Z</time>
      </trkpt>
      <trkpt lat="49.90497" lon="2.3735">
        <ele>66.2</ele>
        <time>2022-02-11T13:57:31Z</time>
      </trkpt>
      <trkpt lat="49.90498" lon="2.37351">
        <ele>66.3</ele>
        <time>2022-02-11T13:57:32Z</time>
      </trkpt>
      <trkpt lat="49.90499" lon="2.37352">
        <ele>66.3</ele>
        <time>2022-02-11T13:57:33Z</time>
      </trkpt>
      <trkpt lat="49.905" lon="2.37353">
        <ele>66.3</ele>
        <time>2022-02-11T13:57:34Z</time>
      </trkpt>
      <trkpt lat="49.90502" lon="2.37355">
        <ele>66.3</ele>
        <time>2022-02-11T13:57:36Z</time>
      </trkpt>
      <trkpt lat="49.90502" lon="2.37355">
        <ele>66.3</ele>
        <time>2022-02-11T13:57:37Z</time>
      </trkpt>
      <trkpt lat="49.90503" lon="2.37356">
        <ele>66.3</ele>
        <time>2022-02-11T13:57:38Z</time>
      </trkpt>
      <trkpt lat="49.90504" lon="2.37359">
        <ele>66.3</ele>
        <time>2022-02-11T13:57:39Z</time>
      </trkpt>
      <trkpt lat="49.90505" lon="2.3736">
        <ele>66.3</ele>
        <time>2022-02-11T13:57:40Z</time>
      </trkpt>
      <trkpt lat="49.90505" lon="2.37361">
        <ele>66.3</ele>
        <time>2022-02-11T13:57:41Z</time>
      </trkpt>
      <trkpt lat="49.90506" lon="2.37362">
        <ele>66.3</ele>
        <time>2022-02-11T13:57:42Z</time>
      </trkpt>
      <trkpt lat="49.90507" lon="2.37363">
        <ele>66.4</ele>
        <time>2022-02-11T13:57:44Z</time>
      </trkpt>
      <trkpt lat="49.90508" lon="2.37364">
        <ele>66.4</ele>
        <time>2022-02-11T13:57:45Z</time>
      </trkpt>
      <trkpt lat="49.90509" lon="2.37365">
        <ele>66.4</ele>
        <time>2022-02-11T13:57:46Z</time>
      </trkpt>
      <trkpt lat="49.9051" lon="2.37366">
        <ele>66.4</ele>
        <time>2022-02-11T13:57:47Z</time>
      </trkpt>
      <trkpt lat="49.9051" lon="2.37368">
        <ele>66.4</ele>
        <time>2022-02-11T13:57:48Z</time>
      </trkpt>
      <trkpt lat="49.90512" lon="2.3737">
        <ele>66.5</ele>
        <time>2022-02-11T13:57:49Z</time>
      </trkpt>
      <trkpt lat="49.90512" lon="2.37371">
        <ele>66.5</ele>
        <time>2022-02-11T13:57:51Z</time>
      </trkpt>
      <trkpt lat="49.90513" lon="2.37372">
        <ele>66.5</ele>
        <time>2022-02-11T13:57:52Z</time>
      </trkpt>
      <trkpt lat="49.90514" lon="2.37373">
        <ele>66.5</ele>
        <time>2022-02-11T13:57:53Z</time>
      </trkpt>
      <trkpt lat="49.90514" lon="2.37374">
        <ele>66.5</ele>
        <time>2022-02-11T13:57:54Z</time>
      </trkpt>
      <trkpt lat="49.90515" lon="2.37376">
        <ele>66.5</ele>
        <time>2022-02-11T13:57:55Z</time>
      </trkpt>
      <trkpt lat="49.90516" lon="2.37376">
        <ele>66.6</ele>
        <time>2022-02-11T13:57:56Z</time>
      </trkpt>
      <trkpt lat="49.90516" lon="2.37377">
        <ele>66.6</ele>
        <time>2022-02-11T13:57:57Z</time>
      </trkpt>
      <trkpt lat="49.90517" lon="2.37379">
        <ele>66.6</ele>
        <time>2022-02-11T13:57:58Z</time>
      </trkpt>
      <trkpt lat="49.90517" lon="2.37379">
        <ele>66.6</ele>
        <time>2022-02-11T13:57:59Z</time>
      </trkpt>
      <trkpt lat="49.90518" lon="2.3738">
        <ele>66.6</ele>
        <time>2022-02-11T13:58:00Z</time>
      </trkpt>
      <trkpt lat="49.90519" lon="2.37381">
        <ele>66.6</ele>
        <time>2022-02-11T13:58:01Z</time>
      </trkpt>
      <trkpt lat="49.9052" lon="2.37381">
        <ele>66.6</ele>
        <time>2022-02-11T13:58:02Z</time>
      </trkpt>
      <trkpt lat="49.90521" lon="2.37381">
        <ele>66.6</ele>
        <time>2022-02-11T13:58:03Z</time>
      </trkpt>
      <trkpt lat="49.90522" lon="2.37382">
        <ele>66.7</ele>
        <time>2022-02-11T13:58:05Z</time>
      </trkpt>
      <trkpt lat="49.90522" lon="2.37384">
        <ele>66.7</ele>
        <time>2022-02-11T13:58:06Z</time>
      </trkpt>
      <trkpt lat="49.90523" lon="2.37385">
        <ele>66.7</ele>
        <time>2022-02-11T13:58:07Z</time>
      </trkpt>
      <trkpt lat="49.90524" lon="2.37386">
        <ele>66.7</ele>
        <time>2022-02-11T13:58:08Z</time>
      </trkpt>
      <trkpt lat="49.90524" lon="2.37388">
        <ele>66.7</ele>
        <time>2022-02-11T13:58:09Z</time>
      </trkpt>
      <trkpt lat="49.90525" lon="2.37389">
        <ele>66.6</ele>
        <time>2022-02-11T13:58:10Z</time>
      </trkpt>
      <trkpt lat="49.90526" lon="2.3739">
        <ele>66.6</ele>
        <time>2022-02-11T13:58:11Z</time>
      </trkpt>
      <trkpt lat="49.90526" lon="2.37392">
        <ele>66.6</ele>
        <time>2022-02-11T13:58:13Z</time>
      </trkpt>
      <trkpt lat="49.90528" lon="2.37394">
        <ele>66.6</ele>
        <time>2022-02-11T13:58:14Z</time>
      </trkpt>
      <trkpt lat="49.90529" lon="2.37395">
        <ele>66.6</ele>
        <time>2022-02-11T13:58:15Z</time>
      </trkpt>
      <trkpt lat="49.90529" lon="2.37396">
        <ele>66.6</ele>
        <time>2022-02-11T13:58:16Z</time>
      </trkpt>
      <trkpt lat="49.9053" lon="2.37397">
        <ele>66.6</ele>
        <time>2022-02-11T13:58:17Z</time>
      </trkpt>
      <trkpt lat="49.90531" lon="2.37398">
        <ele>66.6</ele>
        <time>2022-02-11T13:58:18Z</time>
      </trkpt>
      <trkpt lat="49.90531" lon="2.374">
        <ele>66.6</ele>
        <time>2022-02-11T13:58:19Z</time>
      </trkpt>
      <trkpt lat="49.90533" lon="2.37402">
        <ele>66.6</ele>
        <time>2022-02-11T13:58:21Z</time>
      </trkpt>
      <trkpt lat="49.90533" lon="2.37403">
        <ele>66.6</ele>
        <time>2022-02-11T13:58:22Z</time>
      </trkpt>
      <trkpt lat="49.90534" lon="2.37404">
        <ele>66.6</ele>
        <time>2022-02-11T13:58:23Z</time>
      </trkpt>
      <trkpt lat="49.90535" lon="2.37407">
        <ele>66.6</ele>
        <time>2022-02-11T13:58:24Z</time>
      </trkpt>
      <trkpt lat="49.90536" lon="2.37408">
        <ele>66.6</ele>
        <time>2022-02-11T13:58:25Z</time>
      </trkpt>
      <trkpt lat="49.90537" lon="2.37409">
        <ele>66.6</ele>
        <time>2022-02-11T13:58:27Z</time>
      </trkpt>
      <trkpt lat="49.90538" lon="2.3741">
        <ele>66.6</ele>
        <time>2022-02-11T13:58:28Z</time>
      </trkpt>
      <trkpt lat="49.90538" lon="2.37412">
        <ele>66.6</ele>
        <time>2022-02-11T13:58:29Z</time>
      </trkpt>
      <trkpt lat="49.90539" lon="2.37413">
        <ele>66.6</ele>
        <time>2022-02-11T13:58:30Z</time>
      </trkpt>
      <trkpt lat="49.9054" lon="2.37414">
        <ele>66.6</ele>
        <time>2022-02-11T13:58:31Z</time>
      </trkpt>
      <trkpt lat="49.9054" lon="2.37416">
        <ele>66.6</ele>
        <time>2022-02-11T13:58:32Z</time>
      </trkpt>
      <trkpt lat="49.90541" lon="2.37417">
        <ele>66.6</ele>
        <time>2022-02-11T13:58:34Z</time>
      </trkpt>
      <trkpt lat="49.90542" lon="2.37419">
        <ele>66.6</ele>
        <time>2022-02-11T13:58:35Z</time>
      </trkpt>
      <trkpt lat="49.90543" lon="2.3742">
        <ele>66.6</ele>
        <time>2022-02-11T13:58:36Z</time>
      </trkpt>
      <trkpt lat="49.90544" lon="2.37421">
        <ele>66.6</ele>
        <time>2022-02-11T13:58:37Z</time>
      </trkpt>
      <trkpt lat="49.90545" lon="2.37424">
        <ele>66.6</ele>
        <time>2022-02-11T13:58:38Z</time>
      </trkpt>
      <trkpt lat="49.90546" lon="2.37425">
        <ele>66.6</ele>
        <time>2022-02-11T13:58:40Z</time>
      </trkpt>
      <trkpt lat="49.90546" lon="2.37426">
        <ele>66.6</ele>
        <time>2022-02-11T13:58:41Z</time>
      </trkpt>
      <trkpt lat="49.90547" lon="2.37427">
        <ele>66.6</ele>
        <time>2022-02-11T13:58:42Z</time>
      </trkpt>
      <trkpt lat="49.90548" lon="2.37428">
        <ele>66.6</ele>
        <time>2022-02-11T13:58:43Z</time>
      </trkpt>
      <trkpt lat="49.90549" lon="2.37429">
        <ele>66.6</ele>
        <time>2022-02-11T13:58:44Z</time>
      </trkpt>
      <trkpt lat="49.90549" lon="2.37429">
        <ele>66.6</ele>
        <time>2022-02-11T13:58:45Z</time>
      </trkpt>
      <trkpt lat="49.90551" lon="2.37431">
        <ele>66.6</ele>
        <time>2022-02-11T13:58:47Z</time>
      </trkpt>
      <trkpt lat="49.90552" lon="2.37429">
        <ele>66.6</ele>
        <time>2022-02-11T13:58:49Z</time>
      </trkpt>
      <trkpt lat="49.90553" lon="2.3743">
        <ele>66.6</ele>
        <time>2022-02-11T13:58:50Z</time>
      </trkpt>
      <trkpt lat="49.90553" lon="2.37431">
        <ele>66.6</ele>
        <time>2022-02-11T13:58:51Z</time>
      </trkpt>
      <trkpt lat="49.90554" lon="2.37433">
        <ele>66.6</ele>
        <time>2022-02-11T13:58:53Z</time>
      </trkpt>
      <trkpt lat="49.90555" lon="2.37433">
        <ele>66.6</ele>
        <time>2022-02-11T13:58:54Z</time>
      </trkpt>
      <trkpt lat="49.90555" lon="2.37433">
        <ele>66.6</ele>
        <time>2022-02-11T13:58:55Z</time>
      </trkpt>
      <trkpt lat="49.90556" lon="2.37433">
        <ele>66.6</ele>
        <time>2022-02-11T13:58:56Z</time>
      </trkpt>
      <trkpt lat="49.90557" lon="2.37434">
        <ele>66.7</ele>
        <time>2022-02-11T13:58:57Z</time>
      </trkpt>
      <trkpt lat="49.90558" lon="2.37434">
        <ele>66.7</ele>
        <time>2022-02-11T13:58:58Z</time>
      </trkpt>
      <trkpt lat="49.90558" lon="2.37434">
        <ele>66.7</ele>
        <time>2022-02-11T13:58:59Z</time>
      </trkpt>
      <trkpt lat="49.90558" lon="2.37434">
        <ele>66.7</ele>
        <time>2022-02-11T13:59:00Z</time>
      </trkpt>
      <trkpt lat="49.90558" lon="2.37435">
        <ele>66.7</ele>
        <time>2022-02-11T13:59:01Z</time>
      </trkpt>
      <trkpt lat="49.90558" lon="2.37435">
        <ele>66.7</ele>
        <time>2022-02-11T13:59:02Z</time>
      </trkpt>
      <trkpt lat="49.90558" lon="2.37435">
        <ele>66.7</ele>
        <time>2022-02-11T13:59:03Z</time>
      </trkpt>
      <trkpt lat="49.90558" lon="2.37435">
        <ele>66.7</ele>
        <time>2022-02-11T13:59:04Z</time>
      </trkpt>
      <trkpt lat="49.90558" lon="2.37436">
        <ele>66.7</ele>
        <time>2022-02-11T13:59:05Z</time>
      </trkpt>
      <trkpt lat="49.90558" lon="2.37436">
        <ele>66.7</ele>
        <time>2022-02-11T13:59:06Z</time>
      </trkpt>
      <trkpt lat="49.90558" lon="2.37436">
        <ele>66.7</ele>
        <time>2022-02-11T13:59:07Z</time>
      </trkpt>
      <trkpt lat="49.90558" lon="2.37436">
        <ele>66.7</ele>
        <time>2022-02-11T13:59:08Z</time>
      </trkpt>
      <trkpt lat="49.90558" lon="2.37437">
        <ele>66.7</ele>
        <time>2022-02-11T13:59:09Z</time>
      </trkpt>
      <trkpt lat="49.90558" lon="2.37437">
        <ele>66.7</ele>
        <time>2022-02-11T13:59:10Z</time>
      </trkpt>
      <trkpt lat="49.90558" lon="2.37437">
        <ele>66.7</ele>
        <time>2022-02-11T13:59:11Z</time>
      </trkpt>
      <trkpt lat="49.90558" lon="2.37437">
        <ele>66.7</ele>
        <time>2022-02-11T13:59:12Z</time>
      </trkpt>
      <trkpt lat="49.90558" lon="2.37438">
        <ele>66.7</ele>
        <time>2022-02-11T13:59:13Z</time>
      </trkpt>
      <trkpt lat="49.90558" lon="2.37438">
        <ele>66.7</ele>
        <time>2022-02-11T13:59:14Z</time>
      </trkpt>
      <trkpt lat="49.90558" lon="2.37438">
        <ele>66.7</ele>
        <time>2022-02-11T13:59:15Z</time>
      </trkpt>
      <trkpt lat="49.90558" lon="2.37439">
        <ele>66.7</ele>
        <time>2022-02-11T13:59:17Z</time>
      </trkpt>
      <trkpt lat="49.90558" lon="2.37439">
        <ele>66.7</ele>
        <time>2022-02-11T13:59:18Z</time>
      </trkpt>
      <trkpt lat="49.90558" lon="2.37439">
        <ele>66.7</ele>
        <time>2022-02-11T13:59:19Z</time>
      </trkpt>
      <trkpt lat="49.90558" lon="2.37439">
        <ele>66.7</ele>
        <time>2022-02-11T13:59:20Z</time>
      </trkpt>
      <trkpt lat="49.90558" lon="2.3744">
        <ele>66.7</ele>
        <time>2022-02-11T13:59:21Z</time>
      </trkpt>
      <trkpt lat="49.90558" lon="2.37442">
        <ele>66.7</ele>
        <time>2022-02-11T13:59:22Z</time>
      </trkpt>
      <trkpt lat="49.90559" lon="2.37444">
        <ele>66.7</ele>
        <time>2022-02-11T13:59:23Z</time>
      </trkpt>
      <trkpt lat="49.9056" lon="2.37446">
        <ele>66.8</ele>
        <time>2022-02-11T13:59:25Z</time>
      </trkpt>
      <trkpt lat="49.9056" lon="2.37448">
        <ele>66.8</ele>
        <time>2022-02-11T13:59:26Z</time>
      </trkpt>
      <trkpt lat="49.90561" lon="2.37449">
        <ele>66.8</ele>
        <time>2022-02-11T13:59:27Z</time>
      </trkpt>
      <trkpt lat="49.90561" lon="2.37451">
        <ele>66.8</ele>
        <time>2022-02-11T13:59:28Z</time>
      </trkpt>
      <trkpt lat="49.90563" lon="2.37452">
        <ele>66.8</ele>
        <time>2022-02-11T13:59:29Z</time>
      </trkpt>
      <trkpt lat="49.90564" lon="2.37454">
        <ele>66.9</ele>
        <time>2022-02-11T13:59:30Z</time>
      </trkpt>
      <trkpt lat="49.90565" lon="2.37456">
        <ele>66.9</ele>
        <time>2022-02-11T13:59:31Z</time>
      </trkpt>
      <trkpt lat="49.90566" lon="2.37459">
        <ele>66.9</ele>
        <time>2022-02-11T13:59:32Z</time>
      </trkpt>
      <trkpt lat="49.90566" lon="2.3746">
        <ele>66.9</ele>
        <time>2022-02-11T13:59:34Z</time>
      </trkpt>
      <trkpt lat="49.90567" lon="2.37461">
        <ele>66.9</ele>
        <time>2022-02-11T13:59:35Z</time>
      </trkpt>
      <trkpt lat="49.90568" lon="2.37463">
        <ele>67</ele>
        <time>2022-02-11T13:59:36Z</time>
      </trkpt>
      <trkpt lat="49.90569" lon="2.37464">
        <ele>67</ele>
        <time>2022-02-11T13:59:37Z</time>
      </trkpt>
      <trkpt lat="49.90569" lon="2.37466">
        <ele>67</ele>
        <time>2022-02-11T13:59:38Z</time>
      </trkpt>
      <trkpt lat="49.9057" lon="2.37467">
        <ele>67</ele>
        <time>2022-02-11T13:59:39Z</time>
      </trkpt>
      <trkpt lat="49.90571" lon="2.37468">
        <ele>67</ele>
        <time>2022-02-11T13:59:40Z</time>
      </trkpt>
      <trkpt lat="49.90572" lon="2.3747">
        <ele>67</ele>
        <time>2022-02-11T13:59:42Z</time>
      </trkpt>
      <trkpt lat="49.90573" lon="2.37471">
        <ele>67</ele>
        <time>2022-02-11T13:59:43Z</time>
      </trkpt>
      <trkpt lat="49.90574" lon="2.37471">
        <ele>67.1</ele>
        <time>2022-02-11T13:59:44Z</time>
      </trkpt>
      <trkpt lat="49.90574" lon="2.37472">
        <ele>67.1</ele>
        <time>2022-02-11T13:59:45Z</time>
      </trkpt>
      <trkpt lat="49.90575" lon="2.37473">
        <ele>67.1</ele>
        <time>2022-02-11T13:59:46Z</time>
      </trkpt>
      <trkpt lat="49.90576" lon="2.37475">
        <ele>67.1</ele>
        <time>2022-02-11T13:59:48Z</time>
      </trkpt>
      <trkpt lat="49.90576" lon="2.37476">
        <ele>67.1</ele>
        <time>2022-02-11T13:59:49Z</time>
      </trkpt>
      <trkpt lat="49.90577" lon="2.37477">
        <ele>67.1</ele>
        <time>2022-02-11T13:59:50Z</time>
      </trkpt>
      <trkpt lat="49.90577" lon="2.37478">
        <ele>67.1</ele>
        <time>2022-02-11T13:59:51Z</time>
      </trkpt>
      <trkpt lat="49.90577" lon="2.37479">
        <ele>67.1</ele>
        <time>2022-02-11T13:59:52Z</time>
      </trkpt>
      <trkpt lat="49.90577" lon="2.3748">
        <ele>67.1</ele>
        <time>2022-02-11T13:59:53Z</time>
      </trkpt>
      <trkpt lat="49.90576" lon="2.37482">
        <ele>67.1</ele>
        <time>2022-02-11T13:59:54Z</time>
      </trkpt>
      <trkpt lat="49.90576" lon="2.37484">
        <ele>67.1</ele>
        <time>2022-02-11T13:59:56Z</time>
      </trkpt>
      <trkpt lat="49.90576" lon="2.37485">
        <ele>67.1</ele>
        <time>2022-02-11T13:59:57Z</time>
      </trkpt>
      <trkpt lat="49.90576" lon="2.37486">
        <ele>67.1</ele>
        <time>2022-02-11T13:59:58Z</time>
      </trkpt>
      <trkpt lat="49.90577" lon="2.37488">
        <ele>67.1</ele>
        <time>2022-02-11T13:59:59Z</time>
      </trkpt>
      <trkpt lat="49.90578" lon="2.37489">
        <ele>67.1</ele>
        <time>2022-02-11T14:00:00Z</time>
      </trkpt>
      <trkpt lat="49.90579" lon="2.3749">
        <ele>67.1</ele>
        <time>2022-02-11T14:00:02Z</time>
      </trkpt>
      <trkpt lat="49.9058" lon="2.37491">
        <ele>67.1</ele>
        <time>2022-02-11T14:00:03Z</time>
      </trkpt>
      <trkpt lat="49.90582" lon="2.37493">
        <ele>67.1</ele>
        <time>2022-02-11T14:00:04Z</time>
      </trkpt>
      <trkpt lat="49.90582" lon="2.37494">
        <ele>67.1</ele>
        <time>2022-02-11T14:00:05Z</time>
      </trkpt>
      <trkpt lat="49.90583" lon="2.37495">
        <ele>67.1</ele>
        <time>2022-02-11T14:00:06Z</time>
      </trkpt>
      <trkpt lat="49.90584" lon="2.37496">
        <ele>67.1</ele>
        <time>2022-02-11T14:00:07Z</time>
      </trkpt>
      <trkpt lat="49.90585" lon="2.37497">
        <ele>67.1</ele>
        <time>2022-02-11T14:00:08Z</time>
      </trkpt>
      <trkpt lat="49.90586" lon="2.37498">
        <ele>67.1</ele>
        <time>2022-02-11T14:00:10Z</time>
      </trkpt>
      <trkpt lat="49.90587" lon="2.37499">
        <ele>67.1</ele>
        <time>2022-02-11T14:00:11Z</time>
      </trkpt>
      <trkpt lat="49.90588" lon="2.37501">
        <ele>67.1</ele>
        <time>2022-02-11T14:00:12Z</time>
      </trkpt>
      <trkpt lat="49.90588" lon="2.37502">
        <ele>67.1</ele>
        <time>2022-02-11T14:00:13Z</time>
      </trkpt>
      <trkpt lat="49.90589" lon="2.37504">
        <ele>67.1</ele>
        <time>2022-02-11T14:00:14Z</time>
      </trkpt>
      <trkpt lat="49.9059" lon="2.37505">
        <ele>67.1</ele>
        <time>2022-02-11T14:00:15Z</time>
      </trkpt>
      <trkpt lat="49.9059" lon="2.37507">
        <ele>67.1</ele>
        <time>2022-02-11T14:00:16Z</time>
      </trkpt>
      <trkpt lat="49.9059" lon="2.37509">
        <ele>67.1</ele>
        <time>2022-02-11T14:00:17Z</time>
      </trkpt>
      <trkpt lat="49.90591" lon="2.3751">
        <ele>67.1</ele>
        <time>2022-02-11T14:00:19Z</time>
      </trkpt>
      <trkpt lat="49.90591" lon="2.37512">
        <ele>67.2</ele>
        <time>2022-02-11T14:00:20Z</time>
      </trkpt>
      <trkpt lat="49.90592" lon="2.37513">
        <ele>67.2</ele>
        <time>2022-02-11T14:00:21Z</time>
      </trkpt>
      <trkpt lat="49.90593" lon="2.37514">
        <ele>67.2</ele>
        <time>2022-02-11T14:00:22Z</time>
      </trkpt>
      <trkpt lat="49.90594" lon="2.37515">
        <ele>67.2</ele>
        <time>2022-02-11T14:00:23Z</time>
      </trkpt>
      <trkpt lat="49.90595" lon="2.37515">
        <ele>67.2</ele>
        <time>2022-02-11T14:00:25Z</time>
      </trkpt>
      <trkpt lat="49.90595" lon="2.37516">
        <ele>67.2</ele>
        <time>2022-02-11T14:00:26Z</time>
      </trkpt>
      <trkpt lat="49.90596" lon="2.37517">
        <ele>67.2</ele>
        <time>2022-02-11T14:00:27Z</time>
      </trkpt>
      <trkpt lat="49.90597" lon="2.37517">
        <ele>67.2</ele>
        <time>2022-02-11T14:00:28Z</time>
      </trkpt>
      <trkpt lat="49.90598" lon="2.37517">
        <ele>67.2</ele>
        <time>2022-02-11T14:00:29Z</time>
      </trkpt>
      <trkpt lat="49.90599" lon="2.37517">
        <ele>67.2</ele>
        <time>2022-02-11T14:00:30Z</time>
      </trkpt>
      <trkpt lat="49.90599" lon="2.37517">
        <ele>67.2</ele>
        <time>2022-02-11T14:00:31Z</time>
      </trkpt>
      <trkpt lat="49.906" lon="2.37517">
        <ele>67.2</ele>
        <time>2022-02-11T14:00:32Z</time>
      </trkpt>
      <trkpt lat="49.906" lon="2.37518">
        <ele>67.2</ele>
        <time>2022-02-11T14:00:33Z</time>
      </trkpt>
      <trkpt lat="49.906" lon="2.37519">
        <ele>67.2</ele>
        <time>2022-02-11T14:00:34Z</time>
      </trkpt>
      <trkpt lat="49.90601" lon="2.3752">
        <ele>67.2</ele>
        <time>2022-02-11T14:00:35Z</time>
      </trkpt>
      <trkpt lat="49.90601" lon="2.37521">
        <ele>67.2</ele>
        <time>2022-02-11T14:00:36Z</time>
      </trkpt>
      <trkpt lat="49.90602" lon="2.37523">
        <ele>67.2</ele>
        <time>2022-02-11T14:00:38Z</time>
      </trkpt>
      <trkpt lat="49.90602" lon="2.37525">
        <ele>67.2</ele>
        <time>2022-02-11T14:00:39Z</time>
      </trkpt>
      <trkpt lat="49.90603" lon="2.37527">
        <ele>67.1</ele>
        <time>2022-02-11T14:00:40Z</time>
      </trkpt>
      <trkpt lat="49.90603" lon="2.37528">
        <ele>67.1</ele>
        <time>2022-02-11T14:00:41Z</time>
      </trkpt>
      <trkpt lat="49.90604" lon="2.3753">
        <ele>67.1</ele>
        <time>2022-02-11T14:00:42Z</time>
      </trkpt>
      <trkpt lat="49.90604" lon="2.37531">
        <ele>67.1</ele>
        <time>2022-02-11T14:00:43Z</time>
      </trkpt>
      <trkpt lat="49.90605" lon="2.37532">
        <ele>67.1</ele>
        <time>2022-02-11T14:00:45Z</time>
      </trkpt>
      <trkpt lat="49.90605" lon="2.37534">
        <ele>67.1</ele>
        <time>2022-02-11T14:00:46Z</time>
      </trkpt>
      <trkpt lat="49.90606" lon="2.37535">
        <ele>67.1</ele>
        <time>2022-02-11T14:00:47Z</time>
      </trkpt>
      <trkpt lat="49.90607" lon="2.37537">
        <ele>67.1</ele>
        <time>2022-02-11T14:00:48Z</time>
      </trkpt>
      <trkpt lat="49.90607" lon="2.37538">
        <ele>67.1</ele>
        <time>2022-02-11T14:00:49Z</time>
      </trkpt>
      <trkpt lat="49.90608" lon="2.37539">
        <ele>67.1</ele>
        <time>2022-02-11T14:00:50Z</time>
      </trkpt>
      <trkpt lat="49.90608" lon="2.37541">
        <ele>67.1</ele>
        <time>2022-02-11T14:00:52Z</time>
      </trkpt>
      <trkpt lat="49.90609" lon="2.37543">
        <ele>67.1</ele>
        <time>2022-02-11T14:00:53Z</time>
      </trkpt>
      <trkpt lat="49.9061" lon="2.37544">
        <ele>67.1</ele>
        <time>2022-02-11T14:00:54Z</time>
      </trkpt>
      <trkpt lat="49.90611" lon="2.37545">
        <ele>67.1</ele>
        <time>2022-02-11T14:00:55Z</time>
      </trkpt>
      <trkpt lat="49.90611" lon="2.37546">
        <ele>67.1</ele>
        <time>2022-02-11T14:00:56Z</time>
      </trkpt>
      <trkpt lat="49.90612" lon="2.37548">
        <ele>67.1</ele>
        <time>2022-02-11T14:00:58Z</time>
      </trkpt>
      <trkpt lat="49.90613" lon="2.37549">
        <ele>67.1</ele>
        <time>2022-02-11T14:00:59Z</time>
      </trkpt>
      <trkpt lat="49.90613" lon="2.3755">
        <ele>67.1</ele>
        <time>2022-02-11T14:01:00Z</time>
      </trkpt>
      <trkpt lat="49.90614" lon="2.37551">
        <ele>67.1</ele>
        <time>2022-02-11T14:01:01Z</time>
      </trkpt>
      <trkpt lat="49.90615" lon="2.37553">
        <ele>67.1</ele>
        <time>2022-02-11T14:01:02Z</time>
      </trkpt>
      <trkpt lat="49.90616" lon="2.37554">
        <ele>67.1</ele>
        <time>2022-02-11T14:01:03Z</time>
      </trkpt>
      <trkpt lat="49.90617" lon="2.37556">
        <ele>67.1</ele>
        <time>2022-02-11T14:01:04Z</time>
      </trkpt>
      <trkpt lat="49.90618" lon="2.37558">
        <ele>67.1</ele>
        <time>2022-02-11T14:01:06Z</time>
      </trkpt>
      <trkpt lat="49.90619" lon="2.37559">
        <ele>67.1</ele>
        <time>2022-02-11T14:01:07Z</time>
      </trkpt>
      <trkpt lat="49.9062" lon="2.3756">
        <ele>67.1</ele>
        <time>2022-02-11T14:01:08Z</time>
      </trkpt>
      <trkpt lat="49.90621" lon="2.37561">
        <ele>67.1</ele>
        <time>2022-02-11T14:01:09Z</time>
      </trkpt>
      <trkpt lat="49.90621" lon="2.37562">
        <ele>67.1</ele>
        <time>2022-02-11T14:01:10Z</time>
      </trkpt>
      <trkpt lat="49.90622" lon="2.37563">
        <ele>67.1</ele>
        <time>2022-02-11T14:01:11Z</time>
      </trkpt>
      <trkpt lat="49.90623" lon="2.37564">
        <ele>67.1</ele>
        <time>2022-02-11T14:01:12Z</time>
      </trkpt>
      <trkpt lat="49.90624" lon="2.37565">
        <ele>67.1</ele>
        <time>2022-02-11T14:01:13Z</time>
      </trkpt>
      <trkpt lat="49.90625" lon="2.37567">
        <ele>67.1</ele>
        <time>2022-02-11T14:01:15Z</time>
      </trkpt>
      <trkpt lat="49.90626" lon="2.37569">
        <ele>67.1</ele>
        <time>2022-02-11T14:01:16Z</time>
      </trkpt>
      <trkpt lat="49.90627" lon="2.3757">
        <ele>67.1</ele>
        <time>2022-02-11T14:01:17Z</time>
      </trkpt>
      <trkpt lat="49.90629" lon="2.37571">
        <ele>67.1</ele>
        <time>2022-02-11T14:01:18Z</time>
      </trkpt>
      <trkpt lat="49.9063" lon="2.37572">
        <ele>67.1</ele>
        <time>2022-02-11T14:01:19Z</time>
      </trkpt>
      <trkpt lat="49.90631" lon="2.37573">
        <ele>67.1</ele>
        <time>2022-02-11T14:01:20Z</time>
      </trkpt>
      <trkpt lat="49.90632" lon="2.37574">
        <ele>67.1</ele>
        <time>2022-02-11T14:01:21Z</time>
      </trkpt>
      <trkpt lat="49.90633" lon="2.37575">
        <ele>67.1</ele>
        <time>2022-02-11T14:01:22Z</time>
      </trkpt>
      <trkpt lat="49.90633" lon="2.37577">
        <ele>67.1</ele>
        <time>2022-02-11T14:01:23Z</time>
      </trkpt>
      <trkpt lat="49.90634" lon="2.37578">
        <ele>67.2</ele>
        <time>2022-02-11T14:01:24Z</time>
      </trkpt>
      <trkpt lat="49.90635" lon="2.3758">
        <ele>67.2</ele>
        <time>2022-02-11T14:01:26Z</time>
      </trkpt>
      <trkpt lat="49.90636" lon="2.37581">
        <ele>67.2</ele>
        <time>2022-02-11T14:01:27Z</time>
      </trkpt>
      <trkpt lat="49.90637" lon="2.37582">
        <ele>67.2</ele>
        <time>2022-02-11T14:01:28Z</time>
      </trkpt>
      <trkpt lat="49.90638" lon="2.37582">
        <ele>67.2</ele>
        <time>2022-02-11T14:01:29Z</time>
      </trkpt>
      <trkpt lat="49.90639" lon="2.37582">
        <ele>67.2</ele>
        <time>2022-02-11T14:01:30Z</time>
      </trkpt>
      <trkpt lat="49.9064" lon="2.37582">
        <ele>67.2</ele>
        <time>2022-02-11T14:01:32Z</time>
      </trkpt>
      <trkpt lat="49.90642" lon="2.37583">
        <ele>67.2</ele>
        <time>2022-02-11T14:01:33Z</time>
      </trkpt>
      <trkpt lat="49.90642" lon="2.37584">
        <ele>67.2</ele>
        <time>2022-02-11T14:01:34Z</time>
      </trkpt>
      <trkpt lat="49.90643" lon="2.37586">
        <ele>67.2</ele>
        <time>2022-02-11T14:01:35Z</time>
      </trkpt>
      <trkpt lat="49.90644" lon="2.37587">
        <ele>67.2</ele>
        <time>2022-02-11T14:01:36Z</time>
      </trkpt>
      <trkpt lat="49.90645" lon="2.37588">
        <ele>67.2</ele>
        <time>2022-02-11T14:01:37Z</time>
      </trkpt>
      <trkpt lat="49.90645" lon="2.37589">
        <ele>67.2</ele>
        <time>2022-02-11T14:01:38Z</time>
      </trkpt>
      <trkpt lat="49.90646" lon="2.3759">
        <ele>67.2</ele>
        <time>2022-02-11T14:01:39Z</time>
      </trkpt>
      <trkpt lat="49.90646" lon="2.37594">
        <ele>67.2</ele>
        <time>2022-02-11T14:01:40Z</time>
      </trkpt>
      <trkpt lat="49.90646" lon="2.37595">
        <ele>67.2</ele>
        <time>2022-02-11T14:01:41Z</time>
      </trkpt>
      <trkpt lat="49.90646" lon="2.37597">
        <ele>67.2</ele>
        <time>2022-02-11T14:01:42Z</time>
      </trkpt>
      <trkpt lat="49.90647" lon="2.376">
        <ele>67.2</ele>
        <time>2022-02-11T14:01:44Z</time>
      </trkpt>
      <trkpt lat="49.90647" lon="2.37601">
        <ele>67.2</ele>
        <time>2022-02-11T14:01:45Z</time>
      </trkpt>
      <trkpt lat="49.90647" lon="2.37602">
        <ele>67.2</ele>
        <time>2022-02-11T14:01:46Z</time>
      </trkpt>
      <trkpt lat="49.90648" lon="2.37604">
        <ele>67.2</ele>
        <time>2022-02-11T14:01:47Z</time>
      </trkpt>
      <trkpt lat="49.90648" lon="2.37606">
        <ele>67.2</ele>
        <time>2022-02-11T14:01:48Z</time>
      </trkpt>
      <trkpt lat="49.90649" lon="2.37607">
        <ele>67.2</ele>
        <time>2022-02-11T14:01:49Z</time>
      </trkpt>
      <trkpt lat="49.9065" lon="2.37609">
        <ele>67.2</ele>
        <time>2022-02-11T14:01:50Z</time>
      </trkpt>
      <trkpt lat="49.90651" lon="2.3761">
        <ele>67.3</ele>
        <time>2022-02-11T14:01:51Z</time>
      </trkpt>
      <trkpt lat="49.90652" lon="2.37612">
        <ele>67.3</ele>
        <time>2022-02-11T14:01:52Z</time>
      </trkpt>
      <trkpt lat="49.90653" lon="2.37614">
        <ele>67.3</ele>
        <time>2022-02-11T14:01:54Z</time>
      </trkpt>
      <trkpt lat="49.90654" lon="2.37615">
        <ele>67.3</ele>
        <time>2022-02-11T14:01:55Z</time>
      </trkpt>
      <trkpt lat="49.90654" lon="2.37616">
        <ele>67.3</ele>
        <time>2022-02-11T14:01:56Z</time>
      </trkpt>
      <trkpt lat="49.90655" lon="2.37618">
        <ele>67.4</ele>
        <time>2022-02-11T14:01:57Z</time>
      </trkpt>
      <trkpt lat="49.90656" lon="2.37619">
        <ele>67.4</ele>
        <time>2022-02-11T14:01:58Z</time>
      </trkpt>
      <trkpt lat="49.90656" lon="2.37621">
        <ele>67.4</ele>
        <time>2022-02-11T14:01:59Z</time>
      </trkpt>
      <trkpt lat="49.90657" lon="2.37622">
        <ele>67.4</ele>
        <time>2022-02-11T14:02:00Z</time>
      </trkpt>
      <trkpt lat="49.90658" lon="2.37623">
        <ele>67.4</ele>
        <time>2022-02-11T14:02:01Z</time>
      </trkpt>
      <trkpt lat="49.90659" lon="2.37623">
        <ele>67.5</ele>
        <time>2022-02-11T14:02:03Z</time>
      </trkpt>
      <trkpt lat="49.9066" lon="2.37624">
        <ele>67.5</ele>
        <time>2022-02-11T14:02:04Z</time>
      </trkpt>
      <trkpt lat="49.90661" lon="2.37625">
        <ele>67.5</ele>
        <time>2022-02-11T14:02:05Z</time>
      </trkpt>
      <trkpt lat="49.90661" lon="2.37626">
        <ele>67.5</ele>
        <time>2022-02-11T14:02:06Z</time>
      </trkpt>
      <trkpt lat="49.90662" lon="2.37628">
        <ele>67.5</ele>
        <time>2022-02-11T14:02:07Z</time>
      </trkpt>
      <trkpt lat="49.90662" lon="2.3763">
        <ele>67.6</ele>
        <time>2022-02-11T14:02:08Z</time>
      </trkpt>
      <trkpt lat="49.90663" lon="2.37631">
        <ele>67.6</ele>
        <time>2022-02-11T14:02:09Z</time>
      </trkpt>
      <trkpt lat="49.90663" lon="2.37633">
        <ele>67.6</ele>
        <time>2022-02-11T14:02:10Z</time>
      </trkpt>
      <trkpt lat="49.90664" lon="2.37635">
        <ele>67.6</ele>
        <time>2022-02-11T14:02:11Z</time>
      </trkpt>
      <trkpt lat="49.90665" lon="2.37636">
        <ele>67.6</ele>
        <time>2022-02-11T14:02:13Z</time>
      </trkpt>
      <trkpt lat="49.90666" lon="2.37637">
        <ele>67.6</ele>
        <time>2022-02-11T14:02:14Z</time>
      </trkpt>
      <trkpt lat="49.90667" lon="2.37638">
        <ele>67.6</ele>
        <time>2022-02-11T14:02:15Z</time>
      </trkpt>
      <trkpt lat="49.90667" lon="2.37639">
        <ele>67.6</ele>
        <time>2022-02-11T14:02:16Z</time>
      </trkpt>
      <trkpt lat="49.90668" lon="2.37641">
        <ele>67.6</ele>
        <time>2022-02-11T14:02:17Z</time>
      </trkpt>
      <trkpt lat="49.90669" lon="2.37642">
        <ele>67.6</ele>
        <time>2022-02-11T14:02:18Z</time>
      </trkpt>
      <trkpt lat="49.9067" lon="2.37643">
        <ele>67.6</ele>
        <time>2022-02-11T14:02:20Z</time>
      </trkpt>
      <trkpt lat="49.90671" lon="2.37645">
        <ele>67.6</ele>
        <time>2022-02-11T14:02:21Z</time>
      </trkpt>
      <trkpt lat="49.90672" lon="2.37646">
        <ele>67.6</ele>
        <time>2022-02-11T14:02:22Z</time>
      </trkpt>
      <trkpt lat="49.90673" lon="2.37647">
        <ele>67.6</ele>
        <time>2022-02-11T14:02:23Z</time>
      </trkpt>
      <trkpt lat="49.90674" lon="2.37649">
        <ele>67.6</ele>
        <time>2022-02-11T14:02:25Z</time>
      </trkpt>
      <trkpt lat="49.90675" lon="2.3765">
        <ele>67.6</ele>
        <time>2022-02-11T14:02:26Z</time>
      </trkpt>
      <trkpt lat="49.90676" lon="2.37651">
        <ele>67.6</ele>
        <time>2022-02-11T14:02:27Z</time>
      </trkpt>
      <trkpt lat="49.90677" lon="2.37652">
        <ele>67.6</ele>
        <time>2022-02-11T14:02:28Z</time>
      </trkpt>
      <trkpt lat="49.90678" lon="2.37653">
        <ele>67.6</ele>
        <time>2022-02-11T14:02:29Z</time>
      </trkpt>
      <trkpt lat="49.90679" lon="2.37655">
        <ele>67.6</ele>
        <time>2022-02-11T14:02:30Z</time>
      </trkpt>
      <trkpt lat="49.9068" lon="2.37656">
        <ele>67.6</ele>
        <time>2022-02-11T14:02:31Z</time>
      </trkpt>
      <trkpt lat="49.9068" lon="2.37657">
        <ele>67.6</ele>
        <time>2022-02-11T14:02:32Z</time>
      </trkpt>
      <trkpt lat="49.90681" lon="2.37658">
        <ele>67.6</ele>
        <time>2022-02-11T14:02:33Z</time>
      </trkpt>
      <trkpt lat="49.90682" lon="2.37658">
        <ele>67.6</ele>
        <time>2022-02-11T14:02:34Z</time>
      </trkpt>
      <trkpt lat="49.90683" lon="2.37659">
        <ele>67.5</ele>
        <time>2022-02-11T14:02:35Z</time>
      </trkpt>
      <trkpt lat="49.90685" lon="2.37661">
        <ele>67.5</ele>
        <time>2022-02-11T14:02:36Z</time>
      </trkpt>
      <trkpt lat="49.90685" lon="2.37662">
        <ele>67.5</ele>
        <time>2022-02-11T14:02:38Z</time>
      </trkpt>
      <trkpt lat="49.90686" lon="2.37663">
        <ele>67.5</ele>
        <time>2022-02-11T14:02:39Z</time>
      </trkpt>
      <trkpt lat="49.90687" lon="2.37666">
        <ele>67.4</ele>
        <time>2022-02-11T14:02:40Z</time>
      </trkpt>
      <trkpt lat="49.90688" lon="2.37667">
        <ele>67.4</ele>
        <time>2022-02-11T14:02:41Z</time>
      </trkpt>
      <trkpt lat="49.90689" lon="2.37668">
        <ele>67.4</ele>
        <time>2022-02-11T14:02:42Z</time>
      </trkpt>
      <trkpt lat="49.90689" lon="2.37669">
        <ele>67.4</ele>
        <time>2022-02-11T14:02:43Z</time>
      </trkpt>
      <trkpt lat="49.9069" lon="2.3767">
        <ele>67.4</ele>
        <time>2022-02-11T14:02:44Z</time>
      </trkpt>
      <trkpt lat="49.90691" lon="2.37671">
        <ele>67.4</ele>
        <time>2022-02-11T14:02:45Z</time>
      </trkpt>
      <trkpt lat="49.90692" lon="2.37672">
        <ele>67.4</ele>
        <time>2022-02-11T14:02:46Z</time>
      </trkpt>
      <trkpt lat="49.90692" lon="2.37674">
        <ele>67.4</ele>
        <time>2022-02-11T14:02:47Z</time>
      </trkpt>
      <trkpt lat="49.90693" lon="2.37676">
        <ele>67.3</ele>
        <time>2022-02-11T14:02:49Z</time>
      </trkpt>
      <trkpt lat="49.90694" lon="2.37677">
        <ele>67.3</ele>
        <time>2022-02-11T14:02:50Z</time>
      </trkpt>
      <trkpt lat="49.90695" lon="2.37678">
        <ele>67.3</ele>
        <time>2022-02-11T14:02:51Z</time>
      </trkpt>
      <trkpt lat="49.90696" lon="2.37679">
        <ele>67.3</ele>
        <time>2022-02-11T14:02:52Z</time>
      </trkpt>
      <trkpt lat="49.90697" lon="2.37681">
        <ele>67.4</ele>
        <time>2022-02-11T14:02:53Z</time>
      </trkpt>
      <trkpt lat="49.90698" lon="2.37682">
        <ele>67.4</ele>
        <time>2022-02-11T14:02:54Z</time>
      </trkpt>
      <trkpt lat="49.90699" lon="2.37683">
        <ele>67.4</ele>
        <time>2022-02-11T14:02:55Z</time>
      </trkpt>
      <trkpt lat="49.907" lon="2.37684">
        <ele>67.4</ele>
        <time>2022-02-11T14:02:56Z</time>
      </trkpt>
      <trkpt lat="49.907" lon="2.37686">
        <ele>67.4</ele>
        <time>2022-02-11T14:02:57Z</time>
      </trkpt>
      <trkpt lat="49.90702" lon="2.37687">
        <ele>67.4</ele>
        <time>2022-02-11T14:02:59Z</time>
      </trkpt>
      <trkpt lat="49.90702" lon="2.37689">
        <ele>67.4</ele>
        <time>2022-02-11T14:03:00Z</time>
      </trkpt>
      <trkpt lat="49.90703" lon="2.3769">
        <ele>67.4</ele>
        <time>2022-02-11T14:03:01Z</time>
      </trkpt>
      <trkpt lat="49.90704" lon="2.37691">
        <ele>67.4</ele>
        <time>2022-02-11T14:03:02Z</time>
      </trkpt>
      <trkpt lat="49.90705" lon="2.37691">
        <ele>67.4</ele>
        <time>2022-02-11T14:03:03Z</time>
      </trkpt>
      <trkpt lat="49.90706" lon="2.37692">
        <ele>67.4</ele>
        <time>2022-02-11T14:03:04Z</time>
      </trkpt>
      <trkpt lat="49.90707" lon="2.37693">
        <ele>67.5</ele>
        <time>2022-02-11T14:03:05Z</time>
      </trkpt>
      <trkpt lat="49.90707" lon="2.37695">
        <ele>67.5</ele>
        <time>2022-02-11T14:03:06Z</time>
      </trkpt>
      <trkpt lat="49.90708" lon="2.37697">
        <ele>67.5</ele>
        <time>2022-02-11T14:03:07Z</time>
      </trkpt>
      <trkpt lat="49.90709" lon="2.377">
        <ele>67.5</ele>
        <time>2022-02-11T14:03:09Z</time>
      </trkpt>
      <trkpt lat="49.90709" lon="2.37701">
        <ele>67.5</ele>
        <time>2022-02-11T14:03:10Z</time>
      </trkpt>
      <trkpt lat="49.90709" lon="2.37702">
        <ele>67.5</ele>
        <time>2022-02-11T14:03:11Z</time>
      </trkpt>
      <trkpt lat="49.9071" lon="2.37704">
        <ele>67.5</ele>
        <time>2022-02-11T14:03:13Z</time>
      </trkpt>
      <trkpt lat="49.90711" lon="2.37705">
        <ele>67.5</ele>
        <time>2022-02-11T14:03:15Z</time>
      </trkpt>
      <trkpt lat="49.90711" lon="2.37705">
        <ele>67.5</ele>
        <time>2022-02-11T14:03:16Z</time>
      </trkpt>
      <trkpt lat="49.90711" lon="2.37706">
        <ele>67.5</ele>
        <time>2022-02-11T14:03:17Z</time>
      </trkpt>
      <trkpt lat="49.90712" lon="2.37706">
        <ele>67.5</ele>
        <time>2022-02-11T14:03:18Z</time>
      </trkpt>
      <trkpt lat="49.90713" lon="2.37707">
        <ele>67.5</ele>
        <time>2022-02-11T14:03:20Z</time>
      </trkpt>
      <trkpt lat="49.90714" lon="2.37708">
        <ele>67.5</ele>
        <time>2022-02-11T14:03:21Z</time>
      </trkpt>
      <trkpt lat="49.90715" lon="2.37709">
        <ele>67.5</ele>
        <time>2022-02-11T14:03:22Z</time>
      </trkpt>
      <trkpt lat="49.90715" lon="2.3771">
        <ele>67.6</ele>
        <time>2022-02-11T14:03:23Z</time>
      </trkpt>
      <trkpt lat="49.90716" lon="2.37711">
        <ele>67.6</ele>
        <time>2022-02-11T14:03:24Z</time>
      </trkpt>
      <trkpt lat="49.90716" lon="2.37712">
        <ele>67.6</ele>
        <time>2022-02-11T14:03:25Z</time>
      </trkpt>
      <trkpt lat="49.90718" lon="2.37714">
        <ele>67.6</ele>
        <time>2022-02-11T14:03:26Z</time>
      </trkpt>
      <trkpt lat="49.90719" lon="2.37715">
        <ele>67.6</ele>
        <time>2022-02-11T14:03:28Z</time>
      </trkpt>
      <trkpt lat="49.90719" lon="2.37716">
        <ele>67.6</ele>
        <time>2022-02-11T14:03:29Z</time>
      </trkpt>
      <trkpt lat="49.90719" lon="2.37717">
        <ele>67.6</ele>
        <time>2022-02-11T14:03:30Z</time>
      </trkpt>
      <trkpt lat="49.9072" lon="2.37717">
        <ele>67.6</ele>
        <time>2022-02-11T14:03:31Z</time>
      </trkpt>
      <trkpt lat="49.90721" lon="2.37718">
        <ele>67.6</ele>
        <time>2022-02-11T14:03:32Z</time>
      </trkpt>
      <trkpt lat="49.90722" lon="2.37719">
        <ele>67.6</ele>
        <time>2022-02-11T14:03:33Z</time>
      </trkpt>
      <trkpt lat="49.90723" lon="2.3772">
        <ele>67.7</ele>
        <time>2022-02-11T14:03:34Z</time>
      </trkpt>
      <trkpt lat="49.90724" lon="2.37721">
        <ele>67.7</ele>
        <time>2022-02-11T14:03:36Z</time>
      </trkpt>
      <trkpt lat="49.90725" lon="2.37722">
        <ele>67.7</ele>
        <time>2022-02-11T14:03:37Z</time>
      </trkpt>
      <trkpt lat="49.90726" lon="2.37723">
        <ele>67.7</ele>
        <time>2022-02-11T14:03:38Z</time>
      </trkpt>
      <trkpt lat="49.90727" lon="2.37724">
        <ele>67.7</ele>
        <time>2022-02-11T14:03:39Z</time>
      </trkpt>
      <trkpt lat="49.90728" lon="2.37725">
        <ele>67.7</ele>
        <time>2022-02-11T14:03:41Z</time>
      </trkpt>
      <trkpt lat="49.90729" lon="2.37726">
        <ele>67.7</ele>
        <time>2022-02-11T14:03:42Z</time>
      </trkpt>
      <trkpt lat="49.9073" lon="2.37726">
        <ele>67.8</ele>
        <time>2022-02-11T14:03:43Z</time>
      </trkpt>
      <trkpt lat="49.90731" lon="2.37726">
        <ele>67.8</ele>
        <time>2022-02-11T14:03:44Z</time>
      </trkpt>
      <trkpt lat="49.90731" lon="2.37727">
        <ele>67.8</ele>
        <time>2022-02-11T14:03:45Z</time>
      </trkpt>
      <trkpt lat="49.90732" lon="2.37728">
        <ele>67.8</ele>
        <time>2022-02-11T14:03:46Z</time>
      </trkpt>
      <trkpt lat="49.90733" lon="2.3773">
        <ele>67.8</ele>
        <time>2022-02-11T14:03:48Z</time>
      </trkpt>
      <trkpt lat="49.90734" lon="2.37731">
        <ele>67.8</ele>
        <time>2022-02-11T14:03:49Z</time>
      </trkpt>
      <trkpt lat="49.90735" lon="2.37732">
        <ele>67.8</ele>
        <time>2022-02-11T14:03:50Z</time>
      </trkpt>
      <trkpt lat="49.90736" lon="2.37733">
        <ele>67.8</ele>
        <time>2022-02-11T14:03:51Z</time>
      </trkpt>
      <trkpt lat="49.90737" lon="2.37734">
        <ele>67.8</ele>
        <time>2022-02-11T14:03:52Z</time>
      </trkpt>
      <trkpt lat="49.90738" lon="2.37734">
        <ele>67.8</ele>
        <time>2022-02-11T14:03:53Z</time>
      </trkpt>
      <trkpt lat="49.90739" lon="2.37735">
        <ele>67.7</ele>
        <time>2022-02-11T14:03:54Z</time>
      </trkpt>
      <trkpt lat="49.9074" lon="2.37736">
        <ele>67.7</ele>
        <time>2022-02-11T14:03:55Z</time>
      </trkpt>
      <trkpt lat="49.90742" lon="2.37737">
        <ele>67.7</ele>
        <time>2022-02-11T14:03:57Z</time>
      </trkpt>
      <trkpt lat="49.90743" lon="2.37738">
        <ele>67.7</ele>
        <time>2022-02-11T14:03:58Z</time>
      </trkpt>
      <trkpt lat="49.90744" lon="2.37739">
        <ele>67.7</ele>
        <time>2022-02-11T14:03:59Z</time>
      </trkpt>
      <trkpt lat="49.90746" lon="2.37741">
        <ele>67.7</ele>
        <time>2022-02-11T14:04:00Z</time>
      </trkpt>
      <trkpt lat="49.90747" lon="2.37741">
        <ele>67.7</ele>
        <time>2022-02-11T14:04:01Z</time>
      </trkpt>
      <trkpt lat="49.90747" lon="2.37742">
        <ele>67.7</ele>
        <time>2022-02-11T14:04:02Z</time>
      </trkpt>
      <trkpt lat="49.90749" lon="2.37745">
        <ele>67.7</ele>
        <time>2022-02-11T14:04:03Z</time>
      </trkpt>
      <trkpt lat="49.9075" lon="2.37746">
        <ele>67.6</ele>
        <time>2022-02-11T14:04:05Z</time>
      </trkpt>
      <trkpt lat="49.90751" lon="2.37747">
        <ele>67.6</ele>
        <time>2022-02-11T14:04:06Z</time>
      </trkpt>
      <trkpt lat="49.90752" lon="2.37748">
        <ele>67.6</ele>
        <time>2022-02-11T14:04:07Z</time>
      </trkpt>
      <trkpt lat="49.90753" lon="2.37749">
        <ele>67.6</ele>
        <time>2022-02-11T14:04:08Z</time>
      </trkpt>
      <trkpt lat="49.90754" lon="2.3775">
        <ele>67.6</ele>
        <time>2022-02-11T14:04:09Z</time>
      </trkpt>
      <trkpt lat="49.90755" lon="2.37751">
        <ele>67.6</ele>
        <time>2022-02-11T14:04:10Z</time>
      </trkpt>
      <trkpt lat="49.90755" lon="2.37753">
        <ele>67.6</ele>
        <time>2022-02-11T14:04:11Z</time>
      </trkpt>
      <trkpt lat="49.90757" lon="2.37755">
        <ele>67.6</ele>
        <time>2022-02-11T14:04:13Z</time>
      </trkpt>
      <trkpt lat="49.90758" lon="2.37756">
        <ele>67.6</ele>
        <time>2022-02-11T14:04:14Z</time>
      </trkpt>
      <trkpt lat="49.90758" lon="2.37757">
        <ele>67.6</ele>
        <time>2022-02-11T14:04:15Z</time>
      </trkpt>
      <trkpt lat="49.9076" lon="2.37759">
        <ele>67.5</ele>
        <time>2022-02-11T14:04:16Z</time>
      </trkpt>
      <trkpt lat="49.90761" lon="2.3776">
        <ele>67.5</ele>
        <time>2022-02-11T14:04:17Z</time>
      </trkpt>
      <trkpt lat="49.90761" lon="2.3776">
        <ele>67.5</ele>
        <time>2022-02-11T14:04:18Z</time>
      </trkpt>
      <trkpt lat="49.90762" lon="2.37762">
        <ele>67.5</ele>
        <time>2022-02-11T14:04:19Z</time>
      </trkpt>
      <trkpt lat="49.90763" lon="2.37763">
        <ele>67.5</ele>
        <time>2022-02-11T14:04:20Z</time>
      </trkpt>
      <trkpt lat="49.90764" lon="2.37764">
        <ele>67.6</ele>
        <time>2022-02-11T14:04:21Z</time>
      </trkpt>
      <trkpt lat="49.90765" lon="2.37765">
        <ele>67.6</ele>
        <time>2022-02-11T14:04:22Z</time>
      </trkpt>
      <trkpt lat="49.90765" lon="2.37766">
        <ele>67.6</ele>
        <time>2022-02-11T14:04:23Z</time>
      </trkpt>
      <trkpt lat="49.90766" lon="2.37768">
        <ele>67.6</ele>
        <time>2022-02-11T14:04:25Z</time>
      </trkpt>
      <trkpt lat="49.90767" lon="2.37769">
        <ele>67.6</ele>
        <time>2022-02-11T14:04:26Z</time>
      </trkpt>
      <trkpt lat="49.90768" lon="2.37771">
        <ele>67.6</ele>
        <time>2022-02-11T14:04:27Z</time>
      </trkpt>
      <trkpt lat="49.90769" lon="2.37773">
        <ele>67.6</ele>
        <time>2022-02-11T14:04:28Z</time>
      </trkpt>
      <trkpt lat="49.9077" lon="2.37774">
        <ele>67.5</ele>
        <time>2022-02-11T14:04:29Z</time>
      </trkpt>
      <trkpt lat="49.90771" lon="2.37776">
        <ele>67.5</ele>
        <time>2022-02-11T14:04:31Z</time>
      </trkpt>
      <trkpt lat="49.90772" lon="2.37778">
        <ele>67.5</ele>
        <time>2022-02-11T14:04:32Z</time>
      </trkpt>
      <trkpt lat="49.90773" lon="2.37779">
        <ele>67.5</ele>
        <time>2022-02-11T14:04:33Z</time>
      </trkpt>
      <trkpt lat="49.90773" lon="2.3778">
        <ele>67.5</ele>
        <time>2022-02-11T14:04:34Z</time>
      </trkpt>
      <trkpt lat="49.90774" lon="2.37782">
        <ele>67.5</ele>
        <time>2022-02-11T14:04:35Z</time>
      </trkpt>
      <trkpt lat="49.90775" lon="2.37783">
        <ele>67.5</ele>
        <time>2022-02-11T14:04:36Z</time>
      </trkpt>
      <trkpt lat="49.90777" lon="2.37784">
        <ele>67.5</ele>
        <time>2022-02-11T14:04:37Z</time>
      </trkpt>
      <trkpt lat="49.90777" lon="2.37785">
        <ele>67.5</ele>
        <time>2022-02-11T14:04:38Z</time>
      </trkpt>
      <trkpt lat="49.90778" lon="2.37786">
        <ele>67.5</ele>
        <time>2022-02-11T14:04:39Z</time>
      </trkpt>
      <trkpt lat="49.90779" lon="2.37788">
        <ele>67.4</ele>
        <time>2022-02-11T14:04:40Z</time>
      </trkpt>
      <trkpt lat="49.9078" lon="2.37789">
        <ele>67.4</ele>
        <time>2022-02-11T14:04:41Z</time>
      </trkpt>
      <trkpt lat="49.90781" lon="2.37791">
        <ele>67.4</ele>
        <time>2022-02-11T14:04:43Z</time>
      </trkpt>
      <trkpt lat="49.90783" lon="2.37793">
        <ele>67.4</ele>
        <time>2022-02-11T14:04:44Z</time>
      </trkpt>
      <trkpt lat="49.90783" lon="2.37794">
        <ele>67.4</ele>
        <time>2022-02-11T14:04:45Z</time>
      </trkpt>
      <trkpt lat="49.90784" lon="2.37795">
        <ele>67.4</ele>
        <time>2022-02-11T14:04:46Z</time>
      </trkpt>
      <trkpt lat="49.90784" lon="2.37797">
        <ele>67.3</ele>
        <time>2022-02-11T14:04:47Z</time>
      </trkpt>
      <trkpt lat="49.90785" lon="2.37798">
        <ele>67.3</ele>
        <time>2022-02-11T14:04:48Z</time>
      </trkpt>
      <trkpt lat="49.90786" lon="2.378">
        <ele>67.4</ele>
        <time>2022-02-11T14:04:49Z</time>
      </trkpt>
      <trkpt lat="49.90787" lon="2.37801">
        <ele>67.4</ele>
        <time>2022-02-11T14:04:50Z</time>
      </trkpt>
      <trkpt lat="49.90788" lon="2.37803">
        <ele>67.4</ele>
        <time>2022-02-11T14:04:51Z</time>
      </trkpt>
      <trkpt lat="49.90788" lon="2.37804">
        <ele>67.4</ele>
        <time>2022-02-11T14:04:52Z</time>
      </trkpt>
      <trkpt lat="49.90789" lon="2.37806">
        <ele>67.4</ele>
        <time>2022-02-11T14:04:53Z</time>
      </trkpt>
      <trkpt lat="49.9079" lon="2.37807">
        <ele>67.3</ele>
        <time>2022-02-11T14:04:54Z</time>
      </trkpt>
      <trkpt lat="49.90791" lon="2.37809">
        <ele>67.3</ele>
        <time>2022-02-11T14:04:55Z</time>
      </trkpt>
      <trkpt lat="49.90792" lon="2.3781">
        <ele>67.3</ele>
        <time>2022-02-11T14:04:56Z</time>
      </trkpt>
      <trkpt lat="49.90792" lon="2.37811">
        <ele>67.3</ele>
        <time>2022-02-11T14:04:57Z</time>
      </trkpt>
      <trkpt lat="49.90793" lon="2.37813">
        <ele>67.3</ele>
        <time>2022-02-11T14:04:58Z</time>
      </trkpt>
      <trkpt lat="49.90794" lon="2.37814">
        <ele>67.3</ele>
        <time>2022-02-11T14:04:59Z</time>
      </trkpt>
      <trkpt lat="49.90795" lon="2.37816">
        <ele>67.2</ele>
        <time>2022-02-11T14:05:01Z</time>
      </trkpt>
      <trkpt lat="49.90796" lon="2.37817">
        <ele>67.2</ele>
        <time>2022-02-11T14:05:02Z</time>
      </trkpt>
      <trkpt lat="49.90797" lon="2.37818">
        <ele>67.2</ele>
        <time>2022-02-11T14:05:03Z</time>
      </trkpt>
      <trkpt lat="49.90798" lon="2.3782">
        <ele>67.2</ele>
        <time>2022-02-11T14:05:05Z</time>
      </trkpt>
      <trkpt lat="49.90799" lon="2.37821">
        <ele>67.2</ele>
        <time>2022-02-11T14:05:06Z</time>
      </trkpt>
      <trkpt lat="49.908" lon="2.37821">
        <ele>67.2</ele>
        <time>2022-02-11T14:05:07Z</time>
      </trkpt>
      <trkpt lat="49.90801" lon="2.37822">
        <ele>67.2</ele>
        <time>2022-02-11T14:05:08Z</time>
      </trkpt>
      <trkpt lat="49.90801" lon="2.37823">
        <ele>67.2</ele>
        <time>2022-02-11T14:05:09Z</time>
      </trkpt>
      <trkpt lat="49.90802" lon="2.37823">
        <ele>67.2</ele>
        <time>2022-02-11T14:05:10Z</time>
      </trkpt>
      <trkpt lat="49.90803" lon="2.37824">
        <ele>67.2</ele>
        <time>2022-02-11T14:05:11Z</time>
      </trkpt>
      <trkpt lat="49.90803" lon="2.37824">
        <ele>67.2</ele>
        <time>2022-02-11T14:05:12Z</time>
      </trkpt>
      <trkpt lat="49.90804" lon="2.37824">
        <ele>67.2</ele>
        <time>2022-02-11T14:05:13Z</time>
      </trkpt>
      <trkpt lat="49.90804" lon="2.37825">
        <ele>67.2</ele>
        <time>2022-02-11T14:05:14Z</time>
      </trkpt>
      <trkpt lat="49.90805" lon="2.37826">
        <ele>67.2</ele>
        <time>2022-02-11T14:05:16Z</time>
      </trkpt>
      <trkpt lat="49.90805" lon="2.37827">
        <ele>67.2</ele>
        <time>2022-02-11T14:05:17Z</time>
      </trkpt>
      <trkpt lat="49.90806" lon="2.37828">
        <ele>67.2</ele>
        <time>2022-02-11T14:05:18Z</time>
      </trkpt>
      <trkpt lat="49.90806" lon="2.3783">
        <ele>67.2</ele>
        <time>2022-02-11T14:05:20Z</time>
      </trkpt>
      <trkpt lat="49.90807" lon="2.37831">
        <ele>67.2</ele>
        <time>2022-02-11T14:05:21Z</time>
      </trkpt>
      <trkpt lat="49.90808" lon="2.37833">
        <ele>67.2</ele>
        <time>2022-02-11T14:05:22Z</time>
      </trkpt>
      <trkpt lat="49.90808" lon="2.37834">
        <ele>67.2</ele>
        <time>2022-02-11T14:05:23Z</time>
      </trkpt>
      <trkpt lat="49.90809" lon="2.37835">
        <ele>67.2</ele>
        <time>2022-02-11T14:05:24Z</time>
      </trkpt>
      <trkpt lat="49.90809" lon="2.37836">
        <ele>67.2</ele>
        <time>2022-02-11T14:05:25Z</time>
      </trkpt>
      <trkpt lat="49.9081" lon="2.37837">
        <ele>67.2</ele>
        <time>2022-02-11T14:05:26Z</time>
      </trkpt>
      <trkpt lat="49.90811" lon="2.37839">
        <ele>67.2</ele>
        <time>2022-02-11T14:05:28Z</time>
      </trkpt>
      <trkpt lat="49.90812" lon="2.3784">
        <ele>67.2</ele>
        <time>2022-02-11T14:05:29Z</time>
      </trkpt>
      <trkpt lat="49.90812" lon="2.37841">
        <ele>67.2</ele>
        <time>2022-02-11T14:05:31Z</time>
      </trkpt>
      <trkpt lat="49.90813" lon="2.37842">
        <ele>67.2</ele>
        <time>2022-02-11T14:05:32Z</time>
      </trkpt>
      <trkpt lat="49.90813" lon="2.37843">
        <ele>67.2</ele>
        <time>2022-02-11T14:05:33Z</time>
      </trkpt>
      <trkpt lat="49.90814" lon="2.37844">
        <ele>67.2</ele>
        <time>2022-02-11T14:05:34Z</time>
      </trkpt>
      <trkpt lat="49.90814" lon="2.37844">
        <ele>67.2</ele>
        <time>2022-02-11T14:05:35Z</time>
      </trkpt>
      <trkpt lat="49.90814" lon="2.37844">
        <ele>67.2</ele>
        <time>2022-02-11T14:05:36Z</time>
      </trkpt>
      <trkpt lat="49.90815" lon="2.37846">
        <ele>67.2</ele>
        <time>2022-02-11T14:05:38Z</time>
      </trkpt>
      <trkpt lat="49.90815" lon="2.37847">
        <ele>67.2</ele>
        <time>2022-02-11T14:05:39Z</time>
      </trkpt>
      <trkpt lat="49.90816" lon="2.37847">
        <ele>67.2</ele>
        <time>2022-02-11T14:05:40Z</time>
      </trkpt>
      <trkpt lat="49.90816" lon="2.37848">
        <ele>67.2</ele>
        <time>2022-02-11T14:05:41Z</time>
      </trkpt>
      <trkpt lat="49.90817" lon="2.37849">
        <ele>67.2</ele>
        <time>2022-02-11T14:05:42Z</time>
      </trkpt>
      <trkpt lat="49.90817" lon="2.3785">
        <ele>67.2</ele>
        <time>2022-02-11T14:05:44Z</time>
      </trkpt>
      <trkpt lat="49.90817" lon="2.37851">
        <ele>67.2</ele>
        <time>2022-02-11T14:05:45Z</time>
      </trkpt>
      <trkpt lat="49.90818" lon="2.37852">
        <ele>67.2</ele>
        <time>2022-02-11T14:05:46Z</time>
      </trkpt>
      <trkpt lat="49.90818" lon="2.37853">
        <ele>67.2</ele>
        <time>2022-02-11T14:05:47Z</time>
      </trkpt>
      <trkpt lat="49.90819" lon="2.37855">
        <ele>67.2</ele>
        <time>2022-02-11T14:05:48Z</time>
      </trkpt>
      <trkpt lat="49.90819" lon="2.37856">
        <ele>67.2</ele>
        <time>2022-02-11T14:05:49Z</time>
      </trkpt>
      <trkpt lat="49.90819" lon="2.37857">
        <ele>67.2</ele>
        <time>2022-02-11T14:05:50Z</time>
      </trkpt>
      <trkpt lat="49.90819" lon="2.37858">
        <ele>67.2</ele>
        <time>2022-02-11T14:05:51Z</time>
      </trkpt>
      <trkpt lat="49.9082" lon="2.3786">
        <ele>67.3</ele>
        <time>2022-02-11T14:05:52Z</time>
      </trkpt>
      <trkpt lat="49.90821" lon="2.37862">
        <ele>67.3</ele>
        <time>2022-02-11T14:05:53Z</time>
      </trkpt>
      <trkpt lat="49.90822" lon="2.37863">
        <ele>67.3</ele>
        <time>2022-02-11T14:05:55Z</time>
      </trkpt>
      <trkpt lat="49.90823" lon="2.37863">
        <ele>67.3</ele>
        <time>2022-02-11T14:05:56Z</time>
      </trkpt>
      <trkpt lat="49.90824" lon="2.37865">
        <ele>67.3</ele>
        <time>2022-02-11T14:05:57Z</time>
      </trkpt>
      <trkpt lat="49.90825" lon="2.37866">
        <ele>67.3</ele>
        <time>2022-02-11T14:05:58Z</time>
      </trkpt>
      <trkpt lat="49.90826" lon="2.37867">
        <ele>67.3</ele>
        <time>2022-02-11T14:06:00Z</time>
      </trkpt>
      <trkpt lat="49.90828" lon="2.37868">
        <ele>67.3</ele>
        <time>2022-02-11T14:06:01Z</time>
      </trkpt>
      <trkpt lat="49.90829" lon="2.3787">
        <ele>67.3</ele>
        <time>2022-02-11T14:06:02Z</time>
      </trkpt>
      <trkpt lat="49.9083" lon="2.37871">
        <ele>67.3</ele>
        <time>2022-02-11T14:06:03Z</time>
      </trkpt>
      <trkpt lat="49.90831" lon="2.37872">
        <ele>67.3</ele>
        <time>2022-02-11T14:06:04Z</time>
      </trkpt>
      <trkpt lat="49.90831" lon="2.37873">
        <ele>67.3</ele>
        <time>2022-02-11T14:06:05Z</time>
      </trkpt>
      <trkpt lat="49.90832" lon="2.37875">
        <ele>67.3</ele>
        <time>2022-02-11T14:06:07Z</time>
      </trkpt>
      <trkpt lat="49.90832" lon="2.37876">
        <ele>67.3</ele>
        <time>2022-02-11T14:06:08Z</time>
      </trkpt>
      <trkpt lat="49.90833" lon="2.37877">
        <ele>67.3</ele>
        <time>2022-02-11T14:06:09Z</time>
      </trkpt>
      <trkpt lat="49.90834" lon="2.37878">
        <ele>67.3</ele>
        <time>2022-02-11T14:06:10Z</time>
      </trkpt>
      <trkpt lat="49.90835" lon="2.3788">
        <ele>67.3</ele>
        <time>2022-02-11T14:06:11Z</time>
      </trkpt>
      <trkpt lat="49.90836" lon="2.37881">
        <ele>67.3</ele>
        <time>2022-02-11T14:06:12Z</time>
      </trkpt>
      <trkpt lat="49.90837" lon="2.37883">
        <ele>67.3</ele>
        <time>2022-02-11T14:06:13Z</time>
      </trkpt>
      <trkpt lat="49.90838" lon="2.37884">
        <ele>67.3</ele>
        <time>2022-02-11T14:06:15Z</time>
      </trkpt>
      <trkpt lat="49.90839" lon="2.37885">
        <ele>67.2</ele>
        <time>2022-02-11T14:06:16Z</time>
      </trkpt>
      <trkpt lat="49.9084" lon="2.37886">
        <ele>67.2</ele>
        <time>2022-02-11T14:06:17Z</time>
      </trkpt>
      <trkpt lat="49.90841" lon="2.37887">
        <ele>67.2</ele>
        <time>2022-02-11T14:06:19Z</time>
      </trkpt>
      <trkpt lat="49.90843" lon="2.37889">
        <ele>67.2</ele>
        <time>2022-02-11T14:06:20Z</time>
      </trkpt>
      <trkpt lat="49.90844" lon="2.3789">
        <ele>67.2</ele>
        <time>2022-02-11T14:06:21Z</time>
      </trkpt>
      <trkpt lat="49.90844" lon="2.37891">
        <ele>67.2</ele>
        <time>2022-02-11T14:06:22Z</time>
      </trkpt>
      <trkpt lat="49.90845" lon="2.37892">
        <ele>67.2</ele>
        <time>2022-02-11T14:06:24Z</time>
      </trkpt>
      <trkpt lat="49.90847" lon="2.37893">
        <ele>67.2</ele>
        <time>2022-02-11T14:06:25Z</time>
      </trkpt>
      <trkpt lat="49.90847" lon="2.37894">
        <ele>67.2</ele>
        <time>2022-02-11T14:06:26Z</time>
      </trkpt>
      <trkpt lat="49.90849" lon="2.37894">
        <ele>67.2</ele>
        <time>2022-02-11T14:06:27Z</time>
      </trkpt>
      <trkpt lat="49.90849" lon="2.37895">
        <ele>67.2</ele>
        <time>2022-02-11T14:06:28Z</time>
      </trkpt>
      <trkpt lat="49.9085" lon="2.37896">
        <ele>67.2</ele>
        <time>2022-02-11T14:06:30Z</time>
      </trkpt>
      <trkpt lat="49.90851" lon="2.37897">
        <ele>67.2</ele>
        <time>2022-02-11T14:06:31Z</time>
      </trkpt>
      <trkpt lat="49.90852" lon="2.37896">
        <ele>67.2</ele>
        <time>2022-02-11T14:06:32Z</time>
      </trkpt>
      <trkpt lat="49.90853" lon="2.37897">
        <ele>67.2</ele>
        <time>2022-02-11T14:06:34Z</time>
      </trkpt>
      <trkpt lat="49.90854" lon="2.37897">
        <ele>67.2</ele>
        <time>2022-02-11T14:06:35Z</time>
      </trkpt>
      <trkpt lat="49.90855" lon="2.37898">
        <ele>67.2</ele>
        <time>2022-02-11T14:06:36Z</time>
      </trkpt>
      <trkpt lat="49.90856" lon="2.379">
        <ele>67.2</ele>
        <time>2022-02-11T14:06:37Z</time>
      </trkpt>
      <trkpt lat="49.90856" lon="2.37901">
        <ele>67.2</ele>
        <time>2022-02-11T14:06:38Z</time>
      </trkpt>
      <trkpt lat="49.90856" lon="2.37902">
        <ele>67.2</ele>
        <time>2022-02-11T14:06:39Z</time>
      </trkpt>
      <trkpt lat="49.90857" lon="2.37904">
        <ele>67.2</ele>
        <time>2022-02-11T14:06:41Z</time>
      </trkpt>
      <trkpt lat="49.90858" lon="2.37905">
        <ele>67.2</ele>
        <time>2022-02-11T14:06:42Z</time>
      </trkpt>
      <trkpt lat="49.90858" lon="2.37906">
        <ele>67.2</ele>
        <time>2022-02-11T14:06:43Z</time>
      </trkpt>
      <trkpt lat="49.90858" lon="2.37907">
        <ele>67.2</ele>
        <time>2022-02-11T14:06:44Z</time>
      </trkpt>
      <trkpt lat="49.90859" lon="2.37908">
        <ele>67.2</ele>
        <time>2022-02-11T14:06:45Z</time>
      </trkpt>
      <trkpt lat="49.90859" lon="2.37909">
        <ele>67.2</ele>
        <time>2022-02-11T14:06:46Z</time>
      </trkpt>
      <trkpt lat="49.90859" lon="2.37911">
        <ele>67.2</ele>
        <time>2022-02-11T14:06:48Z</time>
      </trkpt>
      <trkpt lat="49.9086" lon="2.37913">
        <ele>67.2</ele>
        <time>2022-02-11T14:06:49Z</time>
      </trkpt>
      <trkpt lat="49.9086" lon="2.37914">
        <ele>67.2</ele>
        <time>2022-02-11T14:06:50Z</time>
      </trkpt>
      <trkpt lat="49.90861" lon="2.37916">
        <ele>67.2</ele>
        <time>2022-02-11T14:06:51Z</time>
      </trkpt>
      <trkpt lat="49.90861" lon="2.37918">
        <ele>67.2</ele>
        <time>2022-02-11T14:06:52Z</time>
      </trkpt>
      <trkpt lat="49.90862" lon="2.37919">
        <ele>67.2</ele>
        <time>2022-02-11T14:06:53Z</time>
      </trkpt>
      <trkpt lat="49.90862" lon="2.3792">
        <ele>67.2</ele>
        <time>2022-02-11T14:06:54Z</time>
      </trkpt>
      <trkpt lat="49.90863" lon="2.37922">
        <ele>67.2</ele>
        <time>2022-02-11T14:06:56Z</time>
      </trkpt>
      <trkpt lat="49.90863" lon="2.37924">
        <ele>67.2</ele>
        <time>2022-02-11T14:06:57Z</time>
      </trkpt>
      <trkpt lat="49.90864" lon="2.37925">
        <ele>67.2</ele>
        <time>2022-02-11T14:06:58Z</time>
      </trkpt>
      <trkpt lat="49.90865" lon="2.37928">
        <ele>67.2</ele>
        <time>2022-02-11T14:06:59Z</time>
      </trkpt>
      <trkpt lat="49.90866" lon="2.37929">
        <ele>67.1</ele>
        <time>2022-02-11T14:07:00Z</time>
      </trkpt>
      <trkpt lat="49.90866" lon="2.3793">
        <ele>67.1</ele>
        <time>2022-02-11T14:07:01Z</time>
      </trkpt>
      <trkpt lat="49.90867" lon="2.37931">
        <ele>67.1</ele>
        <time>2022-02-11T14:07:02Z</time>
      </trkpt>
      <trkpt lat="49.90868" lon="2.37932">
        <ele>67.1</ele>
        <time>2022-02-11T14:07:03Z</time>
      </trkpt>
      <trkpt lat="49.90868" lon="2.37934">
        <ele>67.1</ele>
        <time>2022-02-11T14:07:05Z</time>
      </trkpt>
      <trkpt lat="49.90869" lon="2.37936">
        <ele>67.1</ele>
        <time>2022-02-11T14:07:06Z</time>
      </trkpt>
      <trkpt lat="49.9087" lon="2.37938">
        <ele>67.1</ele>
        <time>2022-02-11T14:07:07Z</time>
      </trkpt>
      <trkpt lat="49.9087" lon="2.37939">
        <ele>67.1</ele>
        <time>2022-02-11T14:07:08Z</time>
      </trkpt>
      <trkpt lat="49.90871" lon="2.37941">
        <ele>67.1</ele>
        <time>2022-02-11T14:07:09Z</time>
      </trkpt>
      <trkpt lat="49.90872" lon="2.37942">
        <ele>67.1</ele>
        <time>2022-02-11T14:07:10Z</time>
      </trkpt>
      <trkpt lat="49.90873" lon="2.37943">
        <ele>67</ele>
        <time>2022-02-11T14:07:11Z</time>
      </trkpt>
      <trkpt lat="49.90873" lon="2.37944">
        <ele>67</ele>
        <time>2022-02-11T14:07:12Z</time>
      </trkpt>
      <trkpt lat="49.90874" lon="2.37945">
        <ele>67</ele>
        <time>2022-02-11T14:07:13Z</time>
      </trkpt>
      <trkpt lat="49.90875" lon="2.37946">
        <ele>67</ele>
        <time>2022-02-11T14:07:15Z</time>
      </trkpt>
      <trkpt lat="49.90877" lon="2.37947">
        <ele>66.9</ele>
        <time>2022-02-11T14:07:16Z</time>
      </trkpt>
      <trkpt lat="49.90878" lon="2.37949">
        <ele>66.9</ele>
        <time>2022-02-11T14:07:17Z</time>
      </trkpt>
      <trkpt lat="49.90878" lon="2.37951">
        <ele>66.8</ele>
        <time>2022-02-11T14:07:18Z</time>
      </trkpt>
      <trkpt lat="49.90879" lon="2.37952">
        <ele>66.8</ele>
        <time>2022-02-11T14:07:19Z</time>
      </trkpt>
      <trkpt lat="49.9088" lon="2.37953">
        <ele>66.8</ele>
        <time>2022-02-11T14:07:20Z</time>
      </trkpt>
      <trkpt lat="49.9088" lon="2.37954">
        <ele>66.8</ele>
        <time>2022-02-11T14:07:21Z</time>
      </trkpt>
      <trkpt lat="49.90881" lon="2.37955">
        <ele>66.7</ele>
        <time>2022-02-11T14:07:22Z</time>
      </trkpt>
      <trkpt lat="49.90881" lon="2.37955">
        <ele>66.7</ele>
        <time>2022-02-11T14:07:24Z</time>
      </trkpt>
      <trkpt lat="49.90882" lon="2.37956">
        <ele>66.7</ele>
        <time>2022-02-11T14:07:25Z</time>
      </trkpt>
      <trkpt lat="49.90883" lon="2.37956">
        <ele>66.7</ele>
        <time>2022-02-11T14:07:26Z</time>
      </trkpt>
      <trkpt lat="49.90883" lon="2.37957">
        <ele>66.6</ele>
        <time>2022-02-11T14:07:27Z</time>
      </trkpt>
      <trkpt lat="49.90884" lon="2.37958">
        <ele>66.6</ele>
        <time>2022-02-11T14:07:28Z</time>
      </trkpt>
      <trkpt lat="49.90884" lon="2.37959">
        <ele>66.6</ele>
        <time>2022-02-11T14:07:29Z</time>
      </trkpt>
      <trkpt lat="49.90884" lon="2.37959">
        <ele>66.6</ele>
        <time>2022-02-11T14:07:30Z</time>
      </trkpt>
      <trkpt lat="49.90884" lon="2.37959">
        <ele>66.6</ele>
        <time>2022-02-11T14:07:31Z</time>
      </trkpt>
      <trkpt lat="49.90883" lon="2.37959">
        <ele>66.6</ele>
        <time>2022-02-11T14:07:32Z</time>
      </trkpt>
      <trkpt lat="49.90883" lon="2.3796">
        <ele>66.6</ele>
        <time>2022-02-11T14:07:33Z</time>
      </trkpt>
      <trkpt lat="49.90883" lon="2.3796">
        <ele>66.6</ele>
        <time>2022-02-11T14:07:35Z</time>
      </trkpt>
      <trkpt lat="49.90882" lon="2.37961">
        <ele>66.6</ele>
        <time>2022-02-11T14:07:36Z</time>
      </trkpt>
      <trkpt lat="49.90883" lon="2.37962">
        <ele>66.6</ele>
        <time>2022-02-11T14:07:37Z</time>
      </trkpt>
      <trkpt lat="49.90883" lon="2.37963">
        <ele>66.6</ele>
        <time>2022-02-11T14:07:38Z</time>
      </trkpt>
      <trkpt lat="49.90883" lon="2.37965">
        <ele>66.6</ele>
        <time>2022-02-11T14:07:40Z</time>
      </trkpt>
      <trkpt lat="49.90884" lon="2.37966">
        <ele>66.6</ele>
        <time>2022-02-11T14:07:41Z</time>
      </trkpt>
      <trkpt lat="49.90884" lon="2.37967">
        <ele>66.6</ele>
        <time>2022-02-11T14:07:42Z</time>
      </trkpt>
      <trkpt lat="49.90885" lon="2.37968">
        <ele>66.6</ele>
        <time>2022-02-11T14:07:43Z</time>
      </trkpt>
      <trkpt lat="49.90885" lon="2.37969">
        <ele>66.6</ele>
        <time>2022-02-11T14:07:44Z</time>
      </trkpt>
      <trkpt lat="49.90886" lon="2.3797">
        <ele>66.6</ele>
        <time>2022-02-11T14:07:45Z</time>
      </trkpt>
      <trkpt lat="49.90886" lon="2.37971">
        <ele>66.6</ele>
        <time>2022-02-11T14:07:46Z</time>
      </trkpt>
      <trkpt lat="49.90887" lon="2.37971">
        <ele>66.6</ele>
        <time>2022-02-11T14:07:48Z</time>
      </trkpt>
      <trkpt lat="49.90888" lon="2.37972">
        <ele>66.6</ele>
        <time>2022-02-11T14:07:49Z</time>
      </trkpt>
      <trkpt lat="49.90889" lon="2.37973">
        <ele>66.7</ele>
        <time>2022-02-11T14:07:50Z</time>
      </trkpt>
      <trkpt lat="49.90889" lon="2.37974">
        <ele>66.7</ele>
        <time>2022-02-11T14:07:51Z</time>
      </trkpt>
      <trkpt lat="49.9089" lon="2.37976">
        <ele>66.7</ele>
        <time>2022-02-11T14:07:52Z</time>
      </trkpt>
      <trkpt lat="49.90891" lon="2.37977">
        <ele>66.8</ele>
        <time>2022-02-11T14:07:53Z</time>
      </trkpt>
      <trkpt lat="49.90891" lon="2.37978">
        <ele>66.8</ele>
        <time>2022-02-11T14:07:55Z</time>
      </trkpt>
      <trkpt lat="49.90892" lon="2.37979">
        <ele>66.8</ele>
        <time>2022-02-11T14:07:56Z</time>
      </trkpt>
      <trkpt lat="49.90893" lon="2.37978">
        <ele>66.9</ele>
        <time>2022-02-11T14:07:57Z</time>
      </trkpt>
      <trkpt lat="49.90893" lon="2.37977">
        <ele>66.9</ele>
        <time>2022-02-11T14:07:58Z</time>
      </trkpt>
      <trkpt lat="49.90893" lon="2.37977">
        <ele>66.9</ele>
        <time>2022-02-11T14:07:59Z</time>
      </trkpt>
      <trkpt lat="49.90894" lon="2.37978">
        <ele>66.9</ele>
        <time>2022-02-11T14:08:01Z</time>
      </trkpt>
      <trkpt lat="49.90894" lon="2.37979">
        <ele>67</ele>
        <time>2022-02-11T14:08:02Z</time>
      </trkpt>
      <trkpt lat="49.90895" lon="2.37981">
        <ele>67</ele>
        <time>2022-02-11T14:08:03Z</time>
      </trkpt>
      <trkpt lat="49.90896" lon="2.37982">
        <ele>67</ele>
        <time>2022-02-11T14:08:04Z</time>
      </trkpt>
      <trkpt lat="49.90896" lon="2.37983">
        <ele>67.1</ele>
        <time>2022-02-11T14:08:05Z</time>
      </trkpt>
      <trkpt lat="49.90897" lon="2.37985">
        <ele>67.1</ele>
        <time>2022-02-11T14:08:06Z</time>
      </trkpt>
      <trkpt lat="49.90898" lon="2.37987">
        <ele>67.1</ele>
        <time>2022-02-11T14:08:08Z</time>
      </trkpt>
      <trkpt lat="49.90898" lon="2.37989">
        <ele>67.2</ele>
        <time>2022-02-11T14:08:09Z</time>
      </trkpt>
      <trkpt lat="49.90898" lon="2.37991">
        <ele>67.2</ele>
        <time>2022-02-11T14:08:10Z</time>
      </trkpt>
      <trkpt lat="49.90898" lon="2.37993">
        <ele>67.2</ele>
        <time>2022-02-11T14:08:11Z</time>
      </trkpt>
      <trkpt lat="49.90899" lon="2.37995">
        <ele>67.2</ele>
        <time>2022-02-11T14:08:12Z</time>
      </trkpt>
      <trkpt lat="49.909" lon="2.37996">
        <ele>67.3</ele>
        <time>2022-02-11T14:08:14Z</time>
      </trkpt>
      <trkpt lat="49.909" lon="2.37995">
        <ele>67.3</ele>
        <time>2022-02-11T14:08:15Z</time>
      </trkpt>
      <trkpt lat="49.909" lon="2.37995">
        <ele>67.3</ele>
        <time>2022-02-11T14:08:16Z</time>
      </trkpt>
      <trkpt lat="49.909" lon="2.37994">
        <ele>67.3</ele>
        <time>2022-02-11T14:08:17Z</time>
      </trkpt>
      <trkpt lat="49.909" lon="2.37993">
        <ele>67.3</ele>
        <time>2022-02-11T14:08:18Z</time>
      </trkpt>
      <trkpt lat="49.909" lon="2.37992">
        <ele>67.3</ele>
        <time>2022-02-11T14:08:19Z</time>
      </trkpt>
      <trkpt lat="49.909" lon="2.37992">
        <ele>67.3</ele>
        <time>2022-02-11T14:08:20Z</time>
      </trkpt>
      <trkpt lat="49.90899" lon="2.37992">
        <ele>67.3</ele>
        <time>2022-02-11T14:08:21Z</time>
      </trkpt>
      <trkpt lat="49.90899" lon="2.37992">
        <ele>67.3</ele>
        <time>2022-02-11T14:08:22Z</time>
      </trkpt>
      <trkpt lat="49.90899" lon="2.37992">
        <ele>67.3</ele>
        <time>2022-02-11T14:08:23Z</time>
      </trkpt>
      <trkpt lat="49.90899" lon="2.37992">
        <ele>67.3</ele>
        <time>2022-02-11T14:08:24Z</time>
      </trkpt>
      <trkpt lat="49.90899" lon="2.37992">
        <ele>67.3</ele>
        <time>2022-02-11T14:08:25Z</time>
      </trkpt>
      <trkpt lat="49.90899" lon="2.37992">
        <ele>67.3</ele>
        <time>2022-02-11T14:08:26Z</time>
      </trkpt>
      <trkpt lat="49.90899" lon="2.37992">
        <ele>67.3</ele>
        <time>2022-02-11T14:08:27Z</time>
      </trkpt>
      <trkpt lat="49.90899" lon="2.37992">
        <ele>67.3</ele>
        <time>2022-02-11T14:08:28Z</time>
      </trkpt>
      <trkpt lat="49.90899" lon="2.37992">
        <ele>67.3</ele>
        <time>2022-02-11T14:08:29Z</time>
      </trkpt>
      <trkpt lat="49.90899" lon="2.37992">
        <ele>67.3</ele>
        <time>2022-02-11T14:08:30Z</time>
      </trkpt>
      <trkpt lat="49.90899" lon="2.37992">
        <ele>67.3</ele>
        <time>2022-02-11T14:08:31Z</time>
      </trkpt>
      <trkpt lat="49.90899" lon="2.37992">
        <ele>67.3</ele>
        <time>2022-02-11T14:08:32Z</time>
      </trkpt>
      <trkpt lat="49.90899" lon="2.37992">
        <ele>67.3</ele>
        <time>2022-02-11T14:08:33Z</time>
      </trkpt>
      <trkpt lat="49.90899" lon="2.37992">
        <ele>67.3</ele>
        <time>2022-02-11T14:08:34Z</time>
      </trkpt>
      <trkpt lat="49.90899" lon="2.37992">
        <ele>67.3</ele>
        <time>2022-02-11T14:08:35Z</time>
      </trkpt>
      <trkpt lat="49.90899" lon="2.37992">
        <ele>67.3</ele>
        <time>2022-02-11T14:08:36Z</time>
      </trkpt>
      <trkpt lat="49.90899" lon="2.37992">
        <ele>67.3</ele>
        <time>2022-02-11T14:08:37Z</time>
      </trkpt>
      <trkpt lat="49.90899" lon="2.37992">
        <ele>67.3</ele>
        <time>2022-02-11T14:08:38Z</time>
      </trkpt>
      <trkpt lat="49.90899" lon="2.37992">
        <ele>67.3</ele>
        <time>2022-02-11T14:08:39Z</time>
      </trkpt>
      <trkpt lat="49.90899" lon="2.37992">
        <ele>67.3</ele>
        <time>2022-02-11T14:08:40Z</time>
      </trkpt>
      <trkpt lat="49.90899" lon="2.37992">
        <ele>67.3</ele>
        <time>2022-02-11T14:08:41Z</time>
      </trkpt>
      <trkpt lat="49.90899" lon="2.37992">
        <ele>67.3</ele>
        <time>2022-02-11T14:08:42Z</time>
      </trkpt>
      <trkpt lat="49.90899" lon="2.37992">
        <ele>67.3</ele>
        <time>2022-02-11T14:08:43Z</time>
      </trkpt>
      <trkpt lat="49.90899" lon="2.37992">
        <ele>67.3</ele>
        <time>2022-02-11T14:08:44Z</time>
      </trkpt>
      <trkpt lat="49.90899" lon="2.37992">
        <ele>67.3</ele>
        <time>2022-02-11T14:08:45Z</time>
      </trkpt>
      <trkpt lat="49.90899" lon="2.37992">
        <ele>67.3</ele>
        <time>2022-02-11T14:08:46Z</time>
      </trkpt>
      <trkpt lat="49.90899" lon="2.37992">
        <ele>67.3</ele>
        <time>2022-02-11T14:08:47Z</time>
      </trkpt>
      <trkpt lat="49.90899" lon="2.37992">
        <ele>67.3</ele>
        <time>2022-02-11T14:08:48Z</time>
      </trkpt>
      <trkpt lat="49.90899" lon="2.37992">
        <ele>67.3</ele>
        <time>2022-02-11T14:08:49Z</time>
      </trkpt>
      <trkpt lat="49.90899" lon="2.37993">
        <ele>67.3</ele>
        <time>2022-02-11T14:08:50Z</time>
      </trkpt>
      <trkpt lat="49.90898" lon="2.37994">
        <ele>67.3</ele>
        <time>2022-02-11T14:08:51Z</time>
      </trkpt>
      <trkpt lat="49.90899" lon="2.37994">
        <ele>67.3</ele>
        <time>2022-02-11T14:08:52Z</time>
      </trkpt>
      <trkpt lat="49.90899" lon="2.37995">
        <ele>67.3</ele>
        <time>2022-02-11T14:08:53Z</time>
      </trkpt>
      <trkpt lat="49.90898" lon="2.37996">
        <ele>67.4</ele>
        <time>2022-02-11T14:08:54Z</time>
      </trkpt>
      <trkpt lat="49.90897" lon="2.37996">
        <ele>67.4</ele>
        <time>2022-02-11T14:08:55Z</time>
      </trkpt>
      <trkpt lat="49.90897" lon="2.37996">
        <ele>67.4</ele>
        <time>2022-02-11T14:08:56Z</time>
      </trkpt>
      <trkpt lat="49.90897" lon="2.37997">
        <ele>67.4</ele>
        <time>2022-02-11T14:08:57Z</time>
      </trkpt>
      <trkpt lat="49.90897" lon="2.37997">
        <ele>67.4</ele>
        <time>2022-02-11T14:08:58Z</time>
      </trkpt>
      <trkpt lat="49.90897" lon="2.37997">
        <ele>67.4</ele>
        <time>2022-02-11T14:08:59Z</time>
      </trkpt>
      <trkpt lat="49.90897" lon="2.37997">
        <ele>67.4</ele>
        <time>2022-02-11T14:09:00Z</time>
      </trkpt>
      <trkpt lat="49.90897" lon="2.37997">
        <ele>67.4</ele>
        <time>2022-02-11T14:09:01Z</time>
      </trkpt>
      <trkpt lat="49.90897" lon="2.37997">
        <ele>67.4</ele>
        <time>2022-02-11T14:09:02Z</time>
      </trkpt>
      <trkpt lat="49.90897" lon="2.37997">
        <ele>67.4</ele>
        <time>2022-02-11T14:09:03Z</time>
      </trkpt>
      <trkpt lat="49.90897" lon="2.37997">
        <ele>67.4</ele>
        <time>2022-02-11T14:09:04Z</time>
      </trkpt>
      <trkpt lat="49.90897" lon="2.37998">
        <ele>67.4</ele>
        <time>2022-02-11T14:09:05Z</time>
      </trkpt>
      <trkpt lat="49.90897" lon="2.37998">
        <ele>67.4</ele>
        <time>2022-02-11T14:09:06Z</time>
      </trkpt>
      <trkpt lat="49.90897" lon="2.37998">
        <ele>67.4</ele>
        <time>2022-02-11T14:09:07Z</time>
      </trkpt>
      <trkpt lat="49.90897" lon="2.37998">
        <ele>67.4</ele>
        <time>2022-02-11T14:09:08Z</time>
      </trkpt>
      <trkpt lat="49.90897" lon="2.37998">
        <ele>67.4</ele>
        <time>2022-02-11T14:09:09Z</time>
      </trkpt>
      <trkpt lat="49.90897" lon="2.37998">
        <ele>67.4</ele>
        <time>2022-02-11T14:09:10Z</time>
      </trkpt>
      <trkpt lat="49.90897" lon="2.37998">
        <ele>67.4</ele>
        <time>2022-02-11T14:09:11Z</time>
      </trkpt>
      <trkpt lat="49.90897" lon="2.37998">
        <ele>67.4</ele>
        <time>2022-02-11T14:09:12Z</time>
      </trkpt>
      <trkpt lat="49.90897" lon="2.37998">
        <ele>67.4</ele>
        <time>2022-02-11T14:09:13Z</time>
      </trkpt>
      <trkpt lat="49.90897" lon="2.37998">
        <ele>67.4</ele>
        <time>2022-02-11T14:09:14Z</time>
      </trkpt>
      <trkpt lat="49.90897" lon="2.37998">
        <ele>67.4</ele>
        <time>2022-02-11T14:09:15Z</time>
      </trkpt>
      <trkpt lat="49.90897" lon="2.37998">
        <ele>67.4</ele>
        <time>2022-02-11T14:09:16Z</time>
      </trkpt>
      <trkpt lat="49.90897" lon="2.37998">
        <ele>67.4</ele>
        <time>2022-02-11T14:09:17Z</time>
      </trkpt>
      <trkpt lat="49.90897" lon="2.37998">
        <ele>67.4</ele>
        <time>2022-02-11T14:09:18Z</time>
      </trkpt>
      <trkpt lat="49.90897" lon="2.37998">
        <ele>67.4</ele>
        <time>2022-02-11T14:09:19Z</time>
      </trkpt>
      <trkpt lat="49.90897" lon="2.37998">
        <ele>67.4</ele>
        <time>2022-02-11T14:09:20Z</time>
      </trkpt>
      <trkpt lat="49.90897" lon="2.37998">
        <ele>67.4</ele>
        <time>2022-02-11T14:09:21Z</time>
      </trkpt>
      <trkpt lat="49.90897" lon="2.37998">
        <ele>67.4</ele>
        <time>2022-02-11T14:09:22Z</time>
      </trkpt>
      <trkpt lat="49.90897" lon="2.37998">
        <ele>67.4</ele>
        <time>2022-02-11T14:09:23Z</time>
      </trkpt>
      <trkpt lat="49.90897" lon="2.37998">
        <ele>67.4</ele>
        <time>2022-02-11T14:09:24Z</time>
      </trkpt>
      <trkpt lat="49.90897" lon="2.37998">
        <ele>67.4</ele>
        <time>2022-02-11T14:09:25Z</time>
      </trkpt>
      <trkpt lat="49.90897" lon="2.37998">
        <ele>67.4</ele>
        <time>2022-02-11T14:09:26Z</time>
      </trkpt>
      <trkpt lat="49.90897" lon="2.37998">
        <ele>67.4</ele>
        <time>2022-02-11T14:09:27Z</time>
      </trkpt>
      <trkpt lat="49.90897" lon="2.37998">
        <ele>67.4</ele>
        <time>2022-02-11T14:09:28Z</time>
      </trkpt>
      <trkpt lat="49.90897" lon="2.37998">
        <ele>67.4</ele>
        <time>2022-02-11T14:09:29Z</time>
      </trkpt>
      <trkpt lat="49.90897" lon="2.37998">
        <ele>67.4</ele>
        <time>2022-02-11T14:09:30Z</time>
      </trkpt>
      <trkpt lat="49.90897" lon="2.37998">
        <ele>67.4</ele>
        <time>2022-02-11T14:09:31Z</time>
      </trkpt>
      <trkpt lat="49.90897" lon="2.37998">
        <ele>67.4</ele>
        <time>2022-02-11T14:09:32Z</time>
      </trkpt>
      <trkpt lat="49.90897" lon="2.37998">
        <ele>67.4</ele>
        <time>2022-02-11T14:09:33Z</time>
      </trkpt>
      <trkpt lat="49.90897" lon="2.37998">
        <ele>67.4</ele>
        <time>2022-02-11T14:09:34Z</time>
      </trkpt>
      <trkpt lat="49.90897" lon="2.37998">
        <ele>67.4</ele>
        <time>2022-02-11T14:09:35Z</time>
      </trkpt>
      <trkpt lat="49.90897" lon="2.37998">
        <ele>67.4</ele>
        <time>2022-02-11T14:09:36Z</time>
      </trkpt>
      <trkpt lat="49.90897" lon="2.37998">
        <ele>67.4</ele>
        <time>2022-02-11T14:09:37Z</time>
      </trkpt>
      <trkpt lat="49.90897" lon="2.37998">
        <ele>67.4</ele>
        <time>2022-02-11T14:09:38Z</time>
      </trkpt>
      <trkpt lat="49.90897" lon="2.37998">
        <ele>67.4</ele>
        <time>2022-02-11T14:09:39Z</time>
      </trkpt>
      <trkpt lat="49.90898" lon="2.37998">
        <ele>67.4</ele>
        <time>2022-02-11T14:09:40Z</time>
      </trkpt>
      <trkpt lat="49.90898" lon="2.37998">
        <ele>67.4</ele>
        <time>2022-02-11T14:09:41Z</time>
      </trkpt>
      <trkpt lat="49.90898" lon="2.37998">
        <ele>67.4</ele>
        <time>2022-02-11T14:09:42Z</time>
      </trkpt>
      <trkpt lat="49.90898" lon="2.37997">
        <ele>67.4</ele>
        <time>2022-02-11T14:09:43Z</time>
      </trkpt>
      <trkpt lat="49.90898" lon="2.37997">
        <ele>67.4</ele>
        <time>2022-02-11T14:09:44Z</time>
      </trkpt>
      <trkpt lat="49.90898" lon="2.37997">
        <ele>67.4</ele>
        <time>2022-02-11T14:09:45Z</time>
      </trkpt>
      <trkpt lat="49.90898" lon="2.37997">
        <ele>67.4</ele>
        <time>2022-02-11T14:09:46Z</time>
      </trkpt>
      <trkpt lat="49.90898" lon="2.37997">
        <ele>67.4</ele>
        <time>2022-02-11T14:09:47Z</time>
      </trkpt>
      <trkpt lat="49.90898" lon="2.37997">
        <ele>67.4</ele>
        <time>2022-02-11T14:09:48Z</time>
      </trkpt>
      <trkpt lat="49.90898" lon="2.37997">
        <ele>67.4</ele>
        <time>2022-02-11T14:09:49Z</time>
      </trkpt>
      <trkpt lat="49.90898" lon="2.37997">
        <ele>67.4</ele>
        <time>2022-02-11T14:09:50Z</time>
      </trkpt>
      <trkpt lat="49.90898" lon="2.37997">
        <ele>67.4</ele>
        <time>2022-02-11T14:09:51Z</time>
      </trkpt>
      <trkpt lat="49.90898" lon="2.37997">
        <ele>67.4</ele>
        <time>2022-02-11T14:09:52Z</time>
      </trkpt>
      <trkpt lat="49.90898" lon="2.37997">
        <ele>67.4</ele>
        <time>2022-02-11T14:09:53Z</time>
      </trkpt>
      <trkpt lat="49.90898" lon="2.37997">
        <ele>67.4</ele>
        <time>2022-02-11T14:09:54Z</time>
      </trkpt>
      <trkpt lat="49.90898" lon="2.37997">
        <ele>67.4</ele>
        <time>2022-02-11T14:09:55Z</time>
      </trkpt>
      <trkpt lat="49.90898" lon="2.37997">
        <ele>67.4</ele>
        <time>2022-02-11T14:09:56Z</time>
      </trkpt>
      <trkpt lat="49.90898" lon="2.37997">
        <ele>67.4</ele>
        <time>2022-02-11T14:09:57Z</time>
      </trkpt>
      <trkpt lat="49.90898" lon="2.37997">
        <ele>67.4</ele>
        <time>2022-02-11T14:09:58Z</time>
      </trkpt>
      <trkpt lat="49.90898" lon="2.37997">
        <ele>67.4</ele>
        <time>2022-02-11T14:09:59Z</time>
      </trkpt>
      <trkpt lat="49.90898" lon="2.37997">
        <ele>67.4</ele>
        <time>2022-02-11T14:10:00Z</time>
      </trkpt>
      <trkpt lat="49.90898" lon="2.37997">
        <ele>67.4</ele>
        <time>2022-02-11T14:10:01Z</time>
      </trkpt>
      <trkpt lat="49.90898" lon="2.37997">
        <ele>67.4</ele>
        <time>2022-02-11T14:10:02Z</time>
      </trkpt>
      <trkpt lat="49.90898" lon="2.37997">
        <ele>67.4</ele>
        <time>2022-02-11T14:10:03Z</time>
      </trkpt>
      <trkpt lat="49.90898" lon="2.37997">
        <ele>67.4</ele>
        <time>2022-02-11T14:10:04Z</time>
      </trkpt>
      <trkpt lat="49.90898" lon="2.37997">
        <ele>67.4</ele>
        <time>2022-02-11T14:10:05Z</time>
      </trkpt>
      <trkpt lat="49.90898" lon="2.37997">
        <ele>67.4</ele>
        <time>2022-02-11T14:10:06Z</time>
      </trkpt>
      <trkpt lat="49.90898" lon="2.37997">
        <ele>67.4</ele>
        <time>2022-02-11T14:10:07Z</time>
      </trkpt>
      <trkpt lat="49.90898" lon="2.37997">
        <ele>67.4</ele>
        <time>2022-02-11T14:10:08Z</time>
      </trkpt>
      <trkpt lat="49.90898" lon="2.37997">
        <ele>67.4</ele>
        <time>2022-02-11T14:10:09Z</time>
      </trkpt>
      <trkpt lat="49.90898" lon="2.37997">
        <ele>67.4</ele>
        <time>2022-02-11T14:10:10Z</time>
      </trkpt>
      <trkpt lat="49.90898" lon="2.37997">
        <ele>67.4</ele>
        <time>2022-02-11T14:10:11Z</time>
      </trkpt>
      <trkpt lat="49.90898" lon="2.37997">
        <ele>67.4</ele>
        <time>2022-02-11T14:10:12Z</time>
      </trkpt>
      <trkpt lat="49.90898" lon="2.37997">
        <ele>67.4</ele>
        <time>2022-02-11T14:10:13Z</time>
      </trkpt>
      <trkpt lat="49.90898" lon="2.37997">
        <ele>67.4</ele>
        <time>2022-02-11T14:10:14Z</time>
      </trkpt>
      <trkpt lat="49.90898" lon="2.37997">
        <ele>67.4</ele>
        <time>2022-02-11T14:10:15Z</time>
      </trkpt>
      <trkpt lat="49.90898" lon="2.37997">
        <ele>67.4</ele>
        <time>2022-02-11T14:10:16Z</time>
      </trkpt>
      <trkpt lat="49.90898" lon="2.37997">
        <ele>67.4</ele>
        <time>2022-02-11T14:10:17Z</time>
      </trkpt>
      <trkpt lat="49.90898" lon="2.37997">
        <ele>67.4</ele>
        <time>2022-02-11T14:10:18Z</time>
      </trkpt>
      <trkpt lat="49.90898" lon="2.37997">
        <ele>67.4</ele>
        <time>2022-02-11T14:10:19Z</time>
      </trkpt>
      <trkpt lat="49.90898" lon="2.37997">
        <ele>67.4</ele>
        <time>2022-02-11T14:10:20Z</time>
      </trkpt>
      <trkpt lat="49.90899" lon="2.37997">
        <ele>67.4</ele>
        <time>2022-02-11T14:10:21Z</time>
      </trkpt>
      <trkpt lat="49.90899" lon="2.37997">
        <ele>67.4</ele>
        <time>2022-02-11T14:10:22Z</time>
      </trkpt>
      <trkpt lat="49.90899" lon="2.37997">
        <ele>67.4</ele>
        <time>2022-02-11T14:10:23Z</time>
      </trkpt>
      <trkpt lat="49.90899" lon="2.37997">
        <ele>67.4</ele>
        <time>2022-02-11T14:10:24Z</time>
      </trkpt>
      <trkpt lat="49.90899" lon="2.37997">
        <ele>67.4</ele>
        <time>2022-02-11T14:10:25Z</time>
      </trkpt>
      <trkpt lat="49.90899" lon="2.37997">
        <ele>67.4</ele>
        <time>2022-02-11T14:10:26Z</time>
      </trkpt>
      <trkpt lat="49.90899" lon="2.37997">
        <ele>67.4</ele>
        <time>2022-02-11T14:10:27Z</time>
      </trkpt>
      <trkpt lat="49.90899" lon="2.37997">
        <ele>67.4</ele>
        <time>2022-02-11T14:10:28Z</time>
      </trkpt>
      <trkpt lat="49.90899" lon="2.37997">
        <ele>67.4</ele>
        <time>2022-02-11T14:10:29Z</time>
      </trkpt>
      <trkpt lat="49.90899" lon="2.37997">
        <ele>67.4</ele>
        <time>2022-02-11T14:10:30Z</time>
      </trkpt>
      <trkpt lat="49.90899" lon="2.37997">
        <ele>67.4</ele>
        <time>2022-02-11T14:10:31Z</time>
      </trkpt>
      <trkpt lat="49.90899" lon="2.37997">
        <ele>67.4</ele>
        <time>2022-02-11T14:10:32Z</time>
      </trkpt>
      <trkpt lat="49.90899" lon="2.37997">
        <ele>67.4</ele>
        <time>2022-02-11T14:10:33Z</time>
      </trkpt>
      <trkpt lat="49.90899" lon="2.37997">
        <ele>67.4</ele>
        <time>2022-02-11T14:10:34Z</time>
      </trkpt>
      <trkpt lat="49.90899" lon="2.37997">
        <ele>67.4</ele>
        <time>2022-02-11T14:10:35Z</time>
      </trkpt>
      <trkpt lat="49.90899" lon="2.37997">
        <ele>67.4</ele>
        <time>2022-02-11T14:10:36Z</time>
      </trkpt>
      <trkpt lat="49.90899" lon="2.37997">
        <ele>67.4</ele>
        <time>2022-02-11T14:10:37Z</time>
      </trkpt>
      <trkpt lat="49.90899" lon="2.37997">
        <ele>67.4</ele>
        <time>2022-02-11T14:10:38Z</time>
      </trkpt>
      <trkpt lat="49.90899" lon="2.37997">
        <ele>67.4</ele>
        <time>2022-02-11T14:10:39Z</time>
      </trkpt>
      <trkpt lat="49.90899" lon="2.37997">
        <ele>67.4</ele>
        <time>2022-02-11T14:10:40Z</time>
      </trkpt>
      <trkpt lat="49.90899" lon="2.37997">
        <ele>67.4</ele>
        <time>2022-02-11T14:10:41Z</time>
      </trkpt>
      <trkpt lat="49.90899" lon="2.37997">
        <ele>67.4</ele>
        <time>2022-02-11T14:10:42Z</time>
      </trkpt>
      <trkpt lat="49.90899" lon="2.37997">
        <ele>67.4</ele>
        <time>2022-02-11T14:10:43Z</time>
      </trkpt>
      <trkpt lat="49.90899" lon="2.37997">
        <ele>67.4</ele>
        <time>2022-02-11T14:10:44Z</time>
      </trkpt>
      <trkpt lat="49.90899" lon="2.37997">
        <ele>67.4</ele>
        <time>2022-02-11T14:10:45Z</time>
      </trkpt>
      <trkpt lat="49.90899" lon="2.37997">
        <ele>67.4</ele>
        <time>2022-02-11T14:10:46Z</time>
      </trkpt>
      <trkpt lat="49.90899" lon="2.37997">
        <ele>67.4</ele>
        <time>2022-02-11T14:10:47Z</time>
      </trkpt>
      <trkpt lat="49.90899" lon="2.37997">
        <ele>67.4</ele>
        <time>2022-02-11T14:10:48Z</time>
      </trkpt>
      <trkpt lat="49.90899" lon="2.37997">
        <ele>67.4</ele>
        <time>2022-02-11T14:10:49Z</time>
      </trkpt>
      <trkpt lat="49.90899" lon="2.37997">
        <ele>67.4</ele>
        <time>2022-02-11T14:10:50Z</time>
      </trkpt>
      <trkpt lat="49.90899" lon="2.37997">
        <ele>67.4</ele>
        <time>2022-02-11T14:10:51Z</time>
      </trkpt>
      <trkpt lat="49.90899" lon="2.37997">
        <ele>67.4</ele>
        <time>2022-02-11T14:10:52Z</time>
      </trkpt>
      <trkpt lat="49.90899" lon="2.37997">
        <ele>67.4</ele>
        <time>2022-02-11T14:10:53Z</time>
      </trkpt>
      <trkpt lat="49.90899" lon="2.37997">
        <ele>67.4</ele>
        <time>2022-02-11T14:10:54Z</time>
      </trkpt>
      <trkpt lat="49.90899" lon="2.37997">
        <ele>67.4</ele>
        <time>2022-02-11T14:10:55Z</time>
      </trkpt>
      <trkpt lat="49.90899" lon="2.37997">
        <ele>67.4</ele>
        <time>2022-02-11T14:10:56Z</time>
      </trkpt>
      <trkpt lat="49.90899" lon="2.37997">
        <ele>67.4</ele>
        <time>2022-02-11T14:10:57Z</time>
      </trkpt>
      <trkpt lat="49.90899" lon="2.37997">
        <ele>67.4</ele>
        <time>2022-02-11T14:10:58Z</time>
      </trkpt>
      <trkpt lat="49.90899" lon="2.37997">
        <ele>67.4</ele>
        <time>2022-02-11T14:10:59Z</time>
      </trkpt>
      <trkpt lat="49.90899" lon="2.37997">
        <ele>67.4</ele>
        <time>2022-02-11T14:11:00Z</time>
      </trkpt>
      <trkpt lat="49.90899" lon="2.37997">
        <ele>67.4</ele>
        <time>2022-02-11T14:11:01Z</time>
      </trkpt>
      <trkpt lat="49.909" lon="2.37997">
        <ele>67.4</ele>
        <time>2022-02-11T14:11:02Z</time>
      </trkpt>
      <trkpt lat="49.909" lon="2.37997">
        <ele>67.4</ele>
        <time>2022-02-11T14:11:03Z</time>
      </trkpt>
      <trkpt lat="49.909" lon="2.37997">
        <ele>67.4</ele>
        <time>2022-02-11T14:11:04Z</time>
      </trkpt>
      <trkpt lat="49.909" lon="2.37997">
        <ele>67.4</ele>
        <time>2022-02-11T14:11:05Z</time>
      </trkpt>
      <trkpt lat="49.909" lon="2.37997">
        <ele>67.4</ele>
        <time>2022-02-11T14:11:06Z</time>
      </trkpt>
      <trkpt lat="49.909" lon="2.37997">
        <ele>67.4</ele>
        <time>2022-02-11T14:11:07Z</time>
      </trkpt>
      <trkpt lat="49.909" lon="2.37997">
        <ele>67.4</ele>
        <time>2022-02-11T14:11:08Z</time>
      </trkpt>
      <trkpt lat="49.909" lon="2.37997">
        <ele>67.4</ele>
        <time>2022-02-11T14:11:09Z</time>
      </trkpt>
      <trkpt lat="49.909" lon="2.37997">
        <ele>67.4</ele>
        <time>2022-02-11T14:11:10Z</time>
      </trkpt>
      <trkpt lat="49.909" lon="2.37997">
        <ele>67.4</ele>
        <time>2022-02-11T14:11:11Z</time>
      </trkpt>
      <trkpt lat="49.909" lon="2.37997">
        <ele>67.4</ele>
        <time>2022-02-11T14:11:12Z</time>
      </trkpt>
      <trkpt lat="49.909" lon="2.37997">
        <ele>67.4</ele>
        <time>2022-02-11T14:11:13Z</time>
      </trkpt>
      <trkpt lat="49.909" lon="2.37997">
        <ele>67.4</ele>
        <time>2022-02-11T14:11:14Z</time>
      </trkpt>
      <trkpt lat="49.909" lon="2.37997">
        <ele>67.4</ele>
        <time>2022-02-11T14:11:15Z</time>
      </trkpt>
      <trkpt lat="49.909" lon="2.37997">
        <ele>67.4</ele>
        <time>2022-02-11T14:11:16Z</time>
      </trkpt>
      <trkpt lat="49.909" lon="2.37997">
        <ele>67.4</ele>
        <time>2022-02-11T14:11:17Z</time>
      </trkpt>
      <trkpt lat="49.909" lon="2.37997">
        <ele>67.4</ele>
        <time>2022-02-11T14:11:18Z</time>
      </trkpt>
      <trkpt lat="49.909" lon="2.37997">
        <ele>67.4</ele>
        <time>2022-02-11T14:11:19Z</time>
      </trkpt>
      <trkpt lat="49.909" lon="2.37997">
        <ele>67.4</ele>
        <time>2022-02-11T14:11:20Z</time>
      </trkpt>
      <trkpt lat="49.909" lon="2.37997">
        <ele>67.4</ele>
        <time>2022-02-11T14:11:21Z</time>
      </trkpt>
      <trkpt lat="49.909" lon="2.37997">
        <ele>67.4</ele>
        <time>2022-02-11T14:11:22Z</time>
      </trkpt>
      <trkpt lat="49.909" lon="2.37997">
        <ele>67.4</ele>
        <time>2022-02-11T14:11:23Z</time>
      </trkpt>
      <trkpt lat="49.909" lon="2.37997">
        <ele>67.4</ele>
        <time>2022-02-11T14:11:24Z</time>
      </trkpt>
      <trkpt lat="49.909" lon="2.37997">
        <ele>67.4</ele>
        <time>2022-02-11T14:11:25Z</time>
      </trkpt>
      <trkpt lat="49.909" lon="2.37997">
        <ele>67.4</ele>
        <time>2022-02-11T14:11:26Z</time>
      </trkpt>
      <trkpt lat="49.909" lon="2.37997">
        <ele>67.4</ele>
        <time>2022-02-11T14:11:27Z</time>
      </trkpt>
      <trkpt lat="49.909" lon="2.37997">
        <ele>67.4</ele>
        <time>2022-02-11T14:11:28Z</time>
      </trkpt>
      <trkpt lat="49.909" lon="2.37997">
        <ele>67.4</ele>
        <time>2022-02-11T14:11:29Z</time>
      </trkpt>
      <trkpt lat="49.909" lon="2.37997">
        <ele>67.4</ele>
        <time>2022-02-11T14:11:30Z</time>
      </trkpt>
      <trkpt lat="49.909" lon="2.37997">
        <ele>67.4</ele>
        <time>2022-02-11T14:11:31Z</time>
      </trkpt>
      <trkpt lat="49.909" lon="2.37997">
        <ele>67.4</ele>
        <time>2022-02-11T14:11:32Z</time>
      </trkpt>
      <trkpt lat="49.909" lon="2.37997">
        <ele>67.4</ele>
        <time>2022-02-11T14:11:33Z</time>
      </trkpt>
      <trkpt lat="49.909" lon="2.37997">
        <ele>67.4</ele>
        <time>2022-02-11T14:11:34Z</time>
      </trkpt>
      <trkpt lat="49.909" lon="2.37997">
        <ele>67.4</ele>
        <time>2022-02-11T14:11:35Z</time>
      </trkpt>
      <trkpt lat="49.909" lon="2.37997">
        <ele>67.4</ele>
        <time>2022-02-11T14:11:36Z</time>
      </trkpt>
      <trkpt lat="49.90901" lon="2.37997">
        <ele>67.4</ele>
        <time>2022-02-11T14:11:37Z</time>
      </trkpt>
      <trkpt lat="49.90901" lon="2.37997">
        <ele>67.4</ele>
        <time>2022-02-11T14:11:38Z</time>
      </trkpt>
      <trkpt lat="49.90902" lon="2.37997">
        <ele>67.4</ele>
        <time>2022-02-11T14:11:39Z</time>
      </trkpt>
      <trkpt lat="49.90901" lon="2.37997">
        <ele>67.4</ele>
        <time>2022-02-11T14:11:41Z</time>
      </trkpt>
      <trkpt lat="49.90901" lon="2.37997">
        <ele>67.4</ele>
        <time>2022-02-11T14:11:42Z</time>
      </trkpt>
      <trkpt lat="49.90901" lon="2.37997">
        <ele>67.4</ele>
        <time>2022-02-11T14:11:43Z</time>
      </trkpt>
      <trkpt lat="49.90901" lon="2.37997">
        <ele>67.4</ele>
        <time>2022-02-11T14:11:44Z</time>
      </trkpt>
      <trkpt lat="49.90901" lon="2.37997">
        <ele>67.4</ele>
        <time>2022-02-11T14:11:45Z</time>
      </trkpt>
      <trkpt lat="49.90901" lon="2.37997">
        <ele>67.4</ele>
        <time>2022-02-11T14:11:46Z</time>
      </trkpt>
      <trkpt lat="49.90901" lon="2.37997">
        <ele>67.4</ele>
        <time>2022-02-11T14:11:47Z</time>
      </trkpt>
      <trkpt lat="49.90901" lon="2.37997">
        <ele>67.4</ele>
        <time>2022-02-11T14:11:48Z</time>
      </trkpt>
      <trkpt lat="49.90901" lon="2.37997">
        <ele>67.4</ele>
        <time>2022-02-11T14:11:49Z</time>
      </trkpt>
      <trkpt lat="49.90901" lon="2.37997">
        <ele>67.4</ele>
        <time>2022-02-11T14:11:51Z</time>
      </trkpt>
      <trkpt lat="49.90901" lon="2.37997">
        <ele>67.4</ele>
        <time>2022-02-11T14:11:52Z</time>
      </trkpt>
      <trkpt lat="49.90901" lon="2.37997">
        <ele>67.4</ele>
        <time>2022-02-11T14:11:53Z</time>
      </trkpt>
      <trkpt lat="49.90901" lon="2.37997">
        <ele>67.4</ele>
        <time>2022-02-11T14:11:54Z</time>
      </trkpt>
      <trkpt lat="49.90901" lon="2.37997">
        <ele>67.4</ele>
        <time>2022-02-11T14:11:55Z</time>
      </trkpt>
      <trkpt lat="49.90901" lon="2.37996">
        <ele>67.4</ele>
        <time>2022-02-11T14:11:56Z</time>
      </trkpt>
      <trkpt lat="49.909" lon="2.37996">
        <ele>67.4</ele>
        <time>2022-02-11T14:11:57Z</time>
      </trkpt>
      <trkpt lat="49.909" lon="2.37997">
        <ele>67.4</ele>
        <time>2022-02-11T14:11:58Z</time>
      </trkpt>
      <trkpt lat="49.90899" lon="2.37997">
        <ele>67.4</ele>
        <time>2022-02-11T14:11:59Z</time>
      </trkpt>
      <trkpt lat="49.90899" lon="2.37997">
        <ele>67.4</ele>
        <time>2022-02-11T14:12:00Z</time>
      </trkpt>
      <trkpt lat="49.90899" lon="2.37997">
        <ele>67.4</ele>
        <time>2022-02-11T14:12:01Z</time>
      </trkpt>
      <trkpt lat="49.90898" lon="2.37997">
        <ele>67.3</ele>
        <time>2022-02-11T14:12:02Z</time>
      </trkpt>
      <trkpt lat="49.90898" lon="2.37997">
        <ele>67.3</ele>
        <time>2022-02-11T14:12:03Z</time>
      </trkpt>
      <trkpt lat="49.90898" lon="2.37997">
        <ele>67.3</ele>
        <time>2022-02-11T14:12:04Z</time>
      </trkpt>
      <trkpt lat="49.90897" lon="2.37997">
        <ele>67.3</ele>
        <time>2022-02-11T14:12:05Z</time>
      </trkpt>
      <trkpt lat="49.90897" lon="2.37997">
        <ele>67.3</ele>
        <time>2022-02-11T14:12:06Z</time>
      </trkpt>
      <trkpt lat="49.90897" lon="2.37997">
        <ele>67.3</ele>
        <time>2022-02-11T14:12:07Z</time>
      </trkpt>
      <trkpt lat="49.90897" lon="2.37997">
        <ele>67.3</ele>
        <time>2022-02-11T14:12:08Z</time>
      </trkpt>
      <trkpt lat="49.90897" lon="2.37997">
        <ele>67.3</ele>
        <time>2022-02-11T14:12:09Z</time>
      </trkpt>
      <trkpt lat="49.90897" lon="2.37997">
        <ele>67.3</ele>
        <time>2022-02-11T14:12:10Z</time>
      </trkpt>
      <trkpt lat="49.90897" lon="2.37997">
        <ele>67.3</ele>
        <time>2022-02-11T14:12:11Z</time>
      </trkpt>
      <trkpt lat="49.90897" lon="2.37997">
        <ele>67.3</ele>
        <time>2022-02-11T14:12:12Z</time>
      </trkpt>
      <trkpt lat="49.90897" lon="2.37998">
        <ele>67.3</ele>
        <time>2022-02-11T14:12:13Z</time>
      </trkpt>
      <trkpt lat="49.90896" lon="2.37998">
        <ele>67.3</ele>
        <time>2022-02-11T14:12:14Z</time>
      </trkpt>
      <trkpt lat="49.90896" lon="2.37998">
        <ele>67.3</ele>
        <time>2022-02-11T14:12:15Z</time>
      </trkpt>
      <trkpt lat="49.90896" lon="2.37998">
        <ele>67.3</ele>
        <time>2022-02-11T14:12:16Z</time>
      </trkpt>
      <trkpt lat="49.90896" lon="2.37998">
        <ele>67.3</ele>
        <time>2022-02-11T14:12:17Z</time>
      </trkpt>
      <trkpt lat="49.90896" lon="2.37998">
        <ele>67.3</ele>
        <time>2022-02-11T14:12:18Z</time>
      </trkpt>
      <trkpt lat="49.90896" lon="2.37998">
        <ele>67.3</ele>
        <time>2022-02-11T14:12:19Z</time>
      </trkpt>
      <trkpt lat="49.90896" lon="2.37998">
        <ele>67.3</ele>
        <time>2022-02-11T14:12:20Z</time>
      </trkpt>
      <trkpt lat="49.90896" lon="2.37998">
        <ele>67.3</ele>
        <time>2022-02-11T14:12:21Z</time>
      </trkpt>
      <trkpt lat="49.90896" lon="2.37998">
        <ele>67.3</ele>
        <time>2022-02-11T14:12:22Z</time>
      </trkpt>
      <trkpt lat="49.90896" lon="2.37998">
        <ele>67.3</ele>
        <time>2022-02-11T14:12:23Z</time>
      </trkpt>
      <trkpt lat="49.90896" lon="2.37998">
        <ele>67.3</ele>
        <time>2022-02-11T14:12:24Z</time>
      </trkpt>
      <trkpt lat="49.90896" lon="2.37998">
        <ele>67.3</ele>
        <time>2022-02-11T14:12:25Z</time>
      </trkpt>
      <trkpt lat="49.90896" lon="2.37998">
        <ele>67.3</ele>
        <time>2022-02-11T14:12:26Z</time>
      </trkpt>
      <trkpt lat="49.90896" lon="2.37998">
        <ele>67.3</ele>
        <time>2022-02-11T14:12:27Z</time>
      </trkpt>
      <trkpt lat="49.90896" lon="2.37998">
        <ele>67.3</ele>
        <time>2022-02-11T14:12:28Z</time>
      </trkpt>
      <trkpt lat="49.90896" lon="2.37998">
        <ele>67.3</ele>
        <time>2022-02-11T14:12:29Z</time>
      </trkpt>
      <trkpt lat="49.90896" lon="2.37998">
        <ele>67.3</ele>
        <time>2022-02-11T14:12:30Z</time>
      </trkpt>
      <trkpt lat="49.90896" lon="2.37998">
        <ele>67.3</ele>
        <time>2022-02-11T14:12:31Z</time>
      </trkpt>
      <trkpt lat="49.90896" lon="2.37998">
        <ele>67.3</ele>
        <time>2022-02-11T14:12:32Z</time>
      </trkpt>
      <trkpt lat="49.90896" lon="2.37998">
        <ele>67.3</ele>
        <time>2022-02-11T14:12:33Z</time>
      </trkpt>
      <trkpt lat="49.90896" lon="2.37998">
        <ele>67.3</ele>
        <time>2022-02-11T14:12:34Z</time>
      </trkpt>
      <trkpt lat="49.90896" lon="2.37998">
        <ele>67.3</ele>
        <time>2022-02-11T14:12:35Z</time>
      </trkpt>
      <trkpt lat="49.90896" lon="2.37998">
        <ele>67.3</ele>
        <time>2022-02-11T14:12:36Z</time>
      </trkpt>
      <trkpt lat="49.90896" lon="2.37998">
        <ele>67.3</ele>
        <time>2022-02-11T14:12:37Z</time>
      </trkpt>
      <trkpt lat="49.90896" lon="2.37998">
        <ele>67.3</ele>
        <time>2022-02-11T14:12:38Z</time>
      </trkpt>
      <trkpt lat="49.90896" lon="2.37998">
        <ele>67.3</ele>
        <time>2022-02-11T14:12:39Z</time>
      </trkpt>
      <trkpt lat="49.90896" lon="2.37998">
        <ele>67.3</ele>
        <time>2022-02-11T14:12:40Z</time>
      </trkpt>
      <trkpt lat="49.90896" lon="2.37998">
        <ele>67.3</ele>
        <time>2022-02-11T14:12:41Z</time>
      </trkpt>
      <trkpt lat="49.90896" lon="2.37998">
        <ele>67.3</ele>
        <time>2022-02-11T14:12:42Z</time>
      </trkpt>
      <trkpt lat="49.90896" lon="2.37998">
        <ele>67.3</ele>
        <time>2022-02-11T14:12:43Z</time>
      </trkpt>
      <trkpt lat="49.90896" lon="2.37998">
        <ele>67.3</ele>
        <time>2022-02-11T14:12:44Z</time>
      </trkpt>
      <trkpt lat="49.90896" lon="2.37998">
        <ele>67.3</ele>
        <time>2022-02-11T14:12:45Z</time>
      </trkpt>
      <trkpt lat="49.90896" lon="2.37998">
        <ele>67.3</ele>
        <time>2022-02-11T14:12:46Z</time>
      </trkpt>
      <trkpt lat="49.90896" lon="2.37998">
        <ele>67.3</ele>
        <time>2022-02-11T14:12:47Z</time>
      </trkpt>
      <trkpt lat="49.90896" lon="2.37998">
        <ele>67.3</ele>
        <time>2022-02-11T14:12:48Z</time>
      </trkpt>
      <trkpt lat="49.90896" lon="2.37998">
        <ele>67.3</ele>
        <time>2022-02-11T14:12:49Z</time>
      </trkpt>
      <trkpt lat="49.90896" lon="2.37998">
        <ele>67.3</ele>
        <time>2022-02-11T14:12:50Z</time>
      </trkpt>
      <trkpt lat="49.90896" lon="2.37998">
        <ele>67.3</ele>
        <time>2022-02-11T14:12:51Z</time>
      </trkpt>
      <trkpt lat="49.90896" lon="2.37998">
        <ele>67.3</ele>
        <time>2022-02-11T14:12:52Z</time>
      </trkpt>
      <trkpt lat="49.90896" lon="2.37998">
        <ele>67.3</ele>
        <time>2022-02-11T14:12:53Z</time>
      </trkpt>
      <trkpt lat="49.90896" lon="2.37998">
        <ele>67.3</ele>
        <time>2022-02-11T14:12:54Z</time>
      </trkpt>
      <trkpt lat="49.90896" lon="2.37998">
        <ele>67.3</ele>
        <time>2022-02-11T14:12:55Z</time>
      </trkpt>
      <trkpt lat="49.90896" lon="2.37998">
        <ele>67.3</ele>
        <time>2022-02-11T14:12:56Z</time>
      </trkpt>
      <trkpt lat="49.90896" lon="2.37998">
        <ele>67.3</ele>
        <time>2022-02-11T14:12:57Z</time>
      </trkpt>
      <trkpt lat="49.90896" lon="2.37998">
        <ele>67.3</ele>
        <time>2022-02-11T14:12:58Z</time>
      </trkpt>
      <trkpt lat="49.90896" lon="2.37998">
        <ele>67.3</ele>
        <time>2022-02-11T14:12:59Z</time>
      </trkpt>
      <trkpt lat="49.90895" lon="2.37999">
        <ele>67.3</ele>
        <time>2022-02-11T14:13:00Z</time>
      </trkpt>
      <trkpt lat="49.90896" lon="2.38">
        <ele>67.3</ele>
        <time>2022-02-11T14:13:01Z</time>
      </trkpt>
      <trkpt lat="49.90897" lon="2.38">
        <ele>67.3</ele>
        <time>2022-02-11T14:13:02Z</time>
      </trkpt>
      <trkpt lat="49.90898" lon="2.38">
        <ele>67.3</ele>
        <time>2022-02-11T14:13:04Z</time>
      </trkpt>
      <trkpt lat="49.90898" lon="2.38001">
        <ele>67.2</ele>
        <time>2022-02-11T14:13:05Z</time>
      </trkpt>
      <trkpt lat="49.90899" lon="2.38003">
        <ele>67.2</ele>
        <time>2022-02-11T14:13:06Z</time>
      </trkpt>
      <trkpt lat="49.909" lon="2.38004">
        <ele>67.2</ele>
        <time>2022-02-11T14:13:07Z</time>
      </trkpt>
      <trkpt lat="49.90902" lon="2.38007">
        <ele>67.2</ele>
        <time>2022-02-11T14:13:08Z</time>
      </trkpt>
      <trkpt lat="49.90902" lon="2.38007">
        <ele>67.2</ele>
        <time>2022-02-11T14:13:10Z</time>
      </trkpt>
      <trkpt lat="49.90903" lon="2.38008">
        <ele>67.2</ele>
        <time>2022-02-11T14:13:11Z</time>
      </trkpt>
      <trkpt lat="49.90904" lon="2.38009">
        <ele>67.2</ele>
        <time>2022-02-11T14:13:12Z</time>
      </trkpt>
      <trkpt lat="49.90905" lon="2.3801">
        <ele>67.2</ele>
        <time>2022-02-11T14:13:13Z</time>
      </trkpt>
      <trkpt lat="49.90906" lon="2.38011">
        <ele>67.2</ele>
        <time>2022-02-11T14:13:14Z</time>
      </trkpt>
      <trkpt lat="49.90906" lon="2.38012">
        <ele>67.2</ele>
        <time>2022-02-11T14:13:15Z</time>
      </trkpt>
      <trkpt lat="49.90907" lon="2.38013">
        <ele>67.2</ele>
        <time>2022-02-11T14:13:16Z</time>
      </trkpt>
      <trkpt lat="49.90907" lon="2.38014">
        <ele>67.2</ele>
        <time>2022-02-11T14:13:17Z</time>
      </trkpt>
      <trkpt lat="49.90908" lon="2.38016">
        <ele>67.2</ele>
        <time>2022-02-11T14:13:18Z</time>
      </trkpt>
      <trkpt lat="49.90908" lon="2.38017">
        <ele>67.2</ele>
        <time>2022-02-11T14:13:19Z</time>
      </trkpt>
      <trkpt lat="49.90909" lon="2.38018">
        <ele>67.2</ele>
        <time>2022-02-11T14:13:20Z</time>
      </trkpt>
      <trkpt lat="49.9091" lon="2.38021">
        <ele>67.2</ele>
        <time>2022-02-11T14:13:22Z</time>
      </trkpt>
      <trkpt lat="49.90911" lon="2.38022">
        <ele>67.2</ele>
        <time>2022-02-11T14:13:23Z</time>
      </trkpt>
      <trkpt lat="49.90912" lon="2.38023">
        <ele>67.2</ele>
        <time>2022-02-11T14:13:24Z</time>
      </trkpt>
      <trkpt lat="49.90913" lon="2.38025">
        <ele>67.2</ele>
        <time>2022-02-11T14:13:25Z</time>
      </trkpt>
      <trkpt lat="49.90914" lon="2.38026">
        <ele>67.2</ele>
        <time>2022-02-11T14:13:26Z</time>
      </trkpt>
      <trkpt lat="49.90914" lon="2.38027">
        <ele>67.2</ele>
        <time>2022-02-11T14:13:27Z</time>
      </trkpt>
      <trkpt lat="49.90915" lon="2.38028">
        <ele>67.3</ele>
        <time>2022-02-11T14:13:29Z</time>
      </trkpt>
      <trkpt lat="49.90916" lon="2.3803">
        <ele>67.3</ele>
        <time>2022-02-11T14:13:30Z</time>
      </trkpt>
      <trkpt lat="49.90918" lon="2.38031">
        <ele>67.3</ele>
        <time>2022-02-11T14:13:31Z</time>
      </trkpt>
      <trkpt lat="49.90918" lon="2.38032">
        <ele>67.3</ele>
        <time>2022-02-11T14:13:32Z</time>
      </trkpt>
      <trkpt lat="49.90918" lon="2.38031">
        <ele>67.3</ele>
        <time>2022-02-11T14:13:33Z</time>
      </trkpt>
      <trkpt lat="49.90919" lon="2.38031">
        <ele>67.3</ele>
        <time>2022-02-11T14:13:34Z</time>
      </trkpt>
      <trkpt lat="49.90919" lon="2.38032">
        <ele>67.3</ele>
        <time>2022-02-11T14:13:35Z</time>
      </trkpt>
      <trkpt lat="49.90921" lon="2.38034">
        <ele>67.3</ele>
        <time>2022-02-11T14:13:36Z</time>
      </trkpt>
      <trkpt lat="49.90922" lon="2.38035">
        <ele>67.3</ele>
        <time>2022-02-11T14:13:38Z</time>
      </trkpt>
      <trkpt lat="49.90922" lon="2.38036">
        <ele>67.3</ele>
        <time>2022-02-11T14:13:39Z</time>
      </trkpt>
      <trkpt lat="49.90923" lon="2.38038">
        <ele>67.3</ele>
        <time>2022-02-11T14:13:40Z</time>
      </trkpt>
      <trkpt lat="49.90924" lon="2.38039">
        <ele>67.3</ele>
        <time>2022-02-11T14:13:41Z</time>
      </trkpt>
      <trkpt lat="49.90925" lon="2.38041">
        <ele>67.3</ele>
        <time>2022-02-11T14:13:43Z</time>
      </trkpt>
      <trkpt lat="49.90925" lon="2.38044">
        <ele>67.3</ele>
        <time>2022-02-11T14:13:44Z</time>
      </trkpt>
      <trkpt lat="49.90926" lon="2.38045">
        <ele>67.3</ele>
        <time>2022-02-11T14:13:45Z</time>
      </trkpt>
      <trkpt lat="49.90926" lon="2.38046">
        <ele>67.2</ele>
        <time>2022-02-11T14:13:46Z</time>
      </trkpt>
      <trkpt lat="49.90927" lon="2.38048">
        <ele>67.2</ele>
        <time>2022-02-11T14:13:47Z</time>
      </trkpt>
      <trkpt lat="49.90928" lon="2.3805">
        <ele>67.2</ele>
        <time>2022-02-11T14:13:48Z</time>
      </trkpt>
      <trkpt lat="49.90929" lon="2.38052">
        <ele>67.2</ele>
        <time>2022-02-11T14:13:49Z</time>
      </trkpt>
      <trkpt lat="49.90929" lon="2.38054">
        <ele>67.2</ele>
        <time>2022-02-11T14:13:51Z</time>
      </trkpt>
      <trkpt lat="49.9093" lon="2.38055">
        <ele>67.2</ele>
        <time>2022-02-11T14:13:52Z</time>
      </trkpt>
      <trkpt lat="49.90931" lon="2.38056">
        <ele>67.2</ele>
        <time>2022-02-11T14:13:53Z</time>
      </trkpt>
      <trkpt lat="49.90931" lon="2.38058">
        <ele>67.2</ele>
        <time>2022-02-11T14:13:54Z</time>
      </trkpt>
      <trkpt lat="49.90932" lon="2.38059">
        <ele>67.2</ele>
        <time>2022-02-11T14:13:55Z</time>
      </trkpt>
      <trkpt lat="49.90932" lon="2.38061">
        <ele>67.2</ele>
        <time>2022-02-11T14:13:57Z</time>
      </trkpt>
      <trkpt lat="49.90933" lon="2.38062">
        <ele>67.2</ele>
        <time>2022-02-11T14:13:58Z</time>
      </trkpt>
      <trkpt lat="49.90933" lon="2.38064">
        <ele>67.2</ele>
        <time>2022-02-11T14:13:59Z</time>
      </trkpt>
      <trkpt lat="49.90933" lon="2.38066">
        <ele>67.2</ele>
        <time>2022-02-11T14:14:00Z</time>
      </trkpt>
      <trkpt lat="49.90933" lon="2.38067">
        <ele>67.2</ele>
        <time>2022-02-11T14:14:01Z</time>
      </trkpt>
      <trkpt lat="49.90933" lon="2.38069">
        <ele>67.2</ele>
        <time>2022-02-11T14:14:02Z</time>
      </trkpt>
      <trkpt lat="49.90933" lon="2.3807">
        <ele>67.2</ele>
        <time>2022-02-11T14:14:03Z</time>
      </trkpt>
      <trkpt lat="49.90933" lon="2.38071">
        <ele>67.2</ele>
        <time>2022-02-11T14:14:04Z</time>
      </trkpt>
      <trkpt lat="49.90934" lon="2.38073">
        <ele>67.2</ele>
        <time>2022-02-11T14:14:05Z</time>
      </trkpt>
      <trkpt lat="49.90935" lon="2.38076">
        <ele>67.2</ele>
        <time>2022-02-11T14:14:07Z</time>
      </trkpt>
      <trkpt lat="49.90935" lon="2.38077">
        <ele>67.2</ele>
        <time>2022-02-11T14:14:08Z</time>
      </trkpt>
      <trkpt lat="49.90935" lon="2.38078">
        <ele>67.2</ele>
        <time>2022-02-11T14:14:09Z</time>
      </trkpt>
      <trkpt lat="49.90936" lon="2.3808">
        <ele>67.2</ele>
        <time>2022-02-11T14:14:10Z</time>
      </trkpt>
      <trkpt lat="49.90936" lon="2.38081">
        <ele>67.2</ele>
        <time>2022-02-11T14:14:11Z</time>
      </trkpt>
      <trkpt lat="49.90937" lon="2.38082">
        <ele>67.2</ele>
        <time>2022-02-11T14:14:12Z</time>
      </trkpt>
      <trkpt lat="49.90937" lon="2.38084">
        <ele>67.2</ele>
        <time>2022-02-11T14:14:13Z</time>
      </trkpt>
      <trkpt lat="49.90938" lon="2.38085">
        <ele>67.3</ele>
        <time>2022-02-11T14:14:14Z</time>
      </trkpt>
      <trkpt lat="49.90939" lon="2.38086">
        <ele>67.3</ele>
        <time>2022-02-11T14:14:15Z</time>
      </trkpt>
      <trkpt lat="49.9094" lon="2.38089">
        <ele>67.3</ele>
        <time>2022-02-11T14:14:16Z</time>
      </trkpt>
      <trkpt lat="49.90941" lon="2.3809">
        <ele>67.3</ele>
        <time>2022-02-11T14:14:18Z</time>
      </trkpt>
      <trkpt lat="49.90942" lon="2.38091">
        <ele>67.3</ele>
        <time>2022-02-11T14:14:19Z</time>
      </trkpt>
      <trkpt lat="49.90942" lon="2.38092">
        <ele>67.3</ele>
        <time>2022-02-11T14:14:20Z</time>
      </trkpt>
      <trkpt lat="49.90943" lon="2.38093">
        <ele>67.3</ele>
        <time>2022-02-11T14:14:21Z</time>
      </trkpt>
      <trkpt lat="49.90944" lon="2.38094">
        <ele>67.3</ele>
        <time>2022-02-11T14:14:22Z</time>
      </trkpt>
      <trkpt lat="49.90945" lon="2.38095">
        <ele>67.3</ele>
        <time>2022-02-11T14:14:23Z</time>
      </trkpt>
      <trkpt lat="49.90945" lon="2.38096">
        <ele>67.3</ele>
        <time>2022-02-11T14:14:24Z</time>
      </trkpt>
      <trkpt lat="49.90947" lon="2.38097">
        <ele>67.3</ele>
        <time>2022-02-11T14:14:25Z</time>
      </trkpt>
      <trkpt lat="49.90947" lon="2.38099">
        <ele>67.3</ele>
        <time>2022-02-11T14:14:26Z</time>
      </trkpt>
      <trkpt lat="49.90948" lon="2.38101">
        <ele>67.3</ele>
        <time>2022-02-11T14:14:27Z</time>
      </trkpt>
      <trkpt lat="49.90949" lon="2.38103">
        <ele>67.3</ele>
        <time>2022-02-11T14:14:28Z</time>
      </trkpt>
      <trkpt lat="49.9095" lon="2.38105">
        <ele>67.3</ele>
        <time>2022-02-11T14:14:30Z</time>
      </trkpt>
      <trkpt lat="49.90951" lon="2.38107">
        <ele>67.3</ele>
        <time>2022-02-11T14:14:31Z</time>
      </trkpt>
      <trkpt lat="49.90952" lon="2.38108">
        <ele>67.3</ele>
        <time>2022-02-11T14:14:32Z</time>
      </trkpt>
      <trkpt lat="49.90953" lon="2.38111">
        <ele>67.2</ele>
        <time>2022-02-11T14:14:33Z</time>
      </trkpt>
      <trkpt lat="49.90954" lon="2.38112">
        <ele>67.2</ele>
        <time>2022-02-11T14:14:34Z</time>
      </trkpt>
      <trkpt lat="49.90954" lon="2.38113">
        <ele>67.2</ele>
        <time>2022-02-11T14:14:35Z</time>
      </trkpt>
      <trkpt lat="49.90955" lon="2.38114">
        <ele>67.2</ele>
        <time>2022-02-11T14:14:37Z</time>
      </trkpt>
      <trkpt lat="49.90956" lon="2.38116">
        <ele>67.2</ele>
        <time>2022-02-11T14:14:38Z</time>
      </trkpt>
      <trkpt lat="49.90958" lon="2.38118">
        <ele>67.2</ele>
        <time>2022-02-11T14:14:39Z</time>
      </trkpt>
      <trkpt lat="49.90958" lon="2.38119">
        <ele>67.2</ele>
        <time>2022-02-11T14:14:40Z</time>
      </trkpt>
      <trkpt lat="49.90958" lon="2.3812">
        <ele>67.2</ele>
        <time>2022-02-11T14:14:41Z</time>
      </trkpt>
      <trkpt lat="49.90959" lon="2.38121">
        <ele>67.2</ele>
        <time>2022-02-11T14:14:42Z</time>
      </trkpt>
      <trkpt lat="49.9096" lon="2.38122">
        <ele>67.2</ele>
        <time>2022-02-11T14:14:43Z</time>
      </trkpt>
      <trkpt lat="49.90962" lon="2.38123">
        <ele>67.2</ele>
        <time>2022-02-11T14:14:45Z</time>
      </trkpt>
      <trkpt lat="49.90962" lon="2.38124">
        <ele>67.2</ele>
        <time>2022-02-11T14:14:46Z</time>
      </trkpt>
      <trkpt lat="49.90963" lon="2.38125">
        <ele>67.2</ele>
        <time>2022-02-11T14:14:47Z</time>
      </trkpt>
      <trkpt lat="49.90965" lon="2.38127">
        <ele>67.2</ele>
        <time>2022-02-11T14:14:48Z</time>
      </trkpt>
      <trkpt lat="49.90965" lon="2.38127">
        <ele>67.2</ele>
        <time>2022-02-11T14:14:50Z</time>
      </trkpt>
      <trkpt lat="49.90966" lon="2.38128">
        <ele>67.2</ele>
        <time>2022-02-11T14:14:51Z</time>
      </trkpt>
      <trkpt lat="49.90967" lon="2.3813">
        <ele>67.2</ele>
        <time>2022-02-11T14:14:52Z</time>
      </trkpt>
      <trkpt lat="49.90968" lon="2.38131">
        <ele>67.2</ele>
        <time>2022-02-11T14:14:53Z</time>
      </trkpt>
      <trkpt lat="49.90968" lon="2.38132">
        <ele>67.2</ele>
        <time>2022-02-11T14:14:54Z</time>
      </trkpt>
      <trkpt lat="49.90969" lon="2.38133">
        <ele>67.2</ele>
        <time>2022-02-11T14:14:55Z</time>
      </trkpt>
      <trkpt lat="49.9097" lon="2.38134">
        <ele>67.2</ele>
        <time>2022-02-11T14:14:57Z</time>
      </trkpt>
      <trkpt lat="49.90971" lon="2.38136">
        <ele>67.2</ele>
        <time>2022-02-11T14:14:58Z</time>
      </trkpt>
      <trkpt lat="49.90971" lon="2.38137">
        <ele>67.2</ele>
        <time>2022-02-11T14:14:59Z</time>
      </trkpt>
      <trkpt lat="49.90972" lon="2.38138">
        <ele>67.2</ele>
        <time>2022-02-11T14:15:00Z</time>
      </trkpt>
      <trkpt lat="49.90973" lon="2.38139">
        <ele>67.2</ele>
        <time>2022-02-11T14:15:01Z</time>
      </trkpt>
      <trkpt lat="49.90973" lon="2.3814">
        <ele>67.2</ele>
        <time>2022-02-11T14:15:03Z</time>
      </trkpt>
      <trkpt lat="49.90974" lon="2.38141">
        <ele>67.2</ele>
        <time>2022-02-11T14:15:04Z</time>
      </trkpt>
      <trkpt lat="49.90975" lon="2.38143">
        <ele>67.2</ele>
        <time>2022-02-11T14:15:05Z</time>
      </trkpt>
      <trkpt lat="49.90975" lon="2.38144">
        <ele>67.2</ele>
        <time>2022-02-11T14:15:06Z</time>
      </trkpt>
      <trkpt lat="49.90976" lon="2.38145">
        <ele>67.2</ele>
        <time>2022-02-11T14:15:07Z</time>
      </trkpt>
      <trkpt lat="49.90977" lon="2.38147">
        <ele>67.2</ele>
        <time>2022-02-11T14:15:08Z</time>
      </trkpt>
      <trkpt lat="49.90978" lon="2.38149">
        <ele>67.2</ele>
        <time>2022-02-11T14:15:10Z</time>
      </trkpt>
      <trkpt lat="49.90979" lon="2.3815">
        <ele>67.2</ele>
        <time>2022-02-11T14:15:11Z</time>
      </trkpt>
      <trkpt lat="49.90979" lon="2.38151">
        <ele>67.2</ele>
        <time>2022-02-11T14:15:12Z</time>
      </trkpt>
      <trkpt lat="49.9098" lon="2.38153">
        <ele>67.2</ele>
        <time>2022-02-11T14:15:13Z</time>
      </trkpt>
      <trkpt lat="49.90981" lon="2.38154">
        <ele>67.2</ele>
        <time>2022-02-11T14:15:14Z</time>
      </trkpt>
      <trkpt lat="49.90981" lon="2.38155">
        <ele>67.2</ele>
        <time>2022-02-11T14:15:15Z</time>
      </trkpt>
      <trkpt lat="49.90982" lon="2.38157">
        <ele>67.2</ele>
        <time>2022-02-11T14:15:17Z</time>
      </trkpt>
      <trkpt lat="49.90982" lon="2.38158">
        <ele>67.2</ele>
        <time>2022-02-11T14:15:18Z</time>
      </trkpt>
      <trkpt lat="49.90983" lon="2.38159">
        <ele>67.2</ele>
        <time>2022-02-11T14:15:19Z</time>
      </trkpt>
      <trkpt lat="49.90984" lon="2.3816">
        <ele>67.2</ele>
        <time>2022-02-11T14:15:20Z</time>
      </trkpt>
      <trkpt lat="49.90985" lon="2.38161">
        <ele>67.2</ele>
        <time>2022-02-11T14:15:21Z</time>
      </trkpt>
      <trkpt lat="49.90985" lon="2.38162">
        <ele>67.1</ele>
        <time>2022-02-11T14:15:22Z</time>
      </trkpt>
      <trkpt lat="49.90986" lon="2.38163">
        <ele>67.1</ele>
        <time>2022-02-11T14:15:23Z</time>
      </trkpt>
      <trkpt lat="49.90986" lon="2.38163">
        <ele>67.1</ele>
        <time>2022-02-11T14:15:24Z</time>
      </trkpt>
      <trkpt lat="49.90987" lon="2.38164">
        <ele>67.1</ele>
        <time>2022-02-11T14:15:25Z</time>
      </trkpt>
      <trkpt lat="49.90987" lon="2.38165">
        <ele>67.1</ele>
        <time>2022-02-11T14:15:26Z</time>
      </trkpt>
      <trkpt lat="49.90988" lon="2.38166">
        <ele>67.1</ele>
        <time>2022-02-11T14:15:27Z</time>
      </trkpt>
      <trkpt lat="49.90989" lon="2.38167">
        <ele>67.1</ele>
        <time>2022-02-11T14:15:28Z</time>
      </trkpt>
      <trkpt lat="49.90989" lon="2.38168">
        <ele>67.1</ele>
        <time>2022-02-11T14:15:29Z</time>
      </trkpt>
      <trkpt lat="49.9099" lon="2.3817">
        <ele>67.1</ele>
        <time>2022-02-11T14:15:31Z</time>
      </trkpt>
      <trkpt lat="49.9099" lon="2.38171">
        <ele>67.1</ele>
        <time>2022-02-11T14:15:32Z</time>
      </trkpt>
      <trkpt lat="49.90991" lon="2.38173">
        <ele>67.1</ele>
        <time>2022-02-11T14:15:33Z</time>
      </trkpt>
      <trkpt lat="49.90992" lon="2.38174">
        <ele>67.1</ele>
        <time>2022-02-11T14:15:34Z</time>
      </trkpt>
      <trkpt lat="49.90993" lon="2.38177">
        <ele>67.1</ele>
        <time>2022-02-11T14:15:35Z</time>
      </trkpt>
      <trkpt lat="49.90993" lon="2.38178">
        <ele>67.1</ele>
        <time>2022-02-11T14:15:36Z</time>
      </trkpt>
      <trkpt lat="49.90994" lon="2.38179">
        <ele>67.1</ele>
        <time>2022-02-11T14:15:37Z</time>
      </trkpt>
      <trkpt lat="49.90995" lon="2.38181">
        <ele>67.1</ele>
        <time>2022-02-11T14:15:38Z</time>
      </trkpt>
      <trkpt lat="49.90996" lon="2.38182">
        <ele>67.1</ele>
        <time>2022-02-11T14:15:40Z</time>
      </trkpt>
      <trkpt lat="49.90996" lon="2.38183">
        <ele>67.1</ele>
        <time>2022-02-11T14:15:41Z</time>
      </trkpt>
      <trkpt lat="49.90997" lon="2.38184">
        <ele>67.1</ele>
        <time>2022-02-11T14:15:42Z</time>
      </trkpt>
      <trkpt lat="49.90998" lon="2.38185">
        <ele>67.1</ele>
        <time>2022-02-11T14:15:43Z</time>
      </trkpt>
      <trkpt lat="49.90999" lon="2.38187">
        <ele>67.1</ele>
        <time>2022-02-11T14:15:44Z</time>
      </trkpt>
      <trkpt lat="49.91" lon="2.38189">
        <ele>67.1</ele>
        <time>2022-02-11T14:15:45Z</time>
      </trkpt>
      <trkpt lat="49.91001" lon="2.3819">
        <ele>67.1</ele>
        <time>2022-02-11T14:15:46Z</time>
      </trkpt>
      <trkpt lat="49.91002" lon="2.3819">
        <ele>67.1</ele>
        <time>2022-02-11T14:15:47Z</time>
      </trkpt>
      <trkpt lat="49.91002" lon="2.38192">
        <ele>67</ele>
        <time>2022-02-11T14:15:48Z</time>
      </trkpt>
      <trkpt lat="49.91003" lon="2.38193">
        <ele>67</ele>
        <time>2022-02-11T14:15:49Z</time>
      </trkpt>
      <trkpt lat="49.91004" lon="2.38194">
        <ele>67</ele>
        <time>2022-02-11T14:15:51Z</time>
      </trkpt>
      <trkpt lat="49.91005" lon="2.38195">
        <ele>67</ele>
        <time>2022-02-11T14:15:52Z</time>
      </trkpt>
      <trkpt lat="49.91006" lon="2.38196">
        <ele>67</ele>
        <time>2022-02-11T14:15:53Z</time>
      </trkpt>
      <trkpt lat="49.91007" lon="2.38197">
        <ele>67</ele>
        <time>2022-02-11T14:15:54Z</time>
      </trkpt>
      <trkpt lat="49.91007" lon="2.38198">
        <ele>67</ele>
        <time>2022-02-11T14:15:55Z</time>
      </trkpt>
      <trkpt lat="49.91008" lon="2.382">
        <ele>67</ele>
        <time>2022-02-11T14:15:56Z</time>
      </trkpt>
      <trkpt lat="49.91009" lon="2.38201">
        <ele>67</ele>
        <time>2022-02-11T14:15:57Z</time>
      </trkpt>
      <trkpt lat="49.9101" lon="2.38204">
        <ele>67</ele>
        <time>2022-02-11T14:15:58Z</time>
      </trkpt>
      <trkpt lat="49.91011" lon="2.38205">
        <ele>67</ele>
        <time>2022-02-11T14:15:59Z</time>
      </trkpt>
      <trkpt lat="49.91012" lon="2.38206">
        <ele>67</ele>
        <time>2022-02-11T14:16:00Z</time>
      </trkpt>
      <trkpt lat="49.91013" lon="2.38208">
        <ele>67</ele>
        <time>2022-02-11T14:16:02Z</time>
      </trkpt>
      <trkpt lat="49.91014" lon="2.38209">
        <ele>67</ele>
        <time>2022-02-11T14:16:03Z</time>
      </trkpt>
      <trkpt lat="49.91014" lon="2.3821">
        <ele>67</ele>
        <time>2022-02-11T14:16:04Z</time>
      </trkpt>
      <trkpt lat="49.91016" lon="2.38213">
        <ele>67</ele>
        <time>2022-02-11T14:16:05Z</time>
      </trkpt>
      <trkpt lat="49.91016" lon="2.38214">
        <ele>67</ele>
        <time>2022-02-11T14:16:06Z</time>
      </trkpt>
      <trkpt lat="49.91017" lon="2.38215">
        <ele>67</ele>
        <time>2022-02-11T14:16:07Z</time>
      </trkpt>
      <trkpt lat="49.91018" lon="2.38217">
        <ele>67</ele>
        <time>2022-02-11T14:16:08Z</time>
      </trkpt>
      <trkpt lat="49.91019" lon="2.38218">
        <ele>67</ele>
        <time>2022-02-11T14:16:09Z</time>
      </trkpt>
      <trkpt lat="49.91019" lon="2.38219">
        <ele>67</ele>
        <time>2022-02-11T14:16:10Z</time>
      </trkpt>
      <trkpt lat="49.91021" lon="2.38221">
        <ele>67</ele>
        <time>2022-02-11T14:16:12Z</time>
      </trkpt>
      <trkpt lat="49.91022" lon="2.38222">
        <ele>67</ele>
        <time>2022-02-11T14:16:13Z</time>
      </trkpt>
      <trkpt lat="49.91023" lon="2.38224">
        <ele>67</ele>
        <time>2022-02-11T14:16:14Z</time>
      </trkpt>
      <trkpt lat="49.91024" lon="2.38225">
        <ele>67</ele>
        <time>2022-02-11T14:16:15Z</time>
      </trkpt>
      <trkpt lat="49.91025" lon="2.38227">
        <ele>67</ele>
        <time>2022-02-11T14:16:16Z</time>
      </trkpt>
      <trkpt lat="49.91026" lon="2.38228">
        <ele>67</ele>
        <time>2022-02-11T14:16:17Z</time>
      </trkpt>
      <trkpt lat="49.91027" lon="2.3823">
        <ele>67</ele>
        <time>2022-02-11T14:16:18Z</time>
      </trkpt>
      <trkpt lat="49.91028" lon="2.38231">
        <ele>67</ele>
        <time>2022-02-11T14:16:19Z</time>
      </trkpt>
      <trkpt lat="49.91029" lon="2.38233">
        <ele>67</ele>
        <time>2022-02-11T14:16:20Z</time>
      </trkpt>
      <trkpt lat="49.9103" lon="2.38234">
        <ele>67</ele>
        <time>2022-02-11T14:16:22Z</time>
      </trkpt>
      <trkpt lat="49.91031" lon="2.38236">
        <ele>67</ele>
        <time>2022-02-11T14:16:23Z</time>
      </trkpt>
      <trkpt lat="49.91033" lon="2.38237">
        <ele>67</ele>
        <time>2022-02-11T14:16:24Z</time>
      </trkpt>
      <trkpt lat="49.91034" lon="2.38238">
        <ele>67</ele>
        <time>2022-02-11T14:16:25Z</time>
      </trkpt>
      <trkpt lat="49.91035" lon="2.3824">
        <ele>67</ele>
        <time>2022-02-11T14:16:26Z</time>
      </trkpt>
      <trkpt lat="49.91036" lon="2.38241">
        <ele>67</ele>
        <time>2022-02-11T14:16:27Z</time>
      </trkpt>
      <trkpt lat="49.91036" lon="2.38242">
        <ele>67</ele>
        <time>2022-02-11T14:16:28Z</time>
      </trkpt>
      <trkpt lat="49.91037" lon="2.38243">
        <ele>67</ele>
        <time>2022-02-11T14:16:29Z</time>
      </trkpt>
      <trkpt lat="49.91038" lon="2.38244">
        <ele>67</ele>
        <time>2022-02-11T14:16:30Z</time>
      </trkpt>
      <trkpt lat="49.91038" lon="2.38245">
        <ele>67</ele>
        <time>2022-02-11T14:16:31Z</time>
      </trkpt>
      <trkpt lat="49.91039" lon="2.38246">
        <ele>67</ele>
        <time>2022-02-11T14:16:32Z</time>
      </trkpt>
      <trkpt lat="49.9104" lon="2.38247">
        <ele>67</ele>
        <time>2022-02-11T14:16:33Z</time>
      </trkpt>
      <trkpt lat="49.91041" lon="2.38249">
        <ele>67.1</ele>
        <time>2022-02-11T14:16:35Z</time>
      </trkpt>
      <trkpt lat="49.91042" lon="2.38251">
        <ele>67.1</ele>
        <time>2022-02-11T14:16:36Z</time>
      </trkpt>
      <trkpt lat="49.91043" lon="2.38252">
        <ele>67.1</ele>
        <time>2022-02-11T14:16:37Z</time>
      </trkpt>
      <trkpt lat="49.91043" lon="2.38253">
        <ele>67.1</ele>
        <time>2022-02-11T14:16:38Z</time>
      </trkpt>
      <trkpt lat="49.91044" lon="2.38254">
        <ele>67.1</ele>
        <time>2022-02-11T14:16:39Z</time>
      </trkpt>
      <trkpt lat="49.91045" lon="2.38256">
        <ele>67.1</ele>
        <time>2022-02-11T14:16:41Z</time>
      </trkpt>
      <trkpt lat="49.91046" lon="2.38257">
        <ele>67.1</ele>
        <time>2022-02-11T14:16:42Z</time>
      </trkpt>
      <trkpt lat="49.91046" lon="2.38258">
        <ele>67.1</ele>
        <time>2022-02-11T14:16:43Z</time>
      </trkpt>
      <trkpt lat="49.91047" lon="2.38259">
        <ele>67.1</ele>
        <time>2022-02-11T14:16:44Z</time>
      </trkpt>
      <trkpt lat="49.91048" lon="2.38261">
        <ele>67.1</ele>
        <time>2022-02-11T14:16:45Z</time>
      </trkpt>
      <trkpt lat="49.91048" lon="2.38262">
        <ele>67.2</ele>
        <time>2022-02-11T14:16:46Z</time>
      </trkpt>
      <trkpt lat="49.91049" lon="2.38263">
        <ele>67.2</ele>
        <time>2022-02-11T14:16:48Z</time>
      </trkpt>
      <trkpt lat="49.91049" lon="2.38264">
        <ele>67.2</ele>
        <time>2022-02-11T14:16:49Z</time>
      </trkpt>
      <trkpt lat="49.9105" lon="2.38266">
        <ele>67.2</ele>
        <time>2022-02-11T14:16:50Z</time>
      </trkpt>
      <trkpt lat="49.9105" lon="2.38267">
        <ele>67.2</ele>
        <time>2022-02-11T14:16:51Z</time>
      </trkpt>
      <trkpt lat="49.91051" lon="2.38268">
        <ele>67.2</ele>
        <time>2022-02-11T14:16:52Z</time>
      </trkpt>
      <trkpt lat="49.91052" lon="2.38269">
        <ele>67.2</ele>
        <time>2022-02-11T14:16:53Z</time>
      </trkpt>
      <trkpt lat="49.91052" lon="2.3827">
        <ele>67.2</ele>
        <time>2022-02-11T14:16:54Z</time>
      </trkpt>
      <trkpt lat="49.91053" lon="2.38271">
        <ele>67.2</ele>
        <time>2022-02-11T14:16:55Z</time>
      </trkpt>
      <trkpt lat="49.91053" lon="2.38273">
        <ele>67.2</ele>
        <time>2022-02-11T14:16:56Z</time>
      </trkpt>
      <trkpt lat="49.91054" lon="2.38274">
        <ele>67.2</ele>
        <time>2022-02-11T14:16:58Z</time>
      </trkpt>
      <trkpt lat="49.91054" lon="2.38275">
        <ele>67.2</ele>
        <time>2022-02-11T14:16:59Z</time>
      </trkpt>
      <trkpt lat="49.91055" lon="2.38277">
        <ele>67.2</ele>
        <time>2022-02-11T14:17:00Z</time>
      </trkpt>
      <trkpt lat="49.91055" lon="2.38278">
        <ele>67.2</ele>
        <time>2022-02-11T14:17:01Z</time>
      </trkpt>
      <trkpt lat="49.91056" lon="2.38279">
        <ele>67.2</ele>
        <time>2022-02-11T14:17:02Z</time>
      </trkpt>
      <trkpt lat="49.91056" lon="2.38281">
        <ele>67.2</ele>
        <time>2022-02-11T14:17:03Z</time>
      </trkpt>
      <trkpt lat="49.91057" lon="2.38282">
        <ele>67.2</ele>
        <time>2022-02-11T14:17:04Z</time>
      </trkpt>
      <trkpt lat="49.91058" lon="2.38284">
        <ele>67.2</ele>
        <time>2022-02-11T14:17:05Z</time>
      </trkpt>
      <trkpt lat="49.91058" lon="2.38286">
        <ele>67.2</ele>
        <time>2022-02-11T14:17:07Z</time>
      </trkpt>
      <trkpt lat="49.91059" lon="2.38287">
        <ele>67.2</ele>
        <time>2022-02-11T14:17:08Z</time>
      </trkpt>
      <trkpt lat="49.91059" lon="2.38288">
        <ele>67.2</ele>
        <time>2022-02-11T14:17:09Z</time>
      </trkpt>
      <trkpt lat="49.9106" lon="2.3829">
        <ele>67.2</ele>
        <time>2022-02-11T14:17:10Z</time>
      </trkpt>
      <trkpt lat="49.9106" lon="2.38291">
        <ele>67.2</ele>
        <time>2022-02-11T14:17:11Z</time>
      </trkpt>
      <trkpt lat="49.91061" lon="2.38292">
        <ele>67.2</ele>
        <time>2022-02-11T14:17:13Z</time>
      </trkpt>
      <trkpt lat="49.91061" lon="2.38293">
        <ele>67.2</ele>
        <time>2022-02-11T14:17:14Z</time>
      </trkpt>
      <trkpt lat="49.91062" lon="2.38295">
        <ele>67.2</ele>
        <time>2022-02-11T14:17:15Z</time>
      </trkpt>
      <trkpt lat="49.91062" lon="2.38296">
        <ele>67.2</ele>
        <time>2022-02-11T14:17:16Z</time>
      </trkpt>
      <trkpt lat="49.91063" lon="2.38297">
        <ele>67.2</ele>
        <time>2022-02-11T14:17:17Z</time>
      </trkpt>
      <trkpt lat="49.91063" lon="2.38298">
        <ele>67.2</ele>
        <time>2022-02-11T14:17:18Z</time>
      </trkpt>
      <trkpt lat="49.91064" lon="2.383">
        <ele>67.2</ele>
        <time>2022-02-11T14:17:19Z</time>
      </trkpt>
      <trkpt lat="49.91065" lon="2.38303">
        <ele>67.2</ele>
        <time>2022-02-11T14:17:21Z</time>
      </trkpt>
      <trkpt lat="49.91065" lon="2.38304">
        <ele>67.2</ele>
        <time>2022-02-11T14:17:22Z</time>
      </trkpt>
      <trkpt lat="49.91066" lon="2.38305">
        <ele>67.2</ele>
        <time>2022-02-11T14:17:23Z</time>
      </trkpt>
      <trkpt lat="49.91066" lon="2.38306">
        <ele>67.2</ele>
        <time>2022-02-11T14:17:24Z</time>
      </trkpt>
      <trkpt lat="49.91067" lon="2.38308">
        <ele>67.2</ele>
        <time>2022-02-11T14:17:25Z</time>
      </trkpt>
      <trkpt lat="49.91068" lon="2.38309">
        <ele>67.2</ele>
        <time>2022-02-11T14:17:26Z</time>
      </trkpt>
      <trkpt lat="49.91068" lon="2.3831">
        <ele>67.2</ele>
        <time>2022-02-11T14:17:27Z</time>
      </trkpt>
      <trkpt lat="49.91069" lon="2.38311">
        <ele>67.1</ele>
        <time>2022-02-11T14:17:28Z</time>
      </trkpt>
      <trkpt lat="49.9107" lon="2.38313">
        <ele>67.1</ele>
        <time>2022-02-11T14:17:30Z</time>
      </trkpt>
      <trkpt lat="49.91071" lon="2.38314">
        <ele>67.1</ele>
        <time>2022-02-11T14:17:31Z</time>
      </trkpt>
      <trkpt lat="49.91072" lon="2.38315">
        <ele>67.1</ele>
        <time>2022-02-11T14:17:32Z</time>
      </trkpt>
      <trkpt lat="49.91072" lon="2.38316">
        <ele>67.1</ele>
        <time>2022-02-11T14:17:33Z</time>
      </trkpt>
      <trkpt lat="49.91073" lon="2.38318">
        <ele>67.1</ele>
        <time>2022-02-11T14:17:34Z</time>
      </trkpt>
      <trkpt lat="49.91074" lon="2.38319">
        <ele>67.1</ele>
        <time>2022-02-11T14:17:35Z</time>
      </trkpt>
      <trkpt lat="49.91075" lon="2.3832">
        <ele>67.1</ele>
        <time>2022-02-11T14:17:37Z</time>
      </trkpt>
      <trkpt lat="49.91076" lon="2.38321">
        <ele>67.1</ele>
        <time>2022-02-11T14:17:38Z</time>
      </trkpt>
      <trkpt lat="49.91077" lon="2.38322">
        <ele>67.1</ele>
        <time>2022-02-11T14:17:39Z</time>
      </trkpt>
      <trkpt lat="49.91078" lon="2.38323">
        <ele>67.1</ele>
        <time>2022-02-11T14:17:40Z</time>
      </trkpt>
      <trkpt lat="49.91079" lon="2.38324">
        <ele>67.1</ele>
        <time>2022-02-11T14:17:41Z</time>
      </trkpt>
      <trkpt lat="49.9108" lon="2.38325">
        <ele>67.1</ele>
        <time>2022-02-11T14:17:42Z</time>
      </trkpt>
      <trkpt lat="49.9108" lon="2.38326">
        <ele>67.1</ele>
        <time>2022-02-11T14:17:43Z</time>
      </trkpt>
      <trkpt lat="49.91081" lon="2.38328">
        <ele>67.1</ele>
        <time>2022-02-11T14:17:45Z</time>
      </trkpt>
      <trkpt lat="49.91083" lon="2.38329">
        <ele>67.1</ele>
        <time>2022-02-11T14:17:46Z</time>
      </trkpt>
      <trkpt lat="49.91084" lon="2.3833">
        <ele>67.1</ele>
        <time>2022-02-11T14:17:47Z</time>
      </trkpt>
      <trkpt lat="49.91084" lon="2.38331">
        <ele>67</ele>
        <time>2022-02-11T14:17:48Z</time>
      </trkpt>
      <trkpt lat="49.91085" lon="2.38333">
        <ele>67</ele>
        <time>2022-02-11T14:17:49Z</time>
      </trkpt>
      <trkpt lat="49.91087" lon="2.38335">
        <ele>67</ele>
        <time>2022-02-11T14:17:50Z</time>
      </trkpt>
      <trkpt lat="49.91088" lon="2.38335">
        <ele>67</ele>
        <time>2022-02-11T14:17:52Z</time>
      </trkpt>
      <trkpt lat="49.91088" lon="2.38336">
        <ele>67</ele>
        <time>2022-02-11T14:17:53Z</time>
      </trkpt>
      <trkpt lat="49.91089" lon="2.38337">
        <ele>67</ele>
        <time>2022-02-11T14:17:54Z</time>
      </trkpt>
      <trkpt lat="49.9109" lon="2.38339">
        <ele>67</ele>
        <time>2022-02-11T14:17:55Z</time>
      </trkpt>
      <trkpt lat="49.91091" lon="2.3834">
        <ele>67</ele>
        <time>2022-02-11T14:17:56Z</time>
      </trkpt>
      <trkpt lat="49.91091" lon="2.38341">
        <ele>67</ele>
        <time>2022-02-11T14:17:57Z</time>
      </trkpt>
      <trkpt lat="49.91092" lon="2.38342">
        <ele>67</ele>
        <time>2022-02-11T14:17:58Z</time>
      </trkpt>
      <trkpt lat="49.91094" lon="2.38344">
        <ele>66.9</ele>
        <time>2022-02-11T14:18:00Z</time>
      </trkpt>
      <trkpt lat="49.91095" lon="2.38347">
        <ele>66.9</ele>
        <time>2022-02-11T14:18:01Z</time>
      </trkpt>
      <trkpt lat="49.91096" lon="2.38348">
        <ele>66.9</ele>
        <time>2022-02-11T14:18:02Z</time>
      </trkpt>
      <trkpt lat="49.91096" lon="2.38348">
        <ele>66.9</ele>
        <time>2022-02-11T14:18:03Z</time>
      </trkpt>
      <trkpt lat="49.91097" lon="2.3835">
        <ele>66.9</ele>
        <time>2022-02-11T14:18:05Z</time>
      </trkpt>
      <trkpt lat="49.91098" lon="2.38351">
        <ele>66.9</ele>
        <time>2022-02-11T14:18:06Z</time>
      </trkpt>
      <trkpt lat="49.91099" lon="2.38354">
        <ele>66.9</ele>
        <time>2022-02-11T14:18:07Z</time>
      </trkpt>
      <trkpt lat="49.911" lon="2.38355">
        <ele>66.9</ele>
        <time>2022-02-11T14:18:08Z</time>
      </trkpt>
      <trkpt lat="49.911" lon="2.38356">
        <ele>66.8</ele>
        <time>2022-02-11T14:18:09Z</time>
      </trkpt>
      <trkpt lat="49.91101" lon="2.38357">
        <ele>66.8</ele>
        <time>2022-02-11T14:18:10Z</time>
      </trkpt>
      <trkpt lat="49.91101" lon="2.38359">
        <ele>66.8</ele>
        <time>2022-02-11T14:18:11Z</time>
      </trkpt>
      <trkpt lat="49.91102" lon="2.38361">
        <ele>66.8</ele>
        <time>2022-02-11T14:18:13Z</time>
      </trkpt>
      <trkpt lat="49.91103" lon="2.38362">
        <ele>66.8</ele>
        <time>2022-02-11T14:18:14Z</time>
      </trkpt>
      <trkpt lat="49.91103" lon="2.38364">
        <ele>66.8</ele>
        <time>2022-02-11T14:18:15Z</time>
      </trkpt>
      <trkpt lat="49.91104" lon="2.38365">
        <ele>66.8</ele>
        <time>2022-02-11T14:18:16Z</time>
      </trkpt>
      <trkpt lat="49.91105" lon="2.38367">
        <ele>66.8</ele>
        <time>2022-02-11T14:18:17Z</time>
      </trkpt>
      <trkpt lat="49.91105" lon="2.38368">
        <ele>66.7</ele>
        <time>2022-02-11T14:18:18Z</time>
      </trkpt>
      <trkpt lat="49.91106" lon="2.38369">
        <ele>66.7</ele>
        <time>2022-02-11T14:18:19Z</time>
      </trkpt>
      <trkpt lat="49.91107" lon="2.38371">
        <ele>66.7</ele>
        <time>2022-02-11T14:18:21Z</time>
      </trkpt>
      <trkpt lat="49.91107" lon="2.38372">
        <ele>66.7</ele>
        <time>2022-02-11T14:18:22Z</time>
      </trkpt>
      <trkpt lat="49.91108" lon="2.38373">
        <ele>66.7</ele>
        <time>2022-02-11T14:18:23Z</time>
      </trkpt>
      <trkpt lat="49.91109" lon="2.38375">
        <ele>66.6</ele>
        <time>2022-02-11T14:18:24Z</time>
      </trkpt>
      <trkpt lat="49.9111" lon="2.38376">
        <ele>66.6</ele>
        <time>2022-02-11T14:18:25Z</time>
      </trkpt>
      <trkpt lat="49.9111" lon="2.38377">
        <ele>66.6</ele>
        <time>2022-02-11T14:18:26Z</time>
      </trkpt>
      <trkpt lat="49.91111" lon="2.38379">
        <ele>66.6</ele>
        <time>2022-02-11T14:18:27Z</time>
      </trkpt>
      <trkpt lat="49.91112" lon="2.3838">
        <ele>66.6</ele>
        <time>2022-02-11T14:18:29Z</time>
      </trkpt>
      <trkpt lat="49.91112" lon="2.38382">
        <ele>66.5</ele>
        <time>2022-02-11T14:18:30Z</time>
      </trkpt>
      <trkpt lat="49.91113" lon="2.38383">
        <ele>66.5</ele>
        <time>2022-02-11T14:18:31Z</time>
      </trkpt>
      <trkpt lat="49.91114" lon="2.38384">
        <ele>66.5</ele>
        <time>2022-02-11T14:18:32Z</time>
      </trkpt>
      <trkpt lat="49.91115" lon="2.38385">
        <ele>66.5</ele>
        <time>2022-02-11T14:18:33Z</time>
      </trkpt>
      <trkpt lat="49.91115" lon="2.38386">
        <ele>66.5</ele>
        <time>2022-02-11T14:18:34Z</time>
      </trkpt>
      <trkpt lat="49.91116" lon="2.38388">
        <ele>66.4</ele>
        <time>2022-02-11T14:18:35Z</time>
      </trkpt>
      <trkpt lat="49.91117" lon="2.38389">
        <ele>66.4</ele>
        <time>2022-02-11T14:18:37Z</time>
      </trkpt>
      <trkpt lat="49.91117" lon="2.38391">
        <ele>66.4</ele>
        <time>2022-02-11T14:18:38Z</time>
      </trkpt>
      <trkpt lat="49.91118" lon="2.38392">
        <ele>66.4</ele>
        <time>2022-02-11T14:18:39Z</time>
      </trkpt>
      <trkpt lat="49.91119" lon="2.38393">
        <ele>66.4</ele>
        <time>2022-02-11T14:18:40Z</time>
      </trkpt>
      <trkpt lat="49.91119" lon="2.38395">
        <ele>66.4</ele>
        <time>2022-02-11T14:18:41Z</time>
      </trkpt>
      <trkpt lat="49.9112" lon="2.38396">
        <ele>66.3</ele>
        <time>2022-02-11T14:18:43Z</time>
      </trkpt>
      <trkpt lat="49.91121" lon="2.38397">
        <ele>66.3</ele>
        <time>2022-02-11T14:18:44Z</time>
      </trkpt>
      <trkpt lat="49.91122" lon="2.38397">
        <ele>66.3</ele>
        <time>2022-02-11T14:18:45Z</time>
      </trkpt>
      <trkpt lat="49.91123" lon="2.38398">
        <ele>66.3</ele>
        <time>2022-02-11T14:18:46Z</time>
      </trkpt>
      <trkpt lat="49.91124" lon="2.384">
        <ele>66.3</ele>
        <time>2022-02-11T14:18:47Z</time>
      </trkpt>
      <trkpt lat="49.91124" lon="2.38401">
        <ele>66.3</ele>
        <time>2022-02-11T14:18:48Z</time>
      </trkpt>
      <trkpt lat="49.91125" lon="2.38402">
        <ele>66.3</ele>
        <time>2022-02-11T14:18:49Z</time>
      </trkpt>
      <trkpt lat="49.91126" lon="2.38403">
        <ele>66.3</ele>
        <time>2022-02-11T14:18:51Z</time>
      </trkpt>
      <trkpt lat="49.91127" lon="2.38404">
        <ele>66.3</ele>
        <time>2022-02-11T14:18:52Z</time>
      </trkpt>
      <trkpt lat="49.91127" lon="2.38404">
        <ele>66.2</ele>
        <time>2022-02-11T14:18:53Z</time>
      </trkpt>
      <trkpt lat="49.91128" lon="2.38405">
        <ele>66.2</ele>
        <time>2022-02-11T14:18:54Z</time>
      </trkpt>
      <trkpt lat="49.91128" lon="2.38406">
        <ele>66.2</ele>
        <time>2022-02-11T14:18:55Z</time>
      </trkpt>
      <trkpt lat="49.91129" lon="2.38407">
        <ele>66.2</ele>
        <time>2022-02-11T14:18:56Z</time>
      </trkpt>
      <trkpt lat="49.9113" lon="2.38408">
        <ele>66.2</ele>
        <time>2022-02-11T14:18:58Z</time>
      </trkpt>
      <trkpt lat="49.91131" lon="2.3841">
        <ele>66.2</ele>
        <time>2022-02-11T14:18:59Z</time>
      </trkpt>
      <trkpt lat="49.91132" lon="2.38411">
        <ele>66.2</ele>
        <time>2022-02-11T14:19:00Z</time>
      </trkpt>
      <trkpt lat="49.91132" lon="2.38413">
        <ele>66.2</ele>
        <time>2022-02-11T14:19:01Z</time>
      </trkpt>
      <trkpt lat="49.91133" lon="2.38414">
        <ele>66.1</ele>
        <time>2022-02-11T14:19:02Z</time>
      </trkpt>
      <trkpt lat="49.91133" lon="2.38416">
        <ele>66.1</ele>
        <time>2022-02-11T14:19:03Z</time>
      </trkpt>
      <trkpt lat="49.91134" lon="2.38417">
        <ele>66.1</ele>
        <time>2022-02-11T14:19:04Z</time>
      </trkpt>
      <trkpt lat="49.91135" lon="2.38419">
        <ele>66.1</ele>
        <time>2022-02-11T14:19:06Z</time>
      </trkpt>
      <trkpt lat="49.91135" lon="2.3842">
        <ele>66.1</ele>
        <time>2022-02-11T14:19:07Z</time>
      </trkpt>
      <trkpt lat="49.91136" lon="2.38422">
        <ele>66.1</ele>
        <time>2022-02-11T14:19:08Z</time>
      </trkpt>
      <trkpt lat="49.91137" lon="2.38423">
        <ele>66.1</ele>
        <time>2022-02-11T14:19:09Z</time>
      </trkpt>
      <trkpt lat="49.91138" lon="2.38425">
        <ele>66</ele>
        <time>2022-02-11T14:19:10Z</time>
      </trkpt>
      <trkpt lat="49.91138" lon="2.38427">
        <ele>66</ele>
        <time>2022-02-11T14:19:11Z</time>
      </trkpt>
      <trkpt lat="49.91139" lon="2.38428">
        <ele>66</ele>
        <time>2022-02-11T14:19:13Z</time>
      </trkpt>
      <trkpt lat="49.9114" lon="2.38429">
        <ele>66</ele>
        <time>2022-02-11T14:19:14Z</time>
      </trkpt>
      <trkpt lat="49.9114" lon="2.38431">
        <ele>66</ele>
        <time>2022-02-11T14:19:15Z</time>
      </trkpt>
      <trkpt lat="49.91141" lon="2.38432">
        <ele>66</ele>
        <time>2022-02-11T14:19:16Z</time>
      </trkpt>
      <trkpt lat="49.91142" lon="2.38433">
        <ele>65.9</ele>
        <time>2022-02-11T14:19:17Z</time>
      </trkpt>
      <trkpt lat="49.91142" lon="2.38435">
        <ele>65.9</ele>
        <time>2022-02-11T14:19:18Z</time>
      </trkpt>
      <trkpt lat="49.91143" lon="2.38437">
        <ele>65.9</ele>
        <time>2022-02-11T14:19:19Z</time>
      </trkpt>
      <trkpt lat="49.91143" lon="2.38439">
        <ele>65.9</ele>
        <time>2022-02-11T14:19:21Z</time>
      </trkpt>
      <trkpt lat="49.91144" lon="2.38441">
        <ele>65.9</ele>
        <time>2022-02-11T14:19:22Z</time>
      </trkpt>
      <trkpt lat="49.91146" lon="2.38443">
        <ele>65.9</ele>
        <time>2022-02-11T14:19:23Z</time>
      </trkpt>
      <trkpt lat="49.91146" lon="2.38445">
        <ele>65.8</ele>
        <time>2022-02-11T14:19:24Z</time>
      </trkpt>
      <trkpt lat="49.91147" lon="2.38446">
        <ele>65.8</ele>
        <time>2022-02-11T14:19:25Z</time>
      </trkpt>
      <trkpt lat="49.91148" lon="2.38448">
        <ele>65.8</ele>
        <time>2022-02-11T14:19:27Z</time>
      </trkpt>
      <trkpt lat="49.91149" lon="2.3845">
        <ele>65.8</ele>
        <time>2022-02-11T14:19:28Z</time>
      </trkpt>
      <trkpt lat="49.91149" lon="2.38452">
        <ele>65.8</ele>
        <time>2022-02-11T14:19:29Z</time>
      </trkpt>
      <trkpt lat="49.9115" lon="2.38454">
        <ele>65.8</ele>
        <time>2022-02-11T14:19:30Z</time>
      </trkpt>
      <trkpt lat="49.9115" lon="2.38456">
        <ele>65.8</ele>
        <time>2022-02-11T14:19:31Z</time>
      </trkpt>
      <trkpt lat="49.91151" lon="2.38458">
        <ele>65.8</ele>
        <time>2022-02-11T14:19:32Z</time>
      </trkpt>
      <trkpt lat="49.91152" lon="2.38459">
        <ele>65.8</ele>
        <time>2022-02-11T14:19:33Z</time>
      </trkpt>
      <trkpt lat="49.91153" lon="2.38461">
        <ele>65.8</ele>
        <time>2022-02-11T14:19:34Z</time>
      </trkpt>
      <trkpt lat="49.91153" lon="2.38463">
        <ele>65.8</ele>
        <time>2022-02-11T14:19:36Z</time>
      </trkpt>
      <trkpt lat="49.91155" lon="2.38464">
        <ele>65.8</ele>
        <time>2022-02-11T14:19:37Z</time>
      </trkpt>
      <trkpt lat="49.91155" lon="2.38466">
        <ele>65.8</ele>
        <time>2022-02-11T14:19:38Z</time>
      </trkpt>
      <trkpt lat="49.91157" lon="2.38468">
        <ele>65.8</ele>
        <time>2022-02-11T14:19:40Z</time>
      </trkpt>
      <trkpt lat="49.91158" lon="2.38469">
        <ele>65.8</ele>
        <time>2022-02-11T14:19:41Z</time>
      </trkpt>
      <trkpt lat="49.9116" lon="2.38471">
        <ele>65.8</ele>
        <time>2022-02-11T14:19:42Z</time>
      </trkpt>
      <trkpt lat="49.91161" lon="2.38471">
        <ele>65.8</ele>
        <time>2022-02-11T14:19:43Z</time>
      </trkpt>
      <trkpt lat="49.91161" lon="2.38472">
        <ele>65.8</ele>
        <time>2022-02-11T14:19:44Z</time>
      </trkpt>
      <trkpt lat="49.91162" lon="2.38473">
        <ele>65.8</ele>
        <time>2022-02-11T14:19:45Z</time>
      </trkpt>
      <trkpt lat="49.91163" lon="2.38474">
        <ele>65.8</ele>
        <time>2022-02-11T14:19:46Z</time>
      </trkpt>
      <trkpt lat="49.91164" lon="2.38476">
        <ele>65.8</ele>
        <time>2022-02-11T14:19:48Z</time>
      </trkpt>
      <trkpt lat="49.91166" lon="2.38477">
        <ele>65.8</ele>
        <time>2022-02-11T14:19:49Z</time>
      </trkpt>
      <trkpt lat="49.91167" lon="2.38479">
        <ele>65.8</ele>
        <time>2022-02-11T14:19:50Z</time>
      </trkpt>
      <trkpt lat="49.91168" lon="2.3848">
        <ele>65.8</ele>
        <time>2022-02-11T14:19:51Z</time>
      </trkpt>
      <trkpt lat="49.91169" lon="2.38482">
        <ele>65.8</ele>
        <time>2022-02-11T14:19:52Z</time>
      </trkpt>
      <trkpt lat="49.9117" lon="2.38484">
        <ele>65.8</ele>
        <time>2022-02-11T14:19:53Z</time>
      </trkpt>
      <trkpt lat="49.91171" lon="2.38485">
        <ele>65.8</ele>
        <time>2022-02-11T14:19:54Z</time>
      </trkpt>
      <trkpt lat="49.91171" lon="2.38486">
        <ele>65.8</ele>
        <time>2022-02-11T14:19:55Z</time>
      </trkpt>
      <trkpt lat="49.91172" lon="2.38488">
        <ele>65.8</ele>
        <time>2022-02-11T14:19:57Z</time>
      </trkpt>
      <trkpt lat="49.91173" lon="2.3849">
        <ele>65.8</ele>
        <time>2022-02-11T14:19:58Z</time>
      </trkpt>
      <trkpt lat="49.91173" lon="2.38492">
        <ele>65.8</ele>
        <time>2022-02-11T14:19:59Z</time>
      </trkpt>
      <trkpt lat="49.91173" lon="2.38494">
        <ele>65.8</ele>
        <time>2022-02-11T14:20:00Z</time>
      </trkpt>
      <trkpt lat="49.91174" lon="2.38496">
        <ele>65.8</ele>
        <time>2022-02-11T14:20:02Z</time>
      </trkpt>
      <trkpt lat="49.91174" lon="2.38497">
        <ele>65.8</ele>
        <time>2022-02-11T14:20:03Z</time>
      </trkpt>
      <trkpt lat="49.91174" lon="2.38499">
        <ele>65.8</ele>
        <time>2022-02-11T14:20:04Z</time>
      </trkpt>
      <trkpt lat="49.91175" lon="2.385">
        <ele>65.8</ele>
        <time>2022-02-11T14:20:05Z</time>
      </trkpt>
      <trkpt lat="49.91175" lon="2.38502">
        <ele>65.8</ele>
        <time>2022-02-11T14:20:06Z</time>
      </trkpt>
      <trkpt lat="49.91175" lon="2.38503">
        <ele>65.8</ele>
        <time>2022-02-11T14:20:07Z</time>
      </trkpt>
      <trkpt lat="49.91175" lon="2.38504">
        <ele>65.8</ele>
        <time>2022-02-11T14:20:08Z</time>
      </trkpt>
      <trkpt lat="49.91175" lon="2.38507">
        <ele>65.8</ele>
        <time>2022-02-11T14:20:10Z</time>
      </trkpt>
      <trkpt lat="49.91175" lon="2.38509">
        <ele>65.8</ele>
        <time>2022-02-11T14:20:11Z</time>
      </trkpt>
      <trkpt lat="49.91175" lon="2.3851">
        <ele>65.8</ele>
        <time>2022-02-11T14:20:12Z</time>
      </trkpt>
      <trkpt lat="49.91174" lon="2.38511">
        <ele>65.8</ele>
        <time>2022-02-11T14:20:13Z</time>
      </trkpt>
      <trkpt lat="49.91174" lon="2.38513">
        <ele>65.8</ele>
        <time>2022-02-11T14:20:14Z</time>
      </trkpt>
      <trkpt lat="49.91174" lon="2.38515">
        <ele>65.8</ele>
        <time>2022-02-11T14:20:16Z</time>
      </trkpt>
      <trkpt lat="49.91174" lon="2.38518">
        <ele>65.8</ele>
        <time>2022-02-11T14:20:17Z</time>
      </trkpt>
      <trkpt lat="49.91174" lon="2.38521">
        <ele>65.7</ele>
        <time>2022-02-11T14:20:18Z</time>
      </trkpt>
      <trkpt lat="49.91174" lon="2.38522">
        <ele>65.7</ele>
        <time>2022-02-11T14:20:19Z</time>
      </trkpt>
      <trkpt lat="49.91174" lon="2.38523">
        <ele>65.7</ele>
        <time>2022-02-11T14:20:20Z</time>
      </trkpt>
      <trkpt lat="49.91175" lon="2.38526">
        <ele>65.7</ele>
        <time>2022-02-11T14:20:21Z</time>
      </trkpt>
      <trkpt lat="49.91175" lon="2.38528">
        <ele>65.7</ele>
        <time>2022-02-11T14:20:22Z</time>
      </trkpt>
      <trkpt lat="49.91175" lon="2.38529">
        <ele>65.7</ele>
        <time>2022-02-11T14:20:23Z</time>
      </trkpt>
      <trkpt lat="49.91176" lon="2.38532">
        <ele>65.7</ele>
        <time>2022-02-11T14:20:25Z</time>
      </trkpt>
      <trkpt lat="49.91177" lon="2.38533">
        <ele>65.7</ele>
        <time>2022-02-11T14:20:26Z</time>
      </trkpt>
      <trkpt lat="49.91177" lon="2.38534">
        <ele>65.6</ele>
        <time>2022-02-11T14:20:27Z</time>
      </trkpt>
      <trkpt lat="49.91178" lon="2.38537">
        <ele>65.6</ele>
        <time>2022-02-11T14:20:28Z</time>
      </trkpt>
      <trkpt lat="49.91178" lon="2.38539">
        <ele>65.6</ele>
        <time>2022-02-11T14:20:29Z</time>
      </trkpt>
      <trkpt lat="49.91179" lon="2.3854">
        <ele>65.6</ele>
        <time>2022-02-11T14:20:30Z</time>
      </trkpt>
      <trkpt lat="49.91179" lon="2.38542">
        <ele>65.6</ele>
        <time>2022-02-11T14:20:31Z</time>
      </trkpt>
      <trkpt lat="49.9118" lon="2.38543">
        <ele>65.6</ele>
        <time>2022-02-11T14:20:32Z</time>
      </trkpt>
      <trkpt lat="49.9118" lon="2.38545">
        <ele>65.5</ele>
        <time>2022-02-11T14:20:34Z</time>
      </trkpt>
      <trkpt lat="49.9118" lon="2.38549">
        <ele>65.5</ele>
        <time>2022-02-11T14:20:35Z</time>
      </trkpt>
      <trkpt lat="49.91181" lon="2.3855">
        <ele>65.5</ele>
        <time>2022-02-11T14:20:36Z</time>
      </trkpt>
      <trkpt lat="49.91181" lon="2.38551">
        <ele>65.5</ele>
        <time>2022-02-11T14:20:37Z</time>
      </trkpt>
      <trkpt lat="49.91181" lon="2.38553">
        <ele>65.5</ele>
        <time>2022-02-11T14:20:38Z</time>
      </trkpt>
      <trkpt lat="49.91181" lon="2.38554">
        <ele>65.4</ele>
        <time>2022-02-11T14:20:39Z</time>
      </trkpt>
      <trkpt lat="49.91182" lon="2.38556">
        <ele>65.4</ele>
        <time>2022-02-11T14:20:40Z</time>
      </trkpt>
      <trkpt lat="49.91182" lon="2.38558">
        <ele>65.4</ele>
        <time>2022-02-11T14:20:41Z</time>
      </trkpt>
      <trkpt lat="49.91182" lon="2.38559">
        <ele>65.4</ele>
        <time>2022-02-11T14:20:42Z</time>
      </trkpt>
      <trkpt lat="49.91183" lon="2.38561">
        <ele>65.4</ele>
        <time>2022-02-11T14:20:43Z</time>
      </trkpt>
      <trkpt lat="49.91183" lon="2.38563">
        <ele>65.4</ele>
        <time>2022-02-11T14:20:45Z</time>
      </trkpt>
      <trkpt lat="49.91184" lon="2.38564">
        <ele>65.4</ele>
        <time>2022-02-11T14:20:46Z</time>
      </trkpt>
      <trkpt lat="49.91184" lon="2.38566">
        <ele>65.4</ele>
        <time>2022-02-11T14:20:47Z</time>
      </trkpt>
      <trkpt lat="49.91185" lon="2.38567">
        <ele>65.4</ele>
        <time>2022-02-11T14:20:48Z</time>
      </trkpt>
      <trkpt lat="49.91185" lon="2.38568">
        <ele>65.3</ele>
        <time>2022-02-11T14:20:49Z</time>
      </trkpt>
      <trkpt lat="49.91186" lon="2.3857">
        <ele>65.3</ele>
        <time>2022-02-11T14:20:50Z</time>
      </trkpt>
      <trkpt lat="49.91186" lon="2.38571">
        <ele>65.3</ele>
        <time>2022-02-11T14:20:51Z</time>
      </trkpt>
      <trkpt lat="49.91187" lon="2.38573">
        <ele>65.3</ele>
        <time>2022-02-11T14:20:52Z</time>
      </trkpt>
      <trkpt lat="49.91188" lon="2.38575">
        <ele>65.3</ele>
        <time>2022-02-11T14:20:53Z</time>
      </trkpt>
      <trkpt lat="49.91189" lon="2.38576">
        <ele>65.3</ele>
        <time>2022-02-11T14:20:54Z</time>
      </trkpt>
      <trkpt lat="49.91189" lon="2.38578">
        <ele>65.3</ele>
        <time>2022-02-11T14:20:56Z</time>
      </trkpt>
      <trkpt lat="49.9119" lon="2.3858">
        <ele>65.3</ele>
        <time>2022-02-11T14:20:57Z</time>
      </trkpt>
      <trkpt lat="49.91191" lon="2.38581">
        <ele>65.3</ele>
        <time>2022-02-11T14:20:58Z</time>
      </trkpt>
      <trkpt lat="49.91192" lon="2.38583">
        <ele>65.3</ele>
        <time>2022-02-11T14:20:59Z</time>
      </trkpt>
      <trkpt lat="49.91193" lon="2.38584">
        <ele>65.3</ele>
        <time>2022-02-11T14:21:00Z</time>
      </trkpt>
      <trkpt lat="49.91194" lon="2.38586">
        <ele>65.3</ele>
        <time>2022-02-11T14:21:01Z</time>
      </trkpt>
      <trkpt lat="49.91195" lon="2.38587">
        <ele>65.3</ele>
        <time>2022-02-11T14:21:02Z</time>
      </trkpt>
      <trkpt lat="49.91196" lon="2.38589">
        <ele>65.3</ele>
        <time>2022-02-11T14:21:03Z</time>
      </trkpt>
      <trkpt lat="49.91197" lon="2.38591">
        <ele>65.3</ele>
        <time>2022-02-11T14:21:04Z</time>
      </trkpt>
      <trkpt lat="49.91198" lon="2.38593">
        <ele>65.3</ele>
        <time>2022-02-11T14:21:05Z</time>
      </trkpt>
      <trkpt lat="49.91199" lon="2.38594">
        <ele>65.3</ele>
        <time>2022-02-11T14:21:07Z</time>
      </trkpt>
      <trkpt lat="49.91199" lon="2.38596">
        <ele>65.3</ele>
        <time>2022-02-11T14:21:08Z</time>
      </trkpt>
      <trkpt lat="49.912" lon="2.38598">
        <ele>65.3</ele>
        <time>2022-02-11T14:21:09Z</time>
      </trkpt>
      <trkpt lat="49.912" lon="2.38599">
        <ele>65.3</ele>
        <time>2022-02-11T14:21:10Z</time>
      </trkpt>
      <trkpt lat="49.91201" lon="2.386">
        <ele>65.3</ele>
        <time>2022-02-11T14:21:11Z</time>
      </trkpt>
      <trkpt lat="49.91202" lon="2.38602">
        <ele>65.2</ele>
        <time>2022-02-11T14:21:13Z</time>
      </trkpt>
      <trkpt lat="49.91202" lon="2.38603">
        <ele>65.2</ele>
        <time>2022-02-11T14:21:14Z</time>
      </trkpt>
      <trkpt lat="49.91203" lon="2.38605">
        <ele>65.2</ele>
        <time>2022-02-11T14:21:15Z</time>
      </trkpt>
      <trkpt lat="49.91204" lon="2.38606">
        <ele>65.2</ele>
        <time>2022-02-11T14:21:16Z</time>
      </trkpt>
      <trkpt lat="49.91204" lon="2.38608">
        <ele>65.2</ele>
        <time>2022-02-11T14:21:17Z</time>
      </trkpt>
      <trkpt lat="49.91205" lon="2.38609">
        <ele>65.2</ele>
        <time>2022-02-11T14:21:18Z</time>
      </trkpt>
      <trkpt lat="49.91205" lon="2.3861">
        <ele>65.2</ele>
        <time>2022-02-11T14:21:19Z</time>
      </trkpt>
      <trkpt lat="49.91206" lon="2.38612">
        <ele>65.2</ele>
        <time>2022-02-11T14:21:21Z</time>
      </trkpt>
      <trkpt lat="49.91207" lon="2.38614">
        <ele>65.2</ele>
        <time>2022-02-11T14:21:22Z</time>
      </trkpt>
      <trkpt lat="49.91207" lon="2.38615">
        <ele>65.2</ele>
        <time>2022-02-11T14:21:23Z</time>
      </trkpt>
      <trkpt lat="49.91208" lon="2.38616">
        <ele>65.2</ele>
        <time>2022-02-11T14:21:24Z</time>
      </trkpt>
      <trkpt lat="49.91209" lon="2.38619">
        <ele>65.2</ele>
        <time>2022-02-11T14:21:25Z</time>
      </trkpt>
      <trkpt lat="49.9121" lon="2.3862">
        <ele>65.2</ele>
        <time>2022-02-11T14:21:26Z</time>
      </trkpt>
      <trkpt lat="49.9121" lon="2.38621">
        <ele>65.1</ele>
        <time>2022-02-11T14:21:27Z</time>
      </trkpt>
      <trkpt lat="49.91212" lon="2.38623">
        <ele>65.1</ele>
        <time>2022-02-11T14:21:28Z</time>
      </trkpt>
      <trkpt lat="49.91212" lon="2.38624">
        <ele>65.1</ele>
        <time>2022-02-11T14:21:30Z</time>
      </trkpt>
      <trkpt lat="49.91213" lon="2.38626">
        <ele>65.1</ele>
        <time>2022-02-11T14:21:31Z</time>
      </trkpt>
      <trkpt lat="49.91214" lon="2.38628">
        <ele>65.1</ele>
        <time>2022-02-11T14:21:32Z</time>
      </trkpt>
      <trkpt lat="49.91215" lon="2.38629">
        <ele>65.1</ele>
        <time>2022-02-11T14:21:33Z</time>
      </trkpt>
      <trkpt lat="49.91215" lon="2.3863">
        <ele>65.1</ele>
        <time>2022-02-11T14:21:34Z</time>
      </trkpt>
      <trkpt lat="49.91216" lon="2.38631">
        <ele>65.1</ele>
        <time>2022-02-11T14:21:35Z</time>
      </trkpt>
      <trkpt lat="49.91217" lon="2.38633">
        <ele>65.1</ele>
        <time>2022-02-11T14:21:37Z</time>
      </trkpt>
      <trkpt lat="49.91218" lon="2.38634">
        <ele>65</ele>
        <time>2022-02-11T14:21:38Z</time>
      </trkpt>
      <trkpt lat="49.91218" lon="2.38636">
        <ele>65</ele>
        <time>2022-02-11T14:21:39Z</time>
      </trkpt>
      <trkpt lat="49.91219" lon="2.38637">
        <ele>65</ele>
        <time>2022-02-11T14:21:40Z</time>
      </trkpt>
      <trkpt lat="49.9122" lon="2.38638">
        <ele>65</ele>
        <time>2022-02-11T14:21:41Z</time>
      </trkpt>
      <trkpt lat="49.91221" lon="2.3864">
        <ele>65</ele>
        <time>2022-02-11T14:21:42Z</time>
      </trkpt>
      <trkpt lat="49.91221" lon="2.38641">
        <ele>65</ele>
        <time>2022-02-11T14:21:44Z</time>
      </trkpt>
      <trkpt lat="49.91222" lon="2.38642">
        <ele>65</ele>
        <time>2022-02-11T14:21:45Z</time>
      </trkpt>
      <trkpt lat="49.91223" lon="2.38643">
        <ele>65</ele>
        <time>2022-02-11T14:21:46Z</time>
      </trkpt>
      <trkpt lat="49.91224" lon="2.38644">
        <ele>65</ele>
        <time>2022-02-11T14:21:47Z</time>
      </trkpt>
      <trkpt lat="49.91225" lon="2.38645">
        <ele>65</ele>
        <time>2022-02-11T14:21:48Z</time>
      </trkpt>
      <trkpt lat="49.91226" lon="2.38646">
        <ele>65</ele>
        <time>2022-02-11T14:21:49Z</time>
      </trkpt>
      <trkpt lat="49.91226" lon="2.38647">
        <ele>65</ele>
        <time>2022-02-11T14:21:50Z</time>
      </trkpt>
      <trkpt lat="49.91227" lon="2.38649">
        <ele>65</ele>
        <time>2022-02-11T14:21:52Z</time>
      </trkpt>
      <trkpt lat="49.91228" lon="2.3865">
        <ele>65</ele>
        <time>2022-02-11T14:21:53Z</time>
      </trkpt>
      <trkpt lat="49.91229" lon="2.38651">
        <ele>65</ele>
        <time>2022-02-11T14:21:54Z</time>
      </trkpt>
      <trkpt lat="49.9123" lon="2.38653">
        <ele>65</ele>
        <time>2022-02-11T14:21:55Z</time>
      </trkpt>
      <trkpt lat="49.9123" lon="2.38654">
        <ele>65</ele>
        <time>2022-02-11T14:21:56Z</time>
      </trkpt>
      <trkpt lat="49.91231" lon="2.38655">
        <ele>65</ele>
        <time>2022-02-11T14:21:57Z</time>
      </trkpt>
      <trkpt lat="49.91232" lon="2.38656">
        <ele>65</ele>
        <time>2022-02-11T14:21:58Z</time>
      </trkpt>
      <trkpt lat="49.91232" lon="2.38657">
        <ele>65</ele>
        <time>2022-02-11T14:21:59Z</time>
      </trkpt>
      <trkpt lat="49.91233" lon="2.38659">
        <ele>65</ele>
        <time>2022-02-11T14:22:01Z</time>
      </trkpt>
      <trkpt lat="49.91234" lon="2.3866">
        <ele>65</ele>
        <time>2022-02-11T14:22:02Z</time>
      </trkpt>
      <trkpt lat="49.91235" lon="2.38661">
        <ele>65</ele>
        <time>2022-02-11T14:22:03Z</time>
      </trkpt>
      <trkpt lat="49.91235" lon="2.38662">
        <ele>65</ele>
        <time>2022-02-11T14:22:04Z</time>
      </trkpt>
      <trkpt lat="49.91236" lon="2.38663">
        <ele>65</ele>
        <time>2022-02-11T14:22:05Z</time>
      </trkpt>
      <trkpt lat="49.91237" lon="2.38665">
        <ele>65</ele>
        <time>2022-02-11T14:22:06Z</time>
      </trkpt>
      <trkpt lat="49.91238" lon="2.38666">
        <ele>65</ele>
        <time>2022-02-11T14:22:07Z</time>
      </trkpt>
      <trkpt lat="49.91239" lon="2.38667">
        <ele>65</ele>
        <time>2022-02-11T14:22:09Z</time>
      </trkpt>
      <trkpt lat="49.9124" lon="2.38669">
        <ele>65</ele>
        <time>2022-02-11T14:22:10Z</time>
      </trkpt>
      <trkpt lat="49.9124" lon="2.3867">
        <ele>65</ele>
        <time>2022-02-11T14:22:11Z</time>
      </trkpt>
      <trkpt lat="49.91241" lon="2.38671">
        <ele>64.9</ele>
        <time>2022-02-11T14:22:12Z</time>
      </trkpt>
      <trkpt lat="49.91242" lon="2.38672">
        <ele>64.9</ele>
        <time>2022-02-11T14:22:13Z</time>
      </trkpt>
      <trkpt lat="49.91243" lon="2.38673">
        <ele>64.9</ele>
        <time>2022-02-11T14:22:15Z</time>
      </trkpt>
      <trkpt lat="49.91244" lon="2.38674">
        <ele>64.9</ele>
        <time>2022-02-11T14:22:16Z</time>
      </trkpt>
      <trkpt lat="49.91245" lon="2.38675">
        <ele>64.9</ele>
        <time>2022-02-11T14:22:17Z</time>
      </trkpt>
      <trkpt lat="49.91246" lon="2.38676">
        <ele>64.9</ele>
        <time>2022-02-11T14:22:18Z</time>
      </trkpt>
      <trkpt lat="49.91247" lon="2.38677">
        <ele>64.9</ele>
        <time>2022-02-11T14:22:19Z</time>
      </trkpt>
      <trkpt lat="49.91248" lon="2.38678">
        <ele>64.9</ele>
        <time>2022-02-11T14:22:20Z</time>
      </trkpt>
      <trkpt lat="49.91249" lon="2.38679">
        <ele>64.8</ele>
        <time>2022-02-11T14:22:21Z</time>
      </trkpt>
      <trkpt lat="49.9125" lon="2.3868">
        <ele>64.8</ele>
        <time>2022-02-11T14:22:23Z</time>
      </trkpt>
      <trkpt lat="49.91251" lon="2.38681">
        <ele>64.8</ele>
        <time>2022-02-11T14:22:24Z</time>
      </trkpt>
      <trkpt lat="49.91251" lon="2.38682">
        <ele>64.8</ele>
        <time>2022-02-11T14:22:25Z</time>
      </trkpt>
      <trkpt lat="49.91252" lon="2.38684">
        <ele>64.8</ele>
        <time>2022-02-11T14:22:26Z</time>
      </trkpt>
      <trkpt lat="49.91253" lon="2.38685">
        <ele>64.8</ele>
        <time>2022-02-11T14:22:27Z</time>
      </trkpt>
      <trkpt lat="49.91254" lon="2.38686">
        <ele>64.8</ele>
        <time>2022-02-11T14:22:28Z</time>
      </trkpt>
      <trkpt lat="49.91255" lon="2.38687">
        <ele>64.8</ele>
        <time>2022-02-11T14:22:29Z</time>
      </trkpt>
      <trkpt lat="49.91255" lon="2.38689">
        <ele>64.8</ele>
        <time>2022-02-11T14:22:31Z</time>
      </trkpt>
      <trkpt lat="49.91256" lon="2.3869">
        <ele>64.8</ele>
        <time>2022-02-11T14:22:32Z</time>
      </trkpt>
      <trkpt lat="49.91257" lon="2.38691">
        <ele>64.8</ele>
        <time>2022-02-11T14:22:33Z</time>
      </trkpt>
      <trkpt lat="49.91258" lon="2.38692">
        <ele>64.8</ele>
        <time>2022-02-11T14:22:34Z</time>
      </trkpt>
      <trkpt lat="49.91258" lon="2.38694">
        <ele>64.8</ele>
        <time>2022-02-11T14:22:35Z</time>
      </trkpt>
      <trkpt lat="49.91259" lon="2.38695">
        <ele>64.8</ele>
        <time>2022-02-11T14:22:36Z</time>
      </trkpt>
      <trkpt lat="49.9126" lon="2.38698">
        <ele>64.8</ele>
        <time>2022-02-11T14:22:37Z</time>
      </trkpt>
      <trkpt lat="49.91261" lon="2.38699">
        <ele>64.7</ele>
        <time>2022-02-11T14:22:38Z</time>
      </trkpt>
      <trkpt lat="49.91261" lon="2.387">
        <ele>64.7</ele>
        <time>2022-02-11T14:22:40Z</time>
      </trkpt>
      <trkpt lat="49.91262" lon="2.38701">
        <ele>64.7</ele>
        <time>2022-02-11T14:22:41Z</time>
      </trkpt>
      <trkpt lat="49.91263" lon="2.38703">
        <ele>64.7</ele>
        <time>2022-02-11T14:22:42Z</time>
      </trkpt>
      <trkpt lat="49.91263" lon="2.38704">
        <ele>64.7</ele>
        <time>2022-02-11T14:22:43Z</time>
      </trkpt>
      <trkpt lat="49.91265" lon="2.38706">
        <ele>64.7</ele>
        <time>2022-02-11T14:22:44Z</time>
      </trkpt>
      <trkpt lat="49.91265" lon="2.38707">
        <ele>64.7</ele>
        <time>2022-02-11T14:22:45Z</time>
      </trkpt>
      <trkpt lat="49.91266" lon="2.38708">
        <ele>64.7</ele>
        <time>2022-02-11T14:22:46Z</time>
      </trkpt>
      <trkpt lat="49.91267" lon="2.38711">
        <ele>64.7</ele>
        <time>2022-02-11T14:22:48Z</time>
      </trkpt>
      <trkpt lat="49.91267" lon="2.38712">
        <ele>64.7</ele>
        <time>2022-02-11T14:22:49Z</time>
      </trkpt>
      <trkpt lat="49.91268" lon="2.38713">
        <ele>64.7</ele>
        <time>2022-02-11T14:22:50Z</time>
      </trkpt>
      <trkpt lat="49.91269" lon="2.38714">
        <ele>64.7</ele>
        <time>2022-02-11T14:22:51Z</time>
      </trkpt>
      <trkpt lat="49.91269" lon="2.38716">
        <ele>64.7</ele>
        <time>2022-02-11T14:22:52Z</time>
      </trkpt>
      <trkpt lat="49.9127" lon="2.38717">
        <ele>64.7</ele>
        <time>2022-02-11T14:22:53Z</time>
      </trkpt>
      <trkpt lat="49.91271" lon="2.3872">
        <ele>64.7</ele>
        <time>2022-02-11T14:22:54Z</time>
      </trkpt>
      <trkpt lat="49.91272" lon="2.38721">
        <ele>64.7</ele>
        <time>2022-02-11T14:22:56Z</time>
      </trkpt>
      <trkpt lat="49.91273" lon="2.38721">
        <ele>64.7</ele>
        <time>2022-02-11T14:22:57Z</time>
      </trkpt>
      <trkpt lat="49.91274" lon="2.38724">
        <ele>64.7</ele>
        <time>2022-02-11T14:22:58Z</time>
      </trkpt>
      <trkpt lat="49.91275" lon="2.38724">
        <ele>64.7</ele>
        <time>2022-02-11T14:22:59Z</time>
      </trkpt>
      <trkpt lat="49.91275" lon="2.38725">
        <ele>64.7</ele>
        <time>2022-02-11T14:23:00Z</time>
      </trkpt>
      <trkpt lat="49.91277" lon="2.38726">
        <ele>64.7</ele>
        <time>2022-02-11T14:23:01Z</time>
      </trkpt>
      <trkpt lat="49.91278" lon="2.38727">
        <ele>64.7</ele>
        <time>2022-02-11T14:23:02Z</time>
      </trkpt>
      <trkpt lat="49.91279" lon="2.38729">
        <ele>64.7</ele>
        <time>2022-02-11T14:23:04Z</time>
      </trkpt>
      <trkpt lat="49.9128" lon="2.3873">
        <ele>64.7</ele>
        <time>2022-02-11T14:23:05Z</time>
      </trkpt>
      <trkpt lat="49.91282" lon="2.38731">
        <ele>64.8</ele>
        <time>2022-02-11T14:23:06Z</time>
      </trkpt>
      <trkpt lat="49.91283" lon="2.38732">
        <ele>64.8</ele>
        <time>2022-02-11T14:23:07Z</time>
      </trkpt>
      <trkpt lat="49.91284" lon="2.38733">
        <ele>64.8</ele>
        <time>2022-02-11T14:23:08Z</time>
      </trkpt>
      <trkpt lat="49.91285" lon="2.38734">
        <ele>64.8</ele>
        <time>2022-02-11T14:23:09Z</time>
      </trkpt>
      <trkpt lat="49.91286" lon="2.38736">
        <ele>64.8</ele>
        <time>2022-02-11T14:23:10Z</time>
      </trkpt>
      <trkpt lat="49.91287" lon="2.38737">
        <ele>64.8</ele>
        <time>2022-02-11T14:23:12Z</time>
      </trkpt>
      <trkpt lat="49.91288" lon="2.38738">
        <ele>64.9</ele>
        <time>2022-02-11T14:23:13Z</time>
      </trkpt>
      <trkpt lat="49.9129" lon="2.38741">
        <ele>64.9</ele>
        <time>2022-02-11T14:23:14Z</time>
      </trkpt>
      <trkpt lat="49.9129" lon="2.38742">
        <ele>64.9</ele>
        <time>2022-02-11T14:23:15Z</time>
      </trkpt>
      <trkpt lat="49.91291" lon="2.38742">
        <ele>64.9</ele>
        <time>2022-02-11T14:23:16Z</time>
      </trkpt>
      <trkpt lat="49.91292" lon="2.38744">
        <ele>64.9</ele>
        <time>2022-02-11T14:23:17Z</time>
      </trkpt>
      <trkpt lat="49.91292" lon="2.38745">
        <ele>64.9</ele>
        <time>2022-02-11T14:23:18Z</time>
      </trkpt>
      <trkpt lat="49.91293" lon="2.38747">
        <ele>64.9</ele>
        <time>2022-02-11T14:23:19Z</time>
      </trkpt>
      <trkpt lat="49.91294" lon="2.3875">
        <ele>65</ele>
        <time>2022-02-11T14:23:21Z</time>
      </trkpt>
      <trkpt lat="49.91295" lon="2.38751">
        <ele>65</ele>
        <time>2022-02-11T14:23:22Z</time>
      </trkpt>
      <trkpt lat="49.91295" lon="2.38752">
        <ele>65</ele>
        <time>2022-02-11T14:23:23Z</time>
      </trkpt>
      <trkpt lat="49.91297" lon="2.38754">
        <ele>65</ele>
        <time>2022-02-11T14:23:24Z</time>
      </trkpt>
      <trkpt lat="49.91297" lon="2.38755">
        <ele>65</ele>
        <time>2022-02-11T14:23:25Z</time>
      </trkpt>
      <trkpt lat="49.91298" lon="2.38756">
        <ele>65</ele>
        <time>2022-02-11T14:23:26Z</time>
      </trkpt>
      <trkpt lat="49.91298" lon="2.38758">
        <ele>65</ele>
        <time>2022-02-11T14:23:27Z</time>
      </trkpt>
      <trkpt lat="49.91299" lon="2.38759">
        <ele>65</ele>
        <time>2022-02-11T14:23:28Z</time>
      </trkpt>
      <trkpt lat="49.913" lon="2.3876">
        <ele>65.1</ele>
        <time>2022-02-11T14:23:30Z</time>
      </trkpt>
      <trkpt lat="49.91301" lon="2.38762">
        <ele>65.1</ele>
        <time>2022-02-11T14:23:31Z</time>
      </trkpt>
      <trkpt lat="49.91302" lon="2.38763">
        <ele>65.1</ele>
        <time>2022-02-11T14:23:32Z</time>
      </trkpt>
      <trkpt lat="49.91302" lon="2.38765">
        <ele>65.1</ele>
        <time>2022-02-11T14:23:33Z</time>
      </trkpt>
      <trkpt lat="49.91303" lon="2.38766">
        <ele>65.1</ele>
        <time>2022-02-11T14:23:34Z</time>
      </trkpt>
      <trkpt lat="49.91304" lon="2.38767">
        <ele>65.1</ele>
        <time>2022-02-11T14:23:35Z</time>
      </trkpt>
      <trkpt lat="49.91305" lon="2.38768">
        <ele>65.1</ele>
        <time>2022-02-11T14:23:36Z</time>
      </trkpt>
      <trkpt lat="49.91305" lon="2.38769">
        <ele>65.1</ele>
        <time>2022-02-11T14:23:38Z</time>
      </trkpt>
      <trkpt lat="49.91306" lon="2.3877">
        <ele>65.1</ele>
        <time>2022-02-11T14:23:39Z</time>
      </trkpt>
      <trkpt lat="49.91307" lon="2.38771">
        <ele>65.1</ele>
        <time>2022-02-11T14:23:40Z</time>
      </trkpt>
      <trkpt lat="49.91308" lon="2.38772">
        <ele>65.2</ele>
        <time>2022-02-11T14:23:41Z</time>
      </trkpt>
      <trkpt lat="49.91308" lon="2.38773">
        <ele>65.2</ele>
        <time>2022-02-11T14:23:42Z</time>
      </trkpt>
      <trkpt lat="49.91309" lon="2.38773">
        <ele>65.2</ele>
        <time>2022-02-11T14:23:43Z</time>
      </trkpt>
      <trkpt lat="49.9131" lon="2.38774">
        <ele>65.2</ele>
        <time>2022-02-11T14:23:45Z</time>
      </trkpt>
      <trkpt lat="49.91311" lon="2.38775">
        <ele>65.2</ele>
        <time>2022-02-11T14:23:46Z</time>
      </trkpt>
      <trkpt lat="49.91312" lon="2.38776">
        <ele>65.2</ele>
        <time>2022-02-11T14:23:47Z</time>
      </trkpt>
      <trkpt lat="49.91313" lon="2.38777">
        <ele>65.2</ele>
        <time>2022-02-11T14:23:48Z</time>
      </trkpt>
      <trkpt lat="49.91314" lon="2.38778">
        <ele>65.2</ele>
        <time>2022-02-11T14:23:49Z</time>
      </trkpt>
      <trkpt lat="49.91314" lon="2.38778">
        <ele>65.2</ele>
        <time>2022-02-11T14:23:50Z</time>
      </trkpt>
      <trkpt lat="49.91315" lon="2.3878">
        <ele>65.2</ele>
        <time>2022-02-11T14:23:51Z</time>
      </trkpt>
      <trkpt lat="49.91316" lon="2.38781">
        <ele>65.2</ele>
        <time>2022-02-11T14:23:52Z</time>
      </trkpt>
      <trkpt lat="49.91317" lon="2.38782">
        <ele>65.3</ele>
        <time>2022-02-11T14:23:54Z</time>
      </trkpt>
      <trkpt lat="49.91318" lon="2.38783">
        <ele>65.3</ele>
        <time>2022-02-11T14:23:55Z</time>
      </trkpt>
      <trkpt lat="49.91319" lon="2.38784">
        <ele>65.3</ele>
        <time>2022-02-11T14:23:56Z</time>
      </trkpt>
      <trkpt lat="49.9132" lon="2.38785">
        <ele>65.3</ele>
        <time>2022-02-11T14:23:57Z</time>
      </trkpt>
      <trkpt lat="49.91321" lon="2.38787">
        <ele>65.3</ele>
        <time>2022-02-11T14:23:58Z</time>
      </trkpt>
      <trkpt lat="49.91321" lon="2.38788">
        <ele>65.3</ele>
        <time>2022-02-11T14:23:59Z</time>
      </trkpt>
      <trkpt lat="49.91322" lon="2.38789">
        <ele>65.3</ele>
        <time>2022-02-11T14:24:00Z</time>
      </trkpt>
      <trkpt lat="49.91323" lon="2.3879">
        <ele>65.3</ele>
        <time>2022-02-11T14:24:01Z</time>
      </trkpt>
      <trkpt lat="49.91324" lon="2.38791">
        <ele>65.3</ele>
        <time>2022-02-11T14:24:02Z</time>
      </trkpt>
      <trkpt lat="49.91324" lon="2.38793">
        <ele>65.4</ele>
        <time>2022-02-11T14:24:03Z</time>
      </trkpt>
      <trkpt lat="49.91325" lon="2.38794">
        <ele>65.4</ele>
        <time>2022-02-11T14:24:05Z</time>
      </trkpt>
      <trkpt lat="49.91327" lon="2.38796">
        <ele>65.4</ele>
        <time>2022-02-11T14:24:06Z</time>
      </trkpt>
      <trkpt lat="49.91328" lon="2.38797">
        <ele>65.4</ele>
        <time>2022-02-11T14:24:07Z</time>
      </trkpt>
      <trkpt lat="49.91328" lon="2.38798">
        <ele>65.5</ele>
        <time>2022-02-11T14:24:08Z</time>
      </trkpt>
      <trkpt lat="49.9133" lon="2.388">
        <ele>65.5</ele>
        <time>2022-02-11T14:24:09Z</time>
      </trkpt>
      <trkpt lat="49.91331" lon="2.38801">
        <ele>65.5</ele>
        <time>2022-02-11T14:24:10Z</time>
      </trkpt>
      <trkpt lat="49.91331" lon="2.38802">
        <ele>65.5</ele>
        <time>2022-02-11T14:24:11Z</time>
      </trkpt>
      <trkpt lat="49.91333" lon="2.38804">
        <ele>65.6</ele>
        <time>2022-02-11T14:24:13Z</time>
      </trkpt>
      <trkpt lat="49.91334" lon="2.38804">
        <ele>65.6</ele>
        <time>2022-02-11T14:24:14Z</time>
      </trkpt>
      <trkpt lat="49.91335" lon="2.38805">
        <ele>65.6</ele>
        <time>2022-02-11T14:24:15Z</time>
      </trkpt>
      <trkpt lat="49.91337" lon="2.38807">
        <ele>65.7</ele>
        <time>2022-02-11T14:24:16Z</time>
      </trkpt>
      <trkpt lat="49.91337" lon="2.38808">
        <ele>65.7</ele>
        <time>2022-02-11T14:24:17Z</time>
      </trkpt>
      <trkpt lat="49.91338" lon="2.38809">
        <ele>65.7</ele>
        <time>2022-02-11T14:24:18Z</time>
      </trkpt>
      <trkpt lat="49.91339" lon="2.3881">
        <ele>65.7</ele>
        <time>2022-02-11T14:24:20Z</time>
      </trkpt>
      <trkpt lat="49.9134" lon="2.38811">
        <ele>65.7</ele>
        <time>2022-02-11T14:24:21Z</time>
      </trkpt>
      <trkpt lat="49.91341" lon="2.38812">
        <ele>65.7</ele>
        <time>2022-02-11T14:24:22Z</time>
      </trkpt>
      <trkpt lat="49.91342" lon="2.38813">
        <ele>65.7</ele>
        <time>2022-02-11T14:24:23Z</time>
      </trkpt>
      <trkpt lat="49.91343" lon="2.38815">
        <ele>65.7</ele>
        <time>2022-02-11T14:24:24Z</time>
      </trkpt>
      <trkpt lat="49.91344" lon="2.38816">
        <ele>65.7</ele>
        <time>2022-02-11T14:24:25Z</time>
      </trkpt>
      <trkpt lat="49.91345" lon="2.38817">
        <ele>65.7</ele>
        <time>2022-02-11T14:24:27Z</time>
      </trkpt>
      <trkpt lat="49.91346" lon="2.38818">
        <ele>65.7</ele>
        <time>2022-02-11T14:24:28Z</time>
      </trkpt>
      <trkpt lat="49.91346" lon="2.38819">
        <ele>65.7</ele>
        <time>2022-02-11T14:24:29Z</time>
      </trkpt>
      <trkpt lat="49.91347" lon="2.3882">
        <ele>65.7</ele>
        <time>2022-02-11T14:24:30Z</time>
      </trkpt>
      <trkpt lat="49.91348" lon="2.38821">
        <ele>65.7</ele>
        <time>2022-02-11T14:24:31Z</time>
      </trkpt>
      <trkpt lat="49.91349" lon="2.38822">
        <ele>65.7</ele>
        <time>2022-02-11T14:24:33Z</time>
      </trkpt>
      <trkpt lat="49.9135" lon="2.38823">
        <ele>65.7</ele>
        <time>2022-02-11T14:24:34Z</time>
      </trkpt>
      <trkpt lat="49.91351" lon="2.38824">
        <ele>65.7</ele>
        <time>2022-02-11T14:24:35Z</time>
      </trkpt>
      <trkpt lat="49.91352" lon="2.38824">
        <ele>65.7</ele>
        <time>2022-02-11T14:24:36Z</time>
      </trkpt>
      <trkpt lat="49.91353" lon="2.38825">
        <ele>65.7</ele>
        <time>2022-02-11T14:24:37Z</time>
      </trkpt>
      <trkpt lat="49.91354" lon="2.38826">
        <ele>65.7</ele>
        <time>2022-02-11T14:24:38Z</time>
      </trkpt>
      <trkpt lat="49.91355" lon="2.38827">
        <ele>65.7</ele>
        <time>2022-02-11T14:24:40Z</time>
      </trkpt>
      <trkpt lat="49.91356" lon="2.38828">
        <ele>65.7</ele>
        <time>2022-02-11T14:24:41Z</time>
      </trkpt>
      <trkpt lat="49.91356" lon="2.38829">
        <ele>65.7</ele>
        <time>2022-02-11T14:24:42Z</time>
      </trkpt>
      <trkpt lat="49.91357" lon="2.38831">
        <ele>65.7</ele>
        <time>2022-02-11T14:24:43Z</time>
      </trkpt>
      <trkpt lat="49.91358" lon="2.38832">
        <ele>65.7</ele>
        <time>2022-02-11T14:24:44Z</time>
      </trkpt>
      <trkpt lat="49.91359" lon="2.38832">
        <ele>65.7</ele>
        <time>2022-02-11T14:24:46Z</time>
      </trkpt>
      <trkpt lat="49.91359" lon="2.38833">
        <ele>65.7</ele>
        <time>2022-02-11T14:24:47Z</time>
      </trkpt>
      <trkpt lat="49.9136" lon="2.38833">
        <ele>65.7</ele>
        <time>2022-02-11T14:24:48Z</time>
      </trkpt>
      <trkpt lat="49.9136" lon="2.38834">
        <ele>65.7</ele>
        <time>2022-02-11T14:24:49Z</time>
      </trkpt>
      <trkpt lat="49.91361" lon="2.38834">
        <ele>65.7</ele>
        <time>2022-02-11T14:24:50Z</time>
      </trkpt>
      <trkpt lat="49.91361" lon="2.38834">
        <ele>65.8</ele>
        <time>2022-02-11T14:24:51Z</time>
      </trkpt>
      <trkpt lat="49.91362" lon="2.38834">
        <ele>65.8</ele>
        <time>2022-02-11T14:24:52Z</time>
      </trkpt>
      <trkpt lat="49.91362" lon="2.38834">
        <ele>65.8</ele>
        <time>2022-02-11T14:24:53Z</time>
      </trkpt>
      <trkpt lat="49.91363" lon="2.38835">
        <ele>65.8</ele>
        <time>2022-02-11T14:24:54Z</time>
      </trkpt>
      <trkpt lat="49.91363" lon="2.38835">
        <ele>65.8</ele>
        <time>2022-02-11T14:24:55Z</time>
      </trkpt>
      <trkpt lat="49.91362" lon="2.38836">
        <ele>65.8</ele>
        <time>2022-02-11T14:24:56Z</time>
      </trkpt>
      <trkpt lat="49.91362" lon="2.38836">
        <ele>65.8</ele>
        <time>2022-02-11T14:24:57Z</time>
      </trkpt>
      <trkpt lat="49.91361" lon="2.38836">
        <ele>65.8</ele>
        <time>2022-02-11T14:24:58Z</time>
      </trkpt>
      <trkpt lat="49.91361" lon="2.38836">
        <ele>65.8</ele>
        <time>2022-02-11T14:24:59Z</time>
      </trkpt>
      <trkpt lat="49.91361" lon="2.38836">
        <ele>65.8</ele>
        <time>2022-02-11T14:25:00Z</time>
      </trkpt>
      <trkpt lat="49.91361" lon="2.38836">
        <ele>65.8</ele>
        <time>2022-02-11T14:25:01Z</time>
      </trkpt>
      <trkpt lat="49.91361" lon="2.38836">
        <ele>65.8</ele>
        <time>2022-02-11T14:25:02Z</time>
      </trkpt>
      <trkpt lat="49.91361" lon="2.38835">
        <ele>65.8</ele>
        <time>2022-02-11T14:25:03Z</time>
      </trkpt>
      <trkpt lat="49.9136" lon="2.38835">
        <ele>65.8</ele>
        <time>2022-02-11T14:25:04Z</time>
      </trkpt>
      <trkpt lat="49.9136" lon="2.38835">
        <ele>65.8</ele>
        <time>2022-02-11T14:25:05Z</time>
      </trkpt>
      <trkpt lat="49.9136" lon="2.38835">
        <ele>65.8</ele>
        <time>2022-02-11T14:25:06Z</time>
      </trkpt>
      <trkpt lat="49.9136" lon="2.38835">
        <ele>65.8</ele>
        <time>2022-02-11T14:25:07Z</time>
      </trkpt>
      <trkpt lat="49.9136" lon="2.38835">
        <ele>65.8</ele>
        <time>2022-02-11T14:25:08Z</time>
      </trkpt>
      <trkpt lat="49.9136" lon="2.38835">
        <ele>65.8</ele>
        <time>2022-02-11T14:25:09Z</time>
      </trkpt>
      <trkpt lat="49.9136" lon="2.38835">
        <ele>65.8</ele>
        <time>2022-02-11T14:25:10Z</time>
      </trkpt>
      <trkpt lat="49.9136" lon="2.38835">
        <ele>65.8</ele>
        <time>2022-02-11T14:25:11Z</time>
      </trkpt>
      <trkpt lat="49.9136" lon="2.38835">
        <ele>65.8</ele>
        <time>2022-02-11T14:25:12Z</time>
      </trkpt>
      <trkpt lat="49.9136" lon="2.38834">
        <ele>65.8</ele>
        <time>2022-02-11T14:25:13Z</time>
      </trkpt>
      <trkpt lat="49.9136" lon="2.38834">
        <ele>65.8</ele>
        <time>2022-02-11T14:25:14Z</time>
      </trkpt>
      <trkpt lat="49.9136" lon="2.38834">
        <ele>65.8</ele>
        <time>2022-02-11T14:25:15Z</time>
      </trkpt>
      <trkpt lat="49.9136" lon="2.38834">
        <ele>65.8</ele>
        <time>2022-02-11T14:25:16Z</time>
      </trkpt>
      <trkpt lat="49.9136" lon="2.38834">
        <ele>65.8</ele>
        <time>2022-02-11T14:25:17Z</time>
      </trkpt>
      <trkpt lat="49.9136" lon="2.38834">
        <ele>65.8</ele>
        <time>2022-02-11T14:25:18Z</time>
      </trkpt>
      <trkpt lat="49.9136" lon="2.38834">
        <ele>65.8</ele>
        <time>2022-02-11T14:25:19Z</time>
      </trkpt>
      <trkpt lat="49.9136" lon="2.38834">
        <ele>65.8</ele>
        <time>2022-02-11T14:25:20Z</time>
      </trkpt>
      <trkpt lat="49.9136" lon="2.38833">
        <ele>65.8</ele>
        <time>2022-02-11T14:25:21Z</time>
      </trkpt>
      <trkpt lat="49.9136" lon="2.38833">
        <ele>65.8</ele>
        <time>2022-02-11T14:25:22Z</time>
      </trkpt>
      <trkpt lat="49.9136" lon="2.38833">
        <ele>65.8</ele>
        <time>2022-02-11T14:25:23Z</time>
      </trkpt>
      <trkpt lat="49.9136" lon="2.38833">
        <ele>65.8</ele>
        <time>2022-02-11T14:25:24Z</time>
      </trkpt>
      <trkpt lat="49.9136" lon="2.38833">
        <ele>65.8</ele>
        <time>2022-02-11T14:25:25Z</time>
      </trkpt>
      <trkpt lat="49.9136" lon="2.38833">
        <ele>65.8</ele>
        <time>2022-02-11T14:25:26Z</time>
      </trkpt>
      <trkpt lat="49.9136" lon="2.38833">
        <ele>65.8</ele>
        <time>2022-02-11T14:25:27Z</time>
      </trkpt>
      <trkpt lat="49.9136" lon="2.38833">
        <ele>65.8</ele>
        <time>2022-02-11T14:25:28Z</time>
      </trkpt>
      <trkpt lat="49.9136" lon="2.38833">
        <ele>65.8</ele>
        <time>2022-02-11T14:25:29Z</time>
      </trkpt>
      <trkpt lat="49.9136" lon="2.38833">
        <ele>65.8</ele>
        <time>2022-02-11T14:25:30Z</time>
      </trkpt>
      <trkpt lat="49.9136" lon="2.38833">
        <ele>65.8</ele>
        <time>2022-02-11T14:25:31Z</time>
      </trkpt>
      <trkpt lat="49.9136" lon="2.38833">
        <ele>65.8</ele>
        <time>2022-02-11T14:25:32Z</time>
      </trkpt>
      <trkpt lat="49.9136" lon="2.38833">
        <ele>65.8</ele>
        <time>2022-02-11T14:25:33Z</time>
      </trkpt>
      <trkpt lat="49.9136" lon="2.38833">
        <ele>65.8</ele>
        <time>2022-02-11T14:25:34Z</time>
      </trkpt>
      <trkpt lat="49.9136" lon="2.38833">
        <ele>65.8</ele>
        <time>2022-02-11T14:25:35Z</time>
      </trkpt>
      <trkpt lat="49.9136" lon="2.38833">
        <ele>65.8</ele>
        <time>2022-02-11T14:25:36Z</time>
      </trkpt>
      <trkpt lat="49.9136" lon="2.38833">
        <ele>65.8</ele>
        <time>2022-02-11T14:25:37Z</time>
      </trkpt>
      <trkpt lat="49.9136" lon="2.38833">
        <ele>65.8</ele>
        <time>2022-02-11T14:25:38Z</time>
      </trkpt>
      <trkpt lat="49.9136" lon="2.38833">
        <ele>65.8</ele>
        <time>2022-02-11T14:25:39Z</time>
      </trkpt>
      <trkpt lat="49.9136" lon="2.38833">
        <ele>65.8</ele>
        <time>2022-02-11T14:25:40Z</time>
      </trkpt>
      <trkpt lat="49.9136" lon="2.38833">
        <ele>65.8</ele>
        <time>2022-02-11T14:25:41Z</time>
      </trkpt>
      <trkpt lat="49.9136" lon="2.38833">
        <ele>65.8</ele>
        <time>2022-02-11T14:25:42Z</time>
      </trkpt>
      <trkpt lat="49.9136" lon="2.38833">
        <ele>65.8</ele>
        <time>2022-02-11T14:25:43Z</time>
      </trkpt>
      <trkpt lat="49.9136" lon="2.38833">
        <ele>65.8</ele>
        <time>2022-02-11T14:25:44Z</time>
      </trkpt>
      <trkpt lat="49.9136" lon="2.38833">
        <ele>65.8</ele>
        <time>2022-02-11T14:25:45Z</time>
      </trkpt>
      <trkpt lat="49.9136" lon="2.38833">
        <ele>65.8</ele>
        <time>2022-02-11T14:25:46Z</time>
      </trkpt>
      <trkpt lat="49.9136" lon="2.38833">
        <ele>65.8</ele>
        <time>2022-02-11T14:25:47Z</time>
      </trkpt>
      <trkpt lat="49.9136" lon="2.38833">
        <ele>65.8</ele>
        <time>2022-02-11T14:25:48Z</time>
      </trkpt>
      <trkpt lat="49.9136" lon="2.38833">
        <ele>65.8</ele>
        <time>2022-02-11T14:25:49Z</time>
      </trkpt>
      <trkpt lat="49.9136" lon="2.38833">
        <ele>65.8</ele>
        <time>2022-02-11T14:25:50Z</time>
      </trkpt>
      <trkpt lat="49.9136" lon="2.38833">
        <ele>65.8</ele>
        <time>2022-02-11T14:25:51Z</time>
      </trkpt>
      <trkpt lat="49.9136" lon="2.38833">
        <ele>65.8</ele>
        <time>2022-02-11T14:25:52Z</time>
      </trkpt>
      <trkpt lat="49.9136" lon="2.38833">
        <ele>65.8</ele>
        <time>2022-02-11T14:25:53Z</time>
      </trkpt>
      <trkpt lat="49.9136" lon="2.38833">
        <ele>65.8</ele>
        <time>2022-02-11T14:25:54Z</time>
      </trkpt>
      <trkpt lat="49.9136" lon="2.38833">
        <ele>65.8</ele>
        <time>2022-02-11T14:25:55Z</time>
      </trkpt>
      <trkpt lat="49.9136" lon="2.38833">
        <ele>65.8</ele>
        <time>2022-02-11T14:25:56Z</time>
      </trkpt>
      <trkpt lat="49.9136" lon="2.38833">
        <ele>65.8</ele>
        <time>2022-02-11T14:25:57Z</time>
      </trkpt>
      <trkpt lat="49.9136" lon="2.38833">
        <ele>65.8</ele>
        <time>2022-02-11T14:25:58Z</time>
      </trkpt>
      <trkpt lat="49.9136" lon="2.38833">
        <ele>65.8</ele>
        <time>2022-02-11T14:25:59Z</time>
      </trkpt>
      <trkpt lat="49.9136" lon="2.38833">
        <ele>65.8</ele>
        <time>2022-02-11T14:26:00Z</time>
      </trkpt>
      <trkpt lat="49.9136" lon="2.38833">
        <ele>65.8</ele>
        <time>2022-02-11T14:26:01Z</time>
      </trkpt>
      <trkpt lat="49.9136" lon="2.38833">
        <ele>65.8</ele>
        <time>2022-02-11T14:26:02Z</time>
      </trkpt>
      <trkpt lat="49.9136" lon="2.38833">
        <ele>65.8</ele>
        <time>2022-02-11T14:26:03Z</time>
      </trkpt>
      <trkpt lat="49.9136" lon="2.38833">
        <ele>65.8</ele>
        <time>2022-02-11T14:26:04Z</time>
      </trkpt>
      <trkpt lat="49.9136" lon="2.38833">
        <ele>65.8</ele>
        <time>2022-02-11T14:26:05Z</time>
      </trkpt>
      <trkpt lat="49.9136" lon="2.38833">
        <ele>65.8</ele>
        <time>2022-02-11T14:26:06Z</time>
      </trkpt>
      <trkpt lat="49.9136" lon="2.38833">
        <ele>65.8</ele>
        <time>2022-02-11T14:26:07Z</time>
      </trkpt>
      <trkpt lat="49.91359" lon="2.38833">
        <ele>65.9</ele>
        <time>2022-02-11T14:26:08Z</time>
      </trkpt>
      <trkpt lat="49.91359" lon="2.38833">
        <ele>65.9</ele>
        <time>2022-02-11T14:26:09Z</time>
      </trkpt>
      <trkpt lat="49.91359" lon="2.38833">
        <ele>65.9</ele>
        <time>2022-02-11T14:26:10Z</time>
      </trkpt>
      <trkpt lat="49.91359" lon="2.38832">
        <ele>65.9</ele>
        <time>2022-02-11T14:26:11Z</time>
      </trkpt>
      <trkpt lat="49.91359" lon="2.38832">
        <ele>65.9</ele>
        <time>2022-02-11T14:26:12Z</time>
      </trkpt>
      <trkpt lat="49.91359" lon="2.38832">
        <ele>65.9</ele>
        <time>2022-02-11T14:26:13Z</time>
      </trkpt>
      <trkpt lat="49.9136" lon="2.38833">
        <ele>65.9</ele>
        <time>2022-02-11T14:26:14Z</time>
      </trkpt>
      <trkpt lat="49.9136" lon="2.38833">
        <ele>65.9</ele>
        <time>2022-02-11T14:26:15Z</time>
      </trkpt>
      <trkpt lat="49.9136" lon="2.38833">
        <ele>65.9</ele>
        <time>2022-02-11T14:26:16Z</time>
      </trkpt>
      <trkpt lat="49.9136" lon="2.38833">
        <ele>65.9</ele>
        <time>2022-02-11T14:26:17Z</time>
      </trkpt>
      <trkpt lat="49.9136" lon="2.38833">
        <ele>65.9</ele>
        <time>2022-02-11T14:26:18Z</time>
      </trkpt>
      <trkpt lat="49.9136" lon="2.38833">
        <ele>65.9</ele>
        <time>2022-02-11T14:26:19Z</time>
      </trkpt>
      <trkpt lat="49.9136" lon="2.38833">
        <ele>65.9</ele>
        <time>2022-02-11T14:26:20Z</time>
      </trkpt>
      <trkpt lat="49.9136" lon="2.38833">
        <ele>65.9</ele>
        <time>2022-02-11T14:26:21Z</time>
      </trkpt>
      <trkpt lat="49.9136" lon="2.38833">
        <ele>65.9</ele>
        <time>2022-02-11T14:26:22Z</time>
      </trkpt>
      <trkpt lat="49.9136" lon="2.38833">
        <ele>65.9</ele>
        <time>2022-02-11T14:26:23Z</time>
      </trkpt>
      <trkpt lat="49.9136" lon="2.38833">
        <ele>65.9</ele>
        <time>2022-02-11T14:26:24Z</time>
      </trkpt>
      <trkpt lat="49.9136" lon="2.38833">
        <ele>65.9</ele>
        <time>2022-02-11T14:26:25Z</time>
      </trkpt>
      <trkpt lat="49.9136" lon="2.38833">
        <ele>65.9</ele>
        <time>2022-02-11T14:26:26Z</time>
      </trkpt>
      <trkpt lat="49.9136" lon="2.38833">
        <ele>65.9</ele>
        <time>2022-02-11T14:26:27Z</time>
      </trkpt>
      <trkpt lat="49.9136" lon="2.38833">
        <ele>65.9</ele>
        <time>2022-02-11T14:26:28Z</time>
      </trkpt>
      <trkpt lat="49.9136" lon="2.38833">
        <ele>65.9</ele>
        <time>2022-02-11T14:26:29Z</time>
      </trkpt>
      <trkpt lat="49.9136" lon="2.38833">
        <ele>65.9</ele>
        <time>2022-02-11T14:26:30Z</time>
      </trkpt>
      <trkpt lat="49.9136" lon="2.38833">
        <ele>65.9</ele>
        <time>2022-02-11T14:26:31Z</time>
      </trkpt>
      <trkpt lat="49.9136" lon="2.38833">
        <ele>65.9</ele>
        <time>2022-02-11T14:26:32Z</time>
      </trkpt>
      <trkpt lat="49.9136" lon="2.38833">
        <ele>65.9</ele>
        <time>2022-02-11T14:26:33Z</time>
      </trkpt>
      <trkpt lat="49.91361" lon="2.38832">
        <ele>65.9</ele>
        <time>2022-02-11T14:26:34Z</time>
      </trkpt>
      <trkpt lat="49.91362" lon="2.38831">
        <ele>65.9</ele>
        <time>2022-02-11T14:26:35Z</time>
      </trkpt>
      <trkpt lat="49.91362" lon="2.3883">
        <ele>65.9</ele>
        <time>2022-02-11T14:26:36Z</time>
      </trkpt>
      <trkpt lat="49.91363" lon="2.38829">
        <ele>65.9</ele>
        <time>2022-02-11T14:26:37Z</time>
      </trkpt>
      <trkpt lat="49.91363" lon="2.3883">
        <ele>65.9</ele>
        <time>2022-02-11T14:26:39Z</time>
      </trkpt>
      <trkpt lat="49.91363" lon="2.3883">
        <ele>65.9</ele>
        <time>2022-02-11T14:26:40Z</time>
      </trkpt>
      <trkpt lat="49.91364" lon="2.38829">
        <ele>65.9</ele>
        <time>2022-02-11T14:26:42Z</time>
      </trkpt>
      <trkpt lat="49.91365" lon="2.38828">
        <ele>65.9</ele>
        <time>2022-02-11T14:26:43Z</time>
      </trkpt>
      <trkpt lat="49.91366" lon="2.38828">
        <ele>65.9</ele>
        <time>2022-02-11T14:26:44Z</time>
      </trkpt>
      <trkpt lat="49.91366" lon="2.38827">
        <ele>65.9</ele>
        <time>2022-02-11T14:26:45Z</time>
      </trkpt>
      <trkpt lat="49.91367" lon="2.38826">
        <ele>65.9</ele>
        <time>2022-02-11T14:26:46Z</time>
      </trkpt>
      <trkpt lat="49.91367" lon="2.38825">
        <ele>65.9</ele>
        <time>2022-02-11T14:26:47Z</time>
      </trkpt>
      <trkpt lat="49.91366" lon="2.38825">
        <ele>65.9</ele>
        <time>2022-02-11T14:26:48Z</time>
      </trkpt>
      <trkpt lat="49.91366" lon="2.38825">
        <ele>65.9</ele>
        <time>2022-02-11T14:26:49Z</time>
      </trkpt>
      <trkpt lat="49.91366" lon="2.38825">
        <ele>65.9</ele>
        <time>2022-02-11T14:26:50Z</time>
      </trkpt>
      <trkpt lat="49.91366" lon="2.38825">
        <ele>65.9</ele>
        <time>2022-02-11T14:26:51Z</time>
      </trkpt>
      <trkpt lat="49.91366" lon="2.38825">
        <ele>65.9</ele>
        <time>2022-02-11T14:26:52Z</time>
      </trkpt>
      <trkpt lat="49.91366" lon="2.38825">
        <ele>65.9</ele>
        <time>2022-02-11T14:26:53Z</time>
      </trkpt>
      <trkpt lat="49.91366" lon="2.38825">
        <ele>65.9</ele>
        <time>2022-02-11T14:26:54Z</time>
      </trkpt>
      <trkpt lat="49.91366" lon="2.38825">
        <ele>65.9</ele>
        <time>2022-02-11T14:26:55Z</time>
      </trkpt>
      <trkpt lat="49.91366" lon="2.38825">
        <ele>65.9</ele>
        <time>2022-02-11T14:26:56Z</time>
      </trkpt>
      <trkpt lat="49.91366" lon="2.38825">
        <ele>65.9</ele>
        <time>2022-02-11T14:26:57Z</time>
      </trkpt>
      <trkpt lat="49.91366" lon="2.38825">
        <ele>65.9</ele>
        <time>2022-02-11T14:26:58Z</time>
      </trkpt>
      <trkpt lat="49.91366" lon="2.38824">
        <ele>65.9</ele>
        <time>2022-02-11T14:26:59Z</time>
      </trkpt>
      <trkpt lat="49.91366" lon="2.38824">
        <ele>65.9</ele>
        <time>2022-02-11T14:27:00Z</time>
      </trkpt>
      <trkpt lat="49.91366" lon="2.38825">
        <ele>65.9</ele>
        <time>2022-02-11T14:27:01Z</time>
      </trkpt>
      <trkpt lat="49.91366" lon="2.38825">
        <ele>65.9</ele>
        <time>2022-02-11T14:27:02Z</time>
      </trkpt>
      <trkpt lat="49.91366" lon="2.38825">
        <ele>65.9</ele>
        <time>2022-02-11T14:27:03Z</time>
      </trkpt>
      <trkpt lat="49.91366" lon="2.38825">
        <ele>65.9</ele>
        <time>2022-02-11T14:27:04Z</time>
      </trkpt>
      <trkpt lat="49.91366" lon="2.38825">
        <ele>65.9</ele>
        <time>2022-02-11T14:27:05Z</time>
      </trkpt>
      <trkpt lat="49.91366" lon="2.38825">
        <ele>65.9</ele>
        <time>2022-02-11T14:27:06Z</time>
      </trkpt>
      <trkpt lat="49.91365" lon="2.38826">
        <ele>65.9</ele>
        <time>2022-02-11T14:27:07Z</time>
      </trkpt>
      <trkpt lat="49.91365" lon="2.38826">
        <ele>65.9</ele>
        <time>2022-02-11T14:27:08Z</time>
      </trkpt>
      <trkpt lat="49.91366" lon="2.38825">
        <ele>65.9</ele>
        <time>2022-02-11T14:27:09Z</time>
      </trkpt>
      <trkpt lat="49.91367" lon="2.38823">
        <ele>65.9</ele>
        <time>2022-02-11T14:27:11Z</time>
      </trkpt>
      <trkpt lat="49.91367" lon="2.38822">
        <ele>65.9</ele>
        <time>2022-02-11T14:27:12Z</time>
      </trkpt>
      <trkpt lat="49.91367" lon="2.38821">
        <ele>65.9</ele>
        <time>2022-02-11T14:27:14Z</time>
      </trkpt>
      <trkpt lat="49.91367" lon="2.3882">
        <ele>65.9</ele>
        <time>2022-02-11T14:27:15Z</time>
      </trkpt>
      <trkpt lat="49.91368" lon="2.38819">
        <ele>65.9</ele>
        <time>2022-02-11T14:27:16Z</time>
      </trkpt>
      <trkpt lat="49.91368" lon="2.38818">
        <ele>65.9</ele>
        <time>2022-02-11T14:27:17Z</time>
      </trkpt>
      <trkpt lat="49.91368" lon="2.38816">
        <ele>65.9</ele>
        <time>2022-02-11T14:27:18Z</time>
      </trkpt>
      <trkpt lat="49.91368" lon="2.38815">
        <ele>65.9</ele>
        <time>2022-02-11T14:27:19Z</time>
      </trkpt>
      <trkpt lat="49.91369" lon="2.38814">
        <ele>65.9</ele>
        <time>2022-02-11T14:27:20Z</time>
      </trkpt>
      <trkpt lat="49.91369" lon="2.38812">
        <ele>65.9</ele>
        <time>2022-02-11T14:27:21Z</time>
      </trkpt>
      <trkpt lat="49.91369" lon="2.38811">
        <ele>65.9</ele>
        <time>2022-02-11T14:27:22Z</time>
      </trkpt>
      <trkpt lat="49.9137" lon="2.38808">
        <ele>65.9</ele>
        <time>2022-02-11T14:27:24Z</time>
      </trkpt>
      <trkpt lat="49.9137" lon="2.38807">
        <ele>65.9</ele>
        <time>2022-02-11T14:27:25Z</time>
      </trkpt>
      <trkpt lat="49.9137" lon="2.38805">
        <ele>65.9</ele>
        <time>2022-02-11T14:27:26Z</time>
      </trkpt>
      <trkpt lat="49.91371" lon="2.38803">
        <ele>65.9</ele>
        <time>2022-02-11T14:27:27Z</time>
      </trkpt>
      <trkpt lat="49.91371" lon="2.38802">
        <ele>66</ele>
        <time>2022-02-11T14:27:28Z</time>
      </trkpt>
      <trkpt lat="49.91371" lon="2.388">
        <ele>66</ele>
        <time>2022-02-11T14:27:29Z</time>
      </trkpt>
      <trkpt lat="49.91372" lon="2.38798">
        <ele>66</ele>
        <time>2022-02-11T14:27:31Z</time>
      </trkpt>
      <trkpt lat="49.91372" lon="2.38796">
        <ele>66</ele>
        <time>2022-02-11T14:27:32Z</time>
      </trkpt>
      <trkpt lat="49.91373" lon="2.38795">
        <ele>66</ele>
        <time>2022-02-11T14:27:33Z</time>
      </trkpt>
      <trkpt lat="49.91374" lon="2.38794">
        <ele>66</ele>
        <time>2022-02-11T14:27:34Z</time>
      </trkpt>
      <trkpt lat="49.91375" lon="2.38792">
        <ele>66</ele>
        <time>2022-02-11T14:27:35Z</time>
      </trkpt>
      <trkpt lat="49.91376" lon="2.38791">
        <ele>66</ele>
        <time>2022-02-11T14:27:36Z</time>
      </trkpt>
      <trkpt lat="49.91376" lon="2.3879">
        <ele>66</ele>
        <time>2022-02-11T14:27:38Z</time>
      </trkpt>
      <trkpt lat="49.91378" lon="2.38787">
        <ele>66</ele>
        <time>2022-02-11T14:27:39Z</time>
      </trkpt>
      <trkpt lat="49.91379" lon="2.38786">
        <ele>66</ele>
        <time>2022-02-11T14:27:40Z</time>
      </trkpt>
      <trkpt lat="49.91379" lon="2.38785">
        <ele>66</ele>
        <time>2022-02-11T14:27:41Z</time>
      </trkpt>
      <trkpt lat="49.9138" lon="2.38784">
        <ele>66</ele>
        <time>2022-02-11T14:27:42Z</time>
      </trkpt>
      <trkpt lat="49.91381" lon="2.38783">
        <ele>66</ele>
        <time>2022-02-11T14:27:43Z</time>
      </trkpt>
      <trkpt lat="49.91382" lon="2.38781">
        <ele>66</ele>
        <time>2022-02-11T14:27:45Z</time>
      </trkpt>
      <trkpt lat="49.91383" lon="2.3878">
        <ele>66</ele>
        <time>2022-02-11T14:27:46Z</time>
      </trkpt>
      <trkpt lat="49.91383" lon="2.38778">
        <ele>66</ele>
        <time>2022-02-11T14:27:47Z</time>
      </trkpt>
      <trkpt lat="49.91384" lon="2.38777">
        <ele>66</ele>
        <time>2022-02-11T14:27:48Z</time>
      </trkpt>
      <trkpt lat="49.91385" lon="2.38774">
        <ele>66</ele>
        <time>2022-02-11T14:27:49Z</time>
      </trkpt>
      <trkpt lat="49.91386" lon="2.38773">
        <ele>66</ele>
        <time>2022-02-11T14:27:51Z</time>
      </trkpt>
      <trkpt lat="49.91386" lon="2.38772">
        <ele>66</ele>
        <time>2022-02-11T14:27:52Z</time>
      </trkpt>
      <trkpt lat="49.91387" lon="2.38769">
        <ele>66</ele>
        <time>2022-02-11T14:27:53Z</time>
      </trkpt>
      <trkpt lat="49.91387" lon="2.38768">
        <ele>66</ele>
        <time>2022-02-11T14:27:54Z</time>
      </trkpt>
      <trkpt lat="49.91388" lon="2.38767">
        <ele>66</ele>
        <time>2022-02-11T14:27:55Z</time>
      </trkpt>
      <trkpt lat="49.91388" lon="2.38765">
        <ele>66</ele>
        <time>2022-02-11T14:27:56Z</time>
      </trkpt>
      <trkpt lat="49.91389" lon="2.38763">
        <ele>66</ele>
        <time>2022-02-11T14:27:57Z</time>
      </trkpt>
      <trkpt lat="49.91389" lon="2.38761">
        <ele>66</ele>
        <time>2022-02-11T14:27:59Z</time>
      </trkpt>
      <trkpt lat="49.9139" lon="2.38758">
        <ele>66</ele>
        <time>2022-02-11T14:28:00Z</time>
      </trkpt>
      <trkpt lat="49.9139" lon="2.38757">
        <ele>66</ele>
        <time>2022-02-11T14:28:01Z</time>
      </trkpt>
      <trkpt lat="49.91391" lon="2.38756">
        <ele>66</ele>
        <time>2022-02-11T14:28:02Z</time>
      </trkpt>
      <trkpt lat="49.91392" lon="2.38753">
        <ele>66</ele>
        <time>2022-02-11T14:28:03Z</time>
      </trkpt>
      <trkpt lat="49.91392" lon="2.38752">
        <ele>66</ele>
        <time>2022-02-11T14:28:04Z</time>
      </trkpt>
      <trkpt lat="49.91392" lon="2.38751">
        <ele>66</ele>
        <time>2022-02-11T14:28:05Z</time>
      </trkpt>
      <trkpt lat="49.91394" lon="2.38748">
        <ele>66</ele>
        <time>2022-02-11T14:28:07Z</time>
      </trkpt>
      <trkpt lat="49.91394" lon="2.38747">
        <ele>66</ele>
        <time>2022-02-11T14:28:08Z</time>
      </trkpt>
      <trkpt lat="49.91395" lon="2.38746">
        <ele>66</ele>
        <time>2022-02-11T14:28:09Z</time>
      </trkpt>
      <trkpt lat="49.91395" lon="2.38744">
        <ele>66</ele>
        <time>2022-02-11T14:28:10Z</time>
      </trkpt>
      <trkpt lat="49.91396" lon="2.38742">
        <ele>66</ele>
        <time>2022-02-11T14:28:11Z</time>
      </trkpt>
      <trkpt lat="49.91397" lon="2.38741">
        <ele>66</ele>
        <time>2022-02-11T14:28:12Z</time>
      </trkpt>
      <trkpt lat="49.91398" lon="2.38739">
        <ele>66</ele>
        <time>2022-02-11T14:28:13Z</time>
      </trkpt>
      <trkpt lat="49.91398" lon="2.38737">
        <ele>66</ele>
        <time>2022-02-11T14:28:15Z</time>
      </trkpt>
      <trkpt lat="49.914" lon="2.38734">
        <ele>66</ele>
        <time>2022-02-11T14:28:16Z</time>
      </trkpt>
      <trkpt lat="49.914" lon="2.38733">
        <ele>66</ele>
        <time>2022-02-11T14:28:17Z</time>
      </trkpt>
      <trkpt lat="49.914" lon="2.38731">
        <ele>66</ele>
        <time>2022-02-11T14:28:18Z</time>
      </trkpt>
      <trkpt lat="49.91401" lon="2.38728">
        <ele>66</ele>
        <time>2022-02-11T14:28:19Z</time>
      </trkpt>
      <trkpt lat="49.91402" lon="2.38727">
        <ele>66</ele>
        <time>2022-02-11T14:28:21Z</time>
      </trkpt>
      <trkpt lat="49.91402" lon="2.38725">
        <ele>66</ele>
        <time>2022-02-11T14:28:22Z</time>
      </trkpt>
      <trkpt lat="49.91403" lon="2.38724">
        <ele>66</ele>
        <time>2022-02-11T14:28:23Z</time>
      </trkpt>
      <trkpt lat="49.91403" lon="2.38722">
        <ele>66</ele>
        <time>2022-02-11T14:28:24Z</time>
      </trkpt>
      <trkpt lat="49.91403" lon="2.38721">
        <ele>66</ele>
        <time>2022-02-11T14:28:25Z</time>
      </trkpt>
      <trkpt lat="49.91404" lon="2.38719">
        <ele>66</ele>
        <time>2022-02-11T14:28:26Z</time>
      </trkpt>
      <trkpt lat="49.91404" lon="2.38717">
        <ele>66</ele>
        <time>2022-02-11T14:28:28Z</time>
      </trkpt>
      <trkpt lat="49.91405" lon="2.38716">
        <ele>66</ele>
        <time>2022-02-11T14:28:29Z</time>
      </trkpt>
      <trkpt lat="49.91405" lon="2.38714">
        <ele>66</ele>
        <time>2022-02-11T14:28:30Z</time>
      </trkpt>
      <trkpt lat="49.91406" lon="2.38713">
        <ele>66</ele>
        <time>2022-02-11T14:28:31Z</time>
      </trkpt>
      <trkpt lat="49.91407" lon="2.3871">
        <ele>66</ele>
        <time>2022-02-11T14:28:33Z</time>
      </trkpt>
      <trkpt lat="49.91407" lon="2.38709">
        <ele>66</ele>
        <time>2022-02-11T14:28:34Z</time>
      </trkpt>
      <trkpt lat="49.91407" lon="2.38708">
        <ele>66</ele>
        <time>2022-02-11T14:28:35Z</time>
      </trkpt>
      <trkpt lat="49.91408" lon="2.38706">
        <ele>66</ele>
        <time>2022-02-11T14:28:36Z</time>
      </trkpt>
      <trkpt lat="49.91408" lon="2.38704">
        <ele>66</ele>
        <time>2022-02-11T14:28:37Z</time>
      </trkpt>
      <trkpt lat="49.91409" lon="2.38703">
        <ele>66</ele>
        <time>2022-02-11T14:28:38Z</time>
      </trkpt>
      <trkpt lat="49.9141" lon="2.387">
        <ele>66</ele>
        <time>2022-02-11T14:28:39Z</time>
      </trkpt>
      <trkpt lat="49.9141" lon="2.38699">
        <ele>66</ele>
        <time>2022-02-11T14:28:41Z</time>
      </trkpt>
      <trkpt lat="49.91411" lon="2.38698">
        <ele>66</ele>
        <time>2022-02-11T14:28:42Z</time>
      </trkpt>
      <trkpt lat="49.91411" lon="2.38697">
        <ele>66</ele>
        <time>2022-02-11T14:28:43Z</time>
      </trkpt>
      <trkpt lat="49.91412" lon="2.38696">
        <ele>66</ele>
        <time>2022-02-11T14:28:44Z</time>
      </trkpt>
      <trkpt lat="49.91413" lon="2.38695">
        <ele>66</ele>
        <time>2022-02-11T14:28:45Z</time>
      </trkpt>
      <trkpt lat="49.91413" lon="2.38693">
        <ele>66</ele>
        <time>2022-02-11T14:28:46Z</time>
      </trkpt>
      <trkpt lat="49.91414" lon="2.38691">
        <ele>66</ele>
        <time>2022-02-11T14:28:48Z</time>
      </trkpt>
      <trkpt lat="49.91414" lon="2.3869">
        <ele>66</ele>
        <time>2022-02-11T14:28:49Z</time>
      </trkpt>
      <trkpt lat="49.91415" lon="2.38687">
        <ele>66</ele>
        <time>2022-02-11T14:28:50Z</time>
      </trkpt>
      <trkpt lat="49.91415" lon="2.38686">
        <ele>66</ele>
        <time>2022-02-11T14:28:51Z</time>
      </trkpt>
      <trkpt lat="49.91416" lon="2.38685">
        <ele>66</ele>
        <time>2022-02-11T14:28:52Z</time>
      </trkpt>
      <trkpt lat="49.91416" lon="2.38683">
        <ele>66</ele>
        <time>2022-02-11T14:28:53Z</time>
      </trkpt>
      <trkpt lat="49.91417" lon="2.38682">
        <ele>66</ele>
        <time>2022-02-11T14:28:54Z</time>
      </trkpt>
      <trkpt lat="49.91418" lon="2.3868">
        <ele>66</ele>
        <time>2022-02-11T14:28:56Z</time>
      </trkpt>
      <trkpt lat="49.91419" lon="2.38678">
        <ele>66</ele>
        <time>2022-02-11T14:28:57Z</time>
      </trkpt>
      <trkpt lat="49.9142" lon="2.38677">
        <ele>66</ele>
        <time>2022-02-11T14:28:58Z</time>
      </trkpt>
      <trkpt lat="49.9142" lon="2.38676">
        <ele>66</ele>
        <time>2022-02-11T14:28:59Z</time>
      </trkpt>
      <trkpt lat="49.91421" lon="2.38672">
        <ele>66</ele>
        <time>2022-02-11T14:29:00Z</time>
      </trkpt>
      <trkpt lat="49.91422" lon="2.38671">
        <ele>66</ele>
        <time>2022-02-11T14:29:02Z</time>
      </trkpt>
      <trkpt lat="49.91423" lon="2.38669">
        <ele>66</ele>
        <time>2022-02-11T14:29:03Z</time>
      </trkpt>
      <trkpt lat="49.91423" lon="2.38668">
        <ele>66</ele>
        <time>2022-02-11T14:29:04Z</time>
      </trkpt>
      <trkpt lat="49.91424" lon="2.38666">
        <ele>66</ele>
        <time>2022-02-11T14:29:05Z</time>
      </trkpt>
      <trkpt lat="49.91425" lon="2.38663">
        <ele>66.1</ele>
        <time>2022-02-11T14:29:07Z</time>
      </trkpt>
      <trkpt lat="49.91426" lon="2.38662">
        <ele>66.1</ele>
        <time>2022-02-11T14:29:08Z</time>
      </trkpt>
      <trkpt lat="49.91426" lon="2.38661">
        <ele>66.1</ele>
        <time>2022-02-11T14:29:09Z</time>
      </trkpt>
      <trkpt lat="49.91427" lon="2.38659">
        <ele>66.1</ele>
        <time>2022-02-11T14:29:10Z</time>
      </trkpt>
      <trkpt lat="49.91427" lon="2.38657">
        <ele>66.1</ele>
        <time>2022-02-11T14:29:11Z</time>
      </trkpt>
      <trkpt lat="49.91428" lon="2.38656">
        <ele>66.1</ele>
        <time>2022-02-11T14:29:12Z</time>
      </trkpt>
      <trkpt lat="49.91428" lon="2.38655">
        <ele>66.1</ele>
        <time>2022-02-11T14:29:13Z</time>
      </trkpt>
      <trkpt lat="49.91429" lon="2.38653">
        <ele>66.2</ele>
        <time>2022-02-11T14:29:14Z</time>
      </trkpt>
      <trkpt lat="49.9143" lon="2.38651">
        <ele>66.2</ele>
        <time>2022-02-11T14:29:16Z</time>
      </trkpt>
      <trkpt lat="49.9143" lon="2.3865">
        <ele>66.2</ele>
        <time>2022-02-11T14:29:17Z</time>
      </trkpt>
      <trkpt lat="49.91431" lon="2.38648">
        <ele>66.2</ele>
        <time>2022-02-11T14:29:18Z</time>
      </trkpt>
      <trkpt lat="49.91432" lon="2.38646">
        <ele>66.3</ele>
        <time>2022-02-11T14:29:19Z</time>
      </trkpt>
      <trkpt lat="49.91433" lon="2.38645">
        <ele>66.3</ele>
        <time>2022-02-11T14:29:20Z</time>
      </trkpt>
      <trkpt lat="49.91433" lon="2.38644">
        <ele>66.3</ele>
        <time>2022-02-11T14:29:21Z</time>
      </trkpt>
      <trkpt lat="49.91434" lon="2.38641">
        <ele>66.3</ele>
        <time>2022-02-11T14:29:23Z</time>
      </trkpt>
      <trkpt lat="49.91435" lon="2.38639">
        <ele>66.4</ele>
        <time>2022-02-11T14:29:24Z</time>
      </trkpt>
      <trkpt lat="49.91435" lon="2.38638">
        <ele>66.4</ele>
        <time>2022-02-11T14:29:25Z</time>
      </trkpt>
      <trkpt lat="49.91436" lon="2.38635">
        <ele>66.4</ele>
        <time>2022-02-11T14:29:26Z</time>
      </trkpt>
      <trkpt lat="49.91437" lon="2.38634">
        <ele>66.5</ele>
        <time>2022-02-11T14:29:27Z</time>
      </trkpt>
      <trkpt lat="49.91437" lon="2.38633">
        <ele>66.5</ele>
        <time>2022-02-11T14:29:28Z</time>
      </trkpt>
      <trkpt lat="49.91437" lon="2.38631">
        <ele>66.5</ele>
        <time>2022-02-11T14:29:29Z</time>
      </trkpt>
      <trkpt lat="49.91438" lon="2.3863">
        <ele>66.5</ele>
        <time>2022-02-11T14:29:30Z</time>
      </trkpt>
      <trkpt lat="49.91438" lon="2.38628">
        <ele>66.6</ele>
        <time>2022-02-11T14:29:31Z</time>
      </trkpt>
      <trkpt lat="49.91439" lon="2.38627">
        <ele>66.6</ele>
        <time>2022-02-11T14:29:33Z</time>
      </trkpt>
      <trkpt lat="49.91439" lon="2.38625">
        <ele>66.6</ele>
        <time>2022-02-11T14:29:34Z</time>
      </trkpt>
      <trkpt lat="49.9144" lon="2.38623">
        <ele>66.7</ele>
        <time>2022-02-11T14:29:35Z</time>
      </trkpt>
      <trkpt lat="49.9144" lon="2.38622">
        <ele>66.7</ele>
        <time>2022-02-11T14:29:36Z</time>
      </trkpt>
      <trkpt lat="49.91441" lon="2.3862">
        <ele>66.7</ele>
        <time>2022-02-11T14:29:37Z</time>
      </trkpt>
      <trkpt lat="49.91441" lon="2.38619">
        <ele>66.7</ele>
        <time>2022-02-11T14:29:38Z</time>
      </trkpt>
      <trkpt lat="49.91441" lon="2.38618">
        <ele>66.8</ele>
        <time>2022-02-11T14:29:39Z</time>
      </trkpt>
      <trkpt lat="49.91442" lon="2.38617">
        <ele>66.8</ele>
        <time>2022-02-11T14:29:40Z</time>
      </trkpt>
      <trkpt lat="49.91442" lon="2.38615">
        <ele>66.8</ele>
        <time>2022-02-11T14:29:42Z</time>
      </trkpt>
      <trkpt lat="49.91443" lon="2.38614">
        <ele>66.9</ele>
        <time>2022-02-11T14:29:43Z</time>
      </trkpt>
      <trkpt lat="49.91444" lon="2.38612">
        <ele>66.9</ele>
        <time>2022-02-11T14:29:44Z</time>
      </trkpt>
      <trkpt lat="49.91444" lon="2.38611">
        <ele>66.9</ele>
        <time>2022-02-11T14:29:45Z</time>
      </trkpt>
      <trkpt lat="49.91444" lon="2.38609">
        <ele>67</ele>
        <time>2022-02-11T14:29:46Z</time>
      </trkpt>
      <trkpt lat="49.91444" lon="2.38608">
        <ele>67</ele>
        <time>2022-02-11T14:29:47Z</time>
      </trkpt>
      <trkpt lat="49.91445" lon="2.38607">
        <ele>67</ele>
        <time>2022-02-11T14:29:48Z</time>
      </trkpt>
      <trkpt lat="49.91445" lon="2.38606">
        <ele>67.1</ele>
        <time>2022-02-11T14:29:50Z</time>
      </trkpt>
      <trkpt lat="49.91445" lon="2.38605">
        <ele>67.1</ele>
        <time>2022-02-11T14:29:51Z</time>
      </trkpt>
      <trkpt lat="49.91446" lon="2.38604">
        <ele>67.1</ele>
        <time>2022-02-11T14:29:52Z</time>
      </trkpt>
      <trkpt lat="49.91446" lon="2.38602">
        <ele>67.2</ele>
        <time>2022-02-11T14:29:53Z</time>
      </trkpt>
      <trkpt lat="49.91447" lon="2.38601">
        <ele>67.2</ele>
        <time>2022-02-11T14:29:54Z</time>
      </trkpt>
      <trkpt lat="49.91448" lon="2.38599">
        <ele>67.3</ele>
        <time>2022-02-11T14:29:55Z</time>
      </trkpt>
      <trkpt lat="49.91449" lon="2.38598">
        <ele>67.4</ele>
        <time>2022-02-11T14:29:56Z</time>
      </trkpt>
      <trkpt lat="49.9145" lon="2.38596">
        <ele>67.4</ele>
        <time>2022-02-11T14:29:58Z</time>
      </trkpt>
      <trkpt lat="49.9145" lon="2.38595">
        <ele>67.4</ele>
        <time>2022-02-11T14:29:59Z</time>
      </trkpt>
      <trkpt lat="49.91451" lon="2.38594">
        <ele>67.5</ele>
        <time>2022-02-11T14:30:00Z</time>
      </trkpt>
      <trkpt lat="49.91452" lon="2.38593">
        <ele>67.5</ele>
        <time>2022-02-11T14:30:01Z</time>
      </trkpt>
      <trkpt lat="49.91453" lon="2.38592">
        <ele>67.6</ele>
        <time>2022-02-11T14:30:02Z</time>
      </trkpt>
      <trkpt lat="49.91454" lon="2.38591">
        <ele>67.6</ele>
        <time>2022-02-11T14:30:03Z</time>
      </trkpt>
      <trkpt lat="49.91454" lon="2.3859">
        <ele>67.7</ele>
        <time>2022-02-11T14:30:04Z</time>
      </trkpt>
      <trkpt lat="49.91456" lon="2.38587">
        <ele>67.7</ele>
        <time>2022-02-11T14:30:06Z</time>
      </trkpt>
      <trkpt lat="49.91456" lon="2.38586">
        <ele>67.8</ele>
        <time>2022-02-11T14:30:07Z</time>
      </trkpt>
      <trkpt lat="49.91456" lon="2.38585">
        <ele>67.8</ele>
        <time>2022-02-11T14:30:08Z</time>
      </trkpt>
      <trkpt lat="49.91457" lon="2.38583">
        <ele>67.8</ele>
        <time>2022-02-11T14:30:09Z</time>
      </trkpt>
      <trkpt lat="49.91458" lon="2.38581">
        <ele>67.9</ele>
        <time>2022-02-11T14:30:10Z</time>
      </trkpt>
      <trkpt lat="49.91459" lon="2.38579">
        <ele>67.9</ele>
        <time>2022-02-11T14:30:11Z</time>
      </trkpt>
      <trkpt lat="49.9146" lon="2.38577">
        <ele>67.9</ele>
        <time>2022-02-11T14:30:12Z</time>
      </trkpt>
      <trkpt lat="49.9146" lon="2.38576">
        <ele>68</ele>
        <time>2022-02-11T14:30:13Z</time>
      </trkpt>
      <trkpt lat="49.91461" lon="2.38574">
        <ele>68</ele>
        <time>2022-02-11T14:30:14Z</time>
      </trkpt>
      <trkpt lat="49.91461" lon="2.38573">
        <ele>68</ele>
        <time>2022-02-11T14:30:15Z</time>
      </trkpt>
      <trkpt lat="49.91462" lon="2.38571">
        <ele>68</ele>
        <time>2022-02-11T14:30:16Z</time>
      </trkpt>
      <trkpt lat="49.91462" lon="2.38569">
        <ele>68</ele>
        <time>2022-02-11T14:30:18Z</time>
      </trkpt>
      <trkpt lat="49.91463" lon="2.38568">
        <ele>68</ele>
        <time>2022-02-11T14:30:19Z</time>
      </trkpt>
      <trkpt lat="49.91463" lon="2.38567">
        <ele>68</ele>
        <time>2022-02-11T14:30:20Z</time>
      </trkpt>
      <trkpt lat="49.91464" lon="2.38565">
        <ele>68.1</ele>
        <time>2022-02-11T14:30:21Z</time>
      </trkpt>
      <trkpt lat="49.91464" lon="2.38564">
        <ele>68.1</ele>
        <time>2022-02-11T14:30:22Z</time>
      </trkpt>
      <trkpt lat="49.91465" lon="2.38562">
        <ele>68.1</ele>
        <time>2022-02-11T14:30:23Z</time>
      </trkpt>
      <trkpt lat="49.91466" lon="2.38561">
        <ele>68.1</ele>
        <time>2022-02-11T14:30:24Z</time>
      </trkpt>
      <trkpt lat="49.91466" lon="2.3856">
        <ele>68.1</ele>
        <time>2022-02-11T14:30:25Z</time>
      </trkpt>
      <trkpt lat="49.91467" lon="2.38559">
        <ele>68.1</ele>
        <time>2022-02-11T14:30:26Z</time>
      </trkpt>
      <trkpt lat="49.91467" lon="2.38558">
        <ele>68.1</ele>
        <time>2022-02-11T14:30:27Z</time>
      </trkpt>
      <trkpt lat="49.91468" lon="2.38557">
        <ele>68.2</ele>
        <time>2022-02-11T14:30:28Z</time>
      </trkpt>
      <trkpt lat="49.91468" lon="2.38556">
        <ele>68.2</ele>
        <time>2022-02-11T14:30:29Z</time>
      </trkpt>
      <trkpt lat="49.91469" lon="2.38552">
        <ele>68.2</ele>
        <time>2022-02-11T14:30:31Z</time>
      </trkpt>
      <trkpt lat="49.91469" lon="2.38551">
        <ele>68.2</ele>
        <time>2022-02-11T14:30:32Z</time>
      </trkpt>
      <trkpt lat="49.91469" lon="2.3855">
        <ele>68.2</ele>
        <time>2022-02-11T14:30:33Z</time>
      </trkpt>
      <trkpt lat="49.9147" lon="2.38549">
        <ele>68.3</ele>
        <time>2022-02-11T14:30:34Z</time>
      </trkpt>
      <trkpt lat="49.9147" lon="2.38548">
        <ele>68.3</ele>
        <time>2022-02-11T14:30:35Z</time>
      </trkpt>
      <trkpt lat="49.9147" lon="2.38547">
        <ele>68.3</ele>
        <time>2022-02-11T14:30:36Z</time>
      </trkpt>
      <trkpt lat="49.9147" lon="2.38545">
        <ele>68.3</ele>
        <time>2022-02-11T14:30:37Z</time>
      </trkpt>
      <trkpt lat="49.91471" lon="2.38544">
        <ele>68.3</ele>
        <time>2022-02-11T14:30:39Z</time>
      </trkpt>
      <trkpt lat="49.91471" lon="2.38543">
        <ele>68.4</ele>
        <time>2022-02-11T14:30:40Z</time>
      </trkpt>
      <trkpt lat="49.91472" lon="2.38541">
        <ele>68.4</ele>
        <time>2022-02-11T14:30:41Z</time>
      </trkpt>
      <trkpt lat="49.91472" lon="2.3854">
        <ele>68.4</ele>
        <time>2022-02-11T14:30:42Z</time>
      </trkpt>
      <trkpt lat="49.91473" lon="2.38538">
        <ele>68.4</ele>
        <time>2022-02-11T14:30:43Z</time>
      </trkpt>
      <trkpt lat="49.91473" lon="2.38537">
        <ele>68.5</ele>
        <time>2022-02-11T14:30:44Z</time>
      </trkpt>
      <trkpt lat="49.91474" lon="2.38534">
        <ele>68.5</ele>
        <time>2022-02-11T14:30:45Z</time>
      </trkpt>
      <trkpt lat="49.91475" lon="2.38533">
        <ele>68.5</ele>
        <time>2022-02-11T14:30:46Z</time>
      </trkpt>
      <trkpt lat="49.91475" lon="2.38532">
        <ele>68.6</ele>
        <time>2022-02-11T14:30:47Z</time>
      </trkpt>
      <trkpt lat="49.91476" lon="2.3853">
        <ele>68.6</ele>
        <time>2022-02-11T14:30:48Z</time>
      </trkpt>
      <trkpt lat="49.91477" lon="2.38528">
        <ele>68.6</ele>
        <time>2022-02-11T14:30:50Z</time>
      </trkpt>
      <trkpt lat="49.91478" lon="2.38526">
        <ele>68.7</ele>
        <time>2022-02-11T14:30:51Z</time>
      </trkpt>
      <trkpt lat="49.91479" lon="2.38524">
        <ele>68.7</ele>
        <time>2022-02-11T14:30:52Z</time>
      </trkpt>
      <trkpt lat="49.9148" lon="2.38522">
        <ele>68.7</ele>
        <time>2022-02-11T14:30:53Z</time>
      </trkpt>
      <trkpt lat="49.9148" lon="2.3852">
        <ele>68.8</ele>
        <time>2022-02-11T14:30:54Z</time>
      </trkpt>
      <trkpt lat="49.91482" lon="2.38517">
        <ele>68.8</ele>
        <time>2022-02-11T14:30:55Z</time>
      </trkpt>
      <trkpt lat="49.91482" lon="2.38516">
        <ele>68.8</ele>
        <time>2022-02-11T14:30:56Z</time>
      </trkpt>
      <trkpt lat="49.91482" lon="2.38514">
        <ele>68.9</ele>
        <time>2022-02-11T14:30:57Z</time>
      </trkpt>
      <trkpt lat="49.91483" lon="2.38513">
        <ele>68.9</ele>
        <time>2022-02-11T14:30:58Z</time>
      </trkpt>
      <trkpt lat="49.91483" lon="2.38511">
        <ele>68.9</ele>
        <time>2022-02-11T14:30:59Z</time>
      </trkpt>
      <trkpt lat="49.91484" lon="2.38508">
        <ele>69</ele>
        <time>2022-02-11T14:31:01Z</time>
      </trkpt>
      <trkpt lat="49.91485" lon="2.38506">
        <ele>69</ele>
        <time>2022-02-11T14:31:02Z</time>
      </trkpt>
      <trkpt lat="49.91485" lon="2.38504">
        <ele>69</ele>
        <time>2022-02-11T14:31:03Z</time>
      </trkpt>
      <trkpt lat="49.91486" lon="2.38502">
        <ele>69.1</ele>
        <time>2022-02-11T14:31:04Z</time>
      </trkpt>
      <trkpt lat="49.91486" lon="2.385">
        <ele>69.1</ele>
        <time>2022-02-11T14:31:05Z</time>
      </trkpt>
      <trkpt lat="49.91487" lon="2.38497">
        <ele>69.1</ele>
        <time>2022-02-11T14:31:06Z</time>
      </trkpt>
      <trkpt lat="49.91487" lon="2.38495">
        <ele>69.1</ele>
        <time>2022-02-11T14:31:07Z</time>
      </trkpt>
      <trkpt lat="49.91487" lon="2.38494">
        <ele>69.1</ele>
        <time>2022-02-11T14:31:08Z</time>
      </trkpt>
      <trkpt lat="49.91488" lon="2.38491">
        <ele>69.2</ele>
        <time>2022-02-11T14:31:09Z</time>
      </trkpt>
      <trkpt lat="49.91488" lon="2.3849">
        <ele>69.2</ele>
        <time>2022-02-11T14:31:10Z</time>
      </trkpt>
      <trkpt lat="49.91489" lon="2.38489">
        <ele>69.2</ele>
        <time>2022-02-11T14:31:11Z</time>
      </trkpt>
      <trkpt lat="49.91489" lon="2.38487">
        <ele>69.2</ele>
        <time>2022-02-11T14:31:12Z</time>
      </trkpt>
      <trkpt lat="49.9149" lon="2.38485">
        <ele>69.2</ele>
        <time>2022-02-11T14:31:14Z</time>
      </trkpt>
      <trkpt lat="49.9149" lon="2.38482">
        <ele>69.3</ele>
        <time>2022-02-11T14:31:15Z</time>
      </trkpt>
      <trkpt lat="49.91491" lon="2.3848">
        <ele>69.3</ele>
        <time>2022-02-11T14:31:16Z</time>
      </trkpt>
      <trkpt lat="49.91492" lon="2.38476">
        <ele>69.3</ele>
        <time>2022-02-11T14:31:17Z</time>
      </trkpt>
      <trkpt lat="49.91492" lon="2.38475">
        <ele>69.3</ele>
        <time>2022-02-11T14:31:18Z</time>
      </trkpt>
      <trkpt lat="49.91493" lon="2.38473">
        <ele>69.3</ele>
        <time>2022-02-11T14:31:19Z</time>
      </trkpt>
      <trkpt lat="49.91493" lon="2.3847">
        <ele>69.3</ele>
        <time>2022-02-11T14:31:20Z</time>
      </trkpt>
      <trkpt lat="49.91494" lon="2.38467">
        <ele>69.4</ele>
        <time>2022-02-11T14:31:21Z</time>
      </trkpt>
      <trkpt lat="49.91494" lon="2.38466">
        <ele>69.4</ele>
        <time>2022-02-11T14:31:22Z</time>
      </trkpt>
      <trkpt lat="49.91495" lon="2.38465">
        <ele>69.4</ele>
        <time>2022-02-11T14:31:23Z</time>
      </trkpt>
      <trkpt lat="49.91495" lon="2.38463">
        <ele>69.4</ele>
        <time>2022-02-11T14:31:24Z</time>
      </trkpt>
      <trkpt lat="49.91496" lon="2.3846">
        <ele>69.4</ele>
        <time>2022-02-11T14:31:25Z</time>
      </trkpt>
      <trkpt lat="49.91497" lon="2.38458">
        <ele>69.4</ele>
        <time>2022-02-11T14:31:27Z</time>
      </trkpt>
      <trkpt lat="49.91497" lon="2.38456">
        <ele>69.4</ele>
        <time>2022-02-11T14:31:28Z</time>
      </trkpt>
      <trkpt lat="49.91498" lon="2.38455">
        <ele>69.4</ele>
        <time>2022-02-11T14:31:29Z</time>
      </trkpt>
      <trkpt lat="49.91498" lon="2.38453">
        <ele>69.4</ele>
        <time>2022-02-11T14:31:30Z</time>
      </trkpt>
      <trkpt lat="49.91499" lon="2.38451">
        <ele>69.4</ele>
        <time>2022-02-11T14:31:31Z</time>
      </trkpt>
      <trkpt lat="49.91499" lon="2.3845">
        <ele>69.4</ele>
        <time>2022-02-11T14:31:32Z</time>
      </trkpt>
      <trkpt lat="49.915" lon="2.38448">
        <ele>69.4</ele>
        <time>2022-02-11T14:31:33Z</time>
      </trkpt>
      <trkpt lat="49.915" lon="2.38446">
        <ele>69.4</ele>
        <time>2022-02-11T14:31:34Z</time>
      </trkpt>
      <trkpt lat="49.91501" lon="2.38444">
        <ele>69.4</ele>
        <time>2022-02-11T14:31:35Z</time>
      </trkpt>
      <trkpt lat="49.91501" lon="2.38443">
        <ele>69.4</ele>
        <time>2022-02-11T14:31:36Z</time>
      </trkpt>
      <trkpt lat="49.91501" lon="2.3844">
        <ele>69.4</ele>
        <time>2022-02-11T14:31:37Z</time>
      </trkpt>
      <trkpt lat="49.91502" lon="2.38439">
        <ele>69.4</ele>
        <time>2022-02-11T14:31:39Z</time>
      </trkpt>
      <trkpt lat="49.91502" lon="2.38437">
        <ele>69.4</ele>
        <time>2022-02-11T14:31:40Z</time>
      </trkpt>
      <trkpt lat="49.91503" lon="2.38435">
        <ele>69.4</ele>
        <time>2022-02-11T14:31:41Z</time>
      </trkpt>
      <trkpt lat="49.91504" lon="2.38434">
        <ele>69.4</ele>
        <time>2022-02-11T14:31:42Z</time>
      </trkpt>
      <trkpt lat="49.91504" lon="2.38432">
        <ele>69.4</ele>
        <time>2022-02-11T14:31:43Z</time>
      </trkpt>
      <trkpt lat="49.91505" lon="2.3843">
        <ele>69.4</ele>
        <time>2022-02-11T14:31:45Z</time>
      </trkpt>
      <trkpt lat="49.91506" lon="2.38428">
        <ele>69.4</ele>
        <time>2022-02-11T14:31:46Z</time>
      </trkpt>
      <trkpt lat="49.91506" lon="2.38426">
        <ele>69.4</ele>
        <time>2022-02-11T14:31:47Z</time>
      </trkpt>
      <trkpt lat="49.91506" lon="2.38425">
        <ele>69.4</ele>
        <time>2022-02-11T14:31:48Z</time>
      </trkpt>
      <trkpt lat="49.91507" lon="2.38423">
        <ele>69.4</ele>
        <time>2022-02-11T14:31:50Z</time>
      </trkpt>
      <trkpt lat="49.91508" lon="2.38421">
        <ele>69.4</ele>
        <time>2022-02-11T14:31:51Z</time>
      </trkpt>
      <trkpt lat="49.91508" lon="2.38418">
        <ele>69.4</ele>
        <time>2022-02-11T14:31:52Z</time>
      </trkpt>
      <trkpt lat="49.91509" lon="2.38416">
        <ele>69.4</ele>
        <time>2022-02-11T14:31:53Z</time>
      </trkpt>
      <trkpt lat="49.9151" lon="2.38414">
        <ele>69.4</ele>
        <time>2022-02-11T14:31:54Z</time>
      </trkpt>
      <trkpt lat="49.9151" lon="2.38412">
        <ele>69.4</ele>
        <time>2022-02-11T14:31:55Z</time>
      </trkpt>
      <trkpt lat="49.91511" lon="2.38411">
        <ele>69.4</ele>
        <time>2022-02-11T14:31:56Z</time>
      </trkpt>
      <trkpt lat="49.91512" lon="2.3841">
        <ele>69.4</ele>
        <time>2022-02-11T14:31:57Z</time>
      </trkpt>
      <trkpt lat="49.91513" lon="2.38409">
        <ele>69.4</ele>
        <time>2022-02-11T14:31:58Z</time>
      </trkpt>
      <trkpt lat="49.91514" lon="2.38408">
        <ele>69.4</ele>
        <time>2022-02-11T14:31:59Z</time>
      </trkpt>
      <trkpt lat="49.91514" lon="2.38406">
        <ele>69.4</ele>
        <time>2022-02-11T14:32:00Z</time>
      </trkpt>
      <trkpt lat="49.91515" lon="2.38404">
        <ele>69.4</ele>
        <time>2022-02-11T14:32:02Z</time>
      </trkpt>
      <trkpt lat="49.91516" lon="2.38402">
        <ele>69.4</ele>
        <time>2022-02-11T14:32:03Z</time>
      </trkpt>
      <trkpt lat="49.91517" lon="2.38401">
        <ele>69.4</ele>
        <time>2022-02-11T14:32:04Z</time>
      </trkpt>
      <trkpt lat="49.91517" lon="2.38399">
        <ele>69.4</ele>
        <time>2022-02-11T14:32:05Z</time>
      </trkpt>
      <trkpt lat="49.91518" lon="2.38397">
        <ele>69.4</ele>
        <time>2022-02-11T14:32:06Z</time>
      </trkpt>
      <trkpt lat="49.91518" lon="2.38396">
        <ele>69.4</ele>
        <time>2022-02-11T14:32:07Z</time>
      </trkpt>
      <trkpt lat="49.91519" lon="2.38393">
        <ele>69.3</ele>
        <time>2022-02-11T14:32:08Z</time>
      </trkpt>
      <trkpt lat="49.9152" lon="2.38392">
        <ele>69.3</ele>
        <time>2022-02-11T14:32:09Z</time>
      </trkpt>
      <trkpt lat="49.9152" lon="2.38391">
        <ele>69.3</ele>
        <time>2022-02-11T14:32:10Z</time>
      </trkpt>
      <trkpt lat="49.91521" lon="2.38389">
        <ele>69.3</ele>
        <time>2022-02-11T14:32:11Z</time>
      </trkpt>
      <trkpt lat="49.91522" lon="2.38388">
        <ele>69.3</ele>
        <time>2022-02-11T14:32:12Z</time>
      </trkpt>
      <trkpt lat="49.91522" lon="2.38386">
        <ele>69.3</ele>
        <time>2022-02-11T14:32:13Z</time>
      </trkpt>
      <trkpt lat="49.91524" lon="2.38384">
        <ele>69.3</ele>
        <time>2022-02-11T14:32:15Z</time>
      </trkpt>
      <trkpt lat="49.91524" lon="2.38383">
        <ele>69.3</ele>
        <time>2022-02-11T14:32:16Z</time>
      </trkpt>
      <trkpt lat="49.91525" lon="2.38381">
        <ele>69.3</ele>
        <time>2022-02-11T14:32:17Z</time>
      </trkpt>
      <trkpt lat="49.91525" lon="2.3838">
        <ele>69.3</ele>
        <time>2022-02-11T14:32:18Z</time>
      </trkpt>
      <trkpt lat="49.91526" lon="2.38378">
        <ele>69.3</ele>
        <time>2022-02-11T14:32:19Z</time>
      </trkpt>
      <trkpt lat="49.91527" lon="2.38376">
        <ele>69.3</ele>
        <time>2022-02-11T14:32:20Z</time>
      </trkpt>
      <trkpt lat="49.91527" lon="2.38375">
        <ele>69.3</ele>
        <time>2022-02-11T14:32:21Z</time>
      </trkpt>
      <trkpt lat="49.91528" lon="2.38373">
        <ele>69.3</ele>
        <time>2022-02-11T14:32:22Z</time>
      </trkpt>
      <trkpt lat="49.91528" lon="2.3837">
        <ele>69.3</ele>
        <time>2022-02-11T14:32:23Z</time>
      </trkpt>
      <trkpt lat="49.91528" lon="2.38369">
        <ele>69.3</ele>
        <time>2022-02-11T14:32:24Z</time>
      </trkpt>
      <trkpt lat="49.91528" lon="2.38367">
        <ele>69.3</ele>
        <time>2022-02-11T14:32:25Z</time>
      </trkpt>
      <trkpt lat="49.91529" lon="2.38365">
        <ele>69.3</ele>
        <time>2022-02-11T14:32:26Z</time>
      </trkpt>
      <trkpt lat="49.91529" lon="2.38363">
        <ele>69.3</ele>
        <time>2022-02-11T14:32:27Z</time>
      </trkpt>
      <trkpt lat="49.91529" lon="2.38361">
        <ele>69.3</ele>
        <time>2022-02-11T14:32:29Z</time>
      </trkpt>
      <trkpt lat="49.9153" lon="2.38359">
        <ele>69.3</ele>
        <time>2022-02-11T14:32:30Z</time>
      </trkpt>
      <trkpt lat="49.9153" lon="2.38356">
        <ele>69.3</ele>
        <time>2022-02-11T14:32:31Z</time>
      </trkpt>
      <trkpt lat="49.91531" lon="2.38355">
        <ele>69.3</ele>
        <time>2022-02-11T14:32:32Z</time>
      </trkpt>
      <trkpt lat="49.91531" lon="2.38353">
        <ele>69.3</ele>
        <time>2022-02-11T14:32:33Z</time>
      </trkpt>
      <trkpt lat="49.91531" lon="2.38351">
        <ele>69.3</ele>
        <time>2022-02-11T14:32:34Z</time>
      </trkpt>
      <trkpt lat="49.91532" lon="2.38349">
        <ele>69.3</ele>
        <time>2022-02-11T14:32:35Z</time>
      </trkpt>
      <trkpt lat="49.91532" lon="2.38347">
        <ele>69.3</ele>
        <time>2022-02-11T14:32:36Z</time>
      </trkpt>
      <trkpt lat="49.91532" lon="2.38345">
        <ele>69.3</ele>
        <time>2022-02-11T14:32:37Z</time>
      </trkpt>
      <trkpt lat="49.91532" lon="2.38342">
        <ele>69.3</ele>
        <time>2022-02-11T14:32:38Z</time>
      </trkpt>
      <trkpt lat="49.91533" lon="2.3834">
        <ele>69.3</ele>
        <time>2022-02-11T14:32:39Z</time>
      </trkpt>
      <trkpt lat="49.91533" lon="2.38339">
        <ele>69.3</ele>
        <time>2022-02-11T14:32:40Z</time>
      </trkpt>
      <trkpt lat="49.91534" lon="2.38336">
        <ele>69.3</ele>
        <time>2022-02-11T14:32:42Z</time>
      </trkpt>
      <trkpt lat="49.91534" lon="2.38335">
        <ele>69.3</ele>
        <time>2022-02-11T14:32:43Z</time>
      </trkpt>
      <trkpt lat="49.91534" lon="2.38333">
        <ele>69.3</ele>
        <time>2022-02-11T14:32:44Z</time>
      </trkpt>
      <trkpt lat="49.91535" lon="2.3833">
        <ele>69.3</ele>
        <time>2022-02-11T14:32:45Z</time>
      </trkpt>
      <trkpt lat="49.91535" lon="2.38329">
        <ele>69.3</ele>
        <time>2022-02-11T14:32:46Z</time>
      </trkpt>
      <trkpt lat="49.91536" lon="2.38328">
        <ele>69.3</ele>
        <time>2022-02-11T14:32:47Z</time>
      </trkpt>
      <trkpt lat="49.91536" lon="2.38326">
        <ele>69.3</ele>
        <time>2022-02-11T14:32:48Z</time>
      </trkpt>
      <trkpt lat="49.91536" lon="2.38325">
        <ele>69.3</ele>
        <time>2022-02-11T14:32:49Z</time>
      </trkpt>
      <trkpt lat="49.91537" lon="2.38323">
        <ele>69.3</ele>
        <time>2022-02-11T14:32:50Z</time>
      </trkpt>
      <trkpt lat="49.91537" lon="2.38322">
        <ele>69.3</ele>
        <time>2022-02-11T14:32:51Z</time>
      </trkpt>
      <trkpt lat="49.91537" lon="2.38321">
        <ele>69.3</ele>
        <time>2022-02-11T14:32:52Z</time>
      </trkpt>
      <trkpt lat="49.91538" lon="2.38319">
        <ele>69.3</ele>
        <time>2022-02-11T14:32:53Z</time>
      </trkpt>
      <trkpt lat="49.91538" lon="2.38318">
        <ele>69.3</ele>
        <time>2022-02-11T14:32:54Z</time>
      </trkpt>
      <trkpt lat="49.91539" lon="2.38317">
        <ele>69.3</ele>
        <time>2022-02-11T14:32:55Z</time>
      </trkpt>
      <trkpt lat="49.9154" lon="2.38315">
        <ele>69.3</ele>
        <time>2022-02-11T14:32:57Z</time>
      </trkpt>
      <trkpt lat="49.9154" lon="2.38313">
        <ele>69.3</ele>
        <time>2022-02-11T14:32:58Z</time>
      </trkpt>
      <trkpt lat="49.91541" lon="2.38311">
        <ele>69.3</ele>
        <time>2022-02-11T14:32:59Z</time>
      </trkpt>
      <trkpt lat="49.91541" lon="2.3831">
        <ele>69.3</ele>
        <time>2022-02-11T14:33:00Z</time>
      </trkpt>
      <trkpt lat="49.91542" lon="2.38308">
        <ele>69.3</ele>
        <time>2022-02-11T14:33:01Z</time>
      </trkpt>
      <trkpt lat="49.91543" lon="2.38307">
        <ele>69.3</ele>
        <time>2022-02-11T14:33:02Z</time>
      </trkpt>
      <trkpt lat="49.91544" lon="2.38304">
        <ele>69.3</ele>
        <time>2022-02-11T14:33:03Z</time>
      </trkpt>
      <trkpt lat="49.91544" lon="2.38303">
        <ele>69.3</ele>
        <time>2022-02-11T14:33:05Z</time>
      </trkpt>
      <trkpt lat="49.91544" lon="2.38301">
        <ele>69.3</ele>
        <time>2022-02-11T14:33:06Z</time>
      </trkpt>
      <trkpt lat="49.91545" lon="2.383">
        <ele>69.3</ele>
        <time>2022-02-11T14:33:07Z</time>
      </trkpt>
      <trkpt lat="49.91545" lon="2.38298">
        <ele>69.3</ele>
        <time>2022-02-11T14:33:08Z</time>
      </trkpt>
      <trkpt lat="49.91546" lon="2.38297">
        <ele>69.3</ele>
        <time>2022-02-11T14:33:09Z</time>
      </trkpt>
      <trkpt lat="49.91547" lon="2.38295">
        <ele>69.2</ele>
        <time>2022-02-11T14:33:10Z</time>
      </trkpt>
      <trkpt lat="49.91548" lon="2.38294">
        <ele>69.2</ele>
        <time>2022-02-11T14:33:11Z</time>
      </trkpt>
      <trkpt lat="49.91548" lon="2.38293">
        <ele>69.2</ele>
        <time>2022-02-11T14:33:12Z</time>
      </trkpt>
      <trkpt lat="49.91549" lon="2.38292">
        <ele>69.2</ele>
        <time>2022-02-11T14:33:13Z</time>
      </trkpt>
      <trkpt lat="49.91549" lon="2.38291">
        <ele>69.2</ele>
        <time>2022-02-11T14:33:15Z</time>
      </trkpt>
      <trkpt lat="49.9155" lon="2.38289">
        <ele>69.2</ele>
        <time>2022-02-11T14:33:16Z</time>
      </trkpt>
      <trkpt lat="49.91551" lon="2.38287">
        <ele>69.2</ele>
        <time>2022-02-11T14:33:17Z</time>
      </trkpt>
      <trkpt lat="49.91552" lon="2.38285">
        <ele>69.2</ele>
        <time>2022-02-11T14:33:18Z</time>
      </trkpt>
      <trkpt lat="49.91552" lon="2.38284">
        <ele>69.1</ele>
        <time>2022-02-11T14:33:19Z</time>
      </trkpt>
      <trkpt lat="49.91553" lon="2.38281">
        <ele>69.1</ele>
        <time>2022-02-11T14:33:21Z</time>
      </trkpt>
      <trkpt lat="49.91554" lon="2.3828">
        <ele>69.1</ele>
        <time>2022-02-11T14:33:22Z</time>
      </trkpt>
      <trkpt lat="49.91555" lon="2.3828">
        <ele>69.1</ele>
        <time>2022-02-11T14:33:23Z</time>
      </trkpt>
      <trkpt lat="49.91555" lon="2.38279">
        <ele>69.1</ele>
        <time>2022-02-11T14:33:24Z</time>
      </trkpt>
      <trkpt lat="49.91556" lon="2.38278">
        <ele>69.1</ele>
        <time>2022-02-11T14:33:25Z</time>
      </trkpt>
      <trkpt lat="49.91557" lon="2.38275">
        <ele>69</ele>
        <time>2022-02-11T14:33:26Z</time>
      </trkpt>
      <trkpt lat="49.91558" lon="2.38274">
        <ele>69</ele>
        <time>2022-02-11T14:33:28Z</time>
      </trkpt>
      <trkpt lat="49.91558" lon="2.38273">
        <ele>69</ele>
        <time>2022-02-11T14:33:29Z</time>
      </trkpt>
      <trkpt lat="49.91559" lon="2.38271">
        <ele>69</ele>
        <time>2022-02-11T14:33:30Z</time>
      </trkpt>
      <trkpt lat="49.9156" lon="2.3827">
        <ele>68.9</ele>
        <time>2022-02-11T14:33:31Z</time>
      </trkpt>
      <trkpt lat="49.91562" lon="2.38267">
        <ele>68.9</ele>
        <time>2022-02-11T14:33:32Z</time>
      </trkpt>
      <trkpt lat="49.91562" lon="2.38267">
        <ele>68.9</ele>
        <time>2022-02-11T14:33:33Z</time>
      </trkpt>
      <trkpt lat="49.91563" lon="2.38266">
        <ele>68.9</ele>
        <time>2022-02-11T14:33:34Z</time>
      </trkpt>
      <trkpt lat="49.91564" lon="2.38264">
        <ele>68.9</ele>
        <time>2022-02-11T14:33:35Z</time>
      </trkpt>
      <trkpt lat="49.91565" lon="2.38262">
        <ele>68.8</ele>
        <time>2022-02-11T14:33:36Z</time>
      </trkpt>
      <trkpt lat="49.91566" lon="2.38259">
        <ele>68.8</ele>
        <time>2022-02-11T14:33:37Z</time>
      </trkpt>
      <trkpt lat="49.91566" lon="2.38258">
        <ele>68.8</ele>
        <time>2022-02-11T14:33:38Z</time>
      </trkpt>
      <trkpt lat="49.91566" lon="2.38256">
        <ele>68.8</ele>
        <time>2022-02-11T14:33:39Z</time>
      </trkpt>
      <trkpt lat="49.91567" lon="2.38254">
        <ele>68.8</ele>
        <time>2022-02-11T14:33:41Z</time>
      </trkpt>
      <trkpt lat="49.91568" lon="2.38252">
        <ele>68.8</ele>
        <time>2022-02-11T14:33:42Z</time>
      </trkpt>
      <trkpt lat="49.91568" lon="2.3825">
        <ele>68.8</ele>
        <time>2022-02-11T14:33:43Z</time>
      </trkpt>
      <trkpt lat="49.91569" lon="2.38248">
        <ele>68.8</ele>
        <time>2022-02-11T14:33:44Z</time>
      </trkpt>
      <trkpt lat="49.9157" lon="2.38247">
        <ele>68.8</ele>
        <time>2022-02-11T14:33:45Z</time>
      </trkpt>
      <trkpt lat="49.91572" lon="2.38244">
        <ele>68.7</ele>
        <time>2022-02-11T14:33:47Z</time>
      </trkpt>
      <trkpt lat="49.91572" lon="2.38242">
        <ele>68.7</ele>
        <time>2022-02-11T14:33:48Z</time>
      </trkpt>
      <trkpt lat="49.91573" lon="2.38241">
        <ele>68.7</ele>
        <time>2022-02-11T14:33:49Z</time>
      </trkpt>
      <trkpt lat="49.91573" lon="2.38239">
        <ele>68.7</ele>
        <time>2022-02-11T14:33:50Z</time>
      </trkpt>
      <trkpt lat="49.91573" lon="2.38237">
        <ele>68.7</ele>
        <time>2022-02-11T14:33:51Z</time>
      </trkpt>
      <trkpt lat="49.91574" lon="2.38235">
        <ele>68.7</ele>
        <time>2022-02-11T14:33:52Z</time>
      </trkpt>
      <trkpt lat="49.91574" lon="2.38233">
        <ele>68.6</ele>
        <time>2022-02-11T14:33:54Z</time>
      </trkpt>
      <trkpt lat="49.91575" lon="2.38231">
        <ele>68.6</ele>
        <time>2022-02-11T14:33:55Z</time>
      </trkpt>
      <trkpt lat="49.91576" lon="2.38229">
        <ele>68.6</ele>
        <time>2022-02-11T14:33:56Z</time>
      </trkpt>
      <trkpt lat="49.91577" lon="2.38226">
        <ele>68.5</ele>
        <time>2022-02-11T14:33:57Z</time>
      </trkpt>
      <trkpt lat="49.91577" lon="2.38225">
        <ele>68.5</ele>
        <time>2022-02-11T14:33:58Z</time>
      </trkpt>
      <trkpt lat="49.91578" lon="2.38224">
        <ele>68.5</ele>
        <time>2022-02-11T14:33:59Z</time>
      </trkpt>
      <trkpt lat="49.91578" lon="2.38222">
        <ele>68.5</ele>
        <time>2022-02-11T14:34:00Z</time>
      </trkpt>
      <trkpt lat="49.91578" lon="2.38221">
        <ele>68.5</ele>
        <time>2022-02-11T14:34:01Z</time>
      </trkpt>
      <trkpt lat="49.91579" lon="2.38219">
        <ele>68.5</ele>
        <time>2022-02-11T14:34:02Z</time>
      </trkpt>
      <trkpt lat="49.91579" lon="2.38217">
        <ele>68.4</ele>
        <time>2022-02-11T14:34:03Z</time>
      </trkpt>
      <trkpt lat="49.9158" lon="2.38215">
        <ele>68.4</ele>
        <time>2022-02-11T14:34:05Z</time>
      </trkpt>
      <trkpt lat="49.9158" lon="2.38213">
        <ele>68.4</ele>
        <time>2022-02-11T14:34:06Z</time>
      </trkpt>
      <trkpt lat="49.91581" lon="2.38211">
        <ele>68.4</ele>
        <time>2022-02-11T14:34:07Z</time>
      </trkpt>
      <trkpt lat="49.91582" lon="2.38209">
        <ele>68.4</ele>
        <time>2022-02-11T14:34:08Z</time>
      </trkpt>
      <trkpt lat="49.91583" lon="2.38208">
        <ele>68.4</ele>
        <time>2022-02-11T14:34:09Z</time>
      </trkpt>
      <trkpt lat="49.91583" lon="2.38206">
        <ele>68.3</ele>
        <time>2022-02-11T14:34:10Z</time>
      </trkpt>
      <trkpt lat="49.91583" lon="2.38205">
        <ele>68.3</ele>
        <time>2022-02-11T14:34:11Z</time>
      </trkpt>
      <trkpt lat="49.91584" lon="2.38204">
        <ele>68.3</ele>
        <time>2022-02-11T14:34:12Z</time>
      </trkpt>
      <trkpt lat="49.91584" lon="2.38202">
        <ele>68.3</ele>
        <time>2022-02-11T14:34:13Z</time>
      </trkpt>
      <trkpt lat="49.91585" lon="2.38199">
        <ele>68.3</ele>
        <time>2022-02-11T14:34:14Z</time>
      </trkpt>
      <trkpt lat="49.91586" lon="2.38198">
        <ele>68.3</ele>
        <time>2022-02-11T14:34:16Z</time>
      </trkpt>
      <trkpt lat="49.91586" lon="2.38197">
        <ele>68.3</ele>
        <time>2022-02-11T14:34:17Z</time>
      </trkpt>
      <trkpt lat="49.91587" lon="2.38194">
        <ele>68.3</ele>
        <time>2022-02-11T14:34:18Z</time>
      </trkpt>
      <trkpt lat="49.91588" lon="2.38193">
        <ele>68.3</ele>
        <time>2022-02-11T14:34:19Z</time>
      </trkpt>
      <trkpt lat="49.91588" lon="2.38192">
        <ele>68.2</ele>
        <time>2022-02-11T14:34:20Z</time>
      </trkpt>
      <trkpt lat="49.91589" lon="2.3819">
        <ele>68.2</ele>
        <time>2022-02-11T14:34:21Z</time>
      </trkpt>
      <trkpt lat="49.9159" lon="2.38189">
        <ele>68.2</ele>
        <time>2022-02-11T14:34:22Z</time>
      </trkpt>
      <trkpt lat="49.91591" lon="2.38188">
        <ele>68.2</ele>
        <time>2022-02-11T14:34:23Z</time>
      </trkpt>
      <trkpt lat="49.91592" lon="2.38186">
        <ele>68.2</ele>
        <time>2022-02-11T14:34:24Z</time>
      </trkpt>
      <trkpt lat="49.91593" lon="2.38185">
        <ele>68.2</ele>
        <time>2022-02-11T14:34:26Z</time>
      </trkpt>
      <trkpt lat="49.91593" lon="2.38184">
        <ele>68.2</ele>
        <time>2022-02-11T14:34:27Z</time>
      </trkpt>
      <trkpt lat="49.91595" lon="2.38182">
        <ele>68.2</ele>
        <time>2022-02-11T14:34:28Z</time>
      </trkpt>
      <trkpt lat="49.91595" lon="2.38181">
        <ele>68.1</ele>
        <time>2022-02-11T14:34:29Z</time>
      </trkpt>
      <trkpt lat="49.91596" lon="2.3818">
        <ele>68.1</ele>
        <time>2022-02-11T14:34:30Z</time>
      </trkpt>
      <trkpt lat="49.91597" lon="2.38178">
        <ele>68.1</ele>
        <time>2022-02-11T14:34:31Z</time>
      </trkpt>
      <trkpt lat="49.91597" lon="2.38177">
        <ele>68.1</ele>
        <time>2022-02-11T14:34:32Z</time>
      </trkpt>
      <trkpt lat="49.91598" lon="2.38175">
        <ele>68.1</ele>
        <time>2022-02-11T14:34:33Z</time>
      </trkpt>
      <trkpt lat="49.91598" lon="2.38173">
        <ele>68.1</ele>
        <time>2022-02-11T14:34:34Z</time>
      </trkpt>
      <trkpt lat="49.91598" lon="2.38171">
        <ele>68.1</ele>
        <time>2022-02-11T14:34:35Z</time>
      </trkpt>
      <trkpt lat="49.91599" lon="2.38169">
        <ele>68.1</ele>
        <time>2022-02-11T14:34:37Z</time>
      </trkpt>
      <trkpt lat="49.91599" lon="2.38166">
        <ele>68</ele>
        <time>2022-02-11T14:34:38Z</time>
      </trkpt>
      <trkpt lat="49.91599" lon="2.38164">
        <ele>68</ele>
        <time>2022-02-11T14:34:39Z</time>
      </trkpt>
      <trkpt lat="49.916" lon="2.38163">
        <ele>68</ele>
        <time>2022-02-11T14:34:40Z</time>
      </trkpt>
      <trkpt lat="49.916" lon="2.38161">
        <ele>68</ele>
        <time>2022-02-11T14:34:41Z</time>
      </trkpt>
      <trkpt lat="49.916" lon="2.3816">
        <ele>68</ele>
        <time>2022-02-11T14:34:42Z</time>
      </trkpt>
      <trkpt lat="49.91601" lon="2.38158">
        <ele>68</ele>
        <time>2022-02-11T14:34:43Z</time>
      </trkpt>
      <trkpt lat="49.91601" lon="2.38156">
        <ele>68</ele>
        <time>2022-02-11T14:34:44Z</time>
      </trkpt>
      <trkpt lat="49.91601" lon="2.38155">
        <ele>68</ele>
        <time>2022-02-11T14:34:45Z</time>
      </trkpt>
      <trkpt lat="49.91602" lon="2.38153">
        <ele>68</ele>
        <time>2022-02-11T14:34:46Z</time>
      </trkpt>
      <trkpt lat="49.91603" lon="2.3815">
        <ele>68</ele>
        <time>2022-02-11T14:34:47Z</time>
      </trkpt>
      <trkpt lat="49.91603" lon="2.38148">
        <ele>68</ele>
        <time>2022-02-11T14:34:49Z</time>
      </trkpt>
      <trkpt lat="49.91603" lon="2.38146">
        <ele>68</ele>
        <time>2022-02-11T14:34:50Z</time>
      </trkpt>
      <trkpt lat="49.91604" lon="2.38145">
        <ele>68</ele>
        <time>2022-02-11T14:34:51Z</time>
      </trkpt>
      <trkpt lat="49.91604" lon="2.38143">
        <ele>68</ele>
        <time>2022-02-11T14:34:52Z</time>
      </trkpt>
      <trkpt lat="49.91605" lon="2.38141">
        <ele>68</ele>
        <time>2022-02-11T14:34:53Z</time>
      </trkpt>
      <trkpt lat="49.91605" lon="2.38139">
        <ele>68</ele>
        <time>2022-02-11T14:34:54Z</time>
      </trkpt>
      <trkpt lat="49.91606" lon="2.38138">
        <ele>68</ele>
        <time>2022-02-11T14:34:55Z</time>
      </trkpt>
      <trkpt lat="49.91607" lon="2.38136">
        <ele>68</ele>
        <time>2022-02-11T14:34:56Z</time>
      </trkpt>
      <trkpt lat="49.91607" lon="2.38135">
        <ele>68.1</ele>
        <time>2022-02-11T14:34:57Z</time>
      </trkpt>
      <trkpt lat="49.91608" lon="2.38133">
        <ele>68.1</ele>
        <time>2022-02-11T14:34:58Z</time>
      </trkpt>
      <trkpt lat="49.91608" lon="2.38132">
        <ele>68.1</ele>
        <time>2022-02-11T14:34:59Z</time>
      </trkpt>
      <trkpt lat="49.91609" lon="2.3813">
        <ele>68.1</ele>
        <time>2022-02-11T14:35:01Z</time>
      </trkpt>
      <trkpt lat="49.9161" lon="2.38128">
        <ele>68.1</ele>
        <time>2022-02-11T14:35:02Z</time>
      </trkpt>
      <trkpt lat="49.9161" lon="2.38126">
        <ele>68.1</ele>
        <time>2022-02-11T14:35:03Z</time>
      </trkpt>
      <trkpt lat="49.91612" lon="2.38123">
        <ele>68.1</ele>
        <time>2022-02-11T14:35:04Z</time>
      </trkpt>
      <trkpt lat="49.91612" lon="2.38122">
        <ele>68.1</ele>
        <time>2022-02-11T14:35:05Z</time>
      </trkpt>
      <trkpt lat="49.91612" lon="2.38121">
        <ele>68.1</ele>
        <time>2022-02-11T14:35:06Z</time>
      </trkpt>
      <trkpt lat="49.91613" lon="2.3812">
        <ele>68.1</ele>
        <time>2022-02-11T14:35:07Z</time>
      </trkpt>
      <trkpt lat="49.91614" lon="2.38118">
        <ele>68.1</ele>
        <time>2022-02-11T14:35:09Z</time>
      </trkpt>
      <trkpt lat="49.91614" lon="2.38117">
        <ele>68.1</ele>
        <time>2022-02-11T14:35:10Z</time>
      </trkpt>
      <trkpt lat="49.91615" lon="2.38114">
        <ele>68.1</ele>
        <time>2022-02-11T14:35:11Z</time>
      </trkpt>
      <trkpt lat="49.91616" lon="2.38113">
        <ele>68.1</ele>
        <time>2022-02-11T14:35:12Z</time>
      </trkpt>
      <trkpt lat="49.91616" lon="2.38111">
        <ele>68.1</ele>
        <time>2022-02-11T14:35:13Z</time>
      </trkpt>
      <trkpt lat="49.91616" lon="2.3811">
        <ele>68.1</ele>
        <time>2022-02-11T14:35:14Z</time>
      </trkpt>
      <trkpt lat="49.91617" lon="2.38109">
        <ele>68.1</ele>
        <time>2022-02-11T14:35:16Z</time>
      </trkpt>
      <trkpt lat="49.91617" lon="2.38107">
        <ele>68.1</ele>
        <time>2022-02-11T14:35:17Z</time>
      </trkpt>
      <trkpt lat="49.91618" lon="2.38107">
        <ele>68.1</ele>
        <time>2022-02-11T14:35:18Z</time>
      </trkpt>
      <trkpt lat="49.91618" lon="2.38106">
        <ele>68.1</ele>
        <time>2022-02-11T14:35:19Z</time>
      </trkpt>
      <trkpt lat="49.91619" lon="2.38106">
        <ele>68.1</ele>
        <time>2022-02-11T14:35:20Z</time>
      </trkpt>
      <trkpt lat="49.91619" lon="2.38104">
        <ele>68.1</ele>
        <time>2022-02-11T14:35:21Z</time>
      </trkpt>
      <trkpt lat="49.9162" lon="2.38102">
        <ele>68.1</ele>
        <time>2022-02-11T14:35:23Z</time>
      </trkpt>
      <trkpt lat="49.9162" lon="2.38101">
        <ele>68.1</ele>
        <time>2022-02-11T14:35:24Z</time>
      </trkpt>
      <trkpt lat="49.9162" lon="2.381">
        <ele>68</ele>
        <time>2022-02-11T14:35:25Z</time>
      </trkpt>
      <trkpt lat="49.9162" lon="2.38099">
        <ele>68</ele>
        <time>2022-02-11T14:35:26Z</time>
      </trkpt>
      <trkpt lat="49.9162" lon="2.38097">
        <ele>68</ele>
        <time>2022-02-11T14:35:27Z</time>
      </trkpt>
      <trkpt lat="49.9162" lon="2.38096">
        <ele>68</ele>
        <time>2022-02-11T14:35:28Z</time>
      </trkpt>
      <trkpt lat="49.91621" lon="2.38094">
        <ele>68</ele>
        <time>2022-02-11T14:35:29Z</time>
      </trkpt>
      <trkpt lat="49.91622" lon="2.38092">
        <ele>68</ele>
        <time>2022-02-11T14:35:31Z</time>
      </trkpt>
      <trkpt lat="49.91622" lon="2.38091">
        <ele>68</ele>
        <time>2022-02-11T14:35:32Z</time>
      </trkpt>
      <trkpt lat="49.91622" lon="2.3809">
        <ele>68</ele>
        <time>2022-02-11T14:35:33Z</time>
      </trkpt>
      <trkpt lat="49.91623" lon="2.38088">
        <ele>68</ele>
        <time>2022-02-11T14:35:34Z</time>
      </trkpt>
      <trkpt lat="49.91624" lon="2.38087">
        <ele>68</ele>
        <time>2022-02-11T14:35:35Z</time>
      </trkpt>
      <trkpt lat="49.91624" lon="2.38086">
        <ele>67.9</ele>
        <time>2022-02-11T14:35:36Z</time>
      </trkpt>
      <trkpt lat="49.91625" lon="2.38085">
        <ele>67.9</ele>
        <time>2022-02-11T14:35:38Z</time>
      </trkpt>
      <trkpt lat="49.91625" lon="2.38084">
        <ele>67.9</ele>
        <time>2022-02-11T14:35:39Z</time>
      </trkpt>
      <trkpt lat="49.91626" lon="2.38083">
        <ele>67.9</ele>
        <time>2022-02-11T14:35:40Z</time>
      </trkpt>
      <trkpt lat="49.91626" lon="2.38082">
        <ele>67.9</ele>
        <time>2022-02-11T14:35:41Z</time>
      </trkpt>
      <trkpt lat="49.91626" lon="2.38081">
        <ele>67.9</ele>
        <time>2022-02-11T14:35:42Z</time>
      </trkpt>
      <trkpt lat="49.91627" lon="2.3808">
        <ele>67.9</ele>
        <time>2022-02-11T14:35:43Z</time>
      </trkpt>
      <trkpt lat="49.91627" lon="2.38078">
        <ele>67.9</ele>
        <time>2022-02-11T14:35:45Z</time>
      </trkpt>
      <trkpt lat="49.91627" lon="2.38077">
        <ele>67.9</ele>
        <time>2022-02-11T14:35:46Z</time>
      </trkpt>
      <trkpt lat="49.91628" lon="2.38075">
        <ele>67.9</ele>
        <time>2022-02-11T14:35:47Z</time>
      </trkpt>
      <trkpt lat="49.91628" lon="2.38074">
        <ele>67.9</ele>
        <time>2022-02-11T14:35:48Z</time>
      </trkpt>
      <trkpt lat="49.91628" lon="2.38074">
        <ele>67.9</ele>
        <time>2022-02-11T14:35:49Z</time>
      </trkpt>
      <trkpt lat="49.91629" lon="2.38072">
        <ele>67.9</ele>
        <time>2022-02-11T14:35:51Z</time>
      </trkpt>
      <trkpt lat="49.91629" lon="2.38071">
        <ele>67.9</ele>
        <time>2022-02-11T14:35:52Z</time>
      </trkpt>
      <trkpt lat="49.9163" lon="2.3807">
        <ele>67.9</ele>
        <time>2022-02-11T14:35:53Z</time>
      </trkpt>
      <trkpt lat="49.91631" lon="2.38069">
        <ele>67.9</ele>
        <time>2022-02-11T14:35:54Z</time>
      </trkpt>
      <trkpt lat="49.91631" lon="2.38067">
        <ele>68</ele>
        <time>2022-02-11T14:35:55Z</time>
      </trkpt>
      <trkpt lat="49.91632" lon="2.38066">
        <ele>68</ele>
        <time>2022-02-11T14:35:57Z</time>
      </trkpt>
      <trkpt lat="49.91633" lon="2.38064">
        <ele>68</ele>
        <time>2022-02-11T14:35:58Z</time>
      </trkpt>
      <trkpt lat="49.91633" lon="2.38063">
        <ele>68</ele>
        <time>2022-02-11T14:35:59Z</time>
      </trkpt>
      <trkpt lat="49.91634" lon="2.38062">
        <ele>68</ele>
        <time>2022-02-11T14:36:00Z</time>
      </trkpt>
      <trkpt lat="49.91634" lon="2.3806">
        <ele>68</ele>
        <time>2022-02-11T14:36:01Z</time>
      </trkpt>
      <trkpt lat="49.91634" lon="2.38059">
        <ele>68</ele>
        <time>2022-02-11T14:36:02Z</time>
      </trkpt>
      <trkpt lat="49.91635" lon="2.38058">
        <ele>68</ele>
        <time>2022-02-11T14:36:03Z</time>
      </trkpt>
      <trkpt lat="49.91635" lon="2.38056">
        <ele>68</ele>
        <time>2022-02-11T14:36:04Z</time>
      </trkpt>
      <trkpt lat="49.91635" lon="2.38054">
        <ele>68</ele>
        <time>2022-02-11T14:36:06Z</time>
      </trkpt>
      <trkpt lat="49.91635" lon="2.38053">
        <ele>68</ele>
        <time>2022-02-11T14:36:07Z</time>
      </trkpt>
      <trkpt lat="49.91636" lon="2.38051">
        <ele>68.1</ele>
        <time>2022-02-11T14:36:08Z</time>
      </trkpt>
      <trkpt lat="49.91636" lon="2.38049">
        <ele>68.1</ele>
        <time>2022-02-11T14:36:09Z</time>
      </trkpt>
      <trkpt lat="49.91636" lon="2.38048">
        <ele>68.1</ele>
        <time>2022-02-11T14:36:10Z</time>
      </trkpt>
      <trkpt lat="49.91637" lon="2.38047">
        <ele>68.1</ele>
        <time>2022-02-11T14:36:11Z</time>
      </trkpt>
      <trkpt lat="49.91637" lon="2.38045">
        <ele>68.1</ele>
        <time>2022-02-11T14:36:12Z</time>
      </trkpt>
      <trkpt lat="49.91638" lon="2.38044">
        <ele>68.1</ele>
        <time>2022-02-11T14:36:13Z</time>
      </trkpt>
      <trkpt lat="49.91639" lon="2.38042">
        <ele>68.1</ele>
        <time>2022-02-11T14:36:14Z</time>
      </trkpt>
      <trkpt lat="49.9164" lon="2.38041">
        <ele>68.1</ele>
        <time>2022-02-11T14:36:16Z</time>
      </trkpt>
      <trkpt lat="49.9164" lon="2.38039">
        <ele>68.1</ele>
        <time>2022-02-11T14:36:17Z</time>
      </trkpt>
      <trkpt lat="49.91641" lon="2.38038">
        <ele>68.1</ele>
        <time>2022-02-11T14:36:18Z</time>
      </trkpt>
      <trkpt lat="49.91642" lon="2.38037">
        <ele>68.1</ele>
        <time>2022-02-11T14:36:19Z</time>
      </trkpt>
      <trkpt lat="49.91643" lon="2.38036">
        <ele>68.1</ele>
        <time>2022-02-11T14:36:20Z</time>
      </trkpt>
      <trkpt lat="49.91644" lon="2.38033">
        <ele>68.1</ele>
        <time>2022-02-11T14:36:21Z</time>
      </trkpt>
      <trkpt lat="49.91644" lon="2.38032">
        <ele>68.1</ele>
        <time>2022-02-11T14:36:23Z</time>
      </trkpt>
      <trkpt lat="49.91645" lon="2.38031">
        <ele>68.1</ele>
        <time>2022-02-11T14:36:24Z</time>
      </trkpt>
      <trkpt lat="49.91646" lon="2.3803">
        <ele>68.1</ele>
        <time>2022-02-11T14:36:25Z</time>
      </trkpt>
      <trkpt lat="49.91646" lon="2.38029">
        <ele>68.1</ele>
        <time>2022-02-11T14:36:26Z</time>
      </trkpt>
      <trkpt lat="49.91647" lon="2.38028">
        <ele>68.1</ele>
        <time>2022-02-11T14:36:27Z</time>
      </trkpt>
      <trkpt lat="49.91648" lon="2.38026">
        <ele>68.1</ele>
        <time>2022-02-11T14:36:29Z</time>
      </trkpt>
      <trkpt lat="49.91649" lon="2.38024">
        <ele>68.1</ele>
        <time>2022-02-11T14:36:30Z</time>
      </trkpt>
      <trkpt lat="49.91649" lon="2.38022">
        <ele>68.1</ele>
        <time>2022-02-11T14:36:31Z</time>
      </trkpt>
      <trkpt lat="49.91649" lon="2.38021">
        <ele>68.1</ele>
        <time>2022-02-11T14:36:32Z</time>
      </trkpt>
      <trkpt lat="49.9165" lon="2.3802">
        <ele>68.1</ele>
        <time>2022-02-11T14:36:33Z</time>
      </trkpt>
      <trkpt lat="49.91651" lon="2.38017">
        <ele>68.1</ele>
        <time>2022-02-11T14:36:35Z</time>
      </trkpt>
      <trkpt lat="49.91651" lon="2.38015">
        <ele>68.1</ele>
        <time>2022-02-11T14:36:36Z</time>
      </trkpt>
      <trkpt lat="49.91652" lon="2.38014">
        <ele>68.1</ele>
        <time>2022-02-11T14:36:37Z</time>
      </trkpt>
      <trkpt lat="49.91652" lon="2.38012">
        <ele>68.1</ele>
        <time>2022-02-11T14:36:38Z</time>
      </trkpt>
      <trkpt lat="49.91652" lon="2.3801">
        <ele>68.1</ele>
        <time>2022-02-11T14:36:39Z</time>
      </trkpt>
      <trkpt lat="49.91653" lon="2.38009">
        <ele>68.1</ele>
        <time>2022-02-11T14:36:40Z</time>
      </trkpt>
      <trkpt lat="49.91653" lon="2.38006">
        <ele>68.1</ele>
        <time>2022-02-11T14:36:41Z</time>
      </trkpt>
      <trkpt lat="49.91653" lon="2.38004">
        <ele>68.1</ele>
        <time>2022-02-11T14:36:43Z</time>
      </trkpt>
      <trkpt lat="49.91654" lon="2.38003">
        <ele>68.1</ele>
        <time>2022-02-11T14:36:44Z</time>
      </trkpt>
      <trkpt lat="49.91654" lon="2.38">
        <ele>68.1</ele>
        <time>2022-02-11T14:36:45Z</time>
      </trkpt>
      <trkpt lat="49.91655" lon="2.37999">
        <ele>68.1</ele>
        <time>2022-02-11T14:36:46Z</time>
      </trkpt>
      <trkpt lat="49.91655" lon="2.37997">
        <ele>68.1</ele>
        <time>2022-02-11T14:36:47Z</time>
      </trkpt>
      <trkpt lat="49.91655" lon="2.37996">
        <ele>68.1</ele>
        <time>2022-02-11T14:36:48Z</time>
      </trkpt>
      <trkpt lat="49.91656" lon="2.37995">
        <ele>68.1</ele>
        <time>2022-02-11T14:36:49Z</time>
      </trkpt>
      <trkpt lat="49.91656" lon="2.37993">
        <ele>68.1</ele>
        <time>2022-02-11T14:36:50Z</time>
      </trkpt>
      <trkpt lat="49.91656" lon="2.3799">
        <ele>68</ele>
        <time>2022-02-11T14:36:51Z</time>
      </trkpt>
      <trkpt lat="49.91657" lon="2.37989">
        <ele>68</ele>
        <time>2022-02-11T14:36:53Z</time>
      </trkpt>
      <trkpt lat="49.91657" lon="2.37987">
        <ele>68</ele>
        <time>2022-02-11T14:36:54Z</time>
      </trkpt>
      <trkpt lat="49.91657" lon="2.37984">
        <ele>68</ele>
        <time>2022-02-11T14:36:55Z</time>
      </trkpt>
      <trkpt lat="49.91658" lon="2.37983">
        <ele>68</ele>
        <time>2022-02-11T14:36:56Z</time>
      </trkpt>
      <trkpt lat="49.91658" lon="2.37982">
        <ele>68</ele>
        <time>2022-02-11T14:36:57Z</time>
      </trkpt>
      <trkpt lat="49.91659" lon="2.37979">
        <ele>67.9</ele>
        <time>2022-02-11T14:36:58Z</time>
      </trkpt>
      <trkpt lat="49.9166" lon="2.37978">
        <ele>67.9</ele>
        <time>2022-02-11T14:36:59Z</time>
      </trkpt>
      <trkpt lat="49.9166" lon="2.37976">
        <ele>67.9</ele>
        <time>2022-02-11T14:37:01Z</time>
      </trkpt>
      <trkpt lat="49.91661" lon="2.37975">
        <ele>67.9</ele>
        <time>2022-02-11T14:37:02Z</time>
      </trkpt>
      <trkpt lat="49.91661" lon="2.37974">
        <ele>67.8</ele>
        <time>2022-02-11T14:37:03Z</time>
      </trkpt>
      <trkpt lat="49.91662" lon="2.37972">
        <ele>67.8</ele>
        <time>2022-02-11T14:37:04Z</time>
      </trkpt>
      <trkpt lat="49.91662" lon="2.37971">
        <ele>67.8</ele>
        <time>2022-02-11T14:37:05Z</time>
      </trkpt>
      <trkpt lat="49.91663" lon="2.3797">
        <ele>67.8</ele>
        <time>2022-02-11T14:37:06Z</time>
      </trkpt>
      <trkpt lat="49.91664" lon="2.37968">
        <ele>67.8</ele>
        <time>2022-02-11T14:37:07Z</time>
      </trkpt>
      <trkpt lat="49.91665" lon="2.37966">
        <ele>67.7</ele>
        <time>2022-02-11T14:37:08Z</time>
      </trkpt>
      <trkpt lat="49.91666" lon="2.37965">
        <ele>67.7</ele>
        <time>2022-02-11T14:37:10Z</time>
      </trkpt>
      <trkpt lat="49.91666" lon="2.37964">
        <ele>67.7</ele>
        <time>2022-02-11T14:37:11Z</time>
      </trkpt>
      <trkpt lat="49.91667" lon="2.37962">
        <ele>67.7</ele>
        <time>2022-02-11T14:37:12Z</time>
      </trkpt>
      <trkpt lat="49.91668" lon="2.3796">
        <ele>67.6</ele>
        <time>2022-02-11T14:37:13Z</time>
      </trkpt>
      <trkpt lat="49.91669" lon="2.37959">
        <ele>67.6</ele>
        <time>2022-02-11T14:37:14Z</time>
      </trkpt>
      <trkpt lat="49.91669" lon="2.37957">
        <ele>67.6</ele>
        <time>2022-02-11T14:37:15Z</time>
      </trkpt>
      <trkpt lat="49.9167" lon="2.37956">
        <ele>67.6</ele>
        <time>2022-02-11T14:37:16Z</time>
      </trkpt>
      <trkpt lat="49.91671" lon="2.37953">
        <ele>67.5</ele>
        <time>2022-02-11T14:37:18Z</time>
      </trkpt>
      <trkpt lat="49.91671" lon="2.37952">
        <ele>67.5</ele>
        <time>2022-02-11T14:37:19Z</time>
      </trkpt>
      <trkpt lat="49.91672" lon="2.37951">
        <ele>67.5</ele>
        <time>2022-02-11T14:37:20Z</time>
      </trkpt>
      <trkpt lat="49.91672" lon="2.37949">
        <ele>67.5</ele>
        <time>2022-02-11T14:37:21Z</time>
      </trkpt>
      <trkpt lat="49.91673" lon="2.37948">
        <ele>67.5</ele>
        <time>2022-02-11T14:37:22Z</time>
      </trkpt>
      <trkpt lat="49.91673" lon="2.37946">
        <ele>67.4</ele>
        <time>2022-02-11T14:37:23Z</time>
      </trkpt>
      <trkpt lat="49.91674" lon="2.37945">
        <ele>67.4</ele>
        <time>2022-02-11T14:37:24Z</time>
      </trkpt>
      <trkpt lat="49.91674" lon="2.37943">
        <ele>67.4</ele>
        <time>2022-02-11T14:37:26Z</time>
      </trkpt>
      <trkpt lat="49.91675" lon="2.37942">
        <ele>67.4</ele>
        <time>2022-02-11T14:37:27Z</time>
      </trkpt>
      <trkpt lat="49.91676" lon="2.3794">
        <ele>67.4</ele>
        <time>2022-02-11T14:37:28Z</time>
      </trkpt>
      <trkpt lat="49.91676" lon="2.37939">
        <ele>67.4</ele>
        <time>2022-02-11T14:37:29Z</time>
      </trkpt>
      <trkpt lat="49.91677" lon="2.37937">
        <ele>67.3</ele>
        <time>2022-02-11T14:37:30Z</time>
      </trkpt>
      <trkpt lat="49.91677" lon="2.37936">
        <ele>67.3</ele>
        <time>2022-02-11T14:37:31Z</time>
      </trkpt>
      <trkpt lat="49.91678" lon="2.37935">
        <ele>67.3</ele>
        <time>2022-02-11T14:37:32Z</time>
      </trkpt>
      <trkpt lat="49.91678" lon="2.37933">
        <ele>67.3</ele>
        <time>2022-02-11T14:37:33Z</time>
      </trkpt>
      <trkpt lat="49.91679" lon="2.37932">
        <ele>67.3</ele>
        <time>2022-02-11T14:37:35Z</time>
      </trkpt>
      <trkpt lat="49.9168" lon="2.3793">
        <ele>67.3</ele>
        <time>2022-02-11T14:37:36Z</time>
      </trkpt>
      <trkpt lat="49.91681" lon="2.37927">
        <ele>67.3</ele>
        <time>2022-02-11T14:37:37Z</time>
      </trkpt>
      <trkpt lat="49.91681" lon="2.37926">
        <ele>67.3</ele>
        <time>2022-02-11T14:37:38Z</time>
      </trkpt>
      <trkpt lat="49.91682" lon="2.37924">
        <ele>67.3</ele>
        <time>2022-02-11T14:37:39Z</time>
      </trkpt>
      <trkpt lat="49.91682" lon="2.37923">
        <ele>67.3</ele>
        <time>2022-02-11T14:37:40Z</time>
      </trkpt>
      <trkpt lat="49.91682" lon="2.37922">
        <ele>67.3</ele>
        <time>2022-02-11T14:37:41Z</time>
      </trkpt>
      <trkpt lat="49.91683" lon="2.3792">
        <ele>67.3</ele>
        <time>2022-02-11T14:37:42Z</time>
      </trkpt>
      <trkpt lat="49.91683" lon="2.37918">
        <ele>67.3</ele>
        <time>2022-02-11T14:37:44Z</time>
      </trkpt>
      <trkpt lat="49.91684" lon="2.37916">
        <ele>67.3</ele>
        <time>2022-02-11T14:37:45Z</time>
      </trkpt>
      <trkpt lat="49.91685" lon="2.37913">
        <ele>67.3</ele>
        <time>2022-02-11T14:37:46Z</time>
      </trkpt>
      <trkpt lat="49.91685" lon="2.37912">
        <ele>67.3</ele>
        <time>2022-02-11T14:37:47Z</time>
      </trkpt>
      <trkpt lat="49.91685" lon="2.3791">
        <ele>67.3</ele>
        <time>2022-02-11T14:37:48Z</time>
      </trkpt>
      <trkpt lat="49.91686" lon="2.37909">
        <ele>67.3</ele>
        <time>2022-02-11T14:37:49Z</time>
      </trkpt>
      <trkpt lat="49.91686" lon="2.37906">
        <ele>67.3</ele>
        <time>2022-02-11T14:37:51Z</time>
      </trkpt>
      <trkpt lat="49.91686" lon="2.37905">
        <ele>67.3</ele>
        <time>2022-02-11T14:37:52Z</time>
      </trkpt>
      <trkpt lat="49.91686" lon="2.37903">
        <ele>67.3</ele>
        <time>2022-02-11T14:37:53Z</time>
      </trkpt>
      <trkpt lat="49.91686" lon="2.37902">
        <ele>67.3</ele>
        <time>2022-02-11T14:37:55Z</time>
      </trkpt>
      <trkpt lat="49.91687" lon="2.379">
        <ele>67.3</ele>
        <time>2022-02-11T14:37:56Z</time>
      </trkpt>
      <trkpt lat="49.91687" lon="2.37898">
        <ele>67.3</ele>
        <time>2022-02-11T14:37:57Z</time>
      </trkpt>
      <trkpt lat="49.91688" lon="2.37897">
        <ele>67.3</ele>
        <time>2022-02-11T14:37:58Z</time>
      </trkpt>
      <trkpt lat="49.91688" lon="2.37895">
        <ele>67.3</ele>
        <time>2022-02-11T14:37:59Z</time>
      </trkpt>
      <trkpt lat="49.91689" lon="2.37894">
        <ele>67.3</ele>
        <time>2022-02-11T14:38:00Z</time>
      </trkpt>
      <trkpt lat="49.91689" lon="2.37893">
        <ele>67.3</ele>
        <time>2022-02-11T14:38:01Z</time>
      </trkpt>
      <trkpt lat="49.91689" lon="2.37892">
        <ele>67.3</ele>
        <time>2022-02-11T14:38:02Z</time>
      </trkpt>
      <trkpt lat="49.9169" lon="2.3789">
        <ele>67.3</ele>
        <time>2022-02-11T14:38:03Z</time>
      </trkpt>
      <trkpt lat="49.9169" lon="2.37889">
        <ele>67.3</ele>
        <time>2022-02-11T14:38:04Z</time>
      </trkpt>
      <trkpt lat="49.91691" lon="2.37888">
        <ele>67.3</ele>
        <time>2022-02-11T14:38:05Z</time>
      </trkpt>
      <trkpt lat="49.91691" lon="2.37886">
        <ele>67.3</ele>
        <time>2022-02-11T14:38:06Z</time>
      </trkpt>
      <trkpt lat="49.91692" lon="2.37885">
        <ele>67.2</ele>
        <time>2022-02-11T14:38:07Z</time>
      </trkpt>
      <trkpt lat="49.91692" lon="2.37883">
        <ele>67.2</ele>
        <time>2022-02-11T14:38:08Z</time>
      </trkpt>
      <trkpt lat="49.91693" lon="2.37881">
        <ele>67.2</ele>
        <time>2022-02-11T14:38:10Z</time>
      </trkpt>
      <trkpt lat="49.91694" lon="2.37879">
        <ele>67.2</ele>
        <time>2022-02-11T14:38:11Z</time>
      </trkpt>
      <trkpt lat="49.91695" lon="2.37877">
        <ele>67.2</ele>
        <time>2022-02-11T14:38:12Z</time>
      </trkpt>
      <trkpt lat="49.91695" lon="2.37875">
        <ele>67.2</ele>
        <time>2022-02-11T14:38:13Z</time>
      </trkpt>
      <trkpt lat="49.91696" lon="2.37873">
        <ele>67.2</ele>
        <time>2022-02-11T14:38:14Z</time>
      </trkpt>
      <trkpt lat="49.91696" lon="2.37871">
        <ele>67.2</ele>
        <time>2022-02-11T14:38:15Z</time>
      </trkpt>
      <trkpt lat="49.91697" lon="2.37869">
        <ele>67.2</ele>
        <time>2022-02-11T14:38:16Z</time>
      </trkpt>
      <trkpt lat="49.91698" lon="2.37867">
        <ele>67.2</ele>
        <time>2022-02-11T14:38:18Z</time>
      </trkpt>
      <trkpt lat="49.91698" lon="2.37866">
        <ele>67.2</ele>
        <time>2022-02-11T14:38:19Z</time>
      </trkpt>
      <trkpt lat="49.91699" lon="2.37864">
        <ele>67.2</ele>
        <time>2022-02-11T14:38:20Z</time>
      </trkpt>
      <trkpt lat="49.91699" lon="2.37863">
        <ele>67.2</ele>
        <time>2022-02-11T14:38:21Z</time>
      </trkpt>
      <trkpt lat="49.917" lon="2.37861">
        <ele>67.2</ele>
        <time>2022-02-11T14:38:22Z</time>
      </trkpt>
      <trkpt lat="49.917" lon="2.3786">
        <ele>67.3</ele>
        <time>2022-02-11T14:38:23Z</time>
      </trkpt>
      <trkpt lat="49.91701" lon="2.37858">
        <ele>67.3</ele>
        <time>2022-02-11T14:38:24Z</time>
      </trkpt>
      <trkpt lat="49.91702" lon="2.37855">
        <ele>67.3</ele>
        <time>2022-02-11T14:38:26Z</time>
      </trkpt>
      <trkpt lat="49.91702" lon="2.37854">
        <ele>67.3</ele>
        <time>2022-02-11T14:38:27Z</time>
      </trkpt>
      <trkpt lat="49.91703" lon="2.37853">
        <ele>67.3</ele>
        <time>2022-02-11T14:38:28Z</time>
      </trkpt>
      <trkpt lat="49.91703" lon="2.37852">
        <ele>67.3</ele>
        <time>2022-02-11T14:38:29Z</time>
      </trkpt>
      <trkpt lat="49.91704" lon="2.3785">
        <ele>67.3</ele>
        <time>2022-02-11T14:38:31Z</time>
      </trkpt>
      <trkpt lat="49.91704" lon="2.37849">
        <ele>67.3</ele>
        <time>2022-02-11T14:38:32Z</time>
      </trkpt>
      <trkpt lat="49.91705" lon="2.37847">
        <ele>67.3</ele>
        <time>2022-02-11T14:38:33Z</time>
      </trkpt>
      <trkpt lat="49.91705" lon="2.37845">
        <ele>67.3</ele>
        <time>2022-02-11T14:38:34Z</time>
      </trkpt>
      <trkpt lat="49.91705" lon="2.37844">
        <ele>67.3</ele>
        <time>2022-02-11T14:38:36Z</time>
      </trkpt>
      <trkpt lat="49.91706" lon="2.37843">
        <ele>67.3</ele>
        <time>2022-02-11T14:38:37Z</time>
      </trkpt>
      <trkpt lat="49.91707" lon="2.37841">
        <ele>67.3</ele>
        <time>2022-02-11T14:38:38Z</time>
      </trkpt>
      <trkpt lat="49.91707" lon="2.3784">
        <ele>67.3</ele>
        <time>2022-02-11T14:38:39Z</time>
      </trkpt>
      <trkpt lat="49.91708" lon="2.37838">
        <ele>67.3</ele>
        <time>2022-02-11T14:38:40Z</time>
      </trkpt>
      <trkpt lat="49.91708" lon="2.37836">
        <ele>67.3</ele>
        <time>2022-02-11T14:38:41Z</time>
      </trkpt>
      <trkpt lat="49.91709" lon="2.37833">
        <ele>67.3</ele>
        <time>2022-02-11T14:38:42Z</time>
      </trkpt>
      <trkpt lat="49.91709" lon="2.37832">
        <ele>67.3</ele>
        <time>2022-02-11T14:38:44Z</time>
      </trkpt>
      <trkpt lat="49.91709" lon="2.37831">
        <ele>67.3</ele>
        <time>2022-02-11T14:38:45Z</time>
      </trkpt>
      <trkpt lat="49.91709" lon="2.37829">
        <ele>67.3</ele>
        <time>2022-02-11T14:38:46Z</time>
      </trkpt>
      <trkpt lat="49.9171" lon="2.37828">
        <ele>67.3</ele>
        <time>2022-02-11T14:38:47Z</time>
      </trkpt>
      <trkpt lat="49.91711" lon="2.37827">
        <ele>67.3</ele>
        <time>2022-02-11T14:38:48Z</time>
      </trkpt>
      <trkpt lat="49.91711" lon="2.37827">
        <ele>67.3</ele>
        <time>2022-02-11T14:38:49Z</time>
      </trkpt>
      <trkpt lat="49.91712" lon="2.37826">
        <ele>67.3</ele>
        <time>2022-02-11T14:38:50Z</time>
      </trkpt>
      <trkpt lat="49.91712" lon="2.37825">
        <ele>67.3</ele>
        <time>2022-02-11T14:38:52Z</time>
      </trkpt>
      <trkpt lat="49.91713" lon="2.37823">
        <ele>67.3</ele>
        <time>2022-02-11T14:38:53Z</time>
      </trkpt>
      <trkpt lat="49.91713" lon="2.37822">
        <ele>67.3</ele>
        <time>2022-02-11T14:38:54Z</time>
      </trkpt>
      <trkpt lat="49.91713" lon="2.3782">
        <ele>67.3</ele>
        <time>2022-02-11T14:38:55Z</time>
      </trkpt>
      <trkpt lat="49.91713" lon="2.37819">
        <ele>67.3</ele>
        <time>2022-02-11T14:38:57Z</time>
      </trkpt>
      <trkpt lat="49.91713" lon="2.37817">
        <ele>67.3</ele>
        <time>2022-02-11T14:38:58Z</time>
      </trkpt>
      <trkpt lat="49.91714" lon="2.37816">
        <ele>67.3</ele>
        <time>2022-02-11T14:38:59Z</time>
      </trkpt>
      <trkpt lat="49.91714" lon="2.37814">
        <ele>67.3</ele>
        <time>2022-02-11T14:39:00Z</time>
      </trkpt>
      <trkpt lat="49.91714" lon="2.37812">
        <ele>67.3</ele>
        <time>2022-02-11T14:39:01Z</time>
      </trkpt>
      <trkpt lat="49.91715" lon="2.3781">
        <ele>67.3</ele>
        <time>2022-02-11T14:39:02Z</time>
      </trkpt>
      <trkpt lat="49.91715" lon="2.37809">
        <ele>67.3</ele>
        <time>2022-02-11T14:39:04Z</time>
      </trkpt>
      <trkpt lat="49.91715" lon="2.37807">
        <ele>67.3</ele>
        <time>2022-02-11T14:39:05Z</time>
      </trkpt>
      <trkpt lat="49.91716" lon="2.37806">
        <ele>67.3</ele>
        <time>2022-02-11T14:39:06Z</time>
      </trkpt>
      <trkpt lat="49.91716" lon="2.37804">
        <ele>67.3</ele>
        <time>2022-02-11T14:39:07Z</time>
      </trkpt>
      <trkpt lat="49.91716" lon="2.37803">
        <ele>67.3</ele>
        <time>2022-02-11T14:39:08Z</time>
      </trkpt>
      <trkpt lat="49.91717" lon="2.37801">
        <ele>67.3</ele>
        <time>2022-02-11T14:39:10Z</time>
      </trkpt>
      <trkpt lat="49.91718" lon="2.37799">
        <ele>67.2</ele>
        <time>2022-02-11T14:39:11Z</time>
      </trkpt>
      <trkpt lat="49.91719" lon="2.37796">
        <ele>67.2</ele>
        <time>2022-02-11T14:39:12Z</time>
      </trkpt>
      <trkpt lat="49.91719" lon="2.37795">
        <ele>67.2</ele>
        <time>2022-02-11T14:39:13Z</time>
      </trkpt>
      <trkpt lat="49.91719" lon="2.37794">
        <ele>67.2</ele>
        <time>2022-02-11T14:39:14Z</time>
      </trkpt>
      <trkpt lat="49.9172" lon="2.37793">
        <ele>67.2</ele>
        <time>2022-02-11T14:39:15Z</time>
      </trkpt>
      <trkpt lat="49.9172" lon="2.37791">
        <ele>67.2</ele>
        <time>2022-02-11T14:39:16Z</time>
      </trkpt>
      <trkpt lat="49.91721" lon="2.37789">
        <ele>67.2</ele>
        <time>2022-02-11T14:39:18Z</time>
      </trkpt>
      <trkpt lat="49.91722" lon="2.37788">
        <ele>67.2</ele>
        <time>2022-02-11T14:39:19Z</time>
      </trkpt>
      <trkpt lat="49.91722" lon="2.37786">
        <ele>67.2</ele>
        <time>2022-02-11T14:39:20Z</time>
      </trkpt>
      <trkpt lat="49.91723" lon="2.37784">
        <ele>67.2</ele>
        <time>2022-02-11T14:39:21Z</time>
      </trkpt>
      <trkpt lat="49.91723" lon="2.37782">
        <ele>67.2</ele>
        <time>2022-02-11T14:39:22Z</time>
      </trkpt>
      <trkpt lat="49.91724" lon="2.3778">
        <ele>67.2</ele>
        <time>2022-02-11T14:39:23Z</time>
      </trkpt>
      <trkpt lat="49.91724" lon="2.37779">
        <ele>67.2</ele>
        <time>2022-02-11T14:39:24Z</time>
      </trkpt>
      <trkpt lat="49.91725" lon="2.37778">
        <ele>67.2</ele>
        <time>2022-02-11T14:39:25Z</time>
      </trkpt>
      <trkpt lat="49.91726" lon="2.37775">
        <ele>67.2</ele>
        <time>2022-02-11T14:39:26Z</time>
      </trkpt>
      <trkpt lat="49.91727" lon="2.37774">
        <ele>67.2</ele>
        <time>2022-02-11T14:39:28Z</time>
      </trkpt>
      <trkpt lat="49.91727" lon="2.37772">
        <ele>67.2</ele>
        <time>2022-02-11T14:39:29Z</time>
      </trkpt>
      <trkpt lat="49.91728" lon="2.37771">
        <ele>67.2</ele>
        <time>2022-02-11T14:39:30Z</time>
      </trkpt>
      <trkpt lat="49.91729" lon="2.37769">
        <ele>67.2</ele>
        <time>2022-02-11T14:39:31Z</time>
      </trkpt>
      <trkpt lat="49.9173" lon="2.37767">
        <ele>67.2</ele>
        <time>2022-02-11T14:39:32Z</time>
      </trkpt>
      <trkpt lat="49.9173" lon="2.37766">
        <ele>67.2</ele>
        <time>2022-02-11T14:39:33Z</time>
      </trkpt>
      <trkpt lat="49.91731" lon="2.37765">
        <ele>67.2</ele>
        <time>2022-02-11T14:39:34Z</time>
      </trkpt>
      <trkpt lat="49.91732" lon="2.37762">
        <ele>67.2</ele>
        <time>2022-02-11T14:39:35Z</time>
      </trkpt>
      <trkpt lat="49.91733" lon="2.37761">
        <ele>67.2</ele>
        <time>2022-02-11T14:39:37Z</time>
      </trkpt>
      <trkpt lat="49.91733" lon="2.3776">
        <ele>67.2</ele>
        <time>2022-02-11T14:39:38Z</time>
      </trkpt>
      <trkpt lat="49.91734" lon="2.37758">
        <ele>67.3</ele>
        <time>2022-02-11T14:39:39Z</time>
      </trkpt>
      <trkpt lat="49.91734" lon="2.37756">
        <ele>67.3</ele>
        <time>2022-02-11T14:39:40Z</time>
      </trkpt>
      <trkpt lat="49.91735" lon="2.37755">
        <ele>67.3</ele>
        <time>2022-02-11T14:39:41Z</time>
      </trkpt>
      <trkpt lat="49.91735" lon="2.37753">
        <ele>67.3</ele>
        <time>2022-02-11T14:39:42Z</time>
      </trkpt>
      <trkpt lat="49.91736" lon="2.37752">
        <ele>67.3</ele>
        <time>2022-02-11T14:39:43Z</time>
      </trkpt>
      <trkpt lat="49.91736" lon="2.37751">
        <ele>67.3</ele>
        <time>2022-02-11T14:39:44Z</time>
      </trkpt>
      <trkpt lat="49.91737" lon="2.37749">
        <ele>67.3</ele>
        <time>2022-02-11T14:39:45Z</time>
      </trkpt>
      <trkpt lat="49.91738" lon="2.37747">
        <ele>67.3</ele>
        <time>2022-02-11T14:39:46Z</time>
      </trkpt>
      <trkpt lat="49.91738" lon="2.37746">
        <ele>67.3</ele>
        <time>2022-02-11T14:39:48Z</time>
      </trkpt>
      <trkpt lat="49.91739" lon="2.37743">
        <ele>67.3</ele>
        <time>2022-02-11T14:39:49Z</time>
      </trkpt>
      <trkpt lat="49.91739" lon="2.37742">
        <ele>67.4</ele>
        <time>2022-02-11T14:39:50Z</time>
      </trkpt>
      <trkpt lat="49.91739" lon="2.3774">
        <ele>67.4</ele>
        <time>2022-02-11T14:39:51Z</time>
      </trkpt>
      <trkpt lat="49.9174" lon="2.37739">
        <ele>67.4</ele>
        <time>2022-02-11T14:39:52Z</time>
      </trkpt>
      <trkpt lat="49.9174" lon="2.37737">
        <ele>67.4</ele>
        <time>2022-02-11T14:39:53Z</time>
      </trkpt>
      <trkpt lat="49.91741" lon="2.37735">
        <ele>67.4</ele>
        <time>2022-02-11T14:39:54Z</time>
      </trkpt>
      <trkpt lat="49.91741" lon="2.37732">
        <ele>67.4</ele>
        <time>2022-02-11T14:39:55Z</time>
      </trkpt>
      <trkpt lat="49.91742" lon="2.37731">
        <ele>67.4</ele>
        <time>2022-02-11T14:39:57Z</time>
      </trkpt>
      <trkpt lat="49.91742" lon="2.3773">
        <ele>67.4</ele>
        <time>2022-02-11T14:39:58Z</time>
      </trkpt>
      <trkpt lat="49.91742" lon="2.37727">
        <ele>67.4</ele>
        <time>2022-02-11T14:39:59Z</time>
      </trkpt>
      <trkpt lat="49.91742" lon="2.37725">
        <ele>67.4</ele>
        <time>2022-02-11T14:40:00Z</time>
      </trkpt>
      <trkpt lat="49.91743" lon="2.37724">
        <ele>67.4</ele>
        <time>2022-02-11T14:40:01Z</time>
      </trkpt>
      <trkpt lat="49.91743" lon="2.37722">
        <ele>67.4</ele>
        <time>2022-02-11T14:40:02Z</time>
      </trkpt>
      <trkpt lat="49.91744" lon="2.37721">
        <ele>67.4</ele>
        <time>2022-02-11T14:40:03Z</time>
      </trkpt>
      <trkpt lat="49.91745" lon="2.37719">
        <ele>67.4</ele>
        <time>2022-02-11T14:40:04Z</time>
      </trkpt>
      <trkpt lat="49.91745" lon="2.37718">
        <ele>67.4</ele>
        <time>2022-02-11T14:40:05Z</time>
      </trkpt>
      <trkpt lat="49.91746" lon="2.37716">
        <ele>67.4</ele>
        <time>2022-02-11T14:40:06Z</time>
      </trkpt>
      <trkpt lat="49.91746" lon="2.37714">
        <ele>67.4</ele>
        <time>2022-02-11T14:40:08Z</time>
      </trkpt>
      <trkpt lat="49.91747" lon="2.37712">
        <ele>67.4</ele>
        <time>2022-02-11T14:40:09Z</time>
      </trkpt>
      <trkpt lat="49.91747" lon="2.3771">
        <ele>67.4</ele>
        <time>2022-02-11T14:40:10Z</time>
      </trkpt>
      <trkpt lat="49.91747" lon="2.37707">
        <ele>67.4</ele>
        <time>2022-02-11T14:40:12Z</time>
      </trkpt>
      <trkpt lat="49.91747" lon="2.37706">
        <ele>67.4</ele>
        <time>2022-02-11T14:40:13Z</time>
      </trkpt>
      <trkpt lat="49.91748" lon="2.37704">
        <ele>67.4</ele>
        <time>2022-02-11T14:40:14Z</time>
      </trkpt>
      <trkpt lat="49.91748" lon="2.37702">
        <ele>67.4</ele>
        <time>2022-02-11T14:40:15Z</time>
      </trkpt>
      <trkpt lat="49.91748" lon="2.37701">
        <ele>67.4</ele>
        <time>2022-02-11T14:40:16Z</time>
      </trkpt>
      <trkpt lat="49.91748" lon="2.37699">
        <ele>67.4</ele>
        <time>2022-02-11T14:40:17Z</time>
      </trkpt>
      <trkpt lat="49.91749" lon="2.37698">
        <ele>67.4</ele>
        <time>2022-02-11T14:40:19Z</time>
      </trkpt>
      <trkpt lat="49.91749" lon="2.37696">
        <ele>67.4</ele>
        <time>2022-02-11T14:40:20Z</time>
      </trkpt>
      <trkpt lat="49.9175" lon="2.37695">
        <ele>67.4</ele>
        <time>2022-02-11T14:40:21Z</time>
      </trkpt>
      <trkpt lat="49.9175" lon="2.37693">
        <ele>67.3</ele>
        <time>2022-02-11T14:40:22Z</time>
      </trkpt>
      <trkpt lat="49.91751" lon="2.37692">
        <ele>67.3</ele>
        <time>2022-02-11T14:40:23Z</time>
      </trkpt>
      <trkpt lat="49.91751" lon="2.3769">
        <ele>67.3</ele>
        <time>2022-02-11T14:40:25Z</time>
      </trkpt>
      <trkpt lat="49.91752" lon="2.37689">
        <ele>67.3</ele>
        <time>2022-02-11T14:40:26Z</time>
      </trkpt>
      <trkpt lat="49.91752" lon="2.37688">
        <ele>67.3</ele>
        <time>2022-02-11T14:40:27Z</time>
      </trkpt>
      <trkpt lat="49.91753" lon="2.37686">
        <ele>67.3</ele>
        <time>2022-02-11T14:40:28Z</time>
      </trkpt>
      <trkpt lat="49.91753" lon="2.37685">
        <ele>67.3</ele>
        <time>2022-02-11T14:40:29Z</time>
      </trkpt>
      <trkpt lat="49.91754" lon="2.37684">
        <ele>67.3</ele>
        <time>2022-02-11T14:40:30Z</time>
      </trkpt>
      <trkpt lat="49.91754" lon="2.37683">
        <ele>67.3</ele>
        <time>2022-02-11T14:40:31Z</time>
      </trkpt>
      <trkpt lat="49.91755" lon="2.37682">
        <ele>67.3</ele>
        <time>2022-02-11T14:40:32Z</time>
      </trkpt>
      <trkpt lat="49.91755" lon="2.37681">
        <ele>67.3</ele>
        <time>2022-02-11T14:40:33Z</time>
      </trkpt>
      <trkpt lat="49.91756" lon="2.3768">
        <ele>67.3</ele>
        <time>2022-02-11T14:40:35Z</time>
      </trkpt>
      <trkpt lat="49.91757" lon="2.3768">
        <ele>67.3</ele>
        <time>2022-02-11T14:40:36Z</time>
      </trkpt>
      <trkpt lat="49.91757" lon="2.37681">
        <ele>67.3</ele>
        <time>2022-02-11T14:40:37Z</time>
      </trkpt>
      <trkpt lat="49.91758" lon="2.37681">
        <ele>67.3</ele>
        <time>2022-02-11T14:40:38Z</time>
      </trkpt>
      <trkpt lat="49.91758" lon="2.37681">
        <ele>67.3</ele>
        <time>2022-02-11T14:40:39Z</time>
      </trkpt>
      <trkpt lat="49.91758" lon="2.37682">
        <ele>67.3</ele>
        <time>2022-02-11T14:40:40Z</time>
      </trkpt>
      <trkpt lat="49.91757" lon="2.37682">
        <ele>67.3</ele>
        <time>2022-02-11T14:40:42Z</time>
      </trkpt>
      <trkpt lat="49.91757" lon="2.37682">
        <ele>67.3</ele>
        <time>2022-02-11T14:40:43Z</time>
      </trkpt>
      <trkpt lat="49.91757" lon="2.37681">
        <ele>67.3</ele>
        <time>2022-02-11T14:40:44Z</time>
      </trkpt>
      <trkpt lat="49.91758" lon="2.3768">
        <ele>67.3</ele>
        <time>2022-02-11T14:40:46Z</time>
      </trkpt>
      <trkpt lat="49.91758" lon="2.37679">
        <ele>67.3</ele>
        <time>2022-02-11T14:40:47Z</time>
      </trkpt>
      <trkpt lat="49.91758" lon="2.37678">
        <ele>67.3</ele>
        <time>2022-02-11T14:40:48Z</time>
      </trkpt>
      <trkpt lat="49.91758" lon="2.37677">
        <ele>67.3</ele>
        <time>2022-02-11T14:40:49Z</time>
      </trkpt>
      <trkpt lat="49.91758" lon="2.37676">
        <ele>67.3</ele>
        <time>2022-02-11T14:40:50Z</time>
      </trkpt>
      <trkpt lat="49.91758" lon="2.37675">
        <ele>67.3</ele>
        <time>2022-02-11T14:40:51Z</time>
      </trkpt>
      <trkpt lat="49.91758" lon="2.37675">
        <ele>67.3</ele>
        <time>2022-02-11T14:40:52Z</time>
      </trkpt>
      <trkpt lat="49.91758" lon="2.37675">
        <ele>67.3</ele>
        <time>2022-02-11T14:40:53Z</time>
      </trkpt>
      <trkpt lat="49.91757" lon="2.37675">
        <ele>67.3</ele>
        <time>2022-02-11T14:40:54Z</time>
      </trkpt>
      <trkpt lat="49.91757" lon="2.37676">
        <ele>67.3</ele>
        <time>2022-02-11T14:40:55Z</time>
      </trkpt>
      <trkpt lat="49.91757" lon="2.37676">
        <ele>67.3</ele>
        <time>2022-02-11T14:40:56Z</time>
      </trkpt>
      <trkpt lat="49.91757" lon="2.37676">
        <ele>67.3</ele>
        <time>2022-02-11T14:40:57Z</time>
      </trkpt>
      <trkpt lat="49.91757" lon="2.37676">
        <ele>67.3</ele>
        <time>2022-02-11T14:40:58Z</time>
      </trkpt>
      <trkpt lat="49.91757" lon="2.37676">
        <ele>67.3</ele>
        <time>2022-02-11T14:40:59Z</time>
      </trkpt>
      <trkpt lat="49.91757" lon="2.37676">
        <ele>67.3</ele>
        <time>2022-02-11T14:41:00Z</time>
      </trkpt>
      <trkpt lat="49.91757" lon="2.37676">
        <ele>67.3</ele>
        <time>2022-02-11T14:41:01Z</time>
      </trkpt>
      <trkpt lat="49.91757" lon="2.37676">
        <ele>67.3</ele>
        <time>2022-02-11T14:41:02Z</time>
      </trkpt>
      <trkpt lat="49.91757" lon="2.37676">
        <ele>67.3</ele>
        <time>2022-02-11T14:41:03Z</time>
      </trkpt>
      <trkpt lat="49.91757" lon="2.37676">
        <ele>67.3</ele>
        <time>2022-02-11T14:41:04Z</time>
      </trkpt>
      <trkpt lat="49.91757" lon="2.37676">
        <ele>67.3</ele>
        <time>2022-02-11T14:41:05Z</time>
      </trkpt>
      <trkpt lat="49.91757" lon="2.37676">
        <ele>67.3</ele>
        <time>2022-02-11T14:41:06Z</time>
      </trkpt>
      <trkpt lat="49.91757" lon="2.37676">
        <ele>67.3</ele>
        <time>2022-02-11T14:41:07Z</time>
      </trkpt>
      <trkpt lat="49.91757" lon="2.37676">
        <ele>67.3</ele>
        <time>2022-02-11T14:41:08Z</time>
      </trkpt>
      <trkpt lat="49.91757" lon="2.37677">
        <ele>67.3</ele>
        <time>2022-02-11T14:41:09Z</time>
      </trkpt>
      <trkpt lat="49.91757" lon="2.37677">
        <ele>67.3</ele>
        <time>2022-02-11T14:41:10Z</time>
      </trkpt>
      <trkpt lat="49.91757" lon="2.37677">
        <ele>67.3</ele>
        <time>2022-02-11T14:41:11Z</time>
      </trkpt>
      <trkpt lat="49.91757" lon="2.37677">
        <ele>67.3</ele>
        <time>2022-02-11T14:41:12Z</time>
      </trkpt>
      <trkpt lat="49.91757" lon="2.37677">
        <ele>67.2</ele>
        <time>2022-02-11T14:41:13Z</time>
      </trkpt>
      <trkpt lat="49.91757" lon="2.37677">
        <ele>67.2</ele>
        <time>2022-02-11T14:41:14Z</time>
      </trkpt>
      <trkpt lat="49.91756" lon="2.37677">
        <ele>67.2</ele>
        <time>2022-02-11T14:41:15Z</time>
      </trkpt>
      <trkpt lat="49.91756" lon="2.37677">
        <ele>67.2</ele>
        <time>2022-02-11T14:41:16Z</time>
      </trkpt>
      <trkpt lat="49.91756" lon="2.37677">
        <ele>67.2</ele>
        <time>2022-02-11T14:41:17Z</time>
      </trkpt>
      <trkpt lat="49.91756" lon="2.37677">
        <ele>67.2</ele>
        <time>2022-02-11T14:41:18Z</time>
      </trkpt>
      <trkpt lat="49.91756" lon="2.37677">
        <ele>67.2</ele>
        <time>2022-02-11T14:41:19Z</time>
      </trkpt>
      <trkpt lat="49.91756" lon="2.37677">
        <ele>67.2</ele>
        <time>2022-02-11T14:41:20Z</time>
      </trkpt>
      <trkpt lat="49.91756" lon="2.37677">
        <ele>67.2</ele>
        <time>2022-02-11T14:41:21Z</time>
      </trkpt>
      <trkpt lat="49.91756" lon="2.37677">
        <ele>67.2</ele>
        <time>2022-02-11T14:41:22Z</time>
      </trkpt>
      <trkpt lat="49.91756" lon="2.37678">
        <ele>67.2</ele>
        <time>2022-02-11T14:41:23Z</time>
      </trkpt>
      <trkpt lat="49.91756" lon="2.37678">
        <ele>67.2</ele>
        <time>2022-02-11T14:41:24Z</time>
      </trkpt>
      <trkpt lat="49.91756" lon="2.37678">
        <ele>67.2</ele>
        <time>2022-02-11T14:41:25Z</time>
      </trkpt>
      <trkpt lat="49.91756" lon="2.37678">
        <ele>67.2</ele>
        <time>2022-02-11T14:41:26Z</time>
      </trkpt>
      <trkpt lat="49.91756" lon="2.37678">
        <ele>67.2</ele>
        <time>2022-02-11T14:41:27Z</time>
      </trkpt>
      <trkpt lat="49.91756" lon="2.37678">
        <ele>67.2</ele>
        <time>2022-02-11T14:41:28Z</time>
      </trkpt>
      <trkpt lat="49.91756" lon="2.37678">
        <ele>67.2</ele>
        <time>2022-02-11T14:41:29Z</time>
      </trkpt>
      <trkpt lat="49.91756" lon="2.37678">
        <ele>67.2</ele>
        <time>2022-02-11T14:41:30Z</time>
      </trkpt>
      <trkpt lat="49.91756" lon="2.37678">
        <ele>67.2</ele>
        <time>2022-02-11T14:41:31Z</time>
      </trkpt>
      <trkpt lat="49.91756" lon="2.37678">
        <ele>67.2</ele>
        <time>2022-02-11T14:41:32Z</time>
      </trkpt>
      <trkpt lat="49.91756" lon="2.37678">
        <ele>67.2</ele>
        <time>2022-02-11T14:41:33Z</time>
      </trkpt>
      <trkpt lat="49.91756" lon="2.37678">
        <ele>67.2</ele>
        <time>2022-02-11T14:41:34Z</time>
      </trkpt>
      <trkpt lat="49.91756" lon="2.37678">
        <ele>67.2</ele>
        <time>2022-02-11T14:41:35Z</time>
      </trkpt>
      <trkpt lat="49.91755" lon="2.37678">
        <ele>67.2</ele>
        <time>2022-02-11T14:41:36Z</time>
      </trkpt>
      <trkpt lat="49.91755" lon="2.37678">
        <ele>67.2</ele>
        <time>2022-02-11T14:41:37Z</time>
      </trkpt>
      <trkpt lat="49.91755" lon="2.37679">
        <ele>67.2</ele>
        <time>2022-02-11T14:41:38Z</time>
      </trkpt>
      <trkpt lat="49.91755" lon="2.37679">
        <ele>67.2</ele>
        <time>2022-02-11T14:41:39Z</time>
      </trkpt>
      <trkpt lat="49.91755" lon="2.37679">
        <ele>67.2</ele>
        <time>2022-02-11T14:41:40Z</time>
      </trkpt>
      <trkpt lat="49.91755" lon="2.37679">
        <ele>67.2</ele>
        <time>2022-02-11T14:41:41Z</time>
      </trkpt>
      <trkpt lat="49.91755" lon="2.37679">
        <ele>67.2</ele>
        <time>2022-02-11T14:41:42Z</time>
      </trkpt>
      <trkpt lat="49.91755" lon="2.37679">
        <ele>67.2</ele>
        <time>2022-02-11T14:41:43Z</time>
      </trkpt>
      <trkpt lat="49.91755" lon="2.37679">
        <ele>67.2</ele>
        <time>2022-02-11T14:41:44Z</time>
      </trkpt>
      <trkpt lat="49.91755" lon="2.37679">
        <ele>67.2</ele>
        <time>2022-02-11T14:41:45Z</time>
      </trkpt>
      <trkpt lat="49.91755" lon="2.37679">
        <ele>67.2</ele>
        <time>2022-02-11T14:41:46Z</time>
      </trkpt>
      <trkpt lat="49.91755" lon="2.37679">
        <ele>67.2</ele>
        <time>2022-02-11T14:41:47Z</time>
      </trkpt>
      <trkpt lat="49.91755" lon="2.37679">
        <ele>67.2</ele>
        <time>2022-02-11T14:41:48Z</time>
      </trkpt>
      <trkpt lat="49.91754" lon="2.37681">
        <ele>67.2</ele>
        <time>2022-02-11T14:41:49Z</time>
      </trkpt>
      <trkpt lat="49.91755" lon="2.37681">
        <ele>67.2</ele>
        <time>2022-02-11T14:41:50Z</time>
      </trkpt>
      <trkpt lat="49.91755" lon="2.37681">
        <ele>67.2</ele>
        <time>2022-02-11T14:41:51Z</time>
      </trkpt>
      <trkpt lat="49.91755" lon="2.37681">
        <ele>67.2</ele>
        <time>2022-02-11T14:41:52Z</time>
      </trkpt>
      <trkpt lat="49.91755" lon="2.37681">
        <ele>67.2</ele>
        <time>2022-02-11T14:41:53Z</time>
      </trkpt>
      <trkpt lat="49.91755" lon="2.37681">
        <ele>67.2</ele>
        <time>2022-02-11T14:41:54Z</time>
      </trkpt>
      <trkpt lat="49.91755" lon="2.37681">
        <ele>67.2</ele>
        <time>2022-02-11T14:41:55Z</time>
      </trkpt>
      <trkpt lat="49.91755" lon="2.37681">
        <ele>67.2</ele>
        <time>2022-02-11T14:41:56Z</time>
      </trkpt>
      <trkpt lat="49.91755" lon="2.3768">
        <ele>67.2</ele>
        <time>2022-02-11T14:41:57Z</time>
      </trkpt>
      <trkpt lat="49.91755" lon="2.3768">
        <ele>67.2</ele>
        <time>2022-02-11T14:41:58Z</time>
      </trkpt>
      <trkpt lat="49.91755" lon="2.3768">
        <ele>67.2</ele>
        <time>2022-02-11T14:41:59Z</time>
      </trkpt>
      <trkpt lat="49.91755" lon="2.3768">
        <ele>67.2</ele>
        <time>2022-02-11T14:42:00Z</time>
      </trkpt>
      <trkpt lat="49.91755" lon="2.3768">
        <ele>67.2</ele>
        <time>2022-02-11T14:42:01Z</time>
      </trkpt>
      <trkpt lat="49.91755" lon="2.3768">
        <ele>67.2</ele>
        <time>2022-02-11T14:42:02Z</time>
      </trkpt>
      <trkpt lat="49.91755" lon="2.3768">
        <ele>67.2</ele>
        <time>2022-02-11T14:42:03Z</time>
      </trkpt>
      <trkpt lat="49.91755" lon="2.3768">
        <ele>67.2</ele>
        <time>2022-02-11T14:42:04Z</time>
      </trkpt>
      <trkpt lat="49.91755" lon="2.3768">
        <ele>67.2</ele>
        <time>2022-02-11T14:42:05Z</time>
      </trkpt>
      <trkpt lat="49.91755" lon="2.3768">
        <ele>67.2</ele>
        <time>2022-02-11T14:42:06Z</time>
      </trkpt>
      <trkpt lat="49.91755" lon="2.3768">
        <ele>67.2</ele>
        <time>2022-02-11T14:42:07Z</time>
      </trkpt>
      <trkpt lat="49.91755" lon="2.3768">
        <ele>67.2</ele>
        <time>2022-02-11T14:42:08Z</time>
      </trkpt>
      <trkpt lat="49.91755" lon="2.3768">
        <ele>67.2</ele>
        <time>2022-02-11T14:42:09Z</time>
      </trkpt>
      <trkpt lat="49.91756" lon="2.3768">
        <ele>67.2</ele>
        <time>2022-02-11T14:42:10Z</time>
      </trkpt>
      <trkpt lat="49.91756" lon="2.3768">
        <ele>67.2</ele>
        <time>2022-02-11T14:42:11Z</time>
      </trkpt>
      <trkpt lat="49.91756" lon="2.3768">
        <ele>67.2</ele>
        <time>2022-02-11T14:42:12Z</time>
      </trkpt>
      <trkpt lat="49.91756" lon="2.3768">
        <ele>67.2</ele>
        <time>2022-02-11T14:42:13Z</time>
      </trkpt>
      <trkpt lat="49.91756" lon="2.3768">
        <ele>67.2</ele>
        <time>2022-02-11T14:42:14Z</time>
      </trkpt>
      <trkpt lat="49.91756" lon="2.3768">
        <ele>67.2</ele>
        <time>2022-02-11T14:42:15Z</time>
      </trkpt>
      <trkpt lat="49.91756" lon="2.37679">
        <ele>67.2</ele>
        <time>2022-02-11T14:42:16Z</time>
      </trkpt>
      <trkpt lat="49.91756" lon="2.37679">
        <ele>67.2</ele>
        <time>2022-02-11T14:42:17Z</time>
      </trkpt>
      <trkpt lat="49.91756" lon="2.37679">
        <ele>67.2</ele>
        <time>2022-02-11T14:42:18Z</time>
      </trkpt>
      <trkpt lat="49.91756" lon="2.37679">
        <ele>67.2</ele>
        <time>2022-02-11T14:42:19Z</time>
      </trkpt>
      <trkpt lat="49.91756" lon="2.37679">
        <ele>67.2</ele>
        <time>2022-02-11T14:42:20Z</time>
      </trkpt>
      <trkpt lat="49.91756" lon="2.37679">
        <ele>67.2</ele>
        <time>2022-02-11T14:42:21Z</time>
      </trkpt>
      <trkpt lat="49.91756" lon="2.37679">
        <ele>67.2</ele>
        <time>2022-02-11T14:42:22Z</time>
      </trkpt>
      <trkpt lat="49.91756" lon="2.37679">
        <ele>67.2</ele>
        <time>2022-02-11T14:42:23Z</time>
      </trkpt>
      <trkpt lat="49.91756" lon="2.37679">
        <ele>67.2</ele>
        <time>2022-02-11T14:42:24Z</time>
      </trkpt>
      <trkpt lat="49.91756" lon="2.37679">
        <ele>67.2</ele>
        <time>2022-02-11T14:42:25Z</time>
      </trkpt>
      <trkpt lat="49.91756" lon="2.37679">
        <ele>67.2</ele>
        <time>2022-02-11T14:42:26Z</time>
      </trkpt>
      <trkpt lat="49.91756" lon="2.37679">
        <ele>67.2</ele>
        <time>2022-02-11T14:42:27Z</time>
      </trkpt>
      <trkpt lat="49.91756" lon="2.37679">
        <ele>67.2</ele>
        <time>2022-02-11T14:42:28Z</time>
      </trkpt>
      <trkpt lat="49.91756" lon="2.37679">
        <ele>67.2</ele>
        <time>2022-02-11T14:42:29Z</time>
      </trkpt>
      <trkpt lat="49.91757" lon="2.37679">
        <ele>67.2</ele>
        <time>2022-02-11T14:42:30Z</time>
      </trkpt>
      <trkpt lat="49.91757" lon="2.37679">
        <ele>67.2</ele>
        <time>2022-02-11T14:42:31Z</time>
      </trkpt>
      <trkpt lat="49.91757" lon="2.37679">
        <ele>67.2</ele>
        <time>2022-02-11T14:42:32Z</time>
      </trkpt>
      <trkpt lat="49.91757" lon="2.37679">
        <ele>67.2</ele>
        <time>2022-02-11T14:42:33Z</time>
      </trkpt>
      <trkpt lat="49.91757" lon="2.37679">
        <ele>67.2</ele>
        <time>2022-02-11T14:42:34Z</time>
      </trkpt>
      <trkpt lat="49.91757" lon="2.37679">
        <ele>67.2</ele>
        <time>2022-02-11T14:42:35Z</time>
      </trkpt>
      <trkpt lat="49.91757" lon="2.37678">
        <ele>67.2</ele>
        <time>2022-02-11T14:42:36Z</time>
      </trkpt>
      <trkpt lat="49.91757" lon="2.37678">
        <ele>67.2</ele>
        <time>2022-02-11T14:42:37Z</time>
      </trkpt>
      <trkpt lat="49.91757" lon="2.37678">
        <ele>67.2</ele>
        <time>2022-02-11T14:42:38Z</time>
      </trkpt>
      <trkpt lat="49.91757" lon="2.37678">
        <ele>67.2</ele>
        <time>2022-02-11T14:42:39Z</time>
      </trkpt>
      <trkpt lat="49.91757" lon="2.37678">
        <ele>67.2</ele>
        <time>2022-02-11T14:42:40Z</time>
      </trkpt>
      <trkpt lat="49.91757" lon="2.37678">
        <ele>67.2</ele>
        <time>2022-02-11T14:42:41Z</time>
      </trkpt>
      <trkpt lat="49.91757" lon="2.37678">
        <ele>67.2</ele>
        <time>2022-02-11T14:42:42Z</time>
      </trkpt>
      <trkpt lat="49.91757" lon="2.37678">
        <ele>67.2</ele>
        <time>2022-02-11T14:42:43Z</time>
      </trkpt>
      <trkpt lat="49.91757" lon="2.37678">
        <ele>67.2</ele>
        <time>2022-02-11T14:42:44Z</time>
      </trkpt>
      <trkpt lat="49.91757" lon="2.37678">
        <ele>67.2</ele>
        <time>2022-02-11T14:42:45Z</time>
      </trkpt>
      <trkpt lat="49.91757" lon="2.37678">
        <ele>67.2</ele>
        <time>2022-02-11T14:42:46Z</time>
      </trkpt>
      <trkpt lat="49.91757" lon="2.37678">
        <ele>67.2</ele>
        <time>2022-02-11T14:42:47Z</time>
      </trkpt>
      <trkpt lat="49.91757" lon="2.37678">
        <ele>67.2</ele>
        <time>2022-02-11T14:42:48Z</time>
      </trkpt>
      <trkpt lat="49.91757" lon="2.37678">
        <ele>67.2</ele>
        <time>2022-02-11T14:42:49Z</time>
      </trkpt>
      <trkpt lat="49.91757" lon="2.37678">
        <ele>67.2</ele>
        <time>2022-02-11T14:42:50Z</time>
      </trkpt>
      <trkpt lat="49.91758" lon="2.37678">
        <ele>67.2</ele>
        <time>2022-02-11T14:42:51Z</time>
      </trkpt>
      <trkpt lat="49.91758" lon="2.37678">
        <ele>67.2</ele>
        <time>2022-02-11T14:42:52Z</time>
      </trkpt>
      <trkpt lat="49.91758" lon="2.37678">
        <ele>67.2</ele>
        <time>2022-02-11T14:42:53Z</time>
      </trkpt>
      <trkpt lat="49.91758" lon="2.37678">
        <ele>67.2</ele>
        <time>2022-02-11T14:42:54Z</time>
      </trkpt>
      <trkpt lat="49.91758" lon="2.37677">
        <ele>67.2</ele>
        <time>2022-02-11T14:42:55Z</time>
      </trkpt>
      <trkpt lat="49.91758" lon="2.37677">
        <ele>67.2</ele>
        <time>2022-02-11T14:42:56Z</time>
      </trkpt>
      <trkpt lat="49.91758" lon="2.37677">
        <ele>67.2</ele>
        <time>2022-02-11T14:42:57Z</time>
      </trkpt>
      <trkpt lat="49.91758" lon="2.37677">
        <ele>67.2</ele>
        <time>2022-02-11T14:42:58Z</time>
      </trkpt>
      <trkpt lat="49.91758" lon="2.37677">
        <ele>67.2</ele>
        <time>2022-02-11T14:42:59Z</time>
      </trkpt>
      <trkpt lat="49.91758" lon="2.37677">
        <ele>67.2</ele>
        <time>2022-02-11T14:43:00Z</time>
      </trkpt>
      <trkpt lat="49.91758" lon="2.37677">
        <ele>67.2</ele>
        <time>2022-02-11T14:43:01Z</time>
      </trkpt>
      <trkpt lat="49.91758" lon="2.37677">
        <ele>67.2</ele>
        <time>2022-02-11T14:43:02Z</time>
      </trkpt>
      <trkpt lat="49.91758" lon="2.37677">
        <ele>67.2</ele>
        <time>2022-02-11T14:43:03Z</time>
      </trkpt>
      <trkpt lat="49.91758" lon="2.37677">
        <ele>67.2</ele>
        <time>2022-02-11T14:43:04Z</time>
      </trkpt>
      <trkpt lat="49.91758" lon="2.37677">
        <ele>67.2</ele>
        <time>2022-02-11T14:43:05Z</time>
      </trkpt>
      <trkpt lat="49.91758" lon="2.37677">
        <ele>67.2</ele>
        <time>2022-02-11T14:43:06Z</time>
      </trkpt>
      <trkpt lat="49.91758" lon="2.37677">
        <ele>67.2</ele>
        <time>2022-02-11T14:43:07Z</time>
      </trkpt>
      <trkpt lat="49.91758" lon="2.37677">
        <ele>67.2</ele>
        <time>2022-02-11T14:43:08Z</time>
      </trkpt>
      <trkpt lat="49.91758" lon="2.37677">
        <ele>67.2</ele>
        <time>2022-02-11T14:43:09Z</time>
      </trkpt>
      <trkpt lat="49.91758" lon="2.37677">
        <ele>67.2</ele>
        <time>2022-02-11T14:43:10Z</time>
      </trkpt>
      <trkpt lat="49.91759" lon="2.37677">
        <ele>67.2</ele>
        <time>2022-02-11T14:43:11Z</time>
      </trkpt>
      <trkpt lat="49.91759" lon="2.37677">
        <ele>67.2</ele>
        <time>2022-02-11T14:43:12Z</time>
      </trkpt>
      <trkpt lat="49.91759" lon="2.37677">
        <ele>67.2</ele>
        <time>2022-02-11T14:43:13Z</time>
      </trkpt>
      <trkpt lat="49.91759" lon="2.37676">
        <ele>67.2</ele>
        <time>2022-02-11T14:43:14Z</time>
      </trkpt>
      <trkpt lat="49.9176" lon="2.37673">
        <ele>67.1</ele>
        <time>2022-02-11T14:43:15Z</time>
      </trkpt>
      <trkpt lat="49.91761" lon="2.37672">
        <ele>67.1</ele>
        <time>2022-02-11T14:43:16Z</time>
      </trkpt>
      <trkpt lat="49.91762" lon="2.37671">
        <ele>67.1</ele>
        <time>2022-02-11T14:43:17Z</time>
      </trkpt>
      <trkpt lat="49.91762" lon="2.37669">
        <ele>67.1</ele>
        <time>2022-02-11T14:43:18Z</time>
      </trkpt>
      <trkpt lat="49.91763" lon="2.37668">
        <ele>67.1</ele>
        <time>2022-02-11T14:43:19Z</time>
      </trkpt>
      <trkpt lat="49.91763" lon="2.37667">
        <ele>67.1</ele>
        <time>2022-02-11T14:43:20Z</time>
      </trkpt>
      <trkpt lat="49.91764" lon="2.37666">
        <ele>67.1</ele>
        <time>2022-02-11T14:43:21Z</time>
      </trkpt>
      <trkpt lat="49.91764" lon="2.37665">
        <ele>67.1</ele>
        <time>2022-02-11T14:43:22Z</time>
      </trkpt>
      <trkpt lat="49.91765" lon="2.37664">
        <ele>67.1</ele>
        <time>2022-02-11T14:43:23Z</time>
      </trkpt>
      <trkpt lat="49.91766" lon="2.37663">
        <ele>67.1</ele>
        <time>2022-02-11T14:43:24Z</time>
      </trkpt>
      <trkpt lat="49.91767" lon="2.37661">
        <ele>67.1</ele>
        <time>2022-02-11T14:43:25Z</time>
      </trkpt>
      <trkpt lat="49.91767" lon="2.3766">
        <ele>67.1</ele>
        <time>2022-02-11T14:43:27Z</time>
      </trkpt>
      <trkpt lat="49.91768" lon="2.37659">
        <ele>67.1</ele>
        <time>2022-02-11T14:43:28Z</time>
      </trkpt>
      <trkpt lat="49.91769" lon="2.37658">
        <ele>67.1</ele>
        <time>2022-02-11T14:43:29Z</time>
      </trkpt>
      <trkpt lat="49.9177" lon="2.37657">
        <ele>67.1</ele>
        <time>2022-02-11T14:43:30Z</time>
      </trkpt>
      <trkpt lat="49.91771" lon="2.37657">
        <ele>67.1</ele>
        <time>2022-02-11T14:43:32Z</time>
      </trkpt>
      <trkpt lat="49.91771" lon="2.37656">
        <ele>67.1</ele>
        <time>2022-02-11T14:43:33Z</time>
      </trkpt>
      <trkpt lat="49.91772" lon="2.37654">
        <ele>67.1</ele>
        <time>2022-02-11T14:43:34Z</time>
      </trkpt>
      <trkpt lat="49.91773" lon="2.37653">
        <ele>67.1</ele>
        <time>2022-02-11T14:43:35Z</time>
      </trkpt>
      <trkpt lat="49.91775" lon="2.37652">
        <ele>67.1</ele>
        <time>2022-02-11T14:43:37Z</time>
      </trkpt>
      <trkpt lat="49.91775" lon="2.37651">
        <ele>67.1</ele>
        <time>2022-02-11T14:43:38Z</time>
      </trkpt>
      <trkpt lat="49.91776" lon="2.3765">
        <ele>67.1</ele>
        <time>2022-02-11T14:43:39Z</time>
      </trkpt>
      <trkpt lat="49.91777" lon="2.3765">
        <ele>67.1</ele>
        <time>2022-02-11T14:43:40Z</time>
      </trkpt>
      <trkpt lat="49.91778" lon="2.37648">
        <ele>67.1</ele>
        <time>2022-02-11T14:43:42Z</time>
      </trkpt>
      <trkpt lat="49.91779" lon="2.37647">
        <ele>67.2</ele>
        <time>2022-02-11T14:43:43Z</time>
      </trkpt>
      <trkpt lat="49.9178" lon="2.37645">
        <ele>67.2</ele>
        <time>2022-02-11T14:43:44Z</time>
      </trkpt>
      <trkpt lat="49.91781" lon="2.37644">
        <ele>67.2</ele>
        <time>2022-02-11T14:43:46Z</time>
      </trkpt>
      <trkpt lat="49.91781" lon="2.37644">
        <ele>67.2</ele>
        <time>2022-02-11T14:43:47Z</time>
      </trkpt>
      <trkpt lat="49.91782" lon="2.37643">
        <ele>67.2</ele>
        <time>2022-02-11T14:43:48Z</time>
      </trkpt>
      <trkpt lat="49.91781" lon="2.37643">
        <ele>67.2</ele>
        <time>2022-02-11T14:43:49Z</time>
      </trkpt>
      <trkpt lat="49.91782" lon="2.37642">
        <ele>67.2</ele>
        <time>2022-02-11T14:43:50Z</time>
      </trkpt>
      <trkpt lat="49.91783" lon="2.37641">
        <ele>67.2</ele>
        <time>2022-02-11T14:43:52Z</time>
      </trkpt>
      <trkpt lat="49.91784" lon="2.3764">
        <ele>67.2</ele>
        <time>2022-02-11T14:43:53Z</time>
      </trkpt>
      <trkpt lat="49.91785" lon="2.3764">
        <ele>67.2</ele>
        <time>2022-02-11T14:43:54Z</time>
      </trkpt>
      <trkpt lat="49.91786" lon="2.37638">
        <ele>67.2</ele>
        <time>2022-02-11T14:43:55Z</time>
      </trkpt>
      <trkpt lat="49.91787" lon="2.37637">
        <ele>67.2</ele>
        <time>2022-02-11T14:43:56Z</time>
      </trkpt>
      <trkpt lat="49.91788" lon="2.37636">
        <ele>67.2</ele>
        <time>2022-02-11T14:43:57Z</time>
      </trkpt>
      <trkpt lat="49.91789" lon="2.37634">
        <ele>67.2</ele>
        <time>2022-02-11T14:43:59Z</time>
      </trkpt>
      <trkpt lat="49.9179" lon="2.37633">
        <ele>67.2</ele>
        <time>2022-02-11T14:44:00Z</time>
      </trkpt>
      <trkpt lat="49.91791" lon="2.37632">
        <ele>67.2</ele>
        <time>2022-02-11T14:44:01Z</time>
      </trkpt>
      <trkpt lat="49.91792" lon="2.37631">
        <ele>67.2</ele>
        <time>2022-02-11T14:44:02Z</time>
      </trkpt>
      <trkpt lat="49.91792" lon="2.3763">
        <ele>67.3</ele>
        <time>2022-02-11T14:44:03Z</time>
      </trkpt>
      <trkpt lat="49.91793" lon="2.3763">
        <ele>67.3</ele>
        <time>2022-02-11T14:44:04Z</time>
      </trkpt>
      <trkpt lat="49.91793" lon="2.37629">
        <ele>67.3</ele>
        <time>2022-02-11T14:44:05Z</time>
      </trkpt>
      <trkpt lat="49.91795" lon="2.37627">
        <ele>67.3</ele>
        <time>2022-02-11T14:44:07Z</time>
      </trkpt>
      <trkpt lat="49.91795" lon="2.37626">
        <ele>67.3</ele>
        <time>2022-02-11T14:44:08Z</time>
      </trkpt>
      <trkpt lat="49.91796" lon="2.37625">
        <ele>67.3</ele>
        <time>2022-02-11T14:44:09Z</time>
      </trkpt>
      <trkpt lat="49.91797" lon="2.37623">
        <ele>67.3</ele>
        <time>2022-02-11T14:44:10Z</time>
      </trkpt>
      <trkpt lat="49.91798" lon="2.37622">
        <ele>67.3</ele>
        <time>2022-02-11T14:44:11Z</time>
      </trkpt>
      <trkpt lat="49.91799" lon="2.37621">
        <ele>67.3</ele>
        <time>2022-02-11T14:44:12Z</time>
      </trkpt>
      <trkpt lat="49.918" lon="2.3762">
        <ele>67.3</ele>
        <time>2022-02-11T14:44:14Z</time>
      </trkpt>
      <trkpt lat="49.91801" lon="2.37619">
        <ele>67.3</ele>
        <time>2022-02-11T14:44:15Z</time>
      </trkpt>
      <trkpt lat="49.91801" lon="2.37618">
        <ele>67.3</ele>
        <time>2022-02-11T14:44:16Z</time>
      </trkpt>
      <trkpt lat="49.91802" lon="2.37617">
        <ele>67.4</ele>
        <time>2022-02-11T14:44:17Z</time>
      </trkpt>
      <trkpt lat="49.91804" lon="2.37615">
        <ele>67.4</ele>
        <time>2022-02-11T14:44:18Z</time>
      </trkpt>
      <trkpt lat="49.91805" lon="2.37614">
        <ele>67.4</ele>
        <time>2022-02-11T14:44:19Z</time>
      </trkpt>
      <trkpt lat="49.91807" lon="2.37612">
        <ele>67.4</ele>
        <time>2022-02-11T14:44:20Z</time>
      </trkpt>
      <trkpt lat="49.91808" lon="2.37611">
        <ele>67.4</ele>
        <time>2022-02-11T14:44:22Z</time>
      </trkpt>
      <trkpt lat="49.91809" lon="2.3761">
        <ele>67.4</ele>
        <time>2022-02-11T14:44:23Z</time>
      </trkpt>
      <trkpt lat="49.9181" lon="2.37609">
        <ele>67.4</ele>
        <time>2022-02-11T14:44:24Z</time>
      </trkpt>
      <trkpt lat="49.9181" lon="2.37608">
        <ele>67.4</ele>
        <time>2022-02-11T14:44:25Z</time>
      </trkpt>
      <trkpt lat="49.91812" lon="2.37607">
        <ele>67.5</ele>
        <time>2022-02-11T14:44:26Z</time>
      </trkpt>
      <trkpt lat="49.91813" lon="2.37606">
        <ele>67.5</ele>
        <time>2022-02-11T14:44:27Z</time>
      </trkpt>
      <trkpt lat="49.91814" lon="2.37604">
        <ele>67.5</ele>
        <time>2022-02-11T14:44:29Z</time>
      </trkpt>
      <trkpt lat="49.91816" lon="2.37603">
        <ele>67.5</ele>
        <time>2022-02-11T14:44:30Z</time>
      </trkpt>
      <trkpt lat="49.91818" lon="2.37602">
        <ele>67.5</ele>
        <time>2022-02-11T14:44:31Z</time>
      </trkpt>
      <trkpt lat="49.91818" lon="2.37601">
        <ele>67.5</ele>
        <time>2022-02-11T14:44:32Z</time>
      </trkpt>
      <trkpt lat="49.91819" lon="2.376">
        <ele>67.5</ele>
        <time>2022-02-11T14:44:33Z</time>
      </trkpt>
      <trkpt lat="49.91821" lon="2.37598">
        <ele>67.6</ele>
        <time>2022-02-11T14:44:34Z</time>
      </trkpt>
      <trkpt lat="49.91821" lon="2.37597">
        <ele>67.6</ele>
        <time>2022-02-11T14:44:36Z</time>
      </trkpt>
      <trkpt lat="49.91822" lon="2.37596">
        <ele>67.6</ele>
        <time>2022-02-11T14:44:37Z</time>
      </trkpt>
      <trkpt lat="49.91824" lon="2.37594">
        <ele>67.6</ele>
        <time>2022-02-11T14:44:38Z</time>
      </trkpt>
      <trkpt lat="49.91824" lon="2.37593">
        <ele>67.6</ele>
        <time>2022-02-11T14:44:39Z</time>
      </trkpt>
      <trkpt lat="49.91825" lon="2.37592">
        <ele>67.6</ele>
        <time>2022-02-11T14:44:40Z</time>
      </trkpt>
      <trkpt lat="49.91826" lon="2.37591">
        <ele>67.7</ele>
        <time>2022-02-11T14:44:41Z</time>
      </trkpt>
      <trkpt lat="49.91827" lon="2.3759">
        <ele>67.7</ele>
        <time>2022-02-11T14:44:42Z</time>
      </trkpt>
      <trkpt lat="49.91828" lon="2.37588">
        <ele>67.7</ele>
        <time>2022-02-11T14:44:44Z</time>
      </trkpt>
      <trkpt lat="49.91829" lon="2.37586">
        <ele>67.7</ele>
        <time>2022-02-11T14:44:45Z</time>
      </trkpt>
      <trkpt lat="49.9183" lon="2.37585">
        <ele>67.7</ele>
        <time>2022-02-11T14:44:46Z</time>
      </trkpt>
      <trkpt lat="49.91831" lon="2.37583">
        <ele>67.8</ele>
        <time>2022-02-11T14:44:48Z</time>
      </trkpt>
      <trkpt lat="49.91832" lon="2.37582">
        <ele>67.8</ele>
        <time>2022-02-11T14:44:49Z</time>
      </trkpt>
      <trkpt lat="49.91833" lon="2.3758">
        <ele>67.8</ele>
        <time>2022-02-11T14:44:50Z</time>
      </trkpt>
      <trkpt lat="49.91834" lon="2.37579">
        <ele>67.8</ele>
        <time>2022-02-11T14:44:51Z</time>
      </trkpt>
      <trkpt lat="49.91835" lon="2.37577">
        <ele>67.9</ele>
        <time>2022-02-11T14:44:52Z</time>
      </trkpt>
      <trkpt lat="49.91836" lon="2.37576">
        <ele>67.9</ele>
        <time>2022-02-11T14:44:53Z</time>
      </trkpt>
      <trkpt lat="49.91836" lon="2.37575">
        <ele>67.9</ele>
        <time>2022-02-11T14:44:54Z</time>
      </trkpt>
      <trkpt lat="49.91838" lon="2.37573">
        <ele>67.9</ele>
        <time>2022-02-11T14:44:56Z</time>
      </trkpt>
      <trkpt lat="49.91839" lon="2.37572">
        <ele>67.9</ele>
        <time>2022-02-11T14:44:57Z</time>
      </trkpt>
      <trkpt lat="49.91839" lon="2.37571">
        <ele>67.9</ele>
        <time>2022-02-11T14:44:58Z</time>
      </trkpt>
      <trkpt lat="49.91841" lon="2.37569">
        <ele>68</ele>
        <time>2022-02-11T14:44:59Z</time>
      </trkpt>
      <trkpt lat="49.91842" lon="2.37568">
        <ele>68</ele>
        <time>2022-02-11T14:45:00Z</time>
      </trkpt>
      <trkpt lat="49.91842" lon="2.37567">
        <ele>68</ele>
        <time>2022-02-11T14:45:01Z</time>
      </trkpt>
      <trkpt lat="49.91844" lon="2.37565">
        <ele>68</ele>
        <time>2022-02-11T14:45:03Z</time>
      </trkpt>
      <trkpt lat="49.91845" lon="2.37565">
        <ele>68</ele>
        <time>2022-02-11T14:45:04Z</time>
      </trkpt>
      <trkpt lat="49.91845" lon="2.37564">
        <ele>68.1</ele>
        <time>2022-02-11T14:45:05Z</time>
      </trkpt>
      <trkpt lat="49.91846" lon="2.37563">
        <ele>68.1</ele>
        <time>2022-02-11T14:45:06Z</time>
      </trkpt>
      <trkpt lat="49.91847" lon="2.37561">
        <ele>68.1</ele>
        <time>2022-02-11T14:45:07Z</time>
      </trkpt>
      <trkpt lat="49.91848" lon="2.3756">
        <ele>68.1</ele>
        <time>2022-02-11T14:45:08Z</time>
      </trkpt>
      <trkpt lat="49.91849" lon="2.37559">
        <ele>68.1</ele>
        <time>2022-02-11T14:45:09Z</time>
      </trkpt>
      <trkpt lat="49.9185" lon="2.37558">
        <ele>68.1</ele>
        <time>2022-02-11T14:45:11Z</time>
      </trkpt>
      <trkpt lat="49.91851" lon="2.37557">
        <ele>68.1</ele>
        <time>2022-02-11T14:45:12Z</time>
      </trkpt>
      <trkpt lat="49.91852" lon="2.37554">
        <ele>68.2</ele>
        <time>2022-02-11T14:45:13Z</time>
      </trkpt>
      <trkpt lat="49.91853" lon="2.37554">
        <ele>68.2</ele>
        <time>2022-02-11T14:45:14Z</time>
      </trkpt>
      <trkpt lat="49.91854" lon="2.37553">
        <ele>68.2</ele>
        <time>2022-02-11T14:45:15Z</time>
      </trkpt>
      <trkpt lat="49.91855" lon="2.37551">
        <ele>68.3</ele>
        <time>2022-02-11T14:45:16Z</time>
      </trkpt>
      <trkpt lat="49.91856" lon="2.3755">
        <ele>68.3</ele>
        <time>2022-02-11T14:45:17Z</time>
      </trkpt>
      <trkpt lat="49.91857" lon="2.37549">
        <ele>68.3</ele>
        <time>2022-02-11T14:45:18Z</time>
      </trkpt>
      <trkpt lat="49.91858" lon="2.37547">
        <ele>68.3</ele>
        <time>2022-02-11T14:45:19Z</time>
      </trkpt>
      <trkpt lat="49.91859" lon="2.37547">
        <ele>68.4</ele>
        <time>2022-02-11T14:45:21Z</time>
      </trkpt>
      <trkpt lat="49.9186" lon="2.37546">
        <ele>68.4</ele>
        <time>2022-02-11T14:45:22Z</time>
      </trkpt>
      <trkpt lat="49.91861" lon="2.37545">
        <ele>68.4</ele>
        <time>2022-02-11T14:45:23Z</time>
      </trkpt>
      <trkpt lat="49.91862" lon="2.37544">
        <ele>68.4</ele>
        <time>2022-02-11T14:45:24Z</time>
      </trkpt>
      <trkpt lat="49.91863" lon="2.37543">
        <ele>68.5</ele>
        <time>2022-02-11T14:45:25Z</time>
      </trkpt>
      <trkpt lat="49.91864" lon="2.37542">
        <ele>68.5</ele>
        <time>2022-02-11T14:45:26Z</time>
      </trkpt>
      <trkpt lat="49.91864" lon="2.37541">
        <ele>68.5</ele>
        <time>2022-02-11T14:45:27Z</time>
      </trkpt>
      <trkpt lat="49.91865" lon="2.3754">
        <ele>68.5</ele>
        <time>2022-02-11T14:45:28Z</time>
      </trkpt>
      <trkpt lat="49.91866" lon="2.37539">
        <ele>68.6</ele>
        <time>2022-02-11T14:45:30Z</time>
      </trkpt>
      <trkpt lat="49.91867" lon="2.37537">
        <ele>68.6</ele>
        <time>2022-02-11T14:45:31Z</time>
      </trkpt>
      <trkpt lat="49.91868" lon="2.37536">
        <ele>68.6</ele>
        <time>2022-02-11T14:45:32Z</time>
      </trkpt>
      <trkpt lat="49.91869" lon="2.37535">
        <ele>68.7</ele>
        <time>2022-02-11T14:45:33Z</time>
      </trkpt>
      <trkpt lat="49.9187" lon="2.37534">
        <ele>68.7</ele>
        <time>2022-02-11T14:45:34Z</time>
      </trkpt>
      <trkpt lat="49.9187" lon="2.37533">
        <ele>68.7</ele>
        <time>2022-02-11T14:45:35Z</time>
      </trkpt>
      <trkpt lat="49.91872" lon="2.37531">
        <ele>68.8</ele>
        <time>2022-02-11T14:45:36Z</time>
      </trkpt>
      <trkpt lat="49.91873" lon="2.3753">
        <ele>68.8</ele>
        <time>2022-02-11T14:45:38Z</time>
      </trkpt>
      <trkpt lat="49.91873" lon="2.37529">
        <ele>68.8</ele>
        <time>2022-02-11T14:45:39Z</time>
      </trkpt>
      <trkpt lat="49.91874" lon="2.37528">
        <ele>68.8</ele>
        <time>2022-02-11T14:45:40Z</time>
      </trkpt>
      <trkpt lat="49.91876" lon="2.37527">
        <ele>68.8</ele>
        <time>2022-02-11T14:45:41Z</time>
      </trkpt>
      <trkpt lat="49.91877" lon="2.37525">
        <ele>68.9</ele>
        <time>2022-02-11T14:45:42Z</time>
      </trkpt>
      <trkpt lat="49.91877" lon="2.37524">
        <ele>68.9</ele>
        <time>2022-02-11T14:45:43Z</time>
      </trkpt>
      <trkpt lat="49.91878" lon="2.37523">
        <ele>68.9</ele>
        <time>2022-02-11T14:45:45Z</time>
      </trkpt>
      <trkpt lat="49.91878" lon="2.37523">
        <ele>68.9</ele>
        <time>2022-02-11T14:45:46Z</time>
      </trkpt>
      <trkpt lat="49.9188" lon="2.3752">
        <ele>68.9</ele>
        <time>2022-02-11T14:45:47Z</time>
      </trkpt>
      <trkpt lat="49.91881" lon="2.3752">
        <ele>69</ele>
        <time>2022-02-11T14:45:48Z</time>
      </trkpt>
      <trkpt lat="49.91881" lon="2.37519">
        <ele>69</ele>
        <time>2022-02-11T14:45:49Z</time>
      </trkpt>
      <trkpt lat="49.91883" lon="2.37517">
        <ele>69</ele>
        <time>2022-02-11T14:45:50Z</time>
      </trkpt>
      <trkpt lat="49.91884" lon="2.37516">
        <ele>69</ele>
        <time>2022-02-11T14:45:51Z</time>
      </trkpt>
      <trkpt lat="49.91884" lon="2.37515">
        <ele>69</ele>
        <time>2022-02-11T14:45:53Z</time>
      </trkpt>
      <trkpt lat="49.91885" lon="2.37514">
        <ele>69</ele>
        <time>2022-02-11T14:45:54Z</time>
      </trkpt>
      <trkpt lat="49.91886" lon="2.37513">
        <ele>69</ele>
        <time>2022-02-11T14:45:55Z</time>
      </trkpt>
      <trkpt lat="49.91887" lon="2.37512">
        <ele>69</ele>
        <time>2022-02-11T14:45:56Z</time>
      </trkpt>
      <trkpt lat="49.91888" lon="2.37511">
        <ele>69.1</ele>
        <time>2022-02-11T14:45:57Z</time>
      </trkpt>
      <trkpt lat="49.91889" lon="2.3751">
        <ele>69.1</ele>
        <time>2022-02-11T14:45:58Z</time>
      </trkpt>
      <trkpt lat="49.9189" lon="2.37509">
        <ele>69.1</ele>
        <time>2022-02-11T14:45:59Z</time>
      </trkpt>
      <trkpt lat="49.91892" lon="2.37507">
        <ele>69.1</ele>
        <time>2022-02-11T14:46:00Z</time>
      </trkpt>
      <trkpt lat="49.91893" lon="2.37507">
        <ele>69.1</ele>
        <time>2022-02-11T14:46:02Z</time>
      </trkpt>
      <trkpt lat="49.91894" lon="2.37506">
        <ele>69.1</ele>
        <time>2022-02-11T14:46:03Z</time>
      </trkpt>
      <trkpt lat="49.91895" lon="2.37505">
        <ele>69.2</ele>
        <time>2022-02-11T14:46:04Z</time>
      </trkpt>
      <trkpt lat="49.91896" lon="2.37504">
        <ele>69.2</ele>
        <time>2022-02-11T14:46:05Z</time>
      </trkpt>
      <trkpt lat="49.91897" lon="2.37503">
        <ele>69.2</ele>
        <time>2022-02-11T14:46:06Z</time>
      </trkpt>
      <trkpt lat="49.91898" lon="2.37502">
        <ele>69.2</ele>
        <time>2022-02-11T14:46:07Z</time>
      </trkpt>
      <trkpt lat="49.91899" lon="2.37501">
        <ele>69.2</ele>
        <time>2022-02-11T14:46:08Z</time>
      </trkpt>
      <trkpt lat="49.919" lon="2.375">
        <ele>69.2</ele>
        <time>2022-02-11T14:46:09Z</time>
      </trkpt>
      <trkpt lat="49.91901" lon="2.37498">
        <ele>69.3</ele>
        <time>2022-02-11T14:46:10Z</time>
      </trkpt>
      <trkpt lat="49.91902" lon="2.37496">
        <ele>69.3</ele>
        <time>2022-02-11T14:46:12Z</time>
      </trkpt>
      <trkpt lat="49.91903" lon="2.37495">
        <ele>69.3</ele>
        <time>2022-02-11T14:46:13Z</time>
      </trkpt>
      <trkpt lat="49.91905" lon="2.37494">
        <ele>69.3</ele>
        <time>2022-02-11T14:46:14Z</time>
      </trkpt>
      <trkpt lat="49.91906" lon="2.37493">
        <ele>69.3</ele>
        <time>2022-02-11T14:46:15Z</time>
      </trkpt>
      <trkpt lat="49.91906" lon="2.37492">
        <ele>69.4</ele>
        <time>2022-02-11T14:46:16Z</time>
      </trkpt>
      <trkpt lat="49.91907" lon="2.37491">
        <ele>69.4</ele>
        <time>2022-02-11T14:46:17Z</time>
      </trkpt>
      <trkpt lat="49.91908" lon="2.3749">
        <ele>69.4</ele>
        <time>2022-02-11T14:46:18Z</time>
      </trkpt>
      <trkpt lat="49.91908" lon="2.37489">
        <ele>69.4</ele>
        <time>2022-02-11T14:46:19Z</time>
      </trkpt>
      <trkpt lat="49.91909" lon="2.37488">
        <ele>69.4</ele>
        <time>2022-02-11T14:46:20Z</time>
      </trkpt>
      <trkpt lat="49.9191" lon="2.37486">
        <ele>69.4</ele>
        <time>2022-02-11T14:46:21Z</time>
      </trkpt>
      <trkpt lat="49.91912" lon="2.37484">
        <ele>69.4</ele>
        <time>2022-02-11T14:46:23Z</time>
      </trkpt>
      <trkpt lat="49.91913" lon="2.37483">
        <ele>69.5</ele>
        <time>2022-02-11T14:46:24Z</time>
      </trkpt>
      <trkpt lat="49.91913" lon="2.37482">
        <ele>69.5</ele>
        <time>2022-02-11T14:46:25Z</time>
      </trkpt>
      <trkpt lat="49.91915" lon="2.37482">
        <ele>69.5</ele>
        <time>2022-02-11T14:46:26Z</time>
      </trkpt>
      <trkpt lat="49.91916" lon="2.3748">
        <ele>69.5</ele>
        <time>2022-02-11T14:46:27Z</time>
      </trkpt>
      <trkpt lat="49.91917" lon="2.37479">
        <ele>69.5</ele>
        <time>2022-02-11T14:46:28Z</time>
      </trkpt>
      <trkpt lat="49.91918" lon="2.37479">
        <ele>69.5</ele>
        <time>2022-02-11T14:46:29Z</time>
      </trkpt>
      <trkpt lat="49.91918" lon="2.37478">
        <ele>69.5</ele>
        <time>2022-02-11T14:46:30Z</time>
      </trkpt>
      <trkpt lat="49.9192" lon="2.37476">
        <ele>69.6</ele>
        <time>2022-02-11T14:46:32Z</time>
      </trkpt>
      <trkpt lat="49.9192" lon="2.37474">
        <ele>69.6</ele>
        <time>2022-02-11T14:46:33Z</time>
      </trkpt>
      <trkpt lat="49.91921" lon="2.37473">
        <ele>69.6</ele>
        <time>2022-02-11T14:46:34Z</time>
      </trkpt>
      <trkpt lat="49.91922" lon="2.37472">
        <ele>69.6</ele>
        <time>2022-02-11T14:46:35Z</time>
      </trkpt>
      <trkpt lat="49.91923" lon="2.37471">
        <ele>69.6</ele>
        <time>2022-02-11T14:46:36Z</time>
      </trkpt>
      <trkpt lat="49.91925" lon="2.37469">
        <ele>69.6</ele>
        <time>2022-02-11T14:46:37Z</time>
      </trkpt>
      <trkpt lat="49.91926" lon="2.37468">
        <ele>69.6</ele>
        <time>2022-02-11T14:46:38Z</time>
      </trkpt>
      <trkpt lat="49.91926" lon="2.37467">
        <ele>69.6</ele>
        <time>2022-02-11T14:46:39Z</time>
      </trkpt>
      <trkpt lat="49.91927" lon="2.37466">
        <ele>69.6</ele>
        <time>2022-02-11T14:46:40Z</time>
      </trkpt>
      <trkpt lat="49.91928" lon="2.37464">
        <ele>69.7</ele>
        <time>2022-02-11T14:46:41Z</time>
      </trkpt>
      <trkpt lat="49.91929" lon="2.37463">
        <ele>69.7</ele>
        <time>2022-02-11T14:46:43Z</time>
      </trkpt>
      <trkpt lat="49.9193" lon="2.37461">
        <ele>69.7</ele>
        <time>2022-02-11T14:46:44Z</time>
      </trkpt>
      <trkpt lat="49.91931" lon="2.3746">
        <ele>69.7</ele>
        <time>2022-02-11T14:46:45Z</time>
      </trkpt>
      <trkpt lat="49.91933" lon="2.37458">
        <ele>69.7</ele>
        <time>2022-02-11T14:46:46Z</time>
      </trkpt>
      <trkpt lat="49.91934" lon="2.37458">
        <ele>69.7</ele>
        <time>2022-02-11T14:46:47Z</time>
      </trkpt>
      <trkpt lat="49.91934" lon="2.37457">
        <ele>69.7</ele>
        <time>2022-02-11T14:46:48Z</time>
      </trkpt>
      <trkpt lat="49.91935" lon="2.37456">
        <ele>69.8</ele>
        <time>2022-02-11T14:46:49Z</time>
      </trkpt>
      <trkpt lat="49.91936" lon="2.37455">
        <ele>69.8</ele>
        <time>2022-02-11T14:46:50Z</time>
      </trkpt>
      <trkpt lat="49.91937" lon="2.37454">
        <ele>69.8</ele>
        <time>2022-02-11T14:46:51Z</time>
      </trkpt>
      <trkpt lat="49.91938" lon="2.37453">
        <ele>69.8</ele>
        <time>2022-02-11T14:46:53Z</time>
      </trkpt>
      <trkpt lat="49.91939" lon="2.37452">
        <ele>69.8</ele>
        <time>2022-02-11T14:46:54Z</time>
      </trkpt>
      <trkpt lat="49.9194" lon="2.3745">
        <ele>69.8</ele>
        <time>2022-02-11T14:46:55Z</time>
      </trkpt>
      <trkpt lat="49.91941" lon="2.37449">
        <ele>69.9</ele>
        <time>2022-02-11T14:46:56Z</time>
      </trkpt>
      <trkpt lat="49.91942" lon="2.37448">
        <ele>69.9</ele>
        <time>2022-02-11T14:46:57Z</time>
      </trkpt>
      <trkpt lat="49.91943" lon="2.37447">
        <ele>69.9</ele>
        <time>2022-02-11T14:46:58Z</time>
      </trkpt>
      <trkpt lat="49.91944" lon="2.37446">
        <ele>69.9</ele>
        <time>2022-02-11T14:46:59Z</time>
      </trkpt>
      <trkpt lat="49.91946" lon="2.37443">
        <ele>69.9</ele>
        <time>2022-02-11T14:47:01Z</time>
      </trkpt>
      <trkpt lat="49.91946" lon="2.37442">
        <ele>70</ele>
        <time>2022-02-11T14:47:02Z</time>
      </trkpt>
      <trkpt lat="49.91947" lon="2.37441">
        <ele>70</ele>
        <time>2022-02-11T14:47:03Z</time>
      </trkpt>
      <trkpt lat="49.91947" lon="2.3744">
        <ele>70</ele>
        <time>2022-02-11T14:47:04Z</time>
      </trkpt>
      <trkpt lat="49.91948" lon="2.37438">
        <ele>70</ele>
        <time>2022-02-11T14:47:05Z</time>
      </trkpt>
      <trkpt lat="49.9195" lon="2.37435">
        <ele>70</ele>
        <time>2022-02-11T14:47:07Z</time>
      </trkpt>
      <trkpt lat="49.9195" lon="2.37434">
        <ele>70.1</ele>
        <time>2022-02-11T14:47:08Z</time>
      </trkpt>
      <trkpt lat="49.91951" lon="2.37434">
        <ele>70.1</ele>
        <time>2022-02-11T14:47:09Z</time>
      </trkpt>
      <trkpt lat="49.91953" lon="2.37431">
        <ele>70.1</ele>
        <time>2022-02-11T14:47:10Z</time>
      </trkpt>
      <trkpt lat="49.91954" lon="2.37431">
        <ele>70.1</ele>
        <time>2022-02-11T14:47:11Z</time>
      </trkpt>
      <trkpt lat="49.91954" lon="2.3743">
        <ele>70.1</ele>
        <time>2022-02-11T14:47:12Z</time>
      </trkpt>
      <trkpt lat="49.91955" lon="2.37428">
        <ele>70.2</ele>
        <time>2022-02-11T14:47:13Z</time>
      </trkpt>
      <trkpt lat="49.91957" lon="2.37426">
        <ele>70.2</ele>
        <time>2022-02-11T14:47:15Z</time>
      </trkpt>
      <trkpt lat="49.91957" lon="2.37425">
        <ele>70.2</ele>
        <time>2022-02-11T14:47:16Z</time>
      </trkpt>
      <trkpt lat="49.91958" lon="2.37424">
        <ele>70.2</ele>
        <time>2022-02-11T14:47:17Z</time>
      </trkpt>
      <trkpt lat="49.91958" lon="2.37423">
        <ele>70.3</ele>
        <time>2022-02-11T14:47:18Z</time>
      </trkpt>
      <trkpt lat="49.91959" lon="2.37421">
        <ele>70.3</ele>
        <time>2022-02-11T14:47:20Z</time>
      </trkpt>
      <trkpt lat="49.91961" lon="2.37419">
        <ele>70.3</ele>
        <time>2022-02-11T14:47:21Z</time>
      </trkpt>
      <trkpt lat="49.91961" lon="2.37418">
        <ele>70.3</ele>
        <time>2022-02-11T14:47:22Z</time>
      </trkpt>
      <trkpt lat="49.91962" lon="2.37417">
        <ele>70.4</ele>
        <time>2022-02-11T14:47:23Z</time>
      </trkpt>
      <trkpt lat="49.91963" lon="2.37416">
        <ele>70.4</ele>
        <time>2022-02-11T14:47:24Z</time>
      </trkpt>
      <trkpt lat="49.91964" lon="2.37415">
        <ele>70.4</ele>
        <time>2022-02-11T14:47:25Z</time>
      </trkpt>
      <trkpt lat="49.91965" lon="2.37414">
        <ele>70.4</ele>
        <time>2022-02-11T14:47:26Z</time>
      </trkpt>
      <trkpt lat="49.91965" lon="2.37413">
        <ele>70.5</ele>
        <time>2022-02-11T14:47:27Z</time>
      </trkpt>
      <trkpt lat="49.91966" lon="2.37412">
        <ele>70.5</ele>
        <time>2022-02-11T14:47:28Z</time>
      </trkpt>
      <trkpt lat="49.91967" lon="2.3741">
        <ele>70.5</ele>
        <time>2022-02-11T14:47:30Z</time>
      </trkpt>
      <trkpt lat="49.91969" lon="2.37409">
        <ele>70.5</ele>
        <time>2022-02-11T14:47:31Z</time>
      </trkpt>
      <trkpt lat="49.9197" lon="2.37408">
        <ele>70.6</ele>
        <time>2022-02-11T14:47:32Z</time>
      </trkpt>
      <trkpt lat="49.91971" lon="2.37407">
        <ele>70.6</ele>
        <time>2022-02-11T14:47:33Z</time>
      </trkpt>
      <trkpt lat="49.91973" lon="2.37405">
        <ele>70.6</ele>
        <time>2022-02-11T14:47:34Z</time>
      </trkpt>
      <trkpt lat="49.91973" lon="2.37404">
        <ele>70.6</ele>
        <time>2022-02-11T14:47:35Z</time>
      </trkpt>
      <trkpt lat="49.91974" lon="2.37403">
        <ele>70.6</ele>
        <time>2022-02-11T14:47:36Z</time>
      </trkpt>
      <trkpt lat="49.91975" lon="2.37401">
        <ele>70.7</ele>
        <time>2022-02-11T14:47:38Z</time>
      </trkpt>
      <trkpt lat="49.91976" lon="2.374">
        <ele>70.7</ele>
        <time>2022-02-11T14:47:39Z</time>
      </trkpt>
      <trkpt lat="49.91977" lon="2.37399">
        <ele>70.7</ele>
        <time>2022-02-11T14:47:40Z</time>
      </trkpt>
      <trkpt lat="49.91978" lon="2.37398">
        <ele>70.7</ele>
        <time>2022-02-11T14:47:41Z</time>
      </trkpt>
      <trkpt lat="49.91979" lon="2.37396">
        <ele>70.7</ele>
        <time>2022-02-11T14:47:42Z</time>
      </trkpt>
      <trkpt lat="49.9198" lon="2.37395">
        <ele>70.8</ele>
        <time>2022-02-11T14:47:43Z</time>
      </trkpt>
      <trkpt lat="49.91981" lon="2.37393">
        <ele>70.8</ele>
        <time>2022-02-11T14:47:44Z</time>
      </trkpt>
      <trkpt lat="49.91981" lon="2.37392">
        <ele>70.8</ele>
        <time>2022-02-11T14:47:45Z</time>
      </trkpt>
      <trkpt lat="49.91983" lon="2.3739">
        <ele>70.8</ele>
        <time>2022-02-11T14:47:46Z</time>
      </trkpt>
      <trkpt lat="49.91983" lon="2.37389">
        <ele>70.8</ele>
        <time>2022-02-11T14:47:48Z</time>
      </trkpt>
      <trkpt lat="49.91984" lon="2.37388">
        <ele>70.8</ele>
        <time>2022-02-11T14:47:49Z</time>
      </trkpt>
      <trkpt lat="49.91985" lon="2.37385">
        <ele>70.9</ele>
        <time>2022-02-11T14:47:50Z</time>
      </trkpt>
      <trkpt lat="49.91986" lon="2.37384">
        <ele>70.9</ele>
        <time>2022-02-11T14:47:51Z</time>
      </trkpt>
      <trkpt lat="49.91986" lon="2.37383">
        <ele>70.9</ele>
        <time>2022-02-11T14:47:52Z</time>
      </trkpt>
      <trkpt lat="49.91987" lon="2.37383">
        <ele>70.9</ele>
        <time>2022-02-11T14:47:53Z</time>
      </trkpt>
      <trkpt lat="49.91988" lon="2.37381">
        <ele>70.9</ele>
        <time>2022-02-11T14:47:54Z</time>
      </trkpt>
      <trkpt lat="49.91988" lon="2.3738">
        <ele>70.9</ele>
        <time>2022-02-11T14:47:55Z</time>
      </trkpt>
      <trkpt lat="49.9199" lon="2.37378">
        <ele>70.9</ele>
        <time>2022-02-11T14:47:57Z</time>
      </trkpt>
      <trkpt lat="49.9199" lon="2.37377">
        <ele>70.9</ele>
        <time>2022-02-11T14:47:58Z</time>
      </trkpt>
      <trkpt lat="49.91991" lon="2.37376">
        <ele>70.9</ele>
        <time>2022-02-11T14:47:59Z</time>
      </trkpt>
      <trkpt lat="49.91992" lon="2.37375">
        <ele>71</ele>
        <time>2022-02-11T14:48:00Z</time>
      </trkpt>
      <trkpt lat="49.91993" lon="2.37374">
        <ele>71</ele>
        <time>2022-02-11T14:48:01Z</time>
      </trkpt>
      <trkpt lat="49.91994" lon="2.37373">
        <ele>71</ele>
        <time>2022-02-11T14:48:02Z</time>
      </trkpt>
      <trkpt lat="49.91995" lon="2.37372">
        <ele>71</ele>
        <time>2022-02-11T14:48:03Z</time>
      </trkpt>
      <trkpt lat="49.91996" lon="2.37371">
        <ele>71</ele>
        <time>2022-02-11T14:48:05Z</time>
      </trkpt>
      <trkpt lat="49.91997" lon="2.3737">
        <ele>71</ele>
        <time>2022-02-11T14:48:06Z</time>
      </trkpt>
      <trkpt lat="49.91998" lon="2.37368">
        <ele>71</ele>
        <time>2022-02-11T14:48:07Z</time>
      </trkpt>
      <trkpt lat="49.91999" lon="2.37367">
        <ele>71.1</ele>
        <time>2022-02-11T14:48:08Z</time>
      </trkpt>
      <trkpt lat="49.91999" lon="2.37366">
        <ele>71.1</ele>
        <time>2022-02-11T14:48:09Z</time>
      </trkpt>
      <trkpt lat="49.92" lon="2.37365">
        <ele>71.1</ele>
        <time>2022-02-11T14:48:10Z</time>
      </trkpt>
      <trkpt lat="49.92001" lon="2.37364">
        <ele>71.1</ele>
        <time>2022-02-11T14:48:11Z</time>
      </trkpt>
      <trkpt lat="49.92002" lon="2.37363">
        <ele>71.1</ele>
        <time>2022-02-11T14:48:13Z</time>
      </trkpt>
      <trkpt lat="49.92003" lon="2.37361">
        <ele>71.1</ele>
        <time>2022-02-11T14:48:14Z</time>
      </trkpt>
      <trkpt lat="49.92004" lon="2.3736">
        <ele>71.1</ele>
        <time>2022-02-11T14:48:15Z</time>
      </trkpt>
      <trkpt lat="49.92005" lon="2.37359">
        <ele>71.1</ele>
        <time>2022-02-11T14:48:16Z</time>
      </trkpt>
      <trkpt lat="49.92006" lon="2.37358">
        <ele>71.1</ele>
        <time>2022-02-11T14:48:17Z</time>
      </trkpt>
      <trkpt lat="49.92007" lon="2.37358">
        <ele>71.1</ele>
        <time>2022-02-11T14:48:18Z</time>
      </trkpt>
      <trkpt lat="49.92008" lon="2.37357">
        <ele>71.1</ele>
        <time>2022-02-11T14:48:19Z</time>
      </trkpt>
      <trkpt lat="49.92009" lon="2.37356">
        <ele>71.1</ele>
        <time>2022-02-11T14:48:21Z</time>
      </trkpt>
      <trkpt lat="49.9201" lon="2.37355">
        <ele>71.1</ele>
        <time>2022-02-11T14:48:22Z</time>
      </trkpt>
      <trkpt lat="49.92011" lon="2.37355">
        <ele>71.1</ele>
        <time>2022-02-11T14:48:23Z</time>
      </trkpt>
      <trkpt lat="49.92012" lon="2.37354">
        <ele>71.1</ele>
        <time>2022-02-11T14:48:24Z</time>
      </trkpt>
      <trkpt lat="49.92013" lon="2.37354">
        <ele>71.1</ele>
        <time>2022-02-11T14:48:25Z</time>
      </trkpt>
      <trkpt lat="49.92014" lon="2.37353">
        <ele>71.1</ele>
        <time>2022-02-11T14:48:26Z</time>
      </trkpt>
      <trkpt lat="49.92014" lon="2.37352">
        <ele>71.1</ele>
        <time>2022-02-11T14:48:27Z</time>
      </trkpt>
      <trkpt lat="49.92015" lon="2.37351">
        <ele>71.1</ele>
        <time>2022-02-11T14:48:28Z</time>
      </trkpt>
      <trkpt lat="49.92015" lon="2.3735">
        <ele>71.1</ele>
        <time>2022-02-11T14:48:29Z</time>
      </trkpt>
      <trkpt lat="49.92016" lon="2.37349">
        <ele>71.1</ele>
        <time>2022-02-11T14:48:30Z</time>
      </trkpt>
      <trkpt lat="49.92016" lon="2.37348">
        <ele>71.1</ele>
        <time>2022-02-11T14:48:31Z</time>
      </trkpt>
      <trkpt lat="49.92016" lon="2.37348">
        <ele>71.1</ele>
        <time>2022-02-11T14:48:32Z</time>
      </trkpt>
      <trkpt lat="49.92015" lon="2.37348">
        <ele>71.1</ele>
        <time>2022-02-11T14:48:33Z</time>
      </trkpt>
      <trkpt lat="49.92015" lon="2.37347">
        <ele>71.1</ele>
        <time>2022-02-11T14:48:34Z</time>
      </trkpt>
      <trkpt lat="49.92016" lon="2.37347">
        <ele>71.1</ele>
        <time>2022-02-11T14:48:36Z</time>
      </trkpt>
      <trkpt lat="49.92016" lon="2.37346">
        <ele>71.1</ele>
        <time>2022-02-11T14:48:37Z</time>
      </trkpt>
      <trkpt lat="49.92017" lon="2.37345">
        <ele>71.1</ele>
        <time>2022-02-11T14:48:38Z</time>
      </trkpt>
      <trkpt lat="49.92017" lon="2.37345">
        <ele>71.1</ele>
        <time>2022-02-11T14:48:39Z</time>
      </trkpt>
      <trkpt lat="49.92018" lon="2.37344">
        <ele>71.1</ele>
        <time>2022-02-11T14:48:40Z</time>
      </trkpt>
      <trkpt lat="49.92019" lon="2.37343">
        <ele>71.1</ele>
        <time>2022-02-11T14:48:41Z</time>
      </trkpt>
      <trkpt lat="49.92019" lon="2.37343">
        <ele>71.1</ele>
        <time>2022-02-11T14:48:42Z</time>
      </trkpt>
      <trkpt lat="49.9202" lon="2.37342">
        <ele>71.1</ele>
        <time>2022-02-11T14:48:43Z</time>
      </trkpt>
      <trkpt lat="49.92021" lon="2.37342">
        <ele>71.1</ele>
        <time>2022-02-11T14:48:45Z</time>
      </trkpt>
      <trkpt lat="49.92022" lon="2.37341">
        <ele>71.1</ele>
        <time>2022-02-11T14:48:46Z</time>
      </trkpt>
      <trkpt lat="49.92023" lon="2.37341">
        <ele>71.1</ele>
        <time>2022-02-11T14:48:47Z</time>
      </trkpt>
      <trkpt lat="49.92024" lon="2.3734">
        <ele>71.1</ele>
        <time>2022-02-11T14:48:48Z</time>
      </trkpt>
      <trkpt lat="49.92025" lon="2.37339">
        <ele>71.1</ele>
        <time>2022-02-11T14:48:49Z</time>
      </trkpt>
      <trkpt lat="49.92026" lon="2.37339">
        <ele>71.1</ele>
        <time>2022-02-11T14:48:50Z</time>
      </trkpt>
      <trkpt lat="49.92026" lon="2.37338">
        <ele>71.1</ele>
        <time>2022-02-11T14:48:51Z</time>
      </trkpt>
      <trkpt lat="49.92028" lon="2.37337">
        <ele>71.1</ele>
        <time>2022-02-11T14:48:52Z</time>
      </trkpt>
      <trkpt lat="49.92029" lon="2.37337">
        <ele>71</ele>
        <time>2022-02-11T14:48:54Z</time>
      </trkpt>
      <trkpt lat="49.9203" lon="2.37336">
        <ele>71</ele>
        <time>2022-02-11T14:48:55Z</time>
      </trkpt>
      <trkpt lat="49.9203" lon="2.37335">
        <ele>71</ele>
        <time>2022-02-11T14:48:56Z</time>
      </trkpt>
      <trkpt lat="49.92031" lon="2.37335">
        <ele>71</ele>
        <time>2022-02-11T14:48:57Z</time>
      </trkpt>
      <trkpt lat="49.92032" lon="2.37334">
        <ele>71</ele>
        <time>2022-02-11T14:48:58Z</time>
      </trkpt>
      <trkpt lat="49.92033" lon="2.37333">
        <ele>71</ele>
        <time>2022-02-11T14:48:59Z</time>
      </trkpt>
      <trkpt lat="49.92034" lon="2.37332">
        <ele>71</ele>
        <time>2022-02-11T14:49:00Z</time>
      </trkpt>
      <trkpt lat="49.92035" lon="2.37331">
        <ele>71.1</ele>
        <time>2022-02-11T14:49:01Z</time>
      </trkpt>
      <trkpt lat="49.92035" lon="2.3733">
        <ele>71.1</ele>
        <time>2022-02-11T14:49:02Z</time>
      </trkpt>
      <trkpt lat="49.92037" lon="2.3733">
        <ele>71.1</ele>
        <time>2022-02-11T14:49:04Z</time>
      </trkpt>
      <trkpt lat="49.92038" lon="2.37329">
        <ele>71.1</ele>
        <time>2022-02-11T14:49:05Z</time>
      </trkpt>
      <trkpt lat="49.92038" lon="2.37328">
        <ele>71.1</ele>
        <time>2022-02-11T14:49:06Z</time>
      </trkpt>
      <trkpt lat="49.92039" lon="2.37327">
        <ele>71.1</ele>
        <time>2022-02-11T14:49:07Z</time>
      </trkpt>
      <trkpt lat="49.9204" lon="2.37326">
        <ele>71.1</ele>
        <time>2022-02-11T14:49:08Z</time>
      </trkpt>
      <trkpt lat="49.92041" lon="2.37325">
        <ele>71.1</ele>
        <time>2022-02-11T14:49:09Z</time>
      </trkpt>
      <trkpt lat="49.92042" lon="2.37324">
        <ele>71.1</ele>
        <time>2022-02-11T14:49:10Z</time>
      </trkpt>
      <trkpt lat="49.92043" lon="2.37323">
        <ele>71.1</ele>
        <time>2022-02-11T14:49:11Z</time>
      </trkpt>
      <trkpt lat="49.92044" lon="2.37322">
        <ele>71.1</ele>
        <time>2022-02-11T14:49:13Z</time>
      </trkpt>
      <trkpt lat="49.92046" lon="2.3732">
        <ele>71.1</ele>
        <time>2022-02-11T14:49:14Z</time>
      </trkpt>
      <trkpt lat="49.92047" lon="2.3732">
        <ele>71.1</ele>
        <time>2022-02-11T14:49:15Z</time>
      </trkpt>
      <trkpt lat="49.92048" lon="2.37319">
        <ele>71.1</ele>
        <time>2022-02-11T14:49:16Z</time>
      </trkpt>
      <trkpt lat="49.9205" lon="2.37318">
        <ele>71.1</ele>
        <time>2022-02-11T14:49:17Z</time>
      </trkpt>
      <trkpt lat="49.92051" lon="2.37318">
        <ele>71.2</ele>
        <time>2022-02-11T14:49:18Z</time>
      </trkpt>
      <trkpt lat="49.92052" lon="2.37317">
        <ele>71.2</ele>
        <time>2022-02-11T14:49:19Z</time>
      </trkpt>
      <trkpt lat="49.92054" lon="2.37316">
        <ele>71.2</ele>
        <time>2022-02-11T14:49:20Z</time>
      </trkpt>
      <trkpt lat="49.92055" lon="2.37315">
        <ele>71.2</ele>
        <time>2022-02-11T14:49:21Z</time>
      </trkpt>
      <trkpt lat="49.92055" lon="2.37315">
        <ele>71.2</ele>
        <time>2022-02-11T14:49:22Z</time>
      </trkpt>
      <trkpt lat="49.92057" lon="2.37314">
        <ele>71.2</ele>
        <time>2022-02-11T14:49:23Z</time>
      </trkpt>
      <trkpt lat="49.92058" lon="2.37313">
        <ele>71.2</ele>
        <time>2022-02-11T14:49:25Z</time>
      </trkpt>
      <trkpt lat="49.92059" lon="2.37313">
        <ele>71.2</ele>
        <time>2022-02-11T14:49:26Z</time>
      </trkpt>
      <trkpt lat="49.92061" lon="2.37312">
        <ele>71.2</ele>
        <time>2022-02-11T14:49:27Z</time>
      </trkpt>
      <trkpt lat="49.92062" lon="2.37311">
        <ele>71.2</ele>
        <time>2022-02-11T14:49:28Z</time>
      </trkpt>
      <trkpt lat="49.92063" lon="2.3731">
        <ele>71.2</ele>
        <time>2022-02-11T14:49:29Z</time>
      </trkpt>
      <trkpt lat="49.92064" lon="2.37309">
        <ele>71.2</ele>
        <time>2022-02-11T14:49:30Z</time>
      </trkpt>
      <trkpt lat="49.92065" lon="2.37308">
        <ele>71.2</ele>
        <time>2022-02-11T14:49:31Z</time>
      </trkpt>
      <trkpt lat="49.92066" lon="2.37307">
        <ele>71.2</ele>
        <time>2022-02-11T14:49:32Z</time>
      </trkpt>
      <trkpt lat="49.92067" lon="2.37307">
        <ele>71.2</ele>
        <time>2022-02-11T14:49:33Z</time>
      </trkpt>
      <trkpt lat="49.92068" lon="2.37306">
        <ele>71.2</ele>
        <time>2022-02-11T14:49:34Z</time>
      </trkpt>
      <trkpt lat="49.92069" lon="2.37306">
        <ele>71.2</ele>
        <time>2022-02-11T14:49:35Z</time>
      </trkpt>
      <trkpt lat="49.9207" lon="2.37305">
        <ele>71.2</ele>
        <time>2022-02-11T14:49:36Z</time>
      </trkpt>
      <trkpt lat="49.92071" lon="2.37305">
        <ele>71.2</ele>
        <time>2022-02-11T14:49:37Z</time>
      </trkpt>
      <trkpt lat="49.92073" lon="2.37304">
        <ele>71.2</ele>
        <time>2022-02-11T14:49:39Z</time>
      </trkpt>
      <trkpt lat="49.92075" lon="2.37303">
        <ele>71.2</ele>
        <time>2022-02-11T14:49:40Z</time>
      </trkpt>
      <trkpt lat="49.92075" lon="2.37303">
        <ele>71.2</ele>
        <time>2022-02-11T14:49:41Z</time>
      </trkpt>
      <trkpt lat="49.92076" lon="2.37303">
        <ele>71.2</ele>
        <time>2022-02-11T14:49:42Z</time>
      </trkpt>
      <trkpt lat="49.92078" lon="2.37301">
        <ele>71.2</ele>
        <time>2022-02-11T14:49:43Z</time>
      </trkpt>
      <trkpt lat="49.92079" lon="2.373">
        <ele>71.2</ele>
        <time>2022-02-11T14:49:44Z</time>
      </trkpt>
      <trkpt lat="49.92079" lon="2.373">
        <ele>71.2</ele>
        <time>2022-02-11T14:49:45Z</time>
      </trkpt>
      <trkpt lat="49.92081" lon="2.37299">
        <ele>71.2</ele>
        <time>2022-02-11T14:49:47Z</time>
      </trkpt>
      <trkpt lat="49.92082" lon="2.37298">
        <ele>71.2</ele>
        <time>2022-02-11T14:49:48Z</time>
      </trkpt>
      <trkpt lat="49.92083" lon="2.37298">
        <ele>71.2</ele>
        <time>2022-02-11T14:49:49Z</time>
      </trkpt>
      <trkpt lat="49.92084" lon="2.37297">
        <ele>71.2</ele>
        <time>2022-02-11T14:49:50Z</time>
      </trkpt>
      <trkpt lat="49.92086" lon="2.37296">
        <ele>71.2</ele>
        <time>2022-02-11T14:49:52Z</time>
      </trkpt>
      <trkpt lat="49.92087" lon="2.37296">
        <ele>71.2</ele>
        <time>2022-02-11T14:49:53Z</time>
      </trkpt>
      <trkpt lat="49.92088" lon="2.37295">
        <ele>71.1</ele>
        <time>2022-02-11T14:49:54Z</time>
      </trkpt>
      <trkpt lat="49.92089" lon="2.37294">
        <ele>71.1</ele>
        <time>2022-02-11T14:49:55Z</time>
      </trkpt>
      <trkpt lat="49.9209" lon="2.37293">
        <ele>71.1</ele>
        <time>2022-02-11T14:49:56Z</time>
      </trkpt>
      <trkpt lat="49.92091" lon="2.37291">
        <ele>71.1</ele>
        <time>2022-02-11T14:49:57Z</time>
      </trkpt>
      <trkpt lat="49.92092" lon="2.37291">
        <ele>71.1</ele>
        <time>2022-02-11T14:49:58Z</time>
      </trkpt>
      <trkpt lat="49.92093" lon="2.3729">
        <ele>71.1</ele>
        <time>2022-02-11T14:49:59Z</time>
      </trkpt>
      <trkpt lat="49.92094" lon="2.37289">
        <ele>71</ele>
        <time>2022-02-11T14:50:00Z</time>
      </trkpt>
      <trkpt lat="49.92095" lon="2.37289">
        <ele>71</ele>
        <time>2022-02-11T14:50:01Z</time>
      </trkpt>
      <trkpt lat="49.92097" lon="2.37287">
        <ele>71</ele>
        <time>2022-02-11T14:50:02Z</time>
      </trkpt>
      <trkpt lat="49.92097" lon="2.37286">
        <ele>71</ele>
        <time>2022-02-11T14:50:04Z</time>
      </trkpt>
      <trkpt lat="49.92098" lon="2.37286">
        <ele>71</ele>
        <time>2022-02-11T14:50:05Z</time>
      </trkpt>
      <trkpt lat="49.921" lon="2.37284">
        <ele>70.9</ele>
        <time>2022-02-11T14:50:06Z</time>
      </trkpt>
      <trkpt lat="49.92101" lon="2.37283">
        <ele>70.9</ele>
        <time>2022-02-11T14:50:07Z</time>
      </trkpt>
      <trkpt lat="49.92102" lon="2.37283">
        <ele>70.9</ele>
        <time>2022-02-11T14:50:08Z</time>
      </trkpt>
      <trkpt lat="49.92103" lon="2.37282">
        <ele>70.9</ele>
        <time>2022-02-11T14:50:09Z</time>
      </trkpt>
      <trkpt lat="49.92104" lon="2.37281">
        <ele>70.9</ele>
        <time>2022-02-11T14:50:10Z</time>
      </trkpt>
      <trkpt lat="49.92105" lon="2.3728">
        <ele>70.9</ele>
        <time>2022-02-11T14:50:12Z</time>
      </trkpt>
      <trkpt lat="49.92106" lon="2.37279">
        <ele>70.9</ele>
        <time>2022-02-11T14:50:13Z</time>
      </trkpt>
      <trkpt lat="49.92106" lon="2.37278">
        <ele>70.9</ele>
        <time>2022-02-11T14:50:14Z</time>
      </trkpt>
      <trkpt lat="49.92107" lon="2.37277">
        <ele>70.9</ele>
        <time>2022-02-11T14:50:15Z</time>
      </trkpt>
      <trkpt lat="49.92108" lon="2.37276">
        <ele>70.9</ele>
        <time>2022-02-11T14:50:16Z</time>
      </trkpt>
      <trkpt lat="49.92109" lon="2.37276">
        <ele>70.8</ele>
        <time>2022-02-11T14:50:17Z</time>
      </trkpt>
      <trkpt lat="49.9211" lon="2.37275">
        <ele>70.8</ele>
        <time>2022-02-11T14:50:18Z</time>
      </trkpt>
      <trkpt lat="49.92112" lon="2.37274">
        <ele>70.8</ele>
        <time>2022-02-11T14:50:20Z</time>
      </trkpt>
      <trkpt lat="49.92113" lon="2.37273">
        <ele>70.8</ele>
        <time>2022-02-11T14:50:21Z</time>
      </trkpt>
      <trkpt lat="49.92114" lon="2.37273">
        <ele>70.8</ele>
        <time>2022-02-11T14:50:22Z</time>
      </trkpt>
      <trkpt lat="49.92114" lon="2.37272">
        <ele>70.8</ele>
        <time>2022-02-11T14:50:23Z</time>
      </trkpt>
      <trkpt lat="49.92115" lon="2.37271">
        <ele>70.8</ele>
        <time>2022-02-11T14:50:24Z</time>
      </trkpt>
      <trkpt lat="49.92116" lon="2.3727">
        <ele>70.8</ele>
        <time>2022-02-11T14:50:25Z</time>
      </trkpt>
      <trkpt lat="49.92117" lon="2.37269">
        <ele>70.8</ele>
        <time>2022-02-11T14:50:26Z</time>
      </trkpt>
      <trkpt lat="49.92117" lon="2.37268">
        <ele>70.7</ele>
        <time>2022-02-11T14:50:27Z</time>
      </trkpt>
      <trkpt lat="49.92118" lon="2.37267">
        <ele>70.7</ele>
        <time>2022-02-11T14:50:29Z</time>
      </trkpt>
      <trkpt lat="49.92119" lon="2.37266">
        <ele>70.7</ele>
        <time>2022-02-11T14:50:30Z</time>
      </trkpt>
      <trkpt lat="49.9212" lon="2.37265">
        <ele>70.7</ele>
        <time>2022-02-11T14:50:31Z</time>
      </trkpt>
      <trkpt lat="49.92121" lon="2.37264">
        <ele>70.6</ele>
        <time>2022-02-11T14:50:32Z</time>
      </trkpt>
      <trkpt lat="49.92122" lon="2.37263">
        <ele>70.6</ele>
        <time>2022-02-11T14:50:33Z</time>
      </trkpt>
      <trkpt lat="49.92123" lon="2.37262">
        <ele>70.6</ele>
        <time>2022-02-11T14:50:34Z</time>
      </trkpt>
      <trkpt lat="49.92124" lon="2.37261">
        <ele>70.6</ele>
        <time>2022-02-11T14:50:35Z</time>
      </trkpt>
      <trkpt lat="49.92125" lon="2.37261">
        <ele>70.6</ele>
        <time>2022-02-11T14:50:36Z</time>
      </trkpt>
      <trkpt lat="49.92126" lon="2.3726">
        <ele>70.6</ele>
        <time>2022-02-11T14:50:37Z</time>
      </trkpt>
      <trkpt lat="49.92127" lon="2.3726">
        <ele>70.5</ele>
        <time>2022-02-11T14:50:38Z</time>
      </trkpt>
      <trkpt lat="49.92127" lon="2.37259">
        <ele>70.5</ele>
        <time>2022-02-11T14:50:39Z</time>
      </trkpt>
      <trkpt lat="49.92129" lon="2.37258">
        <ele>70.5</ele>
        <time>2022-02-11T14:50:41Z</time>
      </trkpt>
      <trkpt lat="49.9213" lon="2.37257">
        <ele>70.5</ele>
        <time>2022-02-11T14:50:42Z</time>
      </trkpt>
      <trkpt lat="49.92131" lon="2.37257">
        <ele>70.5</ele>
        <time>2022-02-11T14:50:43Z</time>
      </trkpt>
      <trkpt lat="49.92132" lon="2.37256">
        <ele>70.5</ele>
        <time>2022-02-11T14:50:44Z</time>
      </trkpt>
      <trkpt lat="49.92133" lon="2.37255">
        <ele>70.4</ele>
        <time>2022-02-11T14:50:45Z</time>
      </trkpt>
      <trkpt lat="49.92134" lon="2.37254">
        <ele>70.4</ele>
        <time>2022-02-11T14:50:46Z</time>
      </trkpt>
      <trkpt lat="49.92135" lon="2.37254">
        <ele>70.4</ele>
        <time>2022-02-11T14:50:47Z</time>
      </trkpt>
      <trkpt lat="49.92136" lon="2.37253">
        <ele>70.4</ele>
        <time>2022-02-11T14:50:49Z</time>
      </trkpt>
      <trkpt lat="49.92138" lon="2.37252">
        <ele>70.4</ele>
        <time>2022-02-11T14:50:50Z</time>
      </trkpt>
      <trkpt lat="49.92139" lon="2.37251">
        <ele>70.4</ele>
        <time>2022-02-11T14:50:51Z</time>
      </trkpt>
      <trkpt lat="49.92141" lon="2.3725">
        <ele>70.4</ele>
        <time>2022-02-11T14:50:52Z</time>
      </trkpt>
      <trkpt lat="49.92141" lon="2.37249">
        <ele>70.4</ele>
        <time>2022-02-11T14:50:53Z</time>
      </trkpt>
      <trkpt lat="49.92142" lon="2.37248">
        <ele>70.4</ele>
        <time>2022-02-11T14:50:54Z</time>
      </trkpt>
      <trkpt lat="49.92143" lon="2.37247">
        <ele>70.4</ele>
        <time>2022-02-11T14:50:55Z</time>
      </trkpt>
      <trkpt lat="49.92144" lon="2.37247">
        <ele>70.4</ele>
        <time>2022-02-11T14:50:56Z</time>
      </trkpt>
      <trkpt lat="49.92145" lon="2.37246">
        <ele>70.4</ele>
        <time>2022-02-11T14:50:57Z</time>
      </trkpt>
      <trkpt lat="49.92146" lon="2.37245">
        <ele>70.4</ele>
        <time>2022-02-11T14:50:58Z</time>
      </trkpt>
      <trkpt lat="49.92147" lon="2.37243">
        <ele>70.4</ele>
        <time>2022-02-11T14:51:00Z</time>
      </trkpt>
      <trkpt lat="49.92149" lon="2.37242">
        <ele>70.3</ele>
        <time>2022-02-11T14:51:01Z</time>
      </trkpt>
      <trkpt lat="49.9215" lon="2.37241">
        <ele>70.3</ele>
        <time>2022-02-11T14:51:02Z</time>
      </trkpt>
      <trkpt lat="49.92152" lon="2.3724">
        <ele>70.3</ele>
        <time>2022-02-11T14:51:03Z</time>
      </trkpt>
      <trkpt lat="49.92153" lon="2.37239">
        <ele>70.3</ele>
        <time>2022-02-11T14:51:04Z</time>
      </trkpt>
      <trkpt lat="49.92153" lon="2.37239">
        <ele>70.3</ele>
        <time>2022-02-11T14:51:05Z</time>
      </trkpt>
      <trkpt lat="49.92154" lon="2.37238">
        <ele>70.3</ele>
        <time>2022-02-11T14:51:06Z</time>
      </trkpt>
      <trkpt lat="49.92156" lon="2.37237">
        <ele>70.3</ele>
        <time>2022-02-11T14:51:07Z</time>
      </trkpt>
      <trkpt lat="49.92157" lon="2.37236">
        <ele>70.3</ele>
        <time>2022-02-11T14:51:09Z</time>
      </trkpt>
      <trkpt lat="49.92158" lon="2.37236">
        <ele>70.3</ele>
        <time>2022-02-11T14:51:10Z</time>
      </trkpt>
      <trkpt lat="49.92159" lon="2.37235">
        <ele>70.3</ele>
        <time>2022-02-11T14:51:11Z</time>
      </trkpt>
      <trkpt lat="49.92159" lon="2.37234">
        <ele>70.3</ele>
        <time>2022-02-11T14:51:12Z</time>
      </trkpt>
      <trkpt lat="49.9216" lon="2.37233">
        <ele>70.3</ele>
        <time>2022-02-11T14:51:13Z</time>
      </trkpt>
      <trkpt lat="49.9216" lon="2.37233">
        <ele>70.3</ele>
        <time>2022-02-11T14:51:14Z</time>
      </trkpt>
      <trkpt lat="49.92161" lon="2.37232">
        <ele>70.3</ele>
        <time>2022-02-11T14:51:15Z</time>
      </trkpt>
      <trkpt lat="49.92162" lon="2.37232">
        <ele>70.3</ele>
        <time>2022-02-11T14:51:17Z</time>
      </trkpt>
      <trkpt lat="49.92164" lon="2.37231">
        <ele>70.3</ele>
        <time>2022-02-11T14:51:18Z</time>
      </trkpt>
      <trkpt lat="49.92165" lon="2.37231">
        <ele>70.3</ele>
        <time>2022-02-11T14:51:19Z</time>
      </trkpt>
      <trkpt lat="49.92166" lon="2.3723">
        <ele>70.3</ele>
        <time>2022-02-11T14:51:20Z</time>
      </trkpt>
      <trkpt lat="49.92168" lon="2.3723">
        <ele>70.3</ele>
        <time>2022-02-11T14:51:22Z</time>
      </trkpt>
      <trkpt lat="49.92169" lon="2.37229">
        <ele>70.3</ele>
        <time>2022-02-11T14:51:23Z</time>
      </trkpt>
      <trkpt lat="49.92171" lon="2.37229">
        <ele>70.3</ele>
        <time>2022-02-11T14:51:24Z</time>
      </trkpt>
      <trkpt lat="49.92173" lon="2.37227">
        <ele>70.3</ele>
        <time>2022-02-11T14:51:25Z</time>
      </trkpt>
      <trkpt lat="49.92174" lon="2.37227">
        <ele>70.3</ele>
        <time>2022-02-11T14:51:26Z</time>
      </trkpt>
      <trkpt lat="49.92174" lon="2.37226">
        <ele>70.3</ele>
        <time>2022-02-11T14:51:27Z</time>
      </trkpt>
      <trkpt lat="49.92176" lon="2.37225">
        <ele>70.2</ele>
        <time>2022-02-11T14:51:28Z</time>
      </trkpt>
      <trkpt lat="49.92177" lon="2.37225">
        <ele>70.2</ele>
        <time>2022-02-11T14:51:29Z</time>
      </trkpt>
      <trkpt lat="49.92178" lon="2.37224">
        <ele>70.2</ele>
        <time>2022-02-11T14:51:31Z</time>
      </trkpt>
      <trkpt lat="49.92179" lon="2.37224">
        <ele>70.2</ele>
        <time>2022-02-11T14:51:32Z</time>
      </trkpt>
      <trkpt lat="49.9218" lon="2.37223">
        <ele>70.2</ele>
        <time>2022-02-11T14:51:33Z</time>
      </trkpt>
      <trkpt lat="49.92181" lon="2.37222">
        <ele>70.2</ele>
        <time>2022-02-11T14:51:34Z</time>
      </trkpt>
      <trkpt lat="49.92182" lon="2.37221">
        <ele>70.2</ele>
        <time>2022-02-11T14:51:35Z</time>
      </trkpt>
      <trkpt lat="49.92182" lon="2.3722">
        <ele>70.2</ele>
        <time>2022-02-11T14:51:36Z</time>
      </trkpt>
      <trkpt lat="49.92182" lon="2.37216">
        <ele>70.1</ele>
        <time>2022-02-11T14:51:38Z</time>
      </trkpt>
      <trkpt lat="49.92182" lon="2.37215">
        <ele>70.1</ele>
        <time>2022-02-11T14:51:39Z</time>
      </trkpt>
      <trkpt lat="49.92181" lon="2.37213">
        <ele>70.1</ele>
        <time>2022-02-11T14:51:40Z</time>
      </trkpt>
      <trkpt lat="49.92182" lon="2.37212">
        <ele>70.1</ele>
        <time>2022-02-11T14:51:41Z</time>
      </trkpt>
      <trkpt lat="49.92182" lon="2.37211">
        <ele>70</ele>
        <time>2022-02-11T14:51:42Z</time>
      </trkpt>
      <trkpt lat="49.92182" lon="2.3721">
        <ele>70</ele>
        <time>2022-02-11T14:51:43Z</time>
      </trkpt>
      <trkpt lat="49.92183" lon="2.37209">
        <ele>70</ele>
        <time>2022-02-11T14:51:44Z</time>
      </trkpt>
      <trkpt lat="49.92183" lon="2.37209">
        <ele>70</ele>
        <time>2022-02-11T14:51:45Z</time>
      </trkpt>
      <trkpt lat="49.92184" lon="2.37208">
        <ele>70</ele>
        <time>2022-02-11T14:51:46Z</time>
      </trkpt>
      <trkpt lat="49.92185" lon="2.37208">
        <ele>70</ele>
        <time>2022-02-11T14:51:47Z</time>
      </trkpt>
      <trkpt lat="49.92185" lon="2.37207">
        <ele>69.9</ele>
        <time>2022-02-11T14:51:48Z</time>
      </trkpt>
      <trkpt lat="49.92186" lon="2.37207">
        <ele>69.9</ele>
        <time>2022-02-11T14:51:49Z</time>
      </trkpt>
      <trkpt lat="49.92186" lon="2.37207">
        <ele>69.9</ele>
        <time>2022-02-11T14:51:50Z</time>
      </trkpt>
      <trkpt lat="49.92186" lon="2.37206">
        <ele>69.9</ele>
        <time>2022-02-11T14:51:51Z</time>
      </trkpt>
      <trkpt lat="49.92186" lon="2.37205">
        <ele>69.9</ele>
        <time>2022-02-11T14:51:52Z</time>
      </trkpt>
      <trkpt lat="49.92186" lon="2.37205">
        <ele>69.9</ele>
        <time>2022-02-11T14:51:53Z</time>
      </trkpt>
      <trkpt lat="49.92187" lon="2.37204">
        <ele>69.9</ele>
        <time>2022-02-11T14:51:55Z</time>
      </trkpt>
      <trkpt lat="49.92187" lon="2.37204">
        <ele>69.9</ele>
        <time>2022-02-11T14:51:56Z</time>
      </trkpt>
      <trkpt lat="49.92187" lon="2.37203">
        <ele>69.9</ele>
        <time>2022-02-11T14:51:57Z</time>
      </trkpt>
      <trkpt lat="49.92187" lon="2.37202">
        <ele>69.9</ele>
        <time>2022-02-11T14:51:58Z</time>
      </trkpt>
      <trkpt lat="49.92187" lon="2.37201">
        <ele>69.9</ele>
        <time>2022-02-11T14:51:59Z</time>
      </trkpt>
      <trkpt lat="49.92186" lon="2.372">
        <ele>69.9</ele>
        <time>2022-02-11T14:52:00Z</time>
      </trkpt>
      <trkpt lat="49.92186" lon="2.37198">
        <ele>69.9</ele>
        <time>2022-02-11T14:52:02Z</time>
      </trkpt>
      <trkpt lat="49.92185" lon="2.37197">
        <ele>69.9</ele>
        <time>2022-02-11T14:52:03Z</time>
      </trkpt>
      <trkpt lat="49.92184" lon="2.37196">
        <ele>69.9</ele>
        <time>2022-02-11T14:52:04Z</time>
      </trkpt>
      <trkpt lat="49.92183" lon="2.37195">
        <ele>69.8</ele>
        <time>2022-02-11T14:52:05Z</time>
      </trkpt>
      <trkpt lat="49.92183" lon="2.37195">
        <ele>69.8</ele>
        <time>2022-02-11T14:52:06Z</time>
      </trkpt>
      <trkpt lat="49.92182" lon="2.37194">
        <ele>69.8</ele>
        <time>2022-02-11T14:52:07Z</time>
      </trkpt>
      <trkpt lat="49.92181" lon="2.37193">
        <ele>69.8</ele>
        <time>2022-02-11T14:52:08Z</time>
      </trkpt>
      <trkpt lat="49.9218" lon="2.37192">
        <ele>69.8</ele>
        <time>2022-02-11T14:52:10Z</time>
      </trkpt>
      <trkpt lat="49.92179" lon="2.37191">
        <ele>69.8</ele>
        <time>2022-02-11T14:52:11Z</time>
      </trkpt>
      <trkpt lat="49.92178" lon="2.37191">
        <ele>69.8</ele>
        <time>2022-02-11T14:52:12Z</time>
      </trkpt>
      <trkpt lat="49.92177" lon="2.3719">
        <ele>69.8</ele>
        <time>2022-02-11T14:52:13Z</time>
      </trkpt>
      <trkpt lat="49.92176" lon="2.37189">
        <ele>69.8</ele>
        <time>2022-02-11T14:52:14Z</time>
      </trkpt>
      <trkpt lat="49.92175" lon="2.37188">
        <ele>69.8</ele>
        <time>2022-02-11T14:52:16Z</time>
      </trkpt>
      <trkpt lat="49.92174" lon="2.37187">
        <ele>69.7</ele>
        <time>2022-02-11T14:52:17Z</time>
      </trkpt>
      <trkpt lat="49.92174" lon="2.37186">
        <ele>69.7</ele>
        <time>2022-02-11T14:52:18Z</time>
      </trkpt>
      <trkpt lat="49.92173" lon="2.37183">
        <ele>69.7</ele>
        <time>2022-02-11T14:52:19Z</time>
      </trkpt>
      <trkpt lat="49.92172" lon="2.37182">
        <ele>69.7</ele>
        <time>2022-02-11T14:52:20Z</time>
      </trkpt>
      <trkpt lat="49.92172" lon="2.37181">
        <ele>69.7</ele>
        <time>2022-02-11T14:52:21Z</time>
      </trkpt>
      <trkpt lat="49.92171" lon="2.37179">
        <ele>69.7</ele>
        <time>2022-02-11T14:52:22Z</time>
      </trkpt>
      <trkpt lat="49.92171" lon="2.37177">
        <ele>69.7</ele>
        <time>2022-02-11T14:52:23Z</time>
      </trkpt>
      <trkpt lat="49.9217" lon="2.37175">
        <ele>69.7</ele>
        <time>2022-02-11T14:52:25Z</time>
      </trkpt>
      <trkpt lat="49.92169" lon="2.37172">
        <ele>69.6</ele>
        <time>2022-02-11T14:52:26Z</time>
      </trkpt>
      <trkpt lat="49.92169" lon="2.37171">
        <ele>69.6</ele>
        <time>2022-02-11T14:52:27Z</time>
      </trkpt>
      <trkpt lat="49.92168" lon="2.3717">
        <ele>69.6</ele>
        <time>2022-02-11T14:52:28Z</time>
      </trkpt>
      <trkpt lat="49.92168" lon="2.37167">
        <ele>69.6</ele>
        <time>2022-02-11T14:52:29Z</time>
      </trkpt>
      <trkpt lat="49.92167" lon="2.37166">
        <ele>69.6</ele>
        <time>2022-02-11T14:52:30Z</time>
      </trkpt>
      <trkpt lat="49.92167" lon="2.37164">
        <ele>69.6</ele>
        <time>2022-02-11T14:52:31Z</time>
      </trkpt>
      <trkpt lat="49.92166" lon="2.37161">
        <ele>69.6</ele>
        <time>2022-02-11T14:52:32Z</time>
      </trkpt>
      <trkpt lat="49.92166" lon="2.3716">
        <ele>69.6</ele>
        <time>2022-02-11T14:52:34Z</time>
      </trkpt>
      <trkpt lat="49.92166" lon="2.37159">
        <ele>69.6</ele>
        <time>2022-02-11T14:52:35Z</time>
      </trkpt>
      <trkpt lat="49.92165" lon="2.37157">
        <ele>69.6</ele>
        <time>2022-02-11T14:52:36Z</time>
      </trkpt>
      <trkpt lat="49.92165" lon="2.37156">
        <ele>69.5</ele>
        <time>2022-02-11T14:52:37Z</time>
      </trkpt>
      <trkpt lat="49.92164" lon="2.37154">
        <ele>69.5</ele>
        <time>2022-02-11T14:52:38Z</time>
      </trkpt>
      <trkpt lat="49.92164" lon="2.37153">
        <ele>69.5</ele>
        <time>2022-02-11T14:52:39Z</time>
      </trkpt>
      <trkpt lat="49.92164" lon="2.37151">
        <ele>69.5</ele>
        <time>2022-02-11T14:52:40Z</time>
      </trkpt>
      <trkpt lat="49.92163" lon="2.37149">
        <ele>69.5</ele>
        <time>2022-02-11T14:52:42Z</time>
      </trkpt>
      <trkpt lat="49.92163" lon="2.37148">
        <ele>69.5</ele>
        <time>2022-02-11T14:52:43Z</time>
      </trkpt>
      <trkpt lat="49.92163" lon="2.37146">
        <ele>69.5</ele>
        <time>2022-02-11T14:52:44Z</time>
      </trkpt>
      <trkpt lat="49.92162" lon="2.37145">
        <ele>69.5</ele>
        <time>2022-02-11T14:52:45Z</time>
      </trkpt>
      <trkpt lat="49.92162" lon="2.37143">
        <ele>69.5</ele>
        <time>2022-02-11T14:52:46Z</time>
      </trkpt>
      <trkpt lat="49.92162" lon="2.37142">
        <ele>69.5</ele>
        <time>2022-02-11T14:52:47Z</time>
      </trkpt>
      <trkpt lat="49.92162" lon="2.3714">
        <ele>69.5</ele>
        <time>2022-02-11T14:52:48Z</time>
      </trkpt>
      <trkpt lat="49.92161" lon="2.37138">
        <ele>69.5</ele>
        <time>2022-02-11T14:52:50Z</time>
      </trkpt>
      <trkpt lat="49.92161" lon="2.37136">
        <ele>69.5</ele>
        <time>2022-02-11T14:52:51Z</time>
      </trkpt>
      <trkpt lat="49.92161" lon="2.37135">
        <ele>69.4</ele>
        <time>2022-02-11T14:52:52Z</time>
      </trkpt>
      <trkpt lat="49.92161" lon="2.37133">
        <ele>69.4</ele>
        <time>2022-02-11T14:52:53Z</time>
      </trkpt>
      <trkpt lat="49.9216" lon="2.37131">
        <ele>69.4</ele>
        <time>2022-02-11T14:52:54Z</time>
      </trkpt>
      <trkpt lat="49.9216" lon="2.3713">
        <ele>69.4</ele>
        <time>2022-02-11T14:52:55Z</time>
      </trkpt>
      <trkpt lat="49.9216" lon="2.37128">
        <ele>69.4</ele>
        <time>2022-02-11T14:52:56Z</time>
      </trkpt>
      <trkpt lat="49.92159" lon="2.37127">
        <ele>69.4</ele>
        <time>2022-02-11T14:52:58Z</time>
      </trkpt>
      <trkpt lat="49.92159" lon="2.37125">
        <ele>69.4</ele>
        <time>2022-02-11T14:52:59Z</time>
      </trkpt>
      <trkpt lat="49.92158" lon="2.37123">
        <ele>69.4</ele>
        <time>2022-02-11T14:53:00Z</time>
      </trkpt>
      <trkpt lat="49.92157" lon="2.37121">
        <ele>69.4</ele>
        <time>2022-02-11T14:53:01Z</time>
      </trkpt>
      <trkpt lat="49.92157" lon="2.3712">
        <ele>69.4</ele>
        <time>2022-02-11T14:53:02Z</time>
      </trkpt>
      <trkpt lat="49.92156" lon="2.37117">
        <ele>69.4</ele>
        <time>2022-02-11T14:53:03Z</time>
      </trkpt>
      <trkpt lat="49.92156" lon="2.37116">
        <ele>69.3</ele>
        <time>2022-02-11T14:53:04Z</time>
      </trkpt>
      <trkpt lat="49.92155" lon="2.37115">
        <ele>69.3</ele>
        <time>2022-02-11T14:53:05Z</time>
      </trkpt>
      <trkpt lat="49.92155" lon="2.37111">
        <ele>69.3</ele>
        <time>2022-02-11T14:53:06Z</time>
      </trkpt>
      <trkpt lat="49.92154" lon="2.37109">
        <ele>69.3</ele>
        <time>2022-02-11T14:53:08Z</time>
      </trkpt>
      <trkpt lat="49.92154" lon="2.37108">
        <ele>69.3</ele>
        <time>2022-02-11T14:53:09Z</time>
      </trkpt>
      <trkpt lat="49.92154" lon="2.37106">
        <ele>69.3</ele>
        <time>2022-02-11T14:53:10Z</time>
      </trkpt>
      <trkpt lat="49.92153" lon="2.37105">
        <ele>69.3</ele>
        <time>2022-02-11T14:53:11Z</time>
      </trkpt>
      <trkpt lat="49.92153" lon="2.37103">
        <ele>69.3</ele>
        <time>2022-02-11T14:53:12Z</time>
      </trkpt>
      <trkpt lat="49.92153" lon="2.37101">
        <ele>69.3</ele>
        <time>2022-02-11T14:53:13Z</time>
      </trkpt>
      <trkpt lat="49.92152" lon="2.371">
        <ele>69.2</ele>
        <time>2022-02-11T14:53:15Z</time>
      </trkpt>
      <trkpt lat="49.9215" lon="2.37098">
        <ele>69.2</ele>
        <time>2022-02-11T14:53:16Z</time>
      </trkpt>
      <trkpt lat="49.9215" lon="2.37097">
        <ele>69.2</ele>
        <time>2022-02-11T14:53:17Z</time>
      </trkpt>
      <trkpt lat="49.92149" lon="2.37096">
        <ele>69.2</ele>
        <time>2022-02-11T14:53:18Z</time>
      </trkpt>
      <trkpt lat="49.92148" lon="2.37095">
        <ele>69.2</ele>
        <time>2022-02-11T14:53:19Z</time>
      </trkpt>
      <trkpt lat="49.92147" lon="2.37094">
        <ele>69.2</ele>
        <time>2022-02-11T14:53:20Z</time>
      </trkpt>
      <trkpt lat="49.92146" lon="2.37093">
        <ele>69.2</ele>
        <time>2022-02-11T14:53:21Z</time>
      </trkpt>
      <trkpt lat="49.92145" lon="2.3709">
        <ele>69.2</ele>
        <time>2022-02-11T14:53:22Z</time>
      </trkpt>
      <trkpt lat="49.92145" lon="2.37089">
        <ele>69.1</ele>
        <time>2022-02-11T14:53:24Z</time>
      </trkpt>
      <trkpt lat="49.92145" lon="2.37088">
        <ele>69.1</ele>
        <time>2022-02-11T14:53:25Z</time>
      </trkpt>
      <trkpt lat="49.92144" lon="2.37086">
        <ele>69.1</ele>
        <time>2022-02-11T14:53:26Z</time>
      </trkpt>
      <trkpt lat="49.92144" lon="2.37085">
        <ele>69.1</ele>
        <time>2022-02-11T14:53:27Z</time>
      </trkpt>
      <trkpt lat="49.92144" lon="2.37083">
        <ele>69.1</ele>
        <time>2022-02-11T14:53:28Z</time>
      </trkpt>
      <trkpt lat="49.92145" lon="2.3708">
        <ele>69.1</ele>
        <time>2022-02-11T14:53:29Z</time>
      </trkpt>
      <trkpt lat="49.92145" lon="2.37079">
        <ele>69.1</ele>
        <time>2022-02-11T14:53:30Z</time>
      </trkpt>
      <trkpt lat="49.92146" lon="2.37077">
        <ele>69.1</ele>
        <time>2022-02-11T14:53:31Z</time>
      </trkpt>
      <trkpt lat="49.92146" lon="2.37075">
        <ele>69.1</ele>
        <time>2022-02-11T14:53:33Z</time>
      </trkpt>
      <trkpt lat="49.92145" lon="2.37073">
        <ele>69.1</ele>
        <time>2022-02-11T14:53:34Z</time>
      </trkpt>
      <trkpt lat="49.92145" lon="2.3707">
        <ele>69.1</ele>
        <time>2022-02-11T14:53:35Z</time>
      </trkpt>
      <trkpt lat="49.92145" lon="2.37069">
        <ele>69.1</ele>
        <time>2022-02-11T14:53:36Z</time>
      </trkpt>
      <trkpt lat="49.92145" lon="2.37068">
        <ele>69</ele>
        <time>2022-02-11T14:53:37Z</time>
      </trkpt>
      <trkpt lat="49.92144" lon="2.37066">
        <ele>69</ele>
        <time>2022-02-11T14:53:38Z</time>
      </trkpt>
      <trkpt lat="49.92144" lon="2.37064">
        <ele>69</ele>
        <time>2022-02-11T14:53:39Z</time>
      </trkpt>
      <trkpt lat="49.92143" lon="2.37063">
        <ele>69</ele>
        <time>2022-02-11T14:53:40Z</time>
      </trkpt>
      <trkpt lat="49.92142" lon="2.3706">
        <ele>69</ele>
        <time>2022-02-11T14:53:42Z</time>
      </trkpt>
      <trkpt lat="49.92142" lon="2.37059">
        <ele>69</ele>
        <time>2022-02-11T14:53:43Z</time>
      </trkpt>
      <trkpt lat="49.9214" lon="2.37056">
        <ele>69</ele>
        <time>2022-02-11T14:53:44Z</time>
      </trkpt>
      <trkpt lat="49.9214" lon="2.37055">
        <ele>69</ele>
        <time>2022-02-11T14:53:45Z</time>
      </trkpt>
      <trkpt lat="49.9214" lon="2.37054">
        <ele>69</ele>
        <time>2022-02-11T14:53:46Z</time>
      </trkpt>
      <trkpt lat="49.92139" lon="2.37052">
        <ele>69</ele>
        <time>2022-02-11T14:53:47Z</time>
      </trkpt>
      <trkpt lat="49.92138" lon="2.37051">
        <ele>69</ele>
        <time>2022-02-11T14:53:48Z</time>
      </trkpt>
      <trkpt lat="49.92138" lon="2.37049">
        <ele>69</ele>
        <time>2022-02-11T14:53:50Z</time>
      </trkpt>
      <trkpt lat="49.92137" lon="2.37047">
        <ele>69</ele>
        <time>2022-02-11T14:53:51Z</time>
      </trkpt>
      <trkpt lat="49.92137" lon="2.37045">
        <ele>69</ele>
        <time>2022-02-11T14:53:52Z</time>
      </trkpt>
      <trkpt lat="49.92137" lon="2.37044">
        <ele>68.9</ele>
        <time>2022-02-11T14:53:53Z</time>
      </trkpt>
      <trkpt lat="49.92136" lon="2.37041">
        <ele>68.9</ele>
        <time>2022-02-11T14:53:54Z</time>
      </trkpt>
      <trkpt lat="49.92136" lon="2.3704">
        <ele>68.9</ele>
        <time>2022-02-11T14:53:56Z</time>
      </trkpt>
      <trkpt lat="49.92135" lon="2.37038">
        <ele>68.9</ele>
        <time>2022-02-11T14:53:57Z</time>
      </trkpt>
      <trkpt lat="49.92135" lon="2.37037">
        <ele>68.9</ele>
        <time>2022-02-11T14:53:58Z</time>
      </trkpt>
      <trkpt lat="49.92135" lon="2.37036">
        <ele>68.9</ele>
        <time>2022-02-11T14:53:59Z</time>
      </trkpt>
      <trkpt lat="49.92134" lon="2.37034">
        <ele>68.9</ele>
        <time>2022-02-11T14:54:00Z</time>
      </trkpt>
      <trkpt lat="49.92133" lon="2.37034">
        <ele>68.8</ele>
        <time>2022-02-11T14:54:02Z</time>
      </trkpt>
      <trkpt lat="49.92132" lon="2.37033">
        <ele>68.8</ele>
        <time>2022-02-11T14:54:03Z</time>
      </trkpt>
      <trkpt lat="49.92131" lon="2.37033">
        <ele>68.8</ele>
        <time>2022-02-11T14:54:04Z</time>
      </trkpt>
      <trkpt lat="49.9213" lon="2.37032">
        <ele>68.8</ele>
        <time>2022-02-11T14:54:05Z</time>
      </trkpt>
      <trkpt lat="49.92129" lon="2.37031">
        <ele>68.8</ele>
        <time>2022-02-11T14:54:06Z</time>
      </trkpt>
      <trkpt lat="49.92129" lon="2.37029">
        <ele>68.8</ele>
        <time>2022-02-11T14:54:08Z</time>
      </trkpt>
      <trkpt lat="49.92128" lon="2.37027">
        <ele>68.8</ele>
        <time>2022-02-11T14:54:09Z</time>
      </trkpt>
      <trkpt lat="49.92128" lon="2.37026">
        <ele>68.7</ele>
        <time>2022-02-11T14:54:10Z</time>
      </trkpt>
      <trkpt lat="49.92127" lon="2.37024">
        <ele>68.7</ele>
        <time>2022-02-11T14:54:11Z</time>
      </trkpt>
      <trkpt lat="49.92127" lon="2.37023">
        <ele>68.7</ele>
        <time>2022-02-11T14:54:12Z</time>
      </trkpt>
      <trkpt lat="49.92126" lon="2.37021">
        <ele>68.7</ele>
        <time>2022-02-11T14:54:13Z</time>
      </trkpt>
      <trkpt lat="49.92126" lon="2.3702">
        <ele>68.7</ele>
        <time>2022-02-11T14:54:14Z</time>
      </trkpt>
      <trkpt lat="49.92126" lon="2.37019">
        <ele>68.7</ele>
        <time>2022-02-11T14:54:15Z</time>
      </trkpt>
      <trkpt lat="49.92125" lon="2.37018">
        <ele>68.7</ele>
        <time>2022-02-11T14:54:16Z</time>
      </trkpt>
      <trkpt lat="49.92124" lon="2.37016">
        <ele>68.7</ele>
        <time>2022-02-11T14:54:18Z</time>
      </trkpt>
      <trkpt lat="49.92124" lon="2.37015">
        <ele>68.6</ele>
        <time>2022-02-11T14:54:19Z</time>
      </trkpt>
      <trkpt lat="49.92124" lon="2.37014">
        <ele>68.6</ele>
        <time>2022-02-11T14:54:20Z</time>
      </trkpt>
      <trkpt lat="49.92123" lon="2.37012">
        <ele>68.6</ele>
        <time>2022-02-11T14:54:21Z</time>
      </trkpt>
      <trkpt lat="49.92122" lon="2.37009">
        <ele>68.6</ele>
        <time>2022-02-11T14:54:22Z</time>
      </trkpt>
      <trkpt lat="49.92122" lon="2.37007">
        <ele>68.6</ele>
        <time>2022-02-11T14:54:24Z</time>
      </trkpt>
      <trkpt lat="49.92122" lon="2.37006">
        <ele>68.6</ele>
        <time>2022-02-11T14:54:25Z</time>
      </trkpt>
      <trkpt lat="49.92121" lon="2.37005">
        <ele>68.5</ele>
        <time>2022-02-11T14:54:26Z</time>
      </trkpt>
      <trkpt lat="49.9212" lon="2.37004">
        <ele>68.5</ele>
        <time>2022-02-11T14:54:27Z</time>
      </trkpt>
      <trkpt lat="49.92119" lon="2.37002">
        <ele>68.5</ele>
        <time>2022-02-11T14:54:28Z</time>
      </trkpt>
      <trkpt lat="49.92119" lon="2.37">
        <ele>68.5</ele>
        <time>2022-02-11T14:54:29Z</time>
      </trkpt>
      <trkpt lat="49.92119" lon="2.36999">
        <ele>68.5</ele>
        <time>2022-02-11T14:54:30Z</time>
      </trkpt>
      <trkpt lat="49.92119" lon="2.36997">
        <ele>68.5</ele>
        <time>2022-02-11T14:54:31Z</time>
      </trkpt>
      <trkpt lat="49.92118" lon="2.36995">
        <ele>68.5</ele>
        <time>2022-02-11T14:54:33Z</time>
      </trkpt>
      <trkpt lat="49.92118" lon="2.36992">
        <ele>68.4</ele>
        <time>2022-02-11T14:54:34Z</time>
      </trkpt>
      <trkpt lat="49.92118" lon="2.3699">
        <ele>68.4</ele>
        <time>2022-02-11T14:54:35Z</time>
      </trkpt>
      <trkpt lat="49.92118" lon="2.36988">
        <ele>68.4</ele>
        <time>2022-02-11T14:54:36Z</time>
      </trkpt>
      <trkpt lat="49.92118" lon="2.36985">
        <ele>68.4</ele>
        <time>2022-02-11T14:54:37Z</time>
      </trkpt>
      <trkpt lat="49.92118" lon="2.36983">
        <ele>68.4</ele>
        <time>2022-02-11T14:54:38Z</time>
      </trkpt>
      <trkpt lat="49.92118" lon="2.36982">
        <ele>68.4</ele>
        <time>2022-02-11T14:54:39Z</time>
      </trkpt>
      <trkpt lat="49.92118" lon="2.3698">
        <ele>68.3</ele>
        <time>2022-02-11T14:54:40Z</time>
      </trkpt>
      <trkpt lat="49.92118" lon="2.36978">
        <ele>68.3</ele>
        <time>2022-02-11T14:54:41Z</time>
      </trkpt>
      <trkpt lat="49.92117" lon="2.36977">
        <ele>68.3</ele>
        <time>2022-02-11T14:54:43Z</time>
      </trkpt>
      <trkpt lat="49.92116" lon="2.36975">
        <ele>68.3</ele>
        <time>2022-02-11T14:54:44Z</time>
      </trkpt>
      <trkpt lat="49.92116" lon="2.36974">
        <ele>68.3</ele>
        <time>2022-02-11T14:54:45Z</time>
      </trkpt>
      <trkpt lat="49.92115" lon="2.36972">
        <ele>68.3</ele>
        <time>2022-02-11T14:54:46Z</time>
      </trkpt>
      <trkpt lat="49.92115" lon="2.3697">
        <ele>68.3</ele>
        <time>2022-02-11T14:54:47Z</time>
      </trkpt>
      <trkpt lat="49.92115" lon="2.36968">
        <ele>68.3</ele>
        <time>2022-02-11T14:54:48Z</time>
      </trkpt>
      <trkpt lat="49.92115" lon="2.36967">
        <ele>68.2</ele>
        <time>2022-02-11T14:54:49Z</time>
      </trkpt>
      <trkpt lat="49.92114" lon="2.36963">
        <ele>68.2</ele>
        <time>2022-02-11T14:54:51Z</time>
      </trkpt>
      <trkpt lat="49.92114" lon="2.36962">
        <ele>68.2</ele>
        <time>2022-02-11T14:54:52Z</time>
      </trkpt>
      <trkpt lat="49.92114" lon="2.36962">
        <ele>68.2</ele>
        <time>2022-02-11T14:54:53Z</time>
      </trkpt>
      <trkpt lat="49.92112" lon="2.36959">
        <ele>68.2</ele>
        <time>2022-02-11T14:54:54Z</time>
      </trkpt>
      <trkpt lat="49.92112" lon="2.36958">
        <ele>68.2</ele>
        <time>2022-02-11T14:54:55Z</time>
      </trkpt>
      <trkpt lat="49.92111" lon="2.36958">
        <ele>68.2</ele>
        <time>2022-02-11T14:54:56Z</time>
      </trkpt>
      <trkpt lat="49.9211" lon="2.36956">
        <ele>68.2</ele>
        <time>2022-02-11T14:54:58Z</time>
      </trkpt>
      <trkpt lat="49.92109" lon="2.36954">
        <ele>68.2</ele>
        <time>2022-02-11T14:54:59Z</time>
      </trkpt>
      <trkpt lat="49.92108" lon="2.36952">
        <ele>68.1</ele>
        <time>2022-02-11T14:55:00Z</time>
      </trkpt>
      <trkpt lat="49.92107" lon="2.36951">
        <ele>68.1</ele>
        <time>2022-02-11T14:55:01Z</time>
      </trkpt>
      <trkpt lat="49.92106" lon="2.3695">
        <ele>68.1</ele>
        <time>2022-02-11T14:55:02Z</time>
      </trkpt>
      <trkpt lat="49.92105" lon="2.36948">
        <ele>68.1</ele>
        <time>2022-02-11T14:55:03Z</time>
      </trkpt>
      <trkpt lat="49.92105" lon="2.36947">
        <ele>68.1</ele>
        <time>2022-02-11T14:55:04Z</time>
      </trkpt>
      <trkpt lat="49.92103" lon="2.36944">
        <ele>68.1</ele>
        <time>2022-02-11T14:55:06Z</time>
      </trkpt>
      <trkpt lat="49.92103" lon="2.36943">
        <ele>68.1</ele>
        <time>2022-02-11T14:55:07Z</time>
      </trkpt>
      <trkpt lat="49.92102" lon="2.36942">
        <ele>68.1</ele>
        <time>2022-02-11T14:55:08Z</time>
      </trkpt>
      <trkpt lat="49.92101" lon="2.3694">
        <ele>68.1</ele>
        <time>2022-02-11T14:55:09Z</time>
      </trkpt>
      <trkpt lat="49.921" lon="2.36938">
        <ele>68.1</ele>
        <time>2022-02-11T14:55:10Z</time>
      </trkpt>
      <trkpt lat="49.921" lon="2.36936">
        <ele>68.1</ele>
        <time>2022-02-11T14:55:11Z</time>
      </trkpt>
      <trkpt lat="49.92099" lon="2.36934">
        <ele>68.1</ele>
        <time>2022-02-11T14:55:12Z</time>
      </trkpt>
      <trkpt lat="49.92099" lon="2.36933">
        <ele>68.1</ele>
        <time>2022-02-11T14:55:13Z</time>
      </trkpt>
      <trkpt lat="49.92098" lon="2.3693">
        <ele>68</ele>
        <time>2022-02-11T14:55:14Z</time>
      </trkpt>
      <trkpt lat="49.92098" lon="2.36929">
        <ele>68</ele>
        <time>2022-02-11T14:55:15Z</time>
      </trkpt>
      <trkpt lat="49.92098" lon="2.36927">
        <ele>68</ele>
        <time>2022-02-11T14:55:16Z</time>
      </trkpt>
      <trkpt lat="49.92096" lon="2.36924">
        <ele>68</ele>
        <time>2022-02-11T14:55:17Z</time>
      </trkpt>
      <trkpt lat="49.92096" lon="2.36923">
        <ele>68</ele>
        <time>2022-02-11T14:55:19Z</time>
      </trkpt>
      <trkpt lat="49.92095" lon="2.36922">
        <ele>68</ele>
        <time>2022-02-11T14:55:20Z</time>
      </trkpt>
      <trkpt lat="49.92094" lon="2.3692">
        <ele>68</ele>
        <time>2022-02-11T14:55:21Z</time>
      </trkpt>
      <trkpt lat="49.92094" lon="2.36919">
        <ele>68</ele>
        <time>2022-02-11T14:55:22Z</time>
      </trkpt>
      <trkpt lat="49.92093" lon="2.36917">
        <ele>68</ele>
        <time>2022-02-11T14:55:23Z</time>
      </trkpt>
      <trkpt lat="49.92093" lon="2.36915">
        <ele>68</ele>
        <time>2022-02-11T14:55:24Z</time>
      </trkpt>
      <trkpt lat="49.92092" lon="2.36913">
        <ele>68</ele>
        <time>2022-02-11T14:55:26Z</time>
      </trkpt>
      <trkpt lat="49.92091" lon="2.3691">
        <ele>68</ele>
        <time>2022-02-11T14:55:27Z</time>
      </trkpt>
      <trkpt lat="49.92091" lon="2.36909">
        <ele>68</ele>
        <time>2022-02-11T14:55:28Z</time>
      </trkpt>
      <trkpt lat="49.9209" lon="2.36907">
        <ele>68</ele>
        <time>2022-02-11T14:55:29Z</time>
      </trkpt>
      <trkpt lat="49.9209" lon="2.36906">
        <ele>68</ele>
        <time>2022-02-11T14:55:30Z</time>
      </trkpt>
      <trkpt lat="49.92089" lon="2.36905">
        <ele>68</ele>
        <time>2022-02-11T14:55:31Z</time>
      </trkpt>
      <trkpt lat="49.92089" lon="2.36903">
        <ele>68</ele>
        <time>2022-02-11T14:55:32Z</time>
      </trkpt>
      <trkpt lat="49.92088" lon="2.369">
        <ele>68</ele>
        <time>2022-02-11T14:55:33Z</time>
      </trkpt>
      <trkpt lat="49.92087" lon="2.36898">
        <ele>68</ele>
        <time>2022-02-11T14:55:35Z</time>
      </trkpt>
      <trkpt lat="49.92087" lon="2.36897">
        <ele>68</ele>
        <time>2022-02-11T14:55:36Z</time>
      </trkpt>
      <trkpt lat="49.92086" lon="2.36895">
        <ele>68</ele>
        <time>2022-02-11T14:55:37Z</time>
      </trkpt>
      <trkpt lat="49.92086" lon="2.36894">
        <ele>68</ele>
        <time>2022-02-11T14:55:38Z</time>
      </trkpt>
      <trkpt lat="49.92085" lon="2.36893">
        <ele>68</ele>
        <time>2022-02-11T14:55:39Z</time>
      </trkpt>
      <trkpt lat="49.92085" lon="2.36891">
        <ele>68</ele>
        <time>2022-02-11T14:55:40Z</time>
      </trkpt>
      <trkpt lat="49.92084" lon="2.36889">
        <ele>68</ele>
        <time>2022-02-11T14:55:41Z</time>
      </trkpt>
      <trkpt lat="49.92084" lon="2.36888">
        <ele>68</ele>
        <time>2022-02-11T14:55:42Z</time>
      </trkpt>
      <trkpt lat="49.92083" lon="2.36887">
        <ele>68</ele>
        <time>2022-02-11T14:55:43Z</time>
      </trkpt>
      <trkpt lat="49.92082" lon="2.36885">
        <ele>68</ele>
        <time>2022-02-11T14:55:45Z</time>
      </trkpt>
      <trkpt lat="49.92082" lon="2.36883">
        <ele>68</ele>
        <time>2022-02-11T14:55:46Z</time>
      </trkpt>
      <trkpt lat="49.92082" lon="2.36881">
        <ele>68</ele>
        <time>2022-02-11T14:55:47Z</time>
      </trkpt>
      <trkpt lat="49.92082" lon="2.3688">
        <ele>68</ele>
        <time>2022-02-11T14:55:48Z</time>
      </trkpt>
      <trkpt lat="49.92081" lon="2.36878">
        <ele>68</ele>
        <time>2022-02-11T14:55:49Z</time>
      </trkpt>
      <trkpt lat="49.92081" lon="2.36877">
        <ele>68</ele>
        <time>2022-02-11T14:55:50Z</time>
      </trkpt>
      <trkpt lat="49.92081" lon="2.36875">
        <ele>68</ele>
        <time>2022-02-11T14:55:52Z</time>
      </trkpt>
      <trkpt lat="49.92081" lon="2.36873">
        <ele>68</ele>
        <time>2022-02-11T14:55:53Z</time>
      </trkpt>
      <trkpt lat="49.92081" lon="2.36871">
        <ele>68</ele>
        <time>2022-02-11T14:55:54Z</time>
      </trkpt>
      <trkpt lat="49.92081" lon="2.3687">
        <ele>68</ele>
        <time>2022-02-11T14:55:55Z</time>
      </trkpt>
      <trkpt lat="49.92081" lon="2.36868">
        <ele>68</ele>
        <time>2022-02-11T14:55:56Z</time>
      </trkpt>
      <trkpt lat="49.9208" lon="2.36867">
        <ele>68</ele>
        <time>2022-02-11T14:55:57Z</time>
      </trkpt>
      <trkpt lat="49.9208" lon="2.36865">
        <ele>68</ele>
        <time>2022-02-11T14:55:59Z</time>
      </trkpt>
      <trkpt lat="49.92079" lon="2.36863">
        <ele>68</ele>
        <time>2022-02-11T14:56:00Z</time>
      </trkpt>
      <trkpt lat="49.92079" lon="2.36862">
        <ele>68</ele>
        <time>2022-02-11T14:56:01Z</time>
      </trkpt>
      <trkpt lat="49.92079" lon="2.3686">
        <ele>68</ele>
        <time>2022-02-11T14:56:02Z</time>
      </trkpt>
      <trkpt lat="49.92079" lon="2.36859">
        <ele>68</ele>
        <time>2022-02-11T14:56:03Z</time>
      </trkpt>
      <trkpt lat="49.92079" lon="2.36857">
        <ele>68</ele>
        <time>2022-02-11T14:56:04Z</time>
      </trkpt>
      <trkpt lat="49.92079" lon="2.36855">
        <ele>68.1</ele>
        <time>2022-02-11T14:56:06Z</time>
      </trkpt>
      <trkpt lat="49.92079" lon="2.36854">
        <ele>68.1</ele>
        <time>2022-02-11T14:56:07Z</time>
      </trkpt>
      <trkpt lat="49.92078" lon="2.36852">
        <ele>68.1</ele>
        <time>2022-02-11T14:56:08Z</time>
      </trkpt>
      <trkpt lat="49.92078" lon="2.3685">
        <ele>68.1</ele>
        <time>2022-02-11T14:56:09Z</time>
      </trkpt>
      <trkpt lat="49.92078" lon="2.36848">
        <ele>68.1</ele>
        <time>2022-02-11T14:56:10Z</time>
      </trkpt>
      <trkpt lat="49.92077" lon="2.36847">
        <ele>68.1</ele>
        <time>2022-02-11T14:56:11Z</time>
      </trkpt>
      <trkpt lat="49.92077" lon="2.36845">
        <ele>68.1</ele>
        <time>2022-02-11T14:56:12Z</time>
      </trkpt>
      <trkpt lat="49.92076" lon="2.36843">
        <ele>68.1</ele>
        <time>2022-02-11T14:56:13Z</time>
      </trkpt>
      <trkpt lat="49.92076" lon="2.36841">
        <ele>68.1</ele>
        <time>2022-02-11T14:56:14Z</time>
      </trkpt>
      <trkpt lat="49.92076" lon="2.36839">
        <ele>68.1</ele>
        <time>2022-02-11T14:56:16Z</time>
      </trkpt>
      <trkpt lat="49.92075" lon="2.36837">
        <ele>68.1</ele>
        <time>2022-02-11T14:56:17Z</time>
      </trkpt>
      <trkpt lat="49.92075" lon="2.36836">
        <ele>68.2</ele>
        <time>2022-02-11T14:56:18Z</time>
      </trkpt>
      <trkpt lat="49.92074" lon="2.36834">
        <ele>68.2</ele>
        <time>2022-02-11T14:56:19Z</time>
      </trkpt>
      <trkpt lat="49.92074" lon="2.36832">
        <ele>68.2</ele>
        <time>2022-02-11T14:56:20Z</time>
      </trkpt>
      <trkpt lat="49.92074" lon="2.3683">
        <ele>68.2</ele>
        <time>2022-02-11T14:56:21Z</time>
      </trkpt>
      <trkpt lat="49.92073" lon="2.36829">
        <ele>68.2</ele>
        <time>2022-02-11T14:56:22Z</time>
      </trkpt>
      <trkpt lat="49.92073" lon="2.36827">
        <ele>68.2</ele>
        <time>2022-02-11T14:56:23Z</time>
      </trkpt>
      <trkpt lat="49.92072" lon="2.36826">
        <ele>68.2</ele>
        <time>2022-02-11T14:56:24Z</time>
      </trkpt>
      <trkpt lat="49.92072" lon="2.36824">
        <ele>68.2</ele>
        <time>2022-02-11T14:56:25Z</time>
      </trkpt>
      <trkpt lat="49.92071" lon="2.36822">
        <ele>68.2</ele>
        <time>2022-02-11T14:56:27Z</time>
      </trkpt>
      <trkpt lat="49.92071" lon="2.36821">
        <ele>68.3</ele>
        <time>2022-02-11T14:56:28Z</time>
      </trkpt>
      <trkpt lat="49.9207" lon="2.36819">
        <ele>68.3</ele>
        <time>2022-02-11T14:56:29Z</time>
      </trkpt>
      <trkpt lat="49.9207" lon="2.36816">
        <ele>68.3</ele>
        <time>2022-02-11T14:56:30Z</time>
      </trkpt>
      <trkpt lat="49.9207" lon="2.36815">
        <ele>68.3</ele>
        <time>2022-02-11T14:56:31Z</time>
      </trkpt>
      <trkpt lat="49.92069" lon="2.36814">
        <ele>68.3</ele>
        <time>2022-02-11T14:56:32Z</time>
      </trkpt>
      <trkpt lat="49.92069" lon="2.36812">
        <ele>68.3</ele>
        <time>2022-02-11T14:56:33Z</time>
      </trkpt>
      <trkpt lat="49.92069" lon="2.3681">
        <ele>68.3</ele>
        <time>2022-02-11T14:56:34Z</time>
      </trkpt>
      <trkpt lat="49.92068" lon="2.36809">
        <ele>68.4</ele>
        <time>2022-02-11T14:56:35Z</time>
      </trkpt>
      <trkpt lat="49.92067" lon="2.36806">
        <ele>68.4</ele>
        <time>2022-02-11T14:56:36Z</time>
      </trkpt>
      <trkpt lat="49.92066" lon="2.36805">
        <ele>68.4</ele>
        <time>2022-02-11T14:56:38Z</time>
      </trkpt>
      <trkpt lat="49.92066" lon="2.36804">
        <ele>68.4</ele>
        <time>2022-02-11T14:56:39Z</time>
      </trkpt>
      <trkpt lat="49.92065" lon="2.36803">
        <ele>68.4</ele>
        <time>2022-02-11T14:56:40Z</time>
      </trkpt>
      <trkpt lat="49.92065" lon="2.36801">
        <ele>68.4</ele>
        <time>2022-02-11T14:56:42Z</time>
      </trkpt>
      <trkpt lat="49.92064" lon="2.368">
        <ele>68.4</ele>
        <time>2022-02-11T14:56:44Z</time>
      </trkpt>
      <trkpt lat="49.92064" lon="2.368">
        <ele>68.4</ele>
        <time>2022-02-11T14:56:45Z</time>
      </trkpt>
      <trkpt lat="49.92063" lon="2.368">
        <ele>68.4</ele>
        <time>2022-02-11T14:56:46Z</time>
      </trkpt>
      <trkpt lat="49.92062" lon="2.36799">
        <ele>68.4</ele>
        <time>2022-02-11T14:56:47Z</time>
      </trkpt>
      <trkpt lat="49.92062" lon="2.36799">
        <ele>68.4</ele>
        <time>2022-02-11T14:56:48Z</time>
      </trkpt>
      <trkpt lat="49.92061" lon="2.36798">
        <ele>68.4</ele>
        <time>2022-02-11T14:56:49Z</time>
      </trkpt>
      <trkpt lat="49.92061" lon="2.36797">
        <ele>68.4</ele>
        <time>2022-02-11T14:56:50Z</time>
      </trkpt>
      <trkpt lat="49.92061" lon="2.36797">
        <ele>68.4</ele>
        <time>2022-02-11T14:56:51Z</time>
      </trkpt>
      <trkpt lat="49.92062" lon="2.36796">
        <ele>68.4</ele>
        <time>2022-02-11T14:56:52Z</time>
      </trkpt>
      <trkpt lat="49.92062" lon="2.36796">
        <ele>68.4</ele>
        <time>2022-02-11T14:56:53Z</time>
      </trkpt>
      <trkpt lat="49.92062" lon="2.36797">
        <ele>68.4</ele>
        <time>2022-02-11T14:56:54Z</time>
      </trkpt>
      <trkpt lat="49.92062" lon="2.36797">
        <ele>68.4</ele>
        <time>2022-02-11T14:56:55Z</time>
      </trkpt>
      <trkpt lat="49.92062" lon="2.36797">
        <ele>68.4</ele>
        <time>2022-02-11T14:56:56Z</time>
      </trkpt>
      <trkpt lat="49.92062" lon="2.36797">
        <ele>68.4</ele>
        <time>2022-02-11T14:56:57Z</time>
      </trkpt>
      <trkpt lat="49.92062" lon="2.36797">
        <ele>68.4</ele>
        <time>2022-02-11T14:56:58Z</time>
      </trkpt>
      <trkpt lat="49.92062" lon="2.36797">
        <ele>68.4</ele>
        <time>2022-02-11T14:56:59Z</time>
      </trkpt>
      <trkpt lat="49.92062" lon="2.36797">
        <ele>68.4</ele>
        <time>2022-02-11T14:57:00Z</time>
      </trkpt>
      <trkpt lat="49.92062" lon="2.36797">
        <ele>68.4</ele>
        <time>2022-02-11T14:57:01Z</time>
      </trkpt>
      <trkpt lat="49.92062" lon="2.36797">
        <ele>68.4</ele>
        <time>2022-02-11T14:57:02Z</time>
      </trkpt>
      <trkpt lat="49.92062" lon="2.36797">
        <ele>68.4</ele>
        <time>2022-02-11T14:57:03Z</time>
      </trkpt>
      <trkpt lat="49.92062" lon="2.36797">
        <ele>68.4</ele>
        <time>2022-02-11T14:57:04Z</time>
      </trkpt>
      <trkpt lat="49.92062" lon="2.36797">
        <ele>68.4</ele>
        <time>2022-02-11T14:57:05Z</time>
      </trkpt>
      <trkpt lat="49.92062" lon="2.36797">
        <ele>68.4</ele>
        <time>2022-02-11T14:57:06Z</time>
      </trkpt>
      <trkpt lat="49.92062" lon="2.36798">
        <ele>68.4</ele>
        <time>2022-02-11T14:57:07Z</time>
      </trkpt>
      <trkpt lat="49.92062" lon="2.36798">
        <ele>68.4</ele>
        <time>2022-02-11T14:57:08Z</time>
      </trkpt>
      <trkpt lat="49.92062" lon="2.36798">
        <ele>68.4</ele>
        <time>2022-02-11T14:57:09Z</time>
      </trkpt>
      <trkpt lat="49.92062" lon="2.36798">
        <ele>68.4</ele>
        <time>2022-02-11T14:57:10Z</time>
      </trkpt>
      <trkpt lat="49.92062" lon="2.36798">
        <ele>68.4</ele>
        <time>2022-02-11T14:57:11Z</time>
      </trkpt>
      <trkpt lat="49.92062" lon="2.36798">
        <ele>68.4</ele>
        <time>2022-02-11T14:57:12Z</time>
      </trkpt>
      <trkpt lat="49.92062" lon="2.36798">
        <ele>68.4</ele>
        <time>2022-02-11T14:57:13Z</time>
      </trkpt>
      <trkpt lat="49.92062" lon="2.36798">
        <ele>68.4</ele>
        <time>2022-02-11T14:57:14Z</time>
      </trkpt>
      <trkpt lat="49.92062" lon="2.36798">
        <ele>68.4</ele>
        <time>2022-02-11T14:57:15Z</time>
      </trkpt>
      <trkpt lat="49.92062" lon="2.36798">
        <ele>68.4</ele>
        <time>2022-02-11T14:57:16Z</time>
      </trkpt>
      <trkpt lat="49.92062" lon="2.36798">
        <ele>68.4</ele>
        <time>2022-02-11T14:57:17Z</time>
      </trkpt>
      <trkpt lat="49.92062" lon="2.36798">
        <ele>68.4</ele>
        <time>2022-02-11T14:57:18Z</time>
      </trkpt>
      <trkpt lat="49.92062" lon="2.36798">
        <ele>68.4</ele>
        <time>2022-02-11T14:57:19Z</time>
      </trkpt>
      <trkpt lat="49.92062" lon="2.36798">
        <ele>68.4</ele>
        <time>2022-02-11T14:57:20Z</time>
      </trkpt>
      <trkpt lat="49.92062" lon="2.36798">
        <ele>68.4</ele>
        <time>2022-02-11T14:57:21Z</time>
      </trkpt>
      <trkpt lat="49.92062" lon="2.36798">
        <ele>68.4</ele>
        <time>2022-02-11T14:57:22Z</time>
      </trkpt>
      <trkpt lat="49.92062" lon="2.36798">
        <ele>68.4</ele>
        <time>2022-02-11T14:57:23Z</time>
      </trkpt>
      <trkpt lat="49.92062" lon="2.36798">
        <ele>68.4</ele>
        <time>2022-02-11T14:57:24Z</time>
      </trkpt>
      <trkpt lat="49.92062" lon="2.36798">
        <ele>68.4</ele>
        <time>2022-02-11T14:57:25Z</time>
      </trkpt>
      <trkpt lat="49.92062" lon="2.36798">
        <ele>68.4</ele>
        <time>2022-02-11T14:57:26Z</time>
      </trkpt>
      <trkpt lat="49.92062" lon="2.36798">
        <ele>68.4</ele>
        <time>2022-02-11T14:57:27Z</time>
      </trkpt>
      <trkpt lat="49.92062" lon="2.36798">
        <ele>68.4</ele>
        <time>2022-02-11T14:57:28Z</time>
      </trkpt>
      <trkpt lat="49.92062" lon="2.36798">
        <ele>68.4</ele>
        <time>2022-02-11T14:57:29Z</time>
      </trkpt>
      <trkpt lat="49.92062" lon="2.36798">
        <ele>68.4</ele>
        <time>2022-02-11T14:57:30Z</time>
      </trkpt>
      <trkpt lat="49.92062" lon="2.368">
        <ele>68.4</ele>
        <time>2022-02-11T14:57:31Z</time>
      </trkpt>
      <trkpt lat="49.92063" lon="2.36801">
        <ele>68.4</ele>
        <time>2022-02-11T14:57:32Z</time>
      </trkpt>
      <trkpt lat="49.92063" lon="2.36801">
        <ele>68.4</ele>
        <time>2022-02-11T14:57:33Z</time>
      </trkpt>
      <trkpt lat="49.92063" lon="2.368">
        <ele>68.4</ele>
        <time>2022-02-11T14:57:34Z</time>
      </trkpt>
      <trkpt lat="49.92062" lon="2.36801">
        <ele>68.4</ele>
        <time>2022-02-11T14:57:35Z</time>
      </trkpt>
      <trkpt lat="49.92062" lon="2.36798">
        <ele>68.4</ele>
        <time>2022-02-11T14:57:37Z</time>
      </trkpt>
      <trkpt lat="49.92062" lon="2.36796">
        <ele>68.4</ele>
        <time>2022-02-11T14:57:38Z</time>
      </trkpt>
      <trkpt lat="49.92062" lon="2.36794">
        <ele>68.4</ele>
        <time>2022-02-11T14:57:39Z</time>
      </trkpt>
      <trkpt lat="49.92062" lon="2.36792">
        <ele>68.4</ele>
        <time>2022-02-11T14:57:40Z</time>
      </trkpt>
      <trkpt lat="49.92061" lon="2.3679">
        <ele>68.4</ele>
        <time>2022-02-11T14:57:41Z</time>
      </trkpt>
      <trkpt lat="49.92061" lon="2.36787">
        <ele>68.4</ele>
        <time>2022-02-11T14:57:42Z</time>
      </trkpt>
      <trkpt lat="49.92061" lon="2.36785">
        <ele>68.4</ele>
        <time>2022-02-11T14:57:43Z</time>
      </trkpt>
      <trkpt lat="49.9206" lon="2.36783">
        <ele>68.4</ele>
        <time>2022-02-11T14:57:44Z</time>
      </trkpt>
      <trkpt lat="49.92059" lon="2.36781">
        <ele>68.4</ele>
        <time>2022-02-11T14:57:46Z</time>
      </trkpt>
      <trkpt lat="49.92059" lon="2.3678">
        <ele>68.4</ele>
        <time>2022-02-11T14:57:47Z</time>
      </trkpt>
      <trkpt lat="49.92058" lon="2.36778">
        <ele>68.4</ele>
        <time>2022-02-11T14:57:48Z</time>
      </trkpt>
      <trkpt lat="49.92058" lon="2.36775">
        <ele>68.4</ele>
        <time>2022-02-11T14:57:49Z</time>
      </trkpt>
      <trkpt lat="49.92057" lon="2.36774">
        <ele>68.4</ele>
        <time>2022-02-11T14:57:50Z</time>
      </trkpt>
      <trkpt lat="49.92057" lon="2.36773">
        <ele>68.4</ele>
        <time>2022-02-11T14:57:51Z</time>
      </trkpt>
      <trkpt lat="49.92056" lon="2.3677">
        <ele>68.4</ele>
        <time>2022-02-11T14:57:52Z</time>
      </trkpt>
      <trkpt lat="49.92056" lon="2.36769">
        <ele>68.4</ele>
        <time>2022-02-11T14:57:54Z</time>
      </trkpt>
      <trkpt lat="49.92055" lon="2.36767">
        <ele>68.4</ele>
        <time>2022-02-11T14:57:55Z</time>
      </trkpt>
      <trkpt lat="49.92055" lon="2.36765">
        <ele>68.4</ele>
        <time>2022-02-11T14:57:56Z</time>
      </trkpt>
      <trkpt lat="49.92054" lon="2.36763">
        <ele>68.4</ele>
        <time>2022-02-11T14:57:57Z</time>
      </trkpt>
      <trkpt lat="49.92054" lon="2.36762">
        <ele>68.4</ele>
        <time>2022-02-11T14:57:58Z</time>
      </trkpt>
      <trkpt lat="49.92053" lon="2.36759">
        <ele>68.4</ele>
        <time>2022-02-11T14:57:59Z</time>
      </trkpt>
      <trkpt lat="49.92053" lon="2.36758">
        <ele>68.4</ele>
        <time>2022-02-11T14:58:00Z</time>
      </trkpt>
      <trkpt lat="49.92052" lon="2.36757">
        <ele>68.4</ele>
        <time>2022-02-11T14:58:01Z</time>
      </trkpt>
      <trkpt lat="49.92051" lon="2.36754">
        <ele>68.3</ele>
        <time>2022-02-11T14:58:02Z</time>
      </trkpt>
      <trkpt lat="49.92051" lon="2.36752">
        <ele>68.3</ele>
        <time>2022-02-11T14:58:04Z</time>
      </trkpt>
      <trkpt lat="49.9205" lon="2.36751">
        <ele>68.3</ele>
        <time>2022-02-11T14:58:05Z</time>
      </trkpt>
      <trkpt lat="49.9205" lon="2.36749">
        <ele>68.3</ele>
        <time>2022-02-11T14:58:06Z</time>
      </trkpt>
      <trkpt lat="49.9205" lon="2.36748">
        <ele>68.3</ele>
        <time>2022-02-11T14:58:07Z</time>
      </trkpt>
      <trkpt lat="49.92049" lon="2.36746">
        <ele>68.3</ele>
        <time>2022-02-11T14:58:08Z</time>
      </trkpt>
      <trkpt lat="49.92049" lon="2.36744">
        <ele>68.3</ele>
        <time>2022-02-11T14:58:09Z</time>
      </trkpt>
      <trkpt lat="49.92049" lon="2.36742">
        <ele>68.3</ele>
        <time>2022-02-11T14:58:10Z</time>
      </trkpt>
      <trkpt lat="49.92048" lon="2.36741">
        <ele>68.3</ele>
        <time>2022-02-11T14:58:11Z</time>
      </trkpt>
      <trkpt lat="49.92048" lon="2.36739">
        <ele>68.3</ele>
        <time>2022-02-11T14:58:12Z</time>
      </trkpt>
      <trkpt lat="49.92047" lon="2.36737">
        <ele>68.3</ele>
        <time>2022-02-11T14:58:14Z</time>
      </trkpt>
      <trkpt lat="49.92047" lon="2.36735">
        <ele>68.3</ele>
        <time>2022-02-11T14:58:15Z</time>
      </trkpt>
      <trkpt lat="49.92047" lon="2.36733">
        <ele>68.3</ele>
        <time>2022-02-11T14:58:16Z</time>
      </trkpt>
      <trkpt lat="49.92047" lon="2.36732">
        <ele>68.3</ele>
        <time>2022-02-11T14:58:17Z</time>
      </trkpt>
      <trkpt lat="49.92046" lon="2.3673">
        <ele>68.3</ele>
        <time>2022-02-11T14:58:18Z</time>
      </trkpt>
      <trkpt lat="49.92046" lon="2.36728">
        <ele>68.3</ele>
        <time>2022-02-11T14:58:19Z</time>
      </trkpt>
      <trkpt lat="49.92046" lon="2.36727">
        <ele>68.3</ele>
        <time>2022-02-11T14:58:20Z</time>
      </trkpt>
      <trkpt lat="49.92045" lon="2.36725">
        <ele>68.3</ele>
        <time>2022-02-11T14:58:21Z</time>
      </trkpt>
      <trkpt lat="49.92045" lon="2.36724">
        <ele>68.3</ele>
        <time>2022-02-11T14:58:22Z</time>
      </trkpt>
      <trkpt lat="49.92045" lon="2.36722">
        <ele>68.3</ele>
        <time>2022-02-11T14:58:23Z</time>
      </trkpt>
      <trkpt lat="49.92044" lon="2.3672">
        <ele>68.3</ele>
        <time>2022-02-11T14:58:24Z</time>
      </trkpt>
      <trkpt lat="49.92043" lon="2.36718">
        <ele>68.3</ele>
        <time>2022-02-11T14:58:25Z</time>
      </trkpt>
      <trkpt lat="49.92043" lon="2.36715">
        <ele>68.3</ele>
        <time>2022-02-11T14:58:27Z</time>
      </trkpt>
      <trkpt lat="49.92043" lon="2.36714">
        <ele>68.3</ele>
        <time>2022-02-11T14:58:28Z</time>
      </trkpt>
      <trkpt lat="49.92042" lon="2.36713">
        <ele>68.3</ele>
        <time>2022-02-11T14:58:29Z</time>
      </trkpt>
      <trkpt lat="49.92042" lon="2.36711">
        <ele>68.3</ele>
        <time>2022-02-11T14:58:30Z</time>
      </trkpt>
      <trkpt lat="49.92042" lon="2.36709">
        <ele>68.3</ele>
        <time>2022-02-11T14:58:31Z</time>
      </trkpt>
      <trkpt lat="49.92041" lon="2.36708">
        <ele>68.3</ele>
        <time>2022-02-11T14:58:32Z</time>
      </trkpt>
      <trkpt lat="49.9204" lon="2.36705">
        <ele>68.3</ele>
        <time>2022-02-11T14:58:33Z</time>
      </trkpt>
      <trkpt lat="49.9204" lon="2.36704">
        <ele>68.3</ele>
        <time>2022-02-11T14:58:34Z</time>
      </trkpt>
      <trkpt lat="49.9204" lon="2.36702">
        <ele>68.3</ele>
        <time>2022-02-11T14:58:35Z</time>
      </trkpt>
      <trkpt lat="49.92039" lon="2.36701">
        <ele>68.3</ele>
        <time>2022-02-11T14:58:36Z</time>
      </trkpt>
      <trkpt lat="49.92038" lon="2.36699">
        <ele>68.3</ele>
        <time>2022-02-11T14:58:37Z</time>
      </trkpt>
      <trkpt lat="49.92037" lon="2.36697">
        <ele>68.3</ele>
        <time>2022-02-11T14:58:39Z</time>
      </trkpt>
      <trkpt lat="49.92037" lon="2.36694">
        <ele>68.3</ele>
        <time>2022-02-11T14:58:40Z</time>
      </trkpt>
      <trkpt lat="49.92036" lon="2.36692">
        <ele>68.3</ele>
        <time>2022-02-11T14:58:41Z</time>
      </trkpt>
      <trkpt lat="49.92036" lon="2.36691">
        <ele>68.3</ele>
        <time>2022-02-11T14:58:42Z</time>
      </trkpt>
      <trkpt lat="49.92036" lon="2.3669">
        <ele>68.3</ele>
        <time>2022-02-11T14:58:43Z</time>
      </trkpt>
      <trkpt lat="49.92036" lon="2.36688">
        <ele>68.3</ele>
        <time>2022-02-11T14:58:45Z</time>
      </trkpt>
      <trkpt lat="49.92036" lon="2.36686">
        <ele>68.3</ele>
        <time>2022-02-11T14:58:46Z</time>
      </trkpt>
      <trkpt lat="49.92036" lon="2.36685">
        <ele>68.3</ele>
        <time>2022-02-11T14:58:47Z</time>
      </trkpt>
      <trkpt lat="49.92036" lon="2.36682">
        <ele>68.2</ele>
        <time>2022-02-11T14:58:48Z</time>
      </trkpt>
      <trkpt lat="49.92036" lon="2.36681">
        <ele>68.2</ele>
        <time>2022-02-11T14:58:49Z</time>
      </trkpt>
      <trkpt lat="49.92035" lon="2.3668">
        <ele>68.2</ele>
        <time>2022-02-11T14:58:50Z</time>
      </trkpt>
      <trkpt lat="49.92034" lon="2.36679">
        <ele>68.2</ele>
        <time>2022-02-11T14:58:51Z</time>
      </trkpt>
      <trkpt lat="49.92034" lon="2.36678">
        <ele>68.2</ele>
        <time>2022-02-11T14:58:52Z</time>
      </trkpt>
      <trkpt lat="49.92033" lon="2.36677">
        <ele>68.2</ele>
        <time>2022-02-11T14:58:53Z</time>
      </trkpt>
      <trkpt lat="49.92032" lon="2.36675">
        <ele>68.2</ele>
        <time>2022-02-11T14:58:55Z</time>
      </trkpt>
      <trkpt lat="49.92031" lon="2.36672">
        <ele>68.2</ele>
        <time>2022-02-11T14:58:57Z</time>
      </trkpt>
      <trkpt lat="49.92031" lon="2.3667">
        <ele>68.1</ele>
        <time>2022-02-11T14:58:58Z</time>
      </trkpt>
      <trkpt lat="49.92031" lon="2.36669">
        <ele>68.1</ele>
        <time>2022-02-11T14:58:59Z</time>
      </trkpt>
      <trkpt lat="49.9203" lon="2.36667">
        <ele>68.1</ele>
        <time>2022-02-11T14:59:00Z</time>
      </trkpt>
      <trkpt lat="49.9203" lon="2.36665">
        <ele>68.1</ele>
        <time>2022-02-11T14:59:01Z</time>
      </trkpt>
      <trkpt lat="49.92029" lon="2.36664">
        <ele>68.1</ele>
        <time>2022-02-11T14:59:02Z</time>
      </trkpt>
      <trkpt lat="49.92029" lon="2.36662">
        <ele>68.1</ele>
        <time>2022-02-11T14:59:03Z</time>
      </trkpt>
      <trkpt lat="49.92027" lon="2.3666">
        <ele>68.1</ele>
        <time>2022-02-11T14:59:04Z</time>
      </trkpt>
      <trkpt lat="49.92027" lon="2.36659">
        <ele>68.1</ele>
        <time>2022-02-11T14:59:05Z</time>
      </trkpt>
      <trkpt lat="49.92026" lon="2.36658">
        <ele>68.1</ele>
        <time>2022-02-11T14:59:06Z</time>
      </trkpt>
      <trkpt lat="49.92025" lon="2.36657">
        <ele>68.1</ele>
        <time>2022-02-11T14:59:07Z</time>
      </trkpt>
      <trkpt lat="49.92024" lon="2.36655">
        <ele>68</ele>
        <time>2022-02-11T14:59:09Z</time>
      </trkpt>
      <trkpt lat="49.92024" lon="2.36654">
        <ele>68</ele>
        <time>2022-02-11T14:59:10Z</time>
      </trkpt>
      <trkpt lat="49.92023" lon="2.36652">
        <ele>68</ele>
        <time>2022-02-11T14:59:11Z</time>
      </trkpt>
      <trkpt lat="49.92023" lon="2.3665">
        <ele>68</ele>
        <time>2022-02-11T14:59:12Z</time>
      </trkpt>
      <trkpt lat="49.92022" lon="2.36648">
        <ele>68</ele>
        <time>2022-02-11T14:59:14Z</time>
      </trkpt>
      <trkpt lat="49.92021" lon="2.36646">
        <ele>68</ele>
        <time>2022-02-11T14:59:15Z</time>
      </trkpt>
      <trkpt lat="49.9202" lon="2.36643">
        <ele>68</ele>
        <time>2022-02-11T14:59:16Z</time>
      </trkpt>
      <trkpt lat="49.9202" lon="2.36642">
        <ele>68</ele>
        <time>2022-02-11T14:59:17Z</time>
      </trkpt>
      <trkpt lat="49.9202" lon="2.36641">
        <ele>68</ele>
        <time>2022-02-11T14:59:18Z</time>
      </trkpt>
      <trkpt lat="49.92019" lon="2.36637">
        <ele>67.9</ele>
        <time>2022-02-11T14:59:19Z</time>
      </trkpt>
      <trkpt lat="49.92019" lon="2.36636">
        <ele>67.9</ele>
        <time>2022-02-11T14:59:20Z</time>
      </trkpt>
      <trkpt lat="49.92018" lon="2.36635">
        <ele>67.9</ele>
        <time>2022-02-11T14:59:21Z</time>
      </trkpt>
      <trkpt lat="49.92018" lon="2.36632">
        <ele>67.9</ele>
        <time>2022-02-11T14:59:22Z</time>
      </trkpt>
      <trkpt lat="49.92018" lon="2.36631">
        <ele>67.9</ele>
        <time>2022-02-11T14:59:23Z</time>
      </trkpt>
      <trkpt lat="49.92017" lon="2.3663">
        <ele>67.9</ele>
        <time>2022-02-11T14:59:24Z</time>
      </trkpt>
      <trkpt lat="49.92016" lon="2.36625">
        <ele>67.9</ele>
        <time>2022-02-11T14:59:25Z</time>
      </trkpt>
      <trkpt lat="49.92015" lon="2.36624">
        <ele>67.9</ele>
        <time>2022-02-11T14:59:27Z</time>
      </trkpt>
      <trkpt lat="49.92015" lon="2.36623">
        <ele>67.9</ele>
        <time>2022-02-11T14:59:28Z</time>
      </trkpt>
      <trkpt lat="49.92014" lon="2.36621">
        <ele>67.9</ele>
        <time>2022-02-11T14:59:29Z</time>
      </trkpt>
      <trkpt lat="49.92014" lon="2.3662">
        <ele>67.9</ele>
        <time>2022-02-11T14:59:30Z</time>
      </trkpt>
      <trkpt lat="49.92013" lon="2.36617">
        <ele>67.8</ele>
        <time>2022-02-11T14:59:31Z</time>
      </trkpt>
      <trkpt lat="49.92013" lon="2.36616">
        <ele>67.8</ele>
        <time>2022-02-11T14:59:32Z</time>
      </trkpt>
      <trkpt lat="49.92012" lon="2.36615">
        <ele>67.8</ele>
        <time>2022-02-11T14:59:33Z</time>
      </trkpt>
      <trkpt lat="49.92012" lon="2.36612">
        <ele>67.8</ele>
        <time>2022-02-11T14:59:34Z</time>
      </trkpt>
      <trkpt lat="49.92011" lon="2.36611">
        <ele>67.8</ele>
        <time>2022-02-11T14:59:36Z</time>
      </trkpt>
      <trkpt lat="49.9201" lon="2.36609">
        <ele>67.8</ele>
        <time>2022-02-11T14:59:37Z</time>
      </trkpt>
      <trkpt lat="49.9201" lon="2.36607">
        <ele>67.8</ele>
        <time>2022-02-11T14:59:38Z</time>
      </trkpt>
      <trkpt lat="49.92009" lon="2.36604">
        <ele>67.8</ele>
        <time>2022-02-11T14:59:39Z</time>
      </trkpt>
      <trkpt lat="49.92008" lon="2.36603">
        <ele>67.8</ele>
        <time>2022-02-11T14:59:40Z</time>
      </trkpt>
      <trkpt lat="49.92008" lon="2.36602">
        <ele>67.8</ele>
        <time>2022-02-11T14:59:41Z</time>
      </trkpt>
      <trkpt lat="49.92007" lon="2.366">
        <ele>67.8</ele>
        <time>2022-02-11T14:59:43Z</time>
      </trkpt>
      <trkpt lat="49.92007" lon="2.36599">
        <ele>67.8</ele>
        <time>2022-02-11T14:59:44Z</time>
      </trkpt>
      <trkpt lat="49.92006" lon="2.36597">
        <ele>67.8</ele>
        <time>2022-02-11T14:59:45Z</time>
      </trkpt>
      <trkpt lat="49.92006" lon="2.36596">
        <ele>67.8</ele>
        <time>2022-02-11T14:59:46Z</time>
      </trkpt>
      <trkpt lat="49.92005" lon="2.36595">
        <ele>67.7</ele>
        <time>2022-02-11T14:59:47Z</time>
      </trkpt>
      <trkpt lat="49.92005" lon="2.36593">
        <ele>67.7</ele>
        <time>2022-02-11T14:59:48Z</time>
      </trkpt>
      <trkpt lat="49.92004" lon="2.3659">
        <ele>67.7</ele>
        <time>2022-02-11T14:59:49Z</time>
      </trkpt>
      <trkpt lat="49.92004" lon="2.36588">
        <ele>67.7</ele>
        <time>2022-02-11T14:59:50Z</time>
      </trkpt>
      <trkpt lat="49.92003" lon="2.36587">
        <ele>67.7</ele>
        <time>2022-02-11T14:59:51Z</time>
      </trkpt>
      <trkpt lat="49.92003" lon="2.36586">
        <ele>67.7</ele>
        <time>2022-02-11T14:59:52Z</time>
      </trkpt>
      <trkpt lat="49.92003" lon="2.36585">
        <ele>67.7</ele>
        <time>2022-02-11T14:59:53Z</time>
      </trkpt>
      <trkpt lat="49.92002" lon="2.36583">
        <ele>67.7</ele>
        <time>2022-02-11T14:59:54Z</time>
      </trkpt>
      <trkpt lat="49.92001" lon="2.3658">
        <ele>67.7</ele>
        <time>2022-02-11T14:59:55Z</time>
      </trkpt>
      <trkpt lat="49.92" lon="2.36579">
        <ele>67.7</ele>
        <time>2022-02-11T14:59:56Z</time>
      </trkpt>
      <trkpt lat="49.92" lon="2.36578">
        <ele>67.7</ele>
        <time>2022-02-11T14:59:57Z</time>
      </trkpt>
      <trkpt lat="49.91999" lon="2.36575">
        <ele>67.7</ele>
        <time>2022-02-11T14:59:59Z</time>
      </trkpt>
      <trkpt lat="49.91999" lon="2.36574">
        <ele>67.7</ele>
        <time>2022-02-11T15:00:00Z</time>
      </trkpt>
      <trkpt lat="49.91998" lon="2.36573">
        <ele>67.6</ele>
        <time>2022-02-11T15:00:01Z</time>
      </trkpt>
      <trkpt lat="49.91998" lon="2.36572">
        <ele>67.6</ele>
        <time>2022-02-11T15:00:02Z</time>
      </trkpt>
      <trkpt lat="49.91998" lon="2.3657">
        <ele>67.6</ele>
        <time>2022-02-11T15:00:03Z</time>
      </trkpt>
      <trkpt lat="49.91997" lon="2.36568">
        <ele>67.6</ele>
        <time>2022-02-11T15:00:04Z</time>
      </trkpt>
      <trkpt lat="49.91997" lon="2.36567">
        <ele>67.6</ele>
        <time>2022-02-11T15:00:05Z</time>
      </trkpt>
      <trkpt lat="49.91996" lon="2.36565">
        <ele>67.6</ele>
        <time>2022-02-11T15:00:06Z</time>
      </trkpt>
      <trkpt lat="49.91996" lon="2.36563">
        <ele>67.6</ele>
        <time>2022-02-11T15:00:07Z</time>
      </trkpt>
      <trkpt lat="49.91995" lon="2.36561">
        <ele>67.6</ele>
        <time>2022-02-11T15:00:09Z</time>
      </trkpt>
      <trkpt lat="49.91994" lon="2.36559">
        <ele>67.6</ele>
        <time>2022-02-11T15:00:10Z</time>
      </trkpt>
      <trkpt lat="49.91993" lon="2.36556">
        <ele>67.6</ele>
        <time>2022-02-11T15:00:11Z</time>
      </trkpt>
      <trkpt lat="49.91993" lon="2.36555">
        <ele>67.6</ele>
        <time>2022-02-11T15:00:12Z</time>
      </trkpt>
      <trkpt lat="49.91993" lon="2.36553">
        <ele>67.6</ele>
        <time>2022-02-11T15:00:13Z</time>
      </trkpt>
      <trkpt lat="49.91992" lon="2.36551">
        <ele>67.6</ele>
        <time>2022-02-11T15:00:14Z</time>
      </trkpt>
      <trkpt lat="49.91991" lon="2.36549">
        <ele>67.5</ele>
        <time>2022-02-11T15:00:15Z</time>
      </trkpt>
      <trkpt lat="49.9199" lon="2.36546">
        <ele>67.5</ele>
        <time>2022-02-11T15:00:17Z</time>
      </trkpt>
      <trkpt lat="49.9199" lon="2.36545">
        <ele>67.5</ele>
        <time>2022-02-11T15:00:18Z</time>
      </trkpt>
      <trkpt lat="49.91989" lon="2.36544">
        <ele>67.5</ele>
        <time>2022-02-11T15:00:19Z</time>
      </trkpt>
      <trkpt lat="49.91989" lon="2.36542">
        <ele>67.5</ele>
        <time>2022-02-11T15:00:20Z</time>
      </trkpt>
      <trkpt lat="49.91989" lon="2.36541">
        <ele>67.5</ele>
        <time>2022-02-11T15:00:21Z</time>
      </trkpt>
      <trkpt lat="49.91988" lon="2.36539">
        <ele>67.5</ele>
        <time>2022-02-11T15:00:22Z</time>
      </trkpt>
      <trkpt lat="49.91988" lon="2.36538">
        <ele>67.5</ele>
        <time>2022-02-11T15:00:23Z</time>
      </trkpt>
      <trkpt lat="49.91987" lon="2.36535">
        <ele>67.5</ele>
        <time>2022-02-11T15:00:24Z</time>
      </trkpt>
      <trkpt lat="49.91986" lon="2.36533">
        <ele>67.5</ele>
        <time>2022-02-11T15:00:25Z</time>
      </trkpt>
      <trkpt lat="49.91986" lon="2.36532">
        <ele>67.5</ele>
        <time>2022-02-11T15:00:26Z</time>
      </trkpt>
      <trkpt lat="49.91986" lon="2.36531">
        <ele>67.5</ele>
        <time>2022-02-11T15:00:27Z</time>
      </trkpt>
      <trkpt lat="49.91985" lon="2.3653">
        <ele>67.5</ele>
        <time>2022-02-11T15:00:28Z</time>
      </trkpt>
      <trkpt lat="49.91984" lon="2.36527">
        <ele>67.4</ele>
        <time>2022-02-11T15:00:29Z</time>
      </trkpt>
      <trkpt lat="49.91983" lon="2.36526">
        <ele>67.4</ele>
        <time>2022-02-11T15:00:30Z</time>
      </trkpt>
      <trkpt lat="49.91983" lon="2.36525">
        <ele>67.4</ele>
        <time>2022-02-11T15:00:31Z</time>
      </trkpt>
      <trkpt lat="49.91982" lon="2.36522">
        <ele>67.4</ele>
        <time>2022-02-11T15:00:32Z</time>
      </trkpt>
      <trkpt lat="49.91982" lon="2.3652">
        <ele>67.4</ele>
        <time>2022-02-11T15:00:34Z</time>
      </trkpt>
      <trkpt lat="49.91981" lon="2.36519">
        <ele>67.4</ele>
        <time>2022-02-11T15:00:35Z</time>
      </trkpt>
      <trkpt lat="49.91981" lon="2.36518">
        <ele>67.4</ele>
        <time>2022-02-11T15:00:36Z</time>
      </trkpt>
      <trkpt lat="49.9198" lon="2.36516">
        <ele>67.4</ele>
        <time>2022-02-11T15:00:37Z</time>
      </trkpt>
      <trkpt lat="49.9198" lon="2.36514">
        <ele>67.4</ele>
        <time>2022-02-11T15:00:38Z</time>
      </trkpt>
      <trkpt lat="49.91979" lon="2.36511">
        <ele>67.4</ele>
        <time>2022-02-11T15:00:40Z</time>
      </trkpt>
      <trkpt lat="49.91979" lon="2.3651">
        <ele>67.4</ele>
        <time>2022-02-11T15:00:41Z</time>
      </trkpt>
      <trkpt lat="49.91978" lon="2.36508">
        <ele>67.3</ele>
        <time>2022-02-11T15:00:42Z</time>
      </trkpt>
      <trkpt lat="49.91978" lon="2.36506">
        <ele>67.3</ele>
        <time>2022-02-11T15:00:43Z</time>
      </trkpt>
      <trkpt lat="49.91977" lon="2.36504">
        <ele>67.3</ele>
        <time>2022-02-11T15:00:44Z</time>
      </trkpt>
      <trkpt lat="49.91976" lon="2.36502">
        <ele>67.3</ele>
        <time>2022-02-11T15:00:45Z</time>
      </trkpt>
      <trkpt lat="49.91975" lon="2.365">
        <ele>67.3</ele>
        <time>2022-02-11T15:00:46Z</time>
      </trkpt>
      <trkpt lat="49.91975" lon="2.36499">
        <ele>67.3</ele>
        <time>2022-02-11T15:00:47Z</time>
      </trkpt>
      <trkpt lat="49.91974" lon="2.36497">
        <ele>67.3</ele>
        <time>2022-02-11T15:00:48Z</time>
      </trkpt>
      <trkpt lat="49.91973" lon="2.36495">
        <ele>67.3</ele>
        <time>2022-02-11T15:00:49Z</time>
      </trkpt>
      <trkpt lat="49.91973" lon="2.36493">
        <ele>67.3</ele>
        <time>2022-02-11T15:00:50Z</time>
      </trkpt>
      <trkpt lat="49.91973" lon="2.36492">
        <ele>67.3</ele>
        <time>2022-02-11T15:00:51Z</time>
      </trkpt>
      <trkpt lat="49.91972" lon="2.3649">
        <ele>67.3</ele>
        <time>2022-02-11T15:00:52Z</time>
      </trkpt>
      <trkpt lat="49.91971" lon="2.36487">
        <ele>67.3</ele>
        <time>2022-02-11T15:00:54Z</time>
      </trkpt>
      <trkpt lat="49.91971" lon="2.36485">
        <ele>67.3</ele>
        <time>2022-02-11T15:00:55Z</time>
      </trkpt>
      <trkpt lat="49.9197" lon="2.36484">
        <ele>67.3</ele>
        <time>2022-02-11T15:00:56Z</time>
      </trkpt>
      <trkpt lat="49.9197" lon="2.36483">
        <ele>67.3</ele>
        <time>2022-02-11T15:00:57Z</time>
      </trkpt>
      <trkpt lat="49.91969" lon="2.36481">
        <ele>67.2</ele>
        <time>2022-02-11T15:00:59Z</time>
      </trkpt>
      <trkpt lat="49.91969" lon="2.36478">
        <ele>67.2</ele>
        <time>2022-02-11T15:01:00Z</time>
      </trkpt>
      <trkpt lat="49.91969" lon="2.36475">
        <ele>67.2</ele>
        <time>2022-02-11T15:01:01Z</time>
      </trkpt>
      <trkpt lat="49.91969" lon="2.36474">
        <ele>67.2</ele>
        <time>2022-02-11T15:01:02Z</time>
      </trkpt>
      <trkpt lat="49.91969" lon="2.36473">
        <ele>67.2</ele>
        <time>2022-02-11T15:01:03Z</time>
      </trkpt>
      <trkpt lat="49.91968" lon="2.36468">
        <ele>67.2</ele>
        <time>2022-02-11T15:01:04Z</time>
      </trkpt>
      <trkpt lat="49.91968" lon="2.36466">
        <ele>67.2</ele>
        <time>2022-02-11T15:01:06Z</time>
      </trkpt>
      <trkpt lat="49.91968" lon="2.36464">
        <ele>67.2</ele>
        <time>2022-02-11T15:01:07Z</time>
      </trkpt>
      <trkpt lat="49.91968" lon="2.36463">
        <ele>67.2</ele>
        <time>2022-02-11T15:01:08Z</time>
      </trkpt>
      <trkpt lat="49.91968" lon="2.36461">
        <ele>67.2</ele>
        <time>2022-02-11T15:01:09Z</time>
      </trkpt>
      <trkpt lat="49.91968" lon="2.36459">
        <ele>67.2</ele>
        <time>2022-02-11T15:01:10Z</time>
      </trkpt>
      <trkpt lat="49.91968" lon="2.36458">
        <ele>67.2</ele>
        <time>2022-02-11T15:01:11Z</time>
      </trkpt>
      <trkpt lat="49.91968" lon="2.36456">
        <ele>67.2</ele>
        <time>2022-02-11T15:01:12Z</time>
      </trkpt>
      <trkpt lat="49.91968" lon="2.36454">
        <ele>67.2</ele>
        <time>2022-02-11T15:01:14Z</time>
      </trkpt>
      <trkpt lat="49.91968" lon="2.36451">
        <ele>67.2</ele>
        <time>2022-02-11T15:01:15Z</time>
      </trkpt>
      <trkpt lat="49.91967" lon="2.3645">
        <ele>67.2</ele>
        <time>2022-02-11T15:01:16Z</time>
      </trkpt>
      <trkpt lat="49.91967" lon="2.36449">
        <ele>67.2</ele>
        <time>2022-02-11T15:01:17Z</time>
      </trkpt>
      <trkpt lat="49.91966" lon="2.36447">
        <ele>67.1</ele>
        <time>2022-02-11T15:01:18Z</time>
      </trkpt>
      <trkpt lat="49.91965" lon="2.36445">
        <ele>67.1</ele>
        <time>2022-02-11T15:01:19Z</time>
      </trkpt>
      <trkpt lat="49.91965" lon="2.36444">
        <ele>67.1</ele>
        <time>2022-02-11T15:01:20Z</time>
      </trkpt>
      <trkpt lat="49.91964" lon="2.36443">
        <ele>67.1</ele>
        <time>2022-02-11T15:01:21Z</time>
      </trkpt>
      <trkpt lat="49.91963" lon="2.36441">
        <ele>67.1</ele>
        <time>2022-02-11T15:01:22Z</time>
      </trkpt>
      <trkpt lat="49.91963" lon="2.3644">
        <ele>67.1</ele>
        <time>2022-02-11T15:01:23Z</time>
      </trkpt>
      <trkpt lat="49.91962" lon="2.36438">
        <ele>67.1</ele>
        <time>2022-02-11T15:01:25Z</time>
      </trkpt>
      <trkpt lat="49.91961" lon="2.36435">
        <ele>67.1</ele>
        <time>2022-02-11T15:01:26Z</time>
      </trkpt>
      <trkpt lat="49.9196" lon="2.36434">
        <ele>67.1</ele>
        <time>2022-02-11T15:01:27Z</time>
      </trkpt>
      <trkpt lat="49.9196" lon="2.36433">
        <ele>67.1</ele>
        <time>2022-02-11T15:01:28Z</time>
      </trkpt>
      <trkpt lat="49.91959" lon="2.3643">
        <ele>67.1</ele>
        <time>2022-02-11T15:01:29Z</time>
      </trkpt>
      <trkpt lat="49.91958" lon="2.36429">
        <ele>67.1</ele>
        <time>2022-02-11T15:01:30Z</time>
      </trkpt>
      <trkpt lat="49.91957" lon="2.36427">
        <ele>67.1</ele>
        <time>2022-02-11T15:01:32Z</time>
      </trkpt>
      <trkpt lat="49.91957" lon="2.36425">
        <ele>67.1</ele>
        <time>2022-02-11T15:01:33Z</time>
      </trkpt>
      <trkpt lat="49.91956" lon="2.36421">
        <ele>67.1</ele>
        <time>2022-02-11T15:01:34Z</time>
      </trkpt>
      <trkpt lat="49.91956" lon="2.3642">
        <ele>67.1</ele>
        <time>2022-02-11T15:01:35Z</time>
      </trkpt>
      <trkpt lat="49.91955" lon="2.36419">
        <ele>67.1</ele>
        <time>2022-02-11T15:01:36Z</time>
      </trkpt>
      <trkpt lat="49.91955" lon="2.36416">
        <ele>67.1</ele>
        <time>2022-02-11T15:01:37Z</time>
      </trkpt>
      <trkpt lat="49.91954" lon="2.36414">
        <ele>67.1</ele>
        <time>2022-02-11T15:01:38Z</time>
      </trkpt>
      <trkpt lat="49.91954" lon="2.36413">
        <ele>67.1</ele>
        <time>2022-02-11T15:01:39Z</time>
      </trkpt>
      <trkpt lat="49.91953" lon="2.36411">
        <ele>67.1</ele>
        <time>2022-02-11T15:01:40Z</time>
      </trkpt>
      <trkpt lat="49.91953" lon="2.3641">
        <ele>67.1</ele>
        <time>2022-02-11T15:01:42Z</time>
      </trkpt>
      <trkpt lat="49.91953" lon="2.36408">
        <ele>67.1</ele>
        <time>2022-02-11T15:01:43Z</time>
      </trkpt>
      <trkpt lat="49.91952" lon="2.36404">
        <ele>67.1</ele>
        <time>2022-02-11T15:01:44Z</time>
      </trkpt>
      <trkpt lat="49.91951" lon="2.36402">
        <ele>67.1</ele>
        <time>2022-02-11T15:01:46Z</time>
      </trkpt>
      <trkpt lat="49.91951" lon="2.364">
        <ele>67.1</ele>
        <time>2022-02-11T15:01:47Z</time>
      </trkpt>
      <trkpt lat="49.9195" lon="2.36398">
        <ele>67.1</ele>
        <time>2022-02-11T15:01:48Z</time>
      </trkpt>
      <trkpt lat="49.9195" lon="2.36396">
        <ele>67</ele>
        <time>2022-02-11T15:01:49Z</time>
      </trkpt>
      <trkpt lat="49.91949" lon="2.36394">
        <ele>67</ele>
        <time>2022-02-11T15:01:51Z</time>
      </trkpt>
      <trkpt lat="49.91949" lon="2.36391">
        <ele>67</ele>
        <time>2022-02-11T15:01:52Z</time>
      </trkpt>
      <trkpt lat="49.91948" lon="2.36387">
        <ele>67</ele>
        <time>2022-02-11T15:01:53Z</time>
      </trkpt>
      <trkpt lat="49.91948" lon="2.36386">
        <ele>67</ele>
        <time>2022-02-11T15:01:54Z</time>
      </trkpt>
      <trkpt lat="49.91947" lon="2.36382">
        <ele>66.9</ele>
        <time>2022-02-11T15:01:55Z</time>
      </trkpt>
      <trkpt lat="49.91947" lon="2.36381">
        <ele>66.9</ele>
        <time>2022-02-11T15:01:57Z</time>
      </trkpt>
      <trkpt lat="49.91946" lon="2.36379">
        <ele>66.9</ele>
        <time>2022-02-11T15:01:58Z</time>
      </trkpt>
      <trkpt lat="49.91945" lon="2.36375">
        <ele>66.9</ele>
        <time>2022-02-11T15:02:00Z</time>
      </trkpt>
      <trkpt lat="49.91945" lon="2.36374">
        <ele>66.9</ele>
        <time>2022-02-11T15:02:01Z</time>
      </trkpt>
      <trkpt lat="49.91944" lon="2.36371">
        <ele>66.9</ele>
        <time>2022-02-11T15:02:02Z</time>
      </trkpt>
      <trkpt lat="49.91943" lon="2.3637">
        <ele>66.9</ele>
        <time>2022-02-11T15:02:03Z</time>
      </trkpt>
      <trkpt lat="49.91943" lon="2.36369">
        <ele>66.8</ele>
        <time>2022-02-11T15:02:04Z</time>
      </trkpt>
      <trkpt lat="49.91942" lon="2.36365">
        <ele>66.8</ele>
        <time>2022-02-11T15:02:05Z</time>
      </trkpt>
      <trkpt lat="49.91942" lon="2.36364">
        <ele>66.8</ele>
        <time>2022-02-11T15:02:06Z</time>
      </trkpt>
      <trkpt lat="49.91942" lon="2.36363">
        <ele>66.8</ele>
        <time>2022-02-11T15:02:07Z</time>
      </trkpt>
      <trkpt lat="49.91941" lon="2.36362">
        <ele>66.8</ele>
        <time>2022-02-11T15:02:08Z</time>
      </trkpt>
      <trkpt lat="49.91941" lon="2.36359">
        <ele>66.8</ele>
        <time>2022-02-11T15:02:09Z</time>
      </trkpt>
      <trkpt lat="49.9194" lon="2.36357">
        <ele>66.8</ele>
        <time>2022-02-11T15:02:10Z</time>
      </trkpt>
      <trkpt lat="49.9194" lon="2.36356">
        <ele>66.8</ele>
        <time>2022-02-11T15:02:11Z</time>
      </trkpt>
      <trkpt lat="49.9194" lon="2.36354">
        <ele>66.8</ele>
        <time>2022-02-11T15:02:12Z</time>
      </trkpt>
      <trkpt lat="49.91939" lon="2.36352">
        <ele>66.7</ele>
        <time>2022-02-11T15:02:14Z</time>
      </trkpt>
      <trkpt lat="49.91938" lon="2.3635">
        <ele>66.7</ele>
        <time>2022-02-11T15:02:15Z</time>
      </trkpt>
      <trkpt lat="49.91938" lon="2.36349">
        <ele>66.7</ele>
        <time>2022-02-11T15:02:16Z</time>
      </trkpt>
      <trkpt lat="49.91937" lon="2.36347">
        <ele>66.7</ele>
        <time>2022-02-11T15:02:17Z</time>
      </trkpt>
      <trkpt lat="49.91936" lon="2.36346">
        <ele>66.7</ele>
        <time>2022-02-11T15:02:18Z</time>
      </trkpt>
      <trkpt lat="49.91935" lon="2.36344">
        <ele>66.7</ele>
        <time>2022-02-11T15:02:20Z</time>
      </trkpt>
      <trkpt lat="49.91935" lon="2.36342">
        <ele>66.7</ele>
        <time>2022-02-11T15:02:21Z</time>
      </trkpt>
      <trkpt lat="49.91934" lon="2.3634">
        <ele>66.7</ele>
        <time>2022-02-11T15:02:22Z</time>
      </trkpt>
      <trkpt lat="49.91934" lon="2.36338">
        <ele>66.7</ele>
        <time>2022-02-11T15:02:23Z</time>
      </trkpt>
      <trkpt lat="49.91933" lon="2.36337">
        <ele>66.7</ele>
        <time>2022-02-11T15:02:24Z</time>
      </trkpt>
      <trkpt lat="49.91933" lon="2.36336">
        <ele>66.7</ele>
        <time>2022-02-11T15:02:25Z</time>
      </trkpt>
      <trkpt lat="49.91932" lon="2.36335">
        <ele>66.7</ele>
        <time>2022-02-11T15:02:26Z</time>
      </trkpt>
      <trkpt lat="49.91932" lon="2.36333">
        <ele>66.7</ele>
        <time>2022-02-11T15:02:28Z</time>
      </trkpt>
      <trkpt lat="49.91931" lon="2.36332">
        <ele>66.7</ele>
        <time>2022-02-11T15:02:29Z</time>
      </trkpt>
      <trkpt lat="49.91931" lon="2.36331">
        <ele>66.6</ele>
        <time>2022-02-11T15:02:30Z</time>
      </trkpt>
      <trkpt lat="49.9193" lon="2.36329">
        <ele>66.6</ele>
        <time>2022-02-11T15:02:31Z</time>
      </trkpt>
      <trkpt lat="49.91929" lon="2.36328">
        <ele>66.6</ele>
        <time>2022-02-11T15:02:32Z</time>
      </trkpt>
      <trkpt lat="49.91929" lon="2.36327">
        <ele>66.6</ele>
        <time>2022-02-11T15:02:33Z</time>
      </trkpt>
      <trkpt lat="49.91928" lon="2.36325">
        <ele>66.6</ele>
        <time>2022-02-11T15:02:34Z</time>
      </trkpt>
      <trkpt lat="49.91927" lon="2.36324">
        <ele>66.6</ele>
        <time>2022-02-11T15:02:35Z</time>
      </trkpt>
      <trkpt lat="49.91927" lon="2.36323">
        <ele>66.6</ele>
        <time>2022-02-11T15:02:36Z</time>
      </trkpt>
      <trkpt lat="49.91926" lon="2.36322">
        <ele>66.6</ele>
        <time>2022-02-11T15:02:37Z</time>
      </trkpt>
      <trkpt lat="49.91925" lon="2.36319">
        <ele>66.6</ele>
        <time>2022-02-11T15:02:39Z</time>
      </trkpt>
      <trkpt lat="49.91924" lon="2.36318">
        <ele>66.6</ele>
        <time>2022-02-11T15:02:40Z</time>
      </trkpt>
      <trkpt lat="49.91924" lon="2.36317">
        <ele>66.6</ele>
        <time>2022-02-11T15:02:41Z</time>
      </trkpt>
      <trkpt lat="49.91923" lon="2.36315">
        <ele>66.6</ele>
        <time>2022-02-11T15:02:42Z</time>
      </trkpt>
      <trkpt lat="49.91923" lon="2.36313">
        <ele>66.6</ele>
        <time>2022-02-11T15:02:43Z</time>
      </trkpt>
      <trkpt lat="49.91922" lon="2.36312">
        <ele>66.6</ele>
        <time>2022-02-11T15:02:44Z</time>
      </trkpt>
      <trkpt lat="49.91922" lon="2.3631">
        <ele>66.6</ele>
        <time>2022-02-11T15:02:45Z</time>
      </trkpt>
      <trkpt lat="49.91921" lon="2.36309">
        <ele>66.6</ele>
        <time>2022-02-11T15:02:46Z</time>
      </trkpt>
      <trkpt lat="49.91921" lon="2.36308">
        <ele>66.6</ele>
        <time>2022-02-11T15:02:47Z</time>
      </trkpt>
      <trkpt lat="49.9192" lon="2.36305">
        <ele>66.6</ele>
        <time>2022-02-11T15:02:48Z</time>
      </trkpt>
      <trkpt lat="49.9192" lon="2.36303">
        <ele>66.6</ele>
        <time>2022-02-11T15:02:49Z</time>
      </trkpt>
      <trkpt lat="49.91919" lon="2.36302">
        <ele>66.6</ele>
        <time>2022-02-11T15:02:51Z</time>
      </trkpt>
      <trkpt lat="49.91919" lon="2.363">
        <ele>66.6</ele>
        <time>2022-02-11T15:02:52Z</time>
      </trkpt>
      <trkpt lat="49.91918" lon="2.36299">
        <ele>66.6</ele>
        <time>2022-02-11T15:02:53Z</time>
      </trkpt>
      <trkpt lat="49.91918" lon="2.36298">
        <ele>66.6</ele>
        <time>2022-02-11T15:02:54Z</time>
      </trkpt>
      <trkpt lat="49.91918" lon="2.36296">
        <ele>66.6</ele>
        <time>2022-02-11T15:02:55Z</time>
      </trkpt>
      <trkpt lat="49.91917" lon="2.36294">
        <ele>66.5</ele>
        <time>2022-02-11T15:02:56Z</time>
      </trkpt>
      <trkpt lat="49.91917" lon="2.36293">
        <ele>66.5</ele>
        <time>2022-02-11T15:02:57Z</time>
      </trkpt>
      <trkpt lat="49.91917" lon="2.36291">
        <ele>66.5</ele>
        <time>2022-02-11T15:02:58Z</time>
      </trkpt>
      <trkpt lat="49.91917" lon="2.3629">
        <ele>66.5</ele>
        <time>2022-02-11T15:02:59Z</time>
      </trkpt>
      <trkpt lat="49.91916" lon="2.36288">
        <ele>66.5</ele>
        <time>2022-02-11T15:03:01Z</time>
      </trkpt>
      <trkpt lat="49.91916" lon="2.36286">
        <ele>66.5</ele>
        <time>2022-02-11T15:03:02Z</time>
      </trkpt>
      <trkpt lat="49.91915" lon="2.36285">
        <ele>66.5</ele>
        <time>2022-02-11T15:03:03Z</time>
      </trkpt>
      <trkpt lat="49.91915" lon="2.36283">
        <ele>66.5</ele>
        <time>2022-02-11T15:03:04Z</time>
      </trkpt>
      <trkpt lat="49.91915" lon="2.36282">
        <ele>66.5</ele>
        <time>2022-02-11T15:03:05Z</time>
      </trkpt>
      <trkpt lat="49.91914" lon="2.3628">
        <ele>66.5</ele>
        <time>2022-02-11T15:03:06Z</time>
      </trkpt>
      <trkpt lat="49.91914" lon="2.36279">
        <ele>66.5</ele>
        <time>2022-02-11T15:03:07Z</time>
      </trkpt>
      <trkpt lat="49.91914" lon="2.36277">
        <ele>66.5</ele>
        <time>2022-02-11T15:03:08Z</time>
      </trkpt>
      <trkpt lat="49.91914" lon="2.36275">
        <ele>66.5</ele>
        <time>2022-02-11T15:03:09Z</time>
      </trkpt>
      <trkpt lat="49.91914" lon="2.36273">
        <ele>66.5</ele>
        <time>2022-02-11T15:03:11Z</time>
      </trkpt>
      <trkpt lat="49.91914" lon="2.36271">
        <ele>66.4</ele>
        <time>2022-02-11T15:03:12Z</time>
      </trkpt>
      <trkpt lat="49.91913" lon="2.36269">
        <ele>66.4</ele>
        <time>2022-02-11T15:03:13Z</time>
      </trkpt>
      <trkpt lat="49.91913" lon="2.36267">
        <ele>66.4</ele>
        <time>2022-02-11T15:03:14Z</time>
      </trkpt>
      <trkpt lat="49.91913" lon="2.36266">
        <ele>66.4</ele>
        <time>2022-02-11T15:03:15Z</time>
      </trkpt>
      <trkpt lat="49.91912" lon="2.36263">
        <ele>66.4</ele>
        <time>2022-02-11T15:03:16Z</time>
      </trkpt>
      <trkpt lat="49.91912" lon="2.3626">
        <ele>66.4</ele>
        <time>2022-02-11T15:03:17Z</time>
      </trkpt>
      <trkpt lat="49.91911" lon="2.36259">
        <ele>66.4</ele>
        <time>2022-02-11T15:03:18Z</time>
      </trkpt>
      <trkpt lat="49.91911" lon="2.36257">
        <ele>66.4</ele>
        <time>2022-02-11T15:03:19Z</time>
      </trkpt>
      <trkpt lat="49.9191" lon="2.36256">
        <ele>66.4</ele>
        <time>2022-02-11T15:03:20Z</time>
      </trkpt>
      <trkpt lat="49.91909" lon="2.36253">
        <ele>66.4</ele>
        <time>2022-02-11T15:03:21Z</time>
      </trkpt>
      <trkpt lat="49.91909" lon="2.36251">
        <ele>66.4</ele>
        <time>2022-02-11T15:03:23Z</time>
      </trkpt>
      <trkpt lat="49.91908" lon="2.36249">
        <ele>66.3</ele>
        <time>2022-02-11T15:03:24Z</time>
      </trkpt>
      <trkpt lat="49.91907" lon="2.36247">
        <ele>66.3</ele>
        <time>2022-02-11T15:03:25Z</time>
      </trkpt>
      <trkpt lat="49.91907" lon="2.36245">
        <ele>66.3</ele>
        <time>2022-02-11T15:03:26Z</time>
      </trkpt>
      <trkpt lat="49.91906" lon="2.36243">
        <ele>66.3</ele>
        <time>2022-02-11T15:03:27Z</time>
      </trkpt>
      <trkpt lat="49.91905" lon="2.3624">
        <ele>66.3</ele>
        <time>2022-02-11T15:03:28Z</time>
      </trkpt>
      <trkpt lat="49.91904" lon="2.36236">
        <ele>66.3</ele>
        <time>2022-02-11T15:03:30Z</time>
      </trkpt>
      <trkpt lat="49.91903" lon="2.36235">
        <ele>66.3</ele>
        <time>2022-02-11T15:03:31Z</time>
      </trkpt>
      <trkpt lat="49.91903" lon="2.36233">
        <ele>66.3</ele>
        <time>2022-02-11T15:03:32Z</time>
      </trkpt>
      <trkpt lat="49.91902" lon="2.36232">
        <ele>66.3</ele>
        <time>2022-02-11T15:03:33Z</time>
      </trkpt>
      <trkpt lat="49.91902" lon="2.36229">
        <ele>66.2</ele>
        <time>2022-02-11T15:03:34Z</time>
      </trkpt>
      <trkpt lat="49.91901" lon="2.36227">
        <ele>66.2</ele>
        <time>2022-02-11T15:03:35Z</time>
      </trkpt>
      <trkpt lat="49.919" lon="2.36224">
        <ele>66.2</ele>
        <time>2022-02-11T15:03:37Z</time>
      </trkpt>
      <trkpt lat="49.919" lon="2.36223">
        <ele>66.2</ele>
        <time>2022-02-11T15:03:38Z</time>
      </trkpt>
      <trkpt lat="49.919" lon="2.36222">
        <ele>66.2</ele>
        <time>2022-02-11T15:03:39Z</time>
      </trkpt>
      <trkpt lat="49.91899" lon="2.36218">
        <ele>66.2</ele>
        <time>2022-02-11T15:03:41Z</time>
      </trkpt>
      <trkpt lat="49.91899" lon="2.36217">
        <ele>66.2</ele>
        <time>2022-02-11T15:03:42Z</time>
      </trkpt>
      <trkpt lat="49.91898" lon="2.36213">
        <ele>66.2</ele>
        <time>2022-02-11T15:03:43Z</time>
      </trkpt>
      <trkpt lat="49.91897" lon="2.36212">
        <ele>66.2</ele>
        <time>2022-02-11T15:03:44Z</time>
      </trkpt>
      <trkpt lat="49.91897" lon="2.3621">
        <ele>66.2</ele>
        <time>2022-02-11T15:03:45Z</time>
      </trkpt>
      <trkpt lat="49.91897" lon="2.36209">
        <ele>66.2</ele>
        <time>2022-02-11T15:03:46Z</time>
      </trkpt>
      <trkpt lat="49.91896" lon="2.36207">
        <ele>66.1</ele>
        <time>2022-02-11T15:03:47Z</time>
      </trkpt>
      <trkpt lat="49.91896" lon="2.36206">
        <ele>66.1</ele>
        <time>2022-02-11T15:03:48Z</time>
      </trkpt>
      <trkpt lat="49.91895" lon="2.36204">
        <ele>66.1</ele>
        <time>2022-02-11T15:03:49Z</time>
      </trkpt>
      <trkpt lat="49.91895" lon="2.36202">
        <ele>66.1</ele>
        <time>2022-02-11T15:03:50Z</time>
      </trkpt>
      <trkpt lat="49.91895" lon="2.362">
        <ele>66.1</ele>
        <time>2022-02-11T15:03:51Z</time>
      </trkpt>
      <trkpt lat="49.91894" lon="2.36198">
        <ele>66.1</ele>
        <time>2022-02-11T15:03:52Z</time>
      </trkpt>
      <trkpt lat="49.91894" lon="2.36196">
        <ele>66.1</ele>
        <time>2022-02-11T15:03:54Z</time>
      </trkpt>
      <trkpt lat="49.91893" lon="2.36192">
        <ele>66.1</ele>
        <time>2022-02-11T15:03:56Z</time>
      </trkpt>
      <trkpt lat="49.91893" lon="2.36191">
        <ele>66.1</ele>
        <time>2022-02-11T15:03:57Z</time>
      </trkpt>
      <trkpt lat="49.91892" lon="2.36187">
        <ele>66.1</ele>
        <time>2022-02-11T15:03:58Z</time>
      </trkpt>
      <trkpt lat="49.91892" lon="2.36186">
        <ele>66.1</ele>
        <time>2022-02-11T15:03:59Z</time>
      </trkpt>
      <trkpt lat="49.91892" lon="2.36184">
        <ele>66.1</ele>
        <time>2022-02-11T15:04:00Z</time>
      </trkpt>
      <trkpt lat="49.91891" lon="2.36181">
        <ele>66.1</ele>
        <time>2022-02-11T15:04:02Z</time>
      </trkpt>
      <trkpt lat="49.91891" lon="2.3618">
        <ele>66</ele>
        <time>2022-02-11T15:04:03Z</time>
      </trkpt>
      <trkpt lat="49.91891" lon="2.36179">
        <ele>66</ele>
        <time>2022-02-11T15:04:04Z</time>
      </trkpt>
      <trkpt lat="49.9189" lon="2.36176">
        <ele>66</ele>
        <time>2022-02-11T15:04:06Z</time>
      </trkpt>
      <trkpt lat="49.9189" lon="2.36174">
        <ele>66</ele>
        <time>2022-02-11T15:04:07Z</time>
      </trkpt>
      <trkpt lat="49.91889" lon="2.36171">
        <ele>66</ele>
        <time>2022-02-11T15:04:08Z</time>
      </trkpt>
      <trkpt lat="49.91889" lon="2.36169">
        <ele>66</ele>
        <time>2022-02-11T15:04:09Z</time>
      </trkpt>
      <trkpt lat="49.91889" lon="2.36168">
        <ele>66</ele>
        <time>2022-02-11T15:04:10Z</time>
      </trkpt>
      <trkpt lat="49.91888" lon="2.36165">
        <ele>66</ele>
        <time>2022-02-11T15:04:11Z</time>
      </trkpt>
      <trkpt lat="49.91888" lon="2.36164">
        <ele>66</ele>
        <time>2022-02-11T15:04:12Z</time>
      </trkpt>
      <trkpt lat="49.91888" lon="2.36163">
        <ele>66</ele>
        <time>2022-02-11T15:04:13Z</time>
      </trkpt>
      <trkpt lat="49.91888" lon="2.36161">
        <ele>66</ele>
        <time>2022-02-11T15:04:14Z</time>
      </trkpt>
      <trkpt lat="49.91887" lon="2.36159">
        <ele>66</ele>
        <time>2022-02-11T15:04:15Z</time>
      </trkpt>
      <trkpt lat="49.91887" lon="2.36157">
        <ele>66</ele>
        <time>2022-02-11T15:04:16Z</time>
      </trkpt>
      <trkpt lat="49.91886" lon="2.36156">
        <ele>66</ele>
        <time>2022-02-11T15:04:17Z</time>
      </trkpt>
      <trkpt lat="49.91886" lon="2.36154">
        <ele>66</ele>
        <time>2022-02-11T15:04:19Z</time>
      </trkpt>
      <trkpt lat="49.91885" lon="2.36152">
        <ele>66</ele>
        <time>2022-02-11T15:04:20Z</time>
      </trkpt>
      <trkpt lat="49.91884" lon="2.3615">
        <ele>66</ele>
        <time>2022-02-11T15:04:21Z</time>
      </trkpt>
      <trkpt lat="49.91884" lon="2.36149">
        <ele>66</ele>
        <time>2022-02-11T15:04:22Z</time>
      </trkpt>
      <trkpt lat="49.91883" lon="2.36147">
        <ele>66</ele>
        <time>2022-02-11T15:04:23Z</time>
      </trkpt>
      <trkpt lat="49.91883" lon="2.36146">
        <ele>66</ele>
        <time>2022-02-11T15:04:24Z</time>
      </trkpt>
      <trkpt lat="49.91882" lon="2.36144">
        <ele>65.9</ele>
        <time>2022-02-11T15:04:25Z</time>
      </trkpt>
      <trkpt lat="49.91881" lon="2.36142">
        <ele>65.9</ele>
        <time>2022-02-11T15:04:26Z</time>
      </trkpt>
      <trkpt lat="49.91881" lon="2.3614">
        <ele>65.9</ele>
        <time>2022-02-11T15:04:27Z</time>
      </trkpt>
      <trkpt lat="49.9188" lon="2.36138">
        <ele>65.9</ele>
        <time>2022-02-11T15:04:29Z</time>
      </trkpt>
      <trkpt lat="49.9188" lon="2.36136">
        <ele>65.9</ele>
        <time>2022-02-11T15:04:30Z</time>
      </trkpt>
      <trkpt lat="49.91879" lon="2.36133">
        <ele>65.9</ele>
        <time>2022-02-11T15:04:31Z</time>
      </trkpt>
      <trkpt lat="49.91878" lon="2.36132">
        <ele>65.9</ele>
        <time>2022-02-11T15:04:32Z</time>
      </trkpt>
      <trkpt lat="49.91878" lon="2.3613">
        <ele>65.9</ele>
        <time>2022-02-11T15:04:33Z</time>
      </trkpt>
      <trkpt lat="49.91877" lon="2.36129">
        <ele>65.9</ele>
        <time>2022-02-11T15:04:34Z</time>
      </trkpt>
      <trkpt lat="49.91877" lon="2.36127">
        <ele>65.9</ele>
        <time>2022-02-11T15:04:35Z</time>
      </trkpt>
      <trkpt lat="49.91876" lon="2.36124">
        <ele>65.9</ele>
        <time>2022-02-11T15:04:36Z</time>
      </trkpt>
      <trkpt lat="49.91876" lon="2.36123">
        <ele>65.9</ele>
        <time>2022-02-11T15:04:38Z</time>
      </trkpt>
      <trkpt lat="49.91875" lon="2.36121">
        <ele>65.9</ele>
        <time>2022-02-11T15:04:39Z</time>
      </trkpt>
      <trkpt lat="49.91875" lon="2.3612">
        <ele>65.9</ele>
        <time>2022-02-11T15:04:40Z</time>
      </trkpt>
      <trkpt lat="49.91874" lon="2.36117">
        <ele>65.8</ele>
        <time>2022-02-11T15:04:41Z</time>
      </trkpt>
      <trkpt lat="49.91874" lon="2.36117">
        <ele>65.8</ele>
        <time>2022-02-11T15:04:42Z</time>
      </trkpt>
      <trkpt lat="49.91873" lon="2.36115">
        <ele>65.8</ele>
        <time>2022-02-11T15:04:43Z</time>
      </trkpt>
      <trkpt lat="49.91872" lon="2.36113">
        <ele>65.8</ele>
        <time>2022-02-11T15:04:44Z</time>
      </trkpt>
      <trkpt lat="49.91872" lon="2.36112">
        <ele>65.8</ele>
        <time>2022-02-11T15:04:45Z</time>
      </trkpt>
      <trkpt lat="49.91871" lon="2.36111">
        <ele>65.8</ele>
        <time>2022-02-11T15:04:46Z</time>
      </trkpt>
      <trkpt lat="49.91871" lon="2.3611">
        <ele>65.8</ele>
        <time>2022-02-11T15:04:47Z</time>
      </trkpt>
      <trkpt lat="49.91871" lon="2.36108">
        <ele>65.8</ele>
        <time>2022-02-11T15:04:48Z</time>
      </trkpt>
      <trkpt lat="49.91871" lon="2.36107">
        <ele>65.8</ele>
        <time>2022-02-11T15:04:49Z</time>
      </trkpt>
      <trkpt lat="49.91871" lon="2.36106">
        <ele>65.8</ele>
        <time>2022-02-11T15:04:50Z</time>
      </trkpt>
      <trkpt lat="49.91871" lon="2.36104">
        <ele>65.8</ele>
        <time>2022-02-11T15:04:51Z</time>
      </trkpt>
      <trkpt lat="49.9187" lon="2.36103">
        <ele>65.8</ele>
        <time>2022-02-11T15:04:52Z</time>
      </trkpt>
      <trkpt lat="49.9187" lon="2.36102">
        <ele>65.8</ele>
        <time>2022-02-11T15:04:54Z</time>
      </trkpt>
      <trkpt lat="49.9187" lon="2.36101">
        <ele>65.8</ele>
        <time>2022-02-11T15:04:55Z</time>
      </trkpt>
      <trkpt lat="49.9187" lon="2.36099">
        <ele>65.8</ele>
        <time>2022-02-11T15:04:56Z</time>
      </trkpt>
      <trkpt lat="49.9187" lon="2.36099">
        <ele>65.8</ele>
        <time>2022-02-11T15:04:57Z</time>
      </trkpt>
      <trkpt lat="49.9187" lon="2.36099">
        <ele>65.8</ele>
        <time>2022-02-11T15:04:58Z</time>
      </trkpt>
      <trkpt lat="49.91871" lon="2.36099">
        <ele>65.8</ele>
        <time>2022-02-11T15:04:59Z</time>
      </trkpt>
      <trkpt lat="49.91871" lon="2.36099">
        <ele>65.8</ele>
        <time>2022-02-11T15:05:00Z</time>
      </trkpt>
      <trkpt lat="49.91871" lon="2.36099">
        <ele>65.8</ele>
        <time>2022-02-11T15:05:01Z</time>
      </trkpt>
      <trkpt lat="49.91871" lon="2.36099">
        <ele>65.8</ele>
        <time>2022-02-11T15:05:02Z</time>
      </trkpt>
      <trkpt lat="49.91871" lon="2.36099">
        <ele>65.8</ele>
        <time>2022-02-11T15:05:03Z</time>
      </trkpt>
      <trkpt lat="49.91871" lon="2.361">
        <ele>65.8</ele>
        <time>2022-02-11T15:05:04Z</time>
      </trkpt>
      <trkpt lat="49.91871" lon="2.361">
        <ele>65.8</ele>
        <time>2022-02-11T15:05:05Z</time>
      </trkpt>
      <trkpt lat="49.91871" lon="2.361">
        <ele>65.8</ele>
        <time>2022-02-11T15:05:06Z</time>
      </trkpt>
      <trkpt lat="49.91871" lon="2.361">
        <ele>65.8</ele>
        <time>2022-02-11T15:05:07Z</time>
      </trkpt>
      <trkpt lat="49.91871" lon="2.361">
        <ele>65.8</ele>
        <time>2022-02-11T15:05:08Z</time>
      </trkpt>
      <trkpt lat="49.91871" lon="2.361">
        <ele>65.8</ele>
        <time>2022-02-11T15:05:09Z</time>
      </trkpt>
      <trkpt lat="49.91871" lon="2.361">
        <ele>65.8</ele>
        <time>2022-02-11T15:05:10Z</time>
      </trkpt>
      <trkpt lat="49.91871" lon="2.36101">
        <ele>65.8</ele>
        <time>2022-02-11T15:05:11Z</time>
      </trkpt>
      <trkpt lat="49.91871" lon="2.36101">
        <ele>65.8</ele>
        <time>2022-02-11T15:05:12Z</time>
      </trkpt>
      <trkpt lat="49.91871" lon="2.36101">
        <ele>65.8</ele>
        <time>2022-02-11T15:05:13Z</time>
      </trkpt>
      <trkpt lat="49.9187" lon="2.36101">
        <ele>65.8</ele>
        <time>2022-02-11T15:05:14Z</time>
      </trkpt>
      <trkpt lat="49.9187" lon="2.36101">
        <ele>65.8</ele>
        <time>2022-02-11T15:05:15Z</time>
      </trkpt>
      <trkpt lat="49.91869" lon="2.361">
        <ele>65.8</ele>
        <time>2022-02-11T15:05:16Z</time>
      </trkpt>
      <trkpt lat="49.91869" lon="2.36101">
        <ele>65.7</ele>
        <time>2022-02-11T15:05:17Z</time>
      </trkpt>
      <trkpt lat="49.91868" lon="2.36101">
        <ele>65.7</ele>
        <time>2022-02-11T15:05:18Z</time>
      </trkpt>
      <trkpt lat="49.91868" lon="2.361">
        <ele>65.7</ele>
        <time>2022-02-11T15:05:19Z</time>
      </trkpt>
      <trkpt lat="49.91868" lon="2.361">
        <ele>65.7</ele>
        <time>2022-02-11T15:05:20Z</time>
      </trkpt>
      <trkpt lat="49.91868" lon="2.36101">
        <ele>65.7</ele>
        <time>2022-02-11T15:05:21Z</time>
      </trkpt>
      <trkpt lat="49.91868" lon="2.36101">
        <ele>65.7</ele>
        <time>2022-02-11T15:05:22Z</time>
      </trkpt>
      <trkpt lat="49.91868" lon="2.36101">
        <ele>65.7</ele>
        <time>2022-02-11T15:05:23Z</time>
      </trkpt>
      <trkpt lat="49.91868" lon="2.36101">
        <ele>65.7</ele>
        <time>2022-02-11T15:05:24Z</time>
      </trkpt>
      <trkpt lat="49.91868" lon="2.36102">
        <ele>65.7</ele>
        <time>2022-02-11T15:05:25Z</time>
      </trkpt>
      <trkpt lat="49.91868" lon="2.36102">
        <ele>65.7</ele>
        <time>2022-02-11T15:05:26Z</time>
      </trkpt>
      <trkpt lat="49.91868" lon="2.36102">
        <ele>65.7</ele>
        <time>2022-02-11T15:05:27Z</time>
      </trkpt>
      <trkpt lat="49.91868" lon="2.36102">
        <ele>65.7</ele>
        <time>2022-02-11T15:05:28Z</time>
      </trkpt>
      <trkpt lat="49.91868" lon="2.36102">
        <ele>65.7</ele>
        <time>2022-02-11T15:05:29Z</time>
      </trkpt>
      <trkpt lat="49.91868" lon="2.36102">
        <ele>65.7</ele>
        <time>2022-02-11T15:05:30Z</time>
      </trkpt>
      <trkpt lat="49.91868" lon="2.36102">
        <ele>65.7</ele>
        <time>2022-02-11T15:05:31Z</time>
      </trkpt>
      <trkpt lat="49.91868" lon="2.36102">
        <ele>65.7</ele>
        <time>2022-02-11T15:05:32Z</time>
      </trkpt>
      <trkpt lat="49.91868" lon="2.36102">
        <ele>65.7</ele>
        <time>2022-02-11T15:05:33Z</time>
      </trkpt>
      <trkpt lat="49.91868" lon="2.36102">
        <ele>65.7</ele>
        <time>2022-02-11T15:05:34Z</time>
      </trkpt>
      <trkpt lat="49.91868" lon="2.36102">
        <ele>65.7</ele>
        <time>2022-02-11T15:05:35Z</time>
      </trkpt>
      <trkpt lat="49.91868" lon="2.36102">
        <ele>65.7</ele>
        <time>2022-02-11T15:05:36Z</time>
      </trkpt>
      <trkpt lat="49.91868" lon="2.36102">
        <ele>65.7</ele>
        <time>2022-02-11T15:05:37Z</time>
      </trkpt>
      <trkpt lat="49.91868" lon="2.36102">
        <ele>65.7</ele>
        <time>2022-02-11T15:05:38Z</time>
      </trkpt>
      <trkpt lat="49.91868" lon="2.36102">
        <ele>65.7</ele>
        <time>2022-02-11T15:05:39Z</time>
      </trkpt>
      <trkpt lat="49.91868" lon="2.36102">
        <ele>65.7</ele>
        <time>2022-02-11T15:05:40Z</time>
      </trkpt>
      <trkpt lat="49.91868" lon="2.36102">
        <ele>65.7</ele>
        <time>2022-02-11T15:05:41Z</time>
      </trkpt>
      <trkpt lat="49.91868" lon="2.36102">
        <ele>65.7</ele>
        <time>2022-02-11T15:05:42Z</time>
      </trkpt>
      <trkpt lat="49.91868" lon="2.36102">
        <ele>65.7</ele>
        <time>2022-02-11T15:05:43Z</time>
      </trkpt>
      <trkpt lat="49.91868" lon="2.36102">
        <ele>65.7</ele>
        <time>2022-02-11T15:05:44Z</time>
      </trkpt>
      <trkpt lat="49.91868" lon="2.36102">
        <ele>65.7</ele>
        <time>2022-02-11T15:05:45Z</time>
      </trkpt>
      <trkpt lat="49.91868" lon="2.36102">
        <ele>65.7</ele>
        <time>2022-02-11T15:05:46Z</time>
      </trkpt>
      <trkpt lat="49.91869" lon="2.36104">
        <ele>65.7</ele>
        <time>2022-02-11T15:05:47Z</time>
      </trkpt>
      <trkpt lat="49.91869" lon="2.36106">
        <ele>65.7</ele>
        <time>2022-02-11T15:05:48Z</time>
      </trkpt>
      <trkpt lat="49.91869" lon="2.36107">
        <ele>65.7</ele>
        <time>2022-02-11T15:05:49Z</time>
      </trkpt>
      <trkpt lat="49.91869" lon="2.36107">
        <ele>65.7</ele>
        <time>2022-02-11T15:05:50Z</time>
      </trkpt>
      <trkpt lat="49.91869" lon="2.36107">
        <ele>65.7</ele>
        <time>2022-02-11T15:05:51Z</time>
      </trkpt>
      <trkpt lat="49.91869" lon="2.36107">
        <ele>65.7</ele>
        <time>2022-02-11T15:05:52Z</time>
      </trkpt>
      <trkpt lat="49.91868" lon="2.36107">
        <ele>65.7</ele>
        <time>2022-02-11T15:05:53Z</time>
      </trkpt>
      <trkpt lat="49.91868" lon="2.36107">
        <ele>65.7</ele>
        <time>2022-02-11T15:05:54Z</time>
      </trkpt>
      <trkpt lat="49.91868" lon="2.36107">
        <ele>65.7</ele>
        <time>2022-02-11T15:05:55Z</time>
      </trkpt>
      <trkpt lat="49.91868" lon="2.36107">
        <ele>65.7</ele>
        <time>2022-02-11T15:05:56Z</time>
      </trkpt>
      <trkpt lat="49.91868" lon="2.36107">
        <ele>65.7</ele>
        <time>2022-02-11T15:05:57Z</time>
      </trkpt>
      <trkpt lat="49.91869" lon="2.36107">
        <ele>65.7</ele>
        <time>2022-02-11T15:05:58Z</time>
      </trkpt>
      <trkpt lat="49.91869" lon="2.36107">
        <ele>65.7</ele>
        <time>2022-02-11T15:05:59Z</time>
      </trkpt>
      <trkpt lat="49.91869" lon="2.36107">
        <ele>65.7</ele>
        <time>2022-02-11T15:06:00Z</time>
      </trkpt>
      <trkpt lat="49.91869" lon="2.36107">
        <ele>65.7</ele>
        <time>2022-02-11T15:06:01Z</time>
      </trkpt>
      <trkpt lat="49.91869" lon="2.36107">
        <ele>65.7</ele>
        <time>2022-02-11T15:06:02Z</time>
      </trkpt>
      <trkpt lat="49.91869" lon="2.36107">
        <ele>65.7</ele>
        <time>2022-02-11T15:06:03Z</time>
      </trkpt>
      <trkpt lat="49.91869" lon="2.36107">
        <ele>65.7</ele>
        <time>2022-02-11T15:06:04Z</time>
      </trkpt>
      <trkpt lat="49.91869" lon="2.36107">
        <ele>65.7</ele>
        <time>2022-02-11T15:06:05Z</time>
      </trkpt>
      <trkpt lat="49.91869" lon="2.36107">
        <ele>65.7</ele>
        <time>2022-02-11T15:06:06Z</time>
      </trkpt>
      <trkpt lat="49.91869" lon="2.36107">
        <ele>65.7</ele>
        <time>2022-02-11T15:06:07Z</time>
      </trkpt>
      <trkpt lat="49.91869" lon="2.36107">
        <ele>65.7</ele>
        <time>2022-02-11T15:06:08Z</time>
      </trkpt>
      <trkpt lat="49.91869" lon="2.36107">
        <ele>65.7</ele>
        <time>2022-02-11T15:06:09Z</time>
      </trkpt>
      <trkpt lat="49.91869" lon="2.36107">
        <ele>65.7</ele>
        <time>2022-02-11T15:06:10Z</time>
      </trkpt>
      <trkpt lat="49.91869" lon="2.36107">
        <ele>65.7</ele>
        <time>2022-02-11T15:06:11Z</time>
      </trkpt>
      <trkpt lat="49.91869" lon="2.36107">
        <ele>65.7</ele>
        <time>2022-02-11T15:06:12Z</time>
      </trkpt>
      <trkpt lat="49.91869" lon="2.36107">
        <ele>65.7</ele>
        <time>2022-02-11T15:06:13Z</time>
      </trkpt>
      <trkpt lat="49.91869" lon="2.36107">
        <ele>65.7</ele>
        <time>2022-02-11T15:06:14Z</time>
      </trkpt>
      <trkpt lat="49.91869" lon="2.36107">
        <ele>65.7</ele>
        <time>2022-02-11T15:06:15Z</time>
      </trkpt>
      <trkpt lat="49.91868" lon="2.36106">
        <ele>65.7</ele>
        <time>2022-02-11T15:06:16Z</time>
      </trkpt>
      <trkpt lat="49.91867" lon="2.36106">
        <ele>65.7</ele>
        <time>2022-02-11T15:06:17Z</time>
      </trkpt>
      <trkpt lat="49.91867" lon="2.36106">
        <ele>65.7</ele>
        <time>2022-02-11T15:06:18Z</time>
      </trkpt>
      <trkpt lat="49.91867" lon="2.36106">
        <ele>65.7</ele>
        <time>2022-02-11T15:06:19Z</time>
      </trkpt>
      <trkpt lat="49.91867" lon="2.36106">
        <ele>65.7</ele>
        <time>2022-02-11T15:06:20Z</time>
      </trkpt>
      <trkpt lat="49.91867" lon="2.36106">
        <ele>65.7</ele>
        <time>2022-02-11T15:06:21Z</time>
      </trkpt>
      <trkpt lat="49.91867" lon="2.36106">
        <ele>65.7</ele>
        <time>2022-02-11T15:06:22Z</time>
      </trkpt>
      <trkpt lat="49.91867" lon="2.36106">
        <ele>65.7</ele>
        <time>2022-02-11T15:06:23Z</time>
      </trkpt>
      <trkpt lat="49.91867" lon="2.36106">
        <ele>65.7</ele>
        <time>2022-02-11T15:06:24Z</time>
      </trkpt>
      <trkpt lat="49.91867" lon="2.36106">
        <ele>65.7</ele>
        <time>2022-02-11T15:06:25Z</time>
      </trkpt>
      <trkpt lat="49.91867" lon="2.36106">
        <ele>65.7</ele>
        <time>2022-02-11T15:06:26Z</time>
      </trkpt>
      <trkpt lat="49.91867" lon="2.36106">
        <ele>65.7</ele>
        <time>2022-02-11T15:06:27Z</time>
      </trkpt>
      <trkpt lat="49.91867" lon="2.36106">
        <ele>65.7</ele>
        <time>2022-02-11T15:06:28Z</time>
      </trkpt>
    </trkseg>
  </trk>
</gpx>